<?xml version='1.0' encoding='UTF-8'?><gpx version="1.1" creator="JPX - https://github.com/jenetics/jpx" xmlns="http://www.topografix.com/GPX/1/1"><trk><trkseg><trkpt lat="44.388308" lon="11.432101"><ele>122.33333333333333</ele><time>2026-04-04T07:46:02.775Z</time></trkpt><trkpt lat="44.3883592" lon="11.4321815"><ele>122.66666666666666</ele><time>2026-04-04T07:51:16.783Z</time></trkpt><trkpt lat="44.3884357" lon="11.4321955"><ele>123.0</ele><time>2026-04-04T07:51:27.784Z</time></trkpt><trkpt lat="44.3885287" lon="11.4322113"><ele>123.33333333333334</ele><time>2026-04-04T07:51:29.785Z</time></trkpt><trkpt lat="44.3885938" lon="11.4323555"><ele>123.66666666666667</ele><time>2026-04-04T07:51:31.784Z</time></trkpt><trkpt lat="44.3886007" lon="11.4324493"><ele>124.0</ele><time>2026-04-04T07:51:32.782Z</time></trkpt><trkpt lat="44.3885847" lon="11.4325988"><ele>124.0</ele><time>2026-04-04T07:51:34.784Z</time></trkpt><trkpt lat="44.3885438" lon="11.432679"><ele>124.0</ele><time>2026-04-04T07:51:36.786Z</time></trkpt><trkpt lat="44.3884323" lon="11.4327142"><ele>124.0</ele><time>2026-04-04T07:51:39.785Z</time></trkpt><trkpt lat="44.3883538" lon="11.4327298"><ele>124.0</ele><time>2026-04-04T07:51:40.785Z</time></trkpt><trkpt lat="44.3882563" lon="11.432735"><ele>124.0</ele><time>2026-04-04T07:51:41.784Z</time></trkpt><trkpt lat="44.3881423" lon="11.4327158"><ele>124.0</ele><time>2026-04-04T07:51:42.784Z</time></trkpt><trkpt lat="44.3880208" lon="11.4326693"><ele>124.0</ele><time>2026-04-04T07:51:43.784Z</time></trkpt><trkpt lat="44.3878915" lon="11.432599"><ele>124.0</ele><time>2026-04-04T07:51:44.783Z</time></trkpt><trkpt lat="44.3877577" lon="11.4325127"><ele>124.0</ele><time>2026-04-04T07:51:45.781Z</time></trkpt><trkpt lat="44.3876237" lon="11.4324263"><ele>124.0</ele><time>2026-04-04T07:51:46.781Z</time></trkpt><trkpt lat="44.3874875" lon="11.4323502"><ele>124.0</ele><time>2026-04-04T07:51:47.781Z</time></trkpt><trkpt lat="44.3873473" lon="11.4322933"><ele>124.0</ele><time>2026-04-04T07:51:48.782Z</time></trkpt><trkpt lat="44.3872028" lon="11.4322637"><ele>124.0</ele><time>2026-04-04T07:51:49.788Z</time></trkpt><trkpt lat="44.3870522" lon="11.432264"><ele>124.0</ele><time>2026-04-04T07:51:50.785Z</time></trkpt><trkpt lat="44.386903" lon="11.4322832"><ele>124.0</ele><time>2026-04-04T07:51:51.785Z</time></trkpt><trkpt lat="44.3867582" lon="11.4323145"><ele>124.0</ele><time>2026-04-04T07:51:52.782Z</time></trkpt><trkpt lat="44.3866153" lon="11.4323515"><ele>124.0</ele><time>2026-04-04T07:51:53.783Z</time></trkpt><trkpt lat="44.3864722" lon="11.4323847"><ele>123.75</ele><time>2026-04-04T07:51:54.785Z</time></trkpt><trkpt lat="44.3863277" lon="11.4324148"><ele>123.5</ele><time>2026-04-04T07:51:55.785Z</time></trkpt><trkpt lat="44.3861823" lon="11.4324423"><ele>123.25</ele><time>2026-04-04T07:51:56.785Z</time></trkpt><trkpt lat="44.3860358" lon="11.4324652"><ele>123.0</ele><time>2026-04-04T07:51:57.786Z</time></trkpt><trkpt lat="44.385888" lon="11.4324818"><ele>123.0</ele><time>2026-04-04T07:51:58.785Z</time></trkpt><trkpt lat="44.385739" lon="11.4324958"><ele>123.0</ele><time>2026-04-04T07:51:59.782Z</time></trkpt><trkpt lat="44.3855907" lon="11.4325102"><ele>123.0</ele><time>2026-04-04T07:52:00.785Z</time></trkpt><trkpt lat="44.385444" lon="11.4325258"><ele>123.0</ele><time>2026-04-04T07:52:01.785Z</time></trkpt><trkpt lat="44.3853008" lon="11.4325388"><ele>122.5</ele><time>2026-04-04T07:52:02.786Z</time></trkpt><trkpt lat="44.3851675" lon="11.4325533"><ele>122.0</ele><time>2026-04-04T07:52:03.786Z</time></trkpt><trkpt lat="44.3850448" lon="11.432566"><ele>121.5</ele><time>2026-04-04T07:52:04.782Z</time></trkpt><trkpt lat="44.3849327" lon="11.4325782"><ele>121.0</ele><time>2026-04-04T07:52:05.783Z</time></trkpt><trkpt lat="44.3848305" lon="11.432584"><ele>121.00000000000001</ele><time>2026-04-04T07:52:06.785Z</time></trkpt><trkpt lat="44.3847395" lon="11.4325832"><ele>121.0</ele><time>2026-04-04T07:52:07.785Z</time></trkpt><trkpt lat="44.3846595" lon="11.4325778"><ele>121.0</ele><time>2026-04-04T07:52:08.779Z</time></trkpt><trkpt lat="44.3845898" lon="11.4325708"><ele>121.0</ele><time>2026-04-04T07:52:09.78Z</time></trkpt><trkpt lat="44.3844885" lon="11.4326045"><ele>121.00000000000001</ele><time>2026-04-04T07:52:11.781Z</time></trkpt><trkpt lat="44.3845122" lon="11.4327115"><ele>121.0</ele><time>2026-04-04T07:52:14.784Z</time></trkpt><trkpt lat="44.3846105" lon="11.4327838"><ele>121.0</ele><time>2026-04-04T07:52:16.784Z</time></trkpt><trkpt lat="44.3846178" lon="11.4328948"><ele>121.0</ele><time>2026-04-04T07:52:18.783Z</time></trkpt><trkpt lat="44.3845738" lon="11.4329903"><ele>121.0</ele><time>2026-04-04T07:52:20.785Z</time></trkpt><trkpt lat="44.3844958" lon="11.433148"><ele>121.0</ele><time>2026-04-04T07:52:22.784Z</time></trkpt><trkpt lat="44.384462" lon="11.4332705"><ele>121.0</ele><time>2026-04-04T07:52:23.783Z</time></trkpt><trkpt lat="44.3844432" lon="11.4333803"><ele>122.66666666666667</ele><time>2026-04-04T07:52:24.783Z</time></trkpt><trkpt lat="44.3844425" lon="11.433474"><ele>124.33333333333334</ele><time>2026-04-04T07:52:25.783Z</time></trkpt><trkpt lat="44.3844612" lon="11.4335658"><ele>126.0</ele><time>2026-04-04T07:52:26.784Z</time></trkpt><trkpt lat="44.3844865" lon="11.4336622"><ele>127.66666666666666</ele><time>2026-04-04T07:52:27.786Z</time></trkpt><trkpt lat="44.3844893" lon="11.4337627"><ele>129.33333333333331</ele><time>2026-04-04T07:52:28.785Z</time></trkpt><trkpt lat="44.3844792" lon="11.4338755"><ele>131.0</ele><time>2026-04-04T07:52:29.785Z</time></trkpt><trkpt lat="44.3844658" lon="11.4340087"><ele>132.83333333333331</ele><time>2026-04-04T07:52:30.786Z</time></trkpt><trkpt lat="44.3844578" lon="11.4341258"><ele>134.66666666666666</ele><time>2026-04-04T07:52:31.788Z</time></trkpt><trkpt lat="44.3844612" lon="11.4342407"><ele>136.5</ele><time>2026-04-04T07:52:32.784Z</time></trkpt><trkpt lat="44.384459" lon="11.4343487"><ele>138.33333333333334</ele><time>2026-04-04T07:52:33.783Z</time></trkpt><trkpt lat="44.3844432" lon="11.434452"><ele>140.16666666666669</ele><time>2026-04-04T07:52:34.783Z</time></trkpt><trkpt lat="44.3844335" lon="11.4345655"><ele>142.0</ele><time>2026-04-04T07:52:35.781Z</time></trkpt><trkpt lat="44.3844273" lon="11.4346892"><ele>145.2</ele><time>2026-04-04T07:52:36.78Z</time></trkpt><trkpt lat="44.3844392" lon="11.4348225"><ele>148.39999999999998</ele><time>2026-04-04T07:52:37.782Z</time></trkpt><trkpt lat="44.38447" lon="11.4349448"><ele>151.60000000000002</ele><time>2026-04-04T07:52:38.785Z</time></trkpt><trkpt lat="44.384522" lon="11.4350557"><ele>154.8</ele><time>2026-04-04T07:52:39.784Z</time></trkpt><trkpt lat="44.384593" lon="11.435169"><ele>158.0</ele><time>2026-04-04T07:52:40.785Z</time></trkpt><trkpt lat="44.3846792" lon="11.4352805"><ele>159.75</ele><time>2026-04-04T07:52:41.783Z</time></trkpt><trkpt lat="44.3847623" lon="11.4354042"><ele>161.5</ele><time>2026-04-04T07:52:42.784Z</time></trkpt><trkpt lat="44.3848377" lon="11.4355442"><ele>163.25</ele><time>2026-04-04T07:52:43.785Z</time></trkpt><trkpt lat="44.3849075" lon="11.4356955"><ele>165.0</ele><time>2026-04-04T07:52:44.784Z</time></trkpt><trkpt lat="44.3849642" lon="11.4358385"><ele>168.6</ele><time>2026-04-04T07:52:45.785Z</time></trkpt><trkpt lat="44.3850055" lon="11.4359673"><ele>172.2</ele><time>2026-04-04T07:52:46.782Z</time></trkpt><trkpt lat="44.3850395" lon="11.4360653"><ele>175.8</ele><time>2026-04-04T07:52:47.781Z</time></trkpt><trkpt lat="44.3850522" lon="11.4362073"><ele>179.4</ele><time>2026-04-04T07:52:49.784Z</time></trkpt><trkpt lat="44.384955" lon="11.436304"><ele>183.0</ele><time>2026-04-04T07:52:51.784Z</time></trkpt><trkpt lat="44.3848722" lon="11.4363357"><ele>185.2</ele><time>2026-04-04T07:52:52.782Z</time></trkpt><trkpt lat="44.3847887" lon="11.4363728"><ele>187.4</ele><time>2026-04-04T07:52:53.785Z</time></trkpt><trkpt lat="44.384728" lon="11.4364855"><ele>189.6</ele><time>2026-04-04T07:52:55.785Z</time></trkpt><trkpt lat="44.384783" lon="11.4366508"><ele>191.79999999999998</ele><time>2026-04-04T07:52:57.781Z</time></trkpt><trkpt lat="44.3848132" lon="11.4367413"><ele>194.0</ele><time>2026-04-04T07:52:58.782Z</time></trkpt><trkpt lat="44.3847748" lon="11.4368937"><ele>194.0</ele><time>2026-04-04T07:53:00.784Z</time></trkpt><trkpt lat="44.3847017" lon="11.4369917"><ele>194.0</ele><time>2026-04-04T07:53:01.786Z</time></trkpt><trkpt lat="44.3846118" lon="11.4370937"><ele>194.0</ele><time>2026-04-04T07:53:02.783Z</time></trkpt><trkpt lat="44.3845208" lon="11.4371683"><ele>194.0</ele><time>2026-04-04T07:53:03.783Z</time></trkpt><trkpt lat="44.38443" lon="11.4372142"><ele>194.0</ele><time>2026-04-04T07:53:04.787Z</time></trkpt><trkpt lat="44.3843443" lon="11.4372538"><ele>195.00000000000003</ele><time>2026-04-04T07:53:05.784Z</time></trkpt><trkpt lat="44.3842642" lon="11.4373015"><ele>196.0</ele><time>2026-04-04T07:53:06.784Z</time></trkpt><trkpt lat="44.3841812" lon="11.4373585"><ele>197.0</ele><time>2026-04-04T07:53:07.783Z</time></trkpt><trkpt lat="44.3841027" lon="11.4374042"><ele>198.0</ele><time>2026-04-04T07:53:08.785Z</time></trkpt><trkpt lat="44.3840298" lon="11.4374433"><ele>199.00000000000003</ele><time>2026-04-04T07:53:09.785Z</time></trkpt><trkpt lat="44.383967" lon="11.4374788"><ele>200.0</ele><time>2026-04-04T07:53:10.784Z</time></trkpt><trkpt lat="44.3839063" lon="11.4375137"><ele>203.8</ele><time>2026-04-04T07:53:11.784Z</time></trkpt><trkpt lat="44.3838322" lon="11.4375455"><ele>207.6</ele><time>2026-04-04T07:53:12.783Z</time></trkpt><trkpt lat="44.3837515" lon="11.4375748"><ele>211.39999999999998</ele><time>2026-04-04T07:53:13.787Z</time></trkpt><trkpt lat="44.3836693" lon="11.437603"><ele>215.2</ele><time>2026-04-04T07:53:14.785Z</time></trkpt><trkpt lat="44.3835685" lon="11.4376383"><ele>219.0</ele><time>2026-04-04T07:53:15.783Z</time></trkpt><trkpt lat="44.3834553" lon="11.4376763"><ele>219.0</ele><time>2026-04-04T07:53:16.781Z</time></trkpt><trkpt lat="44.383333" lon="11.4376963"><ele>219.0</ele><time>2026-04-04T07:53:17.782Z</time></trkpt><trkpt lat="44.383195" lon="11.4377032"><ele>219.0</ele><time>2026-04-04T07:53:18.784Z</time></trkpt><trkpt lat="44.3830705" lon="11.4376988"><ele>219.0</ele><time>2026-04-04T07:53:19.783Z</time></trkpt><trkpt lat="44.3829642" lon="11.4376805"><ele>223.79999999999998</ele><time>2026-04-04T07:53:20.785Z</time></trkpt><trkpt lat="44.3828703" lon="11.437637"><ele>228.59999999999997</ele><time>2026-04-04T07:53:21.783Z</time></trkpt><trkpt lat="44.38278" lon="11.437568"><ele>233.4</ele><time>2026-04-04T07:53:22.782Z</time></trkpt><trkpt lat="44.3826993" lon="11.4375057"><ele>238.2</ele><time>2026-04-04T07:53:23.78Z</time></trkpt><trkpt lat="44.382614" lon="11.4374742"><ele>243.0</ele><time>2026-04-04T07:53:24.78Z</time></trkpt><trkpt lat="44.3825122" lon="11.4374712"><ele>243.0</ele><time>2026-04-04T07:53:25.786Z</time></trkpt><trkpt lat="44.3824198" lon="11.4374653"><ele>243.0</ele><time>2026-04-04T07:53:26.785Z</time></trkpt><trkpt lat="44.3823392" lon="11.4374282"><ele>243.0</ele><time>2026-04-04T07:53:27.785Z</time></trkpt><trkpt lat="44.382269" lon="11.4373682"><ele>243.0</ele><time>2026-04-04T07:53:28.787Z</time></trkpt><trkpt lat="44.3821933" lon="11.4373262"><ele>243.0</ele><time>2026-04-04T07:53:30.785Z</time></trkpt><trkpt lat="44.3821892" lon="11.4374328"><ele>243.0</ele><time>2026-04-04T07:53:33.786Z</time></trkpt><trkpt lat="44.3822167" lon="11.4375125"><ele>243.0</ele><time>2026-04-04T07:53:34.787Z</time></trkpt><trkpt lat="44.3822542" lon="11.4376033"><ele>243.0</ele><time>2026-04-04T07:53:35.787Z</time></trkpt><trkpt lat="44.382311" lon="11.4377017"><ele>243.0</ele><time>2026-04-04T07:53:36.783Z</time></trkpt><trkpt lat="44.3823828" lon="11.4378063"><ele>243.0</ele><time>2026-04-04T07:53:37.787Z</time></trkpt><trkpt lat="44.382444" lon="11.4379038"><ele>243.0</ele><time>2026-04-04T07:53:38.786Z</time></trkpt><trkpt lat="44.382485" lon="11.4380087"><ele>243.0</ele><time>2026-04-04T07:53:39.785Z</time></trkpt><trkpt lat="44.3825055" lon="11.4381242"><ele>245.60000000000002</ele><time>2026-04-04T07:53:40.786Z</time></trkpt><trkpt lat="44.3825152" lon="11.4382482"><ele>248.20000000000002</ele><time>2026-04-04T07:53:41.785Z</time></trkpt><trkpt lat="44.3825193" lon="11.4383815"><ele>250.8</ele><time>2026-04-04T07:53:42.785Z</time></trkpt><trkpt lat="44.3825115" lon="11.4385295"><ele>253.4</ele><time>2026-04-04T07:53:43.786Z</time></trkpt><trkpt lat="44.3824993" lon="11.43867"><ele>256.0</ele><time>2026-04-04T07:53:44.784Z</time></trkpt><trkpt lat="44.3824713" lon="11.4387892"><ele>256.6</ele><time>2026-04-04T07:53:45.783Z</time></trkpt><trkpt lat="44.3824322" lon="11.4388945"><ele>257.20000000000005</ele><time>2026-04-04T07:53:46.785Z</time></trkpt><trkpt lat="44.382387" lon="11.4390028"><ele>257.79999999999995</ele><time>2026-04-04T07:53:47.784Z</time></trkpt><trkpt lat="44.3823318" lon="11.4391017"><ele>258.4</ele><time>2026-04-04T07:53:48.782Z</time></trkpt><trkpt lat="44.3822647" lon="11.4391927"><ele>259.0</ele><time>2026-04-04T07:53:49.782Z</time></trkpt><trkpt lat="44.3821968" lon="11.4392873"><ele>264.66666666666663</ele><time>2026-04-04T07:53:50.784Z</time></trkpt><trkpt lat="44.3821532" lon="11.439389"><ele>270.3333333333333</ele><time>2026-04-04T07:53:51.787Z</time></trkpt><trkpt lat="44.3821298" lon="11.4395048"><ele>276.0</ele><time>2026-04-04T07:53:52.787Z</time></trkpt><trkpt lat="44.3821123" lon="11.4396217"><ele>281.6666666666667</ele><time>2026-04-04T07:53:53.786Z</time></trkpt><trkpt lat="44.3820815" lon="11.4397165"><ele>287.33333333333337</ele><time>2026-04-04T07:53:54.788Z</time></trkpt><trkpt lat="44.3820355" lon="11.4397842"><ele>293.0</ele><time>2026-04-04T07:53:55.784Z</time></trkpt><trkpt lat="44.3819805" lon="11.4398452"><ele>293.33333333333337</ele><time>2026-04-04T07:53:56.784Z</time></trkpt><trkpt lat="44.3819213" lon="11.4398947"><ele>293.6666666666667</ele><time>2026-04-04T07:53:57.785Z</time></trkpt><trkpt lat="44.3818535" lon="11.4399403"><ele>294.0</ele><time>2026-04-04T07:53:58.788Z</time></trkpt><trkpt lat="44.3817793" lon="11.4400018"><ele>294.3333333333333</ele><time>2026-04-04T07:53:59.788Z</time></trkpt><trkpt lat="44.3817072" lon="11.4400775"><ele>294.66666666666663</ele><time>2026-04-04T07:54:00.787Z</time></trkpt><trkpt lat="44.381645" lon="11.4401697"><ele>295.0</ele><time>2026-04-04T07:54:01.787Z</time></trkpt><trkpt lat="44.3815927" lon="11.4402807"><ele>295.0</ele><time>2026-04-04T07:54:02.786Z</time></trkpt><trkpt lat="44.3815527" lon="11.4404118"><ele>295.0</ele><time>2026-04-04T07:54:03.788Z</time></trkpt><trkpt lat="44.381529" lon="11.440568"><ele>295.0</ele><time>2026-04-04T07:54:04.787Z</time></trkpt><trkpt lat="44.3815248" lon="11.4407305"><ele>295.0</ele><time>2026-04-04T07:54:05.787Z</time></trkpt><trkpt lat="44.3815427" lon="11.4409037"><ele>296.0</ele><time>2026-04-04T07:54:06.788Z</time></trkpt><trkpt lat="44.3815612" lon="11.4410815"><ele>297.0</ele><time>2026-04-04T07:54:07.784Z</time></trkpt><trkpt lat="44.3815732" lon="11.4412667"><ele>298.0</ele><time>2026-04-04T07:54:08.786Z</time></trkpt><trkpt lat="44.3815813" lon="11.4414657"><ele>299.0</ele><time>2026-04-04T07:54:09.787Z</time></trkpt><trkpt lat="44.3815855" lon="11.4416773"><ele>300.4</ele><time>2026-04-04T07:54:10.785Z</time></trkpt><trkpt lat="44.3815898" lon="11.4418633"><ele>301.79999999999995</ele><time>2026-04-04T07:54:11.785Z</time></trkpt><trkpt lat="44.3816008" lon="11.4420227"><ele>303.20000000000005</ele><time>2026-04-04T07:54:12.783Z</time></trkpt><trkpt lat="44.3816058" lon="11.4421482"><ele>304.6</ele><time>2026-04-04T07:54:13.785Z</time></trkpt><trkpt lat="44.3815868" lon="11.442236"><ele>306.0</ele><time>2026-04-04T07:54:14.787Z</time></trkpt><trkpt lat="44.3815382" lon="11.4423113"><ele>306.75</ele><time>2026-04-04T07:54:15.788Z</time></trkpt><trkpt lat="44.3814567" lon="11.4424"><ele>307.5</ele><time>2026-04-04T07:54:16.786Z</time></trkpt><trkpt lat="44.3813525" lon="11.4425132"><ele>308.25</ele><time>2026-04-04T07:54:17.785Z</time></trkpt><trkpt lat="44.3812355" lon="11.4426597"><ele>309.0</ele><time>2026-04-04T07:54:18.784Z</time></trkpt><trkpt lat="44.3811052" lon="11.4428337"><ele>311.0</ele><time>2026-04-04T07:54:19.787Z</time></trkpt><trkpt lat="44.3809667" lon="11.4430405"><ele>313.0</ele><time>2026-04-04T07:54:20.787Z</time></trkpt><trkpt lat="44.3808252" lon="11.443271"><ele>315.0</ele><time>2026-04-04T07:54:21.788Z</time></trkpt><trkpt lat="44.3807013" lon="11.4434815"><ele>315.0</ele><time>2026-04-04T07:54:22.787Z</time></trkpt><trkpt lat="44.3806045" lon="11.4436585"><ele>315.0</ele><time>2026-04-04T07:54:23.788Z</time></trkpt><trkpt lat="44.3805448" lon="11.4437948"><ele>315.0</ele><time>2026-04-04T07:54:24.786Z</time></trkpt><trkpt lat="44.380528" lon="11.4439078"><ele>315.0</ele><time>2026-04-04T07:54:25.785Z</time></trkpt><trkpt lat="44.3805483" lon="11.4440238"><ele>315.0</ele><time>2026-04-04T07:54:26.785Z</time></trkpt><trkpt lat="44.3805955" lon="11.4441668"><ele>316.0</ele><time>2026-04-04T07:54:27.785Z</time></trkpt><trkpt lat="44.3806568" lon="11.4443468"><ele>317.0</ele><time>2026-04-04T07:54:28.784Z</time></trkpt><trkpt lat="44.3807275" lon="11.4445473"><ele>318.0</ele><time>2026-04-04T07:54:29.788Z</time></trkpt><trkpt lat="44.3808018" lon="11.4447488"><ele>318.0</ele><time>2026-04-04T07:54:30.789Z</time></trkpt><trkpt lat="44.3808775" lon="11.4449568"><ele>318.0</ele><time>2026-04-04T07:54:31.789Z</time></trkpt><trkpt lat="44.3809442" lon="11.4451705"><ele>318.0</ele><time>2026-04-04T07:54:32.788Z</time></trkpt><trkpt lat="44.380994" lon="11.4453957"><ele>316.0</ele><time>2026-04-04T07:54:33.787Z</time></trkpt><trkpt lat="44.3810233" lon="11.4456328"><ele>314.0</ele><time>2026-04-04T07:54:34.788Z</time></trkpt><trkpt lat="44.3810338" lon="11.4458692"><ele>312.0</ele><time>2026-04-04T07:54:35.785Z</time></trkpt><trkpt lat="44.3810398" lon="11.4461125"><ele>310.3333333333333</ele><time>2026-04-04T07:54:36.786Z</time></trkpt><trkpt lat="44.3810497" lon="11.4463528"><ele>308.66666666666663</ele><time>2026-04-04T07:54:37.784Z</time></trkpt><trkpt lat="44.3810663" lon="11.4465743"><ele>307.0</ele><time>2026-04-04T07:54:38.783Z</time></trkpt><trkpt lat="44.3810843" lon="11.4467873"><ele>307.0</ele><time>2026-04-04T07:54:39.787Z</time></trkpt><trkpt lat="44.3810902" lon="11.4469878"><ele>307.0</ele><time>2026-04-04T07:54:40.787Z</time></trkpt><trkpt lat="44.3810802" lon="11.4471873"><ele>307.0</ele><time>2026-04-04T07:54:41.788Z</time></trkpt><trkpt lat="44.3810652" lon="11.4473875"><ele>307.0</ele><time>2026-04-04T07:54:42.788Z</time></trkpt><trkpt lat="44.3810615" lon="11.4475802"><ele>306.0</ele><time>2026-04-04T07:54:43.787Z</time></trkpt><trkpt lat="44.3810718" lon="11.4477827"><ele>305.0</ele><time>2026-04-04T07:54:44.787Z</time></trkpt><trkpt lat="44.3810887" lon="11.448014"><ele>304.0</ele><time>2026-04-04T07:54:45.788Z</time></trkpt><trkpt lat="44.3811085" lon="11.4482535"><ele>304.0</ele><time>2026-04-04T07:54:46.785Z</time></trkpt><trkpt lat="44.3811297" lon="11.448472"><ele>304.0</ele><time>2026-04-04T07:54:47.786Z</time></trkpt><trkpt lat="44.3811578" lon="11.4486822"><ele>304.0</ele><time>2026-04-04T07:54:48.787Z</time></trkpt><trkpt lat="44.3812018" lon="11.4489172"><ele>303.3333333333333</ele><time>2026-04-04T07:54:49.788Z</time></trkpt><trkpt lat="44.3812637" lon="11.4491753"><ele>302.6666666666667</ele><time>2026-04-04T07:54:50.785Z</time></trkpt><trkpt lat="44.3813325" lon="11.44945"><ele>302.0</ele><time>2026-04-04T07:54:51.785Z</time></trkpt><trkpt lat="44.3813993" lon="11.4497143"><ele>307.0</ele><time>2026-04-04T07:54:52.785Z</time></trkpt><trkpt lat="44.3814687" lon="11.4499623"><ele>312.0</ele><time>2026-04-04T07:54:53.785Z</time></trkpt><trkpt lat="44.3815492" lon="11.4501993"><ele>317.0</ele><time>2026-04-04T07:54:54.786Z</time></trkpt><trkpt lat="44.3816443" lon="11.4504007"><ele>319.33333333333337</ele><time>2026-04-04T07:54:55.786Z</time></trkpt><trkpt lat="44.3817502" lon="11.4505792"><ele>321.6666666666667</ele><time>2026-04-04T07:54:56.786Z</time></trkpt><trkpt lat="44.3818547" lon="11.450766"><ele>324.0</ele><time>2026-04-04T07:54:57.782Z</time></trkpt><trkpt lat="44.3819592" lon="11.4509608"><ele>324.0</ele><time>2026-04-04T07:54:58.785Z</time></trkpt><trkpt lat="44.382068" lon="11.4511487"><ele>324.0</ele><time>2026-04-04T07:54:59.785Z</time></trkpt><trkpt lat="44.3821837" lon="11.451332"><ele>324.0</ele><time>2026-04-04T07:55:00.786Z</time></trkpt><trkpt lat="44.3823068" lon="11.4515215"><ele>331.3333333333333</ele><time>2026-04-04T07:55:01.786Z</time></trkpt><trkpt lat="44.3824338" lon="11.4517087"><ele>338.66666666666663</ele><time>2026-04-04T07:55:02.784Z</time></trkpt><trkpt lat="44.382559" lon="11.4518977"><ele>346.0</ele><time>2026-04-04T07:55:03.783Z</time></trkpt><trkpt lat="44.382674" lon="11.4520872"><ele>348.6</ele><time>2026-04-04T07:55:04.789Z</time></trkpt><trkpt lat="44.382777" lon="11.4522487"><ele>351.20000000000005</ele><time>2026-04-04T07:55:05.788Z</time></trkpt><trkpt lat="44.3828642" lon="11.4523737"><ele>353.79999999999995</ele><time>2026-04-04T07:55:06.787Z</time></trkpt><trkpt lat="44.3829307" lon="11.452468"><ele>356.4</ele><time>2026-04-04T07:55:07.785Z</time></trkpt><trkpt lat="44.3829693" lon="11.4525455"><ele>359.0</ele><time>2026-04-04T07:55:08.791Z</time></trkpt><trkpt lat="44.3829793" lon="11.4526955"><ele>359.0</ele><time>2026-04-04T07:55:10.788Z</time></trkpt><trkpt lat="44.3829445" lon="11.4527793"><ele>359.0</ele><time>2026-04-04T07:55:11.787Z</time></trkpt><trkpt lat="44.38289" lon="11.452887"><ele>359.0</ele><time>2026-04-04T07:55:12.784Z</time></trkpt><trkpt lat="44.3828273" lon="11.453013"><ele>359.0</ele><time>2026-04-04T07:55:13.786Z</time></trkpt><trkpt lat="44.3827547" lon="11.4531275"><ele>359.0</ele><time>2026-04-04T07:55:14.786Z</time></trkpt><trkpt lat="44.3826682" lon="11.4532332"><ele>360.2</ele><time>2026-04-04T07:55:15.788Z</time></trkpt><trkpt lat="44.3825705" lon="11.4533338"><ele>361.4</ele><time>2026-04-04T07:55:16.785Z</time></trkpt><trkpt lat="44.3824618" lon="11.4534183"><ele>362.6</ele><time>2026-04-04T07:55:17.787Z</time></trkpt><trkpt lat="44.3823625" lon="11.4534898"><ele>363.8</ele><time>2026-04-04T07:55:18.787Z</time></trkpt><trkpt lat="44.3822963" lon="11.453559"><ele>365.0</ele><time>2026-04-04T07:55:19.787Z</time></trkpt><trkpt lat="44.3822438" lon="11.4536217"><ele>363.5</ele><time>2026-04-04T07:55:20.786Z</time></trkpt><trkpt lat="44.3821763" lon="11.4536912"><ele>362.0</ele><time>2026-04-04T07:55:21.785Z</time></trkpt><trkpt lat="44.3820873" lon="11.45377"><ele>360.5</ele><time>2026-04-04T07:55:22.783Z</time></trkpt><trkpt lat="44.3819795" lon="11.4538625"><ele>359.0</ele><time>2026-04-04T07:55:23.785Z</time></trkpt><trkpt lat="44.3818605" lon="11.4539522"><ele>359.0</ele><time>2026-04-04T07:55:24.784Z</time></trkpt><trkpt lat="44.3817358" lon="11.4540375"><ele>359.0</ele><time>2026-04-04T07:55:25.783Z</time></trkpt><trkpt lat="44.3816167" lon="11.4541338"><ele>359.0</ele><time>2026-04-04T07:55:26.783Z</time></trkpt><trkpt lat="44.3814968" lon="11.4542415"><ele>359.0</ele><time>2026-04-04T07:55:27.782Z</time></trkpt><trkpt lat="44.3813743" lon="11.4543428"><ele>357.75</ele><time>2026-04-04T07:55:28.784Z</time></trkpt><trkpt lat="44.3812513" lon="11.4544457"><ele>356.5</ele><time>2026-04-04T07:55:29.787Z</time></trkpt><trkpt lat="44.381121" lon="11.4545383"><ele>355.25</ele><time>2026-04-04T07:55:30.787Z</time></trkpt><trkpt lat="44.3809818" lon="11.4546172"><ele>354.0</ele><time>2026-04-04T07:55:31.788Z</time></trkpt><trkpt lat="44.3808387" lon="11.4546905"><ele>354.0</ele><time>2026-04-04T07:55:32.787Z</time></trkpt><trkpt lat="44.3806945" lon="11.454763"><ele>354.0</ele><time>2026-04-04T07:55:33.789Z</time></trkpt><trkpt lat="44.3805577" lon="11.4548247"><ele>354.0</ele><time>2026-04-04T07:55:34.789Z</time></trkpt><trkpt lat="44.380422" lon="11.4548812"><ele>354.0</ele><time>2026-04-04T07:55:35.788Z</time></trkpt><trkpt lat="44.3802938" lon="11.4549302"><ele>353.75</ele><time>2026-04-04T07:55:36.788Z</time></trkpt><trkpt lat="44.3801737" lon="11.4549672"><ele>353.5</ele><time>2026-04-04T07:55:37.783Z</time></trkpt><trkpt lat="44.3800603" lon="11.4550105"><ele>353.25</ele><time>2026-04-04T07:55:38.788Z</time></trkpt><trkpt lat="44.3799532" lon="11.4550743"><ele>353.0</ele><time>2026-04-04T07:55:39.788Z</time></trkpt><trkpt lat="44.3798408" lon="11.4551578"><ele>353.0</ele><time>2026-04-04T07:55:40.788Z</time></trkpt><trkpt lat="44.3797228" lon="11.4552335"><ele>353.0</ele><time>2026-04-04T07:55:41.786Z</time></trkpt><trkpt lat="44.3796085" lon="11.4553137"><ele>353.0</ele><time>2026-04-04T07:55:42.788Z</time></trkpt><trkpt lat="44.3794875" lon="11.4554038"><ele>353.0</ele><time>2026-04-04T07:55:43.788Z</time></trkpt><trkpt lat="44.3793695" lon="11.4555073"><ele>349.0</ele><time>2026-04-04T07:55:44.788Z</time></trkpt><trkpt lat="44.3792522" lon="11.4556262"><ele>345.0</ele><time>2026-04-04T07:55:45.785Z</time></trkpt><trkpt lat="44.3791262" lon="11.4557612"><ele>341.0</ele><time>2026-04-04T07:55:46.788Z</time></trkpt><trkpt lat="44.379006" lon="11.4558918"><ele>341.0</ele><time>2026-04-04T07:55:47.788Z</time></trkpt><trkpt lat="44.378894" lon="11.4560117"><ele>341.0</ele><time>2026-04-04T07:55:48.786Z</time></trkpt><trkpt lat="44.3787865" lon="11.4561303"><ele>341.0</ele><time>2026-04-04T07:55:49.785Z</time></trkpt><trkpt lat="44.378673" lon="11.456242"><ele>341.0</ele><time>2026-04-04T07:55:50.783Z</time></trkpt><trkpt lat="44.3785625" lon="11.4563327"><ele>341.0</ele><time>2026-04-04T07:55:51.785Z</time></trkpt><trkpt lat="44.3784432" lon="11.4564075"><ele>341.0</ele><time>2026-04-04T07:55:52.782Z</time></trkpt><trkpt lat="44.3783188" lon="11.4564787"><ele>341.0</ele><time>2026-04-04T07:55:53.785Z</time></trkpt><trkpt lat="44.3781948" lon="11.4565692"><ele>341.0</ele><time>2026-04-04T07:55:54.786Z</time></trkpt><trkpt lat="44.3780745" lon="11.4566768"><ele>340.25</ele><time>2026-04-04T07:55:55.787Z</time></trkpt><trkpt lat="44.3779627" lon="11.4568087"><ele>339.5</ele><time>2026-04-04T07:55:56.786Z</time></trkpt><trkpt lat="44.3778525" lon="11.4569562"><ele>338.75</ele><time>2026-04-04T07:55:57.785Z</time></trkpt><trkpt lat="44.3777423" lon="11.4570882"><ele>338.0</ele><time>2026-04-04T07:55:58.785Z</time></trkpt><trkpt lat="44.377655" lon="11.4571942"><ele>339.0</ele><time>2026-04-04T07:55:59.789Z</time></trkpt><trkpt lat="44.3775823" lon="11.4572577"><ele>340.0</ele><time>2026-04-04T07:56:00.788Z</time></trkpt><trkpt lat="44.3775093" lon="11.4572845"><ele>341.0</ele><time>2026-04-04T07:56:01.788Z</time></trkpt><trkpt lat="44.3774192" lon="11.4573002"><ele>342.0</ele><time>2026-04-04T07:56:02.787Z</time></trkpt><trkpt lat="44.377328" lon="11.4572965"><ele>343.0</ele><time>2026-04-04T07:56:03.788Z</time></trkpt><trkpt lat="44.3772383" lon="11.4572603"><ele>344.0</ele><time>2026-04-04T07:56:04.787Z</time></trkpt><trkpt lat="44.3771437" lon="11.4571928"><ele>340.75</ele><time>2026-04-04T07:56:05.786Z</time></trkpt><trkpt lat="44.3770425" lon="11.4571213"><ele>337.5</ele><time>2026-04-04T07:56:06.788Z</time></trkpt><trkpt lat="44.3769335" lon="11.4570722"><ele>334.25</ele><time>2026-04-04T07:56:07.788Z</time></trkpt><trkpt lat="44.3768177" lon="11.457057"><ele>331.0</ele><time>2026-04-04T07:56:08.788Z</time></trkpt><trkpt lat="44.376695" lon="11.4570483"><ele>331.0</ele><time>2026-04-04T07:56:09.788Z</time></trkpt><trkpt lat="44.376564" lon="11.4570255"><ele>331.0</ele><time>2026-04-04T07:56:10.79Z</time></trkpt><trkpt lat="44.3764357" lon="11.4570113"><ele>331.0</ele><time>2026-04-04T07:56:11.788Z</time></trkpt><trkpt lat="44.3763033" lon="11.4570293"><ele>331.0</ele><time>2026-04-04T07:56:12.785Z</time></trkpt><trkpt lat="44.3761777" lon="11.4570573"><ele>330.4</ele><time>2026-04-04T07:56:13.786Z</time></trkpt><trkpt lat="44.3760607" lon="11.4570702"><ele>329.8</ele><time>2026-04-04T07:56:14.785Z</time></trkpt><trkpt lat="44.3759555" lon="11.4570925"><ele>329.2</ele><time>2026-04-04T07:56:15.786Z</time></trkpt><trkpt lat="44.375874" lon="11.4571347"><ele>328.59999999999997</ele><time>2026-04-04T07:56:16.786Z</time></trkpt><trkpt lat="44.3757997" lon="11.4572025"><ele>328.0</ele><time>2026-04-04T07:56:17.784Z</time></trkpt><trkpt lat="44.3757267" lon="11.4572862"><ele>328.0</ele><time>2026-04-04T07:56:18.79Z</time></trkpt><trkpt lat="44.375643" lon="11.4573803"><ele>328.0</ele><time>2026-04-04T07:56:19.787Z</time></trkpt><trkpt lat="44.3755527" lon="11.4574817"><ele>328.0</ele><time>2026-04-04T07:56:20.787Z</time></trkpt><trkpt lat="44.3754495" lon="11.4575737"><ele>328.0</ele><time>2026-04-04T07:56:21.787Z</time></trkpt><trkpt lat="44.3753362" lon="11.4576363"><ele>328.75</ele><time>2026-04-04T07:56:22.783Z</time></trkpt><trkpt lat="44.3752207" lon="11.4576847"><ele>329.5</ele><time>2026-04-04T07:56:23.784Z</time></trkpt><trkpt lat="44.3751095" lon="11.457735"><ele>330.25</ele><time>2026-04-04T07:56:24.784Z</time></trkpt><trkpt lat="44.375007" lon="11.4577943"><ele>331.0</ele><time>2026-04-04T07:56:25.784Z</time></trkpt><trkpt lat="44.3749092" lon="11.4578728"><ele>331.8</ele><time>2026-04-04T07:56:26.784Z</time></trkpt><trkpt lat="44.3748188" lon="11.4579747"><ele>332.6</ele><time>2026-04-04T07:56:27.786Z</time></trkpt><trkpt lat="44.37475" lon="11.4580995"><ele>333.4</ele><time>2026-04-04T07:56:28.785Z</time></trkpt><trkpt lat="44.3746912" lon="11.4582288"><ele>334.2</ele><time>2026-04-04T07:56:29.785Z</time></trkpt><trkpt lat="44.3746303" lon="11.4583522"><ele>335.0</ele><time>2026-04-04T07:56:30.786Z</time></trkpt><trkpt lat="44.3745792" lon="11.45848"><ele>335.0</ele><time>2026-04-04T07:56:31.791Z</time></trkpt><trkpt lat="44.374544" lon="11.4586143"><ele>335.0</ele><time>2026-04-04T07:56:32.786Z</time></trkpt><trkpt lat="44.3745258" lon="11.4587648"><ele>335.0</ele><time>2026-04-04T07:56:33.789Z</time></trkpt><trkpt lat="44.3745123" lon="11.4589138"><ele>335.0</ele><time>2026-04-04T07:56:34.786Z</time></trkpt><trkpt lat="44.3744902" lon="11.4590575"><ele>335.0</ele><time>2026-04-04T07:56:35.784Z</time></trkpt><trkpt lat="44.374463" lon="11.4591938"><ele>333.0</ele><time>2026-04-04T07:56:36.785Z</time></trkpt><trkpt lat="44.3744502" lon="11.4593275"><ele>331.0</ele><time>2026-04-04T07:56:37.786Z</time></trkpt><trkpt lat="44.3744642" lon="11.4594605"><ele>329.0</ele><time>2026-04-04T07:56:38.784Z</time></trkpt><trkpt lat="44.374492" lon="11.4595992"><ele>327.0</ele><time>2026-04-04T07:56:39.785Z</time></trkpt><trkpt lat="44.3745263" lon="11.4597078"><ele>325.0</ele><time>2026-04-04T07:56:40.785Z</time></trkpt><trkpt lat="44.3745682" lon="11.4597983"><ele>323.5</ele><time>2026-04-04T07:56:41.785Z</time></trkpt><trkpt lat="44.3746225" lon="11.4598717"><ele>322.0</ele><time>2026-04-04T07:56:42.787Z</time></trkpt><trkpt lat="44.3746852" lon="11.4599467"><ele>320.5</ele><time>2026-04-04T07:56:43.788Z</time></trkpt><trkpt lat="44.3747418" lon="11.4600293"><ele>319.0</ele><time>2026-04-04T07:56:44.787Z</time></trkpt><trkpt lat="44.3747868" lon="11.4601135"><ele>317.5</ele><time>2026-04-04T07:56:45.785Z</time></trkpt><trkpt lat="44.3748123" lon="11.4601952"><ele>316.0</ele><time>2026-04-04T07:56:46.788Z</time></trkpt><trkpt lat="44.3748337" lon="11.4603658"><ele>311.5714285714286</ele><time>2026-04-04T07:56:48.786Z</time></trkpt><trkpt lat="44.374834" lon="11.4604568"><ele>307.14285714285717</ele><time>2026-04-04T07:56:49.787Z</time></trkpt><trkpt lat="44.3748267" lon="11.4605485"><ele>302.7142857142857</ele><time>2026-04-04T07:56:50.785Z</time></trkpt><trkpt lat="44.3748158" lon="11.4606395"><ele>298.28571428571433</ele><time>2026-04-04T07:56:51.785Z</time></trkpt><trkpt lat="44.3747987" lon="11.4607298"><ele>293.8571428571429</ele><time>2026-04-04T07:56:52.784Z</time></trkpt><trkpt lat="44.3747755" lon="11.4608175"><ele>289.42857142857144</ele><time>2026-04-04T07:56:53.786Z</time></trkpt><trkpt lat="44.3747483" lon="11.4609033"><ele>285.0</ele><time>2026-04-04T07:56:54.787Z</time></trkpt><trkpt lat="44.3747248" lon="11.4609922"><ele>285.0</ele><time>2026-04-04T07:56:55.787Z</time></trkpt><trkpt lat="44.3747553" lon="11.4611252"><ele>285.0</ele><time>2026-04-04T07:56:57.784Z</time></trkpt><trkpt lat="44.3749058" lon="11.4610958"><ele>285.0</ele><time>2026-04-04T07:56:59.785Z</time></trkpt><trkpt lat="44.3750088" lon="11.4610445"><ele>285.0</ele><time>2026-04-04T07:57:00.786Z</time></trkpt><trkpt lat="44.3751022" lon="11.4609948"><ele>285.0</ele><time>2026-04-04T07:57:01.785Z</time></trkpt><trkpt lat="44.375185" lon="11.4609427"><ele>285.0</ele><time>2026-04-04T07:57:02.781Z</time></trkpt><trkpt lat="44.3752597" lon="11.4608872"><ele>285.0</ele><time>2026-04-04T07:57:03.782Z</time></trkpt><trkpt lat="44.3753262" lon="11.4608328"><ele>285.0</ele><time>2026-04-04T07:57:04.784Z</time></trkpt><trkpt lat="44.375387" lon="11.460802"><ele>285.0</ele><time>2026-04-04T07:57:05.785Z</time></trkpt><trkpt lat="44.3754572" lon="11.4608835"><ele>285.0</ele><time>2026-04-04T07:57:07.785Z</time></trkpt><trkpt lat="44.3754707" lon="11.4609868"><ele>285.0</ele><time>2026-04-04T07:57:08.783Z</time></trkpt><trkpt lat="44.375464" lon="11.461109"><ele>285.0</ele><time>2026-04-04T07:57:09.786Z</time></trkpt><trkpt lat="44.3754587" lon="11.4612285"><ele>285.0</ele><time>2026-04-04T07:57:10.787Z</time></trkpt><trkpt lat="44.375471" lon="11.4613598"><ele>285.0</ele><time>2026-04-04T07:57:11.786Z</time></trkpt><trkpt lat="44.3754913" lon="11.461494"><ele>285.0</ele><time>2026-04-04T07:57:12.784Z</time></trkpt><trkpt lat="44.3755203" lon="11.4616247"><ele>279.6</ele><time>2026-04-04T07:57:13.786Z</time></trkpt><trkpt lat="44.3755495" lon="11.4617587"><ele>274.2</ele><time>2026-04-04T07:57:14.784Z</time></trkpt><trkpt lat="44.3755782" lon="11.4618947"><ele>268.8</ele><time>2026-04-04T07:57:15.786Z</time></trkpt><trkpt lat="44.3756003" lon="11.4620298"><ele>263.4</ele><time>2026-04-04T07:57:16.786Z</time></trkpt><trkpt lat="44.3756212" lon="11.4621632"><ele>258.0</ele><time>2026-04-04T07:57:17.783Z</time></trkpt><trkpt lat="44.3756432" lon="11.462296"><ele>257.0</ele><time>2026-04-04T07:57:18.786Z</time></trkpt><trkpt lat="44.3756735" lon="11.4624107"><ele>256.0</ele><time>2026-04-04T07:57:19.785Z</time></trkpt><trkpt lat="44.3757298" lon="11.462506"><ele>255.0</ele><time>2026-04-04T07:57:20.786Z</time></trkpt><trkpt lat="44.3758003" lon="11.4625802"><ele>254.0</ele><time>2026-04-04T07:57:21.785Z</time></trkpt><trkpt lat="44.3758733" lon="11.462663"><ele>253.0</ele><time>2026-04-04T07:57:22.784Z</time></trkpt><trkpt lat="44.3759355" lon="11.4627553"><ele>252.0</ele><time>2026-04-04T07:57:23.784Z</time></trkpt><trkpt lat="44.3759798" lon="11.4628552"><ele>250.8</ele><time>2026-04-04T07:57:24.787Z</time></trkpt><trkpt lat="44.3760118" lon="11.462976"><ele>249.6</ele><time>2026-04-04T07:57:25.786Z</time></trkpt><trkpt lat="44.3760458" lon="11.4631147"><ele>248.40000000000003</ele><time>2026-04-04T07:57:26.785Z</time></trkpt><trkpt lat="44.3760843" lon="11.4632705"><ele>247.20000000000002</ele><time>2026-04-04T07:57:27.782Z</time></trkpt><trkpt lat="44.3761227" lon="11.4634272"><ele>246.0</ele><time>2026-04-04T07:57:28.782Z</time></trkpt><trkpt lat="44.3761592" lon="11.4635838"><ele>246.0</ele><time>2026-04-04T07:57:29.783Z</time></trkpt><trkpt lat="44.37618" lon="11.4637213"><ele>246.00000000000003</ele><time>2026-04-04T07:57:30.785Z</time></trkpt><trkpt lat="44.3761885" lon="11.4638487"><ele>246.00000000000003</ele><time>2026-04-04T07:57:31.786Z</time></trkpt><trkpt lat="44.3761832" lon="11.4639768"><ele>246.0</ele><time>2026-04-04T07:57:32.785Z</time></trkpt><trkpt lat="44.376175" lon="11.464111"><ele>246.0</ele><time>2026-04-04T07:57:33.785Z</time></trkpt><trkpt lat="44.3761675" lon="11.464253"><ele>242.20000000000002</ele><time>2026-04-04T07:57:34.787Z</time></trkpt><trkpt lat="44.3761558" lon="11.4643937"><ele>238.40000000000003</ele><time>2026-04-04T07:57:35.786Z</time></trkpt><trkpt lat="44.3761307" lon="11.4645342"><ele>234.6</ele><time>2026-04-04T07:57:36.786Z</time></trkpt><trkpt lat="44.376102" lon="11.4646622"><ele>230.8</ele><time>2026-04-04T07:57:37.784Z</time></trkpt><trkpt lat="44.376067" lon="11.46477"><ele>227.0</ele><time>2026-04-04T07:57:38.784Z</time></trkpt><trkpt lat="44.3760183" lon="11.4648547"><ele>223.83333333333334</ele><time>2026-04-04T07:57:39.785Z</time></trkpt><trkpt lat="44.375955" lon="11.4649093"><ele>220.66666666666669</ele><time>2026-04-04T07:57:40.787Z</time></trkpt><trkpt lat="44.3758822" lon="11.4649383"><ele>217.5</ele><time>2026-04-04T07:57:41.788Z</time></trkpt><trkpt lat="44.3758013" lon="11.464952"><ele>214.33333333333331</ele><time>2026-04-04T07:57:42.788Z</time></trkpt><trkpt lat="44.3757158" lon="11.4649665"><ele>211.16666666666666</ele><time>2026-04-04T07:57:43.786Z</time></trkpt><trkpt lat="44.3756278" lon="11.4649883"><ele>208.0</ele><time>2026-04-04T07:57:44.787Z</time></trkpt><trkpt lat="44.3755488" lon="11.4650217"><ele>206.8</ele><time>2026-04-04T07:57:45.787Z</time></trkpt><trkpt lat="44.375489" lon="11.4650633"><ele>205.60000000000002</ele><time>2026-04-04T07:57:46.787Z</time></trkpt><trkpt lat="44.3754218" lon="11.4652153"><ele>204.39999999999998</ele><time>2026-04-04T07:57:48.783Z</time></trkpt><trkpt lat="44.3754115" lon="11.4653227"><ele>203.2</ele><time>2026-04-04T07:57:49.784Z</time></trkpt><trkpt lat="44.375415" lon="11.4654557"><ele>202.0</ele><time>2026-04-04T07:57:50.784Z</time></trkpt><trkpt lat="44.3754227" lon="11.4656308"><ele>201.25</ele><time>2026-04-04T07:57:51.784Z</time></trkpt><trkpt lat="44.3754237" lon="11.4658097"><ele>200.5</ele><time>2026-04-04T07:57:52.785Z</time></trkpt><trkpt lat="44.3754233" lon="11.4659758"><ele>199.75</ele><time>2026-04-04T07:57:53.784Z</time></trkpt><trkpt lat="44.3754277" lon="11.4661307"><ele>199.0</ele><time>2026-04-04T07:57:54.786Z</time></trkpt><trkpt lat="44.3754323" lon="11.4662748"><ele>198.66666666666666</ele><time>2026-04-04T07:57:55.788Z</time></trkpt><trkpt lat="44.3754368" lon="11.4663945"><ele>198.33333333333331</ele><time>2026-04-04T07:57:56.783Z</time></trkpt><trkpt lat="44.3754343" lon="11.4664907"><ele>198.0</ele><time>2026-04-04T07:57:57.787Z</time></trkpt><trkpt lat="44.375422" lon="11.4665782"><ele>197.66666666666669</ele><time>2026-04-04T07:57:58.788Z</time></trkpt><trkpt lat="44.3753507" lon="11.4666955"><ele>197.33333333333334</ele><time>2026-04-04T07:58:00.784Z</time></trkpt><trkpt lat="44.3752855" lon="11.4667067"><ele>197.0</ele><time>2026-04-04T07:58:01.786Z</time></trkpt><trkpt lat="44.3751985" lon="11.4666852"><ele>197.0</ele><time>2026-04-04T07:58:02.785Z</time></trkpt><trkpt lat="44.3750998" lon="11.4666303"><ele>197.0</ele><time>2026-04-04T07:58:03.785Z</time></trkpt><trkpt lat="44.3750025" lon="11.4665372"><ele>197.0</ele><time>2026-04-04T07:58:04.785Z</time></trkpt><trkpt lat="44.374919" lon="11.4664085"><ele>197.0</ele><time>2026-04-04T07:58:05.782Z</time></trkpt><trkpt lat="44.3748365" lon="11.4662467"><ele>197.5</ele><time>2026-04-04T07:58:06.782Z</time></trkpt><trkpt lat="44.3747588" lon="11.4660765"><ele>198.0</ele><time>2026-04-04T07:58:07.79Z</time></trkpt><trkpt lat="44.3747022" lon="11.4659167"><ele>198.5</ele><time>2026-04-04T07:58:08.787Z</time></trkpt><trkpt lat="44.3746687" lon="11.4657698"><ele>199.0</ele><time>2026-04-04T07:58:09.787Z</time></trkpt><trkpt lat="44.3746347" lon="11.4656438"><ele>199.6</ele><time>2026-04-04T07:58:10.786Z</time></trkpt><trkpt lat="44.3745795" lon="11.4655397"><ele>200.2</ele><time>2026-04-04T07:58:11.781Z</time></trkpt><trkpt lat="44.3745108" lon="11.4654662"><ele>200.79999999999998</ele><time>2026-04-04T07:58:12.783Z</time></trkpt><trkpt lat="44.3744252" lon="11.4654008"><ele>201.39999999999998</ele><time>2026-04-04T07:58:13.788Z</time></trkpt><trkpt lat="44.374341" lon="11.465335"><ele>202.0</ele><time>2026-04-04T07:58:14.786Z</time></trkpt><trkpt lat="44.3742637" lon="11.4652818"><ele>202.2</ele><time>2026-04-04T07:58:15.785Z</time></trkpt><trkpt lat="44.3741772" lon="11.4652668"><ele>202.39999999999998</ele><time>2026-04-04T07:58:16.784Z</time></trkpt><trkpt lat="44.3740812" lon="11.4652973"><ele>202.60000000000002</ele><time>2026-04-04T07:58:17.781Z</time></trkpt><trkpt lat="44.373973" lon="11.4653695"><ele>202.8</ele><time>2026-04-04T07:58:18.784Z</time></trkpt><trkpt lat="44.3738515" lon="11.4654737"><ele>203.0</ele><time>2026-04-04T07:58:19.783Z</time></trkpt><trkpt lat="44.3737133" lon="11.465595"><ele>203.75</ele><time>2026-04-04T07:58:20.785Z</time></trkpt><trkpt lat="44.3735745" lon="11.4657163"><ele>204.5</ele><time>2026-04-04T07:58:21.785Z</time></trkpt><trkpt lat="44.3734497" lon="11.4658225"><ele>205.25</ele><time>2026-04-04T07:58:22.783Z</time></trkpt><trkpt lat="44.3733392" lon="11.4659087"><ele>206.0</ele><time>2026-04-04T07:58:23.782Z</time></trkpt><trkpt lat="44.3732207" lon="11.465965"><ele>206.0</ele><time>2026-04-04T07:58:24.783Z</time></trkpt><trkpt lat="44.3731052" lon="11.4659758"><ele>206.0</ele><time>2026-04-04T07:58:25.787Z</time></trkpt><trkpt lat="44.373011" lon="11.4659368"><ele>206.0</ele><time>2026-04-04T07:58:26.785Z</time></trkpt><trkpt lat="44.3729265" lon="11.4658607"><ele>206.0</ele><time>2026-04-04T07:58:27.785Z</time></trkpt><trkpt lat="44.3728355" lon="11.4657463"><ele>206.0</ele><time>2026-04-04T07:58:28.786Z</time></trkpt><trkpt lat="44.3727247" lon="11.4656057"><ele>207.33333333333334</ele><time>2026-04-04T07:58:29.78Z</time></trkpt><trkpt lat="44.3726007" lon="11.4654455"><ele>208.66666666666669</ele><time>2026-04-04T07:58:30.783Z</time></trkpt><trkpt lat="44.3724728" lon="11.4652812"><ele>210.0</ele><time>2026-04-04T07:58:31.782Z</time></trkpt><trkpt lat="44.3723553" lon="11.465124"><ele>210.0</ele><time>2026-04-04T07:58:32.786Z</time></trkpt><trkpt lat="44.3722462" lon="11.4649805"><ele>210.0</ele><time>2026-04-04T07:58:33.785Z</time></trkpt><trkpt lat="44.372138" lon="11.4648762"><ele>210.0</ele><time>2026-04-04T07:58:34.785Z</time></trkpt><trkpt lat="44.3720207" lon="11.4648148"><ele>210.0</ele><time>2026-04-04T07:58:35.783Z</time></trkpt><trkpt lat="44.3718892" lon="11.4648002"><ele>210.33333333333331</ele><time>2026-04-04T07:58:36.784Z</time></trkpt><trkpt lat="44.3717545" lon="11.4648333"><ele>210.66666666666666</ele><time>2026-04-04T07:58:37.784Z</time></trkpt><trkpt lat="44.3715987" lon="11.4648928"><ele>211.0</ele><time>2026-04-04T07:58:38.783Z</time></trkpt><trkpt lat="44.3714353" lon="11.4649575"><ele>212.25</ele><time>2026-04-04T07:58:39.782Z</time></trkpt><trkpt lat="44.371288" lon="11.4650002"><ele>213.5</ele><time>2026-04-04T07:58:40.781Z</time></trkpt><trkpt lat="44.3711585" lon="11.465008"><ele>214.75</ele><time>2026-04-04T07:58:41.781Z</time></trkpt><trkpt lat="44.3710418" lon="11.4649728"><ele>216.0</ele><time>2026-04-04T07:58:42.783Z</time></trkpt><trkpt lat="44.3709342" lon="11.4648973"><ele>216.0</ele><time>2026-04-04T07:58:43.782Z</time></trkpt><trkpt lat="44.3708378" lon="11.4647927"><ele>216.0</ele><time>2026-04-04T07:58:44.785Z</time></trkpt><trkpt lat="44.3707502" lon="11.4646635"><ele>216.0</ele><time>2026-04-04T07:58:45.783Z</time></trkpt><trkpt lat="44.370664" lon="11.4645075"><ele>216.0</ele><time>2026-04-04T07:58:46.783Z</time></trkpt><trkpt lat="44.370579" lon="11.46432"><ele>216.25</ele><time>2026-04-04T07:58:47.786Z</time></trkpt><trkpt lat="44.3705008" lon="11.4641318"><ele>216.5</ele><time>2026-04-04T07:58:48.786Z</time></trkpt><trkpt lat="44.3704242" lon="11.4639662"><ele>216.75</ele><time>2026-04-04T07:58:49.786Z</time></trkpt><trkpt lat="44.3703357" lon="11.463831"><ele>217.0</ele><time>2026-04-04T07:58:50.786Z</time></trkpt><trkpt lat="44.3702317" lon="11.4637317"><ele>217.25</ele><time>2026-04-04T07:58:51.784Z</time></trkpt><trkpt lat="44.3701205" lon="11.4636768"><ele>217.5</ele><time>2026-04-04T07:58:52.787Z</time></trkpt><trkpt lat="44.3700117" lon="11.4636607"><ele>217.75</ele><time>2026-04-04T07:58:53.786Z</time></trkpt><trkpt lat="44.3699062" lon="11.4636872"><ele>218.0</ele><time>2026-04-04T07:58:54.786Z</time></trkpt><trkpt lat="44.3697898" lon="11.4637573"><ele>219.0</ele><time>2026-04-04T07:58:55.786Z</time></trkpt><trkpt lat="44.3696783" lon="11.4638083"><ele>220.0</ele><time>2026-04-04T07:58:56.783Z</time></trkpt><trkpt lat="44.3695702" lon="11.4638148"><ele>221.0</ele><time>2026-04-04T07:58:57.785Z</time></trkpt><trkpt lat="44.3694603" lon="11.4637825"><ele>222.0</ele><time>2026-04-04T07:58:58.786Z</time></trkpt><trkpt lat="44.3693555" lon="11.4637102"><ele>222.25</ele><time>2026-04-04T07:58:59.785Z</time></trkpt><trkpt lat="44.3692467" lon="11.463589"><ele>222.5</ele><time>2026-04-04T07:59:00.786Z</time></trkpt><trkpt lat="44.3691493" lon="11.4634622"><ele>222.75</ele><time>2026-04-04T07:59:01.786Z</time></trkpt><trkpt lat="44.3690447" lon="11.4633635"><ele>223.0</ele><time>2026-04-04T07:59:02.784Z</time></trkpt><trkpt lat="44.368918" lon="11.4632912"><ele>223.33333333333331</ele><time>2026-04-04T07:59:03.783Z</time></trkpt><trkpt lat="44.3687733" lon="11.4632322"><ele>223.66666666666669</ele><time>2026-04-04T07:59:04.784Z</time></trkpt><trkpt lat="44.3686153" lon="11.4631785"><ele>224.0</ele><time>2026-04-04T07:59:05.784Z</time></trkpt><trkpt lat="44.3684655" lon="11.4631302"><ele>224.0</ele><time>2026-04-04T07:59:06.783Z</time></trkpt><trkpt lat="44.3683283" lon="11.4630723"><ele>224.0</ele><time>2026-04-04T07:59:07.779Z</time></trkpt><trkpt lat="44.3682102" lon="11.4630007"><ele>224.0</ele><time>2026-04-04T07:59:08.782Z</time></trkpt><trkpt lat="44.368109" lon="11.4629207"><ele>224.0</ele><time>2026-04-04T07:59:09.785Z</time></trkpt><trkpt lat="44.3680212" lon="11.4628403"><ele>224.50000000000003</ele><time>2026-04-04T07:59:10.785Z</time></trkpt><trkpt lat="44.3679445" lon="11.4627627"><ele>225.0</ele><time>2026-04-04T07:59:11.786Z</time></trkpt><trkpt lat="44.3678752" lon="11.462688"><ele>225.5</ele><time>2026-04-04T07:59:12.785Z</time></trkpt><trkpt lat="44.3678093" lon="11.4626123"><ele>226.0</ele><time>2026-04-04T07:59:13.787Z</time></trkpt><trkpt lat="44.3677462" lon="11.4625323"><ele>226.50000000000003</ele><time>2026-04-04T07:59:14.787Z</time></trkpt><trkpt lat="44.3676842" lon="11.4624453"><ele>227.0</ele><time>2026-04-04T07:59:15.787Z</time></trkpt><trkpt lat="44.3676245" lon="11.4623497"><ele>227.0</ele><time>2026-04-04T07:59:16.789Z</time></trkpt><trkpt lat="44.3675672" lon="11.4622482"><ele>227.0</ele><time>2026-04-04T07:59:17.784Z</time></trkpt><trkpt lat="44.3675055" lon="11.4621512"><ele>227.0</ele><time>2026-04-04T07:59:18.785Z</time></trkpt><trkpt lat="44.3674313" lon="11.4620675"><ele>227.0</ele><time>2026-04-04T07:59:19.784Z</time></trkpt><trkpt lat="44.3673458" lon="11.4619935"><ele>227.0</ele><time>2026-04-04T07:59:20.786Z</time></trkpt><trkpt lat="44.367254" lon="11.4619233"><ele>228.0</ele><time>2026-04-04T07:59:21.785Z</time></trkpt><trkpt lat="44.3671553" lon="11.4618632"><ele>229.0</ele><time>2026-04-04T07:59:22.785Z</time></trkpt><trkpt lat="44.3670525" lon="11.461808"><ele>230.0</ele><time>2026-04-04T07:59:23.784Z</time></trkpt><trkpt lat="44.3669447" lon="11.4617535"><ele>231.0</ele><time>2026-04-04T07:59:24.786Z</time></trkpt><trkpt lat="44.3668243" lon="11.4617047"><ele>231.0</ele><time>2026-04-04T07:59:25.786Z</time></trkpt><trkpt lat="44.3666945" lon="11.461666"><ele>231.0</ele><time>2026-04-04T07:59:26.787Z</time></trkpt><trkpt lat="44.3665613" lon="11.4616313"><ele>231.0</ele><time>2026-04-04T07:59:27.784Z</time></trkpt><trkpt lat="44.3664307" lon="11.4615822"><ele>231.0</ele><time>2026-04-04T07:59:28.783Z</time></trkpt><trkpt lat="44.3663002" lon="11.4615302"><ele>232.25</ele><time>2026-04-04T07:59:29.781Z</time></trkpt><trkpt lat="44.3661695" lon="11.4614877"><ele>233.5</ele><time>2026-04-04T07:59:30.782Z</time></trkpt><trkpt lat="44.3660393" lon="11.4614503"><ele>234.75</ele><time>2026-04-04T07:59:31.784Z</time></trkpt><trkpt lat="44.3659145" lon="11.461411"><ele>236.0</ele><time>2026-04-04T07:59:32.783Z</time></trkpt><trkpt lat="44.365803" lon="11.4613688"><ele>236.0</ele><time>2026-04-04T07:59:33.786Z</time></trkpt><trkpt lat="44.365704" lon="11.4613253"><ele>236.00000000000003</ele><time>2026-04-04T07:59:34.782Z</time></trkpt><trkpt lat="44.3656147" lon="11.4612855"><ele>236.00000000000003</ele><time>2026-04-04T07:59:35.786Z</time></trkpt><trkpt lat="44.3655298" lon="11.4612458"><ele>236.0</ele><time>2026-04-04T07:59:36.786Z</time></trkpt><trkpt lat="44.3654475" lon="11.4612082"><ele>236.0</ele><time>2026-04-04T07:59:37.787Z</time></trkpt><trkpt lat="44.3653715" lon="11.4611663"><ele>235.66666666666669</ele><time>2026-04-04T07:59:38.786Z</time></trkpt><trkpt lat="44.3652985" lon="11.4611253"><ele>235.33333333333334</ele><time>2026-04-04T07:59:39.783Z</time></trkpt><trkpt lat="44.365226" lon="11.4610795"><ele>235.0</ele><time>2026-04-04T07:59:40.784Z</time></trkpt><trkpt lat="44.365155" lon="11.461036"><ele>234.66666666666669</ele><time>2026-04-04T07:59:41.785Z</time></trkpt><trkpt lat="44.3650825" lon="11.4609972"><ele>234.33333333333334</ele><time>2026-04-04T07:59:42.785Z</time></trkpt><trkpt lat="44.3650092" lon="11.4609587"><ele>234.0</ele><time>2026-04-04T07:59:43.786Z</time></trkpt><trkpt lat="44.3649348" lon="11.4609188"><ele>234.0</ele><time>2026-04-04T07:59:44.784Z</time></trkpt><trkpt lat="44.3648618" lon="11.4608767"><ele>234.0</ele><time>2026-04-04T07:59:45.783Z</time></trkpt><trkpt lat="44.3647858" lon="11.4608352"><ele>234.0</ele><time>2026-04-04T07:59:46.783Z</time></trkpt><trkpt lat="44.3647063" lon="11.4607958"><ele>234.0</ele><time>2026-04-04T07:59:47.784Z</time></trkpt><trkpt lat="44.3646272" lon="11.460763"><ele>234.0</ele><time>2026-04-04T07:59:48.788Z</time></trkpt><trkpt lat="44.3645467" lon="11.4607377"><ele>234.0</ele><time>2026-04-04T07:59:49.786Z</time></trkpt><trkpt lat="44.3644628" lon="11.4607258"><ele>234.5</ele><time>2026-04-04T07:59:50.787Z</time></trkpt><trkpt lat="44.3643763" lon="11.4607315"><ele>235.0</ele><time>2026-04-04T07:59:51.785Z</time></trkpt><trkpt lat="44.3642915" lon="11.4607523"><ele>235.5</ele><time>2026-04-04T07:59:52.787Z</time></trkpt><trkpt lat="44.36421" lon="11.4607755"><ele>236.0</ele><time>2026-04-04T07:59:53.786Z</time></trkpt><trkpt lat="44.3641285" lon="11.4608023"><ele>236.5</ele><time>2026-04-04T07:59:54.785Z</time></trkpt><trkpt lat="44.3640462" lon="11.4608285"><ele>237.0</ele><time>2026-04-04T07:59:55.782Z</time></trkpt><trkpt lat="44.3639632" lon="11.4608523"><ele>237.0</ele><time>2026-04-04T07:59:56.783Z</time></trkpt><trkpt lat="44.3638815" lon="11.4608792"><ele>237.0</ele><time>2026-04-04T07:59:57.786Z</time></trkpt><trkpt lat="44.3637985" lon="11.4609085"><ele>237.0</ele><time>2026-04-04T07:59:58.788Z</time></trkpt><trkpt lat="44.363714" lon="11.460936"><ele>237.0</ele><time>2026-04-04T07:59:59.786Z</time></trkpt><trkpt lat="44.363629" lon="11.4609628"><ele>237.0</ele><time>2026-04-04T08:00:00.788Z</time></trkpt><trkpt lat="44.363544" lon="11.4609902"><ele>237.0</ele><time>2026-04-04T08:00:01.785Z</time></trkpt><trkpt lat="44.3634578" lon="11.4610175"><ele>237.0</ele><time>2026-04-04T08:00:02.785Z</time></trkpt><trkpt lat="44.3633702" lon="11.4610453"><ele>237.0</ele><time>2026-04-04T08:00:03.787Z</time></trkpt><trkpt lat="44.36328" lon="11.461075"><ele>237.0</ele><time>2026-04-04T08:00:04.787Z</time></trkpt><trkpt lat="44.3631862" lon="11.4611048"><ele>237.0</ele><time>2026-04-04T08:00:05.788Z</time></trkpt><trkpt lat="44.3630893" lon="11.4611368"><ele>237.0</ele><time>2026-04-04T08:00:06.786Z</time></trkpt><trkpt lat="44.3629898" lon="11.4611735"><ele>238.2</ele><time>2026-04-04T08:00:07.786Z</time></trkpt><trkpt lat="44.3628882" lon="11.4612137"><ele>239.39999999999998</ele><time>2026-04-04T08:00:08.788Z</time></trkpt><trkpt lat="44.3627835" lon="11.4612537"><ele>240.60000000000002</ele><time>2026-04-04T08:00:09.788Z</time></trkpt><trkpt lat="44.3626795" lon="11.4612927"><ele>241.8</ele><time>2026-04-04T08:00:10.788Z</time></trkpt><trkpt lat="44.3625797" lon="11.4613298"><ele>243.0</ele><time>2026-04-04T08:00:11.785Z</time></trkpt><trkpt lat="44.3624838" lon="11.4613655"><ele>243.60000000000002</ele><time>2026-04-04T08:00:12.788Z</time></trkpt><trkpt lat="44.3623922" lon="11.4614008"><ele>244.20000000000002</ele><time>2026-04-04T08:00:13.785Z</time></trkpt><trkpt lat="44.3623065" lon="11.461453"><ele>244.8</ele><time>2026-04-04T08:00:14.785Z</time></trkpt><trkpt lat="44.3622213" lon="11.461533"><ele>245.4</ele><time>2026-04-04T08:00:15.784Z</time></trkpt><trkpt lat="44.3621327" lon="11.4616322"><ele>246.0</ele><time>2026-04-04T08:00:16.785Z</time></trkpt><trkpt lat="44.3620397" lon="11.4617415"><ele>246.75</ele><time>2026-04-04T08:00:17.787Z</time></trkpt><trkpt lat="44.3619392" lon="11.4618538"><ele>247.5</ele><time>2026-04-04T08:00:18.785Z</time></trkpt><trkpt lat="44.3618325" lon="11.4619657"><ele>248.25</ele><time>2026-04-04T08:00:19.786Z</time></trkpt><trkpt lat="44.3617197" lon="11.4620697"><ele>249.0</ele><time>2026-04-04T08:00:20.785Z</time></trkpt><trkpt lat="44.3615942" lon="11.4621685"><ele>250.0</ele><time>2026-04-04T08:00:21.784Z</time></trkpt><trkpt lat="44.3614483" lon="11.4622645"><ele>251.0</ele><time>2026-04-04T08:00:22.788Z</time></trkpt><trkpt lat="44.3612888" lon="11.4623587"><ele>252.0</ele><time>2026-04-04T08:00:23.787Z</time></trkpt><trkpt lat="44.3611395" lon="11.462441"><ele>252.0</ele><time>2026-04-04T08:00:24.789Z</time></trkpt><trkpt lat="44.3610005" lon="11.4625148"><ele>252.0</ele><time>2026-04-04T08:00:25.784Z</time></trkpt><trkpt lat="44.3608703" lon="11.462598"><ele>252.0</ele><time>2026-04-04T08:00:26.783Z</time></trkpt><trkpt lat="44.3607363" lon="11.462702"><ele>252.0</ele><time>2026-04-04T08:00:27.787Z</time></trkpt><trkpt lat="44.3605895" lon="11.46282"><ele>252.25</ele><time>2026-04-04T08:00:28.788Z</time></trkpt><trkpt lat="44.360452" lon="11.4629273"><ele>252.5</ele><time>2026-04-04T08:00:29.786Z</time></trkpt><trkpt lat="44.3603227" lon="11.4630152"><ele>252.75</ele><time>2026-04-04T08:00:30.786Z</time></trkpt><trkpt lat="44.360195" lon="11.4630773"><ele>253.0</ele><time>2026-04-04T08:00:31.783Z</time></trkpt><trkpt lat="44.3600635" lon="11.4631175"><ele>254.25</ele><time>2026-04-04T08:00:32.785Z</time></trkpt><trkpt lat="44.359932" lon="11.4631468"><ele>255.5</ele><time>2026-04-04T08:00:33.787Z</time></trkpt><trkpt lat="44.3597962" lon="11.4631762"><ele>256.75</ele><time>2026-04-04T08:00:34.788Z</time></trkpt><trkpt lat="44.3596665" lon="11.4632065"><ele>258.0</ele><time>2026-04-04T08:00:35.79Z</time></trkpt><trkpt lat="44.3595477" lon="11.4632272"><ele>258.5</ele><time>2026-04-04T08:00:36.785Z</time></trkpt><trkpt lat="44.3594325" lon="11.463244"><ele>259.0</ele><time>2026-04-04T08:00:37.785Z</time></trkpt><trkpt lat="44.3593233" lon="11.4632637"><ele>259.5</ele><time>2026-04-04T08:00:38.786Z</time></trkpt><trkpt lat="44.3592107" lon="11.463281"><ele>260.0</ele><time>2026-04-04T08:00:39.787Z</time></trkpt><trkpt lat="44.3591013" lon="11.4633017"><ele>260.0</ele><time>2026-04-04T08:00:40.787Z</time></trkpt><trkpt lat="44.3589932" lon="11.4633232"><ele>260.0</ele><time>2026-04-04T08:00:41.782Z</time></trkpt><trkpt lat="44.358895" lon="11.4633517"><ele>260.0</ele><time>2026-04-04T08:00:42.785Z</time></trkpt><trkpt lat="44.3588033" lon="11.4633657"><ele>260.0</ele><time>2026-04-04T08:00:43.783Z</time></trkpt><trkpt lat="44.3587287" lon="11.4633778"><ele>260.0</ele><time>2026-04-04T08:00:44.781Z</time></trkpt><trkpt lat="44.3586577" lon="11.4633935"><ele>260.0</ele><time>2026-04-04T08:00:45.781Z</time></trkpt><trkpt lat="44.3585878" lon="11.4633882"><ele>260.4</ele><time>2026-04-04T08:00:46.781Z</time></trkpt><trkpt lat="44.358497" lon="11.463327"><ele>260.8</ele><time>2026-04-04T08:00:48.787Z</time></trkpt><trkpt lat="44.3584118" lon="11.4632287"><ele>261.2</ele><time>2026-04-04T08:00:50.785Z</time></trkpt><trkpt lat="44.3583578" lon="11.4631453"><ele>261.6</ele><time>2026-04-04T08:00:51.787Z</time></trkpt><trkpt lat="44.3582948" lon="11.4630472"><ele>262.0</ele><time>2026-04-04T08:00:52.785Z</time></trkpt><trkpt lat="44.3582255" lon="11.462947"><ele>262.16666666666663</ele><time>2026-04-04T08:00:53.786Z</time></trkpt><trkpt lat="44.3581545" lon="11.4628523"><ele>262.3333333333333</ele><time>2026-04-04T08:00:54.786Z</time></trkpt><trkpt lat="44.3580918" lon="11.4627745"><ele>262.5</ele><time>2026-04-04T08:00:55.784Z</time></trkpt><trkpt lat="44.3580305" lon="11.462723"><ele>262.6666666666667</ele><time>2026-04-04T08:00:56.783Z</time></trkpt><trkpt lat="44.3579117" lon="11.4626885"><ele>262.83333333333337</ele><time>2026-04-04T08:00:58.788Z</time></trkpt><trkpt lat="44.35784" lon="11.4626698"><ele>263.0</ele><time>2026-04-04T08:00:59.786Z</time></trkpt><trkpt lat="44.3577572" lon="11.4626458"><ele>263.5</ele><time>2026-04-04T08:01:00.786Z</time></trkpt><trkpt lat="44.3576673" lon="11.4626375"><ele>264.0</ele><time>2026-04-04T08:01:01.786Z</time></trkpt><trkpt lat="44.3575775" lon="11.462645"><ele>264.5</ele><time>2026-04-04T08:01:02.784Z</time></trkpt><trkpt lat="44.3574925" lon="11.4626763"><ele>265.0</ele><time>2026-04-04T08:01:03.785Z</time></trkpt><trkpt lat="44.3574137" lon="11.462713"><ele>265.5</ele><time>2026-04-04T08:01:04.787Z</time></trkpt><trkpt lat="44.3573355" lon="11.4627295"><ele>266.0</ele><time>2026-04-04T08:01:05.785Z</time></trkpt><trkpt lat="44.3572647" lon="11.4627358"><ele>268.1666666666667</ele><time>2026-04-04T08:01:06.786Z</time></trkpt><trkpt lat="44.3571985" lon="11.46273"><ele>270.33333333333337</ele><time>2026-04-04T08:01:07.783Z</time></trkpt><trkpt lat="44.3571222" lon="11.4627088"><ele>272.5</ele><time>2026-04-04T08:01:08.783Z</time></trkpt><trkpt lat="44.3570333" lon="11.4626727"><ele>274.6666666666667</ele><time>2026-04-04T08:01:09.785Z</time></trkpt><trkpt lat="44.35694" lon="11.4626357"><ele>276.8333333333333</ele><time>2026-04-04T08:01:10.784Z</time></trkpt><trkpt lat="44.3568492" lon="11.4625957"><ele>279.0</ele><time>2026-04-04T08:01:11.786Z</time></trkpt><trkpt lat="44.3567548" lon="11.4625523"><ele>279.0</ele><time>2026-04-04T08:01:12.786Z</time></trkpt><trkpt lat="44.356657" lon="11.4625108"><ele>279.0</ele><time>2026-04-04T08:01:13.787Z</time></trkpt><trkpt lat="44.3565663" lon="11.4624722"><ele>279.0</ele><time>2026-04-04T08:01:14.786Z</time></trkpt><trkpt lat="44.3564698" lon="11.4624367"><ele>279.0</ele><time>2026-04-04T08:01:15.787Z</time></trkpt><trkpt lat="44.3563673" lon="11.4624053"><ele>279.0</ele><time>2026-04-04T08:01:16.783Z</time></trkpt><trkpt lat="44.3562623" lon="11.4623797"><ele>282.5</ele><time>2026-04-04T08:01:17.786Z</time></trkpt><trkpt lat="44.3561555" lon="11.4623597"><ele>286.0</ele><time>2026-04-04T08:01:18.787Z</time></trkpt><trkpt lat="44.3560397" lon="11.462344"><ele>289.5</ele><time>2026-04-04T08:01:19.787Z</time></trkpt><trkpt lat="44.3559205" lon="11.4623367"><ele>293.0</ele><time>2026-04-04T08:01:20.785Z</time></trkpt><trkpt lat="44.3557932" lon="11.4623335"><ele>293.0</ele><time>2026-04-04T08:01:21.785Z</time></trkpt><trkpt lat="44.3556663" lon="11.4623345"><ele>293.0</ele><time>2026-04-04T08:01:22.785Z</time></trkpt><trkpt lat="44.3555343" lon="11.4623417"><ele>293.0</ele><time>2026-04-04T08:01:23.788Z</time></trkpt><trkpt lat="44.3554155" lon="11.4623517"><ele>293.0</ele><time>2026-04-04T08:01:24.788Z</time></trkpt><trkpt lat="44.3553087" lon="11.4623698"><ele>296.0</ele><time>2026-04-04T08:01:25.787Z</time></trkpt><trkpt lat="44.3552127" lon="11.4624002"><ele>299.0</ele><time>2026-04-04T08:01:26.788Z</time></trkpt><trkpt lat="44.3551247" lon="11.4624253"><ele>302.0</ele><time>2026-04-04T08:01:27.787Z</time></trkpt><trkpt lat="44.3550485" lon="11.4624303"><ele>305.0</ele><time>2026-04-04T08:01:28.785Z</time></trkpt><trkpt lat="44.3549822" lon="11.4624175"><ele>308.0</ele><time>2026-04-04T08:01:29.789Z</time></trkpt><trkpt lat="44.3549212" lon="11.462387"><ele>311.0</ele><time>2026-04-04T08:01:30.787Z</time></trkpt><trkpt lat="44.354869" lon="11.4623305"><ele>311.0</ele><time>2026-04-04T08:01:31.785Z</time></trkpt><trkpt lat="44.3548205" lon="11.4622532"><ele>311.0</ele><time>2026-04-04T08:01:32.783Z</time></trkpt><trkpt lat="44.3547735" lon="11.4621817"><ele>311.0</ele><time>2026-04-04T08:01:33.782Z</time></trkpt><trkpt lat="44.3547148" lon="11.4621317"><ele>311.0</ele><time>2026-04-04T08:01:34.781Z</time></trkpt><trkpt lat="44.3545978" lon="11.462146"><ele>311.0</ele><time>2026-04-04T08:01:36.788Z</time></trkpt><trkpt lat="44.3545318" lon="11.462187"><ele>311.0</ele><time>2026-04-04T08:01:37.788Z</time></trkpt><trkpt lat="44.3544557" lon="11.4622385"><ele>314.0</ele><time>2026-04-04T08:01:38.785Z</time></trkpt><trkpt lat="44.3543803" lon="11.4622805"><ele>317.0</ele><time>2026-04-04T08:01:39.783Z</time></trkpt><trkpt lat="44.3542935" lon="11.462303"><ele>320.0</ele><time>2026-04-04T08:01:40.788Z</time></trkpt><trkpt lat="44.354199" lon="11.4623142"><ele>323.0</ele><time>2026-04-04T08:01:41.787Z</time></trkpt><trkpt lat="44.3541107" lon="11.4623022"><ele>326.0</ele><time>2026-04-04T08:01:42.787Z</time></trkpt><trkpt lat="44.354024" lon="11.4622615"><ele>329.0</ele><time>2026-04-04T08:01:43.784Z</time></trkpt><trkpt lat="44.3539377" lon="11.4621922"><ele>334.0</ele><time>2026-04-04T08:01:44.785Z</time></trkpt><trkpt lat="44.3538462" lon="11.462114"><ele>339.0</ele><time>2026-04-04T08:01:45.785Z</time></trkpt><trkpt lat="44.3537537" lon="11.4620407"><ele>344.0</ele><time>2026-04-04T08:01:46.786Z</time></trkpt><trkpt lat="44.3536642" lon="11.4619747"><ele>349.0</ele><time>2026-04-04T08:01:47.784Z</time></trkpt><trkpt lat="44.3535785" lon="11.4619173"><ele>354.0</ele><time>2026-04-04T08:01:48.784Z</time></trkpt><trkpt lat="44.353499" lon="11.4618697"><ele>354.0</ele><time>2026-04-04T08:01:49.788Z</time></trkpt><trkpt lat="44.3534218" lon="11.461822"><ele>354.0</ele><time>2026-04-04T08:01:50.788Z</time></trkpt><trkpt lat="44.3533392" lon="11.4617745"><ele>354.0</ele><time>2026-04-04T08:01:51.787Z</time></trkpt><trkpt lat="44.3532513" lon="11.4617363"><ele>354.0</ele><time>2026-04-04T08:01:52.787Z</time></trkpt><trkpt lat="44.353166" lon="11.4617165"><ele>354.0</ele><time>2026-04-04T08:01:53.786Z</time></trkpt><trkpt lat="44.3530878" lon="11.4616957"><ele>354.0</ele><time>2026-04-04T08:01:54.788Z</time></trkpt><trkpt lat="44.3530125" lon="11.461665"><ele>357.5</ele><time>2026-04-04T08:01:55.788Z</time></trkpt><trkpt lat="44.3529565" lon="11.461619"><ele>361.0</ele><time>2026-04-04T08:01:56.787Z</time></trkpt><trkpt lat="44.3529277" lon="11.4614857"><ele>364.5</ele><time>2026-04-04T08:01:58.782Z</time></trkpt><trkpt lat="44.3529357" lon="11.4613905"><ele>368.0</ele><time>2026-04-04T08:01:59.781Z</time></trkpt><trkpt lat="44.3529507" lon="11.4612758"><ele>371.5</ele><time>2026-04-04T08:02:00.782Z</time></trkpt><trkpt lat="44.3529785" lon="11.4611633"><ele>375.0</ele><time>2026-04-04T08:02:01.783Z</time></trkpt><trkpt lat="44.3530127" lon="11.4610698"><ele>373.5</ele><time>2026-04-04T08:02:02.781Z</time></trkpt><trkpt lat="44.3530402" lon="11.4609888"><ele>372.0</ele><time>2026-04-04T08:02:03.783Z</time></trkpt><trkpt lat="44.3530055" lon="11.4608912"><ele>370.5</ele><time>2026-04-04T08:02:05.786Z</time></trkpt><trkpt lat="44.3528895" lon="11.4609615"><ele>369.0</ele><time>2026-04-04T08:02:07.787Z</time></trkpt><trkpt lat="44.3528372" lon="11.4610418"><ele>367.5</ele><time>2026-04-04T08:02:08.785Z</time></trkpt><trkpt lat="44.3527923" lon="11.4611137"><ele>366.0</ele><time>2026-04-04T08:02:09.788Z</time></trkpt><trkpt lat="44.3527305" lon="11.4610733"><ele>373.20000000000005</ele><time>2026-04-04T08:02:11.787Z</time></trkpt><trkpt lat="44.352714" lon="11.4609428"><ele>380.40000000000003</ele><time>2026-04-04T08:02:13.785Z</time></trkpt><trkpt lat="44.3527787" lon="11.4608013"><ele>387.6</ele><time>2026-04-04T08:02:15.787Z</time></trkpt><trkpt lat="44.352841" lon="11.4606872"><ele>394.8</ele><time>2026-04-04T08:02:17.786Z</time></trkpt><trkpt lat="44.3527847" lon="11.4606273"><ele>402.0</ele><time>2026-04-04T08:02:19.788Z</time></trkpt><trkpt lat="44.3527257" lon="11.4606672"><ele>402.0</ele><time>2026-04-04T08:02:20.784Z</time></trkpt><trkpt lat="44.3526617" lon="11.4606977"><ele>402.0</ele><time>2026-04-04T08:02:21.784Z</time></trkpt><trkpt lat="44.3525928" lon="11.4606978"><ele>402.0</ele><time>2026-04-04T08:02:22.782Z</time></trkpt><trkpt lat="44.3525305" lon="11.4606723"><ele>402.0</ele><time>2026-04-04T08:02:23.784Z</time></trkpt><trkpt lat="44.3524513" lon="11.4605635"><ele>402.0</ele><time>2026-04-04T08:02:25.787Z</time></trkpt><trkpt lat="44.352378" lon="11.460444"><ele>402.0</ele><time>2026-04-04T08:02:27.788Z</time></trkpt><trkpt lat="44.3522695" lon="11.4604275"><ele>404.8</ele><time>2026-04-04T08:02:29.787Z</time></trkpt><trkpt lat="44.3521495" lon="11.4604915"><ele>407.6</ele><time>2026-04-04T08:02:31.788Z</time></trkpt><trkpt lat="44.3520877" lon="11.4605545"><ele>410.40000000000003</ele><time>2026-04-04T08:02:32.785Z</time></trkpt><trkpt lat="44.3520258" lon="11.460609"><ele>413.20000000000005</ele><time>2026-04-04T08:02:33.786Z</time></trkpt><trkpt lat="44.3519542" lon="11.4606488"><ele>416.0</ele><time>2026-04-04T08:02:34.789Z</time></trkpt><trkpt lat="44.3518658" lon="11.4606953"><ele>416.0</ele><time>2026-04-04T08:02:35.787Z</time></trkpt><trkpt lat="44.3517775" lon="11.4607672"><ele>416.0</ele><time>2026-04-04T08:02:36.787Z</time></trkpt><trkpt lat="44.3517057" lon="11.4608665"><ele>416.0</ele><time>2026-04-04T08:02:37.786Z</time></trkpt><trkpt lat="44.3516537" lon="11.4609957"><ele>416.0</ele><time>2026-04-04T08:02:38.79Z</time></trkpt><trkpt lat="44.3516055" lon="11.4611253"><ele>416.0</ele><time>2026-04-04T08:02:39.789Z</time></trkpt><trkpt lat="44.3515413" lon="11.4612325"><ele>415.75</ele><time>2026-04-04T08:02:40.789Z</time></trkpt><trkpt lat="44.3514498" lon="11.4613282"><ele>415.5</ele><time>2026-04-04T08:02:41.785Z</time></trkpt><trkpt lat="44.3513332" lon="11.4614125"><ele>415.25</ele><time>2026-04-04T08:02:42.785Z</time></trkpt><trkpt lat="44.3512048" lon="11.4614907"><ele>415.0</ele><time>2026-04-04T08:02:43.79Z</time></trkpt><trkpt lat="44.3510697" lon="11.4615638"><ele>415.0</ele><time>2026-04-04T08:02:44.787Z</time></trkpt><trkpt lat="44.3509213" lon="11.461638"><ele>415.0</ele><time>2026-04-04T08:02:45.787Z</time></trkpt><trkpt lat="44.3507705" lon="11.4617102"><ele>415.0</ele><time>2026-04-04T08:02:46.786Z</time></trkpt><trkpt lat="44.3506252" lon="11.4617825"><ele>416.5</ele><time>2026-04-04T08:02:47.785Z</time></trkpt><trkpt lat="44.3504902" lon="11.4618445"><ele>418.0</ele><time>2026-04-04T08:02:48.787Z</time></trkpt><trkpt lat="44.350359" lon="11.4619033"><ele>419.5</ele><time>2026-04-04T08:02:49.787Z</time></trkpt><trkpt lat="44.3502393" lon="11.4619802"><ele>421.0</ele><time>2026-04-04T08:02:50.787Z</time></trkpt><trkpt lat="44.3501233" lon="11.4620587"><ele>419.5</ele><time>2026-04-04T08:02:51.788Z</time></trkpt><trkpt lat="44.3500002" lon="11.4621177"><ele>418.0</ele><time>2026-04-04T08:02:52.785Z</time></trkpt><trkpt lat="44.3498672" lon="11.4621633"><ele>416.5</ele><time>2026-04-04T08:02:53.789Z</time></trkpt><trkpt lat="44.3497302" lon="11.4622035"><ele>415.0</ele><time>2026-04-04T08:02:54.789Z</time></trkpt><trkpt lat="44.3496015" lon="11.4622318"><ele>420.0</ele><time>2026-04-04T08:02:55.788Z</time></trkpt><trkpt lat="44.34948" lon="11.4622312"><ele>425.0</ele><time>2026-04-04T08:02:56.785Z</time></trkpt><trkpt lat="44.3493553" lon="11.4622038"><ele>430.0</ele><time>2026-04-04T08:02:57.789Z</time></trkpt><trkpt lat="44.3492272" lon="11.4621672"><ele>435.0</ele><time>2026-04-04T08:02:58.79Z</time></trkpt><trkpt lat="44.3491018" lon="11.4621395"><ele>435.0</ele><time>2026-04-04T08:02:59.789Z</time></trkpt><trkpt lat="44.348989" lon="11.4621333"><ele>435.0</ele><time>2026-04-04T08:03:00.789Z</time></trkpt><trkpt lat="44.3488892" lon="11.4621367"><ele>435.0</ele><time>2026-04-04T08:03:01.784Z</time></trkpt><trkpt lat="44.3487977" lon="11.4621427"><ele>435.0</ele><time>2026-04-04T08:03:02.785Z</time></trkpt><trkpt lat="44.3487177" lon="11.4621562"><ele>435.0</ele><time>2026-04-04T08:03:03.786Z</time></trkpt><trkpt lat="44.3486467" lon="11.4621775"><ele>434.6666666666667</ele><time>2026-04-04T08:03:04.787Z</time></trkpt><trkpt lat="44.3485785" lon="11.4621995"><ele>434.33333333333337</ele><time>2026-04-04T08:03:05.787Z</time></trkpt><trkpt lat="44.3485167" lon="11.4622212"><ele>434.0</ele><time>2026-04-04T08:03:06.788Z</time></trkpt><trkpt lat="44.34842" lon="11.4622608"><ele>433.6666666666667</ele><time>2026-04-04T08:03:08.787Z</time></trkpt><trkpt lat="44.3483772" lon="11.462382"><ele>433.33333333333337</ele><time>2026-04-04T08:03:11.784Z</time></trkpt><trkpt lat="44.3483905" lon="11.4624712"><ele>433.0</ele><time>2026-04-04T08:03:12.786Z</time></trkpt><trkpt lat="44.3484118" lon="11.4625757"><ele>433.0</ele><time>2026-04-04T08:03:13.787Z</time></trkpt><trkpt lat="44.348435" lon="11.4626933"><ele>432.99999999999994</ele><time>2026-04-04T08:03:14.784Z</time></trkpt><trkpt lat="44.3484567" lon="11.462825"><ele>432.99999999999994</ele><time>2026-04-04T08:03:15.785Z</time></trkpt><trkpt lat="44.3484767" lon="11.4629642"><ele>433.0</ele><time>2026-04-04T08:03:16.784Z</time></trkpt><trkpt lat="44.3484943" lon="11.463116"><ele>433.0</ele><time>2026-04-04T08:03:17.789Z</time></trkpt><trkpt lat="44.3485043" lon="11.4632647"><ele>431.79999999999995</ele><time>2026-04-04T08:03:18.788Z</time></trkpt><trkpt lat="44.3484997" lon="11.4634065"><ele>430.59999999999997</ele><time>2026-04-04T08:03:19.788Z</time></trkpt><trkpt lat="44.3484767" lon="11.4635495"><ele>429.40000000000003</ele><time>2026-04-04T08:03:20.789Z</time></trkpt><trkpt lat="44.3484358" lon="11.4636895"><ele>428.20000000000005</ele><time>2026-04-04T08:03:21.784Z</time></trkpt><trkpt lat="44.3483842" lon="11.4638252"><ele>427.0</ele><time>2026-04-04T08:03:22.784Z</time></trkpt><trkpt lat="44.3483278" lon="11.4639573"><ele>426.8</ele><time>2026-04-04T08:03:23.787Z</time></trkpt><trkpt lat="44.3482665" lon="11.4640862"><ele>426.6</ele><time>2026-04-04T08:03:24.786Z</time></trkpt><trkpt lat="44.348205" lon="11.4642152"><ele>426.40000000000003</ele><time>2026-04-04T08:03:25.787Z</time></trkpt><trkpt lat="44.3481612" lon="11.4643498"><ele>426.20000000000005</ele><time>2026-04-04T08:03:26.784Z</time></trkpt><trkpt lat="44.3481503" lon="11.4644852"><ele>426.0</ele><time>2026-04-04T08:03:27.788Z</time></trkpt><trkpt lat="44.3481673" lon="11.4646298"><ele>426.5</ele><time>2026-04-04T08:03:28.787Z</time></trkpt><trkpt lat="44.3481998" lon="11.4647808"><ele>427.0</ele><time>2026-04-04T08:03:29.788Z</time></trkpt><trkpt lat="44.3482335" lon="11.4649393"><ele>427.5</ele><time>2026-04-04T08:03:30.788Z</time></trkpt><trkpt lat="44.348265" lon="11.4651073"><ele>428.0</ele><time>2026-04-04T08:03:31.785Z</time></trkpt><trkpt lat="44.3482973" lon="11.4652827"><ele>429.5</ele><time>2026-04-04T08:03:32.785Z</time></trkpt><trkpt lat="44.34833" lon="11.4654582"><ele>431.0</ele><time>2026-04-04T08:03:33.786Z</time></trkpt><trkpt lat="44.3483637" lon="11.4656332"><ele>432.5</ele><time>2026-04-04T08:03:34.783Z</time></trkpt><trkpt lat="44.3483975" lon="11.465809"><ele>434.0</ele><time>2026-04-04T08:03:35.783Z</time></trkpt><trkpt lat="44.348429" lon="11.465987"><ele>434.0</ele><time>2026-04-04T08:03:36.787Z</time></trkpt><trkpt lat="44.3484465" lon="11.4661662"><ele>434.0</ele><time>2026-04-04T08:03:37.786Z</time></trkpt><trkpt lat="44.348449" lon="11.466344"><ele>434.0</ele><time>2026-04-04T08:03:38.787Z</time></trkpt><trkpt lat="44.3484413" lon="11.4665192"><ele>434.0</ele><time>2026-04-04T08:03:39.787Z</time></trkpt><trkpt lat="44.3484348" lon="11.4666902"><ele>434.2</ele><time>2026-04-04T08:03:40.788Z</time></trkpt><trkpt lat="44.3484295" lon="11.4668545"><ele>434.4</ele><time>2026-04-04T08:03:41.787Z</time></trkpt><trkpt lat="44.3484168" lon="11.467012"><ele>434.6</ele><time>2026-04-04T08:03:42.787Z</time></trkpt><trkpt lat="44.348389" lon="11.4671597"><ele>434.8</ele><time>2026-04-04T08:03:43.787Z</time></trkpt><trkpt lat="44.3483442" lon="11.4672928"><ele>435.0</ele><time>2026-04-04T08:03:44.784Z</time></trkpt><trkpt lat="44.3482867" lon="11.4674142"><ele>436.6</ele><time>2026-04-04T08:03:45.788Z</time></trkpt><trkpt lat="44.3482255" lon="11.4675315"><ele>438.2</ele><time>2026-04-04T08:03:46.788Z</time></trkpt><trkpt lat="44.348163" lon="11.4676462"><ele>439.79999999999995</ele><time>2026-04-04T08:03:47.787Z</time></trkpt><trkpt lat="44.3481078" lon="11.4677655"><ele>441.4</ele><time>2026-04-04T08:03:48.787Z</time></trkpt><trkpt lat="44.3480603" lon="11.4678927"><ele>443.0</ele><time>2026-04-04T08:03:49.781Z</time></trkpt><trkpt lat="44.3480178" lon="11.4680225"><ele>443.0</ele><time>2026-04-04T08:03:50.788Z</time></trkpt><trkpt lat="44.347968" lon="11.4681505"><ele>442.99999999999994</ele><time>2026-04-04T08:03:51.786Z</time></trkpt><trkpt lat="44.3479082" lon="11.4682728"><ele>442.99999999999994</ele><time>2026-04-04T08:03:52.787Z</time></trkpt><trkpt lat="44.3478495" lon="11.4683972"><ele>443.0</ele><time>2026-04-04T08:03:53.786Z</time></trkpt><trkpt lat="44.3478005" lon="11.4685225"><ele>443.0</ele><time>2026-04-04T08:03:54.783Z</time></trkpt><trkpt lat="44.3477683" lon="11.468652"><ele>444.16666666666663</ele><time>2026-04-04T08:03:55.784Z</time></trkpt><trkpt lat="44.3477503" lon="11.4687817"><ele>445.3333333333333</ele><time>2026-04-04T08:03:56.783Z</time></trkpt><trkpt lat="44.3477378" lon="11.4689102"><ele>446.5</ele><time>2026-04-04T08:03:57.786Z</time></trkpt><trkpt lat="44.3477303" lon="11.4690327"><ele>447.66666666666663</ele><time>2026-04-04T08:03:58.785Z</time></trkpt><trkpt lat="44.3477182" lon="11.4691433"><ele>448.8333333333333</ele><time>2026-04-04T08:03:59.783Z</time></trkpt><trkpt lat="44.347686" lon="11.4692267"><ele>450.0</ele><time>2026-04-04T08:04:00.782Z</time></trkpt><trkpt lat="44.3475695" lon="11.4692952"><ele>450.0</ele><time>2026-04-04T08:04:02.782Z</time></trkpt><trkpt lat="44.3474942" lon="11.4693032"><ele>450.0</ele><time>2026-04-04T08:04:03.784Z</time></trkpt><trkpt lat="44.3474085" lon="11.4693138"><ele>450.0</ele><time>2026-04-04T08:04:04.785Z</time></trkpt><trkpt lat="44.3473178" lon="11.4693168"><ele>450.0</ele><time>2026-04-04T08:04:05.788Z</time></trkpt><trkpt lat="44.3472282" lon="11.4693078"><ele>450.0</ele><time>2026-04-04T08:04:06.788Z</time></trkpt><trkpt lat="44.3471393" lon="11.469313"><ele>450.0</ele><time>2026-04-04T08:04:07.789Z</time></trkpt><trkpt lat="44.3470578" lon="11.4693445"><ele>449.0</ele><time>2026-04-04T08:04:08.788Z</time></trkpt><trkpt lat="44.346981" lon="11.4693855"><ele>448.0</ele><time>2026-04-04T08:04:09.786Z</time></trkpt><trkpt lat="44.3469043" lon="11.4694052"><ele>447.0</ele><time>2026-04-04T08:04:10.788Z</time></trkpt><trkpt lat="44.3468202" lon="11.4693953"><ele>446.0</ele><time>2026-04-04T08:04:11.788Z</time></trkpt><trkpt lat="44.346732" lon="11.4693663"><ele>445.0</ele><time>2026-04-04T08:04:12.788Z</time></trkpt><trkpt lat="44.3466657" lon="11.4693205"><ele>444.0</ele><time>2026-04-04T08:04:13.786Z</time></trkpt><trkpt lat="44.3466145" lon="11.4692598"><ele>444.0</ele><time>2026-04-04T08:04:14.784Z</time></trkpt><trkpt lat="44.3465585" lon="11.4691855"><ele>444.0</ele><time>2026-04-04T08:04:15.787Z</time></trkpt><trkpt lat="44.3464907" lon="11.4691102"><ele>444.0</ele><time>2026-04-04T08:04:16.787Z</time></trkpt><trkpt lat="44.346411" lon="11.4690408"><ele>444.0</ele><time>2026-04-04T08:04:17.787Z</time></trkpt><trkpt lat="44.3463268" lon="11.4689928"><ele>444.0</ele><time>2026-04-04T08:04:18.787Z</time></trkpt><trkpt lat="44.3462463" lon="11.4689713"><ele>444.0</ele><time>2026-04-04T08:04:19.787Z</time></trkpt><trkpt lat="44.3461698" lon="11.4689852"><ele>440.5</ele><time>2026-04-04T08:04:20.787Z</time></trkpt><trkpt lat="44.3460943" lon="11.4690363"><ele>437.0</ele><time>2026-04-04T08:04:21.788Z</time></trkpt><trkpt lat="44.3460355" lon="11.4691145"><ele>433.5</ele><time>2026-04-04T08:04:22.787Z</time></trkpt><trkpt lat="44.3460092" lon="11.4692072"><ele>430.0</ele><time>2026-04-04T08:04:23.781Z</time></trkpt><trkpt lat="44.3460158" lon="11.4693048"><ele>426.5</ele><time>2026-04-04T08:04:24.785Z</time></trkpt><trkpt lat="44.3460343" lon="11.4694248"><ele>423.0</ele><time>2026-04-04T08:04:25.785Z</time></trkpt><trkpt lat="44.346045" lon="11.4695573"><ele>423.4</ele><time>2026-04-04T08:04:26.785Z</time></trkpt><trkpt lat="44.3460423" lon="11.4696913"><ele>423.79999999999995</ele><time>2026-04-04T08:04:27.785Z</time></trkpt><trkpt lat="44.3460165" lon="11.4698288"><ele>424.2</ele><time>2026-04-04T08:04:28.786Z</time></trkpt><trkpt lat="44.3459777" lon="11.4699655"><ele>424.6</ele><time>2026-04-04T08:04:29.785Z</time></trkpt><trkpt lat="44.3459387" lon="11.4700982"><ele>425.0</ele><time>2026-04-04T08:04:30.786Z</time></trkpt><trkpt lat="44.345885" lon="11.4702112"><ele>425.0</ele><time>2026-04-04T08:04:31.786Z</time></trkpt><trkpt lat="44.3458102" lon="11.470309"><ele>425.0</ele><time>2026-04-04T08:04:32.783Z</time></trkpt><trkpt lat="44.3457128" lon="11.4704282"><ele>425.0</ele><time>2026-04-04T08:04:33.784Z</time></trkpt><trkpt lat="44.345615" lon="11.4705577"><ele>425.0</ele><time>2026-04-04T08:04:34.785Z</time></trkpt><trkpt lat="44.34552" lon="11.4706868"><ele>421.5</ele><time>2026-04-04T08:04:35.785Z</time></trkpt><trkpt lat="44.345427" lon="11.4708017"><ele>418.0</ele><time>2026-04-04T08:04:36.788Z</time></trkpt><trkpt lat="44.3453263" lon="11.4708967"><ele>414.5</ele><time>2026-04-04T08:04:37.787Z</time></trkpt><trkpt lat="44.3452142" lon="11.4709612"><ele>411.0</ele><time>2026-04-04T08:04:38.787Z</time></trkpt><trkpt lat="44.3450933" lon="11.4710052"><ele>411.0</ele><time>2026-04-04T08:04:39.787Z</time></trkpt><trkpt lat="44.3449712" lon="11.4710418"><ele>411.0</ele><time>2026-04-04T08:04:40.787Z</time></trkpt><trkpt lat="44.34485" lon="11.4710595"><ele>411.0</ele><time>2026-04-04T08:04:41.787Z</time></trkpt><trkpt lat="44.3447343" lon="11.4710535"><ele>411.0</ele><time>2026-04-04T08:04:42.787Z</time></trkpt><trkpt lat="44.3446327" lon="11.4710542"><ele>411.0</ele><time>2026-04-04T08:04:43.787Z</time></trkpt><trkpt lat="44.3445452" lon="11.4710772"><ele>411.0</ele><time>2026-04-04T08:04:44.784Z</time></trkpt><trkpt lat="44.344471" lon="11.4711268"><ele>411.0</ele><time>2026-04-04T08:04:45.787Z</time></trkpt><trkpt lat="44.344392" lon="11.4711785"><ele>411.0</ele><time>2026-04-04T08:04:46.787Z</time></trkpt><trkpt lat="44.3442898" lon="11.471209"><ele>411.0</ele><time>2026-04-04T08:04:47.786Z</time></trkpt><trkpt lat="44.3441652" lon="11.4712187"><ele>411.0</ele><time>2026-04-04T08:04:48.782Z</time></trkpt><trkpt lat="44.3440185" lon="11.4712298"><ele>411.0</ele><time>2026-04-04T08:04:49.787Z</time></trkpt><trkpt lat="44.3438575" lon="11.4712505"><ele>411.0</ele><time>2026-04-04T08:04:50.784Z</time></trkpt><trkpt lat="44.3436882" lon="11.4712775"><ele>415.66666666666663</ele><time>2026-04-04T08:04:51.787Z</time></trkpt><trkpt lat="44.343516" lon="11.4713118"><ele>420.3333333333333</ele><time>2026-04-04T08:04:52.788Z</time></trkpt><trkpt lat="44.3433693" lon="11.471342"><ele>425.0</ele><time>2026-04-04T08:04:53.786Z</time></trkpt><trkpt lat="44.3432275" lon="11.4713732"><ele>425.0</ele><time>2026-04-04T08:04:54.785Z</time></trkpt><trkpt lat="44.3430977" lon="11.4714145"><ele>425.0</ele><time>2026-04-04T08:04:55.788Z</time></trkpt><trkpt lat="44.342981" lon="11.4714518"><ele>425.0</ele><time>2026-04-04T08:04:56.787Z</time></trkpt><trkpt lat="44.3428653" lon="11.4714787"><ele>425.0</ele><time>2026-04-04T08:04:57.788Z</time></trkpt><trkpt lat="44.3427465" lon="11.4714988"><ele>428.25</ele><time>2026-04-04T08:04:58.785Z</time></trkpt><trkpt lat="44.3426297" lon="11.471517"><ele>431.5</ele><time>2026-04-04T08:04:59.787Z</time></trkpt><trkpt lat="44.3425192" lon="11.4715445"><ele>434.75</ele><time>2026-04-04T08:05:00.787Z</time></trkpt><trkpt lat="44.3424107" lon="11.4715877"><ele>438.0</ele><time>2026-04-04T08:05:01.787Z</time></trkpt><trkpt lat="44.3423013" lon="11.4716403"><ele>437.0</ele><time>2026-04-04T08:05:02.785Z</time></trkpt><trkpt lat="44.3421863" lon="11.4717007"><ele>436.0</ele><time>2026-04-04T08:05:03.785Z</time></trkpt><trkpt lat="44.342072" lon="11.4717618"><ele>435.0</ele><time>2026-04-04T08:05:04.785Z</time></trkpt><trkpt lat="44.3419632" lon="11.4718207"><ele>434.0</ele><time>2026-04-04T08:05:05.784Z</time></trkpt><trkpt lat="44.3418638" lon="11.4718685"><ele>434.0</ele><time>2026-04-04T08:05:06.788Z</time></trkpt><trkpt lat="44.3417658" lon="11.4718942"><ele>434.0</ele><time>2026-04-04T08:05:07.788Z</time></trkpt><trkpt lat="44.3416627" lon="11.4719047"><ele>434.0</ele><time>2026-04-04T08:05:08.787Z</time></trkpt><trkpt lat="44.3415603" lon="11.4719017"><ele>434.0</ele><time>2026-04-04T08:05:09.788Z</time></trkpt><trkpt lat="44.3414678" lon="11.4718813"><ele>434.0</ele><time>2026-04-04T08:05:10.785Z</time></trkpt><trkpt lat="44.3413877" lon="11.4718488"><ele>430.6</ele><time>2026-04-04T08:05:11.785Z</time></trkpt><trkpt lat="44.3413232" lon="11.4718308"><ele>427.2</ele><time>2026-04-04T08:05:12.785Z</time></trkpt><trkpt lat="44.3412387" lon="11.4719035"><ele>423.8</ele><time>2026-04-04T08:05:14.785Z</time></trkpt><trkpt lat="44.341194" lon="11.4719687"><ele>420.40000000000003</ele><time>2026-04-04T08:05:15.783Z</time></trkpt><trkpt lat="44.341104" lon="11.4720773"><ele>417.0</ele><time>2026-04-04T08:05:17.788Z</time></trkpt><trkpt lat="44.3409975" lon="11.4721627"><ele>417.0</ele><time>2026-04-04T08:05:19.788Z</time></trkpt><trkpt lat="44.3409423" lon="11.4722088"><ele>417.0</ele><time>2026-04-04T08:05:20.788Z</time></trkpt><trkpt lat="44.340886" lon="11.4722757"><ele>417.0</ele><time>2026-04-04T08:05:21.783Z</time></trkpt><trkpt lat="44.3408245" lon="11.47237"><ele>417.0</ele><time>2026-04-04T08:05:22.787Z</time></trkpt><trkpt lat="44.3407575" lon="11.4724582"><ele>417.0</ele><time>2026-04-04T08:05:23.786Z</time></trkpt><trkpt lat="44.3406868" lon="11.4725103"><ele>417.0</ele><time>2026-04-04T08:05:24.788Z</time></trkpt><trkpt lat="44.3406087" lon="11.4725502"><ele>415.6666666666667</ele><time>2026-04-04T08:05:25.785Z</time></trkpt><trkpt lat="44.3405257" lon="11.4726003"><ele>414.33333333333337</ele><time>2026-04-04T08:05:26.788Z</time></trkpt><trkpt lat="44.3404487" lon="11.4726408"><ele>413.0</ele><time>2026-04-04T08:05:27.79Z</time></trkpt><trkpt lat="44.3403718" lon="11.4726688"><ele>411.6666666666667</ele><time>2026-04-04T08:05:28.786Z</time></trkpt><trkpt lat="44.3402937" lon="11.4726982"><ele>410.33333333333337</ele><time>2026-04-04T08:05:29.786Z</time></trkpt><trkpt lat="44.3402157" lon="11.4727292"><ele>409.0</ele><time>2026-04-04T08:05:30.784Z</time></trkpt><trkpt lat="44.3401343" lon="11.4727532"><ele>409.00000000000006</ele><time>2026-04-04T08:05:31.786Z</time></trkpt><trkpt lat="44.3400522" lon="11.4727783"><ele>409.0</ele><time>2026-04-04T08:05:32.785Z</time></trkpt><trkpt lat="44.3399717" lon="11.4728077"><ele>409.0</ele><time>2026-04-04T08:05:33.786Z</time></trkpt><trkpt lat="44.339897" lon="11.472836"><ele>409.0</ele><time>2026-04-04T08:05:34.786Z</time></trkpt><trkpt lat="44.3398242" lon="11.4728637"><ele>409.00000000000006</ele><time>2026-04-04T08:05:35.784Z</time></trkpt><trkpt lat="44.339754" lon="11.4728948"><ele>409.0</ele><time>2026-04-04T08:05:36.784Z</time></trkpt><trkpt lat="44.3396888" lon="11.4729297"><ele>407.33333333333337</ele><time>2026-04-04T08:05:37.783Z</time></trkpt><trkpt lat="44.3396247" lon="11.4729795"><ele>405.6666666666667</ele><time>2026-04-04T08:05:38.784Z</time></trkpt><trkpt lat="44.3395667" lon="11.4730385"><ele>404.0</ele><time>2026-04-04T08:05:39.785Z</time></trkpt><trkpt lat="44.3395085" lon="11.4731083"><ele>402.33333333333337</ele><time>2026-04-04T08:05:40.787Z</time></trkpt><trkpt lat="44.3394485" lon="11.4731742"><ele>400.6666666666667</ele><time>2026-04-04T08:05:41.789Z</time></trkpt><trkpt lat="44.3393793" lon="11.4732148"><ele>399.0</ele><time>2026-04-04T08:05:42.79Z</time></trkpt><trkpt lat="44.3392945" lon="11.4732268"><ele>399.0</ele><time>2026-04-04T08:05:43.789Z</time></trkpt><trkpt lat="44.339198" lon="11.473222"><ele>399.0</ele><time>2026-04-04T08:05:44.789Z</time></trkpt><trkpt lat="44.339104" lon="11.4732245"><ele>399.0</ele><time>2026-04-04T08:05:45.788Z</time></trkpt><trkpt lat="44.3390087" lon="11.4732443"><ele>399.0</ele><time>2026-04-04T08:05:46.786Z</time></trkpt><trkpt lat="44.3389192" lon="11.4732647"><ele>399.0</ele><time>2026-04-04T08:05:47.788Z</time></trkpt><trkpt lat="44.3388325" lon="11.4732688"><ele>398.4</ele><time>2026-04-04T08:05:48.789Z</time></trkpt><trkpt lat="44.338751" lon="11.4732428"><ele>397.79999999999995</ele><time>2026-04-04T08:05:49.789Z</time></trkpt><trkpt lat="44.3386658" lon="11.4731878"><ele>397.20000000000005</ele><time>2026-04-04T08:05:50.784Z</time></trkpt><trkpt lat="44.3385677" lon="11.4731145"><ele>396.6</ele><time>2026-04-04T08:05:51.786Z</time></trkpt><trkpt lat="44.338454" lon="11.4730357"><ele>396.0</ele><time>2026-04-04T08:05:52.789Z</time></trkpt><trkpt lat="44.3383208" lon="11.4729662"><ele>395.75</ele><time>2026-04-04T08:05:53.788Z</time></trkpt><trkpt lat="44.338187" lon="11.4729068"><ele>395.5</ele><time>2026-04-04T08:05:54.789Z</time></trkpt><trkpt lat="44.3380565" lon="11.4728488"><ele>395.25</ele><time>2026-04-04T08:05:55.786Z</time></trkpt><trkpt lat="44.3379395" lon="11.4727917"><ele>395.0</ele><time>2026-04-04T08:05:56.787Z</time></trkpt><trkpt lat="44.3378342" lon="11.4727337"><ele>393.8</ele><time>2026-04-04T08:05:57.786Z</time></trkpt><trkpt lat="44.3377318" lon="11.4726907"><ele>392.6</ele><time>2026-04-04T08:05:58.788Z</time></trkpt><trkpt lat="44.3376345" lon="11.4726702"><ele>391.4</ele><time>2026-04-04T08:05:59.788Z</time></trkpt><trkpt lat="44.3375437" lon="11.4726753"><ele>390.2</ele><time>2026-04-04T08:06:00.788Z</time></trkpt><trkpt lat="44.3374507" lon="11.472691"><ele>389.0</ele><time>2026-04-04T08:06:01.784Z</time></trkpt><trkpt lat="44.3373385" lon="11.4727092"><ele>389.0</ele><time>2026-04-04T08:06:02.784Z</time></trkpt><trkpt lat="44.3372265" lon="11.4727288"><ele>389.0</ele><time>2026-04-04T08:06:03.785Z</time></trkpt><trkpt lat="44.3371218" lon="11.4727647"><ele>389.0</ele><time>2026-04-04T08:06:04.785Z</time></trkpt><trkpt lat="44.337023" lon="11.4728192"><ele>389.0</ele><time>2026-04-04T08:06:05.788Z</time></trkpt><trkpt lat="44.3369433" lon="11.472857"><ele>389.0</ele><time>2026-04-04T08:06:06.786Z</time></trkpt><trkpt lat="44.3368305" lon="11.4729047"><ele>390.79999999999995</ele><time>2026-04-04T08:06:08.785Z</time></trkpt><trkpt lat="44.3367622" lon="11.4729115"><ele>392.59999999999997</ele><time>2026-04-04T08:06:09.787Z</time></trkpt><trkpt lat="44.336676" lon="11.4729127"><ele>394.4</ele><time>2026-04-04T08:06:10.789Z</time></trkpt><trkpt lat="44.3365763" lon="11.4729152"><ele>396.2</ele><time>2026-04-04T08:06:11.789Z</time></trkpt><trkpt lat="44.336469" lon="11.4729118"><ele>398.0</ele><time>2026-04-04T08:06:12.791Z</time></trkpt><trkpt lat="44.3363723" lon="11.4728993"><ele>399.16666666666663</ele><time>2026-04-04T08:06:13.786Z</time></trkpt><trkpt lat="44.3362832" lon="11.4728755"><ele>400.3333333333333</ele><time>2026-04-04T08:06:14.789Z</time></trkpt><trkpt lat="44.3362048" lon="11.4728533"><ele>401.5</ele><time>2026-04-04T08:06:15.789Z</time></trkpt><trkpt lat="44.3361313" lon="11.4728305"><ele>402.66666666666663</ele><time>2026-04-04T08:06:16.789Z</time></trkpt><trkpt lat="44.3360665" lon="11.4727815"><ele>403.8333333333333</ele><time>2026-04-04T08:06:17.788Z</time></trkpt><trkpt lat="44.3359907" lon="11.4727145"><ele>405.0</ele><time>2026-04-04T08:06:18.788Z</time></trkpt><trkpt lat="44.3359077" lon="11.4726418"><ele>405.0</ele><time>2026-04-04T08:06:19.789Z</time></trkpt><trkpt lat="44.335819" lon="11.4725738"><ele>405.0</ele><time>2026-04-04T08:06:20.789Z</time></trkpt><trkpt lat="44.3357283" lon="11.4724975"><ele>405.0</ele><time>2026-04-04T08:06:21.788Z</time></trkpt><trkpt lat="44.3356425" lon="11.4724087"><ele>405.0</ele><time>2026-04-04T08:06:22.786Z</time></trkpt><trkpt lat="44.3355615" lon="11.472301"><ele>405.0</ele><time>2026-04-04T08:06:23.785Z</time></trkpt><trkpt lat="44.3355038" lon="11.4721883"><ele>405.0</ele><time>2026-04-04T08:06:24.788Z</time></trkpt><trkpt lat="44.335462" lon="11.4720753"><ele>405.0</ele><time>2026-04-04T08:06:25.787Z</time></trkpt><trkpt lat="44.3354228" lon="11.4719682"><ele>405.0</ele><time>2026-04-04T08:06:26.785Z</time></trkpt><trkpt lat="44.3353755" lon="11.471869"><ele>405.0</ele><time>2026-04-04T08:06:27.784Z</time></trkpt><trkpt lat="44.3353187" lon="11.4717768"><ele>405.0</ele><time>2026-04-04T08:06:28.783Z</time></trkpt><trkpt lat="44.3352522" lon="11.4716977"><ele>405.0</ele><time>2026-04-04T08:06:29.787Z</time></trkpt><trkpt lat="44.3351827" lon="11.4716235"><ele>405.0</ele><time>2026-04-04T08:06:30.788Z</time></trkpt><trkpt lat="44.335105" lon="11.4715625"><ele>405.0</ele><time>2026-04-04T08:06:31.789Z</time></trkpt><trkpt lat="44.3350277" lon="11.4715155"><ele>405.0</ele><time>2026-04-04T08:06:32.785Z</time></trkpt><trkpt lat="44.3349635" lon="11.4714958"><ele>405.0</ele><time>2026-04-04T08:06:33.786Z</time></trkpt><trkpt lat="44.3348627" lon="11.4715583"><ele>405.0</ele><time>2026-04-04T08:06:35.785Z</time></trkpt><trkpt lat="44.3348353" lon="11.4716443"><ele>405.0</ele><time>2026-04-04T08:06:36.787Z</time></trkpt><trkpt lat="44.3348125" lon="11.4717707"><ele>405.0</ele><time>2026-04-04T08:06:37.788Z</time></trkpt><trkpt lat="44.3347737" lon="11.4719197"><ele>405.0</ele><time>2026-04-04T08:06:38.788Z</time></trkpt><trkpt lat="44.334724" lon="11.472069"><ele>405.0</ele><time>2026-04-04T08:06:39.787Z</time></trkpt><trkpt lat="44.3346587" lon="11.4722118"><ele>405.0</ele><time>2026-04-04T08:06:40.788Z</time></trkpt><trkpt lat="44.3345748" lon="11.4723517"><ele>402.0</ele><time>2026-04-04T08:06:41.788Z</time></trkpt><trkpt lat="44.3344848" lon="11.4724823"><ele>399.0</ele><time>2026-04-04T08:06:42.789Z</time></trkpt><trkpt lat="44.3343958" lon="11.472601"><ele>396.0</ele><time>2026-04-04T08:06:43.789Z</time></trkpt><trkpt lat="44.334303" lon="11.4726972"><ele>393.0</ele><time>2026-04-04T08:06:44.785Z</time></trkpt><trkpt lat="44.3341953" lon="11.4727618"><ele>393.0</ele><time>2026-04-04T08:06:45.789Z</time></trkpt><trkpt lat="44.3340757" lon="11.4728"><ele>393.0</ele><time>2026-04-04T08:06:46.789Z</time></trkpt><trkpt lat="44.3339628" lon="11.4728058"><ele>393.0</ele><time>2026-04-04T08:06:47.788Z</time></trkpt><trkpt lat="44.333859" lon="11.4727825"><ele>393.0</ele><time>2026-04-04T08:06:48.791Z</time></trkpt><trkpt lat="44.3337768" lon="11.4727202"><ele>393.0</ele><time>2026-04-04T08:06:49.789Z</time></trkpt><trkpt lat="44.3337037" lon="11.472612"><ele>391.5</ele><time>2026-04-04T08:06:50.786Z</time></trkpt><trkpt lat="44.3336268" lon="11.472463"><ele>390.0</ele><time>2026-04-04T08:06:51.786Z</time></trkpt><trkpt lat="44.3335397" lon="11.4722953"><ele>388.5</ele><time>2026-04-04T08:06:52.787Z</time></trkpt><trkpt lat="44.3334432" lon="11.4721458"><ele>387.0</ele><time>2026-04-04T08:06:53.782Z</time></trkpt><trkpt lat="44.3333362" lon="11.4720153"><ele>386.5</ele><time>2026-04-04T08:06:54.79Z</time></trkpt><trkpt lat="44.3332308" lon="11.471905"><ele>386.0</ele><time>2026-04-04T08:06:55.796Z</time></trkpt><trkpt lat="44.3331195" lon="11.4718065"><ele>385.5</ele><time>2026-04-04T08:06:56.788Z</time></trkpt><trkpt lat="44.3329988" lon="11.4717248"><ele>385.0</ele><time>2026-04-04T08:06:57.787Z</time></trkpt><trkpt lat="44.3328682" lon="11.4716478"><ele>384.0</ele><time>2026-04-04T08:06:58.788Z</time></trkpt><trkpt lat="44.3327513" lon="11.4715655"><ele>383.0</ele><time>2026-04-04T08:06:59.788Z</time></trkpt><trkpt lat="44.3326383" lon="11.4714878"><ele>382.0</ele><time>2026-04-04T08:07:00.787Z</time></trkpt><trkpt lat="44.3325228" lon="11.4714327"><ele>381.0</ele><time>2026-04-04T08:07:01.788Z</time></trkpt><trkpt lat="44.3324138" lon="11.471389"><ele>381.0</ele><time>2026-04-04T08:07:02.786Z</time></trkpt><trkpt lat="44.3323082" lon="11.4713277"><ele>381.0</ele><time>2026-04-04T08:07:03.786Z</time></trkpt><trkpt lat="44.3322092" lon="11.4712583"><ele>381.0</ele><time>2026-04-04T08:07:04.787Z</time></trkpt><trkpt lat="44.3321152" lon="11.4712088"><ele>381.0</ele><time>2026-04-04T08:07:05.787Z</time></trkpt><trkpt lat="44.3320303" lon="11.471196"><ele>381.0</ele><time>2026-04-04T08:07:06.786Z</time></trkpt><trkpt lat="44.3319485" lon="11.4712133"><ele>380.8</ele><time>2026-04-04T08:07:07.785Z</time></trkpt><trkpt lat="44.3318578" lon="11.4712562"><ele>380.6</ele><time>2026-04-04T08:07:08.786Z</time></trkpt><trkpt lat="44.3317557" lon="11.471304"><ele>380.4</ele><time>2026-04-04T08:07:09.788Z</time></trkpt><trkpt lat="44.331654" lon="11.4713533"><ele>380.2</ele><time>2026-04-04T08:07:10.786Z</time></trkpt><trkpt lat="44.3315558" lon="11.4714153"><ele>380.0</ele><time>2026-04-04T08:07:11.786Z</time></trkpt><trkpt lat="44.3314632" lon="11.4714985"><ele>376.2</ele><time>2026-04-04T08:07:12.785Z</time></trkpt><trkpt lat="44.3313717" lon="11.4715925"><ele>372.4</ele><time>2026-04-04T08:07:13.783Z</time></trkpt><trkpt lat="44.3312783" lon="11.4716788"><ele>368.6</ele><time>2026-04-04T08:07:14.782Z</time></trkpt><trkpt lat="44.3311802" lon="11.4717452"><ele>364.8</ele><time>2026-04-04T08:07:15.78Z</time></trkpt><trkpt lat="44.3310857" lon="11.471793"><ele>361.0</ele><time>2026-04-04T08:07:16.783Z</time></trkpt><trkpt lat="44.3309917" lon="11.4718338"><ele>361.0</ele><time>2026-04-04T08:07:17.784Z</time></trkpt><trkpt lat="44.3309043" lon="11.47188"><ele>361.0</ele><time>2026-04-04T08:07:18.784Z</time></trkpt><trkpt lat="44.3308183" lon="11.471932"><ele>361.0</ele><time>2026-04-04T08:07:19.785Z</time></trkpt><trkpt lat="44.3307377" lon="11.4719782"><ele>361.0</ele><time>2026-04-04T08:07:20.786Z</time></trkpt><trkpt lat="44.3306512" lon="11.4720037"><ele>361.0</ele><time>2026-04-04T08:07:21.786Z</time></trkpt><trkpt lat="44.3305585" lon="11.4720097"><ele>358.0</ele><time>2026-04-04T08:07:22.786Z</time></trkpt><trkpt lat="44.3304593" lon="11.472012"><ele>355.0</ele><time>2026-04-04T08:07:23.785Z</time></trkpt><trkpt lat="44.3303605" lon="11.4720113"><ele>352.0</ele><time>2026-04-04T08:07:24.787Z</time></trkpt><trkpt lat="44.3302605" lon="11.4720127"><ele>349.0</ele><time>2026-04-04T08:07:25.785Z</time></trkpt><trkpt lat="44.3301613" lon="11.4720218"><ele>346.0</ele><time>2026-04-04T08:07:26.786Z</time></trkpt><trkpt lat="44.3300657" lon="11.4720467"><ele>346.0</ele><time>2026-04-04T08:07:27.784Z</time></trkpt><trkpt lat="44.329977" lon="11.472063"><ele>346.0</ele><time>2026-04-04T08:07:28.783Z</time></trkpt><trkpt lat="44.3298947" lon="11.4720638"><ele>346.0</ele><time>2026-04-04T08:07:29.786Z</time></trkpt><trkpt lat="44.3298155" lon="11.4720582"><ele>346.0</ele><time>2026-04-04T08:07:30.786Z</time></trkpt><trkpt lat="44.3297363" lon="11.4720512"><ele>346.0</ele><time>2026-04-04T08:07:31.787Z</time></trkpt><trkpt lat="44.32965" lon="11.4720533"><ele>346.0</ele><time>2026-04-04T08:07:32.785Z</time></trkpt><trkpt lat="44.3295533" lon="11.4720802"><ele>347.6</ele><time>2026-04-04T08:07:33.785Z</time></trkpt><trkpt lat="44.3294515" lon="11.4721127"><ele>349.20000000000005</ele><time>2026-04-04T08:07:34.785Z</time></trkpt><trkpt lat="44.3293548" lon="11.4721482"><ele>350.79999999999995</ele><time>2026-04-04T08:07:35.785Z</time></trkpt><trkpt lat="44.3292563" lon="11.4722007"><ele>352.4</ele><time>2026-04-04T08:07:36.785Z</time></trkpt><trkpt lat="44.3291493" lon="11.4722662"><ele>354.0</ele><time>2026-04-04T08:07:37.783Z</time></trkpt><trkpt lat="44.3290362" lon="11.4723173"><ele>354.0</ele><time>2026-04-04T08:07:38.783Z</time></trkpt><trkpt lat="44.3289203" lon="11.4723473"><ele>354.0</ele><time>2026-04-04T08:07:39.781Z</time></trkpt><trkpt lat="44.3288075" lon="11.4723667"><ele>354.0</ele><time>2026-04-04T08:07:40.781Z</time></trkpt><trkpt lat="44.3287038" lon="11.4723957"><ele>354.0</ele><time>2026-04-04T08:07:41.784Z</time></trkpt><trkpt lat="44.328619" lon="11.4724475"><ele>354.0</ele><time>2026-04-04T08:07:42.784Z</time></trkpt><trkpt lat="44.3285432" lon="11.472512"><ele>356.0</ele><time>2026-04-04T08:07:43.786Z</time></trkpt><trkpt lat="44.3284722" lon="11.4725368"><ele>358.0</ele><time>2026-04-04T08:07:44.789Z</time></trkpt><trkpt lat="44.3284005" lon="11.4725187"><ele>360.0</ele><time>2026-04-04T08:07:45.786Z</time></trkpt><trkpt lat="44.3283197" lon="11.4724792"><ele>362.0</ele><time>2026-04-04T08:07:46.787Z</time></trkpt><trkpt lat="44.3282357" lon="11.4724535"><ele>364.0</ele><time>2026-04-04T08:07:47.785Z</time></trkpt><trkpt lat="44.328156" lon="11.4724633"><ele>366.0</ele><time>2026-04-04T08:07:48.787Z</time></trkpt><trkpt lat="44.3280723" lon="11.4724918"><ele>367.20000000000005</ele><time>2026-04-04T08:07:49.781Z</time></trkpt><trkpt lat="44.3279935" lon="11.4725458"><ele>368.40000000000003</ele><time>2026-04-04T08:07:50.782Z</time></trkpt><trkpt lat="44.327929" lon="11.4726327"><ele>369.6</ele><time>2026-04-04T08:07:51.786Z</time></trkpt><trkpt lat="44.3278727" lon="11.47275"><ele>370.8</ele><time>2026-04-04T08:07:52.785Z</time></trkpt><trkpt lat="44.3278125" lon="11.472872"><ele>372.0</ele><time>2026-04-04T08:07:53.786Z</time></trkpt><trkpt lat="44.3277452" lon="11.4729925"><ele>369.20000000000005</ele><time>2026-04-04T08:07:54.784Z</time></trkpt><trkpt lat="44.3276702" lon="11.4730977"><ele>366.4</ele><time>2026-04-04T08:07:55.78Z</time></trkpt><trkpt lat="44.3275893" lon="11.4731628"><ele>363.6</ele><time>2026-04-04T08:07:56.781Z</time></trkpt><trkpt lat="44.3275057" lon="11.4732017"><ele>360.79999999999995</ele><time>2026-04-04T08:07:57.785Z</time></trkpt><trkpt lat="44.3274222" lon="11.473235"><ele>358.0</ele><time>2026-04-04T08:07:58.785Z</time></trkpt><trkpt lat="44.3273362" lon="11.4732568"><ele>358.0</ele><time>2026-04-04T08:07:59.785Z</time></trkpt><trkpt lat="44.3272433" lon="11.4732772"><ele>358.0</ele><time>2026-04-04T08:08:00.783Z</time></trkpt><trkpt lat="44.3271525" lon="11.4733193"><ele>358.0</ele><time>2026-04-04T08:08:01.785Z</time></trkpt><trkpt lat="44.3270605" lon="11.473375"><ele>358.0</ele><time>2026-04-04T08:08:02.785Z</time></trkpt><trkpt lat="44.3269667" lon="11.4734433"><ele>358.0</ele><time>2026-04-04T08:08:03.785Z</time></trkpt><trkpt lat="44.3268773" lon="11.4735055"><ele>357.0</ele><time>2026-04-04T08:08:04.784Z</time></trkpt><trkpt lat="44.3267885" lon="11.473568"><ele>356.0</ele><time>2026-04-04T08:08:05.783Z</time></trkpt><trkpt lat="44.3267005" lon="11.473628"><ele>355.0</ele><time>2026-04-04T08:08:06.782Z</time></trkpt><trkpt lat="44.3266227" lon="11.4736832"><ele>354.0</ele><time>2026-04-04T08:08:07.782Z</time></trkpt><trkpt lat="44.3265605" lon="11.4737267"><ele>353.0</ele><time>2026-04-04T08:08:08.785Z</time></trkpt><trkpt lat="44.3265042" lon="11.4738603"><ele>350.79999999999995</ele><time>2026-04-04T08:08:10.786Z</time></trkpt><trkpt lat="44.3265085" lon="11.473962"><ele>348.6</ele><time>2026-04-04T08:08:11.786Z</time></trkpt><trkpt lat="44.3265198" lon="11.4740845"><ele>346.4</ele><time>2026-04-04T08:08:12.784Z</time></trkpt><trkpt lat="44.3265365" lon="11.4742135"><ele>344.20000000000005</ele><time>2026-04-04T08:08:13.785Z</time></trkpt><trkpt lat="44.3265653" lon="11.4743457"><ele>342.0</ele><time>2026-04-04T08:08:14.789Z</time></trkpt><trkpt lat="44.3266125" lon="11.4744757"><ele>342.0</ele><time>2026-04-04T08:08:15.787Z</time></trkpt><trkpt lat="44.3266757" lon="11.4746013"><ele>342.0</ele><time>2026-04-04T08:08:16.786Z</time></trkpt><trkpt lat="44.3267402" lon="11.4747333"><ele>342.0</ele><time>2026-04-04T08:08:17.784Z</time></trkpt><trkpt lat="44.3267887" lon="11.4748833"><ele>342.0</ele><time>2026-04-04T08:08:18.788Z</time></trkpt><trkpt lat="44.3268142" lon="11.4750467"><ele>337.5</ele><time>2026-04-04T08:08:19.787Z</time></trkpt><trkpt lat="44.3268232" lon="11.4752183"><ele>333.0</ele><time>2026-04-04T08:08:20.787Z</time></trkpt><trkpt lat="44.3268153" lon="11.4753948"><ele>328.5</ele><time>2026-04-04T08:08:21.786Z</time></trkpt><trkpt lat="44.3267925" lon="11.4755693"><ele>324.0</ele><time>2026-04-04T08:08:22.787Z</time></trkpt><trkpt lat="44.32676" lon="11.4757415"><ele>320.25</ele><time>2026-04-04T08:08:23.788Z</time></trkpt><trkpt lat="44.3267222" lon="11.4759112"><ele>316.5</ele><time>2026-04-04T08:08:24.787Z</time></trkpt><trkpt lat="44.3266822" lon="11.476078"><ele>312.75</ele><time>2026-04-04T08:08:25.788Z</time></trkpt><trkpt lat="44.326646" lon="11.4762407"><ele>309.0</ele><time>2026-04-04T08:08:26.788Z</time></trkpt><trkpt lat="44.3266137" lon="11.4763977"><ele>307.2</ele><time>2026-04-04T08:08:27.784Z</time></trkpt><trkpt lat="44.3265743" lon="11.4765448"><ele>305.4</ele><time>2026-04-04T08:08:28.785Z</time></trkpt><trkpt lat="44.3265277" lon="11.4766838"><ele>303.6</ele><time>2026-04-04T08:08:29.785Z</time></trkpt><trkpt lat="44.326477" lon="11.476819"><ele>301.8</ele><time>2026-04-04T08:08:30.786Z</time></trkpt><trkpt lat="44.3264242" lon="11.4769488"><ele>300.0</ele><time>2026-04-04T08:08:31.785Z</time></trkpt><trkpt lat="44.326371" lon="11.4770743"><ele>297.4</ele><time>2026-04-04T08:08:32.788Z</time></trkpt><trkpt lat="44.3263168" lon="11.4771937"><ele>294.8</ele><time>2026-04-04T08:08:33.788Z</time></trkpt><trkpt lat="44.3262588" lon="11.477304"><ele>292.2</ele><time>2026-04-04T08:08:34.788Z</time></trkpt><trkpt lat="44.3261948" lon="11.477408"><ele>289.6</ele><time>2026-04-04T08:08:35.786Z</time></trkpt><trkpt lat="44.3261212" lon="11.4775172"><ele>287.0</ele><time>2026-04-04T08:08:36.786Z</time></trkpt><trkpt lat="44.3260477" lon="11.4776283"><ele>287.0</ele><time>2026-04-04T08:08:37.785Z</time></trkpt><trkpt lat="44.3259812" lon="11.4777415"><ele>287.0</ele><time>2026-04-04T08:08:38.784Z</time></trkpt><trkpt lat="44.3259235" lon="11.4778612"><ele>287.0</ele><time>2026-04-04T08:08:39.787Z</time></trkpt><trkpt lat="44.3258675" lon="11.4779815"><ele>287.0</ele><time>2026-04-04T08:08:40.787Z</time></trkpt><trkpt lat="44.3258122" lon="11.4781042"><ele>287.0</ele><time>2026-04-04T08:08:41.787Z</time></trkpt><trkpt lat="44.3257592" lon="11.4782267"><ele>286.5</ele><time>2026-04-04T08:08:42.787Z</time></trkpt><trkpt lat="44.3257222" lon="11.4783418"><ele>286.0</ele><time>2026-04-04T08:08:43.786Z</time></trkpt><trkpt lat="44.3257125" lon="11.4784508"><ele>285.5</ele><time>2026-04-04T08:08:44.787Z</time></trkpt><trkpt lat="44.3257272" lon="11.4785522"><ele>285.0</ele><time>2026-04-04T08:08:45.787Z</time></trkpt><trkpt lat="44.3257417" lon="11.4786508"><ele>284.5</ele><time>2026-04-04T08:08:46.787Z</time></trkpt><trkpt lat="44.3257643" lon="11.478752"><ele>284.0</ele><time>2026-04-04T08:08:47.784Z</time></trkpt><trkpt lat="44.3257968" lon="11.4788548"><ele>281.0</ele><time>2026-04-04T08:08:48.785Z</time></trkpt><trkpt lat="44.3258392" lon="11.4789557"><ele>278.0</ele><time>2026-04-04T08:08:49.786Z</time></trkpt><trkpt lat="44.3258902" lon="11.4790517"><ele>275.0</ele><time>2026-04-04T08:08:50.787Z</time></trkpt><trkpt lat="44.3259475" lon="11.479145"><ele>272.0</ele><time>2026-04-04T08:08:51.79Z</time></trkpt><trkpt lat="44.32601" lon="11.4792342"><ele>269.0</ele><time>2026-04-04T08:08:52.787Z</time></trkpt><trkpt lat="44.3260777" lon="11.4793163"><ele>266.0</ele><time>2026-04-04T08:08:53.785Z</time></trkpt><trkpt lat="44.3261522" lon="11.4793873"><ele>266.0</ele><time>2026-04-04T08:08:54.783Z</time></trkpt><trkpt lat="44.3262257" lon="11.4794443"><ele>266.0</ele><time>2026-04-04T08:08:55.785Z</time></trkpt><trkpt lat="44.3262822" lon="11.4794888"><ele>266.0</ele><time>2026-04-04T08:08:56.786Z</time></trkpt><trkpt lat="44.3263193" lon="11.4795833"><ele>266.0</ele><time>2026-04-04T08:08:58.785Z</time></trkpt><trkpt lat="44.3262497" lon="11.4796385"><ele>266.0</ele><time>2026-04-04T08:09:00.789Z</time></trkpt><trkpt lat="44.3261802" lon="11.4796222"><ele>266.0</ele><time>2026-04-04T08:09:01.788Z</time></trkpt><trkpt lat="44.3260968" lon="11.4795895"><ele>266.0</ele><time>2026-04-04T08:09:02.787Z</time></trkpt><trkpt lat="44.3260058" lon="11.479556"><ele>266.0</ele><time>2026-04-04T08:09:03.786Z</time></trkpt><trkpt lat="44.3259017" lon="11.4795318"><ele>266.0</ele><time>2026-04-04T08:09:04.785Z</time></trkpt><trkpt lat="44.3257965" lon="11.4795237"><ele>266.0</ele><time>2026-04-04T08:09:05.784Z</time></trkpt><trkpt lat="44.3256925" lon="11.4795322"><ele>266.0</ele><time>2026-04-04T08:09:06.787Z</time></trkpt><trkpt lat="44.3255897" lon="11.4795497"><ele>263.40000000000003</ele><time>2026-04-04T08:09:07.788Z</time></trkpt><trkpt lat="44.3254857" lon="11.4795637"><ele>260.8</ele><time>2026-04-04T08:09:08.788Z</time></trkpt><trkpt lat="44.3253787" lon="11.4795643"><ele>258.20000000000005</ele><time>2026-04-04T08:09:09.786Z</time></trkpt><trkpt lat="44.3252697" lon="11.4795528"><ele>255.60000000000002</ele><time>2026-04-04T08:09:10.786Z</time></trkpt><trkpt lat="44.3251578" lon="11.479536"><ele>253.0</ele><time>2026-04-04T08:09:11.786Z</time></trkpt><trkpt lat="44.325041" lon="11.4795152"><ele>253.0</ele><time>2026-04-04T08:09:12.788Z</time></trkpt><trkpt lat="44.3249228" lon="11.4794993"><ele>253.0</ele><time>2026-04-04T08:09:13.787Z</time></trkpt><trkpt lat="44.3248062" lon="11.4794912"><ele>253.0</ele><time>2026-04-04T08:09:14.786Z</time></trkpt><trkpt lat="44.3247" lon="11.4794915"><ele>253.0</ele><time>2026-04-04T08:09:15.785Z</time></trkpt><trkpt lat="44.3246065" lon="11.4795152"><ele>253.0</ele><time>2026-04-04T08:09:16.787Z</time></trkpt><trkpt lat="44.324526" lon="11.4795705"><ele>247.4</ele><time>2026-04-04T08:09:17.784Z</time></trkpt><trkpt lat="44.3244615" lon="11.4796627"><ele>241.8</ele><time>2026-04-04T08:09:18.785Z</time></trkpt><trkpt lat="44.3244088" lon="11.4797817"><ele>236.2</ele><time>2026-04-04T08:09:19.78Z</time></trkpt><trkpt lat="44.3243518" lon="11.4799073"><ele>230.6</ele><time>2026-04-04T08:09:20.781Z</time></trkpt><trkpt lat="44.3242818" lon="11.4800365"><ele>225.0</ele><time>2026-04-04T08:09:21.783Z</time></trkpt><trkpt lat="44.3242202" lon="11.4801775"><ele>225.0</ele><time>2026-04-04T08:09:22.785Z</time></trkpt><trkpt lat="44.3241757" lon="11.480326"><ele>225.0</ele><time>2026-04-04T08:09:23.786Z</time></trkpt><trkpt lat="44.3241528" lon="11.4804815"><ele>225.0</ele><time>2026-04-04T08:09:24.786Z</time></trkpt><trkpt lat="44.3241382" lon="11.4806342"><ele>225.0</ele><time>2026-04-04T08:09:25.787Z</time></trkpt><trkpt lat="44.3241185" lon="11.4807842"><ele>225.0</ele><time>2026-04-04T08:09:26.784Z</time></trkpt><trkpt lat="44.3241015" lon="11.4809262"><ele>222.33333333333334</ele><time>2026-04-04T08:09:27.787Z</time></trkpt><trkpt lat="44.3241048" lon="11.4810503"><ele>219.66666666666669</ele><time>2026-04-04T08:09:28.786Z</time></trkpt><trkpt lat="44.3241315" lon="11.4811607"><ele>217.0</ele><time>2026-04-04T08:09:29.785Z</time></trkpt><trkpt lat="44.3241633" lon="11.4812672"><ele>214.33333333333334</ele><time>2026-04-04T08:09:30.786Z</time></trkpt><trkpt lat="44.3241873" lon="11.4813775"><ele>211.66666666666669</ele><time>2026-04-04T08:09:31.787Z</time></trkpt><trkpt lat="44.3242058" lon="11.4814975"><ele>209.0</ele><time>2026-04-04T08:09:32.785Z</time></trkpt><trkpt lat="44.3242242" lon="11.4816218"><ele>207.39999999999998</ele><time>2026-04-04T08:09:33.784Z</time></trkpt><trkpt lat="44.324245" lon="11.4817462"><ele>205.8</ele><time>2026-04-04T08:09:34.786Z</time></trkpt><trkpt lat="44.324271" lon="11.4818695"><ele>204.2</ele><time>2026-04-04T08:09:35.784Z</time></trkpt><trkpt lat="44.3243025" lon="11.4819915"><ele>202.60000000000002</ele><time>2026-04-04T08:09:36.784Z</time></trkpt><trkpt lat="44.3243437" lon="11.4821115"><ele>201.0</ele><time>2026-04-04T08:09:37.783Z</time></trkpt><trkpt lat="44.3243965" lon="11.482225"><ele>200.0</ele><time>2026-04-04T08:09:38.783Z</time></trkpt><trkpt lat="44.3244572" lon="11.4823377"><ele>199.0</ele><time>2026-04-04T08:09:39.793Z</time></trkpt><trkpt lat="44.3245235" lon="11.4824527"><ele>198.0</ele><time>2026-04-04T08:09:40.785Z</time></trkpt><trkpt lat="44.3245838" lon="11.4825715"><ele>197.0</ele><time>2026-04-04T08:09:41.787Z</time></trkpt><trkpt lat="44.3246248" lon="11.4826983"><ele>196.0</ele><time>2026-04-04T08:09:42.783Z</time></trkpt><trkpt lat="44.3246543" lon="11.4828303"><ele>194.83333333333331</ele><time>2026-04-04T08:09:43.782Z</time></trkpt><trkpt lat="44.3246845" lon="11.48296"><ele>193.66666666666666</ele><time>2026-04-04T08:09:44.783Z</time></trkpt><trkpt lat="44.3247098" lon="11.4830863"><ele>192.5</ele><time>2026-04-04T08:09:45.783Z</time></trkpt><trkpt lat="44.3247262" lon="11.4832028"><ele>191.33333333333331</ele><time>2026-04-04T08:09:46.785Z</time></trkpt><trkpt lat="44.3247372" lon="11.483308"><ele>190.16666666666666</ele><time>2026-04-04T08:09:47.782Z</time></trkpt><trkpt lat="44.3247477" lon="11.4833963"><ele>189.0</ele><time>2026-04-04T08:09:48.787Z</time></trkpt><trkpt lat="44.324716" lon="11.4835228"><ele>188.79999999999998</ele><time>2026-04-04T08:09:50.785Z</time></trkpt><trkpt lat="44.3246037" lon="11.4836228"><ele>188.6</ele><time>2026-04-04T08:09:52.792Z</time></trkpt><trkpt lat="44.3245215" lon="11.4836442"><ele>188.4</ele><time>2026-04-04T08:09:53.784Z</time></trkpt><trkpt lat="44.3244295" lon="11.4836452"><ele>188.2</ele><time>2026-04-04T08:09:54.787Z</time></trkpt><trkpt lat="44.3243378" lon="11.4836338"><ele>188.0</ele><time>2026-04-04T08:09:55.788Z</time></trkpt><trkpt lat="44.3242442" lon="11.4836247"><ele>188.0</ele><time>2026-04-04T08:09:56.784Z</time></trkpt><trkpt lat="44.3241558" lon="11.4836127"><ele>188.0</ele><time>2026-04-04T08:09:57.785Z</time></trkpt><trkpt lat="44.324068" lon="11.4836032"><ele>188.0</ele><time>2026-04-04T08:09:58.785Z</time></trkpt><trkpt lat="44.3239792" lon="11.4836032"><ele>188.0</ele><time>2026-04-04T08:09:59.785Z</time></trkpt><trkpt lat="44.323889" lon="11.4836025"><ele>188.0</ele><time>2026-04-04T08:10:00.783Z</time></trkpt><trkpt lat="44.3237918" lon="11.483597"><ele>187.60000000000002</ele><time>2026-04-04T08:10:01.788Z</time></trkpt><trkpt lat="44.3236888" lon="11.4835903"><ele>187.20000000000002</ele><time>2026-04-04T08:10:02.785Z</time></trkpt><trkpt lat="44.3235828" lon="11.4835788"><ele>186.8</ele><time>2026-04-04T08:10:03.785Z</time></trkpt><trkpt lat="44.3234798" lon="11.4835607"><ele>186.4</ele><time>2026-04-04T08:10:04.785Z</time></trkpt><trkpt lat="44.3233807" lon="11.4835387"><ele>186.0</ele><time>2026-04-04T08:10:05.782Z</time></trkpt><trkpt lat="44.3232842" lon="11.4835188"><ele>186.0</ele><time>2026-04-04T08:10:06.781Z</time></trkpt><trkpt lat="44.323184" lon="11.483508"><ele>186.0</ele><time>2026-04-04T08:10:07.787Z</time></trkpt><trkpt lat="44.3230797" lon="11.483517"><ele>186.0</ele><time>2026-04-04T08:10:08.784Z</time></trkpt><trkpt lat="44.3229728" lon="11.4835445"><ele>186.0</ele><time>2026-04-04T08:10:09.784Z</time></trkpt><trkpt lat="44.3228715" lon="11.4835798"><ele>186.0</ele><time>2026-04-04T08:10:10.784Z</time></trkpt><trkpt lat="44.3227737" lon="11.4836118"><ele>186.0</ele><time>2026-04-04T08:10:11.782Z</time></trkpt><trkpt lat="44.3226802" lon="11.4836383"><ele>186.0</ele><time>2026-04-04T08:10:12.784Z</time></trkpt><trkpt lat="44.3225848" lon="11.4836708"><ele>186.0</ele><time>2026-04-04T08:10:13.784Z</time></trkpt><trkpt lat="44.3224943" lon="11.4837243"><ele>186.0</ele><time>2026-04-04T08:10:14.785Z</time></trkpt><trkpt lat="44.322419" lon="11.4838082"><ele>186.0</ele><time>2026-04-04T08:10:15.785Z</time></trkpt><trkpt lat="44.3223652" lon="11.4839138"><ele>185.20000000000002</ele><time>2026-04-04T08:10:16.784Z</time></trkpt><trkpt lat="44.3223257" lon="11.4840273"><ele>184.4</ele><time>2026-04-04T08:10:17.785Z</time></trkpt><trkpt lat="44.3222872" lon="11.4841427"><ele>183.6</ele><time>2026-04-04T08:10:18.787Z</time></trkpt><trkpt lat="44.3222433" lon="11.4842633"><ele>182.8</ele><time>2026-04-04T08:10:19.786Z</time></trkpt><trkpt lat="44.3221913" lon="11.484378"><ele>182.0</ele><time>2026-04-04T08:10:20.785Z</time></trkpt><trkpt lat="44.3221282" lon="11.484481"><ele>181.6</ele><time>2026-04-04T08:10:21.783Z</time></trkpt><trkpt lat="44.3220552" lon="11.4845753"><ele>181.2</ele><time>2026-04-04T08:10:22.784Z</time></trkpt><trkpt lat="44.3219742" lon="11.484661"><ele>180.8</ele><time>2026-04-04T08:10:23.789Z</time></trkpt><trkpt lat="44.3218898" lon="11.4847438"><ele>180.4</ele><time>2026-04-04T08:10:24.787Z</time></trkpt><trkpt lat="44.321805" lon="11.484831"><ele>180.0</ele><time>2026-04-04T08:10:25.786Z</time></trkpt><trkpt lat="44.3217228" lon="11.4849188"><ele>180.0</ele><time>2026-04-04T08:10:26.785Z</time></trkpt><trkpt lat="44.3216433" lon="11.4850002"><ele>180.0</ele><time>2026-04-04T08:10:27.788Z</time></trkpt><trkpt lat="44.3215633" lon="11.4850842"><ele>180.0</ele><time>2026-04-04T08:10:28.785Z</time></trkpt><trkpt lat="44.3214848" lon="11.4851697"><ele>180.0</ele><time>2026-04-04T08:10:29.785Z</time></trkpt><trkpt lat="44.3214165" lon="11.4852383"><ele>180.0</ele><time>2026-04-04T08:10:30.783Z</time></trkpt><trkpt lat="44.3213608" lon="11.4852872"><ele>180.0</ele><time>2026-04-04T08:10:31.781Z</time></trkpt><trkpt lat="44.3212495" lon="11.4853582"><ele>179.16666666666666</ele><time>2026-04-04T08:10:33.781Z</time></trkpt><trkpt lat="44.3211808" lon="11.4853783"><ele>178.33333333333334</ele><time>2026-04-04T08:10:34.783Z</time></trkpt><trkpt lat="44.3211038" lon="11.48539"><ele>177.5</ele><time>2026-04-04T08:10:35.793Z</time></trkpt><trkpt lat="44.3210257" lon="11.4853968"><ele>176.66666666666669</ele><time>2026-04-04T08:10:36.787Z</time></trkpt><trkpt lat="44.3209493" lon="11.4853987"><ele>175.83333333333334</ele><time>2026-04-04T08:10:37.787Z</time></trkpt><trkpt lat="44.3208738" lon="11.4853883"><ele>175.0</ele><time>2026-04-04T08:10:38.786Z</time></trkpt><trkpt lat="44.3208035" lon="11.4853557"><ele>175.0</ele><time>2026-04-04T08:10:39.783Z</time></trkpt><trkpt lat="44.3207445" lon="11.4852973"><ele>175.0</ele><time>2026-04-04T08:10:40.786Z</time></trkpt><trkpt lat="44.3206992" lon="11.4852255"><ele>175.0</ele><time>2026-04-04T08:10:41.785Z</time></trkpt><trkpt lat="44.3206475" lon="11.4851555"><ele>175.0</ele><time>2026-04-04T08:10:42.786Z</time></trkpt><trkpt lat="44.3205815" lon="11.4850998"><ele>175.0</ele><time>2026-04-04T08:10:43.786Z</time></trkpt><trkpt lat="44.3205118" lon="11.4850605"><ele>175.0</ele><time>2026-04-04T08:10:44.784Z</time></trkpt><trkpt lat="44.3204465" lon="11.4850363"><ele>175.0</ele><time>2026-04-04T08:10:45.785Z</time></trkpt><trkpt lat="44.3203422" lon="11.4850115"><ele>174.66666666666669</ele><time>2026-04-04T08:10:47.783Z</time></trkpt><trkpt lat="44.32026" lon="11.4850183"><ele>174.33333333333334</ele><time>2026-04-04T08:10:50.788Z</time></trkpt><trkpt lat="44.3202327" lon="11.485112"><ele>174.0</ele><time>2026-04-04T08:10:53.785Z</time></trkpt><trkpt lat="44.3201747" lon="11.4851678"><ele>173.66666666666666</ele><time>2026-04-04T08:10:55.787Z</time></trkpt><trkpt lat="44.3200518" lon="11.4851747"><ele>173.33333333333331</ele><time>2026-04-04T08:10:57.785Z</time></trkpt><trkpt lat="44.3199797" lon="11.4851805"><ele>173.0</ele><time>2026-04-04T08:10:58.785Z</time></trkpt><trkpt lat="44.319903" lon="11.4851923"><ele>173.0</ele><time>2026-04-04T08:10:59.785Z</time></trkpt><trkpt lat="44.3198203" lon="11.4852123"><ele>173.0</ele><time>2026-04-04T08:11:00.792Z</time></trkpt><trkpt lat="44.3197363" lon="11.485235"><ele>173.0</ele><time>2026-04-04T08:11:01.787Z</time></trkpt><trkpt lat="44.3196532" lon="11.485259"><ele>173.0</ele><time>2026-04-04T08:11:02.784Z</time></trkpt><trkpt lat="44.319568" lon="11.485283"><ele>173.0</ele><time>2026-04-04T08:11:03.787Z</time></trkpt><trkpt lat="44.3194828" lon="11.4853058"><ele>173.0</ele><time>2026-04-04T08:11:04.786Z</time></trkpt><trkpt lat="44.3193938" lon="11.4853287"><ele>172.60000000000002</ele><time>2026-04-04T08:11:05.786Z</time></trkpt><trkpt lat="44.3193007" lon="11.4853478"><ele>172.20000000000002</ele><time>2026-04-04T08:11:06.784Z</time></trkpt><trkpt lat="44.3192048" lon="11.4853597"><ele>171.8</ele><time>2026-04-04T08:11:07.785Z</time></trkpt><trkpt lat="44.3191088" lon="11.4853643"><ele>171.4</ele><time>2026-04-04T08:11:08.784Z</time></trkpt><trkpt lat="44.3190103" lon="11.485365"><ele>171.0</ele><time>2026-04-04T08:11:09.787Z</time></trkpt><trkpt lat="44.3189117" lon="11.4853663"><ele>170.60000000000002</ele><time>2026-04-04T08:11:10.786Z</time></trkpt><trkpt lat="44.3188148" lon="11.4853722"><ele>170.2</ele><time>2026-04-04T08:11:11.788Z</time></trkpt><trkpt lat="44.3187175" lon="11.4853873"><ele>169.8</ele><time>2026-04-04T08:11:12.787Z</time></trkpt><trkpt lat="44.31862" lon="11.4854088"><ele>169.39999999999998</ele><time>2026-04-04T08:11:13.787Z</time></trkpt><trkpt lat="44.318522" lon="11.4854302"><ele>169.0</ele><time>2026-04-04T08:11:14.786Z</time></trkpt><trkpt lat="44.3184225" lon="11.4854512"><ele>169.0</ele><time>2026-04-04T08:11:15.785Z</time></trkpt><trkpt lat="44.3183258" lon="11.4854743"><ele>169.0</ele><time>2026-04-04T08:11:16.791Z</time></trkpt><trkpt lat="44.3182325" lon="11.485497"><ele>169.0</ele><time>2026-04-04T08:11:17.785Z</time></trkpt><trkpt lat="44.3181427" lon="11.4855168"><ele>169.0</ele><time>2026-04-04T08:11:18.789Z</time></trkpt><trkpt lat="44.3180562" lon="11.4855392"><ele>169.0</ele><time>2026-04-04T08:11:19.788Z</time></trkpt><trkpt lat="44.317979" lon="11.4855615"><ele>168.83333333333334</ele><time>2026-04-04T08:11:20.785Z</time></trkpt><trkpt lat="44.3179088" lon="11.4855835"><ele>168.66666666666669</ele><time>2026-04-04T08:11:21.783Z</time></trkpt><trkpt lat="44.317797" lon="11.4855808"><ele>168.5</ele><time>2026-04-04T08:11:23.787Z</time></trkpt><trkpt lat="44.3177578" lon="11.4854585"><ele>168.33333333333334</ele><time>2026-04-04T08:11:25.789Z</time></trkpt><trkpt lat="44.3177528" lon="11.485368"><ele>168.16666666666666</ele><time>2026-04-04T08:11:26.789Z</time></trkpt><trkpt lat="44.3177603" lon="11.4852635"><ele>168.0</ele><time>2026-04-04T08:11:27.791Z</time></trkpt><trkpt lat="44.3177698" lon="11.4851623"><ele>167.8</ele><time>2026-04-04T08:11:28.787Z</time></trkpt><trkpt lat="44.3177182" lon="11.485036"><ele>167.60000000000002</ele><time>2026-04-04T08:11:30.784Z</time></trkpt><trkpt lat="44.3176177" lon="11.4849697"><ele>167.39999999999998</ele><time>2026-04-04T08:11:32.785Z</time></trkpt><trkpt lat="44.3175497" lon="11.4848253"><ele>167.2</ele><time>2026-04-04T08:11:34.783Z</time></trkpt><trkpt lat="44.3175392" lon="11.4847382"><ele>167.0</ele><time>2026-04-04T08:11:35.787Z</time></trkpt><trkpt lat="44.3175215" lon="11.4845963"><ele>166.8</ele><time>2026-04-04T08:11:37.787Z</time></trkpt><trkpt lat="44.3174998" lon="11.4844792"><ele>166.6</ele><time>2026-04-04T08:11:39.784Z</time></trkpt><trkpt lat="44.3174573" lon="11.4843633"><ele>166.4</ele><time>2026-04-04T08:11:41.784Z</time></trkpt><trkpt lat="44.3173883" lon="11.4842553"><ele>166.20000000000002</ele><time>2026-04-04T08:11:43.784Z</time></trkpt><trkpt lat="44.3173277" lon="11.4841588"><ele>166.0</ele><time>2026-04-04T08:11:45.786Z</time></trkpt><trkpt lat="44.3172973" lon="11.4840162"><ele>166.0</ele><time>2026-04-04T08:11:47.784Z</time></trkpt><trkpt lat="44.3172492" lon="11.483914"><ele>166.0</ele><time>2026-04-04T08:11:49.787Z</time></trkpt><trkpt lat="44.317179" lon="11.4839065"><ele>166.0</ele><time>2026-04-04T08:11:51.787Z</time></trkpt><trkpt lat="44.3171518" lon="11.4839988"><ele>166.0</ele><time>2026-04-04T08:11:53.786Z</time></trkpt><trkpt lat="44.3171477" lon="11.4841712"><ele>166.0</ele><time>2026-04-04T08:11:55.787Z</time></trkpt><trkpt lat="44.3171457" lon="11.4842652"><ele>166.0</ele><time>2026-04-04T08:11:56.787Z</time></trkpt><trkpt lat="44.3171433" lon="11.484356"><ele>166.0</ele><time>2026-04-04T08:11:57.787Z</time></trkpt><trkpt lat="44.3171422" lon="11.4845193"><ele>166.0</ele><time>2026-04-04T08:11:59.786Z</time></trkpt><trkpt lat="44.3171295" lon="11.4846485"><ele>166.0</ele><time>2026-04-04T08:12:01.786Z</time></trkpt><trkpt lat="44.3171023" lon="11.4847347"><ele>166.0</ele><time>2026-04-04T08:12:03.787Z</time></trkpt><trkpt lat="44.3170498" lon="11.4847905"><ele>166.0</ele><time>2026-04-04T08:12:06.785Z</time></trkpt><trkpt lat="44.3169878" lon="11.4847295"><ele>166.0</ele><time>2026-04-04T08:13:24.789Z</time></trkpt><trkpt lat="44.3169202" lon="11.4846787"><ele>166.0</ele><time>2026-04-04T08:13:26.79Z</time></trkpt><trkpt lat="44.3168617" lon="11.4846225"><ele>166.0</ele><time>2026-04-04T08:13:28.791Z</time></trkpt><trkpt lat="44.3168222" lon="11.4845188"><ele>166.0</ele><time>2026-04-04T08:13:30.791Z</time></trkpt><trkpt lat="44.3167942" lon="11.4844077"><ele>166.0</ele><time>2026-04-04T08:13:32.787Z</time></trkpt><trkpt lat="44.3167692" lon="11.4842803"><ele>166.0</ele><time>2026-04-04T08:13:34.787Z</time></trkpt><trkpt lat="44.3167377" lon="11.4841312"><ele>166.0</ele><time>2026-04-04T08:13:36.789Z</time></trkpt><trkpt lat="44.3166987" lon="11.4839885"><ele>165.83333333333334</ele><time>2026-04-04T08:13:38.788Z</time></trkpt><trkpt lat="44.3166597" lon="11.4838575"><ele>165.66666666666669</ele><time>2026-04-04T08:13:40.788Z</time></trkpt><trkpt lat="44.3166355" lon="11.483766"><ele>165.5</ele><time>2026-04-04T08:13:42.79Z</time></trkpt><trkpt lat="44.3166025" lon="11.4836708"><ele>165.33333333333334</ele><time>2026-04-04T08:14:05.788Z</time></trkpt><trkpt lat="44.3165763" lon="11.4835718"><ele>165.16666666666666</ele><time>2026-04-04T08:14:07.788Z</time></trkpt><trkpt lat="44.316583" lon="11.4834647"><ele>165.0</ele><time>2026-04-04T08:14:09.788Z</time></trkpt><trkpt lat="44.316632" lon="11.4833393"><ele>165.0</ele><time>2026-04-04T08:14:11.786Z</time></trkpt><trkpt lat="44.3166618" lon="11.4832042"><ele>165.0</ele><time>2026-04-04T08:14:13.785Z</time></trkpt><trkpt lat="44.3166687" lon="11.4831148"><ele>165.0</ele><time>2026-04-04T08:14:14.784Z</time></trkpt><trkpt lat="44.316692" lon="11.4829715"><ele>165.0</ele><time>2026-04-04T08:14:16.789Z</time></trkpt><trkpt lat="44.316731" lon="11.4828712"><ele>165.0</ele><time>2026-04-04T08:14:18.79Z</time></trkpt><trkpt lat="44.3167665" lon="11.4827765"><ele>165.0</ele><time>2026-04-04T08:14:20.788Z</time></trkpt><trkpt lat="44.316802" lon="11.4826733"><ele>165.0</ele><time>2026-04-04T08:14:22.791Z</time></trkpt><trkpt lat="44.3168367" lon="11.4825855"><ele>165.0</ele><time>2026-04-04T08:14:24.785Z</time></trkpt><trkpt lat="44.3168547" lon="11.4824742"><ele>165.0</ele><time>2026-04-04T08:14:26.788Z</time></trkpt><trkpt lat="44.3168735" lon="11.482345"><ele>165.0</ele><time>2026-04-04T08:14:28.789Z</time></trkpt><trkpt lat="44.3168863" lon="11.4822062"><ele>165.0</ele><time>2026-04-04T08:14:30.787Z</time></trkpt><trkpt lat="44.3169" lon="11.4820583"><ele>165.25</ele><time>2026-04-04T08:14:32.789Z</time></trkpt><trkpt lat="44.316887" lon="11.481907"><ele>165.5</ele><time>2026-04-04T08:14:34.79Z</time></trkpt><trkpt lat="44.316851" lon="11.4817428"><ele>165.75</ele><time>2026-04-04T08:14:36.786Z</time></trkpt><trkpt lat="44.3168017" lon="11.481591"><ele>166.0</ele><time>2026-04-04T08:14:38.788Z</time></trkpt><trkpt lat="44.316751" lon="11.4814662"><ele>166.0</ele><time>2026-04-04T08:14:40.787Z</time></trkpt><trkpt lat="44.3167405" lon="11.481354"><ele>166.0</ele><time>2026-04-04T08:14:42.79Z</time></trkpt><trkpt lat="44.316713" lon="11.4812375"><ele>166.0</ele><time>2026-04-04T08:14:44.794Z</time></trkpt><trkpt lat="44.3166698" lon="11.4811077"><ele>166.0</ele><time>2026-04-04T08:14:46.79Z</time></trkpt><trkpt lat="44.3166072" lon="11.4809857"><ele>166.0</ele><time>2026-04-04T08:14:48.79Z</time></trkpt><trkpt lat="44.3165563" lon="11.4808542"><ele>166.16666666666669</ele><time>2026-04-04T08:14:50.789Z</time></trkpt><trkpt lat="44.3165165" lon="11.4806902"><ele>166.33333333333334</ele><time>2026-04-04T08:14:52.79Z</time></trkpt><trkpt lat="44.316495" lon="11.480603"><ele>166.5</ele><time>2026-04-04T08:14:53.789Z</time></trkpt><trkpt lat="44.3164743" lon="11.4805133"><ele>166.66666666666666</ele><time>2026-04-04T08:14:54.786Z</time></trkpt><trkpt lat="44.3164567" lon="11.4804283"><ele>166.83333333333331</ele><time>2026-04-04T08:14:55.79Z</time></trkpt><trkpt lat="44.3164235" lon="11.4802638"><ele>167.0</ele><time>2026-04-04T08:14:57.788Z</time></trkpt><trkpt lat="44.3164127" lon="11.4800907"><ele>167.16666666666666</ele><time>2026-04-04T08:14:59.785Z</time></trkpt><trkpt lat="44.3164105" lon="11.4799972"><ele>167.33333333333331</ele><time>2026-04-04T08:15:00.789Z</time></trkpt><trkpt lat="44.3164093" lon="11.4799"><ele>167.5</ele><time>2026-04-04T08:15:01.786Z</time></trkpt><trkpt lat="44.3164063" lon="11.4798027"><ele>167.66666666666666</ele><time>2026-04-04T08:15:02.786Z</time></trkpt><trkpt lat="44.3164002" lon="11.479712"><ele>167.83333333333334</ele><time>2026-04-04T08:15:03.786Z</time></trkpt><trkpt lat="44.316369" lon="11.4795613"><ele>168.0</ele><time>2026-04-04T08:15:05.787Z</time></trkpt><trkpt lat="44.3162745" lon="11.4794378"><ele>168.0</ele><time>2026-04-04T08:15:07.788Z</time></trkpt><trkpt lat="44.3162143" lon="11.4793607"><ele>168.0</ele><time>2026-04-04T08:15:08.787Z</time></trkpt><trkpt lat="44.3161468" lon="11.4792733"><ele>168.0</ele><time>2026-04-04T08:15:09.786Z</time></trkpt><trkpt lat="44.3160765" lon="11.4791797"><ele>168.0</ele><time>2026-04-04T08:15:10.785Z</time></trkpt><trkpt lat="44.3160137" lon="11.4790813"><ele>168.0</ele><time>2026-04-04T08:15:11.788Z</time></trkpt><trkpt lat="44.3159572" lon="11.4789617"><ele>168.0</ele><time>2026-04-04T08:15:12.79Z</time></trkpt><trkpt lat="44.3159063" lon="11.4788395"><ele>168.0</ele><time>2026-04-04T08:15:13.786Z</time></trkpt><trkpt lat="44.3158507" lon="11.4787317"><ele>168.0</ele><time>2026-04-04T08:15:14.788Z</time></trkpt><trkpt lat="44.315798" lon="11.4786288"><ele>168.0</ele><time>2026-04-04T08:15:15.789Z</time></trkpt><trkpt lat="44.315765" lon="11.4785203"><ele>168.0</ele><time>2026-04-04T08:15:16.789Z</time></trkpt><trkpt lat="44.3157415" lon="11.4783943"><ele>168.75</ele><time>2026-04-04T08:15:17.787Z</time></trkpt><trkpt lat="44.315721" lon="11.4782522"><ele>169.5</ele><time>2026-04-04T08:15:18.789Z</time></trkpt><trkpt lat="44.3156993" lon="11.4780953"><ele>170.25</ele><time>2026-04-04T08:15:19.789Z</time></trkpt><trkpt lat="44.3156685" lon="11.4779305"><ele>171.0</ele><time>2026-04-04T08:15:20.789Z</time></trkpt><trkpt lat="44.315626" lon="11.4777668"><ele>171.0</ele><time>2026-04-04T08:15:21.787Z</time></trkpt><trkpt lat="44.3155683" lon="11.4775983"><ele>171.0</ele><time>2026-04-04T08:15:22.789Z</time></trkpt><trkpt lat="44.3155025" lon="11.4774148"><ele>171.0</ele><time>2026-04-04T08:15:23.789Z</time></trkpt><trkpt lat="44.3154433" lon="11.4772395"><ele>171.0</ele><time>2026-04-04T08:15:24.787Z</time></trkpt><trkpt lat="44.3153957" lon="11.4770655"><ele>171.0</ele><time>2026-04-04T08:15:25.784Z</time></trkpt><trkpt lat="44.3153592" lon="11.476892"><ele>171.0</ele><time>2026-04-04T08:15:26.786Z</time></trkpt><trkpt lat="44.3153265" lon="11.4767345"><ele>171.0</ele><time>2026-04-04T08:15:27.786Z</time></trkpt><trkpt lat="44.3152878" lon="11.476587"><ele>171.0</ele><time>2026-04-04T08:15:28.788Z</time></trkpt><trkpt lat="44.3152475" lon="11.4764578"><ele>171.0</ele><time>2026-04-04T08:15:29.787Z</time></trkpt><trkpt lat="44.3152063" lon="11.4763483"><ele>171.0</ele><time>2026-04-04T08:15:30.787Z</time></trkpt><trkpt lat="44.3151648" lon="11.476257"><ele>171.0</ele><time>2026-04-04T08:15:31.787Z</time></trkpt><trkpt lat="44.3151208" lon="11.476184"><ele>171.0</ele><time>2026-04-04T08:15:32.789Z</time></trkpt><trkpt lat="44.315034" lon="11.4760705"><ele>171.0</ele><time>2026-04-04T08:15:34.789Z</time></trkpt><trkpt lat="44.3149512" lon="11.475984"><ele>171.4</ele><time>2026-04-04T08:15:36.789Z</time></trkpt><trkpt lat="44.3149117" lon="11.4758775"><ele>171.8</ele><time>2026-04-04T08:15:38.787Z</time></trkpt><trkpt lat="44.314897" lon="11.4757437"><ele>172.20000000000002</ele><time>2026-04-04T08:15:40.786Z</time></trkpt><trkpt lat="44.3148835" lon="11.4755843"><ele>172.60000000000002</ele><time>2026-04-04T08:15:42.787Z</time></trkpt><trkpt lat="44.314861" lon="11.4754388"><ele>173.0</ele><time>2026-04-04T08:15:44.789Z</time></trkpt><trkpt lat="44.3148515" lon="11.4753045"><ele>173.66666666666666</ele><time>2026-04-04T08:15:46.788Z</time></trkpt><trkpt lat="44.3148325" lon="11.4751873"><ele>174.33333333333331</ele><time>2026-04-04T08:15:48.788Z</time></trkpt><trkpt lat="44.3147852" lon="11.4750587"><ele>175.0</ele><time>2026-04-04T08:15:50.786Z</time></trkpt><trkpt lat="44.3147393" lon="11.4749495"><ele>175.66666666666666</ele><time>2026-04-04T08:15:52.784Z</time></trkpt><trkpt lat="44.3146732" lon="11.4748772"><ele>176.33333333333334</ele><time>2026-04-04T08:15:54.79Z</time></trkpt><trkpt lat="44.314607" lon="11.474804"><ele>177.0</ele><time>2026-04-04T08:15:56.787Z</time></trkpt><trkpt lat="44.3145587" lon="11.4747095"><ele>177.2</ele><time>2026-04-04T08:15:58.789Z</time></trkpt><trkpt lat="44.3145507" lon="11.4745955"><ele>177.39999999999998</ele><time>2026-04-04T08:16:00.786Z</time></trkpt><trkpt lat="44.3145578" lon="11.4744772"><ele>177.60000000000002</ele><time>2026-04-04T08:16:02.787Z</time></trkpt><trkpt lat="44.3145605" lon="11.474348"><ele>177.8</ele><time>2026-04-04T08:16:04.791Z</time></trkpt><trkpt lat="44.3145572" lon="11.4741948"><ele>178.0</ele><time>2026-04-04T08:16:06.788Z</time></trkpt><trkpt lat="44.3145542" lon="11.4740443"><ele>178.0</ele><time>2026-04-04T08:16:08.787Z</time></trkpt><trkpt lat="44.314544" lon="11.4738988"><ele>178.0</ele><time>2026-04-04T08:16:10.786Z</time></trkpt><trkpt lat="44.31453" lon="11.4737658"><ele>178.0</ele><time>2026-04-04T08:16:12.79Z</time></trkpt><trkpt lat="44.3144777" lon="11.4736448"><ele>178.0</ele><time>2026-04-04T08:16:14.786Z</time></trkpt><trkpt lat="44.3144243" lon="11.4735095"><ele>178.0</ele><time>2026-04-04T08:16:16.785Z</time></trkpt><trkpt lat="44.3143833" lon="11.473335"><ele>177.8</ele><time>2026-04-04T08:16:18.789Z</time></trkpt><trkpt lat="44.3143682" lon="11.4732207"><ele>177.60000000000002</ele><time>2026-04-04T08:16:19.79Z</time></trkpt><trkpt lat="44.3143485" lon="11.4730945"><ele>177.39999999999998</ele><time>2026-04-04T08:16:20.786Z</time></trkpt><trkpt lat="44.3143207" lon="11.472958"><ele>177.2</ele><time>2026-04-04T08:16:21.789Z</time></trkpt><trkpt lat="44.314286" lon="11.4728285"><ele>177.0</ele><time>2026-04-04T08:16:22.788Z</time></trkpt><trkpt lat="44.3142557" lon="11.4727107"><ele>176.8</ele><time>2026-04-04T08:16:23.789Z</time></trkpt><trkpt lat="44.3142302" lon="11.4726027"><ele>176.6</ele><time>2026-04-04T08:16:24.787Z</time></trkpt><trkpt lat="44.3142095" lon="11.4725022"><ele>176.4</ele><time>2026-04-04T08:16:25.788Z</time></trkpt><trkpt lat="44.314193" lon="11.4724097"><ele>176.20000000000002</ele><time>2026-04-04T08:16:26.788Z</time></trkpt><trkpt lat="44.3141575" lon="11.4722472"><ele>176.0</ele><time>2026-04-04T08:16:28.786Z</time></trkpt><trkpt lat="44.314112" lon="11.4720973"><ele>176.0</ele><time>2026-04-04T08:16:30.788Z</time></trkpt><trkpt lat="44.3140493" lon="11.4719823"><ele>176.0</ele><time>2026-04-04T08:16:32.796Z</time></trkpt><trkpt lat="44.3139842" lon="11.4718752"><ele>176.0</ele><time>2026-04-04T08:16:34.789Z</time></trkpt><trkpt lat="44.3139265" lon="11.4717922"><ele>176.0</ele><time>2026-04-04T08:16:36.788Z</time></trkpt><trkpt lat="44.31388" lon="11.4717255"><ele>176.0</ele><time>2026-04-04T08:16:38.783Z</time></trkpt><trkpt lat="44.313851" lon="11.4715947"><ele>176.0</ele><time>2026-04-04T08:16:41.785Z</time></trkpt><trkpt lat="44.3138162" lon="11.4715132"><ele>176.0</ele><time>2026-04-04T08:16:43.788Z</time></trkpt><trkpt lat="44.3138137" lon="11.4713823"><ele>176.0</ele><time>2026-04-04T08:16:56.79Z</time></trkpt><trkpt lat="44.3138365" lon="11.4712678"><ele>176.0</ele><time>2026-04-04T08:16:58.789Z</time></trkpt><trkpt lat="44.3138142" lon="11.4711817"><ele>176.0</ele><time>2026-04-04T08:17:00.789Z</time></trkpt><trkpt lat="44.3137515" lon="11.4710977"><ele>176.0</ele><time>2026-04-04T08:17:02.786Z</time></trkpt><trkpt lat="44.3137012" lon="11.4709683"><ele>175.83333333333331</ele><time>2026-04-04T08:17:04.791Z</time></trkpt><trkpt lat="44.3136553" lon="11.4708948"><ele>175.66666666666666</ele><time>2026-04-04T08:17:05.787Z</time></trkpt><trkpt lat="44.313592" lon="11.4708163"><ele>175.5</ele><time>2026-04-04T08:17:06.789Z</time></trkpt><trkpt lat="44.3135257" lon="11.4707302"><ele>175.33333333333334</ele><time>2026-04-04T08:17:07.787Z</time></trkpt><trkpt lat="44.313459" lon="11.4706402"><ele>175.16666666666669</ele><time>2026-04-04T08:17:08.788Z</time></trkpt><trkpt lat="44.3133892" lon="11.4705458"><ele>175.0</ele><time>2026-04-04T08:17:09.787Z</time></trkpt><trkpt lat="44.3133175" lon="11.4704472"><ele>175.2</ele><time>2026-04-04T08:17:10.789Z</time></trkpt><trkpt lat="44.3132463" lon="11.470341"><ele>175.4</ele><time>2026-04-04T08:17:11.787Z</time></trkpt><trkpt lat="44.3131727" lon="11.470233"><ele>175.60000000000002</ele><time>2026-04-04T08:17:12.788Z</time></trkpt><trkpt lat="44.3130958" lon="11.470128"><ele>175.8</ele><time>2026-04-04T08:17:13.788Z</time></trkpt><trkpt lat="44.3130173" lon="11.4700242"><ele>176.0</ele><time>2026-04-04T08:17:14.788Z</time></trkpt><trkpt lat="44.3129377" lon="11.4699187"><ele>176.0</ele><time>2026-04-04T08:17:15.788Z</time></trkpt><trkpt lat="44.3128562" lon="11.46981"><ele>176.0</ele><time>2026-04-04T08:17:16.788Z</time></trkpt><trkpt lat="44.3127713" lon="11.4696997"><ele>176.0</ele><time>2026-04-04T08:17:17.787Z</time></trkpt><trkpt lat="44.3126843" lon="11.469588"><ele>176.0</ele><time>2026-04-04T08:17:18.787Z</time></trkpt><trkpt lat="44.312596" lon="11.4694725"><ele>176.25</ele><time>2026-04-04T08:17:19.786Z</time></trkpt><trkpt lat="44.312508" lon="11.4693508"><ele>176.5</ele><time>2026-04-04T08:17:20.785Z</time></trkpt><trkpt lat="44.3124198" lon="11.469225"><ele>176.75</ele><time>2026-04-04T08:17:21.786Z</time></trkpt><trkpt lat="44.31233" lon="11.4690978"><ele>177.0</ele><time>2026-04-04T08:17:22.789Z</time></trkpt><trkpt lat="44.31224" lon="11.46897"><ele>177.0</ele><time>2026-04-04T08:17:23.789Z</time></trkpt><trkpt lat="44.312152" lon="11.4688437"><ele>177.0</ele><time>2026-04-04T08:17:24.79Z</time></trkpt><trkpt lat="44.3120643" lon="11.4687203"><ele>177.0</ele><time>2026-04-04T08:17:25.788Z</time></trkpt><trkpt lat="44.3119767" lon="11.4685988"><ele>177.0</ele><time>2026-04-04T08:17:26.792Z</time></trkpt><trkpt lat="44.3118932" lon="11.4684742"><ele>177.5</ele><time>2026-04-04T08:17:27.788Z</time></trkpt><trkpt lat="44.3118147" lon="11.4683458"><ele>178.0</ele><time>2026-04-04T08:17:28.788Z</time></trkpt><trkpt lat="44.3117383" lon="11.4682155"><ele>178.5</ele><time>2026-04-04T08:17:29.785Z</time></trkpt><trkpt lat="44.3116613" lon="11.4680868"><ele>179.0</ele><time>2026-04-04T08:17:30.786Z</time></trkpt><trkpt lat="44.3115845" lon="11.4679573"><ele>179.0</ele><time>2026-04-04T08:17:31.786Z</time></trkpt><trkpt lat="44.31151" lon="11.4678247"><ele>179.0</ele><time>2026-04-04T08:17:32.789Z</time></trkpt><trkpt lat="44.3114375" lon="11.467688"><ele>179.0</ele><time>2026-04-04T08:17:33.789Z</time></trkpt><trkpt lat="44.3113673" lon="11.4675473"><ele>179.0</ele><time>2026-04-04T08:17:34.79Z</time></trkpt><trkpt lat="44.311298" lon="11.4674028"><ele>178.75</ele><time>2026-04-04T08:17:35.788Z</time></trkpt><trkpt lat="44.3112293" lon="11.467255"><ele>178.5</ele><time>2026-04-04T08:17:36.789Z</time></trkpt><trkpt lat="44.311159" lon="11.4671073"><ele>178.25</ele><time>2026-04-04T08:17:37.789Z</time></trkpt><trkpt lat="44.311085" lon="11.4669615"><ele>178.0</ele><time>2026-04-04T08:17:38.789Z</time></trkpt><trkpt lat="44.3110122" lon="11.4668138"><ele>178.0</ele><time>2026-04-04T08:17:39.79Z</time></trkpt><trkpt lat="44.3109427" lon="11.4666675"><ele>178.0</ele><time>2026-04-04T08:17:40.786Z</time></trkpt><trkpt lat="44.3108775" lon="11.4665215"><ele>178.0</ele><time>2026-04-04T08:17:41.785Z</time></trkpt><trkpt lat="44.3108165" lon="11.4663762"><ele>178.0</ele><time>2026-04-04T08:17:42.79Z</time></trkpt><trkpt lat="44.3107567" lon="11.4662317"><ele>178.0</ele><time>2026-04-04T08:17:43.79Z</time></trkpt><trkpt lat="44.3106923" lon="11.4660852"><ele>178.0</ele><time>2026-04-04T08:17:44.789Z</time></trkpt><trkpt lat="44.3106197" lon="11.4659398"><ele>178.0</ele><time>2026-04-04T08:17:45.788Z</time></trkpt><trkpt lat="44.3105407" lon="11.4658028"><ele>178.0</ele><time>2026-04-04T08:17:46.788Z</time></trkpt><trkpt lat="44.3104577" lon="11.4656713"><ele>178.5</ele><time>2026-04-04T08:17:47.787Z</time></trkpt><trkpt lat="44.3103718" lon="11.4655415"><ele>179.0</ele><time>2026-04-04T08:17:48.789Z</time></trkpt><trkpt lat="44.3102808" lon="11.4654163"><ele>179.5</ele><time>2026-04-04T08:17:49.789Z</time></trkpt><trkpt lat="44.3101818" lon="11.465298"><ele>180.0</ele><time>2026-04-04T08:17:50.786Z</time></trkpt><trkpt lat="44.3100808" lon="11.4651823"><ele>180.0</ele><time>2026-04-04T08:17:51.787Z</time></trkpt><trkpt lat="44.3099828" lon="11.4650628"><ele>180.0</ele><time>2026-04-04T08:17:52.785Z</time></trkpt><trkpt lat="44.30989" lon="11.4649358"><ele>180.0</ele><time>2026-04-04T08:17:53.785Z</time></trkpt><trkpt lat="44.309801" lon="11.464802"><ele>180.0</ele><time>2026-04-04T08:17:54.786Z</time></trkpt><trkpt lat="44.309714" lon="11.4646675"><ele>180.75</ele><time>2026-04-04T08:17:55.789Z</time></trkpt><trkpt lat="44.3096263" lon="11.4645335"><ele>181.5</ele><time>2026-04-04T08:17:56.789Z</time></trkpt><trkpt lat="44.3095385" lon="11.4644013"><ele>182.25</ele><time>2026-04-04T08:17:57.789Z</time></trkpt><trkpt lat="44.3094502" lon="11.4642763"><ele>183.0</ele><time>2026-04-04T08:17:58.789Z</time></trkpt><trkpt lat="44.3093627" lon="11.4641548"><ele>183.0</ele><time>2026-04-04T08:17:59.787Z</time></trkpt><trkpt lat="44.3092753" lon="11.4640375"><ele>183.0</ele><time>2026-04-04T08:18:00.791Z</time></trkpt><trkpt lat="44.3091883" lon="11.4639247"><ele>183.0</ele><time>2026-04-04T08:18:01.79Z</time></trkpt><trkpt lat="44.3091038" lon="11.4638093"><ele>183.0</ele><time>2026-04-04T08:18:02.79Z</time></trkpt><trkpt lat="44.3090243" lon="11.4636883"><ele>183.0</ele><time>2026-04-04T08:18:03.791Z</time></trkpt><trkpt lat="44.3089542" lon="11.4635662"><ele>183.0</ele><time>2026-04-04T08:18:04.787Z</time></trkpt><trkpt lat="44.308897" lon="11.4634375"><ele>183.0</ele><time>2026-04-04T08:18:05.787Z</time></trkpt><trkpt lat="44.3088542" lon="11.4632988"><ele>183.0</ele><time>2026-04-04T08:18:06.791Z</time></trkpt><trkpt lat="44.3088273" lon="11.4631612"><ele>183.0</ele><time>2026-04-04T08:18:07.79Z</time></trkpt><trkpt lat="44.3088005" lon="11.4630272"><ele>183.2</ele><time>2026-04-04T08:18:08.789Z</time></trkpt><trkpt lat="44.3087635" lon="11.4628925"><ele>183.4</ele><time>2026-04-04T08:18:09.789Z</time></trkpt><trkpt lat="44.3087182" lon="11.4627562"><ele>183.6</ele><time>2026-04-04T08:18:10.788Z</time></trkpt><trkpt lat="44.3086758" lon="11.4626117"><ele>183.79999999999998</ele><time>2026-04-04T08:18:11.788Z</time></trkpt><trkpt lat="44.3086382" lon="11.4624575"><ele>184.0</ele><time>2026-04-04T08:18:12.791Z</time></trkpt><trkpt lat="44.3086022" lon="11.4622958"><ele>184.0</ele><time>2026-04-04T08:18:13.777Z</time></trkpt><trkpt lat="44.3085678" lon="11.462131"><ele>184.0</ele><time>2026-04-04T08:18:14.79Z</time></trkpt><trkpt lat="44.3085367" lon="11.4619678"><ele>184.0</ele><time>2026-04-04T08:18:15.787Z</time></trkpt><trkpt lat="44.3085107" lon="11.461817"><ele>184.0</ele><time>2026-04-04T08:18:16.788Z</time></trkpt><trkpt lat="44.3084772" lon="11.4616825"><ele>184.25</ele><time>2026-04-04T08:18:17.787Z</time></trkpt><trkpt lat="44.3084235" lon="11.4615502"><ele>184.5</ele><time>2026-04-04T08:18:18.788Z</time></trkpt><trkpt lat="44.3083635" lon="11.4614173"><ele>184.75</ele><time>2026-04-04T08:18:19.787Z</time></trkpt><trkpt lat="44.3083128" lon="11.4612702"><ele>185.0</ele><time>2026-04-04T08:18:20.787Z</time></trkpt><trkpt lat="44.3082685" lon="11.4611135"><ele>185.75</ele><time>2026-04-04T08:18:21.788Z</time></trkpt><trkpt lat="44.308223" lon="11.460952"><ele>186.5</ele><time>2026-04-04T08:18:22.788Z</time></trkpt><trkpt lat="44.3081852" lon="11.4607865"><ele>187.25</ele><time>2026-04-04T08:18:23.787Z</time></trkpt><trkpt lat="44.3081545" lon="11.4606343"><ele>188.0</ele><time>2026-04-04T08:18:24.787Z</time></trkpt><trkpt lat="44.3081237" lon="11.4604973"><ele>188.0</ele><time>2026-04-04T08:18:25.787Z</time></trkpt><trkpt lat="44.3080907" lon="11.460377"><ele>188.0</ele><time>2026-04-04T08:18:26.787Z</time></trkpt><trkpt lat="44.3080583" lon="11.4602693"><ele>188.0</ele><time>2026-04-04T08:18:27.788Z</time></trkpt><trkpt lat="44.3080273" lon="11.4601723"><ele>188.0</ele><time>2026-04-04T08:18:28.787Z</time></trkpt><trkpt lat="44.3079912" lon="11.4600922"><ele>188.0</ele><time>2026-04-04T08:18:29.786Z</time></trkpt><trkpt lat="44.307904" lon="11.4599915"><ele>188.0</ele><time>2026-04-04T08:18:31.789Z</time></trkpt><trkpt lat="44.3078168" lon="11.4599388"><ele>188.0</ele><time>2026-04-04T08:18:33.791Z</time></trkpt><trkpt lat="44.3077315" lon="11.4598987"><ele>188.0</ele><time>2026-04-04T08:18:35.789Z</time></trkpt><trkpt lat="44.3076522" lon="11.4598765"><ele>188.0</ele><time>2026-04-04T08:18:37.789Z</time></trkpt><trkpt lat="44.3075728" lon="11.4598397"><ele>188.0</ele><time>2026-04-04T08:18:39.786Z</time></trkpt><trkpt lat="44.3075413" lon="11.4597057"><ele>188.0</ele><time>2026-04-04T08:18:41.785Z</time></trkpt><trkpt lat="44.3074833" lon="11.4595672"><ele>188.2</ele><time>2026-04-04T08:18:43.787Z</time></trkpt><trkpt lat="44.3073633" lon="11.459524"><ele>188.4</ele><time>2026-04-04T08:18:45.788Z</time></trkpt><trkpt lat="44.3072758" lon="11.4595313"><ele>188.6</ele><time>2026-04-04T08:18:46.79Z</time></trkpt><trkpt lat="44.307177" lon="11.4595365"><ele>188.79999999999998</ele><time>2026-04-04T08:18:47.789Z</time></trkpt><trkpt lat="44.3070665" lon="11.4595245"><ele>189.0</ele><time>2026-04-04T08:18:48.79Z</time></trkpt><trkpt lat="44.3069573" lon="11.4594893"><ele>189.5</ele><time>2026-04-04T08:18:49.787Z</time></trkpt><trkpt lat="44.3068482" lon="11.459437"><ele>190.0</ele><time>2026-04-04T08:18:50.789Z</time></trkpt><trkpt lat="44.306738" lon="11.4593745"><ele>190.5</ele><time>2026-04-04T08:18:51.789Z</time></trkpt><trkpt lat="44.30663" lon="11.4593058"><ele>191.0</ele><time>2026-04-04T08:18:52.789Z</time></trkpt><trkpt lat="44.3065235" lon="11.4592377"><ele>191.0</ele><time>2026-04-04T08:18:53.786Z</time></trkpt><trkpt lat="44.3064235" lon="11.4591775"><ele>191.0</ele><time>2026-04-04T08:18:54.786Z</time></trkpt><trkpt lat="44.3063275" lon="11.4591178"><ele>191.0</ele><time>2026-04-04T08:18:55.787Z</time></trkpt><trkpt lat="44.3062378" lon="11.4590635"><ele>191.0</ele><time>2026-04-04T08:18:56.787Z</time></trkpt><trkpt lat="44.306157" lon="11.4590152"><ele>191.0</ele><time>2026-04-04T08:18:57.786Z</time></trkpt><trkpt lat="44.3060817" lon="11.4589727"><ele>192.16666666666666</ele><time>2026-04-04T08:18:58.787Z</time></trkpt><trkpt lat="44.3060077" lon="11.4589275"><ele>193.33333333333331</ele><time>2026-04-04T08:18:59.786Z</time></trkpt><trkpt lat="44.3059393" lon="11.4588788"><ele>194.5</ele><time>2026-04-04T08:19:00.787Z</time></trkpt><trkpt lat="44.305856" lon="11.458824"><ele>195.66666666666666</ele><time>2026-04-04T08:19:02.786Z</time></trkpt><trkpt lat="44.3057715" lon="11.4588683"><ele>196.83333333333334</ele><time>2026-04-04T08:19:04.787Z</time></trkpt><trkpt lat="44.3057368" lon="11.4589522"><ele>198.0</ele><time>2026-04-04T08:19:08.784Z</time></trkpt><trkpt lat="44.3056713" lon="11.4589945"><ele>198.0</ele><time>2026-04-04T08:19:12.786Z</time></trkpt><trkpt lat="44.3055912" lon="11.4590223"><ele>198.0</ele><time>2026-04-04T08:19:14.788Z</time></trkpt><trkpt lat="44.3055128" lon="11.4590767"><ele>198.0</ele><time>2026-04-04T08:19:16.785Z</time></trkpt><trkpt lat="44.3054668" lon="11.4591688"><ele>198.0</ele><time>2026-04-04T08:19:18.788Z</time></trkpt><trkpt lat="44.3054232" lon="11.4592882"><ele>198.0</ele><time>2026-04-04T08:19:20.789Z</time></trkpt><trkpt lat="44.3053853" lon="11.459429"><ele>200.2</ele><time>2026-04-04T08:19:22.786Z</time></trkpt><trkpt lat="44.3052772" lon="11.4595312"><ele>202.4</ele><time>2026-04-04T08:19:24.789Z</time></trkpt><trkpt lat="44.3052045" lon="11.4595748"><ele>204.6</ele><time>2026-04-04T08:19:25.789Z</time></trkpt><trkpt lat="44.3051287" lon="11.4596227"><ele>206.79999999999998</ele><time>2026-04-04T08:19:26.787Z</time></trkpt><trkpt lat="44.3050467" lon="11.459686"><ele>209.0</ele><time>2026-04-04T08:19:27.789Z</time></trkpt><trkpt lat="44.3049592" lon="11.4597517"><ele>209.50000000000003</ele><time>2026-04-04T08:19:28.789Z</time></trkpt><trkpt lat="44.304875" lon="11.459807"><ele>210.0</ele><time>2026-04-04T08:19:29.788Z</time></trkpt><trkpt lat="44.3047875" lon="11.4598555"><ele>210.5</ele><time>2026-04-04T08:19:30.785Z</time></trkpt><trkpt lat="44.3047093" lon="11.459892"><ele>211.0</ele><time>2026-04-04T08:19:31.785Z</time></trkpt><trkpt lat="44.3046295" lon="11.4599323"><ele>211.50000000000003</ele><time>2026-04-04T08:19:32.786Z</time></trkpt><trkpt lat="44.3045458" lon="11.4599673"><ele>212.0</ele><time>2026-04-04T08:19:33.787Z</time></trkpt><trkpt lat="44.3044637" lon="11.4600147"><ele>215.2</ele><time>2026-04-04T08:19:34.788Z</time></trkpt><trkpt lat="44.3043848" lon="11.460069"><ele>218.39999999999998</ele><time>2026-04-04T08:19:35.786Z</time></trkpt><trkpt lat="44.3043025" lon="11.4601027"><ele>221.60000000000002</ele><time>2026-04-04T08:19:36.788Z</time></trkpt><trkpt lat="44.3042113" lon="11.460124"><ele>224.8</ele><time>2026-04-04T08:19:37.786Z</time></trkpt><trkpt lat="44.3041145" lon="11.4601495"><ele>228.0</ele><time>2026-04-04T08:19:38.786Z</time></trkpt><trkpt lat="44.304018" lon="11.4601845"><ele>228.0</ele><time>2026-04-04T08:19:39.786Z</time></trkpt><trkpt lat="44.3039238" lon="11.4602287"><ele>228.0</ele><time>2026-04-04T08:19:40.787Z</time></trkpt><trkpt lat="44.3038313" lon="11.4602793"><ele>228.0</ele><time>2026-04-04T08:19:41.785Z</time></trkpt><trkpt lat="44.3037515" lon="11.4603323"><ele>228.0</ele><time>2026-04-04T08:19:42.789Z</time></trkpt><trkpt lat="44.3036707" lon="11.4603853"><ele>228.0</ele><time>2026-04-04T08:19:43.79Z</time></trkpt><trkpt lat="44.3035788" lon="11.4604377"><ele>231.2</ele><time>2026-04-04T08:19:44.789Z</time></trkpt><trkpt lat="44.303486" lon="11.4604892"><ele>234.4</ele><time>2026-04-04T08:19:45.791Z</time></trkpt><trkpt lat="44.3033943" lon="11.4605327"><ele>237.59999999999997</ele><time>2026-04-04T08:19:46.788Z</time></trkpt><trkpt lat="44.3032963" lon="11.4605592"><ele>240.79999999999998</ele><time>2026-04-04T08:19:47.789Z</time></trkpt><trkpt lat="44.3031978" lon="11.4605775"><ele>244.0</ele><time>2026-04-04T08:19:48.789Z</time></trkpt><trkpt lat="44.3031117" lon="11.460591"><ele>246.66666666666666</ele><time>2026-04-04T08:19:49.789Z</time></trkpt><trkpt lat="44.3030317" lon="11.460605"><ele>249.33333333333331</ele><time>2026-04-04T08:19:50.789Z</time></trkpt><trkpt lat="44.3029657" lon="11.4606477"><ele>252.0</ele><time>2026-04-04T08:19:51.789Z</time></trkpt><trkpt lat="44.3029002" lon="11.4607225"><ele>254.66666666666669</ele><time>2026-04-04T08:19:52.789Z</time></trkpt><trkpt lat="44.3028242" lon="11.460799"><ele>257.33333333333337</ele><time>2026-04-04T08:19:53.789Z</time></trkpt><trkpt lat="44.3027358" lon="11.4608728"><ele>260.0</ele><time>2026-04-04T08:19:54.787Z</time></trkpt><trkpt lat="44.3026542" lon="11.4609442"><ele>260.0</ele><time>2026-04-04T08:19:55.786Z</time></trkpt><trkpt lat="44.3025755" lon="11.461012"><ele>260.0</ele><time>2026-04-04T08:19:56.787Z</time></trkpt><trkpt lat="44.3024995" lon="11.4610615"><ele>260.0</ele><time>2026-04-04T08:19:57.787Z</time></trkpt><trkpt lat="44.3024312" lon="11.46111"><ele>260.0</ele><time>2026-04-04T08:19:58.788Z</time></trkpt><trkpt lat="44.3023647" lon="11.4611572"><ele>260.0</ele><time>2026-04-04T08:19:59.787Z</time></trkpt><trkpt lat="44.3023007" lon="11.4611868"><ele>260.0</ele><time>2026-04-04T08:20:00.79Z</time></trkpt><trkpt lat="44.3022398" lon="11.4612242"><ele>263.1666666666667</ele><time>2026-04-04T08:20:01.788Z</time></trkpt><trkpt lat="44.3021883" lon="11.461279"><ele>266.33333333333337</ele><time>2026-04-04T08:20:02.789Z</time></trkpt><trkpt lat="44.3020838" lon="11.4613407"><ele>269.5</ele><time>2026-04-04T08:20:04.788Z</time></trkpt><trkpt lat="44.3020172" lon="11.4613563"><ele>272.6666666666667</ele><time>2026-04-04T08:20:05.787Z</time></trkpt><trkpt lat="44.301956" lon="11.4613913"><ele>275.8333333333333</ele><time>2026-04-04T08:20:06.788Z</time></trkpt><trkpt lat="44.3018547" lon="11.4614428"><ele>279.0</ele><time>2026-04-04T08:20:08.787Z</time></trkpt><trkpt lat="44.3017277" lon="11.4613895"><ele>279.0</ele><time>2026-04-04T08:20:10.79Z</time></trkpt><trkpt lat="44.3016623" lon="11.4613423"><ele>279.0</ele><time>2026-04-04T08:20:11.79Z</time></trkpt><trkpt lat="44.3016058" lon="11.4612908"><ele>279.0</ele><time>2026-04-04T08:20:12.788Z</time></trkpt><trkpt lat="44.3015055" lon="11.4612315"><ele>279.0</ele><time>2026-04-04T08:20:14.786Z</time></trkpt><trkpt lat="44.3014142" lon="11.4612782"><ele>279.0</ele><time>2026-04-04T08:20:16.787Z</time></trkpt><trkpt lat="44.3013127" lon="11.4612572"><ele>283.6666666666667</ele><time>2026-04-04T08:20:18.786Z</time></trkpt><trkpt lat="44.3012427" lon="11.461224"><ele>288.3333333333333</ele><time>2026-04-04T08:20:20.786Z</time></trkpt><trkpt lat="44.3012277" lon="11.461372"><ele>293.0</ele><time>2026-04-04T08:20:23.786Z</time></trkpt><trkpt lat="44.3012075" lon="11.4615133"><ele>297.66666666666663</ele><time>2026-04-04T08:20:25.787Z</time></trkpt><trkpt lat="44.3011438" lon="11.4615685"><ele>302.3333333333333</ele><time>2026-04-04T08:20:27.789Z</time></trkpt><trkpt lat="44.3010598" lon="11.4615593"><ele>307.0</ele><time>2026-04-04T08:20:29.789Z</time></trkpt><trkpt lat="44.3009802" lon="11.4614938"><ele>307.16666666666663</ele><time>2026-04-04T08:20:31.786Z</time></trkpt><trkpt lat="44.3008975" lon="11.4614595"><ele>307.3333333333333</ele><time>2026-04-04T08:20:33.786Z</time></trkpt><trkpt lat="44.3008298" lon="11.4614142"><ele>307.5</ele><time>2026-04-04T08:20:35.787Z</time></trkpt><trkpt lat="44.3007475" lon="11.4614315"><ele>307.6666666666667</ele><time>2026-04-04T08:20:37.788Z</time></trkpt><trkpt lat="44.3006658" lon="11.4614962"><ele>307.83333333333337</ele><time>2026-04-04T08:20:39.788Z</time></trkpt><trkpt lat="44.3006303" lon="11.4616078"><ele>308.0</ele><time>2026-04-04T08:20:41.789Z</time></trkpt><trkpt lat="44.3005402" lon="11.4616428"><ele>313.0</ele><time>2026-04-04T08:20:43.784Z</time></trkpt><trkpt lat="44.300436" lon="11.4615987"><ele>318.0</ele><time>2026-04-04T08:20:45.785Z</time></trkpt><trkpt lat="44.3003352" lon="11.4615435"><ele>323.0</ele><time>2026-04-04T08:20:47.785Z</time></trkpt><trkpt lat="44.3002503" lon="11.4614813"><ele>328.0</ele><time>2026-04-04T08:20:49.786Z</time></trkpt><trkpt lat="44.3001475" lon="11.4614272"><ele>333.0</ele><time>2026-04-04T08:20:51.785Z</time></trkpt><trkpt lat="44.3000212" lon="11.4614455"><ele>333.0</ele><time>2026-04-04T08:20:53.786Z</time></trkpt><trkpt lat="44.2999555" lon="11.4614958"><ele>333.0</ele><time>2026-04-04T08:20:54.788Z</time></trkpt><trkpt lat="44.2998998" lon="11.4615562"><ele>333.0</ele><time>2026-04-04T08:20:55.788Z</time></trkpt><trkpt lat="44.2998453" lon="11.4616003"><ele>333.0</ele><time>2026-04-04T08:20:56.789Z</time></trkpt><trkpt lat="44.2997445" lon="11.461647"><ele>333.0</ele><time>2026-04-04T08:20:58.788Z</time></trkpt><trkpt lat="44.2996372" lon="11.4617147"><ele>333.0</ele><time>2026-04-04T08:21:00.787Z</time></trkpt><trkpt lat="44.2995633" lon="11.461805"><ele>337.59999999999997</ele><time>2026-04-04T08:21:02.788Z</time></trkpt><trkpt lat="44.299454" lon="11.4618412"><ele>342.2</ele><time>2026-04-04T08:21:04.788Z</time></trkpt><trkpt lat="44.2993518" lon="11.4619015"><ele>346.8</ele><time>2026-04-04T08:21:06.785Z</time></trkpt><trkpt lat="44.2992883" lon="11.4620052"><ele>351.4</ele><time>2026-04-04T08:21:08.784Z</time></trkpt><trkpt lat="44.2992455" lon="11.4621335"><ele>356.0</ele><time>2026-04-04T08:21:10.784Z</time></trkpt><trkpt lat="44.2991498" lon="11.4621687"><ele>356.0</ele><time>2026-04-04T08:21:12.786Z</time></trkpt><trkpt lat="44.2990668" lon="11.462205"><ele>356.0</ele><time>2026-04-04T08:21:14.788Z</time></trkpt><trkpt lat="44.2989648" lon="11.462258"><ele>356.0</ele><time>2026-04-04T08:21:16.787Z</time></trkpt><trkpt lat="44.2988405" lon="11.4622303"><ele>356.0</ele><time>2026-04-04T08:21:18.789Z</time></trkpt><trkpt lat="44.2987215" lon="11.4622388"><ele>356.0</ele><time>2026-04-04T08:21:20.784Z</time></trkpt><trkpt lat="44.2986052" lon="11.4622408"><ele>360.6</ele><time>2026-04-04T08:21:22.795Z</time></trkpt><trkpt lat="44.2984947" lon="11.462276"><ele>365.20000000000005</ele><time>2026-04-04T08:21:24.787Z</time></trkpt><trkpt lat="44.2983957" lon="11.4623448"><ele>369.79999999999995</ele><time>2026-04-04T08:21:26.788Z</time></trkpt><trkpt lat="44.2982928" lon="11.4623713"><ele>374.4</ele><time>2026-04-04T08:21:28.787Z</time></trkpt><trkpt lat="44.29819" lon="11.4624077"><ele>379.0</ele><time>2026-04-04T08:21:30.791Z</time></trkpt><trkpt lat="44.2980907" lon="11.4623693"><ele>383.2</ele><time>2026-04-04T08:21:32.785Z</time></trkpt><trkpt lat="44.2980035" lon="11.4623248"><ele>387.4</ele><time>2026-04-04T08:21:34.786Z</time></trkpt><trkpt lat="44.2979125" lon="11.4623483"><ele>391.6</ele><time>2026-04-04T08:21:36.789Z</time></trkpt><trkpt lat="44.2978328" lon="11.4623182"><ele>395.8</ele><time>2026-04-04T08:21:38.787Z</time></trkpt><trkpt lat="44.2977437" lon="11.4623365"><ele>400.0</ele><time>2026-04-04T08:21:40.788Z</time></trkpt><trkpt lat="44.2976478" lon="11.4623762"><ele>400.0</ele><time>2026-04-04T08:21:42.786Z</time></trkpt><trkpt lat="44.297565" lon="11.462464"><ele>400.0</ele><time>2026-04-04T08:21:44.786Z</time></trkpt><trkpt lat="44.2975083" lon="11.462583"><ele>400.0</ele><time>2026-04-04T08:21:46.787Z</time></trkpt><trkpt lat="44.2974175" lon="11.462641"><ele>400.0</ele><time>2026-04-04T08:21:48.785Z</time></trkpt><trkpt lat="44.2973185" lon="11.4627115"><ele>400.0</ele><time>2026-04-04T08:21:50.788Z</time></trkpt><trkpt lat="44.2972755" lon="11.4627923"><ele>403.50000000000006</ele><time>2026-04-04T08:21:51.789Z</time></trkpt><trkpt lat="44.2972332" lon="11.462866"><ele>407.0</ele><time>2026-04-04T08:21:52.79Z</time></trkpt><trkpt lat="44.297144" lon="11.4629233"><ele>410.5</ele><time>2026-04-04T08:21:54.786Z</time></trkpt><trkpt lat="44.2970333" lon="11.4628597"><ele>414.0</ele><time>2026-04-04T08:21:56.788Z</time></trkpt><trkpt lat="44.2969672" lon="11.4628213"><ele>417.50000000000006</ele><time>2026-04-04T08:21:57.786Z</time></trkpt><trkpt lat="44.2969018" lon="11.4627913"><ele>421.0</ele><time>2026-04-04T08:21:58.787Z</time></trkpt><trkpt lat="44.2967932" lon="11.4627328"><ele>421.00000000000006</ele><time>2026-04-04T08:22:00.787Z</time></trkpt><trkpt lat="44.2966757" lon="11.462671"><ele>421.0</ele><time>2026-04-04T08:22:02.788Z</time></trkpt><trkpt lat="44.2966057" lon="11.4626337"><ele>421.0</ele><time>2026-04-04T08:22:03.789Z</time></trkpt><trkpt lat="44.2965332" lon="11.4625907"><ele>421.0</ele><time>2026-04-04T08:22:04.789Z</time></trkpt><trkpt lat="44.2964557" lon="11.462547"><ele>421.00000000000006</ele><time>2026-04-04T08:22:05.787Z</time></trkpt><trkpt lat="44.2963842" lon="11.4625097"><ele>421.0</ele><time>2026-04-04T08:22:06.79Z</time></trkpt><trkpt lat="44.296314" lon="11.4624713"><ele>424.83333333333337</ele><time>2026-04-04T08:22:07.789Z</time></trkpt><trkpt lat="44.2962413" lon="11.4624333"><ele>428.6666666666667</ele><time>2026-04-04T08:22:08.788Z</time></trkpt><trkpt lat="44.2961777" lon="11.4623933"><ele>432.5</ele><time>2026-04-04T08:22:09.789Z</time></trkpt><trkpt lat="44.2961102" lon="11.4623472"><ele>436.33333333333337</ele><time>2026-04-04T08:22:10.788Z</time></trkpt><trkpt lat="44.2960257" lon="11.4623042"><ele>440.1666666666667</ele><time>2026-04-04T08:22:11.787Z</time></trkpt><trkpt lat="44.2959575" lon="11.4622723"><ele>444.0</ele><time>2026-04-04T08:22:12.785Z</time></trkpt><trkpt lat="44.2958755" lon="11.4621958"><ele>444.3333333333333</ele><time>2026-04-04T08:22:14.787Z</time></trkpt><trkpt lat="44.2957827" lon="11.4621012"><ele>444.66666666666663</ele><time>2026-04-04T08:22:16.787Z</time></trkpt><trkpt lat="44.2957152" lon="11.4620868"><ele>445.0</ele><time>2026-04-04T08:22:17.787Z</time></trkpt><trkpt lat="44.2956372" lon="11.4620838"><ele>445.3333333333333</ele><time>2026-04-04T08:22:18.787Z</time></trkpt><trkpt lat="44.2955673" lon="11.46206"><ele>445.66666666666663</ele><time>2026-04-04T08:22:19.786Z</time></trkpt><trkpt lat="44.2954647" lon="11.4620095"><ele>446.0</ele><time>2026-04-04T08:22:21.786Z</time></trkpt><trkpt lat="44.295405" lon="11.4619762"><ele>446.0</ele><time>2026-04-04T08:22:33.79Z</time></trkpt><trkpt lat="44.2953967" lon="11.4618747"><ele>446.0</ele><time>2026-04-04T08:22:35.788Z</time></trkpt><trkpt lat="44.2954233" lon="11.4617188"><ele>446.0</ele><time>2026-04-04T08:22:37.788Z</time></trkpt><trkpt lat="44.2954787" lon="11.4615602"><ele>446.0</ele><time>2026-04-04T08:22:39.789Z</time></trkpt><trkpt lat="44.2955228" lon="11.4614873"><ele>446.0</ele><time>2026-04-04T08:22:40.787Z</time></trkpt><trkpt lat="44.2955785" lon="11.4614233"><ele>445.16666666666663</ele><time>2026-04-04T08:22:41.787Z</time></trkpt><trkpt lat="44.2956402" lon="11.4613697"><ele>444.3333333333333</ele><time>2026-04-04T08:22:42.789Z</time></trkpt><trkpt lat="44.2957148" lon="11.4613132"><ele>443.5</ele><time>2026-04-04T08:22:43.786Z</time></trkpt><trkpt lat="44.2957932" lon="11.4612533"><ele>442.66666666666663</ele><time>2026-04-04T08:22:44.787Z</time></trkpt><trkpt lat="44.2958712" lon="11.4611952"><ele>441.8333333333333</ele><time>2026-04-04T08:22:45.788Z</time></trkpt><trkpt lat="44.2959475" lon="11.4611357"><ele>441.0</ele><time>2026-04-04T08:22:46.787Z</time></trkpt><trkpt lat="44.296019" lon="11.461073"><ele>440.1666666666667</ele><time>2026-04-04T08:22:47.788Z</time></trkpt><trkpt lat="44.2960858" lon="11.461002"><ele>439.33333333333337</ele><time>2026-04-04T08:22:48.785Z</time></trkpt><trkpt lat="44.296152" lon="11.460933"><ele>438.5</ele><time>2026-04-04T08:22:49.787Z</time></trkpt><trkpt lat="44.2962208" lon="11.460857"><ele>437.6666666666667</ele><time>2026-04-04T08:22:50.789Z</time></trkpt><trkpt lat="44.2962837" lon="11.4607682"><ele>436.83333333333337</ele><time>2026-04-04T08:22:51.788Z</time></trkpt><trkpt lat="44.2963373" lon="11.4606745"><ele>436.0</ele><time>2026-04-04T08:22:52.787Z</time></trkpt><trkpt lat="44.2963905" lon="11.460576"><ele>434.1666666666667</ele><time>2026-04-04T08:22:53.788Z</time></trkpt><trkpt lat="44.2964445" lon="11.4604832"><ele>432.33333333333337</ele><time>2026-04-04T08:22:54.788Z</time></trkpt><trkpt lat="44.2964975" lon="11.4603983"><ele>430.5</ele><time>2026-04-04T08:22:55.791Z</time></trkpt><trkpt lat="44.2965415" lon="11.4603093"><ele>428.66666666666663</ele><time>2026-04-04T08:22:56.79Z</time></trkpt><trkpt lat="44.2965687" lon="11.460213"><ele>426.8333333333333</ele><time>2026-04-04T08:22:57.791Z</time></trkpt><trkpt lat="44.2965835" lon="11.4601155"><ele>425.0</ele><time>2026-04-04T08:22:58.789Z</time></trkpt><trkpt lat="44.2965892" lon="11.4600122"><ele>424.7142857142857</ele><time>2026-04-04T08:22:59.786Z</time></trkpt><trkpt lat="44.2965933" lon="11.4599073"><ele>424.42857142857144</ele><time>2026-04-04T08:23:00.788Z</time></trkpt><trkpt lat="44.2966028" lon="11.459806"><ele>424.1428571428571</ele><time>2026-04-04T08:23:01.79Z</time></trkpt><trkpt lat="44.2966248" lon="11.4597158"><ele>423.8571428571429</ele><time>2026-04-04T08:23:02.789Z</time></trkpt><trkpt lat="44.2966552" lon="11.4596352"><ele>423.5714285714286</ele><time>2026-04-04T08:23:03.789Z</time></trkpt><trkpt lat="44.2966882" lon="11.4595568"><ele>423.2857142857143</ele><time>2026-04-04T08:23:04.787Z</time></trkpt><trkpt lat="44.2967195" lon="11.459474"><ele>423.0</ele><time>2026-04-04T08:23:05.788Z</time></trkpt><trkpt lat="44.2967502" lon="11.459389"><ele>421.0</ele><time>2026-04-04T08:23:06.787Z</time></trkpt><trkpt lat="44.2967808" lon="11.4592955"><ele>419.0</ele><time>2026-04-04T08:23:07.789Z</time></trkpt><trkpt lat="44.2968148" lon="11.4592008"><ele>417.0</ele><time>2026-04-04T08:23:08.789Z</time></trkpt><trkpt lat="44.2968553" lon="11.4591157"><ele>415.0</ele><time>2026-04-04T08:23:09.789Z</time></trkpt><trkpt lat="44.2969018" lon="11.4590395"><ele>413.0</ele><time>2026-04-04T08:23:10.784Z</time></trkpt><trkpt lat="44.2969527" lon="11.4589587"><ele>411.0</ele><time>2026-04-04T08:23:11.784Z</time></trkpt><trkpt lat="44.2970027" lon="11.4588702"><ele>409.0</ele><time>2026-04-04T08:23:12.784Z</time></trkpt><trkpt lat="44.2970527" lon="11.4587757"><ele>407.0</ele><time>2026-04-04T08:23:13.785Z</time></trkpt><trkpt lat="44.2970977" lon="11.4586793"><ele>405.0</ele><time>2026-04-04T08:23:14.787Z</time></trkpt><trkpt lat="44.2971402" lon="11.4585773"><ele>403.0</ele><time>2026-04-04T08:23:15.791Z</time></trkpt><trkpt lat="44.2971792" lon="11.4584788"><ele>401.0</ele><time>2026-04-04T08:23:16.791Z</time></trkpt><trkpt lat="44.2972127" lon="11.4583843"><ele>399.0</ele><time>2026-04-04T08:23:17.79Z</time></trkpt><trkpt lat="44.2972373" lon="11.4582868"><ele>399.0</ele><time>2026-04-04T08:23:18.788Z</time></trkpt><trkpt lat="44.2972522" lon="11.4581903"><ele>399.0</ele><time>2026-04-04T08:23:19.791Z</time></trkpt><trkpt lat="44.2972632" lon="11.4580792"><ele>399.0</ele><time>2026-04-04T08:23:20.79Z</time></trkpt><trkpt lat="44.2972725" lon="11.4579625"><ele>399.0</ele><time>2026-04-04T08:23:21.792Z</time></trkpt><trkpt lat="44.2972835" lon="11.4578418"><ele>399.0</ele><time>2026-04-04T08:23:22.788Z</time></trkpt><trkpt lat="44.297296" lon="11.4577242"><ele>399.0</ele><time>2026-04-04T08:23:23.788Z</time></trkpt><trkpt lat="44.2973118" lon="11.457617"><ele>397.7142857142857</ele><time>2026-04-04T08:23:24.788Z</time></trkpt><trkpt lat="44.2973343" lon="11.4575222"><ele>396.42857142857144</ele><time>2026-04-04T08:23:25.789Z</time></trkpt><trkpt lat="44.29737" lon="11.457443"><ele>395.1428571428571</ele><time>2026-04-04T08:23:26.789Z</time></trkpt><trkpt lat="44.2974167" lon="11.457373"><ele>393.8571428571429</ele><time>2026-04-04T08:23:27.788Z</time></trkpt><trkpt lat="44.2974698" lon="11.4573003"><ele>392.57142857142856</ele><time>2026-04-04T08:23:28.792Z</time></trkpt><trkpt lat="44.2975255" lon="11.4572137"><ele>391.2857142857143</ele><time>2026-04-04T08:23:29.79Z</time></trkpt><trkpt lat="44.2975733" lon="11.4571185"><ele>390.0</ele><time>2026-04-04T08:23:30.79Z</time></trkpt><trkpt lat="44.2976098" lon="11.457031"><ele>389.3333333333333</ele><time>2026-04-04T08:23:31.791Z</time></trkpt><trkpt lat="44.2976523" lon="11.4569182"><ele>388.66666666666663</ele><time>2026-04-04T08:23:33.792Z</time></trkpt><trkpt lat="44.2976905" lon="11.4568428"><ele>388.0</ele><time>2026-04-04T08:23:35.788Z</time></trkpt><trkpt lat="44.2977348" lon="11.4567777"><ele>387.3333333333333</ele><time>2026-04-04T08:23:37.786Z</time></trkpt><trkpt lat="44.2978255" lon="11.4567028"><ele>386.66666666666663</ele><time>2026-04-04T08:23:39.792Z</time></trkpt><trkpt lat="44.2979175" lon="11.4566365"><ele>386.0</ele><time>2026-04-04T08:23:41.789Z</time></trkpt><trkpt lat="44.2980017" lon="11.456559"><ele>385.99999999999994</ele><time>2026-04-04T08:23:43.789Z</time></trkpt><trkpt lat="44.2980407" lon="11.4564803"><ele>386.0</ele><time>2026-04-04T08:23:45.791Z</time></trkpt><trkpt lat="44.298058" lon="11.4563853"><ele>386.0</ele><time>2026-04-04T08:23:47.788Z</time></trkpt><trkpt lat="44.2980852" lon="11.4562388"><ele>386.0</ele><time>2026-04-04T08:23:49.791Z</time></trkpt><trkpt lat="44.2981192" lon="11.4560692"><ele>385.99999999999994</ele><time>2026-04-04T08:23:51.79Z</time></trkpt><trkpt lat="44.2981333" lon="11.4559758"><ele>386.0</ele><time>2026-04-04T08:23:52.788Z</time></trkpt><trkpt lat="44.2981422" lon="11.4558777"><ele>384.42857142857144</ele><time>2026-04-04T08:23:53.787Z</time></trkpt><trkpt lat="44.2981462" lon="11.4557775"><ele>382.8571428571429</ele><time>2026-04-04T08:23:54.789Z</time></trkpt><trkpt lat="44.2981468" lon="11.4556755"><ele>381.28571428571433</ele><time>2026-04-04T08:23:55.788Z</time></trkpt><trkpt lat="44.2981467" lon="11.455573"><ele>379.7142857142857</ele><time>2026-04-04T08:23:56.788Z</time></trkpt><trkpt lat="44.2981447" lon="11.4554675"><ele>378.1428571428571</ele><time>2026-04-04T08:23:57.788Z</time></trkpt><trkpt lat="44.2981428" lon="11.4553607"><ele>376.5714285714286</ele><time>2026-04-04T08:23:58.789Z</time></trkpt><trkpt lat="44.2981387" lon="11.455254"><ele>375.0</ele><time>2026-04-04T08:23:59.786Z</time></trkpt><trkpt lat="44.2981355" lon="11.4551483"><ele>373.0</ele><time>2026-04-04T08:24:00.786Z</time></trkpt><trkpt lat="44.298133" lon="11.4550403"><ele>371.0</ele><time>2026-04-04T08:24:01.785Z</time></trkpt><trkpt lat="44.2981282" lon="11.4549303"><ele>369.0</ele><time>2026-04-04T08:24:02.785Z</time></trkpt><trkpt lat="44.2981225" lon="11.45482"><ele>367.0</ele><time>2026-04-04T08:24:03.79Z</time></trkpt><trkpt lat="44.298118" lon="11.4547105"><ele>365.0</ele><time>2026-04-04T08:24:04.794Z</time></trkpt><trkpt lat="44.2981148" lon="11.4546192"><ele>363.0</ele><time>2026-04-04T08:24:05.791Z</time></trkpt><trkpt lat="44.2981128" lon="11.4544658"><ele>360.2</ele><time>2026-04-04T08:24:07.788Z</time></trkpt><trkpt lat="44.2981352" lon="11.4543342"><ele>357.4</ele><time>2026-04-04T08:24:09.79Z</time></trkpt><trkpt lat="44.2981703" lon="11.4541872"><ele>354.59999999999997</ele><time>2026-04-04T08:24:11.787Z</time></trkpt><trkpt lat="44.2982248" lon="11.4540437"><ele>351.79999999999995</ele><time>2026-04-04T08:24:13.786Z</time></trkpt><trkpt lat="44.2982873" lon="11.4538942"><ele>349.0</ele><time>2026-04-04T08:24:15.788Z</time></trkpt><trkpt lat="44.298317" lon="11.4537715"><ele>346.4</ele><time>2026-04-04T08:24:17.787Z</time></trkpt><trkpt lat="44.298285" lon="11.4536728"><ele>343.79999999999995</ele><time>2026-04-04T08:24:19.79Z</time></trkpt><trkpt lat="44.2982265" lon="11.4535862"><ele>341.20000000000005</ele><time>2026-04-04T08:24:21.787Z</time></trkpt><trkpt lat="44.2981385" lon="11.453502"><ele>338.6</ele><time>2026-04-04T08:24:23.789Z</time></trkpt><trkpt lat="44.2980613" lon="11.4534172"><ele>336.0</ele><time>2026-04-04T08:24:25.789Z</time></trkpt><trkpt lat="44.298042" lon="11.4533"><ele>336.0</ele><time>2026-04-04T08:24:27.789Z</time></trkpt><trkpt lat="44.2980793" lon="11.4531747"><ele>336.0</ele><time>2026-04-04T08:24:29.791Z</time></trkpt><trkpt lat="44.2981312" lon="11.4530417"><ele>336.0</ele><time>2026-04-04T08:24:31.788Z</time></trkpt><trkpt lat="44.2981777" lon="11.4528932"><ele>336.0</ele><time>2026-04-04T08:24:33.789Z</time></trkpt><trkpt lat="44.298203" lon="11.4528072"><ele>336.0</ele><time>2026-04-04T08:24:34.788Z</time></trkpt><trkpt lat="44.2982293" lon="11.45272"><ele>333.1666666666667</ele><time>2026-04-04T08:24:35.788Z</time></trkpt><trkpt lat="44.2982572" lon="11.4526405"><ele>330.3333333333333</ele><time>2026-04-04T08:24:36.787Z</time></trkpt><trkpt lat="44.2982883" lon="11.4525603"><ele>327.5</ele><time>2026-04-04T08:24:37.79Z</time></trkpt><trkpt lat="44.298319" lon="11.4524802"><ele>324.66666666666663</ele><time>2026-04-04T08:24:38.788Z</time></trkpt><trkpt lat="44.2983473" lon="11.4523413"><ele>321.8333333333333</ele><time>2026-04-04T08:24:40.791Z</time></trkpt><trkpt lat="44.2983412" lon="11.452217"><ele>319.0</ele><time>2026-04-04T08:24:42.788Z</time></trkpt><trkpt lat="44.2983243" lon="11.4520967"><ele>317.0</ele><time>2026-04-04T08:24:44.788Z</time></trkpt><trkpt lat="44.2982798" lon="11.451998"><ele>315.0</ele><time>2026-04-04T08:24:46.79Z</time></trkpt><trkpt lat="44.2981892" lon="11.4519107"><ele>313.0</ele><time>2026-04-04T08:24:48.789Z</time></trkpt><trkpt lat="44.2981288" lon="11.451871"><ele>311.0</ele><time>2026-04-04T08:24:49.787Z</time></trkpt><trkpt lat="44.2980663" lon="11.4518332"><ele>309.0</ele><time>2026-04-04T08:24:50.784Z</time></trkpt><trkpt lat="44.298005" lon="11.451802"><ele>307.0</ele><time>2026-04-04T08:24:51.787Z</time></trkpt><trkpt lat="44.297896" lon="11.4517635"><ele>307.0</ele><time>2026-04-04T08:24:53.79Z</time></trkpt><trkpt lat="44.2977902" lon="11.4517332"><ele>307.0</ele><time>2026-04-04T08:24:55.79Z</time></trkpt><trkpt lat="44.2977282" lon="11.4517113"><ele>307.0</ele><time>2026-04-04T08:24:56.79Z</time></trkpt><trkpt lat="44.2976642" lon="11.451686"><ele>307.0</ele><time>2026-04-04T08:24:57.794Z</time></trkpt><trkpt lat="44.2975493" lon="11.451627"><ele>307.0</ele><time>2026-04-04T08:24:59.788Z</time></trkpt><trkpt lat="44.2974415" lon="11.4515618"><ele>307.0</ele><time>2026-04-04T08:25:01.79Z</time></trkpt><trkpt lat="44.2973362" lon="11.4515458"><ele>307.0</ele><time>2026-04-04T08:25:03.787Z</time></trkpt><trkpt lat="44.2972348" lon="11.4515727"><ele>307.0</ele><time>2026-04-04T08:25:05.788Z</time></trkpt><trkpt lat="44.2971252" lon="11.4515703"><ele>307.0</ele><time>2026-04-04T08:25:07.787Z</time></trkpt><trkpt lat="44.2970212" lon="11.4515537"><ele>307.0</ele><time>2026-04-04T08:25:09.787Z</time></trkpt><trkpt lat="44.2969757" lon="11.4514892"><ele>304.3333333333333</ele><time>2026-04-04T08:25:11.786Z</time></trkpt><trkpt lat="44.2969728" lon="11.4513982"><ele>301.66666666666663</ele><time>2026-04-04T08:25:13.784Z</time></trkpt><trkpt lat="44.2969588" lon="11.4512857"><ele>299.0</ele><time>2026-04-04T08:25:15.784Z</time></trkpt><trkpt lat="44.2969473" lon="11.4511665"><ele>296.3333333333333</ele><time>2026-04-04T08:25:17.784Z</time></trkpt><trkpt lat="44.2969348" lon="11.4510515"><ele>293.6666666666667</ele><time>2026-04-04T08:25:19.788Z</time></trkpt><trkpt lat="44.2969103" lon="11.450936"><ele>291.0</ele><time>2026-04-04T08:25:21.788Z</time></trkpt><trkpt lat="44.2968788" lon="11.4508248"><ele>288.2</ele><time>2026-04-04T08:25:23.786Z</time></trkpt><trkpt lat="44.2968518" lon="11.4507007"><ele>285.40000000000003</ele><time>2026-04-04T08:25:25.786Z</time></trkpt><trkpt lat="44.2968265" lon="11.4505883"><ele>282.6</ele><time>2026-04-04T08:25:27.789Z</time></trkpt><trkpt lat="44.2968203" lon="11.4504653"><ele>279.8</ele><time>2026-04-04T08:25:29.788Z</time></trkpt><trkpt lat="44.2968273" lon="11.450318"><ele>277.0</ele><time>2026-04-04T08:25:31.787Z</time></trkpt><trkpt lat="44.2968313" lon="11.4501708"><ele>275.2</ele><time>2026-04-04T08:25:33.789Z</time></trkpt><trkpt lat="44.2968348" lon="11.4500353"><ele>273.4</ele><time>2026-04-04T08:25:35.787Z</time></trkpt><trkpt lat="44.2968512" lon="11.449922"><ele>271.6</ele><time>2026-04-04T08:25:37.784Z</time></trkpt><trkpt lat="44.296871" lon="11.4497942"><ele>269.8</ele><time>2026-04-04T08:25:39.787Z</time></trkpt><trkpt lat="44.2968837" lon="11.4496662"><ele>268.0</ele><time>2026-04-04T08:25:41.79Z</time></trkpt><trkpt lat="44.2969005" lon="11.4495447"><ele>265.6</ele><time>2026-04-04T08:25:43.787Z</time></trkpt><trkpt lat="44.296901" lon="11.4494255"><ele>263.20000000000005</ele><time>2026-04-04T08:25:45.787Z</time></trkpt><trkpt lat="44.2968605" lon="11.4493308"><ele>260.8</ele><time>2026-04-04T08:25:47.788Z</time></trkpt><trkpt lat="44.2967855" lon="11.4492552"><ele>258.40000000000003</ele><time>2026-04-04T08:25:49.79Z</time></trkpt><trkpt lat="44.2966985" lon="11.4491883"><ele>256.0</ele><time>2026-04-04T08:25:51.792Z</time></trkpt><trkpt lat="44.2965987" lon="11.4491377"><ele>255.99999999999997</ele><time>2026-04-04T08:25:53.787Z</time></trkpt><trkpt lat="44.2965105" lon="11.4491253"><ele>256.0</ele><time>2026-04-04T08:25:55.789Z</time></trkpt><trkpt lat="44.296427" lon="11.4491247"><ele>256.0</ele><time>2026-04-04T08:25:57.788Z</time></trkpt><trkpt lat="44.2963585" lon="11.449103"><ele>256.0</ele><time>2026-04-04T08:25:59.786Z</time></trkpt><trkpt lat="44.2962833" lon="11.4490742"><ele>255.99999999999997</ele><time>2026-04-04T08:26:01.789Z</time></trkpt><trkpt lat="44.2962167" lon="11.4490497"><ele>256.0</ele><time>2026-04-04T08:26:03.785Z</time></trkpt><trkpt lat="44.2961418" lon="11.4490367"><ele>255.0</ele><time>2026-04-04T08:26:23.786Z</time></trkpt><trkpt lat="44.2960827" lon="11.4489705"><ele>254.00000000000003</ele><time>2026-04-04T08:26:26.784Z</time></trkpt><trkpt lat="44.2960463" lon="11.4488528"><ele>253.00000000000003</ele><time>2026-04-04T08:26:29.785Z</time></trkpt><trkpt lat="44.2960143" lon="11.4487265"><ele>252.0</ele><time>2026-04-04T08:26:32.787Z</time></trkpt><trkpt lat="44.2959725" lon="11.4486207"><ele>251.0</ele><time>2026-04-04T08:26:34.786Z</time></trkpt><trkpt lat="44.2959118" lon="11.4484907"><ele>249.50000000000003</ele><time>2026-04-04T08:26:36.786Z</time></trkpt><trkpt lat="44.2958793" lon="11.4483787"><ele>248.0</ele><time>2026-04-04T08:26:38.786Z</time></trkpt><trkpt lat="44.2958465" lon="11.4482667"><ele>246.5</ele><time>2026-04-04T08:26:40.788Z</time></trkpt><trkpt lat="44.2958033" lon="11.44815"><ele>245.0</ele><time>2026-04-04T08:26:42.788Z</time></trkpt><trkpt lat="44.2957513" lon="11.4480402"><ele>243.50000000000003</ele><time>2026-04-04T08:26:44.787Z</time></trkpt><trkpt lat="44.2957002" lon="11.447962"><ele>242.0</ele><time>2026-04-04T08:26:46.788Z</time></trkpt><trkpt lat="44.2956463" lon="11.4478863"><ele>240.00000000000003</ele><time>2026-04-04T08:26:48.786Z</time></trkpt><trkpt lat="44.2955978" lon="11.4478185"><ele>238.0</ele><time>2026-04-04T08:26:50.786Z</time></trkpt><trkpt lat="44.2955393" lon="11.4477543"><ele>236.0</ele><time>2026-04-04T08:26:52.786Z</time></trkpt><trkpt lat="44.2955057" lon="11.4476467"><ele>234.0</ele><time>2026-04-04T08:26:55.786Z</time></trkpt><trkpt lat="44.2954433" lon="11.4476097"><ele>232.00000000000003</ele><time>2026-04-04T08:26:57.787Z</time></trkpt><trkpt lat="44.2953638" lon="11.4476068"><ele>230.0</ele><time>2026-04-04T08:26:59.786Z</time></trkpt><trkpt lat="44.2952743" lon="11.4475728"><ele>229.50000000000003</ele><time>2026-04-04T08:27:01.789Z</time></trkpt><trkpt lat="44.2951927" lon="11.4475158"><ele>229.0</ele><time>2026-04-04T08:27:03.788Z</time></trkpt><trkpt lat="44.2951185" lon="11.4474633"><ele>228.5</ele><time>2026-04-04T08:27:05.787Z</time></trkpt><trkpt lat="44.2950443" lon="11.4473977"><ele>228.0</ele><time>2026-04-04T08:35:32.79Z</time></trkpt><trkpt lat="44.2950342" lon="11.4472875"><ele>227.50000000000003</ele><time>2026-04-04T08:35:36.791Z</time></trkpt><trkpt lat="44.2950982" lon="11.4471998"><ele>227.0</ele><time>2026-04-04T08:35:38.79Z</time></trkpt><trkpt lat="44.2951527" lon="11.4471497"><ele>225.85714285714286</ele><time>2026-04-04T08:35:39.789Z</time></trkpt><trkpt lat="44.2952145" lon="11.4470893"><ele>224.71428571428572</ele><time>2026-04-04T08:35:40.79Z</time></trkpt><trkpt lat="44.2952803" lon="11.4470355"><ele>223.57142857142858</ele><time>2026-04-04T08:35:41.79Z</time></trkpt><trkpt lat="44.2953485" lon="11.4469968"><ele>222.42857142857144</ele><time>2026-04-04T08:35:42.79Z</time></trkpt><trkpt lat="44.2954193" lon="11.4469713"><ele>221.28571428571428</ele><time>2026-04-04T08:35:43.791Z</time></trkpt><trkpt lat="44.295491" lon="11.4469573"><ele>220.14285714285717</ele><time>2026-04-04T08:35:44.79Z</time></trkpt><trkpt lat="44.2955622" lon="11.446952"><ele>219.0</ele><time>2026-04-04T08:35:45.79Z</time></trkpt><trkpt lat="44.2956318" lon="11.4469595"><ele>218.66666666666666</ele><time>2026-04-04T08:35:46.788Z</time></trkpt><trkpt lat="44.295695" lon="11.4469727"><ele>218.33333333333331</ele><time>2026-04-04T08:35:47.787Z</time></trkpt><trkpt lat="44.2957957" lon="11.4469743"><ele>218.0</ele><time>2026-04-04T08:35:49.788Z</time></trkpt><trkpt lat="44.2958868" lon="11.446958"><ele>217.66666666666666</ele><time>2026-04-04T08:36:02.789Z</time></trkpt><trkpt lat="44.2959627" lon="11.4469488"><ele>217.33333333333331</ele><time>2026-04-04T08:36:04.79Z</time></trkpt><trkpt lat="44.2960425" lon="11.4469555"><ele>217.0</ele><time>2026-04-04T08:36:06.789Z</time></trkpt><trkpt lat="44.2961135" lon="11.4470108"><ele>216.99999999999997</ele><time>2026-04-04T08:36:08.788Z</time></trkpt><trkpt lat="44.2961832" lon="11.4470748"><ele>217.0</ele><time>2026-04-04T08:36:11.79Z</time></trkpt><trkpt lat="44.296264" lon="11.4471175"><ele>217.0</ele><time>2026-04-04T08:36:26.789Z</time></trkpt><trkpt lat="44.2963315" lon="11.4470805"><ele>217.0</ele><time>2026-04-04T08:36:28.79Z</time></trkpt><trkpt lat="44.2963598" lon="11.4469715"><ele>216.99999999999997</ele><time>2026-04-04T08:36:31.788Z</time></trkpt><trkpt lat="44.2963562" lon="11.4468777"><ele>217.0</ele><time>2026-04-04T08:36:33.789Z</time></trkpt><trkpt lat="44.2963333" lon="11.4467892"><ele>217.0</ele><time>2026-04-04T08:36:35.789Z</time></trkpt><trkpt lat="44.2963315" lon="11.4466793"><ele>217.0</ele><time>2026-04-04T08:36:39.787Z</time></trkpt><trkpt lat="44.2963835" lon="11.4466107"><ele>217.0</ele><time>2026-04-04T08:37:16.79Z</time></trkpt><trkpt lat="44.2964618" lon="11.4465947"><ele>217.0</ele><time>2026-04-04T08:37:19.789Z</time></trkpt><trkpt lat="44.2965342" lon="11.446609"><ele>217.0</ele><time>2026-04-04T08:37:22.789Z</time></trkpt><trkpt lat="44.2965997" lon="11.4466227"><ele>217.0</ele><time>2026-04-04T08:37:24.788Z</time></trkpt><trkpt lat="44.2966757" lon="11.4466128"><ele>217.0</ele><time>2026-04-04T08:37:26.79Z</time></trkpt><trkpt lat="44.2967363" lon="11.4465817"><ele>217.14285714285714</ele><time>2026-04-04T08:37:28.788Z</time></trkpt><trkpt lat="44.2967348" lon="11.4464817"><ele>217.28571428571428</ele><time>2026-04-04T08:37:38.789Z</time></trkpt><trkpt lat="44.2967163" lon="11.4463943"><ele>217.42857142857144</ele><time>2026-04-04T08:37:42.79Z</time></trkpt><trkpt lat="44.2966993" lon="11.4463007"><ele>217.57142857142856</ele><time>2026-04-04T08:38:39.789Z</time></trkpt><trkpt lat="44.2967665" lon="11.4463072"><ele>217.71428571428572</ele><time>2026-04-04T08:44:29.79Z</time></trkpt><trkpt lat="44.2968383" lon="11.4462985"><ele>217.85714285714286</ele><time>2026-04-04T08:46:16.787Z</time></trkpt><trkpt lat="44.2969075" lon="11.446291"><ele>218.0</ele><time>2026-04-04T08:46:37.801Z</time></trkpt><trkpt lat="44.2969737" lon="11.4463017"><ele>218.0</ele><time>2026-04-04T08:47:09.788Z</time></trkpt><trkpt lat="44.2969822" lon="11.4461828"><ele>218.0</ele><time>2026-04-04T08:47:59.788Z</time></trkpt><trkpt lat="44.296925" lon="11.4461433"><ele>218.0</ele><time>2026-04-04T08:48:11.789Z</time></trkpt><trkpt lat="44.2968438" lon="11.4461172"><ele>218.0</ele><time>2026-04-04T08:48:46.789Z</time></trkpt><trkpt lat="44.2967832" lon="11.4460745"><ele>218.0</ele><time>2026-04-04T08:49:38.791Z</time></trkpt><trkpt lat="44.2968527" lon="11.4460877"><ele>218.0</ele><time>2026-04-04T08:50:39.791Z</time></trkpt><trkpt lat="44.2968775" lon="11.4460068"><ele>218.0</ele><time>2026-04-04T08:50:43.793Z</time></trkpt><trkpt lat="44.2969192" lon="11.4458963"><ele>218.0</ele><time>2026-04-04T08:50:48.79Z</time></trkpt><trkpt lat="44.2969577" lon="11.4458127"><ele>218.0</ele><time>2026-04-04T08:51:00.789Z</time></trkpt><trkpt lat="44.296989" lon="11.445725"><ele>218.0</ele><time>2026-04-04T08:51:04.814Z</time></trkpt><trkpt lat="44.2970405" lon="11.4456407"><ele>218.0</ele><time>2026-04-04T08:51:08.811Z</time></trkpt><trkpt lat="44.2971065" lon="11.4455575"><ele>218.0</ele><time>2026-04-04T08:51:12.802Z</time></trkpt><trkpt lat="44.2971357" lon="11.4454778"><ele>218.0</ele><time>2026-04-04T08:51:15.811Z</time></trkpt><trkpt lat="44.2971285" lon="11.4453727"><ele>218.0</ele><time>2026-04-04T08:51:18.79Z</time></trkpt><trkpt lat="44.2971168" lon="11.4452633"><ele>219.71428571428572</ele><time>2026-04-04T08:51:21.787Z</time></trkpt><trkpt lat="44.2971412" lon="11.4451815"><ele>221.42857142857144</ele><time>2026-04-04T08:51:23.787Z</time></trkpt><trkpt lat="44.297197" lon="11.4451202"><ele>223.1428571428571</ele><time>2026-04-04T08:51:25.788Z</time></trkpt><trkpt lat="44.2972675" lon="11.4450738"><ele>224.85714285714283</ele><time>2026-04-04T08:51:27.789Z</time></trkpt><trkpt lat="44.2973272" lon="11.4450167"><ele>226.57142857142856</ele><time>2026-04-04T08:51:30.791Z</time></trkpt><trkpt lat="44.2973628" lon="11.4449418"><ele>228.28571428571425</ele><time>2026-04-04T08:51:33.803Z</time></trkpt><trkpt lat="44.2974095" lon="11.4448328"><ele>229.99999999999997</ele><time>2026-04-04T08:51:36.791Z</time></trkpt><trkpt lat="44.2974495" lon="11.4447338"><ele>233.16666666666669</ele><time>2026-04-04T08:51:38.79Z</time></trkpt><trkpt lat="44.2974933" lon="11.4446153"><ele>236.33333333333334</ele><time>2026-04-04T08:51:40.791Z</time></trkpt><trkpt lat="44.2975313" lon="11.4444983"><ele>239.5</ele><time>2026-04-04T08:51:42.79Z</time></trkpt><trkpt lat="44.2975743" lon="11.444425"><ele>242.66666666666669</ele><time>2026-04-04T08:51:45.788Z</time></trkpt><trkpt lat="44.2975968" lon="11.4443075"><ele>245.83333333333334</ele><time>2026-04-04T08:52:00.79Z</time></trkpt><trkpt lat="44.2976057" lon="11.4442007"><ele>249.0</ele><time>2026-04-04T08:52:03.79Z</time></trkpt><trkpt lat="44.297627" lon="11.4441023"><ele>249.0</ele><time>2026-04-04T08:52:06.789Z</time></trkpt><trkpt lat="44.2976462" lon="11.4439957"><ele>249.0</ele><time>2026-04-04T08:52:09.788Z</time></trkpt><trkpt lat="44.2976723" lon="11.4438987"><ele>249.0</ele><time>2026-04-04T08:52:12.788Z</time></trkpt><trkpt lat="44.2977328" lon="11.4438085"><ele>249.0</ele><time>2026-04-04T08:52:15.791Z</time></trkpt><trkpt lat="44.2978182" lon="11.4437662"><ele>249.0</ele><time>2026-04-04T08:52:17.788Z</time></trkpt><trkpt lat="44.297898" lon="11.4437085"><ele>249.0</ele><time>2026-04-04T08:52:19.792Z</time></trkpt><trkpt lat="44.2979507" lon="11.4436403"><ele>253.0</ele><time>2026-04-04T08:52:21.793Z</time></trkpt><trkpt lat="44.2979755" lon="11.4435398"><ele>257.0</ele><time>2026-04-04T08:52:23.791Z</time></trkpt><trkpt lat="44.2979233" lon="11.4434243"><ele>261.0</ele><time>2026-04-04T08:52:26.79Z</time></trkpt><trkpt lat="44.2978648" lon="11.4433527"><ele>265.0</ele><time>2026-04-04T08:52:28.792Z</time></trkpt><trkpt lat="44.2978175" lon="11.4432838"><ele>269.0</ele><time>2026-04-04T09:00:10.79Z</time></trkpt><trkpt lat="44.2977978" lon="11.4431913"><ele>273.0</ele><time>2026-04-04T09:00:12.789Z</time></trkpt><trkpt lat="44.2977617" lon="11.4430672"><ele>277.75</ele><time>2026-04-04T09:00:14.789Z</time></trkpt><trkpt lat="44.2977038" lon="11.4429305"><ele>282.5</ele><time>2026-04-04T09:00:16.79Z</time></trkpt><trkpt lat="44.2976372" lon="11.4427817"><ele>287.25</ele><time>2026-04-04T09:00:18.793Z</time></trkpt><trkpt lat="44.2975812" lon="11.4426348"><ele>292.0</ele><time>2026-04-04T09:00:20.787Z</time></trkpt><trkpt lat="44.2975608" lon="11.4425025"><ele>292.0</ele><time>2026-04-04T09:00:22.788Z</time></trkpt><trkpt lat="44.297572" lon="11.4423803"><ele>292.0</ele><time>2026-04-04T09:00:24.789Z</time></trkpt><trkpt lat="44.2976045" lon="11.4422447"><ele>292.0</ele><time>2026-04-04T09:00:26.788Z</time></trkpt><trkpt lat="44.2975892" lon="11.442103"><ele>292.0</ele><time>2026-04-04T09:00:28.791Z</time></trkpt><trkpt lat="44.297562" lon="11.441948"><ele>292.0</ele><time>2026-04-04T09:00:30.792Z</time></trkpt><trkpt lat="44.2975528" lon="11.441786"><ele>296.2</ele><time>2026-04-04T09:00:32.79Z</time></trkpt><trkpt lat="44.297555" lon="11.4416153"><ele>300.4</ele><time>2026-04-04T09:00:34.789Z</time></trkpt><trkpt lat="44.297551" lon="11.4415253"><ele>304.6</ele><time>2026-04-04T09:00:35.791Z</time></trkpt><trkpt lat="44.2975112" lon="11.4413958"><ele>308.8</ele><time>2026-04-04T09:00:37.791Z</time></trkpt><trkpt lat="44.2974442" lon="11.4412617"><ele>313.0</ele><time>2026-04-04T09:00:39.789Z</time></trkpt><trkpt lat="44.2973448" lon="11.4411535"><ele>314.0</ele><time>2026-04-04T09:00:41.791Z</time></trkpt><trkpt lat="44.2972873" lon="11.441113"><ele>315.0</ele><time>2026-04-04T09:00:42.793Z</time></trkpt><trkpt lat="44.2971992" lon="11.4410058"><ele>316.0</ele><time>2026-04-04T09:00:44.79Z</time></trkpt><trkpt lat="44.2971463" lon="11.4408593"><ele>317.0</ele><time>2026-04-04T09:00:46.787Z</time></trkpt><trkpt lat="44.2970728" lon="11.4407317"><ele>318.0</ele><time>2026-04-04T09:00:48.79Z</time></trkpt><trkpt lat="44.2970492" lon="11.4406493"><ele>318.0</ele><time>2026-04-04T09:00:49.791Z</time></trkpt><trkpt lat="44.29702" lon="11.4404815"><ele>318.0</ele><time>2026-04-04T09:00:51.791Z</time></trkpt><trkpt lat="44.2970393" lon="11.4403172"><ele>318.0</ele><time>2026-04-04T09:00:53.79Z</time></trkpt><trkpt lat="44.2970708" lon="11.4402338"><ele>318.0</ele><time>2026-04-04T09:00:54.793Z</time></trkpt><trkpt lat="44.2970967" lon="11.4401502"><ele>318.0</ele><time>2026-04-04T09:00:55.791Z</time></trkpt><trkpt lat="44.2971097" lon="11.4400623"><ele>318.0</ele><time>2026-04-04T09:00:56.791Z</time></trkpt><trkpt lat="44.2971172" lon="11.4399708"><ele>321.3333333333333</ele><time>2026-04-04T09:00:57.792Z</time></trkpt><trkpt lat="44.2971235" lon="11.4398803"><ele>324.6666666666667</ele><time>2026-04-04T09:00:58.791Z</time></trkpt><trkpt lat="44.2971347" lon="11.4397925"><ele>328.0</ele><time>2026-04-04T09:00:59.792Z</time></trkpt><trkpt lat="44.2971478" lon="11.439703"><ele>331.33333333333337</ele><time>2026-04-04T09:01:00.791Z</time></trkpt><trkpt lat="44.2971483" lon="11.439608"><ele>334.6666666666667</ele><time>2026-04-04T09:01:01.791Z</time></trkpt><trkpt lat="44.2971308" lon="11.4394415"><ele>338.0</ele><time>2026-04-04T09:01:03.79Z</time></trkpt><trkpt lat="44.2971192" lon="11.4393387"><ele>340.6666666666667</ele><time>2026-04-04T09:01:04.79Z</time></trkpt><trkpt lat="44.2971037" lon="11.439228"><ele>343.33333333333337</ele><time>2026-04-04T09:01:05.789Z</time></trkpt><trkpt lat="44.2970857" lon="11.4391065"><ele>346.0</ele><time>2026-04-04T09:01:06.79Z</time></trkpt><trkpt lat="44.2970672" lon="11.4389903"><ele>348.6666666666667</ele><time>2026-04-04T09:01:07.79Z</time></trkpt><trkpt lat="44.2970527" lon="11.4388792"><ele>351.3333333333333</ele><time>2026-04-04T09:01:08.791Z</time></trkpt><trkpt lat="44.2970573" lon="11.4387737"><ele>354.0</ele><time>2026-04-04T09:01:09.79Z</time></trkpt><trkpt lat="44.297075" lon="11.4386748"><ele>356.1666666666667</ele><time>2026-04-04T09:01:10.789Z</time></trkpt><trkpt lat="44.297076" lon="11.4385813"><ele>358.3333333333333</ele><time>2026-04-04T09:01:11.788Z</time></trkpt><trkpt lat="44.2970527" lon="11.4384925"><ele>360.5</ele><time>2026-04-04T09:01:12.79Z</time></trkpt><trkpt lat="44.2970105" lon="11.4384002"><ele>362.66666666666663</ele><time>2026-04-04T09:01:13.791Z</time></trkpt><trkpt lat="44.296959" lon="11.4383048"><ele>364.8333333333333</ele><time>2026-04-04T09:01:14.791Z</time></trkpt><trkpt lat="44.2969132" lon="11.4382047"><ele>367.0</ele><time>2026-04-04T09:01:15.79Z</time></trkpt><trkpt lat="44.2968827" lon="11.4381072"><ele>367.0</ele><time>2026-04-04T09:01:16.79Z</time></trkpt><trkpt lat="44.2968627" lon="11.438007"><ele>367.0</ele><time>2026-04-04T09:01:17.791Z</time></trkpt><trkpt lat="44.2968402" lon="11.4378997"><ele>367.0</ele><time>2026-04-04T09:01:18.791Z</time></trkpt><trkpt lat="44.2968065" lon="11.4377932"><ele>367.0</ele><time>2026-04-04T09:01:19.792Z</time></trkpt><trkpt lat="44.2967662" lon="11.437683"><ele>367.0</ele><time>2026-04-04T09:01:20.792Z</time></trkpt><trkpt lat="44.2967257" lon="11.4375633"><ele>367.0</ele><time>2026-04-04T09:01:21.79Z</time></trkpt><trkpt lat="44.2966902" lon="11.4374443"><ele>369.20000000000005</ele><time>2026-04-04T09:01:22.791Z</time></trkpt><trkpt lat="44.2966587" lon="11.4373195"><ele>371.4</ele><time>2026-04-04T09:01:23.789Z</time></trkpt><trkpt lat="44.2966297" lon="11.437193"><ele>373.6</ele><time>2026-04-04T09:01:24.79Z</time></trkpt><trkpt lat="44.2965917" lon="11.4370735"><ele>375.79999999999995</ele><time>2026-04-04T09:01:25.789Z</time></trkpt><trkpt lat="44.2965443" lon="11.4369658"><ele>378.0</ele><time>2026-04-04T09:01:26.791Z</time></trkpt><trkpt lat="44.296492" lon="11.4368382"><ele>379.5</ele><time>2026-04-04T09:01:27.79Z</time></trkpt><trkpt lat="44.2964413" lon="11.4366893"><ele>381.0</ele><time>2026-04-04T09:01:28.791Z</time></trkpt><trkpt lat="44.2963915" lon="11.4365192"><ele>382.5</ele><time>2026-04-04T09:01:29.791Z</time></trkpt><trkpt lat="44.296347" lon="11.4363498"><ele>384.0</ele><time>2026-04-04T09:01:30.79Z</time></trkpt><trkpt lat="44.296291" lon="11.436181"><ele>386.6</ele><time>2026-04-04T09:01:31.791Z</time></trkpt><trkpt lat="44.296239" lon="11.4360412"><ele>389.2</ele><time>2026-04-04T09:01:32.79Z</time></trkpt><trkpt lat="44.296199" lon="11.4359178"><ele>391.8</ele><time>2026-04-04T09:01:33.788Z</time></trkpt><trkpt lat="44.2961668" lon="11.4357912"><ele>394.40000000000003</ele><time>2026-04-04T09:01:34.789Z</time></trkpt><trkpt lat="44.2961508" lon="11.4356633"><ele>397.0</ele><time>2026-04-04T09:01:35.789Z</time></trkpt><trkpt lat="44.2961513" lon="11.4355485"><ele>398.6</ele><time>2026-04-04T09:01:36.789Z</time></trkpt><trkpt lat="44.2961677" lon="11.43544"><ele>400.20000000000005</ele><time>2026-04-04T09:01:37.791Z</time></trkpt><trkpt lat="44.2961922" lon="11.4353192"><ele>401.8</ele><time>2026-04-04T09:01:38.791Z</time></trkpt><trkpt lat="44.296212" lon="11.4351808"><ele>403.4</ele><time>2026-04-04T09:01:39.789Z</time></trkpt><trkpt lat="44.2962273" lon="11.4350268"><ele>405.0</ele><time>2026-04-04T09:01:40.791Z</time></trkpt><trkpt lat="44.2962393" lon="11.4348558"><ele>405.0</ele><time>2026-04-04T09:01:41.792Z</time></trkpt><trkpt lat="44.2962438" lon="11.4346902"><ele>405.0</ele><time>2026-04-04T09:01:42.789Z</time></trkpt><trkpt lat="44.2962327" lon="11.4345475"><ele>405.0</ele><time>2026-04-04T09:01:43.79Z</time></trkpt><trkpt lat="44.2962127" lon="11.4344155"><ele>405.0</ele><time>2026-04-04T09:01:44.791Z</time></trkpt><trkpt lat="44.2961907" lon="11.4343087"><ele>405.0</ele><time>2026-04-04T09:01:45.79Z</time></trkpt><trkpt lat="44.296165" lon="11.4342262"><ele>408.4</ele><time>2026-04-04T09:01:46.79Z</time></trkpt><trkpt lat="44.2960945" lon="11.4340763"><ele>411.8</ele><time>2026-04-04T09:01:48.79Z</time></trkpt><trkpt lat="44.2960567" lon="11.4340003"><ele>415.20000000000005</ele><time>2026-04-04T09:01:49.79Z</time></trkpt><trkpt lat="44.2959883" lon="11.4338712"><ele>418.6</ele><time>2026-04-04T09:01:51.789Z</time></trkpt><trkpt lat="44.295972" lon="11.4337682"><ele>422.0</ele><time>2026-04-04T09:01:53.79Z</time></trkpt><trkpt lat="44.2959713" lon="11.4336597"><ele>424.40000000000003</ele><time>2026-04-04T09:01:55.79Z</time></trkpt><trkpt lat="44.2959717" lon="11.4335693"><ele>426.8</ele><time>2026-04-04T09:01:57.787Z</time></trkpt><trkpt lat="44.2959532" lon="11.4334478"><ele>429.2</ele><time>2026-04-04T09:01:59.786Z</time></trkpt><trkpt lat="44.2959343" lon="11.4332998"><ele>431.6</ele><time>2026-04-04T09:02:01.789Z</time></trkpt><trkpt lat="44.2958957" lon="11.4331505"><ele>434.0</ele><time>2026-04-04T09:02:03.789Z</time></trkpt><trkpt lat="44.2958743" lon="11.4329848"><ele>436.2</ele><time>2026-04-04T09:02:05.798Z</time></trkpt><trkpt lat="44.2958663" lon="11.4328198"><ele>438.4</ele><time>2026-04-04T09:02:07.801Z</time></trkpt><trkpt lat="44.2958502" lon="11.432663"><ele>440.6</ele><time>2026-04-04T09:02:09.802Z</time></trkpt><trkpt lat="44.295844" lon="11.4325438"><ele>442.8</ele><time>2026-04-04T09:02:11.789Z</time></trkpt><trkpt lat="44.2958377" lon="11.432437"><ele>445.0</ele><time>2026-04-04T09:02:13.789Z</time></trkpt><trkpt lat="44.2958107" lon="11.4323397"><ele>445.0</ele><time>2026-04-04T09:02:16.791Z</time></trkpt><trkpt lat="44.2958412" lon="11.4324312"><ele>445.0</ele><time>2026-04-04T09:02:30.79Z</time></trkpt><trkpt lat="44.295756" lon="11.432464"><ele>445.0</ele><time>2026-04-04T09:02:36.79Z</time></trkpt><trkpt lat="44.295648" lon="11.4324193"><ele>445.0</ele><time>2026-04-04T09:02:38.8Z</time></trkpt><trkpt lat="44.2955238" lon="11.4323808"><ele>445.0</ele><time>2026-04-04T09:02:40.789Z</time></trkpt><trkpt lat="44.2954497" lon="11.4323598"><ele>445.6</ele><time>2026-04-04T09:02:41.789Z</time></trkpt><trkpt lat="44.2953762" lon="11.4323323"><ele>446.2</ele><time>2026-04-04T09:02:42.792Z</time></trkpt><trkpt lat="44.2953002" lon="11.4322865"><ele>446.79999999999995</ele><time>2026-04-04T09:02:43.791Z</time></trkpt><trkpt lat="44.2952345" lon="11.432234"><ele>447.4</ele><time>2026-04-04T09:02:44.788Z</time></trkpt><trkpt lat="44.2951625" lon="11.4321225"><ele>448.0</ele><time>2026-04-04T09:02:46.799Z</time></trkpt><trkpt lat="44.2951012" lon="11.4319663"><ele>449.59999999999997</ele><time>2026-04-04T09:02:48.798Z</time></trkpt><trkpt lat="44.2950707" lon="11.43186"><ele>451.19999999999993</ele><time>2026-04-04T09:02:49.802Z</time></trkpt><trkpt lat="44.2950477" lon="11.4317313"><ele>452.8</ele><time>2026-04-04T09:02:50.801Z</time></trkpt><trkpt lat="44.2950298" lon="11.4315925"><ele>454.4</ele><time>2026-04-04T09:02:51.802Z</time></trkpt><trkpt lat="44.2950113" lon="11.4314555"><ele>456.0</ele><time>2026-04-04T09:02:52.801Z</time></trkpt><trkpt lat="44.294989" lon="11.431331"><ele>457.0</ele><time>2026-04-04T09:02:53.8Z</time></trkpt><trkpt lat="44.2949618" lon="11.4312232"><ele>458.0</ele><time>2026-04-04T09:02:54.801Z</time></trkpt><trkpt lat="44.2949303" lon="11.4311128"><ele>459.0</ele><time>2026-04-04T09:02:55.802Z</time></trkpt><trkpt lat="44.2948972" lon="11.4309843"><ele>460.0</ele><time>2026-04-04T09:02:56.801Z</time></trkpt><trkpt lat="44.2948618" lon="11.4308338"><ele>461.0</ele><time>2026-04-04T09:02:57.803Z</time></trkpt><trkpt lat="44.2948233" lon="11.4306645"><ele>461.0</ele><time>2026-04-04T09:02:58.803Z</time></trkpt><trkpt lat="44.2947813" lon="11.4304748"><ele>461.0</ele><time>2026-04-04T09:02:59.791Z</time></trkpt><trkpt lat="44.2947408" lon="11.4302702"><ele>461.0</ele><time>2026-04-04T09:03:00.79Z</time></trkpt><trkpt lat="44.2947058" lon="11.4300552"><ele>464.5</ele><time>2026-04-04T09:03:01.792Z</time></trkpt><trkpt lat="44.2946805" lon="11.4298607"><ele>468.0</ele><time>2026-04-04T09:03:02.792Z</time></trkpt><trkpt lat="44.2946647" lon="11.4296862"><ele>471.5</ele><time>2026-04-04T09:03:03.791Z</time></trkpt><trkpt lat="44.294651" lon="11.4295228"><ele>475.0</ele><time>2026-04-04T09:03:04.793Z</time></trkpt><trkpt lat="44.2946347" lon="11.4293668"><ele>475.83333333333337</ele><time>2026-04-04T09:03:05.79Z</time></trkpt><trkpt lat="44.294613" lon="11.4292347"><ele>476.6666666666667</ele><time>2026-04-04T09:03:06.792Z</time></trkpt><trkpt lat="44.2945855" lon="11.4291198"><ele>477.5</ele><time>2026-04-04T09:03:07.789Z</time></trkpt><trkpt lat="44.294548" lon="11.429021"><ele>478.33333333333337</ele><time>2026-04-04T09:03:08.789Z</time></trkpt><trkpt lat="44.2944965" lon="11.4289482"><ele>479.1666666666667</ele><time>2026-04-04T09:03:09.789Z</time></trkpt><trkpt lat="44.2944255" lon="11.4289002"><ele>480.0</ele><time>2026-04-04T09:03:10.789Z</time></trkpt><trkpt lat="44.2943422" lon="11.4288615"><ele>480.0</ele><time>2026-04-04T09:03:11.788Z</time></trkpt><trkpt lat="44.294254" lon="11.4288138"><ele>480.0</ele><time>2026-04-04T09:03:12.787Z</time></trkpt><trkpt lat="44.294174" lon="11.4287497"><ele>480.0</ele><time>2026-04-04T09:03:13.788Z</time></trkpt><trkpt lat="44.2941093" lon="11.428662"><ele>480.0</ele><time>2026-04-04T09:03:14.787Z</time></trkpt><trkpt lat="44.2940565" lon="11.4285547"><ele>480.0</ele><time>2026-04-04T09:03:15.789Z</time></trkpt><trkpt lat="44.2940207" lon="11.4284315"><ele>481.5</ele><time>2026-04-04T09:03:16.791Z</time></trkpt><trkpt lat="44.2939965" lon="11.4282998"><ele>483.0</ele><time>2026-04-04T09:03:17.79Z</time></trkpt><trkpt lat="44.293984" lon="11.4281812"><ele>484.5</ele><time>2026-04-04T09:03:18.79Z</time></trkpt><trkpt lat="44.2939915" lon="11.4280863"><ele>486.0</ele><time>2026-04-04T09:03:19.79Z</time></trkpt><trkpt lat="44.2940252" lon="11.4280115"><ele>487.5</ele><time>2026-04-04T09:03:20.789Z</time></trkpt><trkpt lat="44.2940808" lon="11.427955"><ele>489.0</ele><time>2026-04-04T09:03:21.79Z</time></trkpt><trkpt lat="44.2941417" lon="11.4279038"><ele>490.5</ele><time>2026-04-04T09:03:22.79Z</time></trkpt><trkpt lat="44.2941807" lon="11.427834"><ele>492.0</ele><time>2026-04-04T09:03:23.789Z</time></trkpt><trkpt lat="44.294199" lon="11.4276822"><ele>493.5</ele><time>2026-04-04T09:03:25.791Z</time></trkpt><trkpt lat="44.2941733" lon="11.4275903"><ele>495.0</ele><time>2026-04-04T09:03:27.791Z</time></trkpt><trkpt lat="44.2941022" lon="11.427543"><ele>496.5</ele><time>2026-04-04T09:03:30.79Z</time></trkpt><trkpt lat="44.2940807" lon="11.4274375"><ele>498.0</ele><time>2026-04-04T09:03:52.79Z</time></trkpt><trkpt lat="44.2940057" lon="11.4273688"><ele>499.1666666666667</ele><time>2026-04-04T09:03:54.788Z</time></trkpt><trkpt lat="44.293918" lon="11.4272818"><ele>500.33333333333337</ele><time>2026-04-04T09:03:56.79Z</time></trkpt><trkpt lat="44.2938257" lon="11.4271612"><ele>501.5</ele><time>2026-04-04T09:03:58.792Z</time></trkpt><trkpt lat="44.293777" lon="11.4271017"><ele>502.6666666666667</ele><time>2026-04-04T09:03:59.79Z</time></trkpt><trkpt lat="44.2937198" lon="11.4270462"><ele>503.83333333333337</ele><time>2026-04-04T09:04:00.788Z</time></trkpt><trkpt lat="44.2936572" lon="11.4269932"><ele>505.0</ele><time>2026-04-04T09:04:01.787Z</time></trkpt><trkpt lat="44.2935922" lon="11.4269508"><ele>505.85714285714283</ele><time>2026-04-04T09:04:02.789Z</time></trkpt><trkpt lat="44.2935262" lon="11.426931"><ele>506.71428571428567</ele><time>2026-04-04T09:04:03.787Z</time></trkpt><trkpt lat="44.2934563" lon="11.4269132"><ele>507.57142857142856</ele><time>2026-04-04T09:04:04.79Z</time></trkpt><trkpt lat="44.2933898" lon="11.4268908"><ele>508.42857142857144</ele><time>2026-04-04T09:04:05.792Z</time></trkpt><trkpt lat="44.2933292" lon="11.4268563"><ele>509.2857142857143</ele><time>2026-04-04T09:04:06.789Z</time></trkpt><trkpt lat="44.2932732" lon="11.4268132"><ele>510.1428571428571</ele><time>2026-04-04T09:04:07.79Z</time></trkpt><trkpt lat="44.2931725" lon="11.4267425"><ele>511.0</ele><time>2026-04-04T09:04:09.79Z</time></trkpt><trkpt lat="44.2930658" lon="11.426657"><ele>511.0</ele><time>2026-04-04T09:04:11.79Z</time></trkpt><trkpt lat="44.2929743" lon="11.4265627"><ele>511.0</ele><time>2026-04-04T09:04:13.791Z</time></trkpt><trkpt lat="44.2929272" lon="11.4264347"><ele>511.0</ele><time>2026-04-04T09:04:15.791Z</time></trkpt><trkpt lat="44.2928642" lon="11.4263233"><ele>511.0</ele><time>2026-04-04T09:04:17.802Z</time></trkpt><trkpt lat="44.292834" lon="11.4261682"><ele>511.0</ele><time>2026-04-04T09:04:19.788Z</time></trkpt><trkpt lat="44.2928332" lon="11.4260755"><ele>513.4285714285714</ele><time>2026-04-04T09:04:20.788Z</time></trkpt><trkpt lat="44.292836" lon="11.4259747"><ele>515.8571428571429</ele><time>2026-04-04T09:04:21.791Z</time></trkpt><trkpt lat="44.2928328" lon="11.4258842"><ele>518.2857142857142</ele><time>2026-04-04T09:04:22.787Z</time></trkpt><trkpt lat="44.2928172" lon="11.4257947"><ele>520.7142857142858</ele><time>2026-04-04T09:04:23.789Z</time></trkpt><trkpt lat="44.2928017" lon="11.4256982"><ele>523.1428571428571</ele><time>2026-04-04T09:04:24.787Z</time></trkpt><trkpt lat="44.2927982" lon="11.4256018"><ele>525.5714285714286</ele><time>2026-04-04T09:04:25.787Z</time></trkpt><trkpt lat="44.2927838" lon="11.4254862"><ele>528.0</ele><time>2026-04-04T09:04:27.786Z</time></trkpt><trkpt lat="44.2927407" lon="11.4254183"><ele>528.5714285714286</ele><time>2026-04-04T09:04:29.79Z</time></trkpt><trkpt lat="44.2926947" lon="11.4253348"><ele>529.1428571428571</ele><time>2026-04-04T09:04:31.802Z</time></trkpt><trkpt lat="44.292653" lon="11.4252478"><ele>529.7142857142858</ele><time>2026-04-04T09:04:33.801Z</time></trkpt><trkpt lat="44.2926192" lon="11.4251572"><ele>530.2857142857142</ele><time>2026-04-04T09:04:36.789Z</time></trkpt><trkpt lat="44.2926255" lon="11.425063"><ele>530.8571428571429</ele><time>2026-04-04T09:05:02.788Z</time></trkpt><trkpt lat="44.2925835" lon="11.4249858"><ele>531.4285714285714</ele><time>2026-04-04T09:05:08.788Z</time></trkpt><trkpt lat="44.2925238" lon="11.424936"><ele>532.0</ele><time>2026-04-04T09:05:10.789Z</time></trkpt><trkpt lat="44.2924547" lon="11.4249275"><ele>532.0</ele><time>2026-04-04T09:05:12.79Z</time></trkpt><trkpt lat="44.2923887" lon="11.4248665"><ele>532.0</ele><time>2026-04-04T09:05:14.788Z</time></trkpt><trkpt lat="44.292338" lon="11.424812"><ele>532.0</ele><time>2026-04-04T09:05:15.787Z</time></trkpt><trkpt lat="44.2922743" lon="11.4247528"><ele>532.0</ele><time>2026-04-04T09:05:16.786Z</time></trkpt><trkpt lat="44.2922213" lon="11.4247035"><ele>532.0</ele><time>2026-04-04T09:05:17.788Z</time></trkpt><trkpt lat="44.2921315" lon="11.4246395"><ele>532.0</ele><time>2026-04-04T09:05:19.788Z</time></trkpt><trkpt lat="44.2920215" lon="11.4246085"><ele>534.4</ele><time>2026-04-04T09:05:21.796Z</time></trkpt><trkpt lat="44.2919303" lon="11.4245933"><ele>536.8000000000001</ele><time>2026-04-04T09:05:23.786Z</time></trkpt><trkpt lat="44.2918362" lon="11.4246168"><ele>539.2</ele><time>2026-04-04T09:05:25.788Z</time></trkpt><trkpt lat="44.2917473" lon="11.424632"><ele>541.6</ele><time>2026-04-04T09:05:27.787Z</time></trkpt><trkpt lat="44.2916387" lon="11.4246382"><ele>544.0</ele><time>2026-04-04T09:05:29.786Z</time></trkpt><trkpt lat="44.2915158" lon="11.4246507"><ele>546.6</ele><time>2026-04-04T09:05:31.787Z</time></trkpt><trkpt lat="44.2914153" lon="11.4246565"><ele>549.2</ele><time>2026-04-04T09:05:33.788Z</time></trkpt><trkpt lat="44.2913173" lon="11.4247073"><ele>551.8000000000001</ele><time>2026-04-04T09:05:35.787Z</time></trkpt><trkpt lat="44.2912287" lon="11.424737"><ele>554.4</ele><time>2026-04-04T09:05:37.787Z</time></trkpt><trkpt lat="44.2911225" lon="11.4247322"><ele>557.0</ele><time>2026-04-04T09:05:39.785Z</time></trkpt><trkpt lat="44.2910212" lon="11.4247353"><ele>557.0</ele><time>2026-04-04T09:05:41.785Z</time></trkpt><trkpt lat="44.290956" lon="11.4247473"><ele>557.0</ele><time>2026-04-04T09:05:43.788Z</time></trkpt><trkpt lat="44.290859" lon="11.4247512"><ele>557.0</ele><time>2026-04-04T09:05:46.789Z</time></trkpt><trkpt lat="44.2907883" lon="11.4247107"><ele>557.0</ele><time>2026-04-04T09:05:48.788Z</time></trkpt><trkpt lat="44.2907157" lon="11.4246977"><ele>557.0</ele><time>2026-04-04T09:05:50.786Z</time></trkpt><trkpt lat="44.2906425" lon="11.4246857"><ele>557.0</ele><time>2026-04-04T09:05:52.788Z</time></trkpt><trkpt lat="44.2905827" lon="11.424628"><ele>556.3333333333333</ele><time>2026-04-04T09:05:54.788Z</time></trkpt><trkpt lat="44.2905272" lon="11.424568"><ele>555.6666666666666</ele><time>2026-04-04T09:05:56.787Z</time></trkpt><trkpt lat="44.2904355" lon="11.4245785"><ele>555.0</ele><time>2026-04-04T09:05:58.787Z</time></trkpt><trkpt lat="44.290336" lon="11.4245757"><ele>554.3333333333334</ele><time>2026-04-04T09:06:00.789Z</time></trkpt><trkpt lat="44.2902503" lon="11.424561"><ele>553.6666666666667</ele><time>2026-04-04T09:06:02.786Z</time></trkpt><trkpt lat="44.2901762" lon="11.4245845"><ele>553.0</ele><time>2026-04-04T09:06:04.784Z</time></trkpt><trkpt lat="44.290092" lon="11.424556"><ele>553.0</ele><time>2026-04-04T09:06:06.788Z</time></trkpt><trkpt lat="44.2900203" lon="11.4244505"><ele>553.0</ele><time>2026-04-04T09:06:08.789Z</time></trkpt><trkpt lat="44.2899532" lon="11.4243727"><ele>553.0</ele><time>2026-04-04T09:06:10.789Z</time></trkpt><trkpt lat="44.2898825" lon="11.4243562"><ele>553.0</ele><time>2026-04-04T09:06:17.787Z</time></trkpt><trkpt lat="44.2898077" lon="11.4243418"><ele>553.0</ele><time>2026-04-04T09:06:21.788Z</time></trkpt><trkpt lat="44.2897793" lon="11.4242285"><ele>553.0</ele><time>2026-04-04T09:06:24.79Z</time></trkpt><trkpt lat="44.2897298" lon="11.424152"><ele>552.5</ele><time>2026-04-04T09:06:26.788Z</time></trkpt><trkpt lat="44.2896673" lon="11.4241153"><ele>552.0</ele><time>2026-04-04T09:06:28.785Z</time></trkpt><trkpt lat="44.289587" lon="11.4240592"><ele>551.5</ele><time>2026-04-04T09:06:31.791Z</time></trkpt><trkpt lat="44.2895237" lon="11.4240392"><ele>551.0</ele><time>2026-04-04T09:06:33.784Z</time></trkpt><trkpt lat="44.289437" lon="11.4240353"><ele>550.5</ele><time>2026-04-04T09:06:36.786Z</time></trkpt><trkpt lat="44.2893527" lon="11.4239778"><ele>550.0</ele><time>2026-04-04T09:06:38.786Z</time></trkpt><trkpt lat="44.2892532" lon="11.4239352"><ele>550.0</ele><time>2026-04-04T09:06:40.787Z</time></trkpt><trkpt lat="44.2891743" lon="11.4239335"><ele>550.0</ele><time>2026-04-04T09:06:41.786Z</time></trkpt><trkpt lat="44.2890912" lon="11.4239115"><ele>550.0</ele><time>2026-04-04T09:06:42.786Z</time></trkpt><trkpt lat="44.2890175" lon="11.4238858"><ele>550.0</ele><time>2026-04-04T09:06:43.786Z</time></trkpt><trkpt lat="44.2889033" lon="11.423871"><ele>550.0</ele><time>2026-04-04T09:06:45.788Z</time></trkpt><trkpt lat="44.2888363" lon="11.4238607"><ele>550.0</ele><time>2026-04-04T09:06:46.787Z</time></trkpt><trkpt lat="44.2887287" lon="11.4238383"><ele>550.2</ele><time>2026-04-04T09:06:48.788Z</time></trkpt><trkpt lat="44.2886562" lon="11.4238072"><ele>550.4</ele><time>2026-04-04T09:06:50.79Z</time></trkpt><trkpt lat="44.2885908" lon="11.423834"><ele>550.6</ele><time>2026-04-04T09:06:52.785Z</time></trkpt><trkpt lat="44.28852" lon="11.423911"><ele>550.8</ele><time>2026-04-04T09:06:54.786Z</time></trkpt><trkpt lat="44.2884407" lon="11.4239987"><ele>551.0</ele><time>2026-04-04T09:06:56.791Z</time></trkpt><trkpt lat="44.2883347" lon="11.4240897"><ele>551.3333333333333</ele><time>2026-04-04T09:06:58.788Z</time></trkpt><trkpt lat="44.2882657" lon="11.4241282"><ele>551.6666666666666</ele><time>2026-04-04T09:06:59.789Z</time></trkpt><trkpt lat="44.2881933" lon="11.4241635"><ele>552.0</ele><time>2026-04-04T09:07:00.788Z</time></trkpt><trkpt lat="44.2881192" lon="11.4241987"><ele>552.3333333333334</ele><time>2026-04-04T09:07:01.79Z</time></trkpt><trkpt lat="44.2880397" lon="11.4242372"><ele>552.6666666666667</ele><time>2026-04-04T09:07:02.788Z</time></trkpt><trkpt lat="44.2879623" lon="11.4242698"><ele>553.0</ele><time>2026-04-04T09:07:03.789Z</time></trkpt><trkpt lat="44.2878915" lon="11.4243002"><ele>551.8333333333334</ele><time>2026-04-04T09:07:04.79Z</time></trkpt><trkpt lat="44.2878193" lon="11.4243347"><ele>550.6666666666667</ele><time>2026-04-04T09:07:05.79Z</time></trkpt><trkpt lat="44.2877483" lon="11.424382"><ele>549.5</ele><time>2026-04-04T09:07:06.79Z</time></trkpt><trkpt lat="44.2876807" lon="11.4244418"><ele>548.3333333333334</ele><time>2026-04-04T09:07:07.79Z</time></trkpt><trkpt lat="44.2876203" lon="11.4245008"><ele>547.1666666666666</ele><time>2026-04-04T09:07:08.788Z</time></trkpt><trkpt lat="44.2875683" lon="11.4245562"><ele>546.0</ele><time>2026-04-04T09:07:09.789Z</time></trkpt><trkpt lat="44.2874697" lon="11.4246187"><ele>546.0</ele><time>2026-04-04T09:07:11.788Z</time></trkpt><trkpt lat="44.287348" lon="11.4246137"><ele>546.0</ele><time>2026-04-04T09:07:13.79Z</time></trkpt><trkpt lat="44.2872187" lon="11.424571"><ele>546.0</ele><time>2026-04-04T09:07:15.787Z</time></trkpt><trkpt lat="44.2871515" lon="11.4245392"><ele>546.0</ele><time>2026-04-04T09:07:16.787Z</time></trkpt><trkpt lat="44.2870872" lon="11.4244955"><ele>546.0</ele><time>2026-04-04T09:07:17.786Z</time></trkpt><trkpt lat="44.2870317" lon="11.4244448"><ele>544.1666666666666</ele><time>2026-04-04T09:07:18.785Z</time></trkpt><trkpt lat="44.2869767" lon="11.4243872"><ele>542.3333333333334</ele><time>2026-04-04T09:07:19.788Z</time></trkpt><trkpt lat="44.2868908" lon="11.4242793"><ele>540.5</ele><time>2026-04-04T09:07:21.788Z</time></trkpt><trkpt lat="44.2868253" lon="11.4242588"><ele>538.6666666666667</ele><time>2026-04-04T09:07:22.788Z</time></trkpt><trkpt lat="44.286753" lon="11.4242505"><ele>536.8333333333334</ele><time>2026-04-04T09:07:23.791Z</time></trkpt><trkpt lat="44.286676" lon="11.4242543"><ele>535.0</ele><time>2026-04-04T09:07:24.788Z</time></trkpt><trkpt lat="44.2866018" lon="11.424267"><ele>535.0</ele><time>2026-04-04T09:07:25.79Z</time></trkpt><trkpt lat="44.2865318" lon="11.4242807"><ele>535.0</ele><time>2026-04-04T09:07:26.79Z</time></trkpt><trkpt lat="44.2864683" lon="11.4242948"><ele>535.0</ele><time>2026-04-04T09:07:27.789Z</time></trkpt><trkpt lat="44.2863605" lon="11.4243153"><ele>535.0</ele><time>2026-04-04T09:07:29.791Z</time></trkpt><trkpt lat="44.2862303" lon="11.4243333"><ele>535.0</ele><time>2026-04-04T09:07:31.791Z</time></trkpt><trkpt lat="44.2861472" lon="11.4243533"><ele>533.8</ele><time>2026-04-04T09:07:32.791Z</time></trkpt><trkpt lat="44.2860672" lon="11.4243768"><ele>532.6</ele><time>2026-04-04T09:07:33.792Z</time></trkpt><trkpt lat="44.286002" lon="11.4244008"><ele>531.4</ele><time>2026-04-04T09:07:34.789Z</time></trkpt><trkpt lat="44.285889" lon="11.4244457"><ele>530.2</ele><time>2026-04-04T09:07:36.789Z</time></trkpt><trkpt lat="44.2857835" lon="11.4244643"><ele>529.0</ele><time>2026-04-04T09:07:38.791Z</time></trkpt><trkpt lat="44.285664" lon="11.4244728"><ele>528.6666666666667</ele><time>2026-04-04T09:07:40.789Z</time></trkpt><trkpt lat="44.2855882" lon="11.4244642"><ele>528.3333333333334</ele><time>2026-04-04T09:07:41.788Z</time></trkpt><trkpt lat="44.285505" lon="11.4244493"><ele>528.0</ele><time>2026-04-04T09:07:42.789Z</time></trkpt><trkpt lat="44.2854147" lon="11.4244375"><ele>527.6666666666666</ele><time>2026-04-04T09:07:43.789Z</time></trkpt><trkpt lat="44.2853235" lon="11.4244288"><ele>527.3333333333333</ele><time>2026-04-04T09:07:44.789Z</time></trkpt><trkpt lat="44.2852293" lon="11.4244278"><ele>527.0</ele><time>2026-04-04T09:07:45.791Z</time></trkpt><trkpt lat="44.2851365" lon="11.4244268"><ele>527.0</ele><time>2026-04-04T09:07:46.79Z</time></trkpt><trkpt lat="44.2850523" lon="11.424433"><ele>527.0</ele><time>2026-04-04T09:07:47.79Z</time></trkpt><trkpt lat="44.2849663" lon="11.4244415"><ele>527.0</ele><time>2026-04-04T09:07:48.791Z</time></trkpt><trkpt lat="44.2848777" lon="11.4244518"><ele>527.0</ele><time>2026-04-04T09:07:49.79Z</time></trkpt><trkpt lat="44.2847852" lon="11.424467"><ele>527.0</ele><time>2026-04-04T09:07:50.791Z</time></trkpt><trkpt lat="44.2846938" lon="11.4244883"><ele>527.0</ele><time>2026-04-04T09:07:51.791Z</time></trkpt><trkpt lat="44.2846018" lon="11.4245113"><ele>527.0</ele><time>2026-04-04T09:07:52.791Z</time></trkpt><trkpt lat="44.2845085" lon="11.4245232"><ele>527.0</ele><time>2026-04-04T09:07:53.79Z</time></trkpt><trkpt lat="44.2844125" lon="11.4245292"><ele>527.0</ele><time>2026-04-04T09:07:54.79Z</time></trkpt><trkpt lat="44.2843163" lon="11.42455"><ele>527.0</ele><time>2026-04-04T09:07:55.791Z</time></trkpt><trkpt lat="44.2842227" lon="11.4245833"><ele>527.0</ele><time>2026-04-04T09:07:56.792Z</time></trkpt><trkpt lat="44.2841298" lon="11.4246173"><ele>527.0</ele><time>2026-04-04T09:07:57.793Z</time></trkpt><trkpt lat="44.2840332" lon="11.4246443"><ele>527.0</ele><time>2026-04-04T09:07:58.79Z</time></trkpt><trkpt lat="44.2839338" lon="11.42467"><ele>527.0</ele><time>2026-04-04T09:07:59.791Z</time></trkpt><trkpt lat="44.2838333" lon="11.4246958"><ele>527.0</ele><time>2026-04-04T09:08:00.791Z</time></trkpt><trkpt lat="44.2837315" lon="11.42472"><ele>527.0</ele><time>2026-04-04T09:08:01.792Z</time></trkpt><trkpt lat="44.2836288" lon="11.424742"><ele>530.6</ele><time>2026-04-04T09:08:02.791Z</time></trkpt><trkpt lat="44.2835248" lon="11.424754"><ele>534.2</ele><time>2026-04-04T09:08:03.791Z</time></trkpt><trkpt lat="44.2834148" lon="11.4247597"><ele>537.8</ele><time>2026-04-04T09:08:04.79Z</time></trkpt><trkpt lat="44.283302" lon="11.4247625"><ele>541.4</ele><time>2026-04-04T09:08:05.787Z</time></trkpt><trkpt lat="44.2831922" lon="11.4247615"><ele>545.0</ele><time>2026-04-04T09:08:06.788Z</time></trkpt><trkpt lat="44.2830857" lon="11.4247638"><ele>547.4</ele><time>2026-04-04T09:08:07.788Z</time></trkpt><trkpt lat="44.2829835" lon="11.4247743"><ele>549.8</ele><time>2026-04-04T09:08:08.786Z</time></trkpt><trkpt lat="44.2828857" lon="11.4247822"><ele>552.2</ele><time>2026-04-04T09:08:09.79Z</time></trkpt><trkpt lat="44.2827942" lon="11.4247683"><ele>554.6</ele><time>2026-04-04T09:08:10.79Z</time></trkpt><trkpt lat="44.2827058" lon="11.4247203"><ele>557.0</ele><time>2026-04-04T09:08:11.789Z</time></trkpt><trkpt lat="44.2826252" lon="11.4246475"><ele>556.4</ele><time>2026-04-04T09:08:12.789Z</time></trkpt><trkpt lat="44.2825447" lon="11.4245845"><ele>555.8000000000001</ele><time>2026-04-04T09:08:13.787Z</time></trkpt><trkpt lat="44.2824607" lon="11.4245473"><ele>555.2</ele><time>2026-04-04T09:08:14.785Z</time></trkpt><trkpt lat="44.2823715" lon="11.4245318"><ele>554.6</ele><time>2026-04-04T09:08:15.789Z</time></trkpt><trkpt lat="44.2822793" lon="11.4245318"><ele>554.0</ele><time>2026-04-04T09:08:16.79Z</time></trkpt><trkpt lat="44.282183" lon="11.4245352"><ele>554.0</ele><time>2026-04-04T09:08:17.785Z</time></trkpt><trkpt lat="44.2820878" lon="11.4245237"><ele>554.0</ele><time>2026-04-04T09:08:18.788Z</time></trkpt><trkpt lat="44.2820057" lon="11.424511"><ele>554.0</ele><time>2026-04-04T09:08:19.788Z</time></trkpt><trkpt lat="44.2819285" lon="11.4245155"><ele>554.0</ele><time>2026-04-04T09:08:20.785Z</time></trkpt><trkpt lat="44.2818507" lon="11.4245217"><ele>554.0</ele><time>2026-04-04T09:08:21.789Z</time></trkpt><trkpt lat="44.2817748" lon="11.4245297"><ele>554.0</ele><time>2026-04-04T09:08:22.786Z</time></trkpt><trkpt lat="44.2816578" lon="11.4245232"><ele>554.0</ele><time>2026-04-04T09:08:24.788Z</time></trkpt><trkpt lat="44.2815408" lon="11.4245098"><ele>554.0</ele><time>2026-04-04T09:08:26.786Z</time></trkpt><trkpt lat="44.2814317" lon="11.4245275"><ele>554.0</ele><time>2026-04-04T09:08:28.788Z</time></trkpt><trkpt lat="44.2813443" lon="11.4245672"><ele>554.0</ele><time>2026-04-04T09:08:30.786Z</time></trkpt><trkpt lat="44.2812692" lon="11.4245517"><ele>554.0</ele><time>2026-04-04T09:08:32.784Z</time></trkpt><trkpt lat="44.2811622" lon="11.4245428"><ele>555.4</ele><time>2026-04-04T09:08:34.787Z</time></trkpt><trkpt lat="44.2810478" lon="11.4245685"><ele>556.8</ele><time>2026-04-04T09:08:36.787Z</time></trkpt><trkpt lat="44.2809535" lon="11.4245498"><ele>558.2</ele><time>2026-04-04T09:08:38.788Z</time></trkpt><trkpt lat="44.2808468" lon="11.424573"><ele>559.6</ele><time>2026-04-04T09:08:40.788Z</time></trkpt><trkpt lat="44.2807842" lon="11.424603"><ele>561.0</ele><time>2026-04-04T09:08:41.787Z</time></trkpt><trkpt lat="44.2807198" lon="11.424637"><ele>563.4</ele><time>2026-04-04T09:08:42.788Z</time></trkpt><trkpt lat="44.280656" lon="11.4246788"><ele>565.8</ele><time>2026-04-04T09:08:43.788Z</time></trkpt><trkpt lat="44.2805993" lon="11.4247253"><ele>568.1999999999999</ele><time>2026-04-04T09:08:44.788Z</time></trkpt><trkpt lat="44.2805052" lon="11.424789"><ele>570.6</ele><time>2026-04-04T09:08:46.787Z</time></trkpt><trkpt lat="44.2803863" lon="11.4248132"><ele>573.0</ele><time>2026-04-04T09:08:48.786Z</time></trkpt><trkpt lat="44.2802762" lon="11.4248462"><ele>573.0</ele><time>2026-04-04T09:08:50.787Z</time></trkpt><trkpt lat="44.2802073" lon="11.4248738"><ele>573.0</ele><time>2026-04-04T09:08:52.79Z</time></trkpt><trkpt lat="44.2801452" lon="11.4249078"><ele>573.0</ele><time>2026-04-04T09:08:55.787Z</time></trkpt><trkpt lat="44.2800443" lon="11.424909"><ele>573.0</ele><time>2026-04-04T09:09:00.789Z</time></trkpt><trkpt lat="44.2799593" lon="11.4248435"><ele>573.0</ele><time>2026-04-04T09:09:02.789Z</time></trkpt><trkpt lat="44.2798752" lon="11.4247903"><ele>573.0</ele><time>2026-04-04T09:09:04.79Z</time></trkpt><trkpt lat="44.2798075" lon="11.4247775"><ele>572.0</ele><time>2026-04-04T09:09:07.79Z</time></trkpt><trkpt lat="44.2797398" lon="11.4247387"><ele>571.0</ele><time>2026-04-04T09:09:15.788Z</time></trkpt><trkpt lat="44.2796662" lon="11.4247028"><ele>570.0</ele><time>2026-04-04T09:09:19.787Z</time></trkpt><trkpt lat="44.2796083" lon="11.4246405"><ele>569.0</ele><time>2026-04-04T09:09:27.788Z</time></trkpt><trkpt lat="44.2795453" lon="11.4245623"><ele>568.0</ele><time>2026-04-04T09:09:31.788Z</time></trkpt><trkpt lat="44.2795443" lon="11.4244585"><ele>567.0</ele><time>2026-04-04T09:09:33.787Z</time></trkpt><trkpt lat="44.279558" lon="11.424358"><ele>567.0</ele><time>2026-04-04T09:09:35.787Z</time></trkpt><trkpt lat="44.2795482" lon="11.4242588"><ele>567.0</ele><time>2026-04-04T09:09:37.787Z</time></trkpt><trkpt lat="44.2794927" lon="11.424206"><ele>567.0</ele><time>2026-04-04T09:09:39.787Z</time></trkpt><trkpt lat="44.2794285" lon="11.42416"><ele>567.0</ele><time>2026-04-04T09:09:41.789Z</time></trkpt><trkpt lat="44.2793658" lon="11.4241738"><ele>567.0</ele><time>2026-04-04T09:09:43.786Z</time></trkpt><trkpt lat="44.2792628" lon="11.4242455"><ele>567.0</ele><time>2026-04-04T09:09:45.788Z</time></trkpt><trkpt lat="44.2791803" lon="11.4242843"><ele>567.0</ele><time>2026-04-04T09:09:47.789Z</time></trkpt><trkpt lat="44.2791122" lon="11.4243063"><ele>567.0</ele><time>2026-04-04T09:09:51.789Z</time></trkpt><trkpt lat="44.2790493" lon="11.4242772"><ele>567.0</ele><time>2026-04-04T09:09:56.789Z</time></trkpt><trkpt lat="44.278981" lon="11.4242732"><ele>567.0</ele><time>2026-04-04T09:09:58.79Z</time></trkpt><trkpt lat="44.2788617" lon="11.4242567"><ele>567.0</ele><time>2026-04-04T09:10:00.789Z</time></trkpt><trkpt lat="44.2787872" lon="11.4242427"><ele>567.0</ele><time>2026-04-04T09:10:01.79Z</time></trkpt><trkpt lat="44.278708" lon="11.4242268"><ele>567.7142857142857</ele><time>2026-04-04T09:10:02.79Z</time></trkpt><trkpt lat="44.2786363" lon="11.4242093"><ele>568.4285714285714</ele><time>2026-04-04T09:10:03.79Z</time></trkpt><trkpt lat="44.278567" lon="11.424187"><ele>569.1428571428571</ele><time>2026-04-04T09:10:04.79Z</time></trkpt><trkpt lat="44.2784995" lon="11.4241582"><ele>569.8571428571429</ele><time>2026-04-04T09:10:05.791Z</time></trkpt><trkpt lat="44.2784417" lon="11.424114"><ele>570.5714285714286</ele><time>2026-04-04T09:10:06.788Z</time></trkpt><trkpt lat="44.278385" lon="11.4240642"><ele>571.2857142857142</ele><time>2026-04-04T09:10:07.788Z</time></trkpt><trkpt lat="44.27832" lon="11.4240127"><ele>572.0</ele><time>2026-04-04T09:10:08.787Z</time></trkpt><trkpt lat="44.278262" lon="11.423957"><ele>572.0</ele><time>2026-04-04T09:10:09.785Z</time></trkpt><trkpt lat="44.278209" lon="11.4239077"><ele>572.0</ele><time>2026-04-04T09:10:10.789Z</time></trkpt><trkpt lat="44.278089" lon="11.4238793"><ele>572.0</ele><time>2026-04-04T09:10:12.791Z</time></trkpt><trkpt lat="44.2780265" lon="11.4238913"><ele>572.0</ele><time>2026-04-04T09:10:13.79Z</time></trkpt><trkpt lat="44.2779097" lon="11.4238862"><ele>572.0</ele><time>2026-04-04T09:10:15.79Z</time></trkpt><trkpt lat="44.2778137" lon="11.4238522"><ele>572.6</ele><time>2026-04-04T09:10:17.789Z</time></trkpt><trkpt lat="44.27772" lon="11.4237707"><ele>573.2</ele><time>2026-04-04T09:10:19.789Z</time></trkpt><trkpt lat="44.2776297" lon="11.4237337"><ele>573.8</ele><time>2026-04-04T09:10:21.788Z</time></trkpt><trkpt lat="44.2775668" lon="11.4236668"><ele>574.4</ele><time>2026-04-04T09:10:24.791Z</time></trkpt><trkpt lat="44.277495" lon="11.4236093"><ele>575.0</ele><time>2026-04-04T09:10:26.79Z</time></trkpt><trkpt lat="44.277438" lon="11.4235192"><ele>575.0</ele><time>2026-04-04T09:10:28.791Z</time></trkpt><trkpt lat="44.2773677" lon="11.4234117"><ele>575.0</ele><time>2026-04-04T09:10:30.79Z</time></trkpt><trkpt lat="44.2772698" lon="11.4233557"><ele>575.0</ele><time>2026-04-04T09:10:32.788Z</time></trkpt><trkpt lat="44.277172" lon="11.4233003"><ele>575.0</ele><time>2026-04-04T09:10:34.788Z</time></trkpt><trkpt lat="44.2770772" lon="11.4231887"><ele>575.0</ele><time>2026-04-04T09:10:36.791Z</time></trkpt><trkpt lat="44.2769655" lon="11.4231263"><ele>574.5</ele><time>2026-04-04T09:10:38.791Z</time></trkpt><trkpt lat="44.2768603" lon="11.4230647"><ele>574.0</ele><time>2026-04-04T09:10:40.791Z</time></trkpt><trkpt lat="44.2768005" lon="11.4230362"><ele>573.5</ele><time>2026-04-04T09:10:41.79Z</time></trkpt><trkpt lat="44.2767402" lon="11.4230062"><ele>573.0</ele><time>2026-04-04T09:10:42.79Z</time></trkpt><trkpt lat="44.2766808" lon="11.4229665"><ele>572.5</ele><time>2026-04-04T09:10:43.791Z</time></trkpt><trkpt lat="44.276621" lon="11.4229113"><ele>572.0</ele><time>2026-04-04T09:10:44.79Z</time></trkpt><trkpt lat="44.2765573" lon="11.422844"><ele>571.8333333333333</ele><time>2026-04-04T09:10:45.803Z</time></trkpt><trkpt lat="44.2764865" lon="11.4227777"><ele>571.6666666666666</ele><time>2026-04-04T09:10:46.803Z</time></trkpt><trkpt lat="44.2764123" lon="11.4227087"><ele>571.5</ele><time>2026-04-04T09:10:47.804Z</time></trkpt><trkpt lat="44.2763373" lon="11.4226408"><ele>571.3333333333334</ele><time>2026-04-04T09:10:48.803Z</time></trkpt><trkpt lat="44.2762605" lon="11.4225803"><ele>571.1666666666667</ele><time>2026-04-04T09:10:49.804Z</time></trkpt><trkpt lat="44.2761812" lon="11.4225223"><ele>571.0</ele><time>2026-04-04T09:10:50.804Z</time></trkpt><trkpt lat="44.276101" lon="11.4224635"><ele>571.5</ele><time>2026-04-04T09:10:51.803Z</time></trkpt><trkpt lat="44.276023" lon="11.4224015"><ele>572.0</ele><time>2026-04-04T09:10:52.802Z</time></trkpt><trkpt lat="44.2759475" lon="11.4223362"><ele>572.5</ele><time>2026-04-04T09:10:53.802Z</time></trkpt><trkpt lat="44.2758745" lon="11.4222642"><ele>573.0</ele><time>2026-04-04T09:10:54.803Z</time></trkpt><trkpt lat="44.2758073" lon="11.4221857"><ele>573.5</ele><time>2026-04-04T09:10:55.803Z</time></trkpt><trkpt lat="44.2757492" lon="11.4220968"><ele>574.0</ele><time>2026-04-04T09:10:56.798Z</time></trkpt><trkpt lat="44.2756985" lon="11.4219947"><ele>574.8333333333334</ele><time>2026-04-04T09:10:57.802Z</time></trkpt><trkpt lat="44.2756425" lon="11.4218928"><ele>575.6666666666667</ele><time>2026-04-04T09:10:58.796Z</time></trkpt><trkpt lat="44.2755727" lon="11.421812"><ele>576.5</ele><time>2026-04-04T09:10:59.798Z</time></trkpt><trkpt lat="44.2754948" lon="11.4217592"><ele>577.3333333333334</ele><time>2026-04-04T09:11:00.791Z</time></trkpt><trkpt lat="44.27541" lon="11.4217275"><ele>578.1666666666666</ele><time>2026-04-04T09:11:01.79Z</time></trkpt><trkpt lat="44.2753182" lon="11.4217168"><ele>579.0</ele><time>2026-04-04T09:11:02.789Z</time></trkpt><trkpt lat="44.2752222" lon="11.421723"><ele>580.2</ele><time>2026-04-04T09:11:03.789Z</time></trkpt><trkpt lat="44.2751245" lon="11.4217423"><ele>581.4</ele><time>2026-04-04T09:11:04.79Z</time></trkpt><trkpt lat="44.2750272" lon="11.4217705"><ele>582.6</ele><time>2026-04-04T09:11:05.79Z</time></trkpt><trkpt lat="44.2749255" lon="11.4217923"><ele>583.8</ele><time>2026-04-04T09:11:06.791Z</time></trkpt><trkpt lat="44.2748195" lon="11.4218053"><ele>585.0</ele><time>2026-04-04T09:11:07.791Z</time></trkpt><trkpt lat="44.274712" lon="11.4218223"><ele>585.2</ele><time>2026-04-04T09:11:08.79Z</time></trkpt><trkpt lat="44.2746063" lon="11.4218575"><ele>585.4</ele><time>2026-04-04T09:11:09.803Z</time></trkpt><trkpt lat="44.2745042" lon="11.4219183"><ele>585.6</ele><time>2026-04-04T09:11:10.8Z</time></trkpt><trkpt lat="44.2744075" lon="11.4219933"><ele>585.8</ele><time>2026-04-04T09:11:11.801Z</time></trkpt><trkpt lat="44.2743113" lon="11.4220588"><ele>586.0</ele><time>2026-04-04T09:11:12.802Z</time></trkpt><trkpt lat="44.27421" lon="11.422109"><ele>585.4</ele><time>2026-04-04T09:11:13.801Z</time></trkpt><trkpt lat="44.2741083" lon="11.4221522"><ele>584.8</ele><time>2026-04-04T09:11:14.801Z</time></trkpt><trkpt lat="44.2740077" lon="11.4221887"><ele>584.1999999999999</ele><time>2026-04-04T09:11:15.801Z</time></trkpt><trkpt lat="44.2739093" lon="11.4222"><ele>583.6</ele><time>2026-04-04T09:11:16.801Z</time></trkpt><trkpt lat="44.2738112" lon="11.422176"><ele>583.0</ele><time>2026-04-04T09:11:17.801Z</time></trkpt><trkpt lat="44.2737085" lon="11.4221252"><ele>583.0</ele><time>2026-04-04T09:11:18.801Z</time></trkpt><trkpt lat="44.2736023" lon="11.422075"><ele>583.0</ele><time>2026-04-04T09:11:19.791Z</time></trkpt><trkpt lat="44.2734933" lon="11.4220523"><ele>583.0</ele><time>2026-04-04T09:11:20.789Z</time></trkpt><trkpt lat="44.2733917" lon="11.4220473"><ele>583.0</ele><time>2026-04-04T09:11:21.789Z</time></trkpt><trkpt lat="44.2733013" lon="11.4220407"><ele>583.0</ele><time>2026-04-04T09:11:22.788Z</time></trkpt><trkpt lat="44.273218" lon="11.4220333"><ele>583.0</ele><time>2026-04-04T09:11:23.801Z</time></trkpt><trkpt lat="44.273135" lon="11.4220307"><ele>583.0</ele><time>2026-04-04T09:11:24.806Z</time></trkpt><trkpt lat="44.2730503" lon="11.4220315"><ele>583.0</ele><time>2026-04-04T09:11:25.804Z</time></trkpt><trkpt lat="44.2729652" lon="11.4220357"><ele>583.0</ele><time>2026-04-04T09:11:26.805Z</time></trkpt><trkpt lat="44.272884" lon="11.422038"><ele>583.0</ele><time>2026-04-04T09:11:27.806Z</time></trkpt><trkpt lat="44.2728098" lon="11.4220365"><ele>583.0</ele><time>2026-04-04T09:11:28.806Z</time></trkpt><trkpt lat="44.2727413" lon="11.4220367"><ele>583.0</ele><time>2026-04-04T09:11:29.794Z</time></trkpt><trkpt lat="44.272621" lon="11.4220407"><ele>583.0</ele><time>2026-04-04T09:11:31.791Z</time></trkpt><trkpt lat="44.272517" lon="11.4220403"><ele>583.0</ele><time>2026-04-04T09:11:33.791Z</time></trkpt><trkpt lat="44.2724002" lon="11.4220467"><ele>583.0</ele><time>2026-04-04T09:11:35.79Z</time></trkpt><trkpt lat="44.2723273" lon="11.42205"><ele>583.0</ele><time>2026-04-04T09:11:36.792Z</time></trkpt><trkpt lat="44.2722455" lon="11.4220537"><ele>583.4</ele><time>2026-04-04T09:11:37.793Z</time></trkpt><trkpt lat="44.2721565" lon="11.4220633"><ele>583.8</ele><time>2026-04-04T09:11:38.792Z</time></trkpt><trkpt lat="44.2720652" lon="11.4220802"><ele>584.2</ele><time>2026-04-04T09:11:39.792Z</time></trkpt><trkpt lat="44.2719715" lon="11.422103"><ele>584.6</ele><time>2026-04-04T09:11:40.793Z</time></trkpt><trkpt lat="44.2718758" lon="11.4221302"><ele>585.0</ele><time>2026-04-04T09:11:41.791Z</time></trkpt><trkpt lat="44.271778" lon="11.4221585"><ele>586.0</ele><time>2026-04-04T09:11:42.791Z</time></trkpt><trkpt lat="44.2716805" lon="11.4221822"><ele>587.0</ele><time>2026-04-04T09:11:43.791Z</time></trkpt><trkpt lat="44.2715828" lon="11.4221998"><ele>588.0</ele><time>2026-04-04T09:11:44.791Z</time></trkpt><trkpt lat="44.2714863" lon="11.4222092"><ele>589.0</ele><time>2026-04-04T09:11:45.791Z</time></trkpt><trkpt lat="44.2713903" lon="11.4222152"><ele>590.0</ele><time>2026-04-04T09:11:46.789Z</time></trkpt><trkpt lat="44.2712955" lon="11.4222172"><ele>590.0</ele><time>2026-04-04T09:11:47.788Z</time></trkpt><trkpt lat="44.2712023" lon="11.4222145"><ele>590.0</ele><time>2026-04-04T09:11:48.789Z</time></trkpt><trkpt lat="44.2711108" lon="11.4222112"><ele>590.0</ele><time>2026-04-04T09:11:49.791Z</time></trkpt><trkpt lat="44.2710213" lon="11.4222085"><ele>590.0</ele><time>2026-04-04T09:11:50.791Z</time></trkpt><trkpt lat="44.2709335" lon="11.422207"><ele>590.0</ele><time>2026-04-04T09:11:51.792Z</time></trkpt><trkpt lat="44.270847" lon="11.4222078"><ele>590.0</ele><time>2026-04-04T09:11:52.793Z</time></trkpt><trkpt lat="44.2707593" lon="11.4222117"><ele>590.0</ele><time>2026-04-04T09:11:53.79Z</time></trkpt><trkpt lat="44.270671" lon="11.4222147"><ele>590.0</ele><time>2026-04-04T09:11:54.792Z</time></trkpt><trkpt lat="44.2705912" lon="11.4222182"><ele>590.0</ele><time>2026-04-04T09:11:55.792Z</time></trkpt><trkpt lat="44.2705122" lon="11.4221885"><ele>590.0</ele><time>2026-04-04T09:11:57.791Z</time></trkpt><trkpt lat="44.2704347" lon="11.4221485"><ele>590.0</ele><time>2026-04-04T09:11:59.791Z</time></trkpt><trkpt lat="44.2703138" lon="11.4221562"><ele>591.1666666666666</ele><time>2026-04-04T09:12:01.791Z</time></trkpt><trkpt lat="44.2701965" lon="11.42217"><ele>592.3333333333333</ele><time>2026-04-04T09:12:03.791Z</time></trkpt><trkpt lat="44.2701283" lon="11.4221742"><ele>593.5</ele><time>2026-04-04T09:12:05.792Z</time></trkpt><trkpt lat="44.2700525" lon="11.4221302"><ele>594.6666666666666</ele><time>2026-04-04T09:12:08.805Z</time></trkpt><trkpt lat="44.2699752" lon="11.4221143"><ele>595.8333333333334</ele><time>2026-04-04T09:12:10.801Z</time></trkpt><trkpt lat="44.2699113" lon="11.4220887"><ele>597.0</ele><time>2026-04-04T09:12:12.8Z</time></trkpt><trkpt lat="44.2698242" lon="11.4220727"><ele>598.1666666666666</ele><time>2026-04-04T09:12:14.802Z</time></trkpt><trkpt lat="44.269734" lon="11.4220465"><ele>599.3333333333334</ele><time>2026-04-04T09:12:16.789Z</time></trkpt><trkpt lat="44.2696415" lon="11.4220172"><ele>600.5</ele><time>2026-04-04T09:12:18.79Z</time></trkpt><trkpt lat="44.2695187" lon="11.4220152"><ele>601.6666666666667</ele><time>2026-04-04T09:12:20.791Z</time></trkpt><trkpt lat="44.2694542" lon="11.4220215"><ele>602.8333333333334</ele><time>2026-04-04T09:12:21.79Z</time></trkpt><trkpt lat="44.2693905" lon="11.4220228"><ele>604.0</ele><time>2026-04-04T09:12:22.792Z</time></trkpt><trkpt lat="44.2692793" lon="11.422026"><ele>604.0</ele><time>2026-04-04T09:12:24.79Z</time></trkpt><trkpt lat="44.2691812" lon="11.4220582"><ele>604.0</ele><time>2026-04-04T09:12:26.791Z</time></trkpt><trkpt lat="44.269093" lon="11.4220463"><ele>604.0</ele><time>2026-04-04T09:12:28.791Z</time></trkpt><trkpt lat="44.2690075" lon="11.4220693"><ele>604.0</ele><time>2026-04-04T09:12:30.791Z</time></trkpt><trkpt lat="44.2689307" lon="11.4221048"><ele>604.0</ele><time>2026-04-04T09:12:32.789Z</time></trkpt><trkpt lat="44.2688422" lon="11.4221415"><ele>604.2</ele><time>2026-04-04T09:12:34.79Z</time></trkpt><trkpt lat="44.268757" lon="11.4221765"><ele>604.4</ele><time>2026-04-04T09:12:36.789Z</time></trkpt><trkpt lat="44.2686735" lon="11.4221992"><ele>604.6</ele><time>2026-04-04T09:12:38.79Z</time></trkpt><trkpt lat="44.2685735" lon="11.4222115"><ele>604.8</ele><time>2026-04-04T09:12:40.792Z</time></trkpt><trkpt lat="44.2684577" lon="11.4222252"><ele>605.0</ele><time>2026-04-04T09:12:42.792Z</time></trkpt><trkpt lat="44.2683478" lon="11.4222445"><ele>605.0</ele><time>2026-04-04T09:12:44.789Z</time></trkpt><trkpt lat="44.2682532" lon="11.4222907"><ele>605.0</ele><time>2026-04-04T09:12:46.79Z</time></trkpt><trkpt lat="44.2681797" lon="11.4223517"><ele>605.0</ele><time>2026-04-04T09:12:48.791Z</time></trkpt><trkpt lat="44.2681045" lon="11.4223915"><ele>605.0</ele><time>2026-04-04T09:12:50.79Z</time></trkpt><trkpt lat="44.2680213" lon="11.4224315"><ele>605.0</ele><time>2026-04-04T09:12:53.791Z</time></trkpt><trkpt lat="44.2679602" lon="11.4224677"><ele>605.0</ele><time>2026-04-04T09:12:56.789Z</time></trkpt><trkpt lat="44.2678848" lon="11.4225203"><ele>604.1666666666666</ele><time>2026-04-04T09:13:02.788Z</time></trkpt><trkpt lat="44.267816" lon="11.4225323"><ele>603.3333333333333</ele><time>2026-04-04T09:13:06.791Z</time></trkpt><trkpt lat="44.2677427" lon="11.4224987"><ele>602.5</ele><time>2026-04-04T09:13:11.79Z</time></trkpt><trkpt lat="44.2676693" lon="11.4224852"><ele>601.6666666666666</ele><time>2026-04-04T09:13:13.789Z</time></trkpt><trkpt lat="44.2675958" lon="11.4225108"><ele>600.8333333333334</ele><time>2026-04-04T09:13:16.789Z</time></trkpt><trkpt lat="44.267535" lon="11.422586"><ele>600.0</ele><time>2026-04-04T09:13:22.789Z</time></trkpt><trkpt lat="44.2675078" lon="11.4226932"><ele>600.0</ele><time>2026-04-04T09:13:25.791Z</time></trkpt><trkpt lat="44.2674845" lon="11.422825"><ele>600.0</ele><time>2026-04-04T09:13:27.79Z</time></trkpt><trkpt lat="44.2674418" lon="11.4229567"><ele>600.0</ele><time>2026-04-04T09:13:29.791Z</time></trkpt><trkpt lat="44.2673828" lon="11.4230712"><ele>600.0</ele><time>2026-04-04T09:13:31.79Z</time></trkpt><trkpt lat="44.267334" lon="11.423145"><ele>600.0</ele><time>2026-04-04T09:13:33.792Z</time></trkpt><trkpt lat="44.2672822" lon="11.4232117"><ele>600.0</ele><time>2026-04-04T09:16:08.79Z</time></trkpt><trkpt lat="44.2672105" lon="11.4233033"><ele>600.3333333333334</ele><time>2026-04-04T09:16:10.79Z</time></trkpt><trkpt lat="44.2671558" lon="11.423356"><ele>600.6666666666666</ele><time>2026-04-04T09:16:11.789Z</time></trkpt><trkpt lat="44.2670937" lon="11.4234123"><ele>601.0</ele><time>2026-04-04T09:16:12.79Z</time></trkpt><trkpt lat="44.267022" lon="11.4234625"><ele>601.3333333333333</ele><time>2026-04-04T09:16:13.789Z</time></trkpt><trkpt lat="44.2669392" lon="11.4235112"><ele>601.6666666666666</ele><time>2026-04-04T09:16:14.787Z</time></trkpt><trkpt lat="44.2668492" lon="11.4235587"><ele>602.0</ele><time>2026-04-04T09:16:15.788Z</time></trkpt><trkpt lat="44.2667528" lon="11.4236017"><ele>602.0</ele><time>2026-04-04T09:16:16.785Z</time></trkpt><trkpt lat="44.2666538" lon="11.4236448"><ele>602.0</ele><time>2026-04-04T09:16:17.785Z</time></trkpt><trkpt lat="44.266553" lon="11.4236843"><ele>602.0</ele><time>2026-04-04T09:16:18.784Z</time></trkpt><trkpt lat="44.2664513" lon="11.4237162"><ele>602.0</ele><time>2026-04-04T09:16:19.791Z</time></trkpt><trkpt lat="44.266347" lon="11.4237387"><ele>602.0</ele><time>2026-04-04T09:16:20.789Z</time></trkpt><trkpt lat="44.2662405" lon="11.4237545"><ele>603.25</ele><time>2026-04-04T09:16:21.789Z</time></trkpt><trkpt lat="44.2661318" lon="11.4237677"><ele>604.5</ele><time>2026-04-04T09:16:22.79Z</time></trkpt><trkpt lat="44.2660207" lon="11.4237758"><ele>605.75</ele><time>2026-04-04T09:16:23.789Z</time></trkpt><trkpt lat="44.2659063" lon="11.4237857"><ele>607.0</ele><time>2026-04-04T09:16:24.79Z</time></trkpt><trkpt lat="44.2657907" lon="11.4237937"><ele>607.0</ele><time>2026-04-04T09:16:25.791Z</time></trkpt><trkpt lat="44.2656715" lon="11.4238008"><ele>607.0</ele><time>2026-04-04T09:16:26.789Z</time></trkpt><trkpt lat="44.2655522" lon="11.4238088"><ele>607.0</ele><time>2026-04-04T09:16:27.789Z</time></trkpt><trkpt lat="44.2654328" lon="11.423815"><ele>607.0</ele><time>2026-04-04T09:16:28.789Z</time></trkpt><trkpt lat="44.265314" lon="11.423817"><ele>610.25</ele><time>2026-04-04T09:16:29.788Z</time></trkpt><trkpt lat="44.2651963" lon="11.4238225"><ele>613.5</ele><time>2026-04-04T09:16:30.788Z</time></trkpt><trkpt lat="44.265081" lon="11.4238312"><ele>616.75</ele><time>2026-04-04T09:16:31.789Z</time></trkpt><trkpt lat="44.2649672" lon="11.4238403"><ele>620.0</ele><time>2026-04-04T09:16:32.79Z</time></trkpt><trkpt lat="44.2648528" lon="11.4238487"><ele>620.6</ele><time>2026-04-04T09:16:33.79Z</time></trkpt><trkpt lat="44.2647407" lon="11.4238552"><ele>621.2</ele><time>2026-04-04T09:16:34.789Z</time></trkpt><trkpt lat="44.264637" lon="11.4238573"><ele>621.8</ele><time>2026-04-04T09:16:35.788Z</time></trkpt><trkpt lat="44.2645432" lon="11.4238558"><ele>622.4</ele><time>2026-04-04T09:16:36.788Z</time></trkpt><trkpt lat="44.2644553" lon="11.4238523"><ele>623.0</ele><time>2026-04-04T09:16:37.788Z</time></trkpt><trkpt lat="44.2643782" lon="11.4238497"><ele>623.0</ele><time>2026-04-04T09:16:38.79Z</time></trkpt><trkpt lat="44.2643118" lon="11.4238543"><ele>623.0</ele><time>2026-04-04T09:16:39.788Z</time></trkpt><trkpt lat="44.264245" lon="11.423869"><ele>623.0</ele><time>2026-04-04T09:16:40.789Z</time></trkpt><trkpt lat="44.2641707" lon="11.4238925"><ele>623.0</ele><time>2026-04-04T09:16:41.786Z</time></trkpt><trkpt lat="44.2640848" lon="11.4239097"><ele>623.0</ele><time>2026-04-04T09:16:42.788Z</time></trkpt><trkpt lat="44.2639855" lon="11.4239182"><ele>623.0</ele><time>2026-04-04T09:16:43.788Z</time></trkpt><trkpt lat="44.263874" lon="11.4239275"><ele>624.5</ele><time>2026-04-04T09:16:44.79Z</time></trkpt><trkpt lat="44.2637462" lon="11.4239425"><ele>626.0</ele><time>2026-04-04T09:16:45.79Z</time></trkpt><trkpt lat="44.2635985" lon="11.4239745"><ele>627.5</ele><time>2026-04-04T09:16:46.79Z</time></trkpt><trkpt lat="44.2634373" lon="11.4240245"><ele>629.0</ele><time>2026-04-04T09:16:47.788Z</time></trkpt><trkpt lat="44.2632607" lon="11.4240727"><ele>631.0</ele><time>2026-04-04T09:16:48.789Z</time></trkpt><trkpt lat="44.2630765" lon="11.4241235"><ele>633.0</ele><time>2026-04-04T09:16:49.788Z</time></trkpt><trkpt lat="44.2629008" lon="11.4241798"><ele>635.0</ele><time>2026-04-04T09:16:50.789Z</time></trkpt><trkpt lat="44.2627472" lon="11.4242245"><ele>635.0</ele><time>2026-04-04T09:16:51.789Z</time></trkpt><trkpt lat="44.2626182" lon="11.4242495"><ele>635.0</ele><time>2026-04-04T09:16:52.79Z</time></trkpt><trkpt lat="44.2625047" lon="11.424247"><ele>635.0</ele><time>2026-04-04T09:16:53.789Z</time></trkpt><trkpt lat="44.262398" lon="11.4242082"><ele>635.0</ele><time>2026-04-04T09:16:54.789Z</time></trkpt><trkpt lat="44.2623137" lon="11.424149"><ele>635.0</ele><time>2026-04-04T09:16:55.79Z</time></trkpt><trkpt lat="44.2622448" lon="11.4240915"><ele>636.1666666666666</ele><time>2026-04-04T09:16:56.788Z</time></trkpt><trkpt lat="44.2621897" lon="11.4240442"><ele>637.3333333333333</ele><time>2026-04-04T09:16:57.79Z</time></trkpt><trkpt lat="44.2621088" lon="11.4239633"><ele>638.5</ele><time>2026-04-04T09:16:59.79Z</time></trkpt><trkpt lat="44.2620397" lon="11.4238995"><ele>639.6666666666666</ele><time>2026-04-04T09:17:01.789Z</time></trkpt><trkpt lat="44.2619685" lon="11.4238493"><ele>640.8333333333334</ele><time>2026-04-04T09:17:03.788Z</time></trkpt><trkpt lat="44.2618958" lon="11.4237872"><ele>642.0</ele><time>2026-04-04T09:17:05.785Z</time></trkpt><trkpt lat="44.261808" lon="11.4237007"><ele>642.1666666666666</ele><time>2026-04-04T09:17:07.788Z</time></trkpt><trkpt lat="44.2617515" lon="11.4236477"><ele>642.3333333333334</ele><time>2026-04-04T09:17:08.787Z</time></trkpt><trkpt lat="44.2616865" lon="11.4235888"><ele>642.5</ele><time>2026-04-04T09:17:09.787Z</time></trkpt><trkpt lat="44.2616113" lon="11.4235232"><ele>642.6666666666667</ele><time>2026-04-04T09:17:10.788Z</time></trkpt><trkpt lat="44.2615258" lon="11.4234508"><ele>642.8333333333334</ele><time>2026-04-04T09:17:11.787Z</time></trkpt><trkpt lat="44.2614303" lon="11.423369"><ele>643.0</ele><time>2026-04-04T09:17:12.786Z</time></trkpt><trkpt lat="44.2613283" lon="11.4232818"><ele>645.5</ele><time>2026-04-04T09:17:13.789Z</time></trkpt><trkpt lat="44.261221" lon="11.423194"><ele>648.0</ele><time>2026-04-04T09:17:14.786Z</time></trkpt><trkpt lat="44.261113" lon="11.4230985"><ele>650.5</ele><time>2026-04-04T09:17:15.789Z</time></trkpt><trkpt lat="44.2610058" lon="11.4230032"><ele>653.0</ele><time>2026-04-04T09:17:16.789Z</time></trkpt><trkpt lat="44.2608993" lon="11.4229208"><ele>653.0</ele><time>2026-04-04T09:17:17.788Z</time></trkpt><trkpt lat="44.2607882" lon="11.422867"><ele>653.0</ele><time>2026-04-04T09:17:18.788Z</time></trkpt><trkpt lat="44.260655" lon="11.4228523"><ele>653.0</ele><time>2026-04-04T09:17:19.788Z</time></trkpt><trkpt lat="44.260501" lon="11.4228535"><ele>653.0</ele><time>2026-04-04T09:17:20.786Z</time></trkpt><trkpt lat="44.2603343" lon="11.4228587"><ele>655.3333333333333</ele><time>2026-04-04T09:17:21.788Z</time></trkpt><trkpt lat="44.260157" lon="11.4228552"><ele>657.6666666666666</ele><time>2026-04-04T09:17:22.788Z</time></trkpt><trkpt lat="44.259972" lon="11.422852"><ele>660.0</ele><time>2026-04-04T09:17:23.788Z</time></trkpt><trkpt lat="44.2597897" lon="11.4228553"><ele>662.6666666666666</ele><time>2026-04-04T09:17:24.788Z</time></trkpt><trkpt lat="44.259602" lon="11.4228583"><ele>665.3333333333333</ele><time>2026-04-04T09:17:25.788Z</time></trkpt><trkpt lat="44.259411" lon="11.4228613"><ele>668.0</ele><time>2026-04-04T09:17:26.788Z</time></trkpt><trkpt lat="44.2592205" lon="11.4228652"><ele>668.0</ele><time>2026-04-04T09:17:27.787Z</time></trkpt><trkpt lat="44.2590317" lon="11.4228653"><ele>668.0</ele><time>2026-04-04T09:17:28.786Z</time></trkpt><trkpt lat="44.2588478" lon="11.4228653"><ele>668.0</ele><time>2026-04-04T09:17:29.785Z</time></trkpt><trkpt lat="44.258669" lon="11.4228677"><ele>670.3333333333333</ele><time>2026-04-04T09:17:30.786Z</time></trkpt><trkpt lat="44.2584945" lon="11.4228693"><ele>672.6666666666666</ele><time>2026-04-04T09:17:31.788Z</time></trkpt><trkpt lat="44.2583133" lon="11.4228727"><ele>675.0</ele><time>2026-04-04T09:17:32.789Z</time></trkpt><trkpt lat="44.2581303" lon="11.422878"><ele>677.0</ele><time>2026-04-04T09:17:33.788Z</time></trkpt><trkpt lat="44.2579483" lon="11.422883"><ele>679.0</ele><time>2026-04-04T09:17:34.789Z</time></trkpt><trkpt lat="44.257771" lon="11.422882"><ele>681.0</ele><time>2026-04-04T09:17:35.788Z</time></trkpt><trkpt lat="44.2576017" lon="11.4228737"><ele>681.0</ele><time>2026-04-04T09:17:36.789Z</time></trkpt><trkpt lat="44.2574308" lon="11.4228407"><ele>681.0</ele><time>2026-04-04T09:17:37.789Z</time></trkpt><trkpt lat="44.257262" lon="11.4227852"><ele>681.0</ele><time>2026-04-04T09:17:38.788Z</time></trkpt><trkpt lat="44.2571017" lon="11.4227298"><ele>681.25</ele><time>2026-04-04T09:17:39.789Z</time></trkpt><trkpt lat="44.2569525" lon="11.4226817"><ele>681.5</ele><time>2026-04-04T09:17:40.787Z</time></trkpt><trkpt lat="44.2568158" lon="11.422646"><ele>681.75</ele><time>2026-04-04T09:17:41.785Z</time></trkpt><trkpt lat="44.2566772" lon="11.4226357"><ele>682.0</ele><time>2026-04-04T09:17:42.787Z</time></trkpt><trkpt lat="44.2565432" lon="11.4226633"><ele>681.5</ele><time>2026-04-04T09:17:43.788Z</time></trkpt><trkpt lat="44.2564195" lon="11.4227352"><ele>681.0</ele><time>2026-04-04T09:17:44.788Z</time></trkpt><trkpt lat="44.2563032" lon="11.4228593"><ele>680.5</ele><time>2026-04-04T09:17:45.788Z</time></trkpt><trkpt lat="44.256185" lon="11.4230118"><ele>680.0</ele><time>2026-04-04T09:17:46.789Z</time></trkpt><trkpt lat="44.2560637" lon="11.423151"><ele>681.5</ele><time>2026-04-04T09:17:47.788Z</time></trkpt><trkpt lat="44.2559475" lon="11.4232663"><ele>683.0</ele><time>2026-04-04T09:17:48.789Z</time></trkpt><trkpt lat="44.2558377" lon="11.423344"><ele>684.5</ele><time>2026-04-04T09:17:49.789Z</time></trkpt><trkpt lat="44.2557268" lon="11.4233735"><ele>686.0</ele><time>2026-04-04T09:17:50.788Z</time></trkpt><trkpt lat="44.2556128" lon="11.4233718"><ele>686.75</ele><time>2026-04-04T09:17:51.79Z</time></trkpt><trkpt lat="44.2554935" lon="11.4233535"><ele>687.5</ele><time>2026-04-04T09:17:52.788Z</time></trkpt><trkpt lat="44.2553813" lon="11.4233382"><ele>688.25</ele><time>2026-04-04T09:17:53.786Z</time></trkpt><trkpt lat="44.2552693" lon="11.423351"><ele>689.0</ele><time>2026-04-04T09:17:54.786Z</time></trkpt><trkpt lat="44.255158" lon="11.4234057"><ele>689.0</ele><time>2026-04-04T09:17:55.787Z</time></trkpt><trkpt lat="44.2550542" lon="11.4235042"><ele>689.0</ele><time>2026-04-04T09:17:56.786Z</time></trkpt><trkpt lat="44.2549455" lon="11.4236347"><ele>689.0</ele><time>2026-04-04T09:17:57.789Z</time></trkpt><trkpt lat="44.2548308" lon="11.423784"><ele>689.0</ele><time>2026-04-04T09:17:58.79Z</time></trkpt><trkpt lat="44.2547078" lon="11.4239437"><ele>692.3333333333333</ele><time>2026-04-04T09:17:59.788Z</time></trkpt><trkpt lat="44.2545738" lon="11.4241042"><ele>695.6666666666666</ele><time>2026-04-04T09:18:00.788Z</time></trkpt><trkpt lat="44.2544345" lon="11.4242703"><ele>699.0</ele><time>2026-04-04T09:18:01.788Z</time></trkpt><trkpt lat="44.2542892" lon="11.4244473"><ele>699.0</ele><time>2026-04-04T09:18:02.787Z</time></trkpt><trkpt lat="44.2541387" lon="11.424624"><ele>699.0</ele><time>2026-04-04T09:18:03.787Z</time></trkpt><trkpt lat="44.2540055" lon="11.4247788"><ele>699.0</ele><time>2026-04-04T09:18:04.787Z</time></trkpt><trkpt lat="44.2538752" lon="11.4249285"><ele>702.0</ele><time>2026-04-04T09:18:05.787Z</time></trkpt><trkpt lat="44.253738" lon="11.4250587"><ele>705.0</ele><time>2026-04-04T09:18:06.787Z</time></trkpt><trkpt lat="44.2535988" lon="11.4251653"><ele>708.0</ele><time>2026-04-04T09:18:07.788Z</time></trkpt><trkpt lat="44.2534673" lon="11.4252538"><ele>708.0</ele><time>2026-04-04T09:18:08.788Z</time></trkpt><trkpt lat="44.2533305" lon="11.4253263"><ele>708.0</ele><time>2026-04-04T09:18:09.787Z</time></trkpt><trkpt lat="44.2531877" lon="11.425387"><ele>708.0</ele><time>2026-04-04T09:18:10.788Z</time></trkpt><trkpt lat="44.2530418" lon="11.425444"><ele>708.0</ele><time>2026-04-04T09:18:11.788Z</time></trkpt><trkpt lat="44.2528928" lon="11.425505"><ele>712.6666666666666</ele><time>2026-04-04T09:18:12.789Z</time></trkpt><trkpt lat="44.2527442" lon="11.4255673"><ele>717.3333333333333</ele><time>2026-04-04T09:18:13.787Z</time></trkpt><trkpt lat="44.2525965" lon="11.4256267"><ele>722.0</ele><time>2026-04-04T09:18:14.788Z</time></trkpt><trkpt lat="44.252455" lon="11.4256757"><ele>722.0</ele><time>2026-04-04T09:18:15.786Z</time></trkpt><trkpt lat="44.2523288" lon="11.42571"><ele>722.0</ele><time>2026-04-04T09:18:16.788Z</time></trkpt><trkpt lat="44.2522188" lon="11.4257455"><ele>722.0</ele><time>2026-04-04T09:18:17.785Z</time></trkpt><trkpt lat="44.252126" lon="11.4257917"><ele>722.0</ele><time>2026-04-04T09:18:18.786Z</time></trkpt><trkpt lat="44.2520467" lon="11.4258443"><ele>722.0</ele><time>2026-04-04T09:18:19.786Z</time></trkpt><trkpt lat="44.2519693" lon="11.4259033"><ele>722.0</ele><time>2026-04-04T09:18:20.786Z</time></trkpt><trkpt lat="44.2518832" lon="11.4259765"><ele>722.0</ele><time>2026-04-04T09:18:21.79Z</time></trkpt><trkpt lat="44.251787" lon="11.4260615"><ele>722.0</ele><time>2026-04-04T09:18:22.79Z</time></trkpt><trkpt lat="44.2516833" lon="11.4261623"><ele>722.0</ele><time>2026-04-04T09:18:23.789Z</time></trkpt><trkpt lat="44.2515695" lon="11.4262853"><ele>724.6666666666666</ele><time>2026-04-04T09:18:24.787Z</time></trkpt><trkpt lat="44.251452" lon="11.4264198"><ele>727.3333333333334</ele><time>2026-04-04T09:18:25.787Z</time></trkpt><trkpt lat="44.2513267" lon="11.4265612"><ele>730.0</ele><time>2026-04-04T09:18:26.788Z</time></trkpt><trkpt lat="44.251199" lon="11.4267022"><ele>730.0</ele><time>2026-04-04T09:18:27.789Z</time></trkpt><trkpt lat="44.2510757" lon="11.4268457"><ele>730.0</ele><time>2026-04-04T09:18:28.79Z</time></trkpt><trkpt lat="44.2509655" lon="11.4269888"><ele>730.0</ele><time>2026-04-04T09:18:29.788Z</time></trkpt><trkpt lat="44.2508717" lon="11.4271358"><ele>730.25</ele><time>2026-04-04T09:18:30.789Z</time></trkpt><trkpt lat="44.2507935" lon="11.4272982"><ele>730.5</ele><time>2026-04-04T09:18:31.791Z</time></trkpt><trkpt lat="44.250728" lon="11.4274875"><ele>730.75</ele><time>2026-04-04T09:18:32.79Z</time></trkpt><trkpt lat="44.2506725" lon="11.4276913"><ele>731.0</ele><time>2026-04-04T09:18:33.789Z</time></trkpt><trkpt lat="44.2506247" lon="11.4278787"><ele>733.75</ele><time>2026-04-04T09:18:34.789Z</time></trkpt><trkpt lat="44.2505795" lon="11.4280582"><ele>736.5</ele><time>2026-04-04T09:18:35.788Z</time></trkpt><trkpt lat="44.2505407" lon="11.4282255"><ele>739.25</ele><time>2026-04-04T09:18:36.787Z</time></trkpt><trkpt lat="44.2505" lon="11.4283837"><ele>742.0</ele><time>2026-04-04T09:18:37.789Z</time></trkpt><trkpt lat="44.2504677" lon="11.4285343"><ele>742.0</ele><time>2026-04-04T09:18:38.787Z</time></trkpt><trkpt lat="44.2504468" lon="11.4286942"><ele>742.0</ele><time>2026-04-04T09:18:39.787Z</time></trkpt><trkpt lat="44.25043" lon="11.4288595"><ele>742.0</ele><time>2026-04-04T09:18:40.788Z</time></trkpt><trkpt lat="44.2504228" lon="11.4290337"><ele>742.0</ele><time>2026-04-04T09:18:41.787Z</time></trkpt><trkpt lat="44.250429" lon="11.4292135"><ele>741.25</ele><time>2026-04-04T09:18:42.787Z</time></trkpt><trkpt lat="44.2504428" lon="11.4294023"><ele>740.5</ele><time>2026-04-04T09:18:43.785Z</time></trkpt><trkpt lat="44.250457" lon="11.4295958"><ele>739.75</ele><time>2026-04-04T09:18:44.785Z</time></trkpt><trkpt lat="44.250471" lon="11.4297893"><ele>739.0</ele><time>2026-04-04T09:18:45.786Z</time></trkpt><trkpt lat="44.250486" lon="11.4299808"><ele>737.5</ele><time>2026-04-04T09:18:46.788Z</time></trkpt><trkpt lat="44.2505008" lon="11.4301703"><ele>736.0</ele><time>2026-04-04T09:18:47.788Z</time></trkpt><trkpt lat="44.2505137" lon="11.4303568"><ele>734.5</ele><time>2026-04-04T09:18:48.789Z</time></trkpt><trkpt lat="44.2505255" lon="11.430542"><ele>733.0</ele><time>2026-04-04T09:18:49.789Z</time></trkpt><trkpt lat="44.2505322" lon="11.430722"><ele>733.0</ele><time>2026-04-04T09:18:50.787Z</time></trkpt><trkpt lat="44.250539" lon="11.4308958"><ele>733.0</ele><time>2026-04-04T09:18:51.8Z</time></trkpt><trkpt lat="44.2505528" lon="11.4310673"><ele>733.0</ele><time>2026-04-04T09:18:52.798Z</time></trkpt><trkpt lat="44.2505687" lon="11.4312353"><ele>733.0</ele><time>2026-04-04T09:18:53.798Z</time></trkpt><trkpt lat="44.25058" lon="11.431401"><ele>733.0</ele><time>2026-04-04T09:18:54.8Z</time></trkpt><trkpt lat="44.2505847" lon="11.4315688"><ele>733.0</ele><time>2026-04-04T09:18:55.802Z</time></trkpt><trkpt lat="44.2505947" lon="11.4317295"><ele>733.0</ele><time>2026-04-04T09:18:56.799Z</time></trkpt><trkpt lat="44.2506215" lon="11.4318863"><ele>733.0</ele><time>2026-04-04T09:18:57.799Z</time></trkpt><trkpt lat="44.2506728" lon="11.432032"><ele>734.5</ele><time>2026-04-04T09:18:58.799Z</time></trkpt><trkpt lat="44.2507497" lon="11.4321652"><ele>736.0</ele><time>2026-04-04T09:18:59.798Z</time></trkpt><trkpt lat="44.250849" lon="11.4322842"><ele>737.5</ele><time>2026-04-04T09:19:00.787Z</time></trkpt><trkpt lat="44.250959" lon="11.4323962"><ele>739.0</ele><time>2026-04-04T09:19:01.787Z</time></trkpt><trkpt lat="44.2510718" lon="11.4325073"><ele>739.0</ele><time>2026-04-04T09:19:02.787Z</time></trkpt><trkpt lat="44.2511742" lon="11.4326187"><ele>739.0</ele><time>2026-04-04T09:19:03.789Z</time></trkpt><trkpt lat="44.2512653" lon="11.4327353"><ele>739.0</ele><time>2026-04-04T09:19:04.789Z</time></trkpt><trkpt lat="44.2513457" lon="11.4328605"><ele>739.0</ele><time>2026-04-04T09:19:05.788Z</time></trkpt><trkpt lat="44.2514113" lon="11.432995"><ele>739.8333333333334</ele><time>2026-04-04T09:19:06.787Z</time></trkpt><trkpt lat="44.2514557" lon="11.433127"><ele>740.6666666666667</ele><time>2026-04-04T09:19:07.785Z</time></trkpt><trkpt lat="44.2514843" lon="11.4332547"><ele>741.5</ele><time>2026-04-04T09:19:08.785Z</time></trkpt><trkpt lat="44.2515028" lon="11.4333737"><ele>742.3333333333334</ele><time>2026-04-04T09:19:09.794Z</time></trkpt><trkpt lat="44.251513" lon="11.4334813"><ele>743.1666666666666</ele><time>2026-04-04T09:19:10.799Z</time></trkpt><trkpt lat="44.251518" lon="11.4335795"><ele>744.0</ele><time>2026-04-04T09:19:11.799Z</time></trkpt><trkpt lat="44.2515162" lon="11.4336752"><ele>744.0</ele><time>2026-04-04T09:19:12.809Z</time></trkpt><trkpt lat="44.25151" lon="11.433779"><ele>744.0</ele><time>2026-04-04T09:19:13.807Z</time></trkpt><trkpt lat="44.2515043" lon="11.4339042"><ele>744.0</ele><time>2026-04-04T09:19:14.809Z</time></trkpt><trkpt lat="44.2515075" lon="11.4340515"><ele>744.0</ele><time>2026-04-04T09:19:15.81Z</time></trkpt><trkpt lat="44.2515295" lon="11.4342165"><ele>744.0</ele><time>2026-04-04T09:19:16.808Z</time></trkpt><trkpt lat="44.251558" lon="11.43439"><ele>742.75</ele><time>2026-04-04T09:19:17.787Z</time></trkpt><trkpt lat="44.2515837" lon="11.4345615"><ele>741.5</ele><time>2026-04-04T09:19:18.787Z</time></trkpt><trkpt lat="44.2516017" lon="11.434727"><ele>740.25</ele><time>2026-04-04T09:19:19.787Z</time></trkpt><trkpt lat="44.2516257" lon="11.4348808"><ele>739.0</ele><time>2026-04-04T09:19:20.787Z</time></trkpt><trkpt lat="44.2516652" lon="11.4350197"><ele>738.2</ele><time>2026-04-04T09:19:21.786Z</time></trkpt><trkpt lat="44.2517183" lon="11.4351412"><ele>737.4000000000001</ele><time>2026-04-04T09:19:22.787Z</time></trkpt><trkpt lat="44.2517687" lon="11.4352588"><ele>736.6</ele><time>2026-04-04T09:19:23.788Z</time></trkpt><trkpt lat="44.2518043" lon="11.435387"><ele>735.8</ele><time>2026-04-04T09:19:24.787Z</time></trkpt><trkpt lat="44.2518312" lon="11.4355113"><ele>735.0</ele><time>2026-04-04T09:19:25.787Z</time></trkpt><trkpt lat="44.2518678" lon="11.4356255"><ele>733.8</ele><time>2026-04-04T09:19:26.788Z</time></trkpt><trkpt lat="44.2519248" lon="11.4357262"><ele>732.6</ele><time>2026-04-04T09:19:27.787Z</time></trkpt><trkpt lat="44.2520072" lon="11.4358102"><ele>731.4000000000001</ele><time>2026-04-04T09:19:28.788Z</time></trkpt><trkpt lat="44.2520928" lon="11.4358905"><ele>730.2</ele><time>2026-04-04T09:19:29.785Z</time></trkpt><trkpt lat="44.2521603" lon="11.4359897"><ele>729.0</ele><time>2026-04-04T09:19:30.786Z</time></trkpt><trkpt lat="44.2522077" lon="11.4361127"><ele>729.0</ele><time>2026-04-04T09:19:31.783Z</time></trkpt><trkpt lat="44.252245" lon="11.43625"><ele>729.0</ele><time>2026-04-04T09:19:32.786Z</time></trkpt><trkpt lat="44.2522675" lon="11.4363982"><ele>729.0</ele><time>2026-04-04T09:19:33.784Z</time></trkpt><trkpt lat="44.2522808" lon="11.4365397"><ele>729.0</ele><time>2026-04-04T09:19:34.785Z</time></trkpt><trkpt lat="44.2522948" lon="11.4366647"><ele>729.0</ele><time>2026-04-04T09:19:35.785Z</time></trkpt><trkpt lat="44.2523245" lon="11.4367695"><ele>728.7142857142858</ele><time>2026-04-04T09:19:36.788Z</time></trkpt><trkpt lat="44.252371" lon="11.4368658"><ele>728.4285714285713</ele><time>2026-04-04T09:19:37.787Z</time></trkpt><trkpt lat="44.2524048" lon="11.4369505"><ele>728.1428571428571</ele><time>2026-04-04T09:19:38.787Z</time></trkpt><trkpt lat="44.2524337" lon="11.4370323"><ele>727.8571428571429</ele><time>2026-04-04T09:19:39.786Z</time></trkpt><trkpt lat="44.2524533" lon="11.4371228"><ele>727.5714285714287</ele><time>2026-04-04T09:19:40.787Z</time></trkpt><trkpt lat="44.2524695" lon="11.4372155"><ele>727.2857142857142</ele><time>2026-04-04T09:19:41.787Z</time></trkpt><trkpt lat="44.2524778" lon="11.4373043"><ele>727.0</ele><time>2026-04-04T09:19:42.786Z</time></trkpt><trkpt lat="44.2524473" lon="11.4374567"><ele>727.0</ele><time>2026-04-04T09:19:44.786Z</time></trkpt><trkpt lat="44.2524477" lon="11.4375925"><ele>727.0</ele><time>2026-04-04T09:19:46.787Z</time></trkpt><trkpt lat="44.252455" lon="11.4377088"><ele>727.0</ele><time>2026-04-04T09:19:48.787Z</time></trkpt><trkpt lat="44.252465" lon="11.4378025"><ele>727.0</ele><time>2026-04-04T09:19:50.786Z</time></trkpt><trkpt lat="44.2525247" lon="11.4378955"><ele>727.0</ele><time>2026-04-04T09:19:53.786Z</time></trkpt><trkpt lat="44.2525567" lon="11.4379753"><ele>727.0</ele><time>2026-04-04T09:19:55.787Z</time></trkpt><trkpt lat="44.2525902" lon="11.4380608"><ele>726.0</ele><time>2026-04-04T09:19:57.785Z</time></trkpt><trkpt lat="44.2527012" lon="11.4381507"><ele>725.0</ele><time>2026-04-04T09:19:59.785Z</time></trkpt><trkpt lat="44.2527707" lon="11.4381978"><ele>724.0</ele><time>2026-04-04T09:20:00.784Z</time></trkpt><trkpt lat="44.2528433" lon="11.4382377"><ele>723.0</ele><time>2026-04-04T09:20:01.787Z</time></trkpt><trkpt lat="44.2529218" lon="11.4382828"><ele>722.0</ele><time>2026-04-04T09:20:02.785Z</time></trkpt><trkpt lat="44.2529987" lon="11.4383248"><ele>722.0</ele><time>2026-04-04T09:20:03.789Z</time></trkpt><trkpt lat="44.2530767" lon="11.43836"><ele>722.0</ele><time>2026-04-04T09:20:04.787Z</time></trkpt><trkpt lat="44.2531585" lon="11.438397"><ele>722.0</ele><time>2026-04-04T09:20:05.787Z</time></trkpt><trkpt lat="44.2532382" lon="11.4384268"><ele>722.0</ele><time>2026-04-04T09:20:06.787Z</time></trkpt><trkpt lat="44.2533168" lon="11.4384512"><ele>722.0</ele><time>2026-04-04T09:20:07.788Z</time></trkpt><trkpt lat="44.253397" lon="11.438475"><ele>722.0</ele><time>2026-04-04T09:20:08.786Z</time></trkpt><trkpt lat="44.2534775" lon="11.4384982"><ele>722.1428571428572</ele><time>2026-04-04T09:20:09.787Z</time></trkpt><trkpt lat="44.253556" lon="11.438529"><ele>722.2857142857142</ele><time>2026-04-04T09:20:10.787Z</time></trkpt><trkpt lat="44.253627" lon="11.4385625"><ele>722.4285714285714</ele><time>2026-04-04T09:20:11.787Z</time></trkpt><trkpt lat="44.2536945" lon="11.4386062"><ele>722.5714285714287</ele><time>2026-04-04T09:20:12.787Z</time></trkpt><trkpt lat="44.2537618" lon="11.4386502"><ele>722.7142857142858</ele><time>2026-04-04T09:20:13.785Z</time></trkpt><trkpt lat="44.2538235" lon="11.4386885"><ele>722.8571428571429</ele><time>2026-04-04T09:20:14.786Z</time></trkpt><trkpt lat="44.2538893" lon="11.4387175"><ele>723.0</ele><time>2026-04-04T09:20:15.787Z</time></trkpt><trkpt lat="44.2539515" lon="11.4387642"><ele>722.1666666666666</ele><time>2026-04-04T09:20:16.787Z</time></trkpt><trkpt lat="44.2540085" lon="11.438821"><ele>721.3333333333334</ele><time>2026-04-04T09:20:17.786Z</time></trkpt><trkpt lat="44.2540668" lon="11.43888"><ele>720.5</ele><time>2026-04-04T09:20:18.788Z</time></trkpt><trkpt lat="44.2541213" lon="11.4389455"><ele>719.6666666666667</ele><time>2026-04-04T09:20:19.786Z</time></trkpt><trkpt lat="44.2541677" lon="11.4390125"><ele>718.8333333333334</ele><time>2026-04-04T09:20:20.784Z</time></trkpt><trkpt lat="44.2542142" lon="11.4390725"><ele>718.0</ele><time>2026-04-04T09:20:21.785Z</time></trkpt><trkpt lat="44.2543097" lon="11.4391848"><ele>718.0</ele><time>2026-04-04T09:20:23.785Z</time></trkpt><trkpt lat="44.254409" lon="11.4392537"><ele>718.0</ele><time>2026-04-04T09:20:25.786Z</time></trkpt><trkpt lat="44.2545188" lon="11.4392678"><ele>718.0</ele><time>2026-04-04T09:20:27.785Z</time></trkpt><trkpt lat="44.2546225" lon="11.4393142"><ele>718.0</ele><time>2026-04-04T09:20:29.787Z</time></trkpt><trkpt lat="44.2547145" lon="11.4393868"><ele>718.0</ele><time>2026-04-04T09:20:31.785Z</time></trkpt><trkpt lat="44.2547715" lon="11.4394472"><ele>715.3333333333334</ele><time>2026-04-04T09:20:32.787Z</time></trkpt><trkpt lat="44.2548258" lon="11.439526"><ele>712.6666666666667</ele><time>2026-04-04T09:20:33.79Z</time></trkpt><trkpt lat="44.2548773" lon="11.4396032"><ele>710.0</ele><time>2026-04-04T09:20:34.786Z</time></trkpt><trkpt lat="44.2549292" lon="11.4396705"><ele>707.3333333333334</ele><time>2026-04-04T09:20:35.786Z</time></trkpt><trkpt lat="44.2549818" lon="11.4397383"><ele>704.6666666666666</ele><time>2026-04-04T09:20:36.787Z</time></trkpt><trkpt lat="44.2550537" lon="11.439871"><ele>702.0</ele><time>2026-04-04T09:20:38.788Z</time></trkpt><trkpt lat="44.2551013" lon="11.440003"><ele>701.0</ele><time>2026-04-04T09:20:40.788Z</time></trkpt><trkpt lat="44.2551497" lon="11.4401092"><ele>700.0</ele><time>2026-04-04T09:20:42.789Z</time></trkpt><trkpt lat="44.2551878" lon="11.4402235"><ele>699.0</ele><time>2026-04-04T09:20:44.786Z</time></trkpt><trkpt lat="44.2552322" lon="11.4403373"><ele>698.0</ele><time>2026-04-04T09:20:46.786Z</time></trkpt><trkpt lat="44.2552793" lon="11.4404443"><ele>697.0</ele><time>2026-04-04T09:20:48.787Z</time></trkpt><trkpt lat="44.2553235" lon="11.440578"><ele>694.6</ele><time>2026-04-04T09:20:50.787Z</time></trkpt><trkpt lat="44.2553495" lon="11.4407338"><ele>692.2</ele><time>2026-04-04T09:20:52.788Z</time></trkpt><trkpt lat="44.255386" lon="11.4408578"><ele>689.8</ele><time>2026-04-04T09:20:54.788Z</time></trkpt><trkpt lat="44.2554268" lon="11.44099"><ele>687.4</ele><time>2026-04-04T09:20:56.787Z</time></trkpt><trkpt lat="44.2554847" lon="11.4411123"><ele>685.0</ele><time>2026-04-04T09:20:58.788Z</time></trkpt><trkpt lat="44.255536" lon="11.4412212"><ele>683.5</ele><time>2026-04-04T09:21:00.79Z</time></trkpt><trkpt lat="44.2555808" lon="11.4413267"><ele>682.0</ele><time>2026-04-04T09:21:02.789Z</time></trkpt><trkpt lat="44.2556328" lon="11.4414203"><ele>680.5</ele><time>2026-04-04T09:21:04.788Z</time></trkpt><trkpt lat="44.2556525" lon="11.4415252"><ele>679.0</ele><time>2026-04-04T09:21:06.787Z</time></trkpt><trkpt lat="44.2556533" lon="11.4416318"><ele>677.5</ele><time>2026-04-04T09:21:08.788Z</time></trkpt><trkpt lat="44.255714" lon="11.4417302"><ele>676.0</ele><time>2026-04-04T09:21:10.788Z</time></trkpt><trkpt lat="44.2557835" lon="11.4418403"><ele>676.0</ele><time>2026-04-04T09:21:12.787Z</time></trkpt><trkpt lat="44.255853" lon="11.4419718"><ele>676.0</ele><time>2026-04-04T09:21:14.787Z</time></trkpt><trkpt lat="44.2559265" lon="11.4420897"><ele>676.0</ele><time>2026-04-04T09:21:16.789Z</time></trkpt><trkpt lat="44.2560108" lon="11.4422195"><ele>676.0</ele><time>2026-04-04T09:21:18.788Z</time></trkpt><trkpt lat="44.2561052" lon="11.4423113"><ele>674.3333333333334</ele><time>2026-04-04T09:21:20.789Z</time></trkpt><trkpt lat="44.2562148" lon="11.4424163"><ele>672.6666666666667</ele><time>2026-04-04T09:21:22.788Z</time></trkpt><trkpt lat="44.2562673" lon="11.4424752"><ele>671.0</ele><time>2026-04-04T09:21:23.787Z</time></trkpt><trkpt lat="44.256313" lon="11.4425393"><ele>669.3333333333334</ele><time>2026-04-04T09:21:24.787Z</time></trkpt><trkpt lat="44.2563615" lon="11.4426073"><ele>667.6666666666666</ele><time>2026-04-04T09:21:25.788Z</time></trkpt><trkpt lat="44.2564477" lon="11.4427048"><ele>666.0</ele><time>2026-04-04T09:21:27.788Z</time></trkpt><trkpt lat="44.2565432" lon="11.4427587"><ele>666.0</ele><time>2026-04-04T09:21:29.789Z</time></trkpt><trkpt lat="44.2566513" lon="11.4428032"><ele>666.0</ele><time>2026-04-04T09:21:31.791Z</time></trkpt><trkpt lat="44.2567615" lon="11.4428593"><ele>666.0</ele><time>2026-04-04T09:21:33.788Z</time></trkpt><trkpt lat="44.2568667" lon="11.4429298"><ele>666.0</ele><time>2026-04-04T09:21:35.787Z</time></trkpt><trkpt lat="44.256942" lon="11.443028"><ele>664.5</ele><time>2026-04-04T09:21:37.787Z</time></trkpt><trkpt lat="44.2569948" lon="11.4431373"><ele>663.0</ele><time>2026-04-04T09:21:39.789Z</time></trkpt><trkpt lat="44.257058" lon="11.4432752"><ele>661.5</ele><time>2026-04-04T09:21:41.791Z</time></trkpt><trkpt lat="44.2570982" lon="11.443348"><ele>660.0</ele><time>2026-04-04T09:21:42.789Z</time></trkpt><trkpt lat="44.2571415" lon="11.4434243"><ele>658.5</ele><time>2026-04-04T09:21:43.788Z</time></trkpt><trkpt lat="44.2571807" lon="11.4435012"><ele>657.0</ele><time>2026-04-04T09:21:44.788Z</time></trkpt><trkpt lat="44.2572215" lon="11.4435883"><ele>657.0</ele><time>2026-04-04T09:21:45.79Z</time></trkpt><trkpt lat="44.2572607" lon="11.4436773"><ele>657.0</ele><time>2026-04-04T09:21:46.79Z</time></trkpt><trkpt lat="44.2573018" lon="11.4437608"><ele>657.0</ele><time>2026-04-04T09:21:47.788Z</time></trkpt><trkpt lat="44.257346" lon="11.4438432"><ele>657.0</ele><time>2026-04-04T09:21:48.788Z</time></trkpt><trkpt lat="44.2573718" lon="11.4439245"><ele>657.0</ele><time>2026-04-04T09:21:49.788Z</time></trkpt><trkpt lat="44.257413" lon="11.4440087"><ele>657.0</ele><time>2026-04-04T09:21:50.788Z</time></trkpt><trkpt lat="44.2574623" lon="11.4441038"><ele>657.0</ele><time>2026-04-04T09:21:51.79Z</time></trkpt><trkpt lat="44.2575037" lon="11.4441895"><ele>656.4000000000001</ele><time>2026-04-04T09:21:52.789Z</time></trkpt><trkpt lat="44.2575792" lon="11.444312"><ele>655.8000000000001</ele><time>2026-04-04T09:21:54.788Z</time></trkpt><trkpt lat="44.2576823" lon="11.444353"><ele>655.2</ele><time>2026-04-04T09:21:56.787Z</time></trkpt><trkpt lat="44.257788" lon="11.4443995"><ele>654.6</ele><time>2026-04-04T09:21:58.785Z</time></trkpt><trkpt lat="44.2578972" lon="11.44445"><ele>654.0</ele><time>2026-04-04T09:22:00.786Z</time></trkpt><trkpt lat="44.2579587" lon="11.4444795"><ele>654.0</ele><time>2026-04-04T09:22:01.785Z</time></trkpt><trkpt lat="44.2580147" lon="11.4445243"><ele>654.0</ele><time>2026-04-04T09:22:02.788Z</time></trkpt><trkpt lat="44.2581237" lon="11.4446077"><ele>654.0</ele><time>2026-04-04T09:22:04.787Z</time></trkpt><trkpt lat="44.2582313" lon="11.4446987"><ele>654.0</ele><time>2026-04-04T09:22:06.789Z</time></trkpt><trkpt lat="44.258345" lon="11.4447592"><ele>654.0</ele><time>2026-04-04T09:22:08.787Z</time></trkpt><trkpt lat="44.2584505" lon="11.4448083"><ele>652.0</ele><time>2026-04-04T09:22:10.787Z</time></trkpt><trkpt lat="44.258538" lon="11.444867"><ele>650.0</ele><time>2026-04-04T09:22:12.787Z</time></trkpt><trkpt lat="44.2586063" lon="11.4448872"><ele>648.0</ele><time>2026-04-04T09:22:14.788Z</time></trkpt><trkpt lat="44.2586827" lon="11.444921"><ele>646.0</ele><time>2026-04-04T09:22:16.788Z</time></trkpt><trkpt lat="44.2587797" lon="11.4449757"><ele>644.0</ele><time>2026-04-04T09:22:18.788Z</time></trkpt><trkpt lat="44.2588622" lon="11.4450528"><ele>643.25</ele><time>2026-04-04T09:22:20.787Z</time></trkpt><trkpt lat="44.2589542" lon="11.4451095"><ele>642.5</ele><time>2026-04-04T09:22:22.789Z</time></trkpt><trkpt lat="44.259062" lon="11.4451555"><ele>641.75</ele><time>2026-04-04T09:22:24.785Z</time></trkpt><trkpt lat="44.2591843" lon="11.4451895"><ele>641.0</ele><time>2026-04-04T09:22:26.788Z</time></trkpt><trkpt lat="44.2592943" lon="11.4452202"><ele>641.0</ele><time>2026-04-04T09:22:28.789Z</time></trkpt><trkpt lat="44.2594017" lon="11.4452488"><ele>641.0</ele><time>2026-04-04T09:22:30.79Z</time></trkpt><trkpt lat="44.259499" lon="11.445317"><ele>641.0</ele><time>2026-04-04T09:22:32.789Z</time></trkpt><trkpt lat="44.2595538" lon="11.445378"><ele>641.0</ele><time>2026-04-04T09:22:33.789Z</time></trkpt><trkpt lat="44.25961" lon="11.4454432"><ele>641.0</ele><time>2026-04-04T09:22:34.789Z</time></trkpt><trkpt lat="44.2596737" lon="11.4455"><ele>641.0</ele><time>2026-04-04T09:22:35.788Z</time></trkpt><trkpt lat="44.2597475" lon="11.4455468"><ele>640.1666666666666</ele><time>2026-04-04T09:22:36.789Z</time></trkpt><trkpt lat="44.2598267" lon="11.4455953"><ele>639.3333333333333</ele><time>2026-04-04T09:22:37.789Z</time></trkpt><trkpt lat="44.2599097" lon="11.4456493"><ele>638.5</ele><time>2026-04-04T09:22:38.788Z</time></trkpt><trkpt lat="44.2599933" lon="11.4456985"><ele>637.6666666666666</ele><time>2026-04-04T09:22:39.787Z</time></trkpt><trkpt lat="44.2600682" lon="11.4457463"><ele>636.8333333333334</ele><time>2026-04-04T09:22:40.789Z</time></trkpt><trkpt lat="44.2601373" lon="11.4457873"><ele>636.0</ele><time>2026-04-04T09:22:41.789Z</time></trkpt><trkpt lat="44.2602057" lon="11.4458185"><ele>636.0</ele><time>2026-04-04T09:22:42.788Z</time></trkpt><trkpt lat="44.2602695" lon="11.445834"><ele>636.0</ele><time>2026-04-04T09:22:43.787Z</time></trkpt><trkpt lat="44.2603913" lon="11.4458427"><ele>636.0</ele><time>2026-04-04T09:22:45.788Z</time></trkpt><trkpt lat="44.2605098" lon="11.4458372"><ele>636.0</ele><time>2026-04-04T09:22:47.788Z</time></trkpt><trkpt lat="44.2606077" lon="11.4458372"><ele>636.0</ele><time>2026-04-04T09:22:49.788Z</time></trkpt><trkpt lat="44.2606602" lon="11.4459065"><ele>635.3333333333334</ele><time>2026-04-04T09:22:51.789Z</time></trkpt><trkpt lat="44.2607153" lon="11.445992"><ele>634.6666666666666</ele><time>2026-04-04T09:22:53.789Z</time></trkpt><trkpt lat="44.2608002" lon="11.445998"><ele>634.0</ele><time>2026-04-04T09:22:56.788Z</time></trkpt><trkpt lat="44.2608397" lon="11.4458887"><ele>633.3333333333333</ele><time>2026-04-04T09:22:59.788Z</time></trkpt><trkpt lat="44.2608942" lon="11.4457978"><ele>632.6666666666666</ele><time>2026-04-04T09:23:01.789Z</time></trkpt><trkpt lat="44.2609838" lon="11.4457492"><ele>632.0</ele><time>2026-04-04T09:23:03.787Z</time></trkpt><trkpt lat="44.2610827" lon="11.4457327"><ele>632.0</ele><time>2026-04-04T09:23:05.788Z</time></trkpt><trkpt lat="44.2611573" lon="11.4457672"><ele>632.0</ele><time>2026-04-04T09:23:07.789Z</time></trkpt><trkpt lat="44.261245" lon="11.4458128"><ele>632.0</ele><time>2026-04-04T09:23:10.788Z</time></trkpt><trkpt lat="44.2613197" lon="11.445783"><ele>632.0</ele><time>2026-04-04T09:23:12.786Z</time></trkpt><trkpt lat="44.2614027" lon="11.445771"><ele>632.0</ele><time>2026-04-04T09:23:14.785Z</time></trkpt><trkpt lat="44.2614893" lon="11.4457535"><ele>632.0</ele><time>2026-04-04T09:23:16.787Z</time></trkpt><trkpt lat="44.261559" lon="11.4457278"><ele>631.6666666666666</ele><time>2026-04-04T09:23:18.787Z</time></trkpt><trkpt lat="44.2616497" lon="11.4457172"><ele>631.3333333333333</ele><time>2026-04-04T09:23:21.787Z</time></trkpt><trkpt lat="44.2617317" lon="11.445675"><ele>631.0</ele><time>2026-04-04T09:23:23.787Z</time></trkpt><trkpt lat="44.2618067" lon="11.4456055"><ele>630.6666666666666</ele><time>2026-04-04T09:23:25.789Z</time></trkpt><trkpt lat="44.2618687" lon="11.4455857"><ele>630.3333333333334</ele><time>2026-04-04T09:23:27.787Z</time></trkpt><trkpt lat="44.261956" lon="11.4455625"><ele>630.0</ele><time>2026-04-04T09:23:30.787Z</time></trkpt><trkpt lat="44.262032" lon="11.445471"><ele>628.6666666666666</ele><time>2026-04-04T09:23:32.786Z</time></trkpt><trkpt lat="44.262118" lon="11.4454065"><ele>627.3333333333334</ele><time>2026-04-04T09:23:34.788Z</time></trkpt><trkpt lat="44.2621787" lon="11.4453763"><ele>626.0</ele><time>2026-04-04T09:23:36.785Z</time></trkpt><trkpt lat="44.2622622" lon="11.4453638"><ele>624.6666666666667</ele><time>2026-04-04T09:23:38.785Z</time></trkpt><trkpt lat="44.2623632" lon="11.4453813"><ele>623.3333333333334</ele><time>2026-04-04T09:23:40.786Z</time></trkpt><trkpt lat="44.262439" lon="11.4453935"><ele>622.0</ele><time>2026-04-04T09:23:42.787Z</time></trkpt><trkpt lat="44.2625165" lon="11.4454043"><ele>620.0</ele><time>2026-04-04T09:23:44.786Z</time></trkpt><trkpt lat="44.2626062" lon="11.4453787"><ele>618.0</ele><time>2026-04-04T09:23:46.788Z</time></trkpt><trkpt lat="44.2627008" lon="11.4453543"><ele>616.0</ele><time>2026-04-04T09:23:48.787Z</time></trkpt><trkpt lat="44.2627855" lon="11.445362"><ele>614.0</ele><time>2026-04-04T09:23:50.786Z</time></trkpt><trkpt lat="44.2628747" lon="11.4453808"><ele>612.0</ele><time>2026-04-04T09:23:52.787Z</time></trkpt><trkpt lat="44.2629438" lon="11.4453697"><ele>610.0</ele><time>2026-04-04T09:23:57.786Z</time></trkpt><trkpt lat="44.2630218" lon="11.445388"><ele>610.0</ele><time>2026-04-04T09:24:01.784Z</time></trkpt><trkpt lat="44.2631063" lon="11.4454075"><ele>610.0</ele><time>2026-04-04T09:24:04.785Z</time></trkpt><trkpt lat="44.2631785" lon="11.4454322"><ele>610.0</ele><time>2026-04-04T09:24:07.786Z</time></trkpt><trkpt lat="44.263251" lon="11.4454603"><ele>610.0</ele><time>2026-04-04T09:24:10.786Z</time></trkpt><trkpt lat="44.2633157" lon="11.44549"><ele>610.0</ele><time>2026-04-04T09:24:12.787Z</time></trkpt><trkpt lat="44.2633773" lon="11.4455222"><ele>610.0</ele><time>2026-04-04T09:24:14.788Z</time></trkpt><trkpt lat="44.2634398" lon="11.4455565"><ele>610.0</ele><time>2026-04-04T09:24:16.787Z</time></trkpt><trkpt lat="44.2634992" lon="11.4456175"><ele>610.4</ele><time>2026-04-04T09:24:18.787Z</time></trkpt><trkpt lat="44.263574" lon="11.4457157"><ele>610.8</ele><time>2026-04-04T09:24:20.786Z</time></trkpt><trkpt lat="44.263632" lon="11.4458112"><ele>611.2</ele><time>2026-04-04T09:24:22.787Z</time></trkpt><trkpt lat="44.2636948" lon="11.4458777"><ele>611.6</ele><time>2026-04-04T09:24:24.785Z</time></trkpt><trkpt lat="44.2637922" lon="11.4459162"><ele>612.0</ele><time>2026-04-04T09:24:26.786Z</time></trkpt><trkpt lat="44.2638782" lon="11.4459837"><ele>612.0</ele><time>2026-04-04T09:24:28.785Z</time></trkpt><trkpt lat="44.2639378" lon="11.4460292"><ele>612.0</ele><time>2026-04-04T09:24:30.787Z</time></trkpt><trkpt lat="44.2640178" lon="11.4460252"><ele>612.0</ele><time>2026-04-04T09:24:32.786Z</time></trkpt><trkpt lat="44.2641037" lon="11.4460495"><ele>612.0</ele><time>2026-04-04T09:24:34.785Z</time></trkpt><trkpt lat="44.2642033" lon="11.4460905"><ele>612.0</ele><time>2026-04-04T09:24:36.786Z</time></trkpt><trkpt lat="44.2643072" lon="11.4461173"><ele>612.0</ele><time>2026-04-04T09:24:38.785Z</time></trkpt><trkpt lat="44.2644032" lon="11.4461287"><ele>608.2</ele><time>2026-04-04T09:24:40.786Z</time></trkpt><trkpt lat="44.2645102" lon="11.4461187"><ele>604.4000000000001</ele><time>2026-04-04T09:24:42.785Z</time></trkpt><trkpt lat="44.2646093" lon="11.4460872"><ele>600.5999999999999</ele><time>2026-04-04T09:24:44.785Z</time></trkpt><trkpt lat="44.264708" lon="11.446065"><ele>596.8</ele><time>2026-04-04T09:24:46.785Z</time></trkpt><trkpt lat="44.2647647" lon="11.4459965"><ele>593.0</ele><time>2026-04-04T09:24:48.784Z</time></trkpt><trkpt lat="44.2648545" lon="11.4459013"><ele>591.1666666666666</ele><time>2026-04-04T09:24:50.783Z</time></trkpt><trkpt lat="44.2649225" lon="11.4458882"><ele>589.3333333333333</ele><time>2026-04-04T09:24:51.783Z</time></trkpt><trkpt lat="44.2650105" lon="11.4458867"><ele>587.5</ele><time>2026-04-04T09:24:52.784Z</time></trkpt><trkpt lat="44.2650963" lon="11.4458817"><ele>585.6666666666666</ele><time>2026-04-04T09:24:53.786Z</time></trkpt><trkpt lat="44.2651722" lon="11.4458957"><ele>583.8333333333334</ele><time>2026-04-04T09:24:54.787Z</time></trkpt><trkpt lat="44.2652313" lon="11.4459312"><ele>582.0</ele><time>2026-04-04T09:24:55.788Z</time></trkpt><trkpt lat="44.2652957" lon="11.4460722"><ele>582.0</ele><time>2026-04-04T09:24:57.787Z</time></trkpt><trkpt lat="44.2653137" lon="11.446164"><ele>582.0</ele><time>2026-04-04T09:24:58.788Z</time></trkpt><trkpt lat="44.2653542" lon="11.4462455"><ele>582.0</ele><time>2026-04-04T09:24:59.788Z</time></trkpt><trkpt lat="44.2654228" lon="11.4463307"><ele>582.0</ele><time>2026-04-04T09:25:00.788Z</time></trkpt><trkpt lat="44.2655013" lon="11.4464203"><ele>582.0</ele><time>2026-04-04T09:25:01.788Z</time></trkpt><trkpt lat="44.265591" lon="11.4465112"><ele>582.0</ele><time>2026-04-04T09:25:02.787Z</time></trkpt><trkpt lat="44.2656812" lon="11.4465837"><ele>582.3333333333334</ele><time>2026-04-04T09:25:03.784Z</time></trkpt><trkpt lat="44.2657785" lon="11.4466293"><ele>582.6666666666666</ele><time>2026-04-04T09:25:04.786Z</time></trkpt><trkpt lat="44.2658607" lon="11.4466688"><ele>583.0</ele><time>2026-04-04T09:25:05.785Z</time></trkpt><trkpt lat="44.265941" lon="11.4467793"><ele>583.3333333333333</ele><time>2026-04-04T09:25:07.786Z</time></trkpt><trkpt lat="44.2659558" lon="11.4468657"><ele>583.6666666666666</ele><time>2026-04-04T09:25:08.785Z</time></trkpt><trkpt lat="44.2659523" lon="11.4469703"><ele>584.0</ele><time>2026-04-04T09:25:09.787Z</time></trkpt><trkpt lat="44.265935" lon="11.4470848"><ele>584.0</ele><time>2026-04-04T09:25:10.786Z</time></trkpt><trkpt lat="44.2659065" lon="11.4472"><ele>584.0</ele><time>2026-04-04T09:25:11.787Z</time></trkpt><trkpt lat="44.2658762" lon="11.4473113"><ele>584.0</ele><time>2026-04-04T09:25:12.787Z</time></trkpt><trkpt lat="44.2658357" lon="11.4474235"><ele>584.0</ele><time>2026-04-04T09:25:13.785Z</time></trkpt><trkpt lat="44.2657862" lon="11.4475363"><ele>584.0</ele><time>2026-04-04T09:25:14.784Z</time></trkpt><trkpt lat="44.265739" lon="11.4476487"><ele>584.0</ele><time>2026-04-04T09:25:15.783Z</time></trkpt><trkpt lat="44.2657" lon="11.4477723"><ele>584.0</ele><time>2026-04-04T09:25:16.784Z</time></trkpt><trkpt lat="44.2656902" lon="11.4478947"><ele>584.0</ele><time>2026-04-04T09:25:17.783Z</time></trkpt><trkpt lat="44.2656785" lon="11.448012"><ele>584.0</ele><time>2026-04-04T09:25:18.784Z</time></trkpt><trkpt lat="44.2656977" lon="11.4481368"><ele>584.0</ele><time>2026-04-04T09:25:19.785Z</time></trkpt><trkpt lat="44.265734" lon="11.4482507"><ele>583.0</ele><time>2026-04-04T09:25:20.785Z</time></trkpt><trkpt lat="44.2657767" lon="11.4483525"><ele>582.0</ele><time>2026-04-04T09:25:21.788Z</time></trkpt><trkpt lat="44.2657942" lon="11.448439"><ele>581.0</ele><time>2026-04-04T09:25:22.788Z</time></trkpt><trkpt lat="44.2657565" lon="11.4485277"><ele>580.0</ele><time>2026-04-04T09:25:24.788Z</time></trkpt><trkpt lat="44.2656695" lon="11.4485"><ele>579.0</ele><time>2026-04-04T09:25:31.787Z</time></trkpt><trkpt lat="44.2655947" lon="11.4484533"><ele>578.0</ele><time>2026-04-04T09:25:32.785Z</time></trkpt><trkpt lat="44.2655025" lon="11.4484332"><ele>578.0</ele><time>2026-04-04T09:25:33.785Z</time></trkpt><trkpt lat="44.2653927" lon="11.448435"><ele>578.0</ele><time>2026-04-04T09:25:34.785Z</time></trkpt><trkpt lat="44.2652932" lon="11.4484362"><ele>578.0</ele><time>2026-04-04T09:25:35.786Z</time></trkpt><trkpt lat="44.265198" lon="11.4484207"><ele>578.0</ele><time>2026-04-04T09:25:36.785Z</time></trkpt><trkpt lat="44.2651042" lon="11.4484032"><ele>578.0</ele><time>2026-04-04T09:25:37.787Z</time></trkpt><trkpt lat="44.2650108" lon="11.4484037"><ele>578.0</ele><time>2026-04-04T09:25:38.785Z</time></trkpt><trkpt lat="44.2649157" lon="11.4484188"><ele>578.0</ele><time>2026-04-04T09:25:39.782Z</time></trkpt><trkpt lat="44.2648275" lon="11.4484432"><ele>578.0</ele><time>2026-04-04T09:25:40.784Z</time></trkpt><trkpt lat="44.264738" lon="11.4484608"><ele>578.0</ele><time>2026-04-04T09:25:41.783Z</time></trkpt><trkpt lat="44.264657" lon="11.4484595"><ele>578.0</ele><time>2026-04-04T09:25:42.784Z</time></trkpt><trkpt lat="44.2645655" lon="11.4484493"><ele>578.0</ele><time>2026-04-04T09:25:43.784Z</time></trkpt><trkpt lat="44.264476" lon="11.448432"><ele>578.0</ele><time>2026-04-04T09:25:44.785Z</time></trkpt><trkpt lat="44.2643842" lon="11.4484208"><ele>578.0</ele><time>2026-04-04T09:25:45.786Z</time></trkpt><trkpt lat="44.2642943" lon="11.4484307"><ele>578.0</ele><time>2026-04-04T09:25:46.786Z</time></trkpt><trkpt lat="44.2642003" lon="11.4484573"><ele>578.0</ele><time>2026-04-04T09:25:47.786Z</time></trkpt><trkpt lat="44.2641078" lon="11.4485133"><ele>578.0</ele><time>2026-04-04T09:25:48.786Z</time></trkpt><trkpt lat="44.264004" lon="11.4485955"><ele>581.25</ele><time>2026-04-04T09:25:49.785Z</time></trkpt><trkpt lat="44.2638988" lon="11.4486962"><ele>584.5</ele><time>2026-04-04T09:25:50.784Z</time></trkpt><trkpt lat="44.2638017" lon="11.4487852"><ele>587.75</ele><time>2026-04-04T09:25:51.785Z</time></trkpt><trkpt lat="44.2637068" lon="11.4488615"><ele>591.0</ele><time>2026-04-04T09:25:52.785Z</time></trkpt><trkpt lat="44.263614" lon="11.4489273"><ele>583.4</ele><time>2026-04-04T09:25:53.784Z</time></trkpt><trkpt lat="44.2635197" lon="11.4489737"><ele>575.8</ele><time>2026-04-04T09:25:54.784Z</time></trkpt><trkpt lat="44.2634255" lon="11.4489897"><ele>568.1999999999999</ele><time>2026-04-04T09:25:55.786Z</time></trkpt><trkpt lat="44.2633273" lon="11.449003"><ele>560.6</ele><time>2026-04-04T09:25:56.785Z</time></trkpt><trkpt lat="44.263226" lon="11.4490243"><ele>553.0</ele><time>2026-04-04T09:25:57.785Z</time></trkpt><trkpt lat="44.263123" lon="11.4490602"><ele>554.75</ele><time>2026-04-04T09:25:58.785Z</time></trkpt><trkpt lat="44.263016" lon="11.4491122"><ele>556.5</ele><time>2026-04-04T09:25:59.785Z</time></trkpt><trkpt lat="44.2629033" lon="11.4491717"><ele>558.25</ele><time>2026-04-04T09:26:00.785Z</time></trkpt><trkpt lat="44.2627938" lon="11.4492327"><ele>560.0</ele><time>2026-04-04T09:26:01.785Z</time></trkpt><trkpt lat="44.2626897" lon="11.4492893"><ele>560.0</ele><time>2026-04-04T09:26:02.783Z</time></trkpt><trkpt lat="44.2625917" lon="11.449347"><ele>560.0</ele><time>2026-04-04T09:26:03.783Z</time></trkpt><trkpt lat="44.2624995" lon="11.4494065"><ele>560.0</ele><time>2026-04-04T09:26:04.784Z</time></trkpt><trkpt lat="44.2624143" lon="11.4494545"><ele>560.0</ele><time>2026-04-04T09:26:05.785Z</time></trkpt><trkpt lat="44.2623313" lon="11.4494928"><ele>560.0</ele><time>2026-04-04T09:26:06.784Z</time></trkpt><trkpt lat="44.2622535" lon="11.4495473"><ele>561.6666666666666</ele><time>2026-04-04T09:26:07.786Z</time></trkpt><trkpt lat="44.262183" lon="11.4496212"><ele>563.3333333333333</ele><time>2026-04-04T09:26:08.786Z</time></trkpt><trkpt lat="44.2621178" lon="11.4497045"><ele>565.0</ele><time>2026-04-04T09:26:09.787Z</time></trkpt><trkpt lat="44.2620693" lon="11.4497893"><ele>566.6666666666666</ele><time>2026-04-04T09:26:10.787Z</time></trkpt><trkpt lat="44.2620133" lon="11.449945"><ele>568.3333333333334</ele><time>2026-04-04T09:26:12.786Z</time></trkpt><trkpt lat="44.2619708" lon="11.4500197"><ele>570.0</ele><time>2026-04-04T09:26:13.786Z</time></trkpt><trkpt lat="44.261921" lon="11.4501137"><ele>566.2857142857142</ele><time>2026-04-04T09:26:14.784Z</time></trkpt><trkpt lat="44.2618762" lon="11.4501965"><ele>562.5714285714286</ele><time>2026-04-04T09:26:15.788Z</time></trkpt><trkpt lat="44.2618358" lon="11.4502642"><ele>558.8571428571429</ele><time>2026-04-04T09:26:16.787Z</time></trkpt><trkpt lat="44.2618267" lon="11.4503957"><ele>555.1428571428571</ele><time>2026-04-04T09:26:18.787Z</time></trkpt><trkpt lat="44.2618498" lon="11.4504862"><ele>551.4285714285714</ele><time>2026-04-04T09:26:19.787Z</time></trkpt><trkpt lat="44.2618783" lon="11.4505785"><ele>547.7142857142857</ele><time>2026-04-04T09:26:20.788Z</time></trkpt><trkpt lat="44.2619107" lon="11.450674"><ele>544.0</ele><time>2026-04-04T09:26:21.787Z</time></trkpt><trkpt lat="44.2619558" lon="11.4507615"><ele>540.4</ele><time>2026-04-04T09:26:22.787Z</time></trkpt><trkpt lat="44.2620172" lon="11.4508357"><ele>536.8</ele><time>2026-04-04T09:26:23.785Z</time></trkpt><trkpt lat="44.2620747" lon="11.4508978"><ele>533.2</ele><time>2026-04-04T09:26:24.786Z</time></trkpt><trkpt lat="44.26213" lon="11.4510215"><ele>529.6</ele><time>2026-04-04T09:26:26.787Z</time></trkpt><trkpt lat="44.2621348" lon="11.4512027"><ele>526.0</ele><time>2026-04-04T09:26:28.785Z</time></trkpt><trkpt lat="44.2621587" lon="11.4512907"><ele>523.5</ele><time>2026-04-04T09:26:29.784Z</time></trkpt><trkpt lat="44.262185" lon="11.4513762"><ele>521.0</ele><time>2026-04-04T09:26:30.785Z</time></trkpt><trkpt lat="44.2622017" lon="11.4514637"><ele>518.5</ele><time>2026-04-04T09:26:31.785Z</time></trkpt><trkpt lat="44.2622075" lon="11.4515688"><ele>516.0</ele><time>2026-04-04T09:26:32.787Z</time></trkpt><trkpt lat="44.2622168" lon="11.4516977"><ele>513.5</ele><time>2026-04-04T09:26:33.786Z</time></trkpt><trkpt lat="44.2622353" lon="11.451827"><ele>511.0</ele><time>2026-04-04T09:26:34.786Z</time></trkpt><trkpt lat="44.2622623" lon="11.4519467"><ele>510.6666666666667</ele><time>2026-04-04T09:26:35.785Z</time></trkpt><trkpt lat="44.2622883" lon="11.4520592"><ele>510.33333333333337</ele><time>2026-04-04T09:26:36.786Z</time></trkpt><trkpt lat="44.2623048" lon="11.4521708"><ele>510.0</ele><time>2026-04-04T09:26:37.785Z</time></trkpt><trkpt lat="44.2623183" lon="11.4522833"><ele>509.66666666666663</ele><time>2026-04-04T09:26:38.785Z</time></trkpt><trkpt lat="44.2623357" lon="11.4524055"><ele>509.3333333333333</ele><time>2026-04-04T09:26:39.786Z</time></trkpt><trkpt lat="44.2623683" lon="11.4525137"><ele>509.0</ele><time>2026-04-04T09:26:40.786Z</time></trkpt><trkpt lat="44.2624173" lon="11.4526068"><ele>507.3333333333333</ele><time>2026-04-04T09:26:41.785Z</time></trkpt><trkpt lat="44.2624708" lon="11.4526928"><ele>505.66666666666663</ele><time>2026-04-04T09:26:42.786Z</time></trkpt><trkpt lat="44.2625102" lon="11.4527848"><ele>504.0</ele><time>2026-04-04T09:26:43.786Z</time></trkpt><trkpt lat="44.2625283" lon="11.4528767"><ele>502.33333333333337</ele><time>2026-04-04T09:26:44.785Z</time></trkpt><trkpt lat="44.2625285" lon="11.452967"><ele>500.6666666666667</ele><time>2026-04-04T09:26:45.787Z</time></trkpt><trkpt lat="44.2624913" lon="11.4531327"><ele>499.0</ele><time>2026-04-04T09:26:47.787Z</time></trkpt><trkpt lat="44.2624642" lon="11.4532173"><ele>496.6666666666667</ele><time>2026-04-04T09:26:48.786Z</time></trkpt><trkpt lat="44.262439" lon="11.4533072"><ele>494.33333333333337</ele><time>2026-04-04T09:26:49.788Z</time></trkpt><trkpt lat="44.262429" lon="11.4534008"><ele>492.0</ele><time>2026-04-04T09:26:50.787Z</time></trkpt><trkpt lat="44.2624297" lon="11.4534997"><ele>489.66666666666663</ele><time>2026-04-04T09:26:51.788Z</time></trkpt><trkpt lat="44.2624377" lon="11.4536028"><ele>487.3333333333333</ele><time>2026-04-04T09:26:52.785Z</time></trkpt><trkpt lat="44.2624527" lon="11.4537165"><ele>485.0</ele><time>2026-04-04T09:26:53.785Z</time></trkpt><trkpt lat="44.2624692" lon="11.4538413"><ele>482.2</ele><time>2026-04-04T09:26:54.784Z</time></trkpt><trkpt lat="44.2624828" lon="11.4539772"><ele>479.4</ele><time>2026-04-04T09:26:55.794Z</time></trkpt><trkpt lat="44.2624915" lon="11.454132"><ele>476.6</ele><time>2026-04-04T09:26:56.799Z</time></trkpt><trkpt lat="44.2624958" lon="11.4542802"><ele>473.8</ele><time>2026-04-04T09:26:57.801Z</time></trkpt><trkpt lat="44.2624882" lon="11.4544197"><ele>471.0</ele><time>2026-04-04T09:26:58.802Z</time></trkpt><trkpt lat="44.2624682" lon="11.4545398"><ele>470.5</ele><time>2026-04-04T09:26:59.801Z</time></trkpt><trkpt lat="44.2624407" lon="11.4546458"><ele>470.0</ele><time>2026-04-04T09:27:00.801Z</time></trkpt><trkpt lat="44.262408" lon="11.4547463"><ele>469.5</ele><time>2026-04-04T09:27:01.799Z</time></trkpt><trkpt lat="44.2623773" lon="11.4548505"><ele>469.0</ele><time>2026-04-04T09:27:02.797Z</time></trkpt><trkpt lat="44.2623655" lon="11.454953"><ele>468.5</ele><time>2026-04-04T09:27:03.797Z</time></trkpt><trkpt lat="44.262361" lon="11.4550485"><ele>468.0</ele><time>2026-04-04T09:27:04.798Z</time></trkpt><trkpt lat="44.2623563" lon="11.4551418"><ele>468.0</ele><time>2026-04-04T09:27:05.797Z</time></trkpt><trkpt lat="44.262353" lon="11.4552368"><ele>468.0</ele><time>2026-04-04T09:27:06.798Z</time></trkpt><trkpt lat="44.2623537" lon="11.4553365"><ele>468.0</ele><time>2026-04-04T09:27:07.798Z</time></trkpt><trkpt lat="44.2623507" lon="11.4554393"><ele>468.0</ele><time>2026-04-04T09:27:08.797Z</time></trkpt><trkpt lat="44.2623455" lon="11.4555488"><ele>468.0</ele><time>2026-04-04T09:27:09.799Z</time></trkpt><trkpt lat="44.2623432" lon="11.455668"><ele>468.0</ele><time>2026-04-04T09:27:10.8Z</time></trkpt><trkpt lat="44.262344" lon="11.4557888"><ele>466.0</ele><time>2026-04-04T09:27:11.801Z</time></trkpt><trkpt lat="44.262341" lon="11.4559062"><ele>464.0</ele><time>2026-04-04T09:27:12.8Z</time></trkpt><trkpt lat="44.262339" lon="11.4560133"><ele>462.0</ele><time>2026-04-04T09:27:13.799Z</time></trkpt><trkpt lat="44.2623313" lon="11.456117"><ele>460.0</ele><time>2026-04-04T09:27:14.798Z</time></trkpt><trkpt lat="44.2623122" lon="11.4562183"><ele>458.0</ele><time>2026-04-04T09:27:15.799Z</time></trkpt><trkpt lat="44.2622927" lon="11.4563195"><ele>456.0</ele><time>2026-04-04T09:27:16.797Z</time></trkpt><trkpt lat="44.2622795" lon="11.4564218"><ele>453.0</ele><time>2026-04-04T09:27:17.795Z</time></trkpt><trkpt lat="44.2622683" lon="11.4565352"><ele>450.0</ele><time>2026-04-04T09:27:18.795Z</time></trkpt><trkpt lat="44.2622678" lon="11.4566547"><ele>447.0</ele><time>2026-04-04T09:27:19.796Z</time></trkpt><trkpt lat="44.2622737" lon="11.4567697"><ele>444.0</ele><time>2026-04-04T09:27:20.797Z</time></trkpt><trkpt lat="44.2622817" lon="11.4568792"><ele>441.0</ele><time>2026-04-04T09:27:21.799Z</time></trkpt><trkpt lat="44.2622952" lon="11.4569798"><ele>438.0</ele><time>2026-04-04T09:27:22.799Z</time></trkpt><trkpt lat="44.2623123" lon="11.457081"><ele>436.6666666666667</ele><time>2026-04-04T09:27:23.804Z</time></trkpt><trkpt lat="44.262331" lon="11.4571852"><ele>435.33333333333337</ele><time>2026-04-04T09:27:24.799Z</time></trkpt><trkpt lat="44.2623438" lon="11.457281"><ele>434.0</ele><time>2026-04-04T09:27:25.8Z</time></trkpt><trkpt lat="44.2623183" lon="11.457432"><ele>432.6666666666667</ele><time>2026-04-04T09:27:27.798Z</time></trkpt><trkpt lat="44.2622925" lon="11.4575565"><ele>431.33333333333337</ele><time>2026-04-04T09:27:29.797Z</time></trkpt><trkpt lat="44.2623225" lon="11.4576652"><ele>430.0</ele><time>2026-04-04T09:27:31.796Z</time></trkpt><trkpt lat="44.2623572" lon="11.4577517"><ele>430.0</ele><time>2026-04-04T09:27:33.797Z</time></trkpt><trkpt lat="44.2624472" lon="11.457906"><ele>430.0</ele><time>2026-04-04T09:27:35.796Z</time></trkpt><trkpt lat="44.2625152" lon="11.4580043"><ele>430.0</ele><time>2026-04-04T09:27:36.808Z</time></trkpt><trkpt lat="44.2625885" lon="11.4581097"><ele>430.0</ele><time>2026-04-04T09:27:37.799Z</time></trkpt><trkpt lat="44.2626585" lon="11.458205"><ele>430.0</ele><time>2026-04-04T09:27:38.797Z</time></trkpt><trkpt lat="44.2627273" lon="11.458295"><ele>428.2</ele><time>2026-04-04T09:27:39.798Z</time></trkpt><trkpt lat="44.2628038" lon="11.458388"><ele>426.4</ele><time>2026-04-04T09:27:40.798Z</time></trkpt><trkpt lat="44.2628797" lon="11.4584732"><ele>424.6</ele><time>2026-04-04T09:27:41.794Z</time></trkpt><trkpt lat="44.2629495" lon="11.458546"><ele>422.8</ele><time>2026-04-04T09:27:42.796Z</time></trkpt><trkpt lat="44.2630162" lon="11.4586202"><ele>421.0</ele><time>2026-04-04T09:27:43.796Z</time></trkpt><trkpt lat="44.263075" lon="11.458699"><ele>420.33333333333337</ele><time>2026-04-04T09:27:44.796Z</time></trkpt><trkpt lat="44.2631295" lon="11.4587887"><ele>419.6666666666667</ele><time>2026-04-04T09:27:45.798Z</time></trkpt><trkpt lat="44.263187" lon="11.4588893"><ele>419.0</ele><time>2026-04-04T09:27:46.8Z</time></trkpt><trkpt lat="44.2632427" lon="11.4589825"><ele>418.33333333333337</ele><time>2026-04-04T09:27:47.787Z</time></trkpt><trkpt lat="44.2632997" lon="11.4590597"><ele>417.6666666666667</ele><time>2026-04-04T09:27:48.788Z</time></trkpt><trkpt lat="44.2633673" lon="11.4591298"><ele>417.0</ele><time>2026-04-04T09:27:49.786Z</time></trkpt><trkpt lat="44.2634367" lon="11.4591948"><ele>417.0</ele><time>2026-04-04T09:27:50.788Z</time></trkpt><trkpt lat="44.2635025" lon="11.4592712"><ele>417.0</ele><time>2026-04-04T09:27:51.787Z</time></trkpt><trkpt lat="44.2635603" lon="11.4593625"><ele>417.0</ele><time>2026-04-04T09:27:52.788Z</time></trkpt><trkpt lat="44.263603" lon="11.4594665"><ele>417.0</ele><time>2026-04-04T09:27:53.788Z</time></trkpt><trkpt lat="44.263639" lon="11.4595847"><ele>417.0</ele><time>2026-04-04T09:27:54.787Z</time></trkpt><trkpt lat="44.2636763" lon="11.459711"><ele>417.0</ele><time>2026-04-04T09:27:55.788Z</time></trkpt><trkpt lat="44.2637108" lon="11.459837"><ele>414.8</ele><time>2026-04-04T09:27:56.79Z</time></trkpt><trkpt lat="44.2637483" lon="11.4599552"><ele>412.6</ele><time>2026-04-04T09:27:57.786Z</time></trkpt><trkpt lat="44.2637943" lon="11.4600723"><ele>410.40000000000003</ele><time>2026-04-04T09:27:58.788Z</time></trkpt><trkpt lat="44.2638527" lon="11.4601785"><ele>408.20000000000005</ele><time>2026-04-04T09:27:59.789Z</time></trkpt><trkpt lat="44.2639163" lon="11.4602713"><ele>406.0</ele><time>2026-04-04T09:28:00.788Z</time></trkpt><trkpt lat="44.2639785" lon="11.4603597"><ele>405.00000000000006</ele><time>2026-04-04T09:28:01.788Z</time></trkpt><trkpt lat="44.2640365" lon="11.4604457"><ele>404.0</ele><time>2026-04-04T09:28:02.787Z</time></trkpt><trkpt lat="44.2640818" lon="11.4605497"><ele>403.0</ele><time>2026-04-04T09:28:03.788Z</time></trkpt><trkpt lat="44.2641117" lon="11.4606717"><ele>402.0</ele><time>2026-04-04T09:28:04.789Z</time></trkpt><trkpt lat="44.2641222" lon="11.4607955"><ele>401.00000000000006</ele><time>2026-04-04T09:28:05.786Z</time></trkpt><trkpt lat="44.2641345" lon="11.4609082"><ele>400.0</ele><time>2026-04-04T09:28:06.786Z</time></trkpt><trkpt lat="44.2641563" lon="11.4610115"><ele>399.4</ele><time>2026-04-04T09:28:07.785Z</time></trkpt><trkpt lat="44.2641832" lon="11.4610975"><ele>398.8</ele><time>2026-04-04T09:28:08.786Z</time></trkpt><trkpt lat="44.2642075" lon="11.4612235"><ele>398.20000000000005</ele><time>2026-04-04T09:28:21.801Z</time></trkpt><trkpt lat="44.2642038" lon="11.461361"><ele>397.6</ele><time>2026-04-04T09:28:23.799Z</time></trkpt><trkpt lat="44.2642398" lon="11.4615143"><ele>397.0</ele><time>2026-04-04T09:28:25.799Z</time></trkpt><trkpt lat="44.264282" lon="11.4616603"><ele>395.00000000000006</ele><time>2026-04-04T09:28:27.799Z</time></trkpt><trkpt lat="44.2642585" lon="11.4618247"><ele>393.0</ele><time>2026-04-04T09:28:29.797Z</time></trkpt><trkpt lat="44.2642317" lon="11.461913"><ele>391.0</ele><time>2026-04-04T09:28:30.797Z</time></trkpt><trkpt lat="44.2641935" lon="11.4619943"><ele>389.0</ele><time>2026-04-04T09:28:31.795Z</time></trkpt><trkpt lat="44.2641473" lon="11.462074"><ele>387.00000000000006</ele><time>2026-04-04T09:28:32.793Z</time></trkpt><trkpt lat="44.2641047" lon="11.4621597"><ele>385.0</ele><time>2026-04-04T09:28:33.799Z</time></trkpt><trkpt lat="44.2640813" lon="11.462246"><ele>382.85714285714283</ele><time>2026-04-04T09:28:34.799Z</time></trkpt><trkpt lat="44.2640902" lon="11.4623358"><ele>380.7142857142857</ele><time>2026-04-04T09:28:35.796Z</time></trkpt><trkpt lat="44.2641198" lon="11.462425"><ele>378.57142857142856</ele><time>2026-04-04T09:28:36.798Z</time></trkpt><trkpt lat="44.2641602" lon="11.4625127"><ele>376.42857142857144</ele><time>2026-04-04T09:28:37.799Z</time></trkpt><trkpt lat="44.2642027" lon="11.4626018"><ele>374.2857142857143</ele><time>2026-04-04T09:28:38.798Z</time></trkpt><trkpt lat="44.264254" lon="11.4626862"><ele>372.1428571428571</ele><time>2026-04-04T09:28:39.796Z</time></trkpt><trkpt lat="44.2643077" lon="11.4627688"><ele>370.0</ele><time>2026-04-04T09:28:40.8Z</time></trkpt><trkpt lat="44.2643498" lon="11.4628557"><ele>367.8333333333333</ele><time>2026-04-04T09:28:41.788Z</time></trkpt><trkpt lat="44.2643748" lon="11.4629523"><ele>365.66666666666663</ele><time>2026-04-04T09:28:42.787Z</time></trkpt><trkpt lat="44.2643843" lon="11.4630542"><ele>363.5</ele><time>2026-04-04T09:28:43.787Z</time></trkpt><trkpt lat="44.2643925" lon="11.463178"><ele>361.3333333333333</ele><time>2026-04-04T09:28:44.786Z</time></trkpt><trkpt lat="44.2643978" lon="11.4632945"><ele>359.1666666666667</ele><time>2026-04-04T09:28:45.788Z</time></trkpt><trkpt lat="44.2644015" lon="11.4633948"><ele>357.0</ele><time>2026-04-04T09:28:46.785Z</time></trkpt><trkpt lat="44.264414" lon="11.4634835"><ele>357.0</ele><time>2026-04-04T09:28:47.787Z</time></trkpt><trkpt lat="44.2644432" lon="11.4635677"><ele>357.0</ele><time>2026-04-04T09:28:48.787Z</time></trkpt><trkpt lat="44.264469" lon="11.4636502"><ele>357.0</ele><time>2026-04-04T09:28:49.788Z</time></trkpt><trkpt lat="44.264478" lon="11.4637375"><ele>357.0</ele><time>2026-04-04T09:28:50.789Z</time></trkpt><trkpt lat="44.2644582" lon="11.4639103"><ele>357.0</ele><time>2026-04-04T09:28:52.789Z</time></trkpt><trkpt lat="44.264447" lon="11.4640038"><ele>357.0</ele><time>2026-04-04T09:28:53.787Z</time></trkpt><trkpt lat="44.2644343" lon="11.4641015"><ele>354.6666666666667</ele><time>2026-04-04T09:28:54.786Z</time></trkpt><trkpt lat="44.2644238" lon="11.4642045"><ele>352.3333333333333</ele><time>2026-04-04T09:28:55.786Z</time></trkpt><trkpt lat="44.2644188" lon="11.4643117"><ele>350.0</ele><time>2026-04-04T09:28:56.785Z</time></trkpt><trkpt lat="44.264418" lon="11.4644213"><ele>347.66666666666663</ele><time>2026-04-04T09:28:57.786Z</time></trkpt><trkpt lat="44.2644178" lon="11.4645298"><ele>345.3333333333333</ele><time>2026-04-04T09:28:58.787Z</time></trkpt><trkpt lat="44.2644148" lon="11.464633"><ele>343.0</ele><time>2026-04-04T09:28:59.788Z</time></trkpt><trkpt lat="44.264412" lon="11.4647313"><ele>338.75</ele><time>2026-04-04T09:29:00.788Z</time></trkpt><trkpt lat="44.2644005" lon="11.464896"><ele>334.5</ele><time>2026-04-04T09:29:02.788Z</time></trkpt><trkpt lat="44.2643773" lon="11.4650482"><ele>330.25</ele><time>2026-04-04T09:29:04.788Z</time></trkpt><trkpt lat="44.2643398" lon="11.4651922"><ele>326.0</ele><time>2026-04-04T09:29:06.787Z</time></trkpt><trkpt lat="44.264323" lon="11.4653688"><ele>323.0</ele><time>2026-04-04T09:29:08.786Z</time></trkpt><trkpt lat="44.2643167" lon="11.4654712"><ele>320.0</ele><time>2026-04-04T09:29:09.787Z</time></trkpt><trkpt lat="44.2643135" lon="11.4655807"><ele>317.0</ele><time>2026-04-04T09:29:10.787Z</time></trkpt><trkpt lat="44.2643108" lon="11.4656937"><ele>314.0</ele><time>2026-04-04T09:29:11.786Z</time></trkpt><trkpt lat="44.2643117" lon="11.4658078"><ele>311.0</ele><time>2026-04-04T09:29:12.788Z</time></trkpt><trkpt lat="44.2643167" lon="11.4659142"><ele>308.0</ele><time>2026-04-04T09:29:13.788Z</time></trkpt><trkpt lat="44.2643048" lon="11.4660842"><ele>308.0</ele><time>2026-04-04T09:29:15.787Z</time></trkpt><trkpt lat="44.2643247" lon="11.4662573"><ele>308.0</ele><time>2026-04-04T09:29:17.787Z</time></trkpt><trkpt lat="44.2643332" lon="11.4663503"><ele>308.0</ele><time>2026-04-04T09:29:18.788Z</time></trkpt><trkpt lat="44.2643313" lon="11.4664478"><ele>308.0</ele><time>2026-04-04T09:29:19.786Z</time></trkpt><trkpt lat="44.2643212" lon="11.4665353"><ele>308.0</ele><time>2026-04-04T09:29:20.786Z</time></trkpt><trkpt lat="44.2643127" lon="11.4666688"><ele>308.0</ele><time>2026-04-04T09:29:22.785Z</time></trkpt><trkpt lat="44.2643407" lon="11.4667533"><ele>306.2</ele><time>2026-04-04T09:32:35.785Z</time></trkpt><trkpt lat="44.2644255" lon="11.4668612"><ele>304.4</ele><time>2026-04-04T09:32:38.784Z</time></trkpt><trkpt lat="44.2644848" lon="11.4669223"><ele>302.59999999999997</ele><time>2026-04-04T09:32:39.786Z</time></trkpt><trkpt lat="44.2645445" lon="11.4669925"><ele>300.8</ele><time>2026-04-04T09:32:40.784Z</time></trkpt><trkpt lat="44.264596" lon="11.4670597"><ele>299.0</ele><time>2026-04-04T09:32:41.785Z</time></trkpt><trkpt lat="44.264663" lon="11.4671862"><ele>298.8</ele><time>2026-04-04T09:32:43.787Z</time></trkpt><trkpt lat="44.2646457" lon="11.4673115"><ele>298.59999999999997</ele><time>2026-04-04T09:32:45.786Z</time></trkpt><trkpt lat="44.2645602" lon="11.4674037"><ele>298.4</ele><time>2026-04-04T09:32:47.785Z</time></trkpt><trkpt lat="44.264465" lon="11.4674872"><ele>298.2</ele><time>2026-04-04T09:32:49.787Z</time></trkpt><trkpt lat="44.2644012" lon="11.4675958"><ele>298.0</ele><time>2026-04-04T09:32:51.786Z</time></trkpt><trkpt lat="44.2643962" lon="11.467713"><ele>298.0</ele><time>2026-04-04T09:32:53.787Z</time></trkpt><trkpt lat="44.2644045" lon="11.467806"><ele>298.0</ele><time>2026-04-04T09:32:55.787Z</time></trkpt><trkpt lat="44.2644358" lon="11.4679222"><ele>298.0</ele><time>2026-04-04T09:32:57.787Z</time></trkpt><trkpt lat="44.264459" lon="11.4680058"><ele>298.0</ele><time>2026-04-04T09:32:58.786Z</time></trkpt><trkpt lat="44.2644703" lon="11.4681045"><ele>298.0</ele><time>2026-04-04T09:32:59.785Z</time></trkpt><trkpt lat="44.2644652" lon="11.4682023"><ele>298.0</ele><time>2026-04-04T09:33:00.787Z</time></trkpt><trkpt lat="44.2644503" lon="11.4683022"><ele>298.0</ele><time>2026-04-04T09:33:01.786Z</time></trkpt><trkpt lat="44.2644303" lon="11.4683967"><ele>297.8</ele><time>2026-04-04T09:33:02.784Z</time></trkpt><trkpt lat="44.2644112" lon="11.4685078"><ele>297.6</ele><time>2026-04-04T09:33:03.784Z</time></trkpt><trkpt lat="44.2643882" lon="11.4686325"><ele>297.4</ele><time>2026-04-04T09:33:04.783Z</time></trkpt><trkpt lat="44.2643697" lon="11.4687652"><ele>297.2</ele><time>2026-04-04T09:33:05.785Z</time></trkpt><trkpt lat="44.2643578" lon="11.4688982"><ele>297.0</ele><time>2026-04-04T09:33:06.785Z</time></trkpt><trkpt lat="44.26435" lon="11.4690228"><ele>296.3333333333333</ele><time>2026-04-04T09:33:07.787Z</time></trkpt><trkpt lat="44.264341" lon="11.4691387"><ele>295.6666666666667</ele><time>2026-04-04T09:33:08.785Z</time></trkpt><trkpt lat="44.264328" lon="11.4692507"><ele>295.0</ele><time>2026-04-04T09:33:09.786Z</time></trkpt><trkpt lat="44.2643075" lon="11.4693587"><ele>294.33333333333337</ele><time>2026-04-04T09:33:10.786Z</time></trkpt><trkpt lat="44.2642822" lon="11.469464"><ele>293.6666666666667</ele><time>2026-04-04T09:33:11.784Z</time></trkpt><trkpt lat="44.264254" lon="11.4695583"><ele>293.0</ele><time>2026-04-04T09:33:12.786Z</time></trkpt><trkpt lat="44.2642267" lon="11.4696392"><ele>292.4285714285714</ele><time>2026-04-04T09:33:13.786Z</time></trkpt><trkpt lat="44.2641918" lon="11.4697648"><ele>291.85714285714283</ele><time>2026-04-04T09:33:15.786Z</time></trkpt><trkpt lat="44.2641663" lon="11.4698482"><ele>291.2857142857143</ele><time>2026-04-04T09:33:17.786Z</time></trkpt><trkpt lat="44.2641397" lon="11.4699462"><ele>290.71428571428567</ele><time>2026-04-04T09:33:21.787Z</time></trkpt><trkpt lat="44.264122" lon="11.4700358"><ele>290.1428571428571</ele><time>2026-04-04T09:33:25.786Z</time></trkpt><trkpt lat="44.2640815" lon="11.4701077"><ele>289.57142857142856</ele><time>2026-04-04T09:33:45.79Z</time></trkpt><trkpt lat="44.2640268" lon="11.4701605"><ele>289.0</ele><time>2026-04-04T09:33:48.788Z</time></trkpt><trkpt lat="44.2639698" lon="11.4702598"><ele>289.0</ele><time>2026-04-04T09:33:52.784Z</time></trkpt><trkpt lat="44.2639537" lon="11.4703853"><ele>289.0</ele><time>2026-04-04T09:33:55.786Z</time></trkpt><trkpt lat="44.2639362" lon="11.4705077"><ele>289.0</ele><time>2026-04-04T09:33:57.786Z</time></trkpt><trkpt lat="44.2638992" lon="11.4706617"><ele>289.0</ele><time>2026-04-04T09:33:59.786Z</time></trkpt><trkpt lat="44.263851" lon="11.4707858"><ele>289.0</ele><time>2026-04-04T09:34:01.79Z</time></trkpt><trkpt lat="44.2637487" lon="11.4708003"><ele>289.2</ele><time>2026-04-04T09:34:03.787Z</time></trkpt><trkpt lat="44.2636703" lon="11.4707965"><ele>289.4</ele><time>2026-04-04T09:34:04.789Z</time></trkpt><trkpt lat="44.2635818" lon="11.4707865"><ele>289.6</ele><time>2026-04-04T09:34:05.789Z</time></trkpt><trkpt lat="44.2634922" lon="11.4707628"><ele>289.8</ele><time>2026-04-04T09:34:06.787Z</time></trkpt><trkpt lat="44.2633987" lon="11.4707282"><ele>290.0</ele><time>2026-04-04T09:34:07.786Z</time></trkpt><trkpt lat="44.2632977" lon="11.4706893"><ele>290.0</ele><time>2026-04-04T09:34:08.787Z</time></trkpt><trkpt lat="44.2631907" lon="11.4706632"><ele>290.0</ele><time>2026-04-04T09:34:09.785Z</time></trkpt><trkpt lat="44.2630818" lon="11.4706398"><ele>290.0</ele><time>2026-04-04T09:34:10.787Z</time></trkpt><trkpt lat="44.262978" lon="11.4706005"><ele>290.0</ele><time>2026-04-04T09:34:11.787Z</time></trkpt><trkpt lat="44.262867" lon="11.4705542"><ele>290.0</ele><time>2026-04-04T09:34:12.787Z</time></trkpt><trkpt lat="44.2627492" lon="11.4705287"><ele>290.0</ele><time>2026-04-04T09:34:13.786Z</time></trkpt><trkpt lat="44.2626358" lon="11.4705233"><ele>290.0</ele><time>2026-04-04T09:34:14.786Z</time></trkpt><trkpt lat="44.2625267" lon="11.4705185"><ele>290.0</ele><time>2026-04-04T09:34:15.785Z</time></trkpt><trkpt lat="44.2624327" lon="11.4704883"><ele>290.0</ele><time>2026-04-04T09:34:16.785Z</time></trkpt><trkpt lat="44.2623645" lon="11.470458"><ele>290.0</ele><time>2026-04-04T09:34:17.785Z</time></trkpt><trkpt lat="44.2622818" lon="11.4704282"><ele>290.2</ele><time>2026-04-04T09:34:19.785Z</time></trkpt><trkpt lat="44.2621878" lon="11.4703757"><ele>290.4</ele><time>2026-04-04T09:34:21.787Z</time></trkpt><trkpt lat="44.2621193" lon="11.4703445"><ele>290.6</ele><time>2026-04-04T09:34:22.785Z</time></trkpt><trkpt lat="44.2620403" lon="11.470304"><ele>290.8</ele><time>2026-04-04T09:34:23.785Z</time></trkpt><trkpt lat="44.2619563" lon="11.4702555"><ele>291.0</ele><time>2026-04-04T09:34:24.786Z</time></trkpt><trkpt lat="44.2618557" lon="11.4702242"><ele>291.0</ele><time>2026-04-04T09:34:25.787Z</time></trkpt><trkpt lat="44.2617373" lon="11.470212"><ele>291.0</ele><time>2026-04-04T09:34:26.787Z</time></trkpt><trkpt lat="44.2616242" lon="11.4702007"><ele>291.0</ele><time>2026-04-04T09:34:27.788Z</time></trkpt><trkpt lat="44.261511" lon="11.4701952"><ele>291.0</ele><time>2026-04-04T09:34:28.787Z</time></trkpt><trkpt lat="44.2614047" lon="11.4701895"><ele>291.2</ele><time>2026-04-04T09:34:29.787Z</time></trkpt><trkpt lat="44.2613115" lon="11.4701898"><ele>291.40000000000003</ele><time>2026-04-04T09:34:30.787Z</time></trkpt><trkpt lat="44.2612257" lon="11.4701895"><ele>291.6</ele><time>2026-04-04T09:34:31.786Z</time></trkpt><trkpt lat="44.2611422" lon="11.470157"><ele>291.8</ele><time>2026-04-04T09:34:32.786Z</time></trkpt><trkpt lat="44.2610575" lon="11.4700915"><ele>292.0</ele><time>2026-04-04T09:34:33.787Z</time></trkpt><trkpt lat="44.2609742" lon="11.4700155"><ele>292.0</ele><time>2026-04-04T09:34:34.786Z</time></trkpt><trkpt lat="44.2608958" lon="11.4699593"><ele>292.0</ele><time>2026-04-04T09:34:35.785Z</time></trkpt><trkpt lat="44.2608098" lon="11.4699248"><ele>292.0</ele><time>2026-04-04T09:34:36.784Z</time></trkpt><trkpt lat="44.2607155" lon="11.4699173"><ele>292.0</ele><time>2026-04-04T09:34:37.785Z</time></trkpt><trkpt lat="44.2606078" lon="11.4699383"><ele>292.0</ele><time>2026-04-04T09:34:38.784Z</time></trkpt><trkpt lat="44.2604875" lon="11.4699743"><ele>292.8</ele><time>2026-04-04T09:34:39.784Z</time></trkpt><trkpt lat="44.2603727" lon="11.4700012"><ele>293.6</ele><time>2026-04-04T09:34:40.783Z</time></trkpt><trkpt lat="44.2602702" lon="11.47001"><ele>294.40000000000003</ele><time>2026-04-04T09:34:41.783Z</time></trkpt><trkpt lat="44.2601708" lon="11.4700057"><ele>295.2</ele><time>2026-04-04T09:34:42.783Z</time></trkpt><trkpt lat="44.2600643" lon="11.4699927"><ele>296.0</ele><time>2026-04-04T09:34:43.783Z</time></trkpt><trkpt lat="44.2599557" lon="11.4699787"><ele>296.0</ele><time>2026-04-04T09:34:44.784Z</time></trkpt><trkpt lat="44.2598557" lon="11.469975"><ele>296.0</ele><time>2026-04-04T09:34:45.784Z</time></trkpt><trkpt lat="44.2597577" lon="11.4699627"><ele>296.0</ele><time>2026-04-04T09:34:46.785Z</time></trkpt><trkpt lat="44.2596583" lon="11.4699392"><ele>296.0</ele><time>2026-04-04T09:34:47.784Z</time></trkpt><trkpt lat="44.2595567" lon="11.4699213"><ele>296.0</ele><time>2026-04-04T09:34:48.784Z</time></trkpt><trkpt lat="44.2594442" lon="11.469922"><ele>296.25</ele><time>2026-04-04T09:34:49.784Z</time></trkpt><trkpt lat="44.2593223" lon="11.4699327"><ele>296.5</ele><time>2026-04-04T09:34:50.783Z</time></trkpt><trkpt lat="44.2591998" lon="11.4699492"><ele>296.75</ele><time>2026-04-04T09:34:51.785Z</time></trkpt><trkpt lat="44.2590717" lon="11.4699695"><ele>297.0</ele><time>2026-04-04T09:34:52.784Z</time></trkpt><trkpt lat="44.2589637" lon="11.469981"><ele>297.0</ele><time>2026-04-04T09:34:53.785Z</time></trkpt><trkpt lat="44.2588983" lon="11.469984"><ele>297.0</ele><time>2026-04-04T09:34:54.785Z</time></trkpt><trkpt lat="44.2588015" lon="11.4699398"><ele>297.0</ele><time>2026-04-04T09:34:56.784Z</time></trkpt><trkpt lat="44.2587057" lon="11.4699015"><ele>297.0</ele><time>2026-04-04T09:34:58.786Z</time></trkpt><trkpt lat="44.258628" lon="11.4699238"><ele>297.0</ele><time>2026-04-04T09:35:01.788Z</time></trkpt><trkpt lat="44.2585588" lon="11.4699358"><ele>297.0</ele><time>2026-04-04T09:35:17.788Z</time></trkpt><trkpt lat="44.2584702" lon="11.4698867"><ele>297.0</ele><time>2026-04-04T09:35:21.788Z</time></trkpt><trkpt lat="44.2584085" lon="11.4698257"><ele>297.0</ele><time>2026-04-04T09:35:23.787Z</time></trkpt><trkpt lat="44.2583337" lon="11.4698047"><ele>297.0</ele><time>2026-04-04T09:35:25.787Z</time></trkpt><trkpt lat="44.258265" lon="11.4698577"><ele>297.0</ele><time>2026-04-04T09:35:27.786Z</time></trkpt><trkpt lat="44.258205" lon="11.4699075"><ele>297.0</ele><time>2026-04-04T09:35:29.785Z</time></trkpt><trkpt lat="44.2581433" lon="11.4699297"><ele>297.0</ele><time>2026-04-04T09:35:31.785Z</time></trkpt><trkpt lat="44.2580555" lon="11.469948"><ele>297.2857142857143</ele><time>2026-04-04T09:35:34.787Z</time></trkpt><trkpt lat="44.2579865" lon="11.4699995"><ele>297.5714285714286</ele><time>2026-04-04T09:35:36.788Z</time></trkpt><trkpt lat="44.2579223" lon="11.4700677"><ele>297.8571428571429</ele><time>2026-04-04T09:35:38.788Z</time></trkpt><trkpt lat="44.2578625" lon="11.4701378"><ele>298.14285714285717</ele><time>2026-04-04T09:35:40.787Z</time></trkpt><trkpt lat="44.2578175" lon="11.4702115"><ele>298.42857142857144</ele><time>2026-04-04T09:35:42.786Z</time></trkpt><trkpt lat="44.2577755" lon="11.4702883"><ele>298.7142857142857</ele><time>2026-04-04T09:35:44.786Z</time></trkpt><trkpt lat="44.2577035" lon="11.4702987"><ele>299.0</ele><time>2026-04-04T09:35:46.787Z</time></trkpt><trkpt lat="44.2575683" lon="11.4702522"><ele>299.0</ele><time>2026-04-04T09:35:48.791Z</time></trkpt><trkpt lat="44.2574838" lon="11.4702103"><ele>299.0</ele><time>2026-04-04T09:35:49.787Z</time></trkpt><trkpt lat="44.2573995" lon="11.4701527"><ele>299.0</ele><time>2026-04-04T09:35:50.787Z</time></trkpt><trkpt lat="44.2573135" lon="11.470094"><ele>299.0</ele><time>2026-04-04T09:35:51.787Z</time></trkpt><trkpt lat="44.2572182" lon="11.4700562"><ele>299.0</ele><time>2026-04-04T09:35:52.786Z</time></trkpt><trkpt lat="44.2571103" lon="11.4700368"><ele>299.2</ele><time>2026-04-04T09:35:53.787Z</time></trkpt><trkpt lat="44.2569953" lon="11.4700143"><ele>299.4</ele><time>2026-04-04T09:35:54.785Z</time></trkpt><trkpt lat="44.2568867" lon="11.4699935"><ele>299.6</ele><time>2026-04-04T09:35:55.785Z</time></trkpt><trkpt lat="44.2567838" lon="11.4699748"><ele>299.8</ele><time>2026-04-04T09:35:56.785Z</time></trkpt><trkpt lat="44.2566895" lon="11.4699427"><ele>300.0</ele><time>2026-04-04T09:35:57.786Z</time></trkpt><trkpt lat="44.2566018" lon="11.4698953"><ele>300.0</ele><time>2026-04-04T09:35:58.788Z</time></trkpt><trkpt lat="44.2565268" lon="11.4698428"><ele>300.0</ele><time>2026-04-04T09:35:59.787Z</time></trkpt><trkpt lat="44.256464" lon="11.4697957"><ele>300.0</ele><time>2026-04-04T09:36:00.787Z</time></trkpt><trkpt lat="44.2563647" lon="11.4697438"><ele>300.0</ele><time>2026-04-04T09:36:02.786Z</time></trkpt><trkpt lat="44.256304" lon="11.4697127"><ele>300.0</ele><time>2026-04-04T09:36:04.787Z</time></trkpt><trkpt lat="44.2562327" lon="11.4696997"><ele>300.0</ele><time>2026-04-04T09:36:06.787Z</time></trkpt><trkpt lat="44.256097" lon="11.4697427"><ele>300.0</ele><time>2026-04-04T09:36:08.786Z</time></trkpt><trkpt lat="44.2560082" lon="11.469771"><ele>300.0</ele><time>2026-04-04T09:36:09.788Z</time></trkpt><trkpt lat="44.2559175" lon="11.4697855"><ele>300.0</ele><time>2026-04-04T09:36:10.786Z</time></trkpt><trkpt lat="44.2558188" lon="11.4698042"><ele>300.0</ele><time>2026-04-04T09:36:11.786Z</time></trkpt><trkpt lat="44.2557173" lon="11.4698318"><ele>300.0</ele><time>2026-04-04T09:36:12.787Z</time></trkpt><trkpt lat="44.2556163" lon="11.4698483"><ele>300.2</ele><time>2026-04-04T09:36:13.786Z</time></trkpt><trkpt lat="44.2555145" lon="11.4698445"><ele>300.4</ele><time>2026-04-04T09:36:14.785Z</time></trkpt><trkpt lat="44.2554105" lon="11.4698282"><ele>300.6</ele><time>2026-04-04T09:36:15.785Z</time></trkpt><trkpt lat="44.2553057" lon="11.4698103"><ele>300.8</ele><time>2026-04-04T09:36:16.787Z</time></trkpt><trkpt lat="44.2552077" lon="11.4697955"><ele>301.0</ele><time>2026-04-04T09:36:17.786Z</time></trkpt><trkpt lat="44.2551228" lon="11.469801"><ele>301.0</ele><time>2026-04-04T09:36:18.784Z</time></trkpt><trkpt lat="44.2550375" lon="11.4698417"><ele>301.0</ele><time>2026-04-04T09:36:19.784Z</time></trkpt><trkpt lat="44.2549503" lon="11.4698958"><ele>301.0</ele><time>2026-04-04T09:36:20.784Z</time></trkpt><trkpt lat="44.2548653" lon="11.4699303"><ele>301.0</ele><time>2026-04-04T09:36:21.784Z</time></trkpt><trkpt lat="44.25478" lon="11.4699412"><ele>301.0</ele><time>2026-04-04T09:36:22.787Z</time></trkpt><trkpt lat="44.254689" lon="11.4699363"><ele>301.2</ele><time>2026-04-04T09:36:23.788Z</time></trkpt><trkpt lat="44.2545972" lon="11.4699145"><ele>301.40000000000003</ele><time>2026-04-04T09:36:24.787Z</time></trkpt><trkpt lat="44.2544998" lon="11.4698805"><ele>301.6</ele><time>2026-04-04T09:36:25.787Z</time></trkpt><trkpt lat="44.2544027" lon="11.469847"><ele>301.8</ele><time>2026-04-04T09:36:26.786Z</time></trkpt><trkpt lat="44.254316" lon="11.4698055"><ele>302.0</ele><time>2026-04-04T09:36:27.787Z</time></trkpt><trkpt lat="44.2542375" lon="11.4697648"><ele>302.0</ele><time>2026-04-04T09:36:28.789Z</time></trkpt><trkpt lat="44.254158" lon="11.4697552"><ele>302.0</ele><time>2026-04-04T09:36:29.787Z</time></trkpt><trkpt lat="44.2540758" lon="11.4697808"><ele>302.0</ele><time>2026-04-04T09:36:30.788Z</time></trkpt><trkpt lat="44.2539997" lon="11.469799"><ele>302.0</ele><time>2026-04-04T09:36:31.788Z</time></trkpt><trkpt lat="44.2539252" lon="11.469819"><ele>302.0</ele><time>2026-04-04T09:36:32.787Z</time></trkpt><trkpt lat="44.253856" lon="11.4698598"><ele>302.0</ele><time>2026-04-04T09:36:33.786Z</time></trkpt><trkpt lat="44.253799" lon="11.4698997"><ele>302.33333333333337</ele><time>2026-04-04T09:36:34.788Z</time></trkpt><trkpt lat="44.2537255" lon="11.469932"><ele>302.6666666666667</ele><time>2026-04-04T09:36:36.789Z</time></trkpt><trkpt lat="44.253645" lon="11.4699143"><ele>303.0</ele><time>2026-04-04T09:36:39.789Z</time></trkpt><trkpt lat="44.253576" lon="11.4698925"><ele>303.3333333333333</ele><time>2026-04-04T09:36:42.786Z</time></trkpt><trkpt lat="44.2535258" lon="11.4699892"><ele>303.66666666666663</ele><time>2026-04-04T09:36:45.786Z</time></trkpt><trkpt lat="44.253492" lon="11.4700843"><ele>304.0</ele><time>2026-04-04T09:36:47.787Z</time></trkpt><trkpt lat="44.2534312" lon="11.4701417"><ele>304.0</ele><time>2026-04-04T09:36:49.786Z</time></trkpt><trkpt lat="44.2533567" lon="11.4701398"><ele>304.0</ele><time>2026-04-04T09:36:51.788Z</time></trkpt><trkpt lat="44.2532698" lon="11.4701687"><ele>304.0</ele><time>2026-04-04T09:36:54.787Z</time></trkpt><trkpt lat="44.2531493" lon="11.470184"><ele>304.0</ele><time>2026-04-04T09:36:56.785Z</time></trkpt><trkpt lat="44.2530735" lon="11.4701907"><ele>304.0</ele><time>2026-04-04T09:36:57.787Z</time></trkpt><trkpt lat="44.2529833" lon="11.4701843"><ele>304.1428571428571</ele><time>2026-04-04T09:36:58.787Z</time></trkpt><trkpt lat="44.2528978" lon="11.4701827"><ele>304.28571428571433</ele><time>2026-04-04T09:36:59.785Z</time></trkpt><trkpt lat="44.2528242" lon="11.4701785"><ele>304.42857142857144</ele><time>2026-04-04T09:37:00.787Z</time></trkpt><trkpt lat="44.252762" lon="11.470149"><ele>304.57142857142856</ele><time>2026-04-04T09:37:01.786Z</time></trkpt><trkpt lat="44.2527037" lon="11.470093"><ele>304.71428571428567</ele><time>2026-04-04T09:37:02.786Z</time></trkpt><trkpt lat="44.2526443" lon="11.4700327"><ele>304.8571428571429</ele><time>2026-04-04T09:37:03.784Z</time></trkpt><trkpt lat="44.2525813" lon="11.4699977"><ele>305.0</ele><time>2026-04-04T09:37:04.786Z</time></trkpt><trkpt lat="44.2525043" lon="11.4699882"><ele>305.0</ele><time>2026-04-04T09:37:05.785Z</time></trkpt><trkpt lat="44.2524163" lon="11.4699983"><ele>305.0</ele><time>2026-04-04T09:37:06.784Z</time></trkpt><trkpt lat="44.25232" lon="11.4700162"><ele>305.0</ele><time>2026-04-04T09:37:07.783Z</time></trkpt><trkpt lat="44.2522178" lon="11.4700417"><ele>305.0</ele><time>2026-04-04T09:37:08.782Z</time></trkpt><trkpt lat="44.2521203" lon="11.4700707"><ele>305.0</ele><time>2026-04-04T09:37:09.784Z</time></trkpt><trkpt lat="44.2520363" lon="11.4700983"><ele>305.5</ele><time>2026-04-04T09:37:10.783Z</time></trkpt><trkpt lat="44.2519625" lon="11.4701127"><ele>306.0</ele><time>2026-04-04T09:37:11.785Z</time></trkpt><trkpt lat="44.2518937" lon="11.4701095"><ele>306.5</ele><time>2026-04-04T09:37:12.786Z</time></trkpt><trkpt lat="44.2518302" lon="11.4700772"><ele>307.0</ele><time>2026-04-04T09:37:13.786Z</time></trkpt><trkpt lat="44.2517617" lon="11.4700172"><ele>307.5</ele><time>2026-04-04T09:37:14.785Z</time></trkpt><trkpt lat="44.2516813" lon="11.4699503"><ele>308.0</ele><time>2026-04-04T09:37:15.786Z</time></trkpt><trkpt lat="44.2515905" lon="11.4698723"><ele>308.0</ele><time>2026-04-04T09:37:16.786Z</time></trkpt><trkpt lat="44.2515065" lon="11.4697937"><ele>308.0</ele><time>2026-04-04T09:37:17.786Z</time></trkpt><trkpt lat="44.2514248" lon="11.4697298"><ele>308.0</ele><time>2026-04-04T09:37:18.785Z</time></trkpt><trkpt lat="44.2513248" lon="11.4696852"><ele>308.0</ele><time>2026-04-04T09:37:19.786Z</time></trkpt><trkpt lat="44.2512122" lon="11.4696573"><ele>308.0</ele><time>2026-04-04T09:37:20.784Z</time></trkpt><trkpt lat="44.2510987" lon="11.4696198"><ele>307.83333333333337</ele><time>2026-04-04T09:37:21.784Z</time></trkpt><trkpt lat="44.2509952" lon="11.4695723"><ele>307.6666666666667</ele><time>2026-04-04T09:37:22.785Z</time></trkpt><trkpt lat="44.2509035" lon="11.4695325"><ele>307.5</ele><time>2026-04-04T09:37:23.784Z</time></trkpt><trkpt lat="44.2508247" lon="11.4695068"><ele>307.3333333333333</ele><time>2026-04-04T09:37:24.785Z</time></trkpt><trkpt lat="44.2507595" lon="11.4695248"><ele>307.16666666666663</ele><time>2026-04-04T09:37:25.785Z</time></trkpt><trkpt lat="44.2506947" lon="11.4695728"><ele>307.0</ele><time>2026-04-04T09:37:26.787Z</time></trkpt><trkpt lat="44.2506163" lon="11.4696122"><ele>307.5</ele><time>2026-04-04T09:37:27.788Z</time></trkpt><trkpt lat="44.250529" lon="11.4696495"><ele>308.0</ele><time>2026-04-04T09:37:28.786Z</time></trkpt><trkpt lat="44.2504472" lon="11.4696838"><ele>308.5</ele><time>2026-04-04T09:37:29.789Z</time></trkpt><trkpt lat="44.2503723" lon="11.4696933"><ele>309.0</ele><time>2026-04-04T09:37:30.787Z</time></trkpt><trkpt lat="44.2503072" lon="11.4696765"><ele>309.5</ele><time>2026-04-04T09:37:31.784Z</time></trkpt><trkpt lat="44.250224" lon="11.4696015"><ele>310.0</ele><time>2026-04-04T09:37:33.786Z</time></trkpt><trkpt lat="44.250205" lon="11.4694755"><ele>310.0</ele><time>2026-04-04T09:37:35.785Z</time></trkpt><trkpt lat="44.250179" lon="11.4693467"><ele>310.0</ele><time>2026-04-04T09:37:37.786Z</time></trkpt><trkpt lat="44.2501558" lon="11.4692337"><ele>310.0</ele><time>2026-04-04T09:37:39.787Z</time></trkpt><trkpt lat="44.250101" lon="11.4691493"><ele>310.0</ele><time>2026-04-04T09:37:41.787Z</time></trkpt><trkpt lat="44.2500025" lon="11.4691242"><ele>310.0</ele><time>2026-04-04T09:37:43.788Z</time></trkpt><trkpt lat="44.2499232" lon="11.469106"><ele>310.0</ele><time>2026-04-04T09:37:45.788Z</time></trkpt><trkpt lat="44.2498582" lon="11.4690863"><ele>310.5</ele><time>2026-04-04T09:37:47.786Z</time></trkpt><trkpt lat="44.2497567" lon="11.4691057"><ele>311.0</ele><time>2026-04-04T09:37:49.786Z</time></trkpt><trkpt lat="44.2496942" lon="11.4691338"><ele>311.5</ele><time>2026-04-04T09:37:50.786Z</time></trkpt><trkpt lat="44.2496205" lon="11.469153"><ele>312.0</ele><time>2026-04-04T09:37:51.788Z</time></trkpt><trkpt lat="44.2495408" lon="11.4691497"><ele>312.5</ele><time>2026-04-04T09:37:52.788Z</time></trkpt><trkpt lat="44.2494595" lon="11.4691347"><ele>313.0</ele><time>2026-04-04T09:37:53.786Z</time></trkpt><trkpt lat="44.2493768" lon="11.4691053"><ele>313.0</ele><time>2026-04-04T09:37:54.787Z</time></trkpt><trkpt lat="44.2493048" lon="11.4690558"><ele>313.0</ele><time>2026-04-04T09:37:55.787Z</time></trkpt><trkpt lat="44.2492428" lon="11.4689857"><ele>313.0</ele><time>2026-04-04T09:37:56.782Z</time></trkpt><trkpt lat="44.249185" lon="11.4689043"><ele>313.0</ele><time>2026-04-04T09:37:57.784Z</time></trkpt><trkpt lat="44.2491317" lon="11.4688388"><ele>313.0</ele><time>2026-04-04T09:37:58.784Z</time></trkpt><trkpt lat="44.2490833" lon="11.4687312"><ele>313.0</ele><time>2026-04-04T09:38:00.786Z</time></trkpt><trkpt lat="44.2490615" lon="11.4686367"><ele>312.8333333333333</ele><time>2026-04-04T09:38:02.788Z</time></trkpt><trkpt lat="44.2490335" lon="11.4685482"><ele>312.66666666666663</ele><time>2026-04-04T09:38:04.785Z</time></trkpt><trkpt lat="44.248952" lon="11.468445"><ele>312.5</ele><time>2026-04-04T09:38:06.787Z</time></trkpt><trkpt lat="44.2488895" lon="11.4684057"><ele>312.3333333333333</ele><time>2026-04-04T09:38:07.786Z</time></trkpt><trkpt lat="44.2488258" lon="11.4683773"><ele>312.1666666666667</ele><time>2026-04-04T09:38:08.786Z</time></trkpt><trkpt lat="44.2487622" lon="11.4683562"><ele>312.0</ele><time>2026-04-04T09:38:09.787Z</time></trkpt><trkpt lat="44.24865" lon="11.4683127"><ele>312.0</ele><time>2026-04-04T09:38:11.786Z</time></trkpt><trkpt lat="44.2485593" lon="11.4682785"><ele>312.0</ele><time>2026-04-04T09:38:13.788Z</time></trkpt><trkpt lat="44.248481" lon="11.4682777"><ele>312.0</ele><time>2026-04-04T09:38:15.788Z</time></trkpt><trkpt lat="44.2483987" lon="11.4682805"><ele>312.0</ele><time>2026-04-04T09:38:17.787Z</time></trkpt><trkpt lat="44.248319" lon="11.4682857"><ele>312.0</ele><time>2026-04-04T09:38:19.787Z</time></trkpt><trkpt lat="44.2482565" lon="11.4682593"><ele>312.0</ele><time>2026-04-04T09:38:22.784Z</time></trkpt><trkpt lat="44.2481695" lon="11.4682177"><ele>312.0</ele><time>2026-04-04T09:38:24.787Z</time></trkpt><trkpt lat="44.248059" lon="11.4681313"><ele>312.0</ele><time>2026-04-04T09:38:26.79Z</time></trkpt><trkpt lat="44.2479917" lon="11.4680787"><ele>312.0</ele><time>2026-04-04T09:38:27.787Z</time></trkpt><trkpt lat="44.247918" lon="11.4680333"><ele>312.0</ele><time>2026-04-04T09:38:28.785Z</time></trkpt><trkpt lat="44.2478363" lon="11.4679887"><ele>312.0</ele><time>2026-04-04T09:38:29.785Z</time></trkpt><trkpt lat="44.2477485" lon="11.4679432"><ele>312.6666666666667</ele><time>2026-04-04T09:38:30.786Z</time></trkpt><trkpt lat="44.247659" lon="11.4679037"><ele>313.3333333333333</ele><time>2026-04-04T09:38:31.786Z</time></trkpt><trkpt lat="44.2475718" lon="11.4678717"><ele>314.0</ele><time>2026-04-04T09:38:32.788Z</time></trkpt><trkpt lat="44.2474892" lon="11.4678445"><ele>314.66666666666663</ele><time>2026-04-04T09:38:33.787Z</time></trkpt><trkpt lat="44.2474138" lon="11.4678222"><ele>315.3333333333333</ele><time>2026-04-04T09:38:34.786Z</time></trkpt><trkpt lat="44.2473467" lon="11.4678005"><ele>316.0</ele><time>2026-04-04T09:38:35.784Z</time></trkpt><trkpt lat="44.2472838" lon="11.4677782"><ele>316.0</ele><time>2026-04-04T09:38:36.787Z</time></trkpt><trkpt lat="44.2471723" lon="11.4677488"><ele>316.0</ele><time>2026-04-04T09:38:38.787Z</time></trkpt><trkpt lat="44.247079" lon="11.4677283"><ele>316.0</ele><time>2026-04-04T09:38:40.79Z</time></trkpt><trkpt lat="44.2470007" lon="11.467802"><ele>316.0</ele><time>2026-04-04T09:38:42.787Z</time></trkpt><trkpt lat="44.2469213" lon="11.4679302"><ele>316.0</ele><time>2026-04-04T09:38:44.788Z</time></trkpt><trkpt lat="44.2468653" lon="11.467996"><ele>315.8333333333333</ele><time>2026-04-04T09:38:45.785Z</time></trkpt><trkpt lat="44.2467992" lon="11.4680557"><ele>315.66666666666663</ele><time>2026-04-04T09:38:46.785Z</time></trkpt><trkpt lat="44.2467473" lon="11.4681207"><ele>315.5</ele><time>2026-04-04T09:38:47.785Z</time></trkpt><trkpt lat="44.2467097" lon="11.4682058"><ele>315.3333333333333</ele><time>2026-04-04T09:38:48.786Z</time></trkpt><trkpt lat="44.2466752" lon="11.4682798"><ele>315.1666666666667</ele><time>2026-04-04T09:38:49.788Z</time></trkpt><trkpt lat="44.2465663" lon="11.4683253"><ele>315.0</ele><time>2026-04-04T09:38:51.786Z</time></trkpt><trkpt lat="44.2464845" lon="11.4682803"><ele>315.0</ele><time>2026-04-04T09:38:52.785Z</time></trkpt><trkpt lat="44.2463917" lon="11.4681977"><ele>315.0</ele><time>2026-04-04T09:38:53.787Z</time></trkpt><trkpt lat="44.2462927" lon="11.4680952"><ele>315.0</ele><time>2026-04-04T09:38:54.786Z</time></trkpt><trkpt lat="44.2461992" lon="11.4680117"><ele>315.0</ele><time>2026-04-04T09:38:55.787Z</time></trkpt><trkpt lat="44.2461098" lon="11.4679497"><ele>315.0</ele><time>2026-04-04T09:38:56.786Z</time></trkpt><trkpt lat="44.2460228" lon="11.4679137"><ele>315.0</ele><time>2026-04-04T09:38:57.787Z</time></trkpt><trkpt lat="44.2459407" lon="11.467909"><ele>315.0</ele><time>2026-04-04T09:38:58.788Z</time></trkpt><trkpt lat="44.2458763" lon="11.4679155"><ele>315.0</ele><time>2026-04-04T09:38:59.787Z</time></trkpt><trkpt lat="44.2457962" lon="11.4679162"><ele>315.0</ele><time>2026-04-04T09:39:01.788Z</time></trkpt><trkpt lat="44.2457258" lon="11.4678887"><ele>315.0</ele><time>2026-04-04T09:39:05.788Z</time></trkpt><trkpt lat="44.2456523" lon="11.4678347"><ele>315.0</ele><time>2026-04-04T09:39:10.784Z</time></trkpt><trkpt lat="44.2455608" lon="11.4677838"><ele>315.8</ele><time>2026-04-04T09:39:13.787Z</time></trkpt><trkpt lat="44.2454623" lon="11.467705"><ele>316.6</ele><time>2026-04-04T09:39:15.787Z</time></trkpt><trkpt lat="44.2453977" lon="11.4676403"><ele>317.4</ele><time>2026-04-04T09:39:16.788Z</time></trkpt><trkpt lat="44.2453383" lon="11.4675795"><ele>318.2</ele><time>2026-04-04T09:39:17.788Z</time></trkpt><trkpt lat="44.245231" lon="11.4675472"><ele>319.0</ele><time>2026-04-04T09:39:19.788Z</time></trkpt><trkpt lat="44.245167" lon="11.4676053"><ele>319.0</ele><time>2026-04-04T09:39:20.787Z</time></trkpt><trkpt lat="44.2451123" lon="11.4676722"><ele>319.0</ele><time>2026-04-04T09:39:21.789Z</time></trkpt><trkpt lat="44.2450048" lon="11.467709"><ele>319.0</ele><time>2026-04-04T09:39:23.788Z</time></trkpt><trkpt lat="44.244936" lon="11.4676775"><ele>319.0</ele><time>2026-04-04T09:39:24.788Z</time></trkpt><trkpt lat="44.2448542" lon="11.4676145"><ele>319.0</ele><time>2026-04-04T09:39:25.787Z</time></trkpt><trkpt lat="44.2447633" lon="11.4675515"><ele>319.8333333333333</ele><time>2026-04-04T09:39:26.787Z</time></trkpt><trkpt lat="44.2446815" lon="11.467483"><ele>320.66666666666663</ele><time>2026-04-04T09:39:27.788Z</time></trkpt><trkpt lat="44.2446183" lon="11.4673985"><ele>321.5</ele><time>2026-04-04T09:39:28.788Z</time></trkpt><trkpt lat="44.2445665" lon="11.4673182"><ele>322.3333333333333</ele><time>2026-04-04T09:39:29.786Z</time></trkpt><trkpt lat="44.2445192" lon="11.4672537"><ele>323.1666666666667</ele><time>2026-04-04T09:39:30.786Z</time></trkpt><trkpt lat="44.2444597" lon="11.467214"><ele>324.0</ele><time>2026-04-04T09:39:31.786Z</time></trkpt><trkpt lat="44.244379" lon="11.4671798"><ele>324.0</ele><time>2026-04-04T09:39:32.785Z</time></trkpt><trkpt lat="44.2442853" lon="11.4671345"><ele>324.0</ele><time>2026-04-04T09:39:33.787Z</time></trkpt><trkpt lat="44.2441817" lon="11.4670843"><ele>324.0</ele><time>2026-04-04T09:39:34.784Z</time></trkpt><trkpt lat="44.2440827" lon="11.4670395"><ele>324.0</ele><time>2026-04-04T09:39:35.784Z</time></trkpt><trkpt lat="44.243993" lon="11.4669907"><ele>324.0</ele><time>2026-04-04T09:39:36.784Z</time></trkpt><trkpt lat="44.2439097" lon="11.4669378"><ele>323.6</ele><time>2026-04-04T09:39:37.784Z</time></trkpt><trkpt lat="44.2438185" lon="11.4669117"><ele>323.2</ele><time>2026-04-04T09:39:38.787Z</time></trkpt><trkpt lat="44.2437143" lon="11.4669137"><ele>322.8</ele><time>2026-04-04T09:39:39.787Z</time></trkpt><trkpt lat="44.2436098" lon="11.4669295"><ele>322.40000000000003</ele><time>2026-04-04T09:39:40.787Z</time></trkpt><trkpt lat="44.2435182" lon="11.4669517"><ele>322.0</ele><time>2026-04-04T09:39:41.788Z</time></trkpt><trkpt lat="44.2434403" lon="11.4669632"><ele>322.0</ele><time>2026-04-04T09:39:42.788Z</time></trkpt><trkpt lat="44.2433763" lon="11.4669482"><ele>322.0</ele><time>2026-04-04T09:39:43.787Z</time></trkpt><trkpt lat="44.2433212" lon="11.466834"><ele>322.0</ele><time>2026-04-04T09:39:45.786Z</time></trkpt><trkpt lat="44.2432813" lon="11.4667075"><ele>322.0</ele><time>2026-04-04T09:39:47.786Z</time></trkpt><trkpt lat="44.2432147" lon="11.4666177"><ele>322.0</ele><time>2026-04-04T09:39:49.786Z</time></trkpt><trkpt lat="44.2431047" lon="11.4665338"><ele>322.3333333333333</ele><time>2026-04-04T09:39:51.787Z</time></trkpt><trkpt lat="44.2430413" lon="11.4664965"><ele>322.66666666666663</ele><time>2026-04-04T09:39:52.787Z</time></trkpt><trkpt lat="44.2429745" lon="11.4664512"><ele>323.0</ele><time>2026-04-04T09:39:53.787Z</time></trkpt><trkpt lat="44.2429123" lon="11.4664133"><ele>323.3333333333333</ele><time>2026-04-04T09:39:54.788Z</time></trkpt><trkpt lat="44.2427863" lon="11.4664158"><ele>323.6666666666667</ele><time>2026-04-04T09:39:56.787Z</time></trkpt><trkpt lat="44.2427263" lon="11.4664442"><ele>324.0</ele><time>2026-04-04T09:39:57.788Z</time></trkpt><trkpt lat="44.2426332" lon="11.4665002"><ele>324.0</ele><time>2026-04-04T09:39:59.785Z</time></trkpt><trkpt lat="44.242551" lon="11.4665732"><ele>324.0</ele><time>2026-04-04T09:40:01.784Z</time></trkpt><trkpt lat="44.2424312" lon="11.4666245"><ele>324.0</ele><time>2026-04-04T09:40:03.789Z</time></trkpt><trkpt lat="44.2423697" lon="11.4665855"><ele>324.0</ele><time>2026-04-04T09:40:04.787Z</time></trkpt><trkpt lat="44.2423133" lon="11.4665075"><ele>324.0</ele><time>2026-04-04T09:40:05.787Z</time></trkpt><trkpt lat="44.242265" lon="11.466433"><ele>324.0</ele><time>2026-04-04T09:40:06.786Z</time></trkpt><trkpt lat="44.242205" lon="11.4663758"><ele>324.2</ele><time>2026-04-04T09:40:07.784Z</time></trkpt><trkpt lat="44.242129" lon="11.4663512"><ele>324.4</ele><time>2026-04-04T09:40:08.786Z</time></trkpt><trkpt lat="44.2420427" lon="11.4663445"><ele>324.6</ele><time>2026-04-04T09:40:09.787Z</time></trkpt><trkpt lat="44.2419485" lon="11.4663415"><ele>324.8</ele><time>2026-04-04T09:40:10.788Z</time></trkpt><trkpt lat="44.2418487" lon="11.4663362"><ele>325.0</ele><time>2026-04-04T09:40:11.787Z</time></trkpt><trkpt lat="44.2417505" lon="11.4663138"><ele>325.16666666666663</ele><time>2026-04-04T09:40:12.787Z</time></trkpt><trkpt lat="44.2416712" lon="11.466262"><ele>325.3333333333333</ele><time>2026-04-04T09:40:13.788Z</time></trkpt><trkpt lat="44.241597" lon="11.4662133"><ele>325.5</ele><time>2026-04-04T09:40:14.787Z</time></trkpt><trkpt lat="44.241509" lon="11.4661992"><ele>325.6666666666667</ele><time>2026-04-04T09:40:15.787Z</time></trkpt><trkpt lat="44.2414142" lon="11.466191"><ele>325.83333333333337</ele><time>2026-04-04T09:40:16.787Z</time></trkpt><trkpt lat="44.241326" lon="11.4661507"><ele>326.0</ele><time>2026-04-04T09:40:17.786Z</time></trkpt><trkpt lat="44.241237" lon="11.4660828"><ele>326.0</ele><time>2026-04-04T09:40:18.787Z</time></trkpt><trkpt lat="44.2411602" lon="11.4659858"><ele>326.0</ele><time>2026-04-04T09:40:19.787Z</time></trkpt><trkpt lat="44.2410832" lon="11.4658607"><ele>326.0</ele><time>2026-04-04T09:40:20.786Z</time></trkpt><trkpt lat="44.2409985" lon="11.4657312"><ele>326.0</ele><time>2026-04-04T09:40:21.786Z</time></trkpt><trkpt lat="44.240911" lon="11.4656018"><ele>326.0</ele><time>2026-04-04T09:40:22.786Z</time></trkpt><trkpt lat="44.2408407" lon="11.4654777"><ele>326.0</ele><time>2026-04-04T09:40:23.783Z</time></trkpt><trkpt lat="44.2407895" lon="11.4653497"><ele>326.0</ele><time>2026-04-04T09:40:24.783Z</time></trkpt><trkpt lat="44.2407533" lon="11.4652137"><ele>326.0</ele><time>2026-04-04T09:40:25.784Z</time></trkpt><trkpt lat="44.2407387" lon="11.4650857"><ele>326.0</ele><time>2026-04-04T09:40:26.783Z</time></trkpt><trkpt lat="44.2407387" lon="11.4649693"><ele>326.5</ele><time>2026-04-04T09:40:27.785Z</time></trkpt><trkpt lat="44.240753" lon="11.464868"><ele>327.0</ele><time>2026-04-04T09:40:28.784Z</time></trkpt><trkpt lat="44.2407852" lon="11.4647757"><ele>327.5</ele><time>2026-04-04T09:40:29.785Z</time></trkpt><trkpt lat="44.2408262" lon="11.4646697"><ele>328.0</ele><time>2026-04-04T09:40:30.786Z</time></trkpt><trkpt lat="44.240859" lon="11.4645512"><ele>328.5</ele><time>2026-04-04T09:40:31.786Z</time></trkpt><trkpt lat="44.2408795" lon="11.4644247"><ele>329.0</ele><time>2026-04-04T09:40:32.785Z</time></trkpt><trkpt lat="44.2408877" lon="11.4642983"><ele>329.0</ele><time>2026-04-04T09:40:33.786Z</time></trkpt><trkpt lat="44.2408787" lon="11.4641655"><ele>329.0</ele><time>2026-04-04T09:40:34.785Z</time></trkpt><trkpt lat="44.2408552" lon="11.4640265"><ele>329.0</ele><time>2026-04-04T09:40:35.787Z</time></trkpt><trkpt lat="44.2408255" lon="11.4638727"><ele>329.0</ele><time>2026-04-04T09:40:36.787Z</time></trkpt><trkpt lat="44.2407933" lon="11.4637085"><ele>329.0</ele><time>2026-04-04T09:40:37.786Z</time></trkpt><trkpt lat="44.2407623" lon="11.4635475"><ele>330.0</ele><time>2026-04-04T09:40:38.786Z</time></trkpt><trkpt lat="44.2407377" lon="11.4633903"><ele>331.0</ele><time>2026-04-04T09:40:39.786Z</time></trkpt><trkpt lat="44.2407205" lon="11.4632373"><ele>332.0</ele><time>2026-04-04T09:40:40.786Z</time></trkpt><trkpt lat="44.2407042" lon="11.4630837"><ele>333.0</ele><time>2026-04-04T09:40:41.786Z</time></trkpt><trkpt lat="44.2406922" lon="11.4629272"><ele>333.75</ele><time>2026-04-04T09:40:42.786Z</time></trkpt><trkpt lat="44.2406902" lon="11.4627622"><ele>334.5</ele><time>2026-04-04T09:40:43.785Z</time></trkpt><trkpt lat="44.2407005" lon="11.4625947"><ele>335.25</ele><time>2026-04-04T09:40:44.786Z</time></trkpt><trkpt lat="44.2407153" lon="11.462428"><ele>336.0</ele><time>2026-04-04T09:40:45.785Z</time></trkpt><trkpt lat="44.2407293" lon="11.4622628"><ele>337.25</ele><time>2026-04-04T09:40:46.786Z</time></trkpt><trkpt lat="44.2407348" lon="11.4620958"><ele>338.5</ele><time>2026-04-04T09:40:47.783Z</time></trkpt><trkpt lat="44.2407415" lon="11.4619347"><ele>339.75</ele><time>2026-04-04T09:40:48.784Z</time></trkpt><trkpt lat="44.2407643" lon="11.4617847"><ele>341.0</ele><time>2026-04-04T09:40:49.783Z</time></trkpt><trkpt lat="44.2407942" lon="11.4616335"><ele>341.0</ele><time>2026-04-04T09:40:50.784Z</time></trkpt><trkpt lat="44.2408215" lon="11.4614797"><ele>341.0</ele><time>2026-04-04T09:40:51.784Z</time></trkpt><trkpt lat="44.2408418" lon="11.4613235"><ele>341.0</ele><time>2026-04-04T09:40:52.787Z</time></trkpt><trkpt lat="44.2408512" lon="11.4611625"><ele>341.0</ele><time>2026-04-04T09:40:53.784Z</time></trkpt><trkpt lat="44.2408547" lon="11.4610033"><ele>341.6</ele><time>2026-04-04T09:40:54.785Z</time></trkpt><trkpt lat="44.2408552" lon="11.4608553"><ele>342.20000000000005</ele><time>2026-04-04T09:40:55.786Z</time></trkpt><trkpt lat="44.240851" lon="11.4607118"><ele>342.79999999999995</ele><time>2026-04-04T09:40:56.785Z</time></trkpt><trkpt lat="44.2408507" lon="11.4605708"><ele>343.4</ele><time>2026-04-04T09:40:57.786Z</time></trkpt><trkpt lat="44.2408733" lon="11.460439"><ele>344.0</ele><time>2026-04-04T09:40:58.785Z</time></trkpt><trkpt lat="44.2409137" lon="11.4603043"><ele>344.5</ele><time>2026-04-04T09:40:59.786Z</time></trkpt><trkpt lat="44.2409563" lon="11.4601613"><ele>345.0</ele><time>2026-04-04T09:41:00.787Z</time></trkpt><trkpt lat="44.2409982" lon="11.460008"><ele>345.5</ele><time>2026-04-04T09:41:01.785Z</time></trkpt><trkpt lat="44.2410398" lon="11.4598427"><ele>346.0</ele><time>2026-04-04T09:41:02.785Z</time></trkpt><trkpt lat="44.241075" lon="11.459688"><ele>347.20000000000005</ele><time>2026-04-04T09:41:03.785Z</time></trkpt><trkpt lat="44.241103" lon="11.4595543"><ele>348.40000000000003</ele><time>2026-04-04T09:41:04.784Z</time></trkpt><trkpt lat="44.2411313" lon="11.4594387"><ele>349.6</ele><time>2026-04-04T09:41:05.786Z</time></trkpt><trkpt lat="44.2411597" lon="11.4593287"><ele>350.8</ele><time>2026-04-04T09:41:06.786Z</time></trkpt><trkpt lat="44.2412013" lon="11.4592265"><ele>352.0</ele><time>2026-04-04T09:41:07.785Z</time></trkpt><trkpt lat="44.2412642" lon="11.4591275"><ele>352.0</ele><time>2026-04-04T09:41:08.785Z</time></trkpt><trkpt lat="44.2413397" lon="11.459034"><ele>352.0</ele><time>2026-04-04T09:41:09.786Z</time></trkpt><trkpt lat="44.241418" lon="11.4589505"><ele>352.0</ele><time>2026-04-04T09:41:10.786Z</time></trkpt><trkpt lat="44.2414893" lon="11.4588833"><ele>352.0</ele><time>2026-04-04T09:41:11.784Z</time></trkpt><trkpt lat="44.2415518" lon="11.458817"><ele>352.0</ele><time>2026-04-04T09:41:12.782Z</time></trkpt><trkpt lat="44.2415912" lon="11.4587375"><ele>352.0</ele><time>2026-04-04T09:41:13.783Z</time></trkpt><trkpt lat="44.2416015" lon="11.4586288"><ele>352.8</ele><time>2026-04-04T09:41:14.783Z</time></trkpt><trkpt lat="44.2415843" lon="11.4585003"><ele>353.6</ele><time>2026-04-04T09:41:15.785Z</time></trkpt><trkpt lat="44.2415487" lon="11.4583582"><ele>354.40000000000003</ele><time>2026-04-04T09:41:16.785Z</time></trkpt><trkpt lat="44.2415073" lon="11.4582192"><ele>355.20000000000005</ele><time>2026-04-04T09:41:17.787Z</time></trkpt><trkpt lat="44.2414728" lon="11.4580892"><ele>356.0</ele><time>2026-04-04T09:41:18.786Z</time></trkpt><trkpt lat="44.2414567" lon="11.457973"><ele>357.0</ele><time>2026-04-04T09:41:19.787Z</time></trkpt><trkpt lat="44.2414612" lon="11.4578542"><ele>358.0</ele><time>2026-04-04T09:41:20.786Z</time></trkpt><trkpt lat="44.2414795" lon="11.457732"><ele>359.0</ele><time>2026-04-04T09:41:21.785Z</time></trkpt><trkpt lat="44.2415028" lon="11.4576358"><ele>360.0</ele><time>2026-04-04T09:41:22.787Z</time></trkpt><trkpt lat="44.2415347" lon="11.4575272"><ele>361.0</ele><time>2026-04-04T09:41:24.788Z</time></trkpt><trkpt lat="44.2415368" lon="11.4574215"><ele>362.0</ele><time>2026-04-04T09:41:26.787Z</time></trkpt><trkpt lat="44.2415528" lon="11.4573307"><ele>362.0</ele><time>2026-04-04T09:41:28.788Z</time></trkpt><trkpt lat="44.2415948" lon="11.4572147"><ele>362.0</ele><time>2026-04-04T09:41:30.788Z</time></trkpt><trkpt lat="44.2416292" lon="11.4571253"><ele>362.0</ele><time>2026-04-04T09:41:31.786Z</time></trkpt><trkpt lat="44.2416592" lon="11.4570413"><ele>362.0</ele><time>2026-04-04T09:41:32.786Z</time></trkpt><trkpt lat="44.2416968" lon="11.4568783"><ele>362.0</ele><time>2026-04-04T09:41:34.786Z</time></trkpt><trkpt lat="44.2417247" lon="11.4567415"><ele>362.6</ele><time>2026-04-04T09:41:36.786Z</time></trkpt><trkpt lat="44.2416748" lon="11.4566772"><ele>363.20000000000005</ele><time>2026-04-04T09:41:39.786Z</time></trkpt><trkpt lat="44.2416093" lon="11.4565557"><ele>363.8</ele><time>2026-04-04T09:41:42.785Z</time></trkpt><trkpt lat="44.2415572" lon="11.456434"><ele>364.4</ele><time>2026-04-04T09:41:44.787Z</time></trkpt><trkpt lat="44.2415033" lon="11.4562977"><ele>365.0</ele><time>2026-04-04T09:41:46.787Z</time></trkpt><trkpt lat="44.2414382" lon="11.4561553"><ele>367.1666666666667</ele><time>2026-04-04T09:41:48.789Z</time></trkpt><trkpt lat="44.2413842" lon="11.4560378"><ele>369.33333333333337</ele><time>2026-04-04T09:41:50.787Z</time></trkpt><trkpt lat="44.2413288" lon="11.455949"><ele>371.5</ele><time>2026-04-04T09:41:52.787Z</time></trkpt><trkpt lat="44.2412835" lon="11.4558832"><ele>373.6666666666667</ele><time>2026-04-04T09:41:54.787Z</time></trkpt><trkpt lat="44.2412237" lon="11.4557872"><ele>375.8333333333333</ele><time>2026-04-04T09:41:57.788Z</time></trkpt><trkpt lat="44.2411698" lon="11.4556737"><ele>378.0</ele><time>2026-04-04T09:41:59.786Z</time></trkpt><trkpt lat="44.2411253" lon="11.4556062"><ele>378.0</ele><time>2026-04-04T09:42:00.786Z</time></trkpt><trkpt lat="44.241075" lon="11.455535"><ele>378.0</ele><time>2026-04-04T09:42:01.785Z</time></trkpt><trkpt lat="44.2410315" lon="11.4554588"><ele>378.0</ele><time>2026-04-04T09:42:02.784Z</time></trkpt><trkpt lat="44.2409922" lon="11.4553022"><ele>378.0</ele><time>2026-04-04T09:42:04.784Z</time></trkpt><trkpt lat="44.2409977" lon="11.4552098"><ele>378.0</ele><time>2026-04-04T09:42:05.786Z</time></trkpt><trkpt lat="44.2410147" lon="11.4551127"><ele>378.0</ele><time>2026-04-04T09:42:06.785Z</time></trkpt><trkpt lat="44.2410445" lon="11.4550187"><ele>379.79999999999995</ele><time>2026-04-04T09:42:07.785Z</time></trkpt><trkpt lat="44.2410848" lon="11.4549155"><ele>381.6</ele><time>2026-04-04T09:42:08.785Z</time></trkpt><trkpt lat="44.2411273" lon="11.4548007"><ele>383.4</ele><time>2026-04-04T09:42:09.786Z</time></trkpt><trkpt lat="44.2411585" lon="11.4546862"><ele>385.20000000000005</ele><time>2026-04-04T09:42:10.785Z</time></trkpt><trkpt lat="44.241185" lon="11.4545593"><ele>387.0</ele><time>2026-04-04T09:42:11.785Z</time></trkpt><trkpt lat="44.2412175" lon="11.4544268"><ele>388.6666666666667</ele><time>2026-04-04T09:42:12.787Z</time></trkpt><trkpt lat="44.241262" lon="11.4543018"><ele>390.33333333333337</ele><time>2026-04-04T09:42:13.786Z</time></trkpt><trkpt lat="44.2413103" lon="11.4541958"><ele>392.0</ele><time>2026-04-04T09:42:14.787Z</time></trkpt><trkpt lat="44.241343" lon="11.4541033"><ele>393.6666666666667</ele><time>2026-04-04T09:42:15.786Z</time></trkpt><trkpt lat="44.2413567" lon="11.4539998"><ele>395.33333333333337</ele><time>2026-04-04T09:42:16.786Z</time></trkpt><trkpt lat="44.2413503" lon="11.4538935"><ele>397.0</ele><time>2026-04-04T09:42:17.786Z</time></trkpt><trkpt lat="44.2413392" lon="11.4537792"><ele>397.83333333333337</ele><time>2026-04-04T09:42:18.786Z</time></trkpt><trkpt lat="44.2413303" lon="11.4536573"><ele>398.6666666666667</ele><time>2026-04-04T09:42:19.786Z</time></trkpt><trkpt lat="44.24131" lon="11.4535332"><ele>399.5</ele><time>2026-04-04T09:42:20.785Z</time></trkpt><trkpt lat="44.2412792" lon="11.4534195"><ele>400.33333333333337</ele><time>2026-04-04T09:42:21.784Z</time></trkpt><trkpt lat="44.241238" lon="11.453327"><ele>401.1666666666667</ele><time>2026-04-04T09:42:22.786Z</time></trkpt><trkpt lat="44.2411837" lon="11.4532605"><ele>402.0</ele><time>2026-04-04T09:42:23.784Z</time></trkpt><trkpt lat="44.241116" lon="11.4532072"><ele>402.0</ele><time>2026-04-04T09:42:24.787Z</time></trkpt><trkpt lat="44.2410462" lon="11.4531803"><ele>402.0</ele><time>2026-04-04T09:42:25.784Z</time></trkpt><trkpt lat="44.2409725" lon="11.4531872"><ele>402.0</ele><time>2026-04-04T09:42:26.784Z</time></trkpt><trkpt lat="44.2408977" lon="11.4532223"><ele>402.0</ele><time>2026-04-04T09:42:27.785Z</time></trkpt><trkpt lat="44.2408235" lon="11.4532635"><ele>402.0</ele><time>2026-04-04T09:42:28.785Z</time></trkpt><trkpt lat="44.2407493" lon="11.4532917"><ele>402.0</ele><time>2026-04-04T09:42:29.786Z</time></trkpt><trkpt lat="44.2406778" lon="11.4533163"><ele>403.7142857142857</ele><time>2026-04-04T09:42:30.788Z</time></trkpt><trkpt lat="44.2406098" lon="11.4533282"><ele>405.42857142857144</ele><time>2026-04-04T09:42:31.788Z</time></trkpt><trkpt lat="44.240541" lon="11.453323"><ele>407.14285714285717</ele><time>2026-04-04T09:42:32.787Z</time></trkpt><trkpt lat="44.2404815" lon="11.4532892"><ele>408.8571428571429</ele><time>2026-04-04T09:42:33.788Z</time></trkpt><trkpt lat="44.24044" lon="11.4532222"><ele>410.57142857142856</ele><time>2026-04-04T09:42:34.787Z</time></trkpt><trkpt lat="44.2404157" lon="11.4531325"><ele>412.28571428571433</ele><time>2026-04-04T09:42:35.787Z</time></trkpt><trkpt lat="44.2403937" lon="11.453015"><ele>414.0</ele><time>2026-04-04T09:42:36.784Z</time></trkpt><trkpt lat="44.2403742" lon="11.4528877"><ele>414.6666666666667</ele><time>2026-04-04T09:42:37.786Z</time></trkpt><trkpt lat="44.2403542" lon="11.4527523"><ele>415.33333333333337</ele><time>2026-04-04T09:42:38.787Z</time></trkpt><trkpt lat="44.2403388" lon="11.4526318"><ele>416.0</ele><time>2026-04-04T09:42:39.786Z</time></trkpt><trkpt lat="44.2403237" lon="11.452532"><ele>416.6666666666667</ele><time>2026-04-04T09:42:40.787Z</time></trkpt><trkpt lat="44.2403107" lon="11.452438"><ele>417.33333333333337</ele><time>2026-04-04T09:42:41.791Z</time></trkpt><trkpt lat="44.240292" lon="11.4523477"><ele>418.0</ele><time>2026-04-04T09:42:42.79Z</time></trkpt><trkpt lat="44.2402708" lon="11.4522543"><ele>418.00000000000006</ele><time>2026-04-04T09:42:43.787Z</time></trkpt><trkpt lat="44.2402508" lon="11.4521567"><ele>418.0</ele><time>2026-04-04T09:42:44.786Z</time></trkpt><trkpt lat="44.240234" lon="11.4520657"><ele>418.0</ele><time>2026-04-04T09:42:45.788Z</time></trkpt><trkpt lat="44.2402135" lon="11.4519792"><ele>418.0</ele><time>2026-04-04T09:42:46.787Z</time></trkpt><trkpt lat="44.2401738" lon="11.451831"><ele>418.00000000000006</ele><time>2026-04-04T09:42:48.787Z</time></trkpt><trkpt lat="44.2401563" lon="11.451705"><ele>418.0</ele><time>2026-04-04T09:42:50.785Z</time></trkpt><trkpt lat="44.2401523" lon="11.4515442"><ele>419.6666666666667</ele><time>2026-04-04T09:42:52.785Z</time></trkpt><trkpt lat="44.2401422" lon="11.451449"><ele>421.33333333333337</ele><time>2026-04-04T09:42:53.783Z</time></trkpt><trkpt lat="44.2401282" lon="11.4513568"><ele>423.0</ele><time>2026-04-04T09:42:54.787Z</time></trkpt><trkpt lat="44.2401035" lon="11.451272"><ele>424.66666666666663</ele><time>2026-04-04T09:42:55.786Z</time></trkpt><trkpt lat="44.2400677" lon="11.451195"><ele>426.3333333333333</ele><time>2026-04-04T09:42:56.785Z</time></trkpt><trkpt lat="44.2399918" lon="11.4510855"><ele>428.0</ele><time>2026-04-04T09:42:58.786Z</time></trkpt><trkpt lat="44.239898" lon="11.4510498"><ele>429.8333333333333</ele><time>2026-04-04T09:43:00.788Z</time></trkpt><trkpt lat="44.239833" lon="11.4510237"><ele>431.66666666666663</ele><time>2026-04-04T09:43:01.785Z</time></trkpt><trkpt lat="44.2397723" lon="11.4509935"><ele>433.5</ele><time>2026-04-04T09:43:02.786Z</time></trkpt><trkpt lat="44.239676" lon="11.4509012"><ele>435.33333333333337</ele><time>2026-04-04T09:43:04.787Z</time></trkpt><trkpt lat="44.2396323" lon="11.4508237"><ele>437.1666666666667</ele><time>2026-04-04T09:43:05.786Z</time></trkpt><trkpt lat="44.2395778" lon="11.4507508"><ele>439.0</ele><time>2026-04-04T09:43:06.786Z</time></trkpt><trkpt lat="44.2395118" lon="11.4506945"><ele>441.1666666666667</ele><time>2026-04-04T09:43:07.788Z</time></trkpt><trkpt lat="44.239447" lon="11.4506685"><ele>443.33333333333337</ele><time>2026-04-04T09:43:08.784Z</time></trkpt><trkpt lat="44.2393447" lon="11.4506795"><ele>445.5</ele><time>2026-04-04T09:43:10.786Z</time></trkpt><trkpt lat="44.2392312" lon="11.450693"><ele>447.66666666666663</ele><time>2026-04-04T09:43:12.786Z</time></trkpt><trkpt lat="44.2391617" lon="11.4506888"><ele>449.8333333333333</ele><time>2026-04-04T09:43:13.787Z</time></trkpt><trkpt lat="44.2390973" lon="11.4506633"><ele>452.0</ele><time>2026-04-04T09:43:14.785Z</time></trkpt><trkpt lat="44.2390367" lon="11.4506128"><ele>452.0</ele><time>2026-04-04T09:43:15.784Z</time></trkpt><trkpt lat="44.2389713" lon="11.450539"><ele>452.00000000000006</ele><time>2026-04-04T09:43:16.786Z</time></trkpt><trkpt lat="44.238897" lon="11.4504568"><ele>452.00000000000006</ele><time>2026-04-04T09:43:17.785Z</time></trkpt><trkpt lat="44.2388133" lon="11.4503683"><ele>452.0</ele><time>2026-04-04T09:43:18.787Z</time></trkpt><trkpt lat="44.2387322" lon="11.4502915"><ele>452.0</ele><time>2026-04-04T09:43:19.787Z</time></trkpt><trkpt lat="44.2386577" lon="11.4502462"><ele>456.8333333333333</ele><time>2026-04-04T09:43:20.786Z</time></trkpt><trkpt lat="44.2385812" lon="11.4502443"><ele>461.66666666666663</ele><time>2026-04-04T09:43:21.787Z</time></trkpt><trkpt lat="44.238508" lon="11.4502637"><ele>466.5</ele><time>2026-04-04T09:43:22.787Z</time></trkpt><trkpt lat="44.2384057" lon="11.4503263"><ele>471.33333333333337</ele><time>2026-04-04T09:43:24.788Z</time></trkpt><trkpt lat="44.2383055" lon="11.4503655"><ele>476.1666666666667</ele><time>2026-04-04T09:43:26.788Z</time></trkpt><trkpt lat="44.2382347" lon="11.4503907"><ele>481.0</ele><time>2026-04-04T09:43:27.789Z</time></trkpt><trkpt lat="44.238163" lon="11.4504103"><ele>482.00000000000006</ele><time>2026-04-04T09:43:28.789Z</time></trkpt><trkpt lat="44.2380837" lon="11.4504418"><ele>483.0</ele><time>2026-04-04T09:43:29.787Z</time></trkpt><trkpt lat="44.2379983" lon="11.4504867"><ele>484.0</ele><time>2026-04-04T09:43:30.786Z</time></trkpt><trkpt lat="44.2379235" lon="11.450514"><ele>485.0</ele><time>2026-04-04T09:43:31.787Z</time></trkpt><trkpt lat="44.23785" lon="11.4505262"><ele>486.00000000000006</ele><time>2026-04-04T09:43:32.786Z</time></trkpt><trkpt lat="44.2377655" lon="11.4505387"><ele>487.0</ele><time>2026-04-04T09:43:33.788Z</time></trkpt><trkpt lat="44.2376827" lon="11.4505492"><ele>487.00000000000006</ele><time>2026-04-04T09:43:34.789Z</time></trkpt><trkpt lat="44.2376003" lon="11.4505508"><ele>487.0</ele><time>2026-04-04T09:43:35.788Z</time></trkpt><trkpt lat="44.2375147" lon="11.4505477"><ele>487.0</ele><time>2026-04-04T09:43:36.789Z</time></trkpt><trkpt lat="44.2374308" lon="11.4505427"><ele>487.0</ele><time>2026-04-04T09:43:37.788Z</time></trkpt><trkpt lat="44.2373468" lon="11.450538"><ele>487.00000000000006</ele><time>2026-04-04T09:43:38.788Z</time></trkpt><trkpt lat="44.2372695" lon="11.4505103"><ele>487.0</ele><time>2026-04-04T09:43:39.786Z</time></trkpt><trkpt lat="44.2371833" lon="11.450462"><ele>490.40000000000003</ele><time>2026-04-04T09:43:40.787Z</time></trkpt><trkpt lat="44.237089" lon="11.45041"><ele>493.80000000000007</ele><time>2026-04-04T09:43:41.786Z</time></trkpt><trkpt lat="44.2370025" lon="11.4503628"><ele>497.2</ele><time>2026-04-04T09:43:42.787Z</time></trkpt><trkpt lat="44.2369317" lon="11.4503138"><ele>500.6</ele><time>2026-04-04T09:43:43.79Z</time></trkpt><trkpt lat="44.2368865" lon="11.450251"><ele>504.0</ele><time>2026-04-04T09:43:44.789Z</time></trkpt><trkpt lat="44.236885" lon="11.4500878"><ele>504.0</ele><time>2026-04-04T09:43:46.789Z</time></trkpt><trkpt lat="44.2369247" lon="11.4500027"><ele>504.0</ele><time>2026-04-04T09:43:47.788Z</time></trkpt><trkpt lat="44.236979" lon="11.4499203"><ele>504.0</ele><time>2026-04-04T09:43:48.788Z</time></trkpt><trkpt lat="44.2370273" lon="11.4498275"><ele>504.0</ele><time>2026-04-04T09:43:49.787Z</time></trkpt><trkpt lat="44.2370548" lon="11.4497112"><ele>504.0</ele><time>2026-04-04T09:43:50.788Z</time></trkpt><trkpt lat="44.2370613" lon="11.4495777"><ele>504.0</ele><time>2026-04-04T09:43:51.787Z</time></trkpt><trkpt lat="44.2370428" lon="11.4494677"><ele>506.0</ele><time>2026-04-04T09:43:52.786Z</time></trkpt><trkpt lat="44.237001" lon="11.449375"><ele>508.0</ele><time>2026-04-04T09:43:53.786Z</time></trkpt><trkpt lat="44.2369362" lon="11.4492935"><ele>510.0</ele><time>2026-04-04T09:43:54.787Z</time></trkpt><trkpt lat="44.2368657" lon="11.4492127"><ele>512.0</ele><time>2026-04-04T09:43:55.787Z</time></trkpt><trkpt lat="44.236805" lon="11.4491202"><ele>514.0</ele><time>2026-04-04T09:43:56.789Z</time></trkpt><trkpt lat="44.236759" lon="11.4490155"><ele>516.0</ele><time>2026-04-04T09:43:57.787Z</time></trkpt><trkpt lat="44.2367238" lon="11.4488993"><ele>518.0</ele><time>2026-04-04T09:43:58.79Z</time></trkpt><trkpt lat="44.2366915" lon="11.4487595"><ele>520.0</ele><time>2026-04-04T09:43:59.788Z</time></trkpt><trkpt lat="44.2366617" lon="11.448609"><ele>522.0</ele><time>2026-04-04T09:44:00.788Z</time></trkpt><trkpt lat="44.2366385" lon="11.4484708"><ele>524.0</ele><time>2026-04-04T09:44:01.788Z</time></trkpt><trkpt lat="44.2366268" lon="11.4483603"><ele>526.0</ele><time>2026-04-04T09:44:02.789Z</time></trkpt><trkpt lat="44.2366313" lon="11.4482643"><ele>526.0</ele><time>2026-04-04T09:44:03.789Z</time></trkpt><trkpt lat="44.2366422" lon="11.4481767"><ele>526.0</ele><time>2026-04-04T09:44:04.787Z</time></trkpt><trkpt lat="44.2366533" lon="11.4480727"><ele>526.0</ele><time>2026-04-04T09:44:05.786Z</time></trkpt><trkpt lat="44.23668" lon="11.4479698"><ele>526.0</ele><time>2026-04-04T09:44:06.787Z</time></trkpt><trkpt lat="44.2367223" lon="11.4478563"><ele>526.0</ele><time>2026-04-04T09:44:07.788Z</time></trkpt><trkpt lat="44.2367578" lon="11.4477325"><ele>526.0</ele><time>2026-04-04T09:44:08.789Z</time></trkpt><trkpt lat="44.2367765" lon="11.4475905"><ele>526.5</ele><time>2026-04-04T09:44:09.788Z</time></trkpt><trkpt lat="44.2367855" lon="11.4474258"><ele>527.0</ele><time>2026-04-04T09:44:10.788Z</time></trkpt><trkpt lat="44.2367933" lon="11.4472503"><ele>527.5</ele><time>2026-04-04T09:44:11.788Z</time></trkpt><trkpt lat="44.2368042" lon="11.4470858"><ele>528.0</ele><time>2026-04-04T09:44:12.788Z</time></trkpt><trkpt lat="44.236826" lon="11.4469235"><ele>528.0</ele><time>2026-04-04T09:44:13.789Z</time></trkpt><trkpt lat="44.2368598" lon="11.4467625"><ele>528.0</ele><time>2026-04-04T09:44:14.787Z</time></trkpt><trkpt lat="44.236899" lon="11.4466053"><ele>528.0</ele><time>2026-04-04T09:44:15.788Z</time></trkpt><trkpt lat="44.2369413" lon="11.4464435"><ele>528.0</ele><time>2026-04-04T09:44:16.788Z</time></trkpt><trkpt lat="44.2369927" lon="11.4462765"><ele>528.5</ele><time>2026-04-04T09:44:17.788Z</time></trkpt><trkpt lat="44.2370543" lon="11.4461052"><ele>529.0</ele><time>2026-04-04T09:44:18.789Z</time></trkpt><trkpt lat="44.237124" lon="11.4459342"><ele>529.5</ele><time>2026-04-04T09:44:19.787Z</time></trkpt><trkpt lat="44.2372003" lon="11.4457682"><ele>530.0</ele><time>2026-04-04T09:44:20.788Z</time></trkpt><trkpt lat="44.23728" lon="11.4456082"><ele>530.75</ele><time>2026-04-04T09:44:21.789Z</time></trkpt><trkpt lat="44.2373512" lon="11.4454535"><ele>531.5</ele><time>2026-04-04T09:44:22.788Z</time></trkpt><trkpt lat="44.2374172" lon="11.4452955"><ele>532.25</ele><time>2026-04-04T09:44:23.788Z</time></trkpt><trkpt lat="44.2374888" lon="11.4451368"><ele>533.0</ele><time>2026-04-04T09:44:24.789Z</time></trkpt><trkpt lat="44.2375683" lon="11.4449822"><ele>533.0</ele><time>2026-04-04T09:44:25.789Z</time></trkpt><trkpt lat="44.2376497" lon="11.44484"><ele>533.0</ele><time>2026-04-04T09:44:26.788Z</time></trkpt><trkpt lat="44.2377313" lon="11.4447022"><ele>533.0</ele><time>2026-04-04T09:44:27.788Z</time></trkpt><trkpt lat="44.237809" lon="11.4445582"><ele>533.0</ele><time>2026-04-04T09:44:28.787Z</time></trkpt><trkpt lat="44.2378753" lon="11.4444057"><ele>532.5</ele><time>2026-04-04T09:44:29.787Z</time></trkpt><trkpt lat="44.2379305" lon="11.444245"><ele>532.0</ele><time>2026-04-04T09:44:30.785Z</time></trkpt><trkpt lat="44.2379698" lon="11.4440788"><ele>531.5</ele><time>2026-04-04T09:44:31.784Z</time></trkpt><trkpt lat="44.2379915" lon="11.4439107"><ele>531.0</ele><time>2026-04-04T09:44:32.787Z</time></trkpt><trkpt lat="44.2380135" lon="11.4437605"><ele>531.0</ele><time>2026-04-04T09:44:33.787Z</time></trkpt><trkpt lat="44.2380488" lon="11.443635"><ele>531.0</ele><time>2026-04-04T09:44:34.788Z</time></trkpt><trkpt lat="44.2380998" lon="11.4435515"><ele>531.0</ele><time>2026-04-04T09:44:35.787Z</time></trkpt><trkpt lat="44.2381703" lon="11.4434887"><ele>531.0</ele><time>2026-04-04T09:44:36.787Z</time></trkpt><trkpt lat="44.2382583" lon="11.4434332"><ele>531.0</ele><time>2026-04-04T09:44:37.79Z</time></trkpt><trkpt lat="44.238344" lon="11.443376"><ele>533.8</ele><time>2026-04-04T09:44:38.787Z</time></trkpt><trkpt lat="44.2384077" lon="11.4432983"><ele>536.6</ele><time>2026-04-04T09:44:39.788Z</time></trkpt><trkpt lat="44.2384552" lon="11.4431983"><ele>539.4</ele><time>2026-04-04T09:44:40.787Z</time></trkpt><trkpt lat="44.2384798" lon="11.4431098"><ele>542.2</ele><time>2026-04-04T09:44:41.787Z</time></trkpt><trkpt lat="44.2384762" lon="11.4429373"><ele>545.0</ele><time>2026-04-04T09:44:43.787Z</time></trkpt><trkpt lat="44.238466" lon="11.4428153"><ele>545.0</ele><time>2026-04-04T09:44:44.787Z</time></trkpt><trkpt lat="44.2384575" lon="11.442678"><ele>545.0</ele><time>2026-04-04T09:44:45.788Z</time></trkpt><trkpt lat="44.2384552" lon="11.4425303"><ele>545.0</ele><time>2026-04-04T09:44:46.788Z</time></trkpt><trkpt lat="44.2384532" lon="11.4423797"><ele>545.0</ele><time>2026-04-04T09:44:47.788Z</time></trkpt><trkpt lat="44.2384537" lon="11.442232"><ele>545.0</ele><time>2026-04-04T09:44:48.787Z</time></trkpt><trkpt lat="44.2384655" lon="11.4420902"><ele>544.8</ele><time>2026-04-04T09:44:49.787Z</time></trkpt><trkpt lat="44.2384833" lon="11.4419527"><ele>544.6</ele><time>2026-04-04T09:44:50.789Z</time></trkpt><trkpt lat="44.2384957" lon="11.4418115"><ele>544.4</ele><time>2026-04-04T09:44:51.789Z</time></trkpt><trkpt lat="44.2384935" lon="11.4416787"><ele>544.2</ele><time>2026-04-04T09:44:52.787Z</time></trkpt><trkpt lat="44.2384763" lon="11.4415643"><ele>544.0</ele><time>2026-04-04T09:44:53.786Z</time></trkpt><trkpt lat="44.2384577" lon="11.4414643"><ele>543.9999999999999</ele><time>2026-04-04T09:44:54.787Z</time></trkpt><trkpt lat="44.238453" lon="11.4413745"><ele>544.0</ele><time>2026-04-04T09:44:55.786Z</time></trkpt><trkpt lat="44.2384642" lon="11.4412545"><ele>544.0</ele><time>2026-04-04T09:44:57.789Z</time></trkpt><trkpt lat="44.238495" lon="11.4411748"><ele>544.0</ele><time>2026-04-04T09:44:59.789Z</time></trkpt><trkpt lat="44.2385343" lon="11.4410902"><ele>544.0</ele><time>2026-04-04T09:45:08.788Z</time></trkpt><trkpt lat="44.2385693" lon="11.4410052"><ele>543.9999999999999</ele><time>2026-04-04T09:45:11.79Z</time></trkpt><trkpt lat="44.2386222" lon="11.4409027"><ele>544.0</ele><time>2026-04-04T09:45:13.787Z</time></trkpt><trkpt lat="44.2386655" lon="11.4407657"><ele>544.2</ele><time>2026-04-04T09:45:15.788Z</time></trkpt><trkpt lat="44.238688" lon="11.4406145"><ele>544.4</ele><time>2026-04-04T09:45:17.787Z</time></trkpt><trkpt lat="44.238694" lon="11.4404482"><ele>544.6</ele><time>2026-04-04T09:45:19.785Z</time></trkpt><trkpt lat="44.2387008" lon="11.4402997"><ele>544.8</ele><time>2026-04-04T09:45:21.788Z</time></trkpt><trkpt lat="44.238749" lon="11.4402008"><ele>545.0</ele><time>2026-04-04T09:45:23.786Z</time></trkpt><trkpt lat="44.2388477" lon="11.4400915"><ele>545.6</ele><time>2026-04-04T09:45:25.788Z</time></trkpt><trkpt lat="44.2389083" lon="11.440012"><ele>546.2</ele><time>2026-04-04T09:45:26.788Z</time></trkpt><trkpt lat="44.238972" lon="11.4399085"><ele>546.8</ele><time>2026-04-04T09:45:27.788Z</time></trkpt><trkpt lat="44.2390332" lon="11.4397902"><ele>547.4</ele><time>2026-04-04T09:45:28.789Z</time></trkpt><trkpt lat="44.2390885" lon="11.4396738"><ele>548.0</ele><time>2026-04-04T09:45:29.788Z</time></trkpt><trkpt lat="44.2391363" lon="11.4395675"><ele>549.4</ele><time>2026-04-04T09:45:30.787Z</time></trkpt><trkpt lat="44.2391777" lon="11.4394605"><ele>550.8</ele><time>2026-04-04T09:45:31.788Z</time></trkpt><trkpt lat="44.2392208" lon="11.4393382"><ele>552.2</ele><time>2026-04-04T09:45:32.787Z</time></trkpt><trkpt lat="44.2392672" lon="11.439205"><ele>553.6</ele><time>2026-04-04T09:45:33.786Z</time></trkpt><trkpt lat="44.2393125" lon="11.4390628"><ele>555.0</ele><time>2026-04-04T09:45:34.786Z</time></trkpt><trkpt lat="44.2393558" lon="11.4389318"><ele>555.0</ele><time>2026-04-04T09:45:35.785Z</time></trkpt><trkpt lat="44.239385" lon="11.438851"><ele>555.0</ele><time>2026-04-04T09:45:36.786Z</time></trkpt><trkpt lat="44.2394275" lon="11.4387695"><ele>555.0</ele><time>2026-04-04T09:45:41.784Z</time></trkpt><trkpt lat="44.2394582" lon="11.438683"><ele>555.0</ele><time>2026-04-04T09:45:44.785Z</time></trkpt><trkpt lat="44.23949" lon="11.4385295"><ele>555.0</ele><time>2026-04-04T09:45:46.786Z</time></trkpt><trkpt lat="44.2395178" lon="11.4384195"><ele>555.0</ele><time>2026-04-04T09:45:47.787Z</time></trkpt><trkpt lat="44.2395593" lon="11.4383087"><ele>554.8</ele><time>2026-04-04T09:45:48.786Z</time></trkpt><trkpt lat="44.2396083" lon="11.4382077"><ele>554.6</ele><time>2026-04-04T09:45:49.786Z</time></trkpt><trkpt lat="44.2396628" lon="11.4380987"><ele>554.4</ele><time>2026-04-04T09:45:50.786Z</time></trkpt><trkpt lat="44.2397203" lon="11.4379805"><ele>554.2</ele><time>2026-04-04T09:45:51.787Z</time></trkpt><trkpt lat="44.2397787" lon="11.4378725"><ele>554.0</ele><time>2026-04-04T09:45:52.787Z</time></trkpt><trkpt lat="44.2398382" lon="11.437775"><ele>556.8333333333333</ele><time>2026-04-04T09:45:53.787Z</time></trkpt><trkpt lat="44.2398987" lon="11.4376868"><ele>559.6666666666666</ele><time>2026-04-04T09:45:54.787Z</time></trkpt><trkpt lat="44.239958" lon="11.4376043"><ele>562.5</ele><time>2026-04-04T09:45:55.788Z</time></trkpt><trkpt lat="44.2400168" lon="11.437521"><ele>565.3333333333334</ele><time>2026-04-04T09:45:56.786Z</time></trkpt><trkpt lat="44.240067" lon="11.4374403"><ele>568.1666666666667</ele><time>2026-04-04T09:45:57.787Z</time></trkpt><trkpt lat="44.2401" lon="11.4373487"><ele>571.0</ele><time>2026-04-04T09:45:58.787Z</time></trkpt><trkpt lat="44.2401163" lon="11.4372463"><ele>571.0</ele><time>2026-04-04T09:45:59.787Z</time></trkpt><trkpt lat="44.2401322" lon="11.4371378"><ele>571.0</ele><time>2026-04-04T09:46:00.786Z</time></trkpt><trkpt lat="44.2401492" lon="11.4370168"><ele>571.0</ele><time>2026-04-04T09:46:01.787Z</time></trkpt><trkpt lat="44.2401652" lon="11.4368778"><ele>571.0</ele><time>2026-04-04T09:46:02.787Z</time></trkpt><trkpt lat="44.2401835" lon="11.4367255"><ele>571.0</ele><time>2026-04-04T09:46:03.787Z</time></trkpt><trkpt lat="44.2402033" lon="11.436563"><ele>573.75</ele><time>2026-04-04T09:46:04.788Z</time></trkpt><trkpt lat="44.2402305" lon="11.4363948"><ele>576.5</ele><time>2026-04-04T09:46:05.787Z</time></trkpt><trkpt lat="44.2402685" lon="11.4362237"><ele>579.25</ele><time>2026-04-04T09:46:06.785Z</time></trkpt><trkpt lat="44.2403063" lon="11.4360802"><ele>582.0</ele><time>2026-04-04T09:46:07.786Z</time></trkpt><trkpt lat="44.2403443" lon="11.435968"><ele>583.0</ele><time>2026-04-04T09:46:08.785Z</time></trkpt><trkpt lat="44.240376" lon="11.4358672"><ele>584.0</ele><time>2026-04-04T09:46:09.785Z</time></trkpt><trkpt lat="44.240403" lon="11.4357632"><ele>585.0</ele><time>2026-04-04T09:46:10.787Z</time></trkpt><trkpt lat="44.2404278" lon="11.4356525"><ele>586.0</ele><time>2026-04-04T09:46:11.786Z</time></trkpt><trkpt lat="44.2404525" lon="11.4355347"><ele>587.0</ele><time>2026-04-04T09:46:12.786Z</time></trkpt><trkpt lat="44.24048" lon="11.4354135"><ele>588.0</ele><time>2026-04-04T09:46:13.786Z</time></trkpt><trkpt lat="44.2405107" lon="11.4352885"><ele>588.75</ele><time>2026-04-04T09:46:14.786Z</time></trkpt><trkpt lat="44.24054" lon="11.4351498"><ele>589.5</ele><time>2026-04-04T09:46:15.787Z</time></trkpt><trkpt lat="44.2405618" lon="11.4349918"><ele>590.25</ele><time>2026-04-04T09:46:16.787Z</time></trkpt><trkpt lat="44.2405788" lon="11.4348328"><ele>591.0</ele><time>2026-04-04T09:46:17.786Z</time></trkpt><trkpt lat="44.2406008" lon="11.4346635"><ele>592.25</ele><time>2026-04-04T09:46:18.788Z</time></trkpt><trkpt lat="44.2406305" lon="11.4344958"><ele>593.5</ele><time>2026-04-04T09:46:19.788Z</time></trkpt><trkpt lat="44.2406555" lon="11.4343288"><ele>594.75</ele><time>2026-04-04T09:46:20.788Z</time></trkpt><trkpt lat="44.2406785" lon="11.4341738"><ele>596.0</ele><time>2026-04-04T09:46:21.789Z</time></trkpt><trkpt lat="44.2407147" lon="11.4340367"><ele>598.4</ele><time>2026-04-04T09:46:22.787Z</time></trkpt><trkpt lat="44.2407635" lon="11.433899"><ele>600.8</ele><time>2026-04-04T09:46:23.787Z</time></trkpt><trkpt lat="44.2408157" lon="11.4337682"><ele>603.1999999999999</ele><time>2026-04-04T09:46:24.786Z</time></trkpt><trkpt lat="44.2408648" lon="11.4336358"><ele>605.6</ele><time>2026-04-04T09:46:25.787Z</time></trkpt><trkpt lat="44.2409095" lon="11.4335033"><ele>608.0</ele><time>2026-04-04T09:46:26.786Z</time></trkpt><trkpt lat="44.240953" lon="11.4333745"><ele>610.4</ele><time>2026-04-04T09:46:27.787Z</time></trkpt><trkpt lat="44.2410035" lon="11.4332542"><ele>612.8</ele><time>2026-04-04T09:46:28.789Z</time></trkpt><trkpt lat="44.2410687" lon="11.4331518"><ele>615.2</ele><time>2026-04-04T09:46:29.788Z</time></trkpt><trkpt lat="44.2411422" lon="11.4330605"><ele>617.6</ele><time>2026-04-04T09:46:30.786Z</time></trkpt><trkpt lat="44.2412095" lon="11.4329645"><ele>620.0</ele><time>2026-04-04T09:46:31.785Z</time></trkpt><trkpt lat="44.2412667" lon="11.4328745"><ele>621.3333333333333</ele><time>2026-04-04T09:46:32.785Z</time></trkpt><trkpt lat="44.2413248" lon="11.4327847"><ele>622.6666666666666</ele><time>2026-04-04T09:46:33.785Z</time></trkpt><trkpt lat="44.2413823" lon="11.4326903"><ele>624.0</ele><time>2026-04-04T09:46:34.786Z</time></trkpt><trkpt lat="44.2414267" lon="11.4325973"><ele>625.3333333333334</ele><time>2026-04-04T09:46:35.787Z</time></trkpt><trkpt lat="44.2414465" lon="11.4325123"><ele>626.6666666666667</ele><time>2026-04-04T09:46:36.787Z</time></trkpt><trkpt lat="44.2414332" lon="11.4323753"><ele>628.0</ele><time>2026-04-04T09:47:33.788Z</time></trkpt><trkpt lat="44.2414212" lon="11.4322875"><ele>628.0</ele><time>2026-04-04T09:47:34.788Z</time></trkpt><trkpt lat="44.2414162" lon="11.4321968"><ele>628.0</ele><time>2026-04-04T09:47:35.79Z</time></trkpt><trkpt lat="44.2414182" lon="11.4320907"><ele>628.0</ele><time>2026-04-04T09:47:36.789Z</time></trkpt><trkpt lat="44.2414282" lon="11.4319747"><ele>628.0</ele><time>2026-04-04T09:47:37.788Z</time></trkpt><trkpt lat="44.2414422" lon="11.4318548"><ele>628.0</ele><time>2026-04-04T09:47:38.789Z</time></trkpt><trkpt lat="44.2414543" lon="11.4317245"><ele>628.0</ele><time>2026-04-04T09:47:39.789Z</time></trkpt><trkpt lat="44.24147" lon="11.4315985"><ele>631.0</ele><time>2026-04-04T09:47:40.789Z</time></trkpt><trkpt lat="44.2414933" lon="11.431484"><ele>634.0</ele><time>2026-04-04T09:47:41.788Z</time></trkpt><trkpt lat="44.2415062" lon="11.4313838"><ele>637.0</ele><time>2026-04-04T09:47:42.789Z</time></trkpt><trkpt lat="44.2415185" lon="11.4312095"><ele>640.0</ele><time>2026-04-04T09:47:44.787Z</time></trkpt><trkpt lat="44.2415262" lon="11.4311007"><ele>643.0</ele><time>2026-04-04T09:47:45.787Z</time></trkpt><trkpt lat="44.2415392" lon="11.4309763"><ele>645.4</ele><time>2026-04-04T09:47:46.787Z</time></trkpt><trkpt lat="44.2415527" lon="11.4308582"><ele>647.8</ele><time>2026-04-04T09:47:47.787Z</time></trkpt><trkpt lat="44.2415635" lon="11.4307355"><ele>650.2</ele><time>2026-04-04T09:47:48.789Z</time></trkpt><trkpt lat="44.2415777" lon="11.4306073"><ele>652.6</ele><time>2026-04-04T09:47:49.79Z</time></trkpt><trkpt lat="44.2415988" lon="11.4304593"><ele>655.0</ele><time>2026-04-04T09:47:50.789Z</time></trkpt><trkpt lat="44.2416227" lon="11.4303177"><ele>656.5</ele><time>2026-04-04T09:47:51.789Z</time></trkpt><trkpt lat="44.2416435" lon="11.4302003"><ele>658.0</ele><time>2026-04-04T09:47:52.79Z</time></trkpt><trkpt lat="44.2416693" lon="11.4301023"><ele>659.5</ele><time>2026-04-04T09:47:53.789Z</time></trkpt><trkpt lat="44.2417047" lon="11.4300157"><ele>661.0</ele><time>2026-04-04T09:47:54.79Z</time></trkpt><trkpt lat="44.2417688" lon="11.4298737"><ele>662.5</ele><time>2026-04-04T09:47:56.789Z</time></trkpt><trkpt lat="44.2418018" lon="11.4297558"><ele>664.0</ele><time>2026-04-04T09:47:58.789Z</time></trkpt><trkpt lat="44.2418252" lon="11.4296438"><ele>665.4000000000001</ele><time>2026-04-04T09:48:01.788Z</time></trkpt><trkpt lat="44.2418467" lon="11.4295363"><ele>666.8</ele><time>2026-04-04T09:48:15.79Z</time></trkpt><trkpt lat="44.241898" lon="11.4294193"><ele>668.2</ele><time>2026-04-04T09:48:17.789Z</time></trkpt><trkpt lat="44.2419317" lon="11.4292437"><ele>669.5999999999999</ele><time>2026-04-04T09:48:19.79Z</time></trkpt><trkpt lat="44.2419485" lon="11.4291205"><ele>671.0</ele><time>2026-04-04T09:48:20.789Z</time></trkpt><trkpt lat="44.2419665" lon="11.4289775"><ele>671.0</ele><time>2026-04-04T09:48:21.789Z</time></trkpt><trkpt lat="44.2419835" lon="11.4288423"><ele>671.0</ele><time>2026-04-04T09:48:22.788Z</time></trkpt><trkpt lat="44.2420065" lon="11.4287157"><ele>671.0</ele><time>2026-04-04T09:48:23.789Z</time></trkpt><trkpt lat="44.2420368" lon="11.428599"><ele>671.0</ele><time>2026-04-04T09:48:24.789Z</time></trkpt><trkpt lat="44.2420657" lon="11.4284842"><ele>671.0</ele><time>2026-04-04T09:48:25.788Z</time></trkpt><trkpt lat="44.2420917" lon="11.4283738"><ele>673.3333333333333</ele><time>2026-04-04T09:48:26.788Z</time></trkpt><trkpt lat="44.242117" lon="11.4282742"><ele>675.6666666666666</ele><time>2026-04-04T09:48:27.788Z</time></trkpt><trkpt lat="44.2421363" lon="11.428179"><ele>678.0</ele><time>2026-04-04T09:48:28.79Z</time></trkpt><trkpt lat="44.2421518" lon="11.4280925"><ele>680.3333333333334</ele><time>2026-04-04T09:48:29.789Z</time></trkpt><trkpt lat="44.2421613" lon="11.4280028"><ele>682.6666666666667</ele><time>2026-04-04T09:48:30.788Z</time></trkpt><trkpt lat="44.2421715" lon="11.4279103"><ele>685.0</ele><time>2026-04-04T09:48:31.789Z</time></trkpt><trkpt lat="44.2422048" lon="11.4277365"><ele>687.1666666666667</ele><time>2026-04-04T09:48:33.787Z</time></trkpt><trkpt lat="44.2422197" lon="11.4276287"><ele>689.3333333333334</ele><time>2026-04-04T09:48:34.786Z</time></trkpt><trkpt lat="44.2422353" lon="11.4275177"><ele>691.5</ele><time>2026-04-04T09:48:35.786Z</time></trkpt><trkpt lat="44.2422502" lon="11.4274225"><ele>693.6666666666666</ele><time>2026-04-04T09:48:36.787Z</time></trkpt><trkpt lat="44.2422665" lon="11.427272"><ele>695.8333333333333</ele><time>2026-04-04T09:48:38.788Z</time></trkpt><trkpt lat="44.2422672" lon="11.4271755"><ele>698.0</ele><time>2026-04-04T09:48:39.79Z</time></trkpt><trkpt lat="44.2422647" lon="11.4270703"><ele>699.2</ele><time>2026-04-04T09:48:40.789Z</time></trkpt><trkpt lat="44.2422587" lon="11.4269475"><ele>700.4</ele><time>2026-04-04T09:48:41.789Z</time></trkpt><trkpt lat="44.2422568" lon="11.4268043"><ele>701.6</ele><time>2026-04-04T09:48:42.789Z</time></trkpt><trkpt lat="44.2422632" lon="11.4266438"><ele>702.8000000000001</ele><time>2026-04-04T09:48:43.789Z</time></trkpt><trkpt lat="44.2422762" lon="11.4264775"><ele>704.0</ele><time>2026-04-04T09:48:44.789Z</time></trkpt><trkpt lat="44.2422913" lon="11.4263083"><ele>708.8000000000001</ele><time>2026-04-04T09:48:45.789Z</time></trkpt><trkpt lat="44.2423078" lon="11.4261373"><ele>713.6</ele><time>2026-04-04T09:48:46.789Z</time></trkpt><trkpt lat="44.2423137" lon="11.4259743"><ele>718.4</ele><time>2026-04-04T09:48:47.787Z</time></trkpt><trkpt lat="44.2423087" lon="11.4258307"><ele>723.2</ele><time>2026-04-04T09:48:48.789Z</time></trkpt><trkpt lat="44.2423032" lon="11.4256873"><ele>728.0</ele><time>2026-04-04T09:48:49.789Z</time></trkpt><trkpt lat="44.2422985" lon="11.4255457"><ele>727.5</ele><time>2026-04-04T09:48:50.79Z</time></trkpt><trkpt lat="44.2423002" lon="11.42542"><ele>727.0</ele><time>2026-04-04T09:48:51.789Z</time></trkpt><trkpt lat="44.2423038" lon="11.4253125"><ele>726.5</ele><time>2026-04-04T09:48:52.789Z</time></trkpt><trkpt lat="44.2423043" lon="11.4252167"><ele>726.0</ele><time>2026-04-04T09:48:53.794Z</time></trkpt><trkpt lat="44.2422908" lon="11.4250617"><ele>725.5</ele><time>2026-04-04T09:48:55.79Z</time></trkpt><trkpt lat="44.2422653" lon="11.4249645"><ele>725.0</ele><time>2026-04-04T09:48:57.789Z</time></trkpt><trkpt lat="44.2422655" lon="11.4248702"><ele>725.0</ele><time>2026-04-04T09:50:30.79Z</time></trkpt><trkpt lat="44.2422427" lon="11.4247805"><ele>725.0</ele><time>2026-04-04T10:00:30.792Z</time></trkpt><trkpt lat="44.2421825" lon="11.4246712"><ele>725.0</ele><time>2026-04-04T10:00:32.792Z</time></trkpt><trkpt lat="44.2421308" lon="11.4246097"><ele>725.0</ele><time>2026-04-04T10:00:33.794Z</time></trkpt><trkpt lat="44.2420723" lon="11.4245478"><ele>725.0</ele><time>2026-04-04T10:00:34.792Z</time></trkpt><trkpt lat="44.2420065" lon="11.4244893"><ele>725.0</ele><time>2026-04-04T10:00:35.791Z</time></trkpt><trkpt lat="44.241933" lon="11.4244292"><ele>725.0</ele><time>2026-04-04T10:00:36.792Z</time></trkpt><trkpt lat="44.2418507" lon="11.4243668"><ele>725.0</ele><time>2026-04-04T10:00:37.791Z</time></trkpt><trkpt lat="44.241763" lon="11.4242963"><ele>725.0</ele><time>2026-04-04T10:00:38.791Z</time></trkpt><trkpt lat="44.2416697" lon="11.424221"><ele>725.0</ele><time>2026-04-04T10:00:39.791Z</time></trkpt><trkpt lat="44.2415687" lon="11.4241442"><ele>725.0</ele><time>2026-04-04T10:00:40.791Z</time></trkpt><trkpt lat="44.2414645" lon="11.4240642"><ele>725.0</ele><time>2026-04-04T10:00:41.79Z</time></trkpt><trkpt lat="44.2413598" lon="11.4239797"><ele>725.0</ele><time>2026-04-04T10:00:42.793Z</time></trkpt><trkpt lat="44.2412505" lon="11.4238875"><ele>725.0</ele><time>2026-04-04T10:00:43.789Z</time></trkpt><trkpt lat="44.2411393" lon="11.4237965"><ele>725.0</ele><time>2026-04-04T10:00:44.792Z</time></trkpt><trkpt lat="44.2410308" lon="11.4237072"><ele>725.0</ele><time>2026-04-04T10:00:45.792Z</time></trkpt><trkpt lat="44.2409227" lon="11.4236305"><ele>725.0</ele><time>2026-04-04T10:00:46.792Z</time></trkpt><trkpt lat="44.2408112" lon="11.423562"><ele>725.0</ele><time>2026-04-04T10:00:47.79Z</time></trkpt><trkpt lat="44.2407037" lon="11.4234822"><ele>725.0</ele><time>2026-04-04T10:00:48.789Z</time></trkpt><trkpt lat="44.2406027" lon="11.4233855"><ele>725.0</ele><time>2026-04-04T10:00:49.788Z</time></trkpt><trkpt lat="44.2405095" lon="11.4232775"><ele>725.0</ele><time>2026-04-04T10:00:50.787Z</time></trkpt><trkpt lat="44.2404215" lon="11.4231632"><ele>725.0</ele><time>2026-04-04T10:00:51.787Z</time></trkpt><trkpt lat="44.2403418" lon="11.4230408"><ele>725.0</ele><time>2026-04-04T10:00:52.793Z</time></trkpt><trkpt lat="44.2402743" lon="11.4229042"><ele>727.0</ele><time>2026-04-04T10:00:53.79Z</time></trkpt><trkpt lat="44.2402143" lon="11.4227608"><ele>729.0</ele><time>2026-04-04T10:00:54.791Z</time></trkpt><trkpt lat="44.2401688" lon="11.4226113"><ele>731.0</ele><time>2026-04-04T10:00:55.791Z</time></trkpt><trkpt lat="44.2401185" lon="11.4224737"><ele>733.0</ele><time>2026-04-04T10:00:56.792Z</time></trkpt><trkpt lat="44.2400515" lon="11.4223445"><ele>733.0</ele><time>2026-04-04T10:00:57.793Z</time></trkpt><trkpt lat="44.239982" lon="11.422216"><ele>733.0</ele><time>2026-04-04T10:00:58.791Z</time></trkpt><trkpt lat="44.2399178" lon="11.4220842"><ele>733.0</ele><time>2026-04-04T10:00:59.791Z</time></trkpt><trkpt lat="44.23986" lon="11.4219605"><ele>733.0</ele><time>2026-04-04T10:01:00.79Z</time></trkpt><trkpt lat="44.2397998" lon="11.4218513"><ele>733.0</ele><time>2026-04-04T10:01:01.79Z</time></trkpt><trkpt lat="44.2397292" lon="11.4217557"><ele>732.4</ele><time>2026-04-04T10:01:02.791Z</time></trkpt><trkpt lat="44.2396503" lon="11.4216772"><ele>731.8</ele><time>2026-04-04T10:01:03.791Z</time></trkpt><trkpt lat="44.2395648" lon="11.421606"><ele>731.2</ele><time>2026-04-04T10:01:04.792Z</time></trkpt><trkpt lat="44.2394812" lon="11.4215405"><ele>730.6</ele><time>2026-04-04T10:01:05.791Z</time></trkpt><trkpt lat="44.239397" lon="11.421482"><ele>730.0</ele><time>2026-04-04T10:01:06.791Z</time></trkpt><trkpt lat="44.2393143" lon="11.421435"><ele>730.0000000000001</ele><time>2026-04-04T10:01:07.79Z</time></trkpt><trkpt lat="44.2392345" lon="11.4214063"><ele>730.0</ele><time>2026-04-04T10:01:08.791Z</time></trkpt><trkpt lat="44.2391588" lon="11.4213842"><ele>730.0</ele><time>2026-04-04T10:01:09.791Z</time></trkpt><trkpt lat="44.2390875" lon="11.4213617"><ele>730.0</ele><time>2026-04-04T10:01:10.791Z</time></trkpt><trkpt lat="44.2390215" lon="11.4213437"><ele>730.0</ele><time>2026-04-04T10:01:11.793Z</time></trkpt><trkpt lat="44.2389518" lon="11.421337"><ele>730.0000000000001</ele><time>2026-04-04T10:01:12.789Z</time></trkpt><trkpt lat="44.2388793" lon="11.4213413"><ele>730.0</ele><time>2026-04-04T10:01:13.791Z</time></trkpt><trkpt lat="44.2388013" lon="11.4213548"><ele>730.2</ele><time>2026-04-04T10:01:14.787Z</time></trkpt><trkpt lat="44.2387165" lon="11.42137"><ele>730.4</ele><time>2026-04-04T10:01:15.789Z</time></trkpt><trkpt lat="44.2386263" lon="11.4213912"><ele>730.5999999999999</ele><time>2026-04-04T10:01:16.791Z</time></trkpt><trkpt lat="44.2385317" lon="11.4214147"><ele>730.8</ele><time>2026-04-04T10:01:17.791Z</time></trkpt><trkpt lat="44.2384322" lon="11.4214202"><ele>731.0</ele><time>2026-04-04T10:01:18.793Z</time></trkpt><trkpt lat="44.2383362" lon="11.4213985"><ele>731.0</ele><time>2026-04-04T10:01:19.792Z</time></trkpt><trkpt lat="44.2382503" lon="11.421392"><ele>731.0</ele><time>2026-04-04T10:01:20.791Z</time></trkpt><trkpt lat="44.238175" lon="11.4214075"><ele>731.0</ele><time>2026-04-04T10:01:21.79Z</time></trkpt><trkpt lat="44.2381037" lon="11.4214025"><ele>731.0</ele><time>2026-04-04T10:01:22.79Z</time></trkpt><trkpt lat="44.237994" lon="11.4213187"><ele>731.0</ele><time>2026-04-04T10:01:24.791Z</time></trkpt><trkpt lat="44.2378922" lon="11.421318"><ele>732.25</ele><time>2026-04-04T10:01:26.792Z</time></trkpt><trkpt lat="44.2377937" lon="11.4212788"><ele>733.5</ele><time>2026-04-04T10:01:28.802Z</time></trkpt><trkpt lat="44.237676" lon="11.4212385"><ele>734.75</ele><time>2026-04-04T10:01:30.802Z</time></trkpt><trkpt lat="44.237555" lon="11.4212357"><ele>736.0</ele><time>2026-04-04T10:01:32.801Z</time></trkpt><trkpt lat="44.2374445" lon="11.4211408"><ele>736.0</ele><time>2026-04-04T10:01:34.793Z</time></trkpt><trkpt lat="44.2373853" lon="11.421066"><ele>736.0</ele><time>2026-04-04T10:01:35.788Z</time></trkpt><trkpt lat="44.2373183" lon="11.4210025"><ele>736.0</ele><time>2026-04-04T10:01:36.789Z</time></trkpt><trkpt lat="44.2372362" lon="11.4209517"><ele>736.0</ele><time>2026-04-04T10:01:37.788Z</time></trkpt><trkpt lat="44.2371545" lon="11.4208988"><ele>736.0</ele><time>2026-04-04T10:01:38.787Z</time></trkpt><trkpt lat="44.2370775" lon="11.4208357"><ele>736.0</ele><time>2026-04-04T10:01:39.788Z</time></trkpt><trkpt lat="44.2369947" lon="11.4207858"><ele>737.8</ele><time>2026-04-04T10:01:40.788Z</time></trkpt><trkpt lat="44.236906" lon="11.4207522"><ele>739.5999999999999</ele><time>2026-04-04T10:01:41.79Z</time></trkpt><trkpt lat="44.2368132" lon="11.4207332"><ele>741.4</ele><time>2026-04-04T10:01:42.789Z</time></trkpt><trkpt lat="44.2367095" lon="11.420728"><ele>743.2</ele><time>2026-04-04T10:01:43.791Z</time></trkpt><trkpt lat="44.2366053" lon="11.4207188"><ele>745.0</ele><time>2026-04-04T10:01:44.788Z</time></trkpt><trkpt lat="44.2364987" lon="11.4207213"><ele>746.6</ele><time>2026-04-04T10:01:45.8Z</time></trkpt><trkpt lat="44.236393" lon="11.4207245"><ele>748.2</ele><time>2026-04-04T10:01:46.792Z</time></trkpt><trkpt lat="44.23629" lon="11.4207128"><ele>749.8</ele><time>2026-04-04T10:01:47.792Z</time></trkpt><trkpt lat="44.2361887" lon="11.4206922"><ele>751.4</ele><time>2026-04-04T10:01:48.789Z</time></trkpt><trkpt lat="44.236092" lon="11.4206588"><ele>753.0</ele><time>2026-04-04T10:01:49.788Z</time></trkpt><trkpt lat="44.2359962" lon="11.4206115"><ele>753.0</ele><time>2026-04-04T10:01:50.792Z</time></trkpt><trkpt lat="44.2359027" lon="11.4205452"><ele>753.0</ele><time>2026-04-04T10:01:51.79Z</time></trkpt><trkpt lat="44.235806" lon="11.4204657"><ele>753.0</ele><time>2026-04-04T10:01:52.79Z</time></trkpt><trkpt lat="44.2357027" lon="11.4204042"><ele>753.0</ele><time>2026-04-04T10:01:53.791Z</time></trkpt><trkpt lat="44.2355915" lon="11.4203727"><ele>753.0</ele><time>2026-04-04T10:01:54.791Z</time></trkpt><trkpt lat="44.2354778" lon="11.4203577"><ele>755.0</ele><time>2026-04-04T10:01:55.791Z</time></trkpt><trkpt lat="44.235375" lon="11.4203357"><ele>757.0</ele><time>2026-04-04T10:01:56.789Z</time></trkpt><trkpt lat="44.2352917" lon="11.4202887"><ele>759.0</ele><time>2026-04-04T10:01:57.79Z</time></trkpt><trkpt lat="44.235215" lon="11.4202235"><ele>761.0</ele><time>2026-04-04T10:01:58.79Z</time></trkpt><trkpt lat="44.235142" lon="11.4201387"><ele>763.0</ele><time>2026-04-04T10:01:59.792Z</time></trkpt><trkpt lat="44.2350765" lon="11.4200438"><ele>763.0</ele><time>2026-04-04T10:02:00.79Z</time></trkpt><trkpt lat="44.2350207" lon="11.4199447"><ele>763.0</ele><time>2026-04-04T10:02:01.787Z</time></trkpt><trkpt lat="44.2349812" lon="11.4198365"><ele>763.0</ele><time>2026-04-04T10:02:02.788Z</time></trkpt><trkpt lat="44.2349635" lon="11.4197177"><ele>763.0</ele><time>2026-04-04T10:02:03.787Z</time></trkpt><trkpt lat="44.2349585" lon="11.4195797"><ele>763.0</ele><time>2026-04-04T10:02:04.787Z</time></trkpt><trkpt lat="44.2349533" lon="11.4194318"><ele>762.8</ele><time>2026-04-04T10:02:05.789Z</time></trkpt><trkpt lat="44.2349368" lon="11.4192833"><ele>762.5999999999999</ele><time>2026-04-04T10:02:06.789Z</time></trkpt><trkpt lat="44.2349063" lon="11.4191388"><ele>762.4000000000001</ele><time>2026-04-04T10:02:07.789Z</time></trkpt><trkpt lat="44.2348712" lon="11.419006"><ele>762.2</ele><time>2026-04-04T10:02:08.788Z</time></trkpt><trkpt lat="44.2348342" lon="11.4188792"><ele>762.0</ele><time>2026-04-04T10:02:09.789Z</time></trkpt><trkpt lat="44.2347983" lon="11.4187533"><ele>760.2</ele><time>2026-04-04T10:02:10.79Z</time></trkpt><trkpt lat="44.2347648" lon="11.4186277"><ele>758.4000000000001</ele><time>2026-04-04T10:02:11.789Z</time></trkpt><trkpt lat="44.2347233" lon="11.4185035"><ele>756.5999999999999</ele><time>2026-04-04T10:02:12.789Z</time></trkpt><trkpt lat="44.234672" lon="11.418375"><ele>754.8</ele><time>2026-04-04T10:02:13.789Z</time></trkpt><trkpt lat="44.2346158" lon="11.4182358"><ele>753.0</ele><time>2026-04-04T10:02:14.788Z</time></trkpt><trkpt lat="44.2345587" lon="11.4180907"><ele>755.25</ele><time>2026-04-04T10:02:15.79Z</time></trkpt><trkpt lat="44.2345018" lon="11.4179418"><ele>757.5</ele><time>2026-04-04T10:02:16.788Z</time></trkpt><trkpt lat="44.2344397" lon="11.4177922"><ele>759.75</ele><time>2026-04-04T10:02:17.788Z</time></trkpt><trkpt lat="44.2343772" lon="11.417641"><ele>762.0</ele><time>2026-04-04T10:02:18.789Z</time></trkpt><trkpt lat="44.2343127" lon="11.4174953"><ele>762.0</ele><time>2026-04-04T10:02:19.789Z</time></trkpt><trkpt lat="44.2342395" lon="11.4173617"><ele>762.0</ele><time>2026-04-04T10:02:20.789Z</time></trkpt><trkpt lat="44.234155" lon="11.4172513"><ele>762.0</ele><time>2026-04-04T10:02:21.788Z</time></trkpt><trkpt lat="44.2340647" lon="11.4171572"><ele>762.0</ele><time>2026-04-04T10:02:22.79Z</time></trkpt><trkpt lat="44.2339853" lon="11.4170637"><ele>761.4000000000001</ele><time>2026-04-04T10:02:23.788Z</time></trkpt><trkpt lat="44.233919" lon="11.4169565"><ele>760.8000000000001</ele><time>2026-04-04T10:02:24.79Z</time></trkpt><trkpt lat="44.2338607" lon="11.4168332"><ele>760.2</ele><time>2026-04-04T10:02:25.789Z</time></trkpt><trkpt lat="44.2338055" lon="11.4166993"><ele>759.6</ele><time>2026-04-04T10:02:26.788Z</time></trkpt><trkpt lat="44.2337458" lon="11.416561"><ele>759.0</ele><time>2026-04-04T10:02:27.789Z</time></trkpt><trkpt lat="44.2336873" lon="11.4164197"><ele>759.0</ele><time>2026-04-04T10:02:28.787Z</time></trkpt><trkpt lat="44.2336377" lon="11.4162675"><ele>759.0</ele><time>2026-04-04T10:02:29.787Z</time></trkpt><trkpt lat="44.2335977" lon="11.4161153"><ele>759.0</ele><time>2026-04-04T10:02:30.789Z</time></trkpt><trkpt lat="44.2335643" lon="11.415957"><ele>759.0</ele><time>2026-04-04T10:02:31.789Z</time></trkpt><trkpt lat="44.2335418" lon="11.4157893"><ele>759.0</ele><time>2026-04-04T10:02:32.789Z</time></trkpt><trkpt lat="44.233519" lon="11.4156173"><ele>759.0</ele><time>2026-04-04T10:02:33.787Z</time></trkpt><trkpt lat="44.233505" lon="11.4154435"><ele>759.0</ele><time>2026-04-04T10:02:34.788Z</time></trkpt><trkpt lat="44.23349" lon="11.4152703"><ele>759.0</ele><time>2026-04-04T10:02:35.789Z</time></trkpt><trkpt lat="44.2334663" lon="11.415095"><ele>760.75</ele><time>2026-04-04T10:02:36.787Z</time></trkpt><trkpt lat="44.2334353" lon="11.4149145"><ele>762.5</ele><time>2026-04-04T10:02:37.789Z</time></trkpt><trkpt lat="44.2333917" lon="11.4147438"><ele>764.25</ele><time>2026-04-04T10:02:38.787Z</time></trkpt><trkpt lat="44.2333375" lon="11.4145978"><ele>766.0</ele><time>2026-04-04T10:02:39.791Z</time></trkpt><trkpt lat="44.2332817" lon="11.4144802"><ele>766.5</ele><time>2026-04-04T10:02:40.788Z</time></trkpt><trkpt lat="44.2332257" lon="11.4144077"><ele>767.0</ele><time>2026-04-04T10:02:41.792Z</time></trkpt><trkpt lat="44.2331353" lon="11.41433"><ele>767.5</ele><time>2026-04-04T10:02:43.789Z</time></trkpt><trkpt lat="44.2330792" lon="11.4142665"><ele>768.0</ele><time>2026-04-04T10:02:44.789Z</time></trkpt><trkpt lat="44.2330132" lon="11.41418"><ele>768.4999999999999</ele><time>2026-04-04T10:02:45.789Z</time></trkpt><trkpt lat="44.2329407" lon="11.4140803"><ele>769.0</ele><time>2026-04-04T10:02:46.789Z</time></trkpt><trkpt lat="44.2328548" lon="11.4139787"><ele>769.0</ele><time>2026-04-04T10:02:47.79Z</time></trkpt><trkpt lat="44.23276" lon="11.4138753"><ele>769.0</ele><time>2026-04-04T10:02:48.79Z</time></trkpt><trkpt lat="44.2326567" lon="11.41377"><ele>769.0</ele><time>2026-04-04T10:02:49.79Z</time></trkpt><trkpt lat="44.232547" lon="11.4136673"><ele>769.0</ele><time>2026-04-04T10:02:50.786Z</time></trkpt><trkpt lat="44.2324382" lon="11.41359"><ele>770.25</ele><time>2026-04-04T10:02:51.787Z</time></trkpt><trkpt lat="44.2323263" lon="11.4135388"><ele>771.5</ele><time>2026-04-04T10:02:52.789Z</time></trkpt><trkpt lat="44.2322127" lon="11.4134923"><ele>772.75</ele><time>2026-04-04T10:02:53.785Z</time></trkpt><trkpt lat="44.2321007" lon="11.413458"><ele>774.0</ele><time>2026-04-04T10:02:54.788Z</time></trkpt><trkpt lat="44.2319957" lon="11.4134412"><ele>774.0</ele><time>2026-04-04T10:02:55.789Z</time></trkpt><trkpt lat="44.2319" lon="11.4134257"><ele>774.0</ele><time>2026-04-04T10:02:56.795Z</time></trkpt><trkpt lat="44.2318108" lon="11.4133913"><ele>774.0</ele><time>2026-04-04T10:02:57.788Z</time></trkpt><trkpt lat="44.2317168" lon="11.4133388"><ele>774.0</ele><time>2026-04-04T10:02:58.789Z</time></trkpt><trkpt lat="44.2316142" lon="11.4132667"><ele>774.0</ele><time>2026-04-04T10:02:59.791Z</time></trkpt><trkpt lat="44.2315088" lon="11.4131745"><ele>772.0</ele><time>2026-04-04T10:03:00.789Z</time></trkpt><trkpt lat="44.231402" lon="11.4130713"><ele>770.0</ele><time>2026-04-04T10:03:01.79Z</time></trkpt><trkpt lat="44.2312972" lon="11.4129632"><ele>768.0</ele><time>2026-04-04T10:03:02.789Z</time></trkpt><trkpt lat="44.2311885" lon="11.412863"><ele>766.0</ele><time>2026-04-04T10:03:03.789Z</time></trkpt><trkpt lat="44.2310733" lon="11.4127782"><ele>766.0</ele><time>2026-04-04T10:03:04.791Z</time></trkpt><trkpt lat="44.2309542" lon="11.4127022"><ele>766.0</ele><time>2026-04-04T10:03:05.788Z</time></trkpt><trkpt lat="44.2308342" lon="11.4126233"><ele>766.0</ele><time>2026-04-04T10:03:06.79Z</time></trkpt><trkpt lat="44.2307158" lon="11.412536"><ele>766.0</ele><time>2026-04-04T10:03:07.789Z</time></trkpt><trkpt lat="44.2305977" lon="11.4124442"><ele>766.25</ele><time>2026-04-04T10:03:08.789Z</time></trkpt><trkpt lat="44.2304832" lon="11.412346"><ele>766.5</ele><time>2026-04-04T10:03:09.789Z</time></trkpt><trkpt lat="44.2303808" lon="11.4122453"><ele>766.75</ele><time>2026-04-04T10:03:10.788Z</time></trkpt><trkpt lat="44.2302865" lon="11.4121457"><ele>767.0</ele><time>2026-04-04T10:03:11.801Z</time></trkpt><trkpt lat="44.2302012" lon="11.4120412"><ele>767.0</ele><time>2026-04-04T10:03:12.788Z</time></trkpt><trkpt lat="44.2301188" lon="11.4119522"><ele>767.0</ele><time>2026-04-04T10:03:13.788Z</time></trkpt><trkpt lat="44.2300252" lon="11.4118853"><ele>767.0</ele><time>2026-04-04T10:03:14.787Z</time></trkpt><trkpt lat="44.2299178" lon="11.4118335"><ele>767.0</ele><time>2026-04-04T10:03:15.787Z</time></trkpt><trkpt lat="44.2298067" lon="11.4117957"><ele>767.0</ele><time>2026-04-04T10:03:16.787Z</time></trkpt><trkpt lat="44.229693" lon="11.4117633"><ele>768.0</ele><time>2026-04-04T10:03:17.787Z</time></trkpt><trkpt lat="44.2295772" lon="11.4117242"><ele>769.0</ele><time>2026-04-04T10:03:18.788Z</time></trkpt><trkpt lat="44.2294672" lon="11.4116573"><ele>770.0</ele><time>2026-04-04T10:03:19.79Z</time></trkpt><trkpt lat="44.2293618" lon="11.4115767"><ele>771.0</ele><time>2026-04-04T10:03:20.795Z</time></trkpt><trkpt lat="44.2292595" lon="11.4114912"><ele>771.0</ele><time>2026-04-04T10:03:21.791Z</time></trkpt><trkpt lat="44.2291538" lon="11.411404"><ele>771.0</ele><time>2026-04-04T10:03:22.79Z</time></trkpt><trkpt lat="44.229046" lon="11.4113128"><ele>771.0</ele><time>2026-04-04T10:03:23.789Z</time></trkpt><trkpt lat="44.2289527" lon="11.4112175"><ele>771.0</ele><time>2026-04-04T10:03:24.789Z</time></trkpt><trkpt lat="44.228886" lon="11.4111362"><ele>771.4</ele><time>2026-04-04T10:03:25.789Z</time></trkpt><trkpt lat="44.2288395" lon="11.4110627"><ele>771.8</ele><time>2026-04-04T10:03:26.79Z</time></trkpt><trkpt lat="44.2287773" lon="11.4109408"><ele>772.1999999999999</ele><time>2026-04-04T10:03:28.791Z</time></trkpt><trkpt lat="44.2287262" lon="11.410838"><ele>772.5999999999999</ele><time>2026-04-04T10:03:30.792Z</time></trkpt><trkpt lat="44.2286782" lon="11.410699"><ele>773.0</ele><time>2026-04-04T10:03:32.79Z</time></trkpt><trkpt lat="44.2286682" lon="11.4105208"><ele>773.8571428571429</ele><time>2026-04-04T10:03:34.79Z</time></trkpt><trkpt lat="44.2286712" lon="11.4104253"><ele>774.7142857142857</ele><time>2026-04-04T10:03:35.789Z</time></trkpt><trkpt lat="44.2286737" lon="11.410328"><ele>775.5714285714287</ele><time>2026-04-04T10:03:36.791Z</time></trkpt><trkpt lat="44.2286718" lon="11.410229"><ele>776.4285714285714</ele><time>2026-04-04T10:03:37.788Z</time></trkpt><trkpt lat="44.2286665" lon="11.4101318"><ele>777.2857142857143</ele><time>2026-04-04T10:03:38.79Z</time></trkpt><trkpt lat="44.2286547" lon="11.4100378"><ele>778.1428571428572</ele><time>2026-04-04T10:03:39.791Z</time></trkpt><trkpt lat="44.2286398" lon="11.4099468"><ele>779.0</ele><time>2026-04-04T10:03:40.789Z</time></trkpt><trkpt lat="44.228629" lon="11.409856"><ele>779.0000000000001</ele><time>2026-04-04T10:03:41.787Z</time></trkpt><trkpt lat="44.2286322" lon="11.409703"><ele>779.0</ele><time>2026-04-04T10:03:43.789Z</time></trkpt><trkpt lat="44.2286585" lon="11.4095822"><ele>779.0</ele><time>2026-04-04T10:03:45.79Z</time></trkpt><trkpt lat="44.2286387" lon="11.4094563"><ele>779.0</ele><time>2026-04-04T10:03:47.789Z</time></trkpt><trkpt lat="44.2286285" lon="11.409339"><ele>779.0000000000001</ele><time>2026-04-04T10:03:49.789Z</time></trkpt><trkpt lat="44.2286333" lon="11.4092438"><ele>779.0</ele><time>2026-04-04T10:03:51.79Z</time></trkpt><trkpt lat="44.2286362" lon="11.4091397"><ele>779.8333333333334</ele><time>2026-04-04T10:03:54.79Z</time></trkpt><trkpt lat="44.2285918" lon="11.4090742"><ele>780.6666666666667</ele><time>2026-04-04T10:03:56.791Z</time></trkpt><trkpt lat="44.2285057" lon="11.4090763"><ele>781.5</ele><time>2026-04-04T10:03:58.79Z</time></trkpt><trkpt lat="44.2284235" lon="11.409128"><ele>782.3333333333333</ele><time>2026-04-04T10:04:00.791Z</time></trkpt><trkpt lat="44.2283528" lon="11.4091052"><ele>783.1666666666666</ele><time>2026-04-04T10:04:02.79Z</time></trkpt><trkpt lat="44.228302" lon="11.4089998"><ele>784.0</ele><time>2026-04-04T10:04:04.789Z</time></trkpt><trkpt lat="44.2282658" lon="11.4089243"><ele>784.0</ele><time>2026-04-04T10:04:05.789Z</time></trkpt><trkpt lat="44.228212" lon="11.4087847"><ele>784.0</ele><time>2026-04-04T10:04:07.789Z</time></trkpt><trkpt lat="44.2281535" lon="11.4086535"><ele>784.0</ele><time>2026-04-04T10:04:09.79Z</time></trkpt><trkpt lat="44.2281058" lon="11.4085392"><ele>784.0</ele><time>2026-04-04T10:04:11.791Z</time></trkpt><trkpt lat="44.2280375" lon="11.4083877"><ele>784.0</ele><time>2026-04-04T10:04:13.791Z</time></trkpt><trkpt lat="44.2279948" lon="11.4082882"><ele>784.1666666666666</ele><time>2026-04-04T10:04:14.791Z</time></trkpt><trkpt lat="44.2279575" lon="11.4082012"><ele>784.3333333333333</ele><time>2026-04-04T10:04:15.791Z</time></trkpt><trkpt lat="44.2278878" lon="11.4080658"><ele>784.5</ele><time>2026-04-04T10:04:17.791Z</time></trkpt><trkpt lat="44.2278205" lon="11.4079208"><ele>784.6666666666667</ele><time>2026-04-04T10:04:19.792Z</time></trkpt><trkpt lat="44.227777" lon="11.407855"><ele>784.8333333333334</ele><time>2026-04-04T10:04:20.789Z</time></trkpt><trkpt lat="44.2277285" lon="11.4077957"><ele>785.0</ele><time>2026-04-04T10:04:21.79Z</time></trkpt><trkpt lat="44.2276417" lon="11.4076993"><ele>785.0</ele><time>2026-04-04T10:04:23.79Z</time></trkpt><trkpt lat="44.2275447" lon="11.4076175"><ele>785.0</ele><time>2026-04-04T10:04:25.79Z</time></trkpt><trkpt lat="44.2274438" lon="11.4075258"><ele>785.0</ele><time>2026-04-04T10:04:27.789Z</time></trkpt><trkpt lat="44.2273583" lon="11.4074753"><ele>785.0</ele><time>2026-04-04T10:04:29.788Z</time></trkpt><trkpt lat="44.2272817" lon="11.4074298"><ele>785.0</ele><time>2026-04-04T10:04:31.787Z</time></trkpt><trkpt lat="44.2271985" lon="11.4073773"><ele>784.8333333333334</ele><time>2026-04-04T10:04:33.791Z</time></trkpt><trkpt lat="44.2271267" lon="11.4073175"><ele>784.6666666666667</ele><time>2026-04-04T10:04:35.79Z</time></trkpt><trkpt lat="44.2270543" lon="11.4072672"><ele>784.5</ele><time>2026-04-04T10:04:37.791Z</time></trkpt><trkpt lat="44.2269917" lon="11.4072292"><ele>784.3333333333333</ele><time>2026-04-04T10:04:40.792Z</time></trkpt><trkpt lat="44.2268925" lon="11.407168"><ele>784.1666666666666</ele><time>2026-04-04T10:04:42.791Z</time></trkpt><trkpt lat="44.2268095" lon="11.4070992"><ele>784.0</ele><time>2026-04-04T10:04:44.791Z</time></trkpt><trkpt lat="44.2267865" lon="11.4069785"><ele>784.0</ele><time>2026-04-04T10:04:46.789Z</time></trkpt><trkpt lat="44.2267793" lon="11.4068513"><ele>784.0</ele><time>2026-04-04T10:04:48.789Z</time></trkpt><trkpt lat="44.2267138" lon="11.4066985"><ele>784.0</ele><time>2026-04-04T10:04:50.788Z</time></trkpt><trkpt lat="44.2266762" lon="11.406619"><ele>784.0</ele><time>2026-04-04T10:04:51.79Z</time></trkpt><trkpt lat="44.2266162" lon="11.4065125"><ele>784.0</ele><time>2026-04-04T10:04:53.787Z</time></trkpt><trkpt lat="44.2265803" lon="11.4063528"><ele>784.3333333333333</ele><time>2026-04-04T10:04:55.787Z</time></trkpt><trkpt lat="44.2265372" lon="11.4061995"><ele>784.6666666666666</ele><time>2026-04-04T10:04:57.789Z</time></trkpt><trkpt lat="44.2264432" lon="11.4060893"><ele>785.0</ele><time>2026-04-04T10:04:59.788Z</time></trkpt><trkpt lat="44.226401" lon="11.4060232"><ele>785.3333333333333</ele><time>2026-04-04T10:05:00.79Z</time></trkpt><trkpt lat="44.2263705" lon="11.405946"><ele>785.6666666666666</ele><time>2026-04-04T10:05:01.79Z</time></trkpt><trkpt lat="44.2263557" lon="11.4058565"><ele>786.0</ele><time>2026-04-04T10:05:02.788Z</time></trkpt><trkpt lat="44.2263427" lon="11.4057653"><ele>786.0</ele><time>2026-04-04T10:05:03.79Z</time></trkpt><trkpt lat="44.2263668" lon="11.4056382"><ele>786.0</ele><time>2026-04-04T10:05:05.789Z</time></trkpt><trkpt lat="44.2263422" lon="11.4055"><ele>786.0</ele><time>2026-04-04T10:05:07.788Z</time></trkpt><trkpt lat="44.2263102" lon="11.4053345"><ele>786.0</ele><time>2026-04-04T10:05:09.789Z</time></trkpt><trkpt lat="44.2262888" lon="11.4052475"><ele>786.0</ele><time>2026-04-04T10:05:10.788Z</time></trkpt><trkpt lat="44.226283" lon="11.4051102"><ele>787.0</ele><time>2026-04-04T10:05:12.788Z</time></trkpt><trkpt lat="44.2262857" lon="11.4050012"><ele>788.0</ele><time>2026-04-04T10:05:14.788Z</time></trkpt><trkpt lat="44.2262598" lon="11.4048348"><ele>789.0</ele><time>2026-04-04T10:05:16.788Z</time></trkpt><trkpt lat="44.226223" lon="11.4046687"><ele>790.0</ele><time>2026-04-04T10:05:18.785Z</time></trkpt><trkpt lat="44.2262017" lon="11.4045728"><ele>791.0</ele><time>2026-04-04T10:05:19.785Z</time></trkpt><trkpt lat="44.2261813" lon="11.4044655"><ele>791.8</ele><time>2026-04-04T10:05:20.785Z</time></trkpt><trkpt lat="44.226158" lon="11.4043523"><ele>792.5999999999999</ele><time>2026-04-04T10:05:21.787Z</time></trkpt><trkpt lat="44.2261382" lon="11.4042362"><ele>793.4</ele><time>2026-04-04T10:05:22.788Z</time></trkpt><trkpt lat="44.2261195" lon="11.4041093"><ele>794.2</ele><time>2026-04-04T10:05:23.787Z</time></trkpt><trkpt lat="44.2261005" lon="11.4039782"><ele>795.0</ele><time>2026-04-04T10:05:24.788Z</time></trkpt><trkpt lat="44.2260907" lon="11.4038437"><ele>794.5</ele><time>2026-04-04T10:05:25.789Z</time></trkpt><trkpt lat="44.226084" lon="11.4037227"><ele>794.0</ele><time>2026-04-04T10:05:26.788Z</time></trkpt><trkpt lat="44.2260678" lon="11.4036215"><ele>793.5</ele><time>2026-04-04T10:05:27.787Z</time></trkpt><trkpt lat="44.2260435" lon="11.4035352"><ele>793.0</ele><time>2026-04-04T10:05:28.788Z</time></trkpt><trkpt lat="44.2259982" lon="11.403406"><ele>792.5</ele><time>2026-04-04T10:05:30.789Z</time></trkpt><trkpt lat="44.2259178" lon="11.4033075"><ele>792.0</ele><time>2026-04-04T10:05:32.789Z</time></trkpt><trkpt lat="44.2258448" lon="11.4032132"><ele>792.0</ele><time>2026-04-04T10:05:34.788Z</time></trkpt><trkpt lat="44.2257848" lon="11.4031325"><ele>792.0</ele><time>2026-04-04T10:05:36.788Z</time></trkpt><trkpt lat="44.225724" lon="11.4030407"><ele>792.0</ele><time>2026-04-04T10:05:38.789Z</time></trkpt><trkpt lat="44.225668" lon="11.4029207"><ele>792.0</ele><time>2026-04-04T10:05:40.788Z</time></trkpt><trkpt lat="44.2256127" lon="11.4028437"><ele>792.0</ele><time>2026-04-04T10:05:42.789Z</time></trkpt><trkpt lat="44.2255615" lon="11.4027615"><ele>792.0</ele><time>2026-04-04T10:05:44.785Z</time></trkpt><trkpt lat="44.2255193" lon="11.402621"><ele>793.6</ele><time>2026-04-04T10:05:46.787Z</time></trkpt><trkpt lat="44.2254637" lon="11.4024908"><ele>795.2</ele><time>2026-04-04T10:05:48.79Z</time></trkpt><trkpt lat="44.2254038" lon="11.4023552"><ele>796.8</ele><time>2026-04-04T10:05:50.788Z</time></trkpt><trkpt lat="44.2253355" lon="11.4022378"><ele>798.4</ele><time>2026-04-04T10:05:52.787Z</time></trkpt><trkpt lat="44.2252638" lon="11.40217"><ele>800.0</ele><time>2026-04-04T10:05:54.788Z</time></trkpt><trkpt lat="44.2252048" lon="11.4020942"><ele>800.0000000000001</ele><time>2026-04-04T10:05:56.787Z</time></trkpt><trkpt lat="44.2251508" lon="11.4019835"><ele>800.0</ele><time>2026-04-04T10:05:59.787Z</time></trkpt><trkpt lat="44.2251035" lon="11.4018932"><ele>800.0</ele><time>2026-04-04T10:06:01.786Z</time></trkpt><trkpt lat="44.2250753" lon="11.4018087"><ele>800.0</ele><time>2026-04-04T10:06:03.786Z</time></trkpt><trkpt lat="44.225036" lon="11.4017167"><ele>800.0000000000001</ele><time>2026-04-04T10:06:05.788Z</time></trkpt><trkpt lat="44.2250065" lon="11.4015812"><ele>800.0</ele><time>2026-04-04T10:06:07.784Z</time></trkpt><trkpt lat="44.2249952" lon="11.4014463"><ele>800.2</ele><time>2026-04-04T10:06:09.785Z</time></trkpt><trkpt lat="44.2249792" lon="11.4012808"><ele>800.4</ele><time>2026-04-04T10:06:11.787Z</time></trkpt><trkpt lat="44.224959" lon="11.4011523"><ele>800.5999999999999</ele><time>2026-04-04T10:06:13.788Z</time></trkpt><trkpt lat="44.2248967" lon="11.4010298"><ele>800.8</ele><time>2026-04-04T10:06:15.788Z</time></trkpt><trkpt lat="44.2248678" lon="11.4008993"><ele>801.0</ele><time>2026-04-04T10:06:17.786Z</time></trkpt><trkpt lat="44.2248883" lon="11.4007687"><ele>801.0</ele><time>2026-04-04T10:06:19.787Z</time></trkpt><trkpt lat="44.2249478" lon="11.4006368"><ele>801.0</ele><time>2026-04-04T10:06:21.788Z</time></trkpt><trkpt lat="44.2249785" lon="11.4005555"><ele>801.0</ele><time>2026-04-04T10:06:22.788Z</time></trkpt><trkpt lat="44.2250067" lon="11.4004653"><ele>801.0</ele><time>2026-04-04T10:06:23.786Z</time></trkpt><trkpt lat="44.2250262" lon="11.400362"><ele>801.0</ele><time>2026-04-04T10:06:24.787Z</time></trkpt><trkpt lat="44.2250325" lon="11.4002635"><ele>801.0</ele><time>2026-04-04T10:06:25.786Z</time></trkpt><trkpt lat="44.225036" lon="11.4001713"><ele>801.5714285714286</ele><time>2026-04-04T10:06:26.787Z</time></trkpt><trkpt lat="44.2250455" lon="11.4000825"><ele>802.1428571428571</ele><time>2026-04-04T10:06:27.789Z</time></trkpt><trkpt lat="44.225075" lon="11.4"><ele>802.7142857142858</ele><time>2026-04-04T10:06:28.787Z</time></trkpt><trkpt lat="44.225119" lon="11.3999203"><ele>803.2857142857142</ele><time>2026-04-04T10:06:29.787Z</time></trkpt><trkpt lat="44.225177" lon="11.3998508"><ele>803.8571428571429</ele><time>2026-04-04T10:06:30.787Z</time></trkpt><trkpt lat="44.2252468" lon="11.3997922"><ele>804.4285714285714</ele><time>2026-04-04T10:06:31.785Z</time></trkpt><trkpt lat="44.22531" lon="11.3997312"><ele>805.0</ele><time>2026-04-04T10:06:32.785Z</time></trkpt><trkpt lat="44.2253523" lon="11.3996622"><ele>805.6</ele><time>2026-04-04T10:06:33.785Z</time></trkpt><trkpt lat="44.2253718" lon="11.3994975"><ele>806.2</ele><time>2026-04-04T10:06:35.785Z</time></trkpt><trkpt lat="44.2253112" lon="11.3993682"><ele>806.8</ele><time>2026-04-04T10:06:37.786Z</time></trkpt><trkpt lat="44.225263" lon="11.3992857"><ele>807.4</ele><time>2026-04-04T10:06:39.787Z</time></trkpt><trkpt lat="44.2252482" lon="11.3991883"><ele>808.0</ele><time>2026-04-04T10:06:47.786Z</time></trkpt><trkpt lat="44.2252287" lon="11.3990748"><ele>808.0</ele><time>2026-04-04T10:06:51.787Z</time></trkpt><trkpt lat="44.2252085" lon="11.3989542"><ele>808.0</ele><time>2026-04-04T10:06:54.787Z</time></trkpt><trkpt lat="44.2252155" lon="11.3988252"><ele>808.0</ele><time>2026-04-04T10:06:56.785Z</time></trkpt><trkpt lat="44.2251972" lon="11.398684"><ele>808.0</ele><time>2026-04-04T10:06:58.785Z</time></trkpt><trkpt lat="44.2250975" lon="11.398592"><ele>808.0</ele><time>2026-04-04T10:07:00.788Z</time></trkpt><trkpt lat="44.2249867" lon="11.3985942"><ele>807.9999999999999</ele><time>2026-04-04T10:07:02.786Z</time></trkpt><trkpt lat="44.2248653" lon="11.3985723"><ele>808.0</ele><time>2026-04-04T10:07:04.787Z</time></trkpt><trkpt lat="44.2248058" lon="11.398528"><ele>808.0</ele><time>2026-04-04T10:07:05.785Z</time></trkpt><trkpt lat="44.224743" lon="11.3984835"><ele>808.0</ele><time>2026-04-04T10:07:06.788Z</time></trkpt><trkpt lat="44.2246835" lon="11.3984353"><ele>807.9999999999999</ele><time>2026-04-04T10:07:07.787Z</time></trkpt><trkpt lat="44.2246257" lon="11.3983893"><ele>808.0</ele><time>2026-04-04T10:07:08.786Z</time></trkpt><trkpt lat="44.2245647" lon="11.3983662"><ele>808.0</ele><time>2026-04-04T10:07:09.789Z</time></trkpt><trkpt lat="44.224498" lon="11.3983713"><ele>808.0</ele><time>2026-04-04T10:07:10.789Z</time></trkpt><trkpt lat="44.2244312" lon="11.3983848"><ele>808.0</ele><time>2026-04-04T10:07:11.787Z</time></trkpt><trkpt lat="44.2243613" lon="11.3983938"><ele>808.0</ele><time>2026-04-04T10:07:12.788Z</time></trkpt><trkpt lat="44.224291" lon="11.3983988"><ele>808.0</ele><time>2026-04-04T10:07:13.789Z</time></trkpt><trkpt lat="44.2242223" lon="11.3984137"><ele>808.0</ele><time>2026-04-04T10:07:14.787Z</time></trkpt><trkpt lat="44.2241537" lon="11.3984487"><ele>808.0</ele><time>2026-04-04T10:07:15.788Z</time></trkpt><trkpt lat="44.2240798" lon="11.3984748"><ele>808.0</ele><time>2026-04-04T10:07:16.787Z</time></trkpt><trkpt lat="44.2240112" lon="11.3984848"><ele>808.0</ele><time>2026-04-04T10:07:17.788Z</time></trkpt><trkpt lat="44.2239055" lon="11.3984702"><ele>808.0</ele><time>2026-04-04T10:07:19.788Z</time></trkpt><trkpt lat="44.223813" lon="11.3985093"><ele>808.0</ele><time>2026-04-04T10:07:21.786Z</time></trkpt><trkpt lat="44.2236997" lon="11.3985357"><ele>808.0</ele><time>2026-04-04T10:07:23.785Z</time></trkpt><trkpt lat="44.2235998" lon="11.3985347"><ele>808.1666666666666</ele><time>2026-04-04T10:07:25.787Z</time></trkpt><trkpt lat="44.2234727" lon="11.3985422"><ele>808.3333333333333</ele><time>2026-04-04T10:07:27.787Z</time></trkpt><trkpt lat="44.2234007" lon="11.3985228"><ele>808.5</ele><time>2026-04-04T10:07:28.785Z</time></trkpt><trkpt lat="44.223328" lon="11.398491"><ele>808.6666666666667</ele><time>2026-04-04T10:07:29.788Z</time></trkpt><trkpt lat="44.2232565" lon="11.398465"><ele>808.8333333333334</ele><time>2026-04-04T10:07:30.787Z</time></trkpt><trkpt lat="44.2231825" lon="11.398468"><ele>809.0</ele><time>2026-04-04T10:07:31.786Z</time></trkpt><trkpt lat="44.2231133" lon="11.3985088"><ele>809.3333333333334</ele><time>2026-04-04T10:07:32.787Z</time></trkpt><trkpt lat="44.2230485" lon="11.398574"><ele>809.6666666666667</ele><time>2026-04-04T10:07:33.787Z</time></trkpt><trkpt lat="44.2229773" lon="11.3986483"><ele>810.0</ele><time>2026-04-04T10:07:34.789Z</time></trkpt><trkpt lat="44.2228912" lon="11.398721"><ele>810.3333333333333</ele><time>2026-04-04T10:07:35.787Z</time></trkpt><trkpt lat="44.2228078" lon="11.3987897"><ele>810.6666666666666</ele><time>2026-04-04T10:07:36.79Z</time></trkpt><trkpt lat="44.2227425" lon="11.3988528"><ele>811.0</ele><time>2026-04-04T10:07:37.788Z</time></trkpt><trkpt lat="44.2226888" lon="11.3989027"><ele>811.5999999999999</ele><time>2026-04-04T10:07:38.787Z</time></trkpt><trkpt lat="44.2225697" lon="11.3989593"><ele>812.2</ele><time>2026-04-04T10:07:40.79Z</time></trkpt><trkpt lat="44.222487" lon="11.3989473"><ele>812.8</ele><time>2026-04-04T10:07:41.788Z</time></trkpt><trkpt lat="44.2223937" lon="11.3989282"><ele>813.4000000000001</ele><time>2026-04-04T10:07:42.789Z</time></trkpt><trkpt lat="44.2223062" lon="11.398896"><ele>814.0</ele><time>2026-04-04T10:07:43.79Z</time></trkpt><trkpt lat="44.2222302" lon="11.3988418"><ele>813.4999999999999</ele><time>2026-04-04T10:07:44.788Z</time></trkpt><trkpt lat="44.2221657" lon="11.3987815"><ele>813.0</ele><time>2026-04-04T10:07:45.787Z</time></trkpt><trkpt lat="44.2221075" lon="11.3987252"><ele>812.5</ele><time>2026-04-04T10:07:46.786Z</time></trkpt><trkpt lat="44.2220562" lon="11.3986727"><ele>812.0</ele><time>2026-04-04T10:07:47.786Z</time></trkpt><trkpt lat="44.2220057" lon="11.3986173"><ele>811.4999999999999</ele><time>2026-04-04T10:07:48.787Z</time></trkpt><trkpt lat="44.2219128" lon="11.3985265"><ele>811.0</ele><time>2026-04-04T10:07:50.787Z</time></trkpt><trkpt lat="44.2218085" lon="11.398434"><ele>811.0</ele><time>2026-04-04T10:07:52.79Z</time></trkpt><trkpt lat="44.221746" lon="11.3983872"><ele>811.0</ele><time>2026-04-04T10:07:53.788Z</time></trkpt><trkpt lat="44.2216673" lon="11.3983325"><ele>811.0</ele><time>2026-04-04T10:07:54.79Z</time></trkpt><trkpt lat="44.2215812" lon="11.3982618"><ele>811.0</ele><time>2026-04-04T10:07:55.789Z</time></trkpt><trkpt lat="44.2214928" lon="11.3981762"><ele>811.0</ele><time>2026-04-04T10:07:56.789Z</time></trkpt><trkpt lat="44.2214098" lon="11.3980817"><ele>810.4999999999999</ele><time>2026-04-04T10:07:57.788Z</time></trkpt><trkpt lat="44.2213432" lon="11.3979927"><ele>810.0</ele><time>2026-04-04T10:07:58.788Z</time></trkpt><trkpt lat="44.2212848" lon="11.3979217"><ele>809.5</ele><time>2026-04-04T10:07:59.789Z</time></trkpt><trkpt lat="44.2212195" lon="11.3978607"><ele>809.0</ele><time>2026-04-04T10:08:00.788Z</time></trkpt><trkpt lat="44.2211542" lon="11.3978002"><ele>808.4999999999999</ele><time>2026-04-04T10:08:01.789Z</time></trkpt><trkpt lat="44.2210775" lon="11.3977192"><ele>808.0</ele><time>2026-04-04T10:08:02.787Z</time></trkpt><trkpt lat="44.2209952" lon="11.3976237"><ele>808.0</ele><time>2026-04-04T10:08:03.788Z</time></trkpt><trkpt lat="44.2209185" lon="11.3975338"><ele>808.0</ele><time>2026-04-04T10:08:04.789Z</time></trkpt><trkpt lat="44.2208497" lon="11.3974407"><ele>808.0</ele><time>2026-04-04T10:08:05.789Z</time></trkpt><trkpt lat="44.2207947" lon="11.3973387"><ele>808.0</ele><time>2026-04-04T10:08:06.789Z</time></trkpt><trkpt lat="44.220752" lon="11.3972203"><ele>808.0</ele><time>2026-04-04T10:08:07.789Z</time></trkpt><trkpt lat="44.2207162" lon="11.397102"><ele>807.4</ele><time>2026-04-04T10:08:08.787Z</time></trkpt><trkpt lat="44.2206785" lon="11.3969968"><ele>806.8</ele><time>2026-04-04T10:08:09.786Z</time></trkpt><trkpt lat="44.2206413" lon="11.3969085"><ele>806.2</ele><time>2026-04-04T10:08:10.787Z</time></trkpt><trkpt lat="44.2206023" lon="11.3968305"><ele>805.6</ele><time>2026-04-04T10:08:11.785Z</time></trkpt><trkpt lat="44.220525" lon="11.39671"><ele>805.0</ele><time>2026-04-04T10:08:13.789Z</time></trkpt><trkpt lat="44.2204623" lon="11.3965587"><ele>804.8333333333333</ele><time>2026-04-04T10:08:15.79Z</time></trkpt><trkpt lat="44.2204217" lon="11.3964805"><ele>804.6666666666666</ele><time>2026-04-04T10:08:16.79Z</time></trkpt><trkpt lat="44.2203807" lon="11.39641"><ele>804.5</ele><time>2026-04-04T10:08:17.789Z</time></trkpt><trkpt lat="44.2203422" lon="11.39633"><ele>804.3333333333333</ele><time>2026-04-04T10:08:18.789Z</time></trkpt><trkpt lat="44.2203033" lon="11.3962452"><ele>804.1666666666666</ele><time>2026-04-04T10:08:19.789Z</time></trkpt><trkpt lat="44.2202677" lon="11.3961682"><ele>804.0</ele><time>2026-04-04T10:08:20.79Z</time></trkpt><trkpt lat="44.2202332" lon="11.3960247"><ele>804.8333333333334</ele><time>2026-04-04T10:08:22.789Z</time></trkpt><trkpt lat="44.220203" lon="11.3958918"><ele>805.6666666666667</ele><time>2026-04-04T10:08:24.789Z</time></trkpt><trkpt lat="44.2202085" lon="11.3957893"><ele>806.5</ele><time>2026-04-04T10:08:26.788Z</time></trkpt><trkpt lat="44.2201842" lon="11.395708"><ele>807.3333333333334</ele><time>2026-04-04T10:08:28.789Z</time></trkpt><trkpt lat="44.2201247" lon="11.3956167"><ele>808.1666666666667</ele><time>2026-04-04T10:08:30.791Z</time></trkpt><trkpt lat="44.2200683" lon="11.3955078"><ele>809.0</ele><time>2026-04-04T10:08:32.79Z</time></trkpt><trkpt lat="44.2199512" lon="11.3954503"><ele>809.0</ele><time>2026-04-04T10:08:34.786Z</time></trkpt><trkpt lat="44.2198448" lon="11.395445"><ele>809.0</ele><time>2026-04-04T10:08:36.789Z</time></trkpt><trkpt lat="44.2197167" lon="11.3954323"><ele>809.0</ele><time>2026-04-04T10:08:38.79Z</time></trkpt><trkpt lat="44.2196522" lon="11.3954082"><ele>809.0</ele><time>2026-04-04T10:08:39.791Z</time></trkpt><trkpt lat="44.2195887" lon="11.395383"><ele>809.0</ele><time>2026-04-04T10:08:40.789Z</time></trkpt><trkpt lat="44.2194758" lon="11.3953535"><ele>809.8333333333334</ele><time>2026-04-04T10:08:42.792Z</time></trkpt><trkpt lat="44.2193743" lon="11.3953372"><ele>810.6666666666667</ele><time>2026-04-04T10:08:44.79Z</time></trkpt><trkpt lat="44.2192817" lon="11.3953068"><ele>811.5</ele><time>2026-04-04T10:08:46.794Z</time></trkpt><trkpt lat="44.2192193" lon="11.3952812"><ele>812.3333333333333</ele><time>2026-04-04T10:08:47.788Z</time></trkpt><trkpt lat="44.2191438" lon="11.3952585"><ele>813.1666666666666</ele><time>2026-04-04T10:08:48.788Z</time></trkpt><trkpt lat="44.2190555" lon="11.3952455"><ele>814.0</ele><time>2026-04-04T10:08:49.798Z</time></trkpt><trkpt lat="44.2189722" lon="11.3952448"><ele>815.0</ele><time>2026-04-04T10:08:50.788Z</time></trkpt><trkpt lat="44.2188962" lon="11.395253"><ele>816.0</ele><time>2026-04-04T10:08:51.79Z</time></trkpt><trkpt lat="44.2188315" lon="11.3952735"><ele>817.0</ele><time>2026-04-04T10:08:52.791Z</time></trkpt><trkpt lat="44.2187363" lon="11.3953202"><ele>818.0</ele><time>2026-04-04T10:08:54.789Z</time></trkpt><trkpt lat="44.218658" lon="11.3952937"><ele>819.0</ele><time>2026-04-04T10:11:45.79Z</time></trkpt><trkpt lat="44.218538" lon="11.3952012"><ele>819.0</ele><time>2026-04-04T10:11:47.789Z</time></trkpt><trkpt lat="44.2184508" lon="11.3951655"><ele>819.0</ele><time>2026-04-04T10:11:48.79Z</time></trkpt><trkpt lat="44.2183615" lon="11.395137"><ele>819.0</ele><time>2026-04-04T10:11:49.787Z</time></trkpt><trkpt lat="44.2182735" lon="11.3951057"><ele>819.0</ele><time>2026-04-04T10:11:50.786Z</time></trkpt><trkpt lat="44.2181973" lon="11.395052"><ele>819.0</ele><time>2026-04-04T10:11:51.789Z</time></trkpt><trkpt lat="44.2181292" lon="11.3949725"><ele>819.0</ele><time>2026-04-04T10:11:52.788Z</time></trkpt><trkpt lat="44.2180753" lon="11.3948897"><ele>819.8000000000001</ele><time>2026-04-04T10:11:53.788Z</time></trkpt><trkpt lat="44.2180335" lon="11.3948098"><ele>820.6</ele><time>2026-04-04T10:11:54.79Z</time></trkpt><trkpt lat="44.2179958" lon="11.3947372"><ele>821.4</ele><time>2026-04-04T10:11:55.789Z</time></trkpt><trkpt lat="44.2178853" lon="11.394668"><ele>822.2</ele><time>2026-04-04T10:11:57.789Z</time></trkpt><trkpt lat="44.2177607" lon="11.3946327"><ele>823.0</ele><time>2026-04-04T10:11:59.789Z</time></trkpt><trkpt lat="44.2176783" lon="11.3945902"><ele>823.8571428571429</ele><time>2026-04-04T10:12:00.789Z</time></trkpt><trkpt lat="44.2175998" lon="11.3945542"><ele>824.7142857142858</ele><time>2026-04-04T10:12:01.789Z</time></trkpt><trkpt lat="44.2175297" lon="11.394532"><ele>825.5714285714286</ele><time>2026-04-04T10:12:02.787Z</time></trkpt><trkpt lat="44.2174645" lon="11.394521"><ele>826.4285714285714</ele><time>2026-04-04T10:12:03.789Z</time></trkpt><trkpt lat="44.2173997" lon="11.3945168"><ele>827.2857142857142</ele><time>2026-04-04T10:12:04.79Z</time></trkpt><trkpt lat="44.2173252" lon="11.3945127"><ele>828.1428571428571</ele><time>2026-04-04T10:12:05.789Z</time></trkpt><trkpt lat="44.2172388" lon="11.3945175"><ele>829.0</ele><time>2026-04-04T10:12:06.789Z</time></trkpt><trkpt lat="44.2171352" lon="11.3945265"><ele>829.4000000000001</ele><time>2026-04-04T10:12:07.791Z</time></trkpt><trkpt lat="44.217028" lon="11.3945253"><ele>829.8</ele><time>2026-04-04T10:12:08.789Z</time></trkpt><trkpt lat="44.2169247" lon="11.3945033"><ele>830.2</ele><time>2026-04-04T10:12:09.79Z</time></trkpt><trkpt lat="44.2168232" lon="11.3944642"><ele>830.5999999999999</ele><time>2026-04-04T10:12:10.791Z</time></trkpt><trkpt lat="44.2167175" lon="11.394413"><ele>831.0</ele><time>2026-04-04T10:12:11.79Z</time></trkpt><trkpt lat="44.2166158" lon="11.3943527"><ele>831.0</ele><time>2026-04-04T10:12:12.791Z</time></trkpt><trkpt lat="44.2165288" lon="11.3942878"><ele>831.0</ele><time>2026-04-04T10:12:13.788Z</time></trkpt><trkpt lat="44.2164568" lon="11.3942083"><ele>831.0</ele><time>2026-04-04T10:12:14.787Z</time></trkpt><trkpt lat="44.216408" lon="11.3941205"><ele>831.0</ele><time>2026-04-04T10:12:15.789Z</time></trkpt><trkpt lat="44.216384" lon="11.3940342"><ele>831.0</ele><time>2026-04-04T10:12:16.788Z</time></trkpt><trkpt lat="44.2163683" lon="11.3939442"><ele>831.0</ele><time>2026-04-04T10:12:17.79Z</time></trkpt><trkpt lat="44.2163413" lon="11.393852"><ele>833.5</ele><time>2026-04-04T10:12:18.79Z</time></trkpt><trkpt lat="44.2163105" lon="11.3937675"><ele>836.0</ele><time>2026-04-04T10:12:19.79Z</time></trkpt><trkpt lat="44.2162247" lon="11.3936695"><ele>838.5</ele><time>2026-04-04T10:12:21.789Z</time></trkpt><trkpt lat="44.216105" lon="11.3936893"><ele>841.0</ele><time>2026-04-04T10:12:23.788Z</time></trkpt><trkpt lat="44.2160313" lon="11.3936915"><ele>843.5</ele><time>2026-04-04T10:12:24.789Z</time></trkpt><trkpt lat="44.2159585" lon="11.3936748"><ele>846.0</ele><time>2026-04-04T10:12:25.792Z</time></trkpt><trkpt lat="44.2158838" lon="11.3936455"><ele>846.0</ele><time>2026-04-04T10:12:26.789Z</time></trkpt><trkpt lat="44.2158053" lon="11.3936183"><ele>846.0</ele><time>2026-04-04T10:12:27.791Z</time></trkpt><trkpt lat="44.215729" lon="11.3935922"><ele>846.0</ele><time>2026-04-04T10:12:28.79Z</time></trkpt><trkpt lat="44.2156002" lon="11.3935645"><ele>846.0</ele><time>2026-04-04T10:12:30.791Z</time></trkpt><trkpt lat="44.2155193" lon="11.3935427"><ele>846.0</ele><time>2026-04-04T10:12:31.794Z</time></trkpt><trkpt lat="44.21544" lon="11.3935088"><ele>847.5</ele><time>2026-04-04T10:12:32.788Z</time></trkpt><trkpt lat="44.2153757" lon="11.3934863"><ele>849.0</ele><time>2026-04-04T10:12:33.792Z</time></trkpt><trkpt lat="44.2152702" lon="11.3935175"><ele>850.5</ele><time>2026-04-04T10:12:35.789Z</time></trkpt><trkpt lat="44.2151618" lon="11.3935613"><ele>852.0</ele><time>2026-04-04T10:12:37.79Z</time></trkpt><trkpt lat="44.2150947" lon="11.393558"><ele>853.5</ele><time>2026-04-04T10:12:38.789Z</time></trkpt><trkpt lat="44.2150283" lon="11.3935532"><ele>855.0</ele><time>2026-04-04T10:12:39.789Z</time></trkpt><trkpt lat="44.214923" lon="11.3935495"><ele>855.0</ele><time>2026-04-04T10:12:41.788Z</time></trkpt><trkpt lat="44.2148492" lon="11.3935365"><ele>855.0</ele><time>2026-04-04T10:12:43.791Z</time></trkpt><trkpt lat="44.2147578" lon="11.3934758"><ele>855.0</ele><time>2026-04-04T10:12:45.79Z</time></trkpt><trkpt lat="44.2146655" lon="11.3934153"><ele>855.0</ele><time>2026-04-04T10:12:47.79Z</time></trkpt><trkpt lat="44.2145857" lon="11.3933318"><ele>855.0</ele><time>2026-04-04T10:12:49.79Z</time></trkpt><trkpt lat="44.2144933" lon="11.3932208"><ele>854.5714285714286</ele><time>2026-04-04T10:12:51.79Z</time></trkpt><trkpt lat="44.2144425" lon="11.3931517"><ele>854.1428571428571</ele><time>2026-04-04T10:12:52.79Z</time></trkpt><trkpt lat="44.2143915" lon="11.3930718"><ele>853.7142857142857</ele><time>2026-04-04T10:12:53.79Z</time></trkpt><trkpt lat="44.2143422" lon="11.39299"><ele>853.2857142857142</ele><time>2026-04-04T10:12:54.79Z</time></trkpt><trkpt lat="44.2142968" lon="11.3929092"><ele>852.8571428571429</ele><time>2026-04-04T10:12:55.791Z</time></trkpt><trkpt lat="44.2142505" lon="11.3928258"><ele>852.4285714285713</ele><time>2026-04-04T10:12:56.791Z</time></trkpt><trkpt lat="44.2142082" lon="11.3927443"><ele>852.0</ele><time>2026-04-04T10:12:57.791Z</time></trkpt><trkpt lat="44.2141637" lon="11.3926638"><ele>852.0</ele><time>2026-04-04T10:12:58.79Z</time></trkpt><trkpt lat="44.214121" lon="11.3925758"><ele>852.0</ele><time>2026-04-04T10:12:59.791Z</time></trkpt><trkpt lat="44.2140868" lon="11.3924738"><ele>852.0</ele><time>2026-04-04T10:13:00.792Z</time></trkpt><trkpt lat="44.2140582" lon="11.3923627"><ele>852.0</ele><time>2026-04-04T10:13:01.79Z</time></trkpt><trkpt lat="44.2140352" lon="11.3922507"><ele>852.0</ele><time>2026-04-04T10:13:02.79Z</time></trkpt><trkpt lat="44.214019" lon="11.3921443"><ele>852.0</ele><time>2026-04-04T10:13:03.787Z</time></trkpt><trkpt lat="44.2140055" lon="11.3920435"><ele>852.0</ele><time>2026-04-04T10:13:04.788Z</time></trkpt><trkpt lat="44.2139892" lon="11.3919548"><ele>852.0</ele><time>2026-04-04T10:13:05.788Z</time></trkpt><trkpt lat="44.21393" lon="11.3918325"><ele>852.0</ele><time>2026-04-04T10:13:07.79Z</time></trkpt><trkpt lat="44.2138408" lon="11.3917178"><ele>852.0</ele><time>2026-04-04T10:13:09.792Z</time></trkpt><trkpt lat="44.2137928" lon="11.3916442"><ele>852.0</ele><time>2026-04-04T10:13:10.793Z</time></trkpt><trkpt lat="44.2137403" lon="11.3915527"><ele>852.0</ele><time>2026-04-04T10:13:11.792Z</time></trkpt><trkpt lat="44.2136765" lon="11.3914592"><ele>852.4000000000001</ele><time>2026-04-04T10:13:12.791Z</time></trkpt><trkpt lat="44.2136003" lon="11.3913727"><ele>852.8000000000001</ele><time>2026-04-04T10:13:13.791Z</time></trkpt><trkpt lat="44.2135212" lon="11.3912855"><ele>853.2</ele><time>2026-04-04T10:13:14.791Z</time></trkpt><trkpt lat="44.2134437" lon="11.3911862"><ele>853.6</ele><time>2026-04-04T10:13:15.791Z</time></trkpt><trkpt lat="44.213369" lon="11.3910855"><ele>854.0</ele><time>2026-04-04T10:13:16.791Z</time></trkpt><trkpt lat="44.2132963" lon="11.3909977"><ele>854.0</ele><time>2026-04-04T10:13:17.789Z</time></trkpt><trkpt lat="44.2132228" lon="11.3909255"><ele>854.0000000000001</ele><time>2026-04-04T10:13:18.791Z</time></trkpt><trkpt lat="44.2131505" lon="11.3908737"><ele>854.0000000000001</ele><time>2026-04-04T10:13:19.791Z</time></trkpt><trkpt lat="44.2130808" lon="11.3908118"><ele>854.0</ele><time>2026-04-04T10:13:20.792Z</time></trkpt><trkpt lat="44.2130085" lon="11.3907187"><ele>854.0</ele><time>2026-04-04T10:13:21.791Z</time></trkpt><trkpt lat="44.2129338" lon="11.3906313"><ele>853.0</ele><time>2026-04-04T10:13:22.793Z</time></trkpt><trkpt lat="44.2128595" lon="11.3905477"><ele>852.0000000000001</ele><time>2026-04-04T10:13:23.79Z</time></trkpt><trkpt lat="44.2127792" lon="11.3904698"><ele>851.0</ele><time>2026-04-04T10:13:24.79Z</time></trkpt><trkpt lat="44.2126913" lon="11.3903847"><ele>850.0</ele><time>2026-04-04T10:13:25.791Z</time></trkpt><trkpt lat="44.2126073" lon="11.3902897"><ele>849.0</ele><time>2026-04-04T10:13:26.79Z</time></trkpt><trkpt lat="44.2125328" lon="11.3901857"><ele>849.2</ele><time>2026-04-04T10:13:27.79Z</time></trkpt><trkpt lat="44.2124715" lon="11.3900792"><ele>849.4000000000001</ele><time>2026-04-04T10:13:28.788Z</time></trkpt><trkpt lat="44.212407" lon="11.3899625"><ele>849.6</ele><time>2026-04-04T10:13:29.787Z</time></trkpt><trkpt lat="44.212341" lon="11.389847"><ele>849.8</ele><time>2026-04-04T10:13:30.788Z</time></trkpt><trkpt lat="44.2122635" lon="11.3897245"><ele>850.0</ele><time>2026-04-04T10:13:31.791Z</time></trkpt><trkpt lat="44.212177" lon="11.3896005"><ele>853.25</ele><time>2026-04-04T10:13:32.79Z</time></trkpt><trkpt lat="44.2120812" lon="11.3894845"><ele>856.5</ele><time>2026-04-04T10:13:33.789Z</time></trkpt><trkpt lat="44.2119752" lon="11.389382"><ele>859.75</ele><time>2026-04-04T10:13:34.791Z</time></trkpt><trkpt lat="44.2118613" lon="11.3892895"><ele>863.0</ele><time>2026-04-04T10:13:35.789Z</time></trkpt><trkpt lat="44.2117362" lon="11.3892078"><ele>863.0</ele><time>2026-04-04T10:13:36.79Z</time></trkpt><trkpt lat="44.2116065" lon="11.389146"><ele>863.0</ele><time>2026-04-04T10:13:37.791Z</time></trkpt><trkpt lat="44.2114838" lon="11.3891042"><ele>863.0</ele><time>2026-04-04T10:13:38.79Z</time></trkpt><trkpt lat="44.211369" lon="11.3890533"><ele>863.0</ele><time>2026-04-04T10:13:39.792Z</time></trkpt><trkpt lat="44.2112547" lon="11.3889953"><ele>862.0</ele><time>2026-04-04T10:13:40.79Z</time></trkpt><trkpt lat="44.2111362" lon="11.3889325"><ele>861.0</ele><time>2026-04-04T10:13:41.789Z</time></trkpt><trkpt lat="44.2110275" lon="11.38888"><ele>860.0</ele><time>2026-04-04T10:13:42.791Z</time></trkpt><trkpt lat="44.2109218" lon="11.38883"><ele>859.0</ele><time>2026-04-04T10:13:43.79Z</time></trkpt><trkpt lat="44.2108125" lon="11.3887765"><ele>859.0</ele><time>2026-04-04T10:13:44.792Z</time></trkpt><trkpt lat="44.2107062" lon="11.3887152"><ele>859.0</ele><time>2026-04-04T10:13:45.791Z</time></trkpt><trkpt lat="44.2106067" lon="11.3886495"><ele>859.0</ele><time>2026-04-04T10:13:46.791Z</time></trkpt><trkpt lat="44.2105013" lon="11.3885672"><ele>859.0</ele><time>2026-04-04T10:13:47.791Z</time></trkpt><trkpt lat="44.2103903" lon="11.3884892"><ele>859.4000000000001</ele><time>2026-04-04T10:13:48.796Z</time></trkpt><trkpt lat="44.2102897" lon="11.3884222"><ele>859.8000000000001</ele><time>2026-04-04T10:13:49.79Z</time></trkpt><trkpt lat="44.2101945" lon="11.3883588"><ele>860.1999999999999</ele><time>2026-04-04T10:13:50.789Z</time></trkpt><trkpt lat="44.210102" lon="11.3883002"><ele>860.5999999999999</ele><time>2026-04-04T10:13:51.789Z</time></trkpt><trkpt lat="44.2099973" lon="11.3882477"><ele>861.0</ele><time>2026-04-04T10:13:52.788Z</time></trkpt><trkpt lat="44.2098818" lon="11.3882053"><ele>862.25</ele><time>2026-04-04T10:13:53.788Z</time></trkpt><trkpt lat="44.2097583" lon="11.3881677"><ele>863.5</ele><time>2026-04-04T10:13:54.788Z</time></trkpt><trkpt lat="44.2096308" lon="11.3881352"><ele>864.75</ele><time>2026-04-04T10:13:55.789Z</time></trkpt><trkpt lat="44.2095013" lon="11.388106"><ele>866.0</ele><time>2026-04-04T10:13:56.789Z</time></trkpt><trkpt lat="44.2093695" lon="11.3880745"><ele>866.0</ele><time>2026-04-04T10:13:57.79Z</time></trkpt><trkpt lat="44.2092392" lon="11.3880397"><ele>866.0</ele><time>2026-04-04T10:13:58.79Z</time></trkpt><trkpt lat="44.2091113" lon="11.3880015"><ele>866.0</ele><time>2026-04-04T10:13:59.79Z</time></trkpt><trkpt lat="44.208984" lon="11.3879687"><ele>866.0</ele><time>2026-04-04T10:14:00.794Z</time></trkpt><trkpt lat="44.2088557" lon="11.3879422"><ele>866.5</ele><time>2026-04-04T10:14:01.79Z</time></trkpt><trkpt lat="44.208726" lon="11.3879255"><ele>867.0</ele><time>2026-04-04T10:14:02.789Z</time></trkpt><trkpt lat="44.2085963" lon="11.3879213"><ele>867.5</ele><time>2026-04-04T10:14:03.79Z</time></trkpt><trkpt lat="44.2084668" lon="11.38793"><ele>868.0</ele><time>2026-04-04T10:14:04.79Z</time></trkpt><trkpt lat="44.2083372" lon="11.3879483"><ele>868.0</ele><time>2026-04-04T10:14:05.791Z</time></trkpt><trkpt lat="44.208206" lon="11.3879662"><ele>868.0</ele><time>2026-04-04T10:14:06.791Z</time></trkpt><trkpt lat="44.2080753" lon="11.3879803"><ele>868.0</ele><time>2026-04-04T10:14:07.791Z</time></trkpt><trkpt lat="44.2079453" lon="11.387998"><ele>868.0</ele><time>2026-04-04T10:14:08.789Z</time></trkpt><trkpt lat="44.207828" lon="11.3880247"><ele>870.5999999999999</ele><time>2026-04-04T10:14:09.792Z</time></trkpt><trkpt lat="44.2077183" lon="11.3880695"><ele>873.1999999999999</ele><time>2026-04-04T10:14:10.79Z</time></trkpt><trkpt lat="44.207616" lon="11.3881353"><ele>875.8</ele><time>2026-04-04T10:14:11.791Z</time></trkpt><trkpt lat="44.2075277" lon="11.3882062"><ele>878.4</ele><time>2026-04-04T10:14:12.793Z</time></trkpt><trkpt lat="44.207446" lon="11.3882468"><ele>881.0</ele><time>2026-04-04T10:14:13.792Z</time></trkpt><trkpt lat="44.2073618" lon="11.3882547"><ele>882.4</ele><time>2026-04-04T10:14:14.791Z</time></trkpt><trkpt lat="44.207277" lon="11.3882382"><ele>883.8</ele><time>2026-04-04T10:14:15.792Z</time></trkpt><trkpt lat="44.2071862" lon="11.3882062"><ele>885.1999999999999</ele><time>2026-04-04T10:14:16.788Z</time></trkpt><trkpt lat="44.2070892" lon="11.3881753"><ele>886.5999999999999</ele><time>2026-04-04T10:14:17.789Z</time></trkpt><trkpt lat="44.2069873" lon="11.3881587"><ele>888.0</ele><time>2026-04-04T10:14:18.788Z</time></trkpt><trkpt lat="44.2068925" lon="11.3881332"><ele>888.0</ele><time>2026-04-04T10:14:19.789Z</time></trkpt><trkpt lat="44.2067987" lon="11.3880955"><ele>888.0</ele><time>2026-04-04T10:14:20.789Z</time></trkpt><trkpt lat="44.2067003" lon="11.3880608"><ele>888.0</ele><time>2026-04-04T10:14:21.791Z</time></trkpt><trkpt lat="44.2065935" lon="11.3880483"><ele>888.0</ele><time>2026-04-04T10:14:22.791Z</time></trkpt><trkpt lat="44.2064697" lon="11.3880505"><ele>888.0</ele><time>2026-04-04T10:14:23.789Z</time></trkpt><trkpt lat="44.2063403" lon="11.3880447"><ele>889.75</ele><time>2026-04-04T10:14:24.789Z</time></trkpt><trkpt lat="44.2062222" lon="11.3880343"><ele>891.5</ele><time>2026-04-04T10:14:25.8Z</time></trkpt><trkpt lat="44.206107" lon="11.3880237"><ele>893.25</ele><time>2026-04-04T10:14:26.791Z</time></trkpt><trkpt lat="44.2059918" lon="11.388"><ele>895.0</ele><time>2026-04-04T10:14:27.789Z</time></trkpt><trkpt lat="44.2058762" lon="11.3879747"><ele>895.0</ele><time>2026-04-04T10:14:28.789Z</time></trkpt><trkpt lat="44.2057705" lon="11.3879572"><ele>895.0</ele><time>2026-04-04T10:14:29.789Z</time></trkpt><trkpt lat="44.2056888" lon="11.3879193"><ele>895.0</ele><time>2026-04-04T10:14:30.79Z</time></trkpt><trkpt lat="44.2056162" lon="11.3878487"><ele>895.0</ele><time>2026-04-04T10:14:31.789Z</time></trkpt><trkpt lat="44.2055452" lon="11.3877768"><ele>895.0</ele><time>2026-04-04T10:14:32.788Z</time></trkpt><trkpt lat="44.2054732" lon="11.387712"><ele>897.8</ele><time>2026-04-04T10:14:33.789Z</time></trkpt><trkpt lat="44.20539" lon="11.387642"><ele>900.6</ele><time>2026-04-04T10:14:34.788Z</time></trkpt><trkpt lat="44.2053023" lon="11.3875708"><ele>903.4000000000001</ele><time>2026-04-04T10:14:35.79Z</time></trkpt><trkpt lat="44.2052107" lon="11.3874903"><ele>906.2</ele><time>2026-04-04T10:14:36.79Z</time></trkpt><trkpt lat="44.2051177" lon="11.387411"><ele>909.0</ele><time>2026-04-04T10:14:37.79Z</time></trkpt><trkpt lat="44.2050278" lon="11.3873408"><ele>909.0</ele><time>2026-04-04T10:14:38.79Z</time></trkpt><trkpt lat="44.2049475" lon="11.3872833"><ele>909.0</ele><time>2026-04-04T10:14:39.802Z</time></trkpt><trkpt lat="44.204879" lon="11.3872427"><ele>909.0</ele><time>2026-04-04T10:14:40.788Z</time></trkpt><trkpt lat="44.2048098" lon="11.3872368"><ele>909.0</ele><time>2026-04-04T10:14:41.787Z</time></trkpt><trkpt lat="44.2047285" lon="11.3872482"><ele>909.0</ele><time>2026-04-04T10:14:42.788Z</time></trkpt><trkpt lat="44.2046542" lon="11.387251"><ele>909.0</ele><time>2026-04-04T10:14:43.789Z</time></trkpt><trkpt lat="44.2045552" lon="11.3871533"><ele>910.8333333333334</ele><time>2026-04-04T10:14:45.791Z</time></trkpt><trkpt lat="44.2045325" lon="11.3870648"><ele>912.6666666666667</ele><time>2026-04-04T10:14:46.79Z</time></trkpt><trkpt lat="44.2044725" lon="11.3869093"><ele>914.5</ele><time>2026-04-04T10:14:48.789Z</time></trkpt><trkpt lat="44.2044253" lon="11.386823"><ele>916.3333333333334</ele><time>2026-04-04T10:14:49.791Z</time></trkpt><trkpt lat="44.2043813" lon="11.3867353"><ele>918.1666666666667</ele><time>2026-04-04T10:14:50.789Z</time></trkpt><trkpt lat="44.2043417" lon="11.3866628"><ele>920.0</ele><time>2026-04-04T10:14:51.789Z</time></trkpt><trkpt lat="44.2042698" lon="11.3865205"><ele>920.0</ele><time>2026-04-04T10:14:53.792Z</time></trkpt><trkpt lat="44.2042357" lon="11.3864462"><ele>920.0</ele><time>2026-04-04T10:14:54.791Z</time></trkpt><trkpt lat="44.2041805" lon="11.3863277"><ele>920.0</ele><time>2026-04-04T10:14:56.79Z</time></trkpt><trkpt lat="44.2041468" lon="11.3862312"><ele>920.0</ele><time>2026-04-04T10:14:58.793Z</time></trkpt><trkpt lat="44.204089" lon="11.3861578"><ele>920.0</ele><time>2026-04-04T10:15:00.79Z</time></trkpt><trkpt lat="44.2039928" lon="11.386025"><ele>920.6666666666667</ele><time>2026-04-04T10:15:02.788Z</time></trkpt><trkpt lat="44.2039337" lon="11.3859543"><ele>921.3333333333334</ele><time>2026-04-04T10:15:03.791Z</time></trkpt><trkpt lat="44.2038698" lon="11.3858937"><ele>922.0</ele><time>2026-04-04T10:15:04.79Z</time></trkpt><trkpt lat="44.2038148" lon="11.385835"><ele>922.6666666666667</ele><time>2026-04-04T10:15:05.789Z</time></trkpt><trkpt lat="44.203734" lon="11.3857165"><ele>923.3333333333334</ele><time>2026-04-04T10:15:07.787Z</time></trkpt><trkpt lat="44.2036727" lon="11.3855935"><ele>924.0</ele><time>2026-04-04T10:15:09.789Z</time></trkpt><trkpt lat="44.203564" lon="11.3854912"><ele>924.2</ele><time>2026-04-04T10:15:11.788Z</time></trkpt><trkpt lat="44.2035072" lon="11.3854348"><ele>924.4000000000001</ele><time>2026-04-04T10:15:12.79Z</time></trkpt><trkpt lat="44.2033993" lon="11.3853852"><ele>924.6</ele><time>2026-04-04T10:15:14.79Z</time></trkpt><trkpt lat="44.203281" lon="11.3853205"><ele>924.8</ele><time>2026-04-04T10:15:16.791Z</time></trkpt><trkpt lat="44.2032368" lon="11.3852565"><ele>925.0</ele><time>2026-04-04T10:15:17.791Z</time></trkpt><trkpt lat="44.2031622" lon="11.3851518"><ele>925.4</ele><time>2026-04-04T10:15:19.789Z</time></trkpt><trkpt lat="44.2030858" lon="11.3850638"><ele>925.8</ele><time>2026-04-04T10:15:21.787Z</time></trkpt><trkpt lat="44.203001" lon="11.384969"><ele>926.2</ele><time>2026-04-04T10:15:23.791Z</time></trkpt><trkpt lat="44.2029088" lon="11.3848997"><ele>926.6</ele><time>2026-04-04T10:15:25.79Z</time></trkpt><trkpt lat="44.2028143" lon="11.3848063"><ele>927.0</ele><time>2026-04-04T10:15:27.789Z</time></trkpt><trkpt lat="44.2027638" lon="11.3847345"><ele>927.5714285714284</ele><time>2026-04-04T10:15:28.789Z</time></trkpt><trkpt lat="44.2027117" lon="11.3846658"><ele>928.1428571428571</ele><time>2026-04-04T10:15:29.788Z</time></trkpt><trkpt lat="44.2026632" lon="11.3845945"><ele>928.7142857142857</ele><time>2026-04-04T10:15:30.788Z</time></trkpt><trkpt lat="44.2026237" lon="11.3845128"><ele>929.2857142857142</ele><time>2026-04-04T10:15:31.788Z</time></trkpt><trkpt lat="44.202595" lon="11.3844315"><ele>929.8571428571429</ele><time>2026-04-04T10:15:32.788Z</time></trkpt><trkpt lat="44.2025438" lon="11.3843102"><ele>930.4285714285714</ele><time>2026-04-04T10:15:34.792Z</time></trkpt><trkpt lat="44.20251" lon="11.384234"><ele>931.0</ele><time>2026-04-04T10:15:35.79Z</time></trkpt><trkpt lat="44.2024748" lon="11.3841467"><ele>930.9999999999999</ele><time>2026-04-04T10:15:36.792Z</time></trkpt><trkpt lat="44.2024375" lon="11.3840528"><ele>931.0</ele><time>2026-04-04T10:15:37.79Z</time></trkpt><trkpt lat="44.2023873" lon="11.383952"><ele>931.0</ele><time>2026-04-04T10:15:38.791Z</time></trkpt><trkpt lat="44.2023353" lon="11.3838727"><ele>931.0</ele><time>2026-04-04T10:15:39.791Z</time></trkpt><trkpt lat="44.2022843" lon="11.3837968"><ele>930.9999999999999</ele><time>2026-04-04T10:15:40.79Z</time></trkpt><trkpt lat="44.2022408" lon="11.383712"><ele>931.0</ele><time>2026-04-04T10:15:41.79Z</time></trkpt><trkpt lat="44.2022085" lon="11.3836115"><ele>931.4285714285714</ele><time>2026-04-04T10:15:42.791Z</time></trkpt><trkpt lat="44.2021697" lon="11.3835227"><ele>931.8571428571429</ele><time>2026-04-04T10:15:43.79Z</time></trkpt><trkpt lat="44.2021295" lon="11.3834385"><ele>932.2857142857142</ele><time>2026-04-04T10:15:44.79Z</time></trkpt><trkpt lat="44.2021047" lon="11.3833472"><ele>932.7142857142857</ele><time>2026-04-04T10:15:45.79Z</time></trkpt><trkpt lat="44.2020823" lon="11.3832515"><ele>933.1428571428571</ele><time>2026-04-04T10:15:46.789Z</time></trkpt><trkpt lat="44.2020482" lon="11.3831722"><ele>933.5714285714284</ele><time>2026-04-04T10:15:47.789Z</time></trkpt><trkpt lat="44.202" lon="11.3831105"><ele>933.9999999999999</ele><time>2026-04-04T10:15:48.791Z</time></trkpt><trkpt lat="44.2019372" lon="11.3830405"><ele>933.9999999999999</ele><time>2026-04-04T10:15:49.789Z</time></trkpt><trkpt lat="44.2018755" lon="11.3829647"><ele>934.0</ele><time>2026-04-04T10:15:50.789Z</time></trkpt><trkpt lat="44.2018172" lon="11.382894"><ele>934.0</ele><time>2026-04-04T10:15:51.789Z</time></trkpt><trkpt lat="44.2017612" lon="11.3828238"><ele>934.0</ele><time>2026-04-04T10:15:52.789Z</time></trkpt><trkpt lat="44.201715" lon="11.3827518"><ele>933.9999999999999</ele><time>2026-04-04T10:15:53.788Z</time></trkpt><trkpt lat="44.201638" lon="11.3826443"><ele>934.0</ele><time>2026-04-04T10:15:55.788Z</time></trkpt><trkpt lat="44.2015747" lon="11.3826023"><ele>934.4000000000001</ele><time>2026-04-04T10:15:57.787Z</time></trkpt><trkpt lat="44.2014867" lon="11.3825292"><ele>934.8000000000001</ele><time>2026-04-04T10:15:59.79Z</time></trkpt><trkpt lat="44.2014027" lon="11.3824047"><ele>935.1999999999999</ele><time>2026-04-04T10:16:01.791Z</time></trkpt><trkpt lat="44.2013418" lon="11.3822847"><ele>935.5999999999999</ele><time>2026-04-04T10:16:03.79Z</time></trkpt><trkpt lat="44.2012808" lon="11.3821555"><ele>936.0</ele><time>2026-04-04T10:16:05.789Z</time></trkpt><trkpt lat="44.2011918" lon="11.3820642"><ele>936.0</ele><time>2026-04-04T10:16:07.79Z</time></trkpt><trkpt lat="44.2010955" lon="11.3819752"><ele>936.0</ele><time>2026-04-04T10:16:09.789Z</time></trkpt><trkpt lat="44.201013" lon="11.3818888"><ele>936.0</ele><time>2026-04-04T10:16:11.79Z</time></trkpt><trkpt lat="44.2009332" lon="11.3817697"><ele>936.0</ele><time>2026-04-04T10:16:13.789Z</time></trkpt><trkpt lat="44.2008353" lon="11.3816625"><ele>936.0</ele><time>2026-04-04T10:16:15.79Z</time></trkpt><trkpt lat="44.2007863" lon="11.3816047"><ele>936.0</ele><time>2026-04-04T10:16:16.789Z</time></trkpt><trkpt lat="44.2007312" lon="11.3815468"><ele>936.0</ele><time>2026-04-04T10:16:17.79Z</time></trkpt><trkpt lat="44.2006672" lon="11.3814855"><ele>936.0</ele><time>2026-04-04T10:16:18.79Z</time></trkpt><trkpt lat="44.2006128" lon="11.3814248"><ele>936.0</ele><time>2026-04-04T10:16:19.787Z</time></trkpt><trkpt lat="44.200521" lon="11.3813235"><ele>936.0</ele><time>2026-04-04T10:16:21.787Z</time></trkpt><trkpt lat="44.2004673" lon="11.3812655"><ele>936.6666666666666</ele><time>2026-04-04T10:16:22.788Z</time></trkpt><trkpt lat="44.2003695" lon="11.3811557"><ele>937.3333333333333</ele><time>2026-04-04T10:16:24.792Z</time></trkpt><trkpt lat="44.200308" lon="11.3810913"><ele>938.0</ele><time>2026-04-04T10:16:25.791Z</time></trkpt><trkpt lat="44.2002497" lon="11.3810297"><ele>938.6666666666666</ele><time>2026-04-04T10:16:26.791Z</time></trkpt><trkpt lat="44.2001918" lon="11.3809623"><ele>939.3333333333333</ele><time>2026-04-04T10:16:27.79Z</time></trkpt><trkpt lat="44.2001357" lon="11.3809003"><ele>940.0</ele><time>2026-04-04T10:16:28.79Z</time></trkpt><trkpt lat="44.2000678" lon="11.3808343"><ele>940.0</ele><time>2026-04-04T10:16:29.789Z</time></trkpt><trkpt lat="44.2000187" lon="11.3807735"><ele>940.0</ele><time>2026-04-04T10:16:30.789Z</time></trkpt><trkpt lat="44.199937" lon="11.3806393"><ele>940.0</ele><time>2026-04-04T10:16:32.79Z</time></trkpt><trkpt lat="44.1998552" lon="11.3804962"><ele>940.0</ele><time>2026-04-04T10:16:34.789Z</time></trkpt><trkpt lat="44.1998175" lon="11.3804147"><ele>940.0</ele><time>2026-04-04T10:16:35.789Z</time></trkpt><trkpt lat="44.1997465" lon="11.3802803"><ele>941.1666666666666</ele><time>2026-04-04T10:16:37.791Z</time></trkpt><trkpt lat="44.1997147" lon="11.3801937"><ele>942.3333333333333</ele><time>2026-04-04T10:16:38.79Z</time></trkpt><trkpt lat="44.1996858" lon="11.3800922"><ele>943.5</ele><time>2026-04-04T10:16:39.789Z</time></trkpt><trkpt lat="44.1996458" lon="11.3799985"><ele>944.6666666666667</ele><time>2026-04-04T10:16:40.79Z</time></trkpt><trkpt lat="44.1996093" lon="11.379922"><ele>945.8333333333334</ele><time>2026-04-04T10:16:41.79Z</time></trkpt><trkpt lat="44.1995657" lon="11.3797898"><ele>947.0</ele><time>2026-04-04T10:16:43.789Z</time></trkpt><trkpt lat="44.1995472" lon="11.3797037"><ele>947.8333333333334</ele><time>2026-04-04T10:16:44.789Z</time></trkpt><trkpt lat="44.1995177" lon="11.3796142"><ele>948.6666666666667</ele><time>2026-04-04T10:16:45.785Z</time></trkpt><trkpt lat="44.1994398" lon="11.3794815"><ele>949.5</ele><time>2026-04-04T10:16:47.789Z</time></trkpt><trkpt lat="44.199408" lon="11.3794002"><ele>950.3333333333333</ele><time>2026-04-04T10:16:48.789Z</time></trkpt><trkpt lat="44.1993805" lon="11.3793173"><ele>951.1666666666666</ele><time>2026-04-04T10:16:49.789Z</time></trkpt><trkpt lat="44.1993315" lon="11.37917"><ele>952.0</ele><time>2026-04-04T10:16:51.791Z</time></trkpt><trkpt lat="44.1993102" lon="11.3790145"><ele>952.0</ele><time>2026-04-04T10:16:53.789Z</time></trkpt><trkpt lat="44.1992703" lon="11.3788915"><ele>952.0</ele><time>2026-04-04T10:16:55.79Z</time></trkpt><trkpt lat="44.1992358" lon="11.3787803"><ele>952.0</ele><time>2026-04-04T10:16:57.79Z</time></trkpt><trkpt lat="44.199212" lon="11.3786807"><ele>952.0</ele><time>2026-04-04T10:16:59.79Z</time></trkpt><trkpt lat="44.1991857" lon="11.3785573"><ele>952.0</ele><time>2026-04-04T10:17:01.791Z</time></trkpt><trkpt lat="44.1991657" lon="11.3784188"><ele>952.4999999999999</ele><time>2026-04-04T10:17:03.789Z</time></trkpt><trkpt lat="44.199136" lon="11.3783235"><ele>953.0</ele><time>2026-04-04T10:17:07.79Z</time></trkpt><trkpt lat="44.1991108" lon="11.378243"><ele>953.5</ele><time>2026-04-04T10:17:11.79Z</time></trkpt><trkpt lat="44.1990738" lon="11.3781537"><ele>954.0</ele><time>2026-04-04T10:17:14.791Z</time></trkpt><trkpt lat="44.1990045" lon="11.3780565"><ele>954.4999999999999</ele><time>2026-04-04T10:17:27.791Z</time></trkpt><trkpt lat="44.1989445" lon="11.3779438"><ele>955.0</ele><time>2026-04-04T10:17:30.791Z</time></trkpt><trkpt lat="44.1988858" lon="11.3778778"><ele>953.8333333333333</ele><time>2026-04-04T10:17:32.788Z</time></trkpt><trkpt lat="44.1988222" lon="11.3778252"><ele>952.6666666666666</ele><time>2026-04-04T10:17:34.788Z</time></trkpt><trkpt lat="44.1987597" lon="11.3777458"><ele>951.5</ele><time>2026-04-04T10:17:36.79Z</time></trkpt><trkpt lat="44.1987133" lon="11.3776328"><ele>950.3333333333333</ele><time>2026-04-04T10:17:38.79Z</time></trkpt><trkpt lat="44.1986653" lon="11.3775432"><ele>949.1666666666666</ele><time>2026-04-04T10:17:40.79Z</time></trkpt><trkpt lat="44.1986143" lon="11.3774698"><ele>948.0</ele><time>2026-04-04T10:17:42.791Z</time></trkpt><trkpt lat="44.198571" lon="11.3773835"><ele>948.0</ele><time>2026-04-04T10:17:44.788Z</time></trkpt><trkpt lat="44.1985088" lon="11.3773115"><ele>948.0</ele><time>2026-04-04T10:17:46.791Z</time></trkpt><trkpt lat="44.1984265" lon="11.3772247"><ele>948.0</ele><time>2026-04-04T10:17:48.79Z</time></trkpt><trkpt lat="44.1983522" lon="11.3771185"><ele>948.0</ele><time>2026-04-04T10:17:50.79Z</time></trkpt><trkpt lat="44.1982868" lon="11.3770152"><ele>948.0</ele><time>2026-04-04T10:17:52.79Z</time></trkpt><trkpt lat="44.1982192" lon="11.376935"><ele>947.8333333333334</ele><time>2026-04-04T10:17:54.79Z</time></trkpt><trkpt lat="44.1981778" lon="11.376833"><ele>947.6666666666667</ele><time>2026-04-04T10:17:56.789Z</time></trkpt><trkpt lat="44.1981503" lon="11.3767395"><ele>947.5</ele><time>2026-04-04T10:17:58.789Z</time></trkpt><trkpt lat="44.1980978" lon="11.3766567"><ele>947.3333333333334</ele><time>2026-04-04T10:18:01.788Z</time></trkpt><trkpt lat="44.1980215" lon="11.376604"><ele>947.1666666666667</ele><time>2026-04-04T10:18:03.789Z</time></trkpt><trkpt lat="44.1979258" lon="11.376565"><ele>947.0</ele><time>2026-04-04T10:18:05.789Z</time></trkpt><trkpt lat="44.197833" lon="11.3765308"><ele>945.8333333333334</ele><time>2026-04-04T10:18:07.79Z</time></trkpt><trkpt lat="44.1977335" lon="11.376509"><ele>944.6666666666667</ele><time>2026-04-04T10:18:09.79Z</time></trkpt><trkpt lat="44.1976307" lon="11.3764812"><ele>943.5</ele><time>2026-04-04T10:18:11.79Z</time></trkpt><trkpt lat="44.1975622" lon="11.3764575"><ele>942.3333333333333</ele><time>2026-04-04T10:18:12.79Z</time></trkpt><trkpt lat="44.1974862" lon="11.376435"><ele>941.1666666666666</ele><time>2026-04-04T10:18:13.789Z</time></trkpt><trkpt lat="44.197418" lon="11.3764155"><ele>940.0</ele><time>2026-04-04T10:18:14.789Z</time></trkpt><trkpt lat="44.1973003" lon="11.37639"><ele>938.2</ele><time>2026-04-04T10:18:16.791Z</time></trkpt><trkpt lat="44.1971932" lon="11.3763933"><ele>936.4</ele><time>2026-04-04T10:18:18.791Z</time></trkpt><trkpt lat="44.1970923" lon="11.3763913"><ele>934.5999999999999</ele><time>2026-04-04T10:18:20.791Z</time></trkpt><trkpt lat="44.1970043" lon="11.3763375"><ele>932.8</ele><time>2026-04-04T10:18:22.788Z</time></trkpt><trkpt lat="44.1969213" lon="11.3762488"><ele>931.0</ele><time>2026-04-04T10:18:24.788Z</time></trkpt><trkpt lat="44.196824" lon="11.3761515"><ele>931.0</ele><time>2026-04-04T10:18:26.789Z</time></trkpt><trkpt lat="44.1967283" lon="11.3760927"><ele>930.9999999999999</ele><time>2026-04-04T10:18:28.791Z</time></trkpt><trkpt lat="44.1966502" lon="11.376028"><ele>930.9999999999999</ele><time>2026-04-04T10:18:30.79Z</time></trkpt><trkpt lat="44.1965603" lon="11.375935"><ele>931.0</ele><time>2026-04-04T10:18:32.79Z</time></trkpt><trkpt lat="44.1964938" lon="11.3758905"><ele>931.0</ele><time>2026-04-04T10:18:33.79Z</time></trkpt><trkpt lat="44.1964177" lon="11.3758597"><ele>932.6666666666666</ele><time>2026-04-04T10:18:34.791Z</time></trkpt><trkpt lat="44.1963408" lon="11.3758502"><ele>934.3333333333333</ele><time>2026-04-04T10:18:35.79Z</time></trkpt><trkpt lat="44.1962693" lon="11.3758493"><ele>936.0</ele><time>2026-04-04T10:18:36.791Z</time></trkpt><trkpt lat="44.1961572" lon="11.3758088"><ele>937.6666666666667</ele><time>2026-04-04T10:18:38.79Z</time></trkpt><trkpt lat="44.1960982" lon="11.37577"><ele>939.3333333333334</ele><time>2026-04-04T10:18:39.791Z</time></trkpt><trkpt lat="44.1960388" lon="11.375739"><ele>941.0</ele><time>2026-04-04T10:18:40.793Z</time></trkpt><trkpt lat="44.1959708" lon="11.3757187"><ele>941.0000000000001</ele><time>2026-04-04T10:18:41.791Z</time></trkpt><trkpt lat="44.1959073" lon="11.3756935"><ele>941.0</ele><time>2026-04-04T10:18:42.79Z</time></trkpt><trkpt lat="44.1958437" lon="11.3756682"><ele>941.0</ele><time>2026-04-04T10:18:43.79Z</time></trkpt><trkpt lat="44.195773" lon="11.3756488"><ele>941.0</ele><time>2026-04-04T10:18:44.789Z</time></trkpt><trkpt lat="44.1956935" lon="11.375645"><ele>941.0000000000001</ele><time>2026-04-04T10:18:45.79Z</time></trkpt><trkpt lat="44.1956048" lon="11.3756493"><ele>941.0</ele><time>2026-04-04T10:18:46.787Z</time></trkpt><trkpt lat="44.1955197" lon="11.3756408"><ele>941.1666666666667</ele><time>2026-04-04T10:18:47.787Z</time></trkpt><trkpt lat="44.1954333" lon="11.3756098"><ele>941.3333333333334</ele><time>2026-04-04T10:18:48.788Z</time></trkpt><trkpt lat="44.195349" lon="11.3755707"><ele>941.5</ele><time>2026-04-04T10:18:49.798Z</time></trkpt><trkpt lat="44.1952658" lon="11.3755373"><ele>941.6666666666667</ele><time>2026-04-04T10:18:50.788Z</time></trkpt><trkpt lat="44.1951867" lon="11.3755068"><ele>941.8333333333334</ele><time>2026-04-04T10:18:51.788Z</time></trkpt><trkpt lat="44.1951083" lon="11.3754823"><ele>942.0</ele><time>2026-04-04T10:18:52.789Z</time></trkpt><trkpt lat="44.1950378" lon="11.3754605"><ele>942.0</ele><time>2026-04-04T10:18:53.789Z</time></trkpt><trkpt lat="44.1949377" lon="11.375402"><ele>942.0</ele><time>2026-04-04T10:18:55.79Z</time></trkpt><trkpt lat="44.1948657" lon="11.3752582"><ele>942.0</ele><time>2026-04-04T10:18:57.791Z</time></trkpt><trkpt lat="44.1948255" lon="11.3751883"><ele>942.0</ele><time>2026-04-04T10:18:58.79Z</time></trkpt><trkpt lat="44.1947527" lon="11.3750557"><ele>942.0</ele><time>2026-04-04T10:19:00.79Z</time></trkpt><trkpt lat="44.194724" lon="11.3749712"><ele>941.5</ele><time>2026-04-04T10:19:01.789Z</time></trkpt><trkpt lat="44.1946972" lon="11.3748827"><ele>941.0</ele><time>2026-04-04T10:19:02.79Z</time></trkpt><trkpt lat="44.1946702" lon="11.3747995"><ele>940.5</ele><time>2026-04-04T10:19:03.789Z</time></trkpt><trkpt lat="44.1946107" lon="11.3746447"><ele>940.0</ele><time>2026-04-04T10:19:05.788Z</time></trkpt><trkpt lat="44.1945693" lon="11.3745717"><ele>939.5</ele><time>2026-04-04T10:19:06.789Z</time></trkpt><trkpt lat="44.1945212" lon="11.3744995"><ele>939.0</ele><time>2026-04-04T10:19:07.789Z</time></trkpt><trkpt lat="44.1944718" lon="11.3744283"><ele>939.0</ele><time>2026-04-04T10:19:08.788Z</time></trkpt><trkpt lat="44.194422" lon="11.3743503"><ele>939.0</ele><time>2026-04-04T10:19:09.789Z</time></trkpt><trkpt lat="44.194367" lon="11.3742763"><ele>939.0</ele><time>2026-04-04T10:19:10.788Z</time></trkpt><trkpt lat="44.1943078" lon="11.374217"><ele>939.0</ele><time>2026-04-04T10:19:11.786Z</time></trkpt><trkpt lat="44.1942493" lon="11.374165"><ele>939.0</ele><time>2026-04-04T10:19:12.791Z</time></trkpt><trkpt lat="44.1942003" lon="11.3741062"><ele>939.0</ele><time>2026-04-04T10:19:13.788Z</time></trkpt><trkpt lat="44.1941317" lon="11.373976"><ele>937.6666666666666</ele><time>2026-04-04T10:19:15.791Z</time></trkpt><trkpt lat="44.1940693" lon="11.3738063"><ele>936.3333333333333</ele><time>2026-04-04T10:19:17.789Z</time></trkpt><trkpt lat="44.194032" lon="11.373702"><ele>935.0</ele><time>2026-04-04T10:19:18.788Z</time></trkpt><trkpt lat="44.1939867" lon="11.3736085"><ele>933.6666666666666</ele><time>2026-04-04T10:19:19.789Z</time></trkpt><trkpt lat="44.1939312" lon="11.3735385"><ele>932.3333333333333</ele><time>2026-04-04T10:19:20.789Z</time></trkpt><trkpt lat="44.1938755" lon="11.3734828"><ele>931.0</ele><time>2026-04-04T10:19:21.788Z</time></trkpt><trkpt lat="44.1938287" lon="11.3734207"><ele>930.1666666666666</ele><time>2026-04-04T10:19:22.789Z</time></trkpt><trkpt lat="44.193786" lon="11.3733442"><ele>929.3333333333333</ele><time>2026-04-04T10:19:23.789Z</time></trkpt><trkpt lat="44.193736" lon="11.3732618"><ele>928.5</ele><time>2026-04-04T10:19:24.79Z</time></trkpt><trkpt lat="44.1936793" lon="11.3731967"><ele>927.6666666666667</ele><time>2026-04-04T10:19:25.789Z</time></trkpt><trkpt lat="44.1936205" lon="11.373146"><ele>926.8333333333334</ele><time>2026-04-04T10:19:26.789Z</time></trkpt><trkpt lat="44.1935395" lon="11.3730492"><ele>926.0</ele><time>2026-04-04T10:19:28.79Z</time></trkpt><trkpt lat="44.1934412" lon="11.3729368"><ele>926.0</ele><time>2026-04-04T10:19:30.79Z</time></trkpt><trkpt lat="44.1933862" lon="11.3728723"><ele>925.9999999999999</ele><time>2026-04-04T10:19:31.789Z</time></trkpt><trkpt lat="44.1933145" lon="11.372806"><ele>925.9999999999999</ele><time>2026-04-04T10:19:32.789Z</time></trkpt><trkpt lat="44.1932302" lon="11.3727335"><ele>926.0</ele><time>2026-04-04T10:19:33.789Z</time></trkpt><trkpt lat="44.1931457" lon="11.3726562"><ele>926.0</ele><time>2026-04-04T10:19:34.788Z</time></trkpt><trkpt lat="44.1930735" lon="11.3725713"><ele>926.0000000000001</ele><time>2026-04-04T10:19:35.787Z</time></trkpt><trkpt lat="44.1930148" lon="11.3724847"><ele>926.0</ele><time>2026-04-04T10:19:36.787Z</time></trkpt><trkpt lat="44.1929508" lon="11.3724108"><ele>926.0</ele><time>2026-04-04T10:19:37.787Z</time></trkpt><trkpt lat="44.1928865" lon="11.3723455"><ele>926.0</ele><time>2026-04-04T10:19:38.788Z</time></trkpt><trkpt lat="44.192834" lon="11.3722797"><ele>926.0000000000001</ele><time>2026-04-04T10:19:39.79Z</time></trkpt><trkpt lat="44.192779" lon="11.372213"><ele>926.0</ele><time>2026-04-04T10:19:40.789Z</time></trkpt><trkpt lat="44.1927123" lon="11.3721442"><ele>926.0000000000001</ele><time>2026-04-04T10:19:41.789Z</time></trkpt><trkpt lat="44.1926438" lon="11.3720683"><ele>926.0</ele><time>2026-04-04T10:19:42.788Z</time></trkpt><trkpt lat="44.1925827" lon="11.3719848"><ele>926.0</ele><time>2026-04-04T10:19:43.788Z</time></trkpt><trkpt lat="44.1925233" lon="11.3718903"><ele>926.0</ele><time>2026-04-04T10:19:44.789Z</time></trkpt><trkpt lat="44.1924647" lon="11.3717975"><ele>926.0000000000001</ele><time>2026-04-04T10:19:45.788Z</time></trkpt><trkpt lat="44.1924102" lon="11.3717063"><ele>926.0</ele><time>2026-04-04T10:19:46.788Z</time></trkpt><trkpt lat="44.192358" lon="11.3716112"><ele>923.5000000000001</ele><time>2026-04-04T10:19:47.789Z</time></trkpt><trkpt lat="44.1923118" lon="11.3715178"><ele>921.0</ele><time>2026-04-04T10:19:48.79Z</time></trkpt><trkpt lat="44.1922685" lon="11.3714257"><ele>918.5</ele><time>2026-04-04T10:19:49.789Z</time></trkpt><trkpt lat="44.1922255" lon="11.3713347"><ele>916.0</ele><time>2026-04-04T10:19:50.789Z</time></trkpt><trkpt lat="44.1921813" lon="11.371246"><ele>913.5000000000001</ele><time>2026-04-04T10:19:51.79Z</time></trkpt><trkpt lat="44.1921283" lon="11.3711612"><ele>911.0</ele><time>2026-04-04T10:19:52.789Z</time></trkpt><trkpt lat="44.1920738" lon="11.3710802"><ele>911.0000000000001</ele><time>2026-04-04T10:19:53.788Z</time></trkpt><trkpt lat="44.192027" lon="11.3709993"><ele>911.0</ele><time>2026-04-04T10:19:54.789Z</time></trkpt><trkpt lat="44.1919855" lon="11.370909"><ele>911.0</ele><time>2026-04-04T10:19:55.789Z</time></trkpt><trkpt lat="44.1919487" lon="11.3708103"><ele>911.0</ele><time>2026-04-04T10:19:56.788Z</time></trkpt><trkpt lat="44.1919153" lon="11.3707047"><ele>911.0000000000001</ele><time>2026-04-04T10:19:57.788Z</time></trkpt><trkpt lat="44.1918823" lon="11.370601"><ele>911.0</ele><time>2026-04-04T10:19:58.79Z</time></trkpt><trkpt lat="44.1918488" lon="11.3705075"><ele>911.4285714285714</ele><time>2026-04-04T10:19:59.787Z</time></trkpt><trkpt lat="44.1918155" lon="11.3704235"><ele>911.8571428571429</ele><time>2026-04-04T10:20:00.786Z</time></trkpt><trkpt lat="44.1917813" lon="11.370349"><ele>912.2857142857143</ele><time>2026-04-04T10:20:01.787Z</time></trkpt><trkpt lat="44.1917433" lon="11.370276"><ele>912.7142857142858</ele><time>2026-04-04T10:20:02.787Z</time></trkpt><trkpt lat="44.1916938" lon="11.3702138"><ele>913.1428571428571</ele><time>2026-04-04T10:20:03.788Z</time></trkpt><trkpt lat="44.1916362" lon="11.3701707"><ele>913.5714285714287</ele><time>2026-04-04T10:20:04.789Z</time></trkpt><trkpt lat="44.1915755" lon="11.3701277"><ele>914.0000000000001</ele><time>2026-04-04T10:20:05.789Z</time></trkpt><trkpt lat="44.191517" lon="11.370065"><ele>912.3333333333334</ele><time>2026-04-04T10:20:06.789Z</time></trkpt><trkpt lat="44.1914628" lon="11.3699853"><ele>910.6666666666667</ele><time>2026-04-04T10:20:07.788Z</time></trkpt><trkpt lat="44.1914115" lon="11.369901"><ele>909.0</ele><time>2026-04-04T10:20:08.788Z</time></trkpt><trkpt lat="44.1913643" lon="11.3698222"><ele>907.3333333333333</ele><time>2026-04-04T10:20:09.789Z</time></trkpt><trkpt lat="44.1913222" lon="11.369749"><ele>905.6666666666666</ele><time>2026-04-04T10:20:10.79Z</time></trkpt><trkpt lat="44.191241" lon="11.3696335"><ele>904.0</ele><time>2026-04-04T10:20:12.788Z</time></trkpt><trkpt lat="44.1911565" lon="11.3695107"><ele>904.0</ele><time>2026-04-04T10:20:14.788Z</time></trkpt><trkpt lat="44.1911103" lon="11.3694368"><ele>904.0</ele><time>2026-04-04T10:20:15.789Z</time></trkpt><trkpt lat="44.1910597" lon="11.369359"><ele>904.0</ele><time>2026-04-04T10:20:16.789Z</time></trkpt><trkpt lat="44.1910082" lon="11.3692755"><ele>904.0</ele><time>2026-04-04T10:20:17.789Z</time></trkpt><trkpt lat="44.1909588" lon="11.36919"><ele>904.0</ele><time>2026-04-04T10:20:18.789Z</time></trkpt><trkpt lat="44.190914" lon="11.3691082"><ele>904.0</ele><time>2026-04-04T10:20:19.789Z</time></trkpt><trkpt lat="44.1908728" lon="11.369028"><ele>904.0</ele><time>2026-04-04T10:20:20.789Z</time></trkpt><trkpt lat="44.1908288" lon="11.3689502"><ele>904.0</ele><time>2026-04-04T10:20:21.79Z</time></trkpt><trkpt lat="44.1907872" lon="11.3688772"><ele>904.0000000000001</ele><time>2026-04-04T10:20:22.789Z</time></trkpt><trkpt lat="44.1907467" lon="11.3688065"><ele>904.0000000000001</ele><time>2026-04-04T10:20:23.788Z</time></trkpt><trkpt lat="44.190674" lon="11.3686872"><ele>904.0</ele><time>2026-04-04T10:20:25.785Z</time></trkpt><trkpt lat="44.1905843" lon="11.368606"><ele>904.0</ele><time>2026-04-04T10:20:27.788Z</time></trkpt><trkpt lat="44.1904857" lon="11.3685115"><ele>901.2</ele><time>2026-04-04T10:20:29.788Z</time></trkpt><trkpt lat="44.1903925" lon="11.3684128"><ele>898.4000000000001</ele><time>2026-04-04T10:20:31.789Z</time></trkpt><trkpt lat="44.1903022" lon="11.3683707"><ele>895.6</ele><time>2026-04-04T10:20:33.788Z</time></trkpt><trkpt lat="44.1902113" lon="11.3683298"><ele>892.8</ele><time>2026-04-04T10:20:35.79Z</time></trkpt><trkpt lat="44.190139" lon="11.3682948"><ele>890.0</ele><time>2026-04-04T10:20:37.789Z</time></trkpt><trkpt lat="44.1900608" lon="11.3682748"><ele>890.0000000000001</ele><time>2026-04-04T10:20:39.788Z</time></trkpt><trkpt lat="44.1899882" lon="11.3682485"><ele>890.0</ele><time>2026-04-04T10:20:42.788Z</time></trkpt><trkpt lat="44.1899032" lon="11.3682097"><ele>890.0</ele><time>2026-04-04T10:20:44.789Z</time></trkpt><trkpt lat="44.1897958" lon="11.3681205"><ele>890.0</ele><time>2026-04-04T10:20:46.79Z</time></trkpt><trkpt lat="44.1897358" lon="11.3680655"><ele>890.0000000000001</ele><time>2026-04-04T10:20:47.787Z</time></trkpt><trkpt lat="44.189666" lon="11.3680182"><ele>890.0</ele><time>2026-04-04T10:20:48.787Z</time></trkpt><trkpt lat="44.189598" lon="11.3679868"><ele>888.8</ele><time>2026-04-04T10:20:49.786Z</time></trkpt><trkpt lat="44.189535" lon="11.3679668"><ele>887.6</ele><time>2026-04-04T10:20:50.786Z</time></trkpt><trkpt lat="44.1894397" lon="11.3678995"><ele>886.4000000000001</ele><time>2026-04-04T10:20:52.789Z</time></trkpt><trkpt lat="44.1893512" lon="11.3678205"><ele>885.2</ele><time>2026-04-04T10:20:54.788Z</time></trkpt><trkpt lat="44.1892335" lon="11.3677853"><ele>884.0</ele><time>2026-04-04T10:20:56.788Z</time></trkpt><trkpt lat="44.1891187" lon="11.367782"><ele>884.0</ele><time>2026-04-04T10:20:58.79Z</time></trkpt><trkpt lat="44.1890408" lon="11.3677205"><ele>884.0000000000001</ele><time>2026-04-04T10:21:00.789Z</time></trkpt><trkpt lat="44.1889563" lon="11.367631"><ele>884.0000000000001</ele><time>2026-04-04T10:21:02.79Z</time></trkpt><trkpt lat="44.188906" lon="11.3675755"><ele>884.0</ele><time>2026-04-04T10:21:03.79Z</time></trkpt><trkpt lat="44.188813" lon="11.367481"><ele>884.0</ele><time>2026-04-04T10:21:05.79Z</time></trkpt><trkpt lat="44.188757" lon="11.367371"><ele>884.4000000000001</ele><time>2026-04-04T10:21:07.789Z</time></trkpt><trkpt lat="44.1887005" lon="11.3672618"><ele>884.8000000000001</ele><time>2026-04-04T10:21:09.789Z</time></trkpt><trkpt lat="44.188649" lon="11.3671482"><ele>885.1999999999999</ele><time>2026-04-04T10:21:11.79Z</time></trkpt><trkpt lat="44.1885707" lon="11.3670768"><ele>885.5999999999999</ele><time>2026-04-04T10:21:13.787Z</time></trkpt><trkpt lat="44.1884873" lon="11.366994"><ele>886.0</ele><time>2026-04-04T10:21:15.788Z</time></trkpt><trkpt lat="44.1883872" lon="11.3669228"><ele>885.9999999999999</ele><time>2026-04-04T10:21:17.791Z</time></trkpt><trkpt lat="44.1883252" lon="11.3668937"><ele>886.0</ele><time>2026-04-04T10:21:18.79Z</time></trkpt><trkpt lat="44.1882588" lon="11.3668768"><ele>886.0</ele><time>2026-04-04T10:21:19.803Z</time></trkpt><trkpt lat="44.1881885" lon="11.3668745"><ele>886.0</ele><time>2026-04-04T10:21:20.789Z</time></trkpt><trkpt lat="44.1881235" lon="11.3668793"><ele>885.9999999999999</ele><time>2026-04-04T10:21:21.79Z</time></trkpt><trkpt lat="44.1880585" lon="11.3668785"><ele>886.0</ele><time>2026-04-04T10:21:22.79Z</time></trkpt><trkpt lat="44.1879487" lon="11.3667953"><ele>885.8</ele><time>2026-04-04T10:21:24.79Z</time></trkpt><trkpt lat="44.187869" lon="11.3666965"><ele>885.5999999999999</ele><time>2026-04-04T10:21:26.79Z</time></trkpt><trkpt lat="44.1878142" lon="11.3665987"><ele>885.4</ele><time>2026-04-04T10:21:28.789Z</time></trkpt><trkpt lat="44.1877608" lon="11.3665367"><ele>885.2</ele><time>2026-04-04T10:21:29.789Z</time></trkpt><trkpt lat="44.1876935" lon="11.3664537"><ele>885.0</ele><time>2026-04-04T10:21:30.791Z</time></trkpt><trkpt lat="44.1876175" lon="11.366345"><ele>886.3333333333334</ele><time>2026-04-04T10:21:31.789Z</time></trkpt><trkpt lat="44.1875423" lon="11.3662278"><ele>887.6666666666667</ele><time>2026-04-04T10:21:32.787Z</time></trkpt><trkpt lat="44.1874745" lon="11.3661383"><ele>889.0</ele><time>2026-04-04T10:21:33.79Z</time></trkpt><trkpt lat="44.1874073" lon="11.3660827"><ele>890.3333333333334</ele><time>2026-04-04T10:21:34.791Z</time></trkpt><trkpt lat="44.1873358" lon="11.3660473"><ele>891.6666666666667</ele><time>2026-04-04T10:21:35.789Z</time></trkpt><trkpt lat="44.1872645" lon="11.3660143"><ele>893.0</ele><time>2026-04-04T10:21:36.79Z</time></trkpt><trkpt lat="44.1872007" lon="11.3659812"><ele>893.0</ele><time>2026-04-04T10:21:37.787Z</time></trkpt><trkpt lat="44.1871397" lon="11.3659325"><ele>893.0</ele><time>2026-04-04T10:21:38.786Z</time></trkpt><trkpt lat="44.1870735" lon="11.3658808"><ele>893.0</ele><time>2026-04-04T10:21:39.787Z</time></trkpt><trkpt lat="44.187004" lon="11.3658428"><ele>893.0</ele><time>2026-04-04T10:21:40.786Z</time></trkpt><trkpt lat="44.1869408" lon="11.3658062"><ele>893.0</ele><time>2026-04-04T10:21:41.789Z</time></trkpt><trkpt lat="44.1868805" lon="11.3657627"><ele>893.0</ele><time>2026-04-04T10:21:42.789Z</time></trkpt><trkpt lat="44.186821" lon="11.365723"><ele>893.0</ele><time>2026-04-04T10:21:43.79Z</time></trkpt><trkpt lat="44.186757" lon="11.365694"><ele>893.0000000000001</ele><time>2026-04-04T10:21:44.788Z</time></trkpt><trkpt lat="44.1866872" lon="11.3656703"><ele>893.0</ele><time>2026-04-04T10:21:45.789Z</time></trkpt><trkpt lat="44.1866173" lon="11.365632"><ele>893.0</ele><time>2026-04-04T10:21:46.789Z</time></trkpt><trkpt lat="44.1865595" lon="11.365574"><ele>893.0</ele><time>2026-04-04T10:21:47.789Z</time></trkpt><trkpt lat="44.1864887" lon="11.3654308"><ele>893.0000000000001</ele><time>2026-04-04T10:21:49.789Z</time></trkpt><trkpt lat="44.1864552" lon="11.3653473"><ele>893.0</ele><time>2026-04-04T10:21:50.79Z</time></trkpt><trkpt lat="44.1864188" lon="11.3652673"><ele>892.5000000000001</ele><time>2026-04-04T10:21:51.791Z</time></trkpt><trkpt lat="44.1863855" lon="11.3651817"><ele>892.0</ele><time>2026-04-04T10:21:52.79Z</time></trkpt><trkpt lat="44.1863472" lon="11.3650892"><ele>891.5</ele><time>2026-04-04T10:21:53.79Z</time></trkpt><trkpt lat="44.1863073" lon="11.3649963"><ele>891.0</ele><time>2026-04-04T10:21:54.79Z</time></trkpt><trkpt lat="44.1862635" lon="11.3649122"><ele>890.5000000000001</ele><time>2026-04-04T10:21:55.79Z</time></trkpt><trkpt lat="44.186222" lon="11.3648233"><ele>890.0</ele><time>2026-04-04T10:21:56.789Z</time></trkpt><trkpt lat="44.18619" lon="11.3647227"><ele>891.0000000000001</ele><time>2026-04-04T10:21:57.79Z</time></trkpt><trkpt lat="44.1861587" lon="11.3646207"><ele>892.0</ele><time>2026-04-04T10:21:58.79Z</time></trkpt><trkpt lat="44.1861165" lon="11.3645302"><ele>893.0</ele><time>2026-04-04T10:21:59.788Z</time></trkpt><trkpt lat="44.186068" lon="11.3644577"><ele>894.0</ele><time>2026-04-04T10:22:00.789Z</time></trkpt><trkpt lat="44.1860152" lon="11.3643962"><ele>895.0000000000001</ele><time>2026-04-04T10:22:01.789Z</time></trkpt><trkpt lat="44.1859497" lon="11.3643432"><ele>896.0</ele><time>2026-04-04T10:22:02.786Z</time></trkpt><trkpt lat="44.1858773" lon="11.3642872"><ele>896.0</ele><time>2026-04-04T10:22:03.787Z</time></trkpt><trkpt lat="44.1858043" lon="11.3642252"><ele>895.9999999999999</ele><time>2026-04-04T10:22:04.787Z</time></trkpt><trkpt lat="44.1857302" lon="11.3641553"><ele>895.9999999999999</ele><time>2026-04-04T10:22:05.787Z</time></trkpt><trkpt lat="44.1856487" lon="11.364081"><ele>896.0</ele><time>2026-04-04T10:22:06.79Z</time></trkpt><trkpt lat="44.1855742" lon="11.3640025"><ele>896.0</ele><time>2026-04-04T10:22:07.789Z</time></trkpt><trkpt lat="44.1855077" lon="11.363931"><ele>896.5000000000001</ele><time>2026-04-04T10:22:08.789Z</time></trkpt><trkpt lat="44.1854468" lon="11.3638677"><ele>897.0</ele><time>2026-04-04T10:22:09.789Z</time></trkpt><trkpt lat="44.1853912" lon="11.3638008"><ele>897.5</ele><time>2026-04-04T10:22:10.788Z</time></trkpt><trkpt lat="44.1853413" lon="11.363744"><ele>898.0</ele><time>2026-04-04T10:22:11.789Z</time></trkpt><trkpt lat="44.1852503" lon="11.3636292"><ele>898.5000000000001</ele><time>2026-04-04T10:22:13.788Z</time></trkpt><trkpt lat="44.1851918" lon="11.3635775"><ele>899.0</ele><time>2026-04-04T10:22:14.791Z</time></trkpt><trkpt lat="44.1851222" lon="11.3635162"><ele>899.0000000000001</ele><time>2026-04-04T10:22:15.79Z</time></trkpt><trkpt lat="44.1850563" lon="11.3634428"><ele>899.0</ele><time>2026-04-04T10:22:16.789Z</time></trkpt><trkpt lat="44.184993" lon="11.3633772"><ele>899.0</ele><time>2026-04-04T10:22:17.789Z</time></trkpt><trkpt lat="44.1849415" lon="11.3633192"><ele>899.0</ele><time>2026-04-04T10:22:18.79Z</time></trkpt><trkpt lat="44.1849113" lon="11.3632017"><ele>899.0000000000001</ele><time>2026-04-04T10:22:20.789Z</time></trkpt><trkpt lat="44.184915" lon="11.3630493"><ele>899.0</ele><time>2026-04-04T10:22:22.789Z</time></trkpt><trkpt lat="44.1848868" lon="11.3629278"><ele>899.4000000000001</ele><time>2026-04-04T10:22:24.79Z</time></trkpt><trkpt lat="44.1848472" lon="11.3627967"><ele>899.8000000000001</ele><time>2026-04-04T10:22:26.788Z</time></trkpt><trkpt lat="44.1848405" lon="11.3626627"><ele>900.1999999999999</ele><time>2026-04-04T10:22:28.788Z</time></trkpt><trkpt lat="44.1848245" lon="11.3624852"><ele>900.5999999999999</ele><time>2026-04-04T10:22:30.787Z</time></trkpt><trkpt lat="44.1848113" lon="11.3623832"><ele>901.0</ele><time>2026-04-04T10:22:31.788Z</time></trkpt><trkpt lat="44.1847922" lon="11.3622773"><ele>905.3333333333333</ele><time>2026-04-04T10:22:32.787Z</time></trkpt><trkpt lat="44.1847698" lon="11.3621677"><ele>909.6666666666666</ele><time>2026-04-04T10:22:33.787Z</time></trkpt><trkpt lat="44.1847483" lon="11.3620545"><ele>914.0</ele><time>2026-04-04T10:22:34.789Z</time></trkpt><trkpt lat="44.1847302" lon="11.3619363"><ele>918.3333333333333</ele><time>2026-04-04T10:22:35.788Z</time></trkpt><trkpt lat="44.1847117" lon="11.3618137"><ele>922.6666666666666</ele><time>2026-04-04T10:22:36.787Z</time></trkpt><trkpt lat="44.1846932" lon="11.3616875"><ele>927.0</ele><time>2026-04-04T10:22:37.787Z</time></trkpt><trkpt lat="44.1846807" lon="11.3615558"><ele>927.0</ele><time>2026-04-04T10:22:38.786Z</time></trkpt><trkpt lat="44.184678" lon="11.3614178"><ele>927.0</ele><time>2026-04-04T10:22:39.785Z</time></trkpt><trkpt lat="44.1846817" lon="11.3612755"><ele>927.0</ele><time>2026-04-04T10:22:40.785Z</time></trkpt><trkpt lat="44.1846918" lon="11.361133"><ele>927.0</ele><time>2026-04-04T10:22:41.784Z</time></trkpt><trkpt lat="44.1847102" lon="11.3609918"><ele>927.0</ele><time>2026-04-04T10:22:42.785Z</time></trkpt><trkpt lat="44.1847303" lon="11.360852"><ele>929.2</ele><time>2026-04-04T10:22:43.789Z</time></trkpt><trkpt lat="44.1847532" lon="11.360718"><ele>931.4000000000001</ele><time>2026-04-04T10:22:44.784Z</time></trkpt><trkpt lat="44.1847808" lon="11.3605848"><ele>933.5999999999999</ele><time>2026-04-04T10:22:45.785Z</time></trkpt><trkpt lat="44.1848087" lon="11.3604475"><ele>935.8</ele><time>2026-04-04T10:22:46.785Z</time></trkpt><trkpt lat="44.1848363" lon="11.3603067"><ele>938.0</ele><time>2026-04-04T10:22:47.785Z</time></trkpt><trkpt lat="44.1848653" lon="11.360164"><ele>932.8</ele><time>2026-04-04T10:22:48.787Z</time></trkpt><trkpt lat="44.1848945" lon="11.3600217"><ele>927.5999999999999</ele><time>2026-04-04T10:22:49.787Z</time></trkpt><trkpt lat="44.1849248" lon="11.3598807"><ele>922.4000000000001</ele><time>2026-04-04T10:22:50.786Z</time></trkpt><trkpt lat="44.1849547" lon="11.359739"><ele>917.2</ele><time>2026-04-04T10:22:51.784Z</time></trkpt><trkpt lat="44.1849843" lon="11.3595962"><ele>912.0</ele><time>2026-04-04T10:22:52.784Z</time></trkpt><trkpt lat="44.1850123" lon="11.3594532"><ele>912.0</ele><time>2026-04-04T10:22:53.785Z</time></trkpt><trkpt lat="44.1850378" lon="11.3593093"><ele>912.0</ele><time>2026-04-04T10:22:54.784Z</time></trkpt><trkpt lat="44.1850612" lon="11.3591657"><ele>912.0</ele><time>2026-04-04T10:22:55.787Z</time></trkpt><trkpt lat="44.1850843" lon="11.359023"><ele>912.0</ele><time>2026-04-04T10:22:56.785Z</time></trkpt><trkpt lat="44.1851093" lon="11.3588815"><ele>912.0</ele><time>2026-04-04T10:22:57.786Z</time></trkpt><trkpt lat="44.18513" lon="11.3587402"><ele>913.4000000000001</ele><time>2026-04-04T10:22:58.787Z</time></trkpt><trkpt lat="44.1851462" lon="11.3585982"><ele>914.8000000000001</ele><time>2026-04-04T10:22:59.785Z</time></trkpt><trkpt lat="44.1851593" lon="11.3584533"><ele>916.2</ele><time>2026-04-04T10:23:00.786Z</time></trkpt><trkpt lat="44.1851683" lon="11.3583063"><ele>917.6</ele><time>2026-04-04T10:23:01.786Z</time></trkpt><trkpt lat="44.1851723" lon="11.3581625"><ele>919.0</ele><time>2026-04-04T10:23:02.785Z</time></trkpt><trkpt lat="44.185177" lon="11.3580232"><ele>920.0</ele><time>2026-04-04T10:23:03.785Z</time></trkpt><trkpt lat="44.1851987" lon="11.3578938"><ele>921.0000000000001</ele><time>2026-04-04T10:23:04.787Z</time></trkpt><trkpt lat="44.1852433" lon="11.3577733"><ele>922.0000000000001</ele><time>2026-04-04T10:23:05.788Z</time></trkpt><trkpt lat="44.1853103" lon="11.357675"><ele>923.0</ele><time>2026-04-04T10:23:06.787Z</time></trkpt><trkpt lat="44.1853957" lon="11.3576"><ele>924.0</ele><time>2026-04-04T10:23:07.788Z</time></trkpt><trkpt lat="44.185487" lon="11.3575325"><ele>924.0</ele><time>2026-04-04T10:23:08.787Z</time></trkpt><trkpt lat="44.1855652" lon="11.3574493"><ele>924.0000000000001</ele><time>2026-04-04T10:23:09.791Z</time></trkpt><trkpt lat="44.1856227" lon="11.3573385"><ele>924.0000000000001</ele><time>2026-04-04T10:23:10.787Z</time></trkpt><trkpt lat="44.1856572" lon="11.3572077"><ele>924.0</ele><time>2026-04-04T10:23:11.785Z</time></trkpt><trkpt lat="44.185671" lon="11.357066"><ele>924.0</ele><time>2026-04-04T10:23:12.787Z</time></trkpt><trkpt lat="44.185669" lon="11.3569192"><ele>923.2</ele><time>2026-04-04T10:23:13.787Z</time></trkpt><trkpt lat="44.1856512" lon="11.3567725"><ele>922.4000000000001</ele><time>2026-04-04T10:23:14.787Z</time></trkpt><trkpt lat="44.1856148" lon="11.3566302"><ele>921.6</ele><time>2026-04-04T10:23:15.787Z</time></trkpt><trkpt lat="44.1855662" lon="11.356493"><ele>920.8</ele><time>2026-04-04T10:23:16.787Z</time></trkpt><trkpt lat="44.1855083" lon="11.3563647"><ele>920.0</ele><time>2026-04-04T10:23:17.787Z</time></trkpt><trkpt lat="44.185444" lon="11.3562495"><ele>917.8</ele><time>2026-04-04T10:23:18.787Z</time></trkpt><trkpt lat="44.18537" lon="11.3561412"><ele>915.6</ele><time>2026-04-04T10:23:19.788Z</time></trkpt><trkpt lat="44.1852875" lon="11.3560387"><ele>913.4000000000001</ele><time>2026-04-04T10:23:20.787Z</time></trkpt><trkpt lat="44.1851958" lon="11.355947"><ele>911.2</ele><time>2026-04-04T10:23:21.791Z</time></trkpt><trkpt lat="44.1851033" lon="11.3558618"><ele>909.0</ele><time>2026-04-04T10:23:22.789Z</time></trkpt><trkpt lat="44.1850103" lon="11.3557802"><ele>909.0</ele><time>2026-04-04T10:23:23.789Z</time></trkpt><trkpt lat="44.1849142" lon="11.3557005"><ele>909.0</ele><time>2026-04-04T10:23:24.788Z</time></trkpt><trkpt lat="44.1848173" lon="11.355616"><ele>909.0</ele><time>2026-04-04T10:23:25.79Z</time></trkpt><trkpt lat="44.1847195" lon="11.3555292"><ele>909.0</ele><time>2026-04-04T10:23:26.789Z</time></trkpt><trkpt lat="44.1846243" lon="11.355445"><ele>908.6</ele><time>2026-04-04T10:23:27.79Z</time></trkpt><trkpt lat="44.1845358" lon="11.3553535"><ele>908.2</ele><time>2026-04-04T10:23:28.79Z</time></trkpt><trkpt lat="44.184455" lon="11.355248"><ele>907.8000000000001</ele><time>2026-04-04T10:23:29.79Z</time></trkpt><trkpt lat="44.1843808" lon="11.3551318"><ele>907.4000000000001</ele><time>2026-04-04T10:23:30.789Z</time></trkpt><trkpt lat="44.1843163" lon="11.355004"><ele>907.0</ele><time>2026-04-04T10:23:31.789Z</time></trkpt><trkpt lat="44.1842575" lon="11.3548715"><ele>907.0</ele><time>2026-04-04T10:23:32.789Z</time></trkpt><trkpt lat="44.1841997" lon="11.3547385"><ele>907.0</ele><time>2026-04-04T10:23:33.792Z</time></trkpt><trkpt lat="44.184142" lon="11.354605"><ele>907.0</ele><time>2026-04-04T10:23:34.789Z</time></trkpt><trkpt lat="44.1840843" lon="11.3544703"><ele>907.0</ele><time>2026-04-04T10:23:35.789Z</time></trkpt><trkpt lat="44.1840252" lon="11.3543383"><ele>907.0</ele><time>2026-04-04T10:23:36.791Z</time></trkpt><trkpt lat="44.1839637" lon="11.3542033"><ele>907.75</ele><time>2026-04-04T10:23:37.79Z</time></trkpt><trkpt lat="44.1839028" lon="11.3540657"><ele>908.5</ele><time>2026-04-04T10:23:38.788Z</time></trkpt><trkpt lat="44.1838447" lon="11.3539295"><ele>909.25</ele><time>2026-04-04T10:23:39.788Z</time></trkpt><trkpt lat="44.1837858" lon="11.3537918"><ele>910.0</ele><time>2026-04-04T10:23:40.787Z</time></trkpt><trkpt lat="44.1837302" lon="11.3536535"><ele>910.0</ele><time>2026-04-04T10:23:41.786Z</time></trkpt><trkpt lat="44.1836752" lon="11.3535155"><ele>910.0</ele><time>2026-04-04T10:23:42.786Z</time></trkpt><trkpt lat="44.1836173" lon="11.3533788"><ele>910.0</ele><time>2026-04-04T10:23:43.784Z</time></trkpt><trkpt lat="44.1835575" lon="11.353241"><ele>910.0</ele><time>2026-04-04T10:23:44.787Z</time></trkpt><trkpt lat="44.1834977" lon="11.3531005"><ele>906.5</ele><time>2026-04-04T10:23:45.788Z</time></trkpt><trkpt lat="44.1834373" lon="11.352961"><ele>903.0</ele><time>2026-04-04T10:23:46.787Z</time></trkpt><trkpt lat="44.1833748" lon="11.3528333"><ele>899.5</ele><time>2026-04-04T10:23:47.786Z</time></trkpt><trkpt lat="44.1833025" lon="11.3527155"><ele>896.0</ele><time>2026-04-04T10:23:48.787Z</time></trkpt><trkpt lat="44.1832147" lon="11.3526128"><ele>899.0</ele><time>2026-04-04T10:23:49.787Z</time></trkpt><trkpt lat="44.1831168" lon="11.3525338"><ele>901.9999999999999</ele><time>2026-04-04T10:23:50.787Z</time></trkpt><trkpt lat="44.1830107" lon="11.3524675"><ele>904.9999999999999</ele><time>2026-04-04T10:23:51.788Z</time></trkpt><trkpt lat="44.1829058" lon="11.3524087"><ele>908.0</ele><time>2026-04-04T10:23:52.788Z</time></trkpt><trkpt lat="44.1828068" lon="11.3523522"><ele>911.0</ele><time>2026-04-04T10:23:53.786Z</time></trkpt><trkpt lat="44.1827117" lon="11.3522877"><ele>908.5999999999999</ele><time>2026-04-04T10:23:54.788Z</time></trkpt><trkpt lat="44.182623" lon="11.3522017"><ele>906.1999999999999</ele><time>2026-04-04T10:23:55.788Z</time></trkpt><trkpt lat="44.1825507" lon="11.352085"><ele>903.8000000000001</ele><time>2026-04-04T10:23:56.786Z</time></trkpt><trkpt lat="44.182503" lon="11.3519455"><ele>901.4000000000001</ele><time>2026-04-04T10:23:57.789Z</time></trkpt><trkpt lat="44.1824842" lon="11.3517927"><ele>899.0</ele><time>2026-04-04T10:23:58.787Z</time></trkpt><trkpt lat="44.1824888" lon="11.3516325"><ele>899.0</ele><time>2026-04-04T10:23:59.786Z</time></trkpt><trkpt lat="44.1825062" lon="11.3514705"><ele>899.0</ele><time>2026-04-04T10:24:00.787Z</time></trkpt><trkpt lat="44.1825267" lon="11.3513128"><ele>899.0</ele><time>2026-04-04T10:24:01.786Z</time></trkpt><trkpt lat="44.182535" lon="11.351158"><ele>899.0</ele><time>2026-04-04T10:24:02.788Z</time></trkpt><trkpt lat="44.1825207" lon="11.3510017"><ele>898.0</ele><time>2026-04-04T10:24:03.786Z</time></trkpt><trkpt lat="44.1824813" lon="11.3508535"><ele>897.0000000000001</ele><time>2026-04-04T10:24:04.786Z</time></trkpt><trkpt lat="44.1824257" lon="11.3507158"><ele>896.0000000000001</ele><time>2026-04-04T10:24:05.785Z</time></trkpt><trkpt lat="44.182368" lon="11.350582"><ele>895.0</ele><time>2026-04-04T10:24:06.786Z</time></trkpt><trkpt lat="44.1823107" lon="11.3504498"><ele>894.0</ele><time>2026-04-04T10:24:07.783Z</time></trkpt><trkpt lat="44.1822673" lon="11.3503065"><ele>897.25</ele><time>2026-04-04T10:24:08.787Z</time></trkpt><trkpt lat="44.1822397" lon="11.3501528"><ele>900.5</ele><time>2026-04-04T10:24:09.789Z</time></trkpt><trkpt lat="44.182221" lon="11.3499948"><ele>903.75</ele><time>2026-04-04T10:24:10.786Z</time></trkpt><trkpt lat="44.1822037" lon="11.3498367"><ele>907.0</ele><time>2026-04-04T10:24:11.785Z</time></trkpt><trkpt lat="44.1821877" lon="11.3496748"><ele>907.0</ele><time>2026-04-04T10:24:12.787Z</time></trkpt><trkpt lat="44.1821742" lon="11.3495102"><ele>907.0</ele><time>2026-04-04T10:24:13.786Z</time></trkpt><trkpt lat="44.182163" lon="11.3493505"><ele>907.0</ele><time>2026-04-04T10:24:14.785Z</time></trkpt><trkpt lat="44.1821467" lon="11.3491957"><ele>907.0</ele><time>2026-04-04T10:24:15.787Z</time></trkpt><trkpt lat="44.1821187" lon="11.3490452"><ele>907.0</ele><time>2026-04-04T10:24:16.788Z</time></trkpt><trkpt lat="44.1820758" lon="11.348905"><ele>907.0</ele><time>2026-04-04T10:24:17.787Z</time></trkpt><trkpt lat="44.1820163" lon="11.348774"><ele>907.0</ele><time>2026-04-04T10:24:18.788Z</time></trkpt><trkpt lat="44.1819437" lon="11.3486527"><ele>907.0</ele><time>2026-04-04T10:24:19.789Z</time></trkpt><trkpt lat="44.181858" lon="11.348542"><ele>907.25</ele><time>2026-04-04T10:24:20.787Z</time></trkpt><trkpt lat="44.1817622" lon="11.3484397"><ele>907.5</ele><time>2026-04-04T10:24:21.788Z</time></trkpt><trkpt lat="44.18166" lon="11.3483473"><ele>907.75</ele><time>2026-04-04T10:24:22.787Z</time></trkpt><trkpt lat="44.1815537" lon="11.3482652"><ele>908.0</ele><time>2026-04-04T10:24:23.785Z</time></trkpt><trkpt lat="44.181448" lon="11.3481767"><ele>908.0</ele><time>2026-04-04T10:24:24.786Z</time></trkpt><trkpt lat="44.1813463" lon="11.348084"><ele>908.0</ele><time>2026-04-04T10:24:25.786Z</time></trkpt><trkpt lat="44.1812428" lon="11.3479982"><ele>908.0</ele><time>2026-04-04T10:24:26.788Z</time></trkpt><trkpt lat="44.1811405" lon="11.3479152"><ele>908.0</ele><time>2026-04-04T10:24:27.788Z</time></trkpt><trkpt lat="44.1810382" lon="11.3478378"><ele>905.5</ele><time>2026-04-04T10:24:28.785Z</time></trkpt><trkpt lat="44.1809317" lon="11.3477715"><ele>903.0</ele><time>2026-04-04T10:24:29.785Z</time></trkpt><trkpt lat="44.1808217" lon="11.3477205"><ele>900.5</ele><time>2026-04-04T10:24:30.786Z</time></trkpt><trkpt lat="44.1807087" lon="11.347685"><ele>898.0</ele><time>2026-04-04T10:24:31.786Z</time></trkpt><trkpt lat="44.1805925" lon="11.347666"><ele>898.0</ele><time>2026-04-04T10:24:32.785Z</time></trkpt><trkpt lat="44.1804715" lon="11.3476572"><ele>898.0</ele><time>2026-04-04T10:24:33.788Z</time></trkpt><trkpt lat="44.1803482" lon="11.3476525"><ele>898.0</ele><time>2026-04-04T10:24:34.788Z</time></trkpt><trkpt lat="44.1802252" lon="11.3476495"><ele>898.0</ele><time>2026-04-04T10:24:35.787Z</time></trkpt><trkpt lat="44.1801055" lon="11.3476447"><ele>898.0</ele><time>2026-04-04T10:24:36.788Z</time></trkpt><trkpt lat="44.1799987" lon="11.3476403"><ele>898.0</ele><time>2026-04-04T10:24:37.788Z</time></trkpt><trkpt lat="44.1799017" lon="11.3476157"><ele>898.0</ele><time>2026-04-04T10:24:38.788Z</time></trkpt><trkpt lat="44.1798147" lon="11.34755"><ele>898.0</ele><time>2026-04-04T10:24:39.789Z</time></trkpt><trkpt lat="44.1797415" lon="11.3474455"><ele>898.0</ele><time>2026-04-04T10:24:40.787Z</time></trkpt><trkpt lat="44.1796882" lon="11.3473165"><ele>898.8</ele><time>2026-04-04T10:24:41.788Z</time></trkpt><trkpt lat="44.1796423" lon="11.3471847"><ele>899.5999999999999</ele><time>2026-04-04T10:24:42.787Z</time></trkpt><trkpt lat="44.1795815" lon="11.3470688"><ele>900.4000000000001</ele><time>2026-04-04T10:24:43.789Z</time></trkpt><trkpt lat="44.1795032" lon="11.346975"><ele>901.2</ele><time>2026-04-04T10:24:44.786Z</time></trkpt><trkpt lat="44.1794065" lon="11.346918"><ele>902.0</ele><time>2026-04-04T10:24:45.787Z</time></trkpt><trkpt lat="44.179297" lon="11.3468912"><ele>902.0</ele><time>2026-04-04T10:24:46.786Z</time></trkpt><trkpt lat="44.179181" lon="11.3468747"><ele>902.0</ele><time>2026-04-04T10:24:47.788Z</time></trkpt><trkpt lat="44.1790592" lon="11.3468605"><ele>902.0</ele><time>2026-04-04T10:24:48.787Z</time></trkpt><trkpt lat="44.1789378" lon="11.3468405"><ele>902.0</ele><time>2026-04-04T10:24:49.788Z</time></trkpt><trkpt lat="44.1788228" lon="11.34682"><ele>902.4000000000001</ele><time>2026-04-04T10:24:50.789Z</time></trkpt><trkpt lat="44.1787132" lon="11.3467857"><ele>902.8000000000001</ele><time>2026-04-04T10:24:51.789Z</time></trkpt><trkpt lat="44.1786147" lon="11.3467172"><ele>903.2</ele><time>2026-04-04T10:24:52.788Z</time></trkpt><trkpt lat="44.178535" lon="11.3466132"><ele>903.6</ele><time>2026-04-04T10:24:53.786Z</time></trkpt><trkpt lat="44.1784825" lon="11.3464818"><ele>904.0</ele><time>2026-04-04T10:24:54.788Z</time></trkpt><trkpt lat="44.1784513" lon="11.346341"><ele>904.0</ele><time>2026-04-04T10:24:55.785Z</time></trkpt><trkpt lat="44.1784165" lon="11.346208"><ele>904.0000000000001</ele><time>2026-04-04T10:24:56.786Z</time></trkpt><trkpt lat="44.1783618" lon="11.3460907"><ele>904.0000000000001</ele><time>2026-04-04T10:24:57.787Z</time></trkpt><trkpt lat="44.1782867" lon="11.3459962"><ele>904.0</ele><time>2026-04-04T10:24:58.787Z</time></trkpt><trkpt lat="44.1781933" lon="11.3459322"><ele>904.0</ele><time>2026-04-04T10:24:59.789Z</time></trkpt><trkpt lat="44.1780868" lon="11.3458927"><ele>908.0</ele><time>2026-04-04T10:25:00.789Z</time></trkpt><trkpt lat="44.1779768" lon="11.3458608"><ele>912.0</ele><time>2026-04-04T10:25:01.789Z</time></trkpt><trkpt lat="44.1778628" lon="11.3458298"><ele>916.0</ele><time>2026-04-04T10:25:02.787Z</time></trkpt><trkpt lat="44.1777443" lon="11.3458072"><ele>920.0</ele><time>2026-04-04T10:25:03.789Z</time></trkpt><trkpt lat="44.1776252" lon="11.3457908"><ele>920.0</ele><time>2026-04-04T10:25:04.788Z</time></trkpt><trkpt lat="44.1775073" lon="11.345768"><ele>920.0</ele><time>2026-04-04T10:25:05.788Z</time></trkpt><trkpt lat="44.177394" lon="11.3457257"><ele>920.0</ele><time>2026-04-04T10:25:06.788Z</time></trkpt><trkpt lat="44.177292" lon="11.345659"><ele>920.0</ele><time>2026-04-04T10:25:07.788Z</time></trkpt><trkpt lat="44.1771997" lon="11.3455683"><ele>921.75</ele><time>2026-04-04T10:25:08.789Z</time></trkpt><trkpt lat="44.1771167" lon="11.3454588"><ele>923.5</ele><time>2026-04-04T10:25:09.787Z</time></trkpt><trkpt lat="44.1770358" lon="11.3453447"><ele>925.25</ele><time>2026-04-04T10:25:10.789Z</time></trkpt><trkpt lat="44.1769498" lon="11.3452332"><ele>927.0</ele><time>2026-04-04T10:25:11.787Z</time></trkpt><trkpt lat="44.1768527" lon="11.3451273"><ele>927.0</ele><time>2026-04-04T10:25:12.788Z</time></trkpt><trkpt lat="44.1767443" lon="11.3450257"><ele>927.0</ele><time>2026-04-04T10:25:13.789Z</time></trkpt><trkpt lat="44.1766353" lon="11.344932"><ele>927.0</ele><time>2026-04-04T10:25:14.787Z</time></trkpt><trkpt lat="44.1765247" lon="11.3448455"><ele>927.0</ele><time>2026-04-04T10:25:15.788Z</time></trkpt><trkpt lat="44.1764133" lon="11.3447653"><ele>926.5</ele><time>2026-04-04T10:25:16.787Z</time></trkpt><trkpt lat="44.1763032" lon="11.3446897"><ele>926.0</ele><time>2026-04-04T10:25:17.786Z</time></trkpt><trkpt lat="44.1761935" lon="11.3446187"><ele>925.5</ele><time>2026-04-04T10:25:18.786Z</time></trkpt><trkpt lat="44.1760852" lon="11.3445517"><ele>925.0</ele><time>2026-04-04T10:25:19.787Z</time></trkpt><trkpt lat="44.1759763" lon="11.3444888"><ele>925.0</ele><time>2026-04-04T10:25:20.786Z</time></trkpt><trkpt lat="44.1758663" lon="11.3444322"><ele>925.0</ele><time>2026-04-04T10:25:21.787Z</time></trkpt><trkpt lat="44.1757537" lon="11.3443838"><ele>925.0</ele><time>2026-04-04T10:25:22.789Z</time></trkpt><trkpt lat="44.1756377" lon="11.344349"><ele>925.0</ele><time>2026-04-04T10:25:23.788Z</time></trkpt><trkpt lat="44.1755213" lon="11.3443168"><ele>927.75</ele><time>2026-04-04T10:25:24.789Z</time></trkpt><trkpt lat="44.175404" lon="11.3442845"><ele>930.5</ele><time>2026-04-04T10:25:25.789Z</time></trkpt><trkpt lat="44.1752835" lon="11.3442537"><ele>933.25</ele><time>2026-04-04T10:25:26.788Z</time></trkpt><trkpt lat="44.1751643" lon="11.3442237"><ele>936.0</ele><time>2026-04-04T10:25:27.79Z</time></trkpt><trkpt lat="44.1750457" lon="11.3441927"><ele>936.0</ele><time>2026-04-04T10:25:28.787Z</time></trkpt><trkpt lat="44.1749275" lon="11.3441605"><ele>936.0</ele><time>2026-04-04T10:25:29.788Z</time></trkpt><trkpt lat="44.1748098" lon="11.3441247"><ele>936.0</ele><time>2026-04-04T10:25:30.788Z</time></trkpt><trkpt lat="44.1746935" lon="11.344087"><ele>936.0</ele><time>2026-04-04T10:25:31.788Z</time></trkpt><trkpt lat="44.1745775" lon="11.3440435"><ele>936.25</ele><time>2026-04-04T10:25:32.788Z</time></trkpt><trkpt lat="44.174464" lon="11.3439862"><ele>936.5</ele><time>2026-04-04T10:25:33.789Z</time></trkpt><trkpt lat="44.1743513" lon="11.3439188"><ele>936.75</ele><time>2026-04-04T10:25:34.787Z</time></trkpt><trkpt lat="44.1742433" lon="11.3438433"><ele>937.0</ele><time>2026-04-04T10:25:35.788Z</time></trkpt><trkpt lat="44.174142" lon="11.3437533"><ele>937.0</ele><time>2026-04-04T10:25:36.787Z</time></trkpt><trkpt lat="44.1740483" lon="11.3436525"><ele>937.0</ele><time>2026-04-04T10:25:37.786Z</time></trkpt><trkpt lat="44.173961" lon="11.3435442"><ele>937.0</ele><time>2026-04-04T10:25:38.787Z</time></trkpt><trkpt lat="44.1738815" lon="11.3434272"><ele>937.0</ele><time>2026-04-04T10:25:39.788Z</time></trkpt><trkpt lat="44.1738115" lon="11.3433028"><ele>941.25</ele><time>2026-04-04T10:25:40.787Z</time></trkpt><trkpt lat="44.1737485" lon="11.3431707"><ele>945.5</ele><time>2026-04-04T10:25:41.787Z</time></trkpt><trkpt lat="44.1736868" lon="11.3430373"><ele>949.75</ele><time>2026-04-04T10:25:42.786Z</time></trkpt><trkpt lat="44.1736235" lon="11.3429048"><ele>954.0</ele><time>2026-04-04T10:25:43.786Z</time></trkpt><trkpt lat="44.1735627" lon="11.342769"><ele>954.0</ele><time>2026-04-04T10:25:44.788Z</time></trkpt><trkpt lat="44.1735042" lon="11.3426335"><ele>954.0000000000001</ele><time>2026-04-04T10:25:45.788Z</time></trkpt><trkpt lat="44.173449" lon="11.3425053"><ele>954.0000000000001</ele><time>2026-04-04T10:25:46.788Z</time></trkpt><trkpt lat="44.173398" lon="11.3423865"><ele>954.0</ele><time>2026-04-04T10:25:47.789Z</time></trkpt><trkpt lat="44.1733567" lon="11.3422722"><ele>954.0</ele><time>2026-04-04T10:25:48.79Z</time></trkpt><trkpt lat="44.1733342" lon="11.3421668"><ele>954.0</ele><time>2026-04-04T10:25:49.789Z</time></trkpt><trkpt lat="44.1733282" lon="11.3420745"><ele>954.0000000000001</ele><time>2026-04-04T10:25:50.788Z</time></trkpt><trkpt lat="44.1733207" lon="11.3419193"><ele>954.0000000000001</ele><time>2026-04-04T10:25:52.788Z</time></trkpt><trkpt lat="44.1732268" lon="11.3418337"><ele>954.0</ele><time>2026-04-04T10:25:54.788Z</time></trkpt><trkpt lat="44.1731467" lon="11.3418197"><ele>954.0</ele><time>2026-04-04T10:25:55.788Z</time></trkpt><trkpt lat="44.1730502" lon="11.3418333"><ele>956.4000000000001</ele><time>2026-04-04T10:25:56.787Z</time></trkpt><trkpt lat="44.1729395" lon="11.3418503"><ele>958.8000000000001</ele><time>2026-04-04T10:25:57.788Z</time></trkpt><trkpt lat="44.1728302" lon="11.3418523"><ele>961.1999999999999</ele><time>2026-04-04T10:25:58.788Z</time></trkpt><trkpt lat="44.1727227" lon="11.3418572"><ele>963.5999999999999</ele><time>2026-04-04T10:25:59.788Z</time></trkpt><trkpt lat="44.1726355" lon="11.3418795"><ele>966.0</ele><time>2026-04-04T10:26:00.787Z</time></trkpt><trkpt lat="44.1725593" lon="11.3419032"><ele>966.0</ele><time>2026-04-04T10:26:01.787Z</time></trkpt><trkpt lat="44.1724958" lon="11.3419163"><ele>966.0</ele><time>2026-04-04T10:26:03.788Z</time></trkpt><trkpt lat="44.1724295" lon="11.3419157"><ele>966.0</ele><time>2026-04-04T10:26:19.79Z</time></trkpt><trkpt lat="44.1723838" lon="11.3418078"><ele>966.0</ele><time>2026-04-04T10:26:23.787Z</time></trkpt><trkpt lat="44.1723562" lon="11.341677"><ele>966.0</ele><time>2026-04-04T10:26:25.789Z</time></trkpt><trkpt lat="44.1723908" lon="11.3415172"><ele>966.0</ele><time>2026-04-04T10:26:27.789Z</time></trkpt><trkpt lat="44.1724288" lon="11.3413848"><ele>966.8333333333334</ele><time>2026-04-04T10:26:29.79Z</time></trkpt><trkpt lat="44.1724403" lon="11.3412407"><ele>967.6666666666667</ele><time>2026-04-04T10:27:56.788Z</time></trkpt><trkpt lat="44.1724357" lon="11.3411485"><ele>968.5</ele><time>2026-04-04T10:27:57.788Z</time></trkpt><trkpt lat="44.1724407" lon="11.341053"><ele>969.3333333333334</ele><time>2026-04-04T10:27:58.789Z</time></trkpt><trkpt lat="44.1724918" lon="11.3408912"><ele>970.1666666666667</ele><time>2026-04-04T10:28:00.789Z</time></trkpt><trkpt lat="44.1725413" lon="11.3408125"><ele>971.0</ele><time>2026-04-04T10:28:01.789Z</time></trkpt><trkpt lat="44.17259" lon="11.340743"><ele>971.0000000000001</ele><time>2026-04-04T10:28:02.789Z</time></trkpt><trkpt lat="44.1726392" lon="11.3406767"><ele>971.0</ele><time>2026-04-04T10:28:03.791Z</time></trkpt><trkpt lat="44.172707" lon="11.3405583"><ele>971.0</ele><time>2026-04-04T10:28:05.789Z</time></trkpt><trkpt lat="44.1727703" lon="11.3404273"><ele>971.0</ele><time>2026-04-04T10:28:07.789Z</time></trkpt><trkpt lat="44.172818" lon="11.3403627"><ele>971.0000000000001</ele><time>2026-04-04T10:28:08.789Z</time></trkpt><trkpt lat="44.1728645" lon="11.3402883"><ele>971.0</ele><time>2026-04-04T10:28:09.787Z</time></trkpt><trkpt lat="44.1729055" lon="11.3402088"><ele>970.8</ele><time>2026-04-04T10:28:10.787Z</time></trkpt><trkpt lat="44.172934" lon="11.3401303"><ele>970.5999999999999</ele><time>2026-04-04T10:28:11.787Z</time></trkpt><trkpt lat="44.1729477" lon="11.3399862"><ele>970.4</ele><time>2026-04-04T10:28:13.787Z</time></trkpt><trkpt lat="44.1729408" lon="11.3398423"><ele>970.2</ele><time>2026-04-04T10:28:15.786Z</time></trkpt><trkpt lat="44.1729217" lon="11.339684"><ele>970.0</ele><time>2026-04-04T10:28:17.788Z</time></trkpt><trkpt lat="44.1729257" lon="11.339528"><ele>965.0</ele><time>2026-04-04T10:28:19.788Z</time></trkpt><trkpt lat="44.1729192" lon="11.3393603"><ele>965.0</ele><time>2026-04-04T10:28:21.788Z</time></trkpt><trkpt lat="44.1729098" lon="11.3392033"><ele>965.0</ele><time>2026-04-04T10:28:23.79Z</time></trkpt><trkpt lat="44.1729302" lon="11.3390717"><ele>965.0</ele><time>2026-04-04T10:28:25.792Z</time></trkpt><trkpt lat="44.1729217" lon="11.3389772"><ele>965.0</ele><time>2026-04-04T10:28:27.791Z</time></trkpt></trkseg><trkseg><trkpt lat="44.1729008" lon="11.3390462"><ele>965.0</ele><time>2026-04-04T10:50:03.789Z</time></trkpt><trkpt lat="44.172894" lon="11.339198"><ele>965.0</ele><time>2026-04-04T10:50:05.789Z</time></trkpt><trkpt lat="44.1729112" lon="11.3393512"><ele>965.0</ele><time>2026-04-04T10:50:07.788Z</time></trkpt><trkpt lat="44.1729157" lon="11.339452"><ele>965.0</ele><time>2026-04-04T10:50:08.787Z</time></trkpt><trkpt lat="44.1729143" lon="11.3396418"><ele>965.0</ele><time>2026-04-04T10:50:10.787Z</time></trkpt><trkpt lat="44.1729305" lon="11.3397647"><ele>966.0</ele><time>2026-04-04T10:50:11.788Z</time></trkpt><trkpt lat="44.1729407" lon="11.3398612"><ele>967.0</ele><time>2026-04-04T10:50:12.787Z</time></trkpt><trkpt lat="44.1729312" lon="11.3400253"><ele>968.0</ele><time>2026-04-04T10:50:14.786Z</time></trkpt><trkpt lat="44.1728968" lon="11.3401787"><ele>969.0</ele><time>2026-04-04T10:50:16.789Z</time></trkpt><trkpt lat="44.1728212" lon="11.3403242"><ele>970.0</ele><time>2026-04-04T10:50:18.788Z</time></trkpt><trkpt lat="44.1727413" lon="11.3404433"><ele>970.2</ele><time>2026-04-04T10:50:20.798Z</time></trkpt><trkpt lat="44.1726977" lon="11.3405648"><ele>970.4</ele><time>2026-04-04T10:50:22.788Z</time></trkpt><trkpt lat="44.172643" lon="11.3406483"><ele>970.5999999999999</ele><time>2026-04-04T10:50:24.789Z</time></trkpt><trkpt lat="44.1725675" lon="11.3407462"><ele>970.8</ele><time>2026-04-04T10:50:26.788Z</time></trkpt><trkpt lat="44.1724958" lon="11.3408567"><ele>971.0</ele><time>2026-04-04T10:50:28.79Z</time></trkpt><trkpt lat="44.172445" lon="11.3409898"><ele>971.0</ele><time>2026-04-04T10:50:30.788Z</time></trkpt><trkpt lat="44.1724368" lon="11.3411532"><ele>970.9999999999999</ele><time>2026-04-04T10:50:32.789Z</time></trkpt><trkpt lat="44.1724305" lon="11.3413113"><ele>970.9999999999999</ele><time>2026-04-04T10:50:34.788Z</time></trkpt><trkpt lat="44.1724048" lon="11.341451"><ele>971.0</ele><time>2026-04-04T10:50:36.787Z</time></trkpt><trkpt lat="44.17237" lon="11.3415957"><ele>971.0</ele><time>2026-04-04T10:50:38.784Z</time></trkpt><trkpt lat="44.1723663" lon="11.341705"><ele>970.1666666666667</ele><time>2026-04-04T10:50:40.785Z</time></trkpt><trkpt lat="44.1723797" lon="11.3417998"><ele>969.3333333333334</ele><time>2026-04-04T10:50:42.789Z</time></trkpt><trkpt lat="44.1724228" lon="11.3418828"><ele>968.5</ele><time>2026-04-04T10:50:44.788Z</time></trkpt><trkpt lat="44.1724888" lon="11.3418877"><ele>967.6666666666667</ele><time>2026-04-04T10:50:46.788Z</time></trkpt><trkpt lat="44.172582" lon="11.3418768"><ele>966.8333333333334</ele><time>2026-04-04T10:50:48.788Z</time></trkpt><trkpt lat="44.1726902" lon="11.3418442"><ele>966.0</ele><time>2026-04-04T10:50:50.787Z</time></trkpt><trkpt lat="44.1728007" lon="11.3418327"><ele>966.0</ele><time>2026-04-04T10:50:52.788Z</time></trkpt><trkpt lat="44.172909" lon="11.341841"><ele>965.9999999999999</ele><time>2026-04-04T10:50:54.788Z</time></trkpt><trkpt lat="44.1730148" lon="11.341829"><ele>965.9999999999999</ele><time>2026-04-04T10:50:56.786Z</time></trkpt><trkpt lat="44.1731247" lon="11.3418067"><ele>966.0</ele><time>2026-04-04T10:50:58.788Z</time></trkpt><trkpt lat="44.1732148" lon="11.341833"><ele>966.0</ele><time>2026-04-04T10:51:00.788Z</time></trkpt><trkpt lat="44.1732628" lon="11.3418983"><ele>964.0</ele><time>2026-04-04T10:51:10.788Z</time></trkpt><trkpt lat="44.1732748" lon="11.3420228"><ele>962.0</ele><time>2026-04-04T10:51:12.787Z</time></trkpt><trkpt lat="44.1732857" lon="11.3421175"><ele>960.0</ele><time>2026-04-04T10:51:13.788Z</time></trkpt><trkpt lat="44.1733075" lon="11.3422217"><ele>958.0</ele><time>2026-04-04T10:51:14.788Z</time></trkpt><trkpt lat="44.1733418" lon="11.3423288"><ele>956.0</ele><time>2026-04-04T10:51:15.789Z</time></trkpt><trkpt lat="44.173382" lon="11.3424347"><ele>954.0</ele><time>2026-04-04T10:51:16.788Z</time></trkpt><trkpt lat="44.1734278" lon="11.3425447"><ele>954.0</ele><time>2026-04-04T10:51:17.787Z</time></trkpt><trkpt lat="44.1734737" lon="11.3426533"><ele>954.0</ele><time>2026-04-04T10:51:18.788Z</time></trkpt><trkpt lat="44.1735158" lon="11.3427557"><ele>954.0</ele><time>2026-04-04T10:51:19.788Z</time></trkpt><trkpt lat="44.1735587" lon="11.3428545"><ele>954.0</ele><time>2026-04-04T10:51:20.787Z</time></trkpt><trkpt lat="44.1736028" lon="11.342953"><ele>954.0</ele><time>2026-04-04T10:51:21.788Z</time></trkpt><trkpt lat="44.173644" lon="11.3430462"><ele>954.0</ele><time>2026-04-04T10:51:22.787Z</time></trkpt><trkpt lat="44.173683" lon="11.3431343"><ele>954.5</ele><time>2026-04-04T10:51:23.79Z</time></trkpt><trkpt lat="44.1737257" lon="11.3432215"><ele>955.0</ele><time>2026-04-04T10:51:24.789Z</time></trkpt><trkpt lat="44.173773" lon="11.3433128"><ele>955.5</ele><time>2026-04-04T10:51:25.787Z</time></trkpt><trkpt lat="44.1738235" lon="11.3434087"><ele>956.0</ele><time>2026-04-04T10:51:26.787Z</time></trkpt><trkpt lat="44.1738793" lon="11.3435015"><ele>956.5</ele><time>2026-04-04T10:51:27.798Z</time></trkpt><trkpt lat="44.1739372" lon="11.343587"><ele>957.0</ele><time>2026-04-04T10:51:28.786Z</time></trkpt><trkpt lat="44.1739987" lon="11.34367"><ele>954.8</ele><time>2026-04-04T10:51:29.787Z</time></trkpt><trkpt lat="44.1740648" lon="11.3437473"><ele>952.6</ele><time>2026-04-04T10:51:30.789Z</time></trkpt><trkpt lat="44.1741392" lon="11.3438205"><ele>950.3999999999999</ele><time>2026-04-04T10:51:31.788Z</time></trkpt><trkpt lat="44.1742185" lon="11.3438878"><ele>948.1999999999999</ele><time>2026-04-04T10:51:32.792Z</time></trkpt><trkpt lat="44.1743008" lon="11.343948"><ele>946.0</ele><time>2026-04-04T10:51:33.786Z</time></trkpt><trkpt lat="44.1743883" lon="11.3440052"><ele>946.0</ele><time>2026-04-04T10:51:34.789Z</time></trkpt><trkpt lat="44.17448" lon="11.3440573"><ele>945.9999999999999</ele><time>2026-04-04T10:51:35.788Z</time></trkpt><trkpt lat="44.1745713" lon="11.344104"><ele>945.9999999999999</ele><time>2026-04-04T10:51:36.788Z</time></trkpt><trkpt lat="44.1746677" lon="11.3441413"><ele>946.0</ele><time>2026-04-04T10:51:37.788Z</time></trkpt><trkpt lat="44.1747673" lon="11.3441697"><ele>946.0</ele><time>2026-04-04T10:51:38.787Z</time></trkpt><trkpt lat="44.1748652" lon="11.3441957"><ele>944.0</ele><time>2026-04-04T10:51:39.787Z</time></trkpt><trkpt lat="44.174965" lon="11.3442213"><ele>941.9999999999999</ele><time>2026-04-04T10:51:40.787Z</time></trkpt><trkpt lat="44.1750643" lon="11.344245"><ele>939.9999999999999</ele><time>2026-04-04T10:51:41.788Z</time></trkpt><trkpt lat="44.1751623" lon="11.3442682"><ele>938.0</ele><time>2026-04-04T10:51:42.79Z</time></trkpt><trkpt lat="44.1752613" lon="11.344293"><ele>936.0</ele><time>2026-04-04T10:51:43.788Z</time></trkpt><trkpt lat="44.1753653" lon="11.3443177"><ele>936.0</ele><time>2026-04-04T10:51:44.787Z</time></trkpt><trkpt lat="44.1754725" lon="11.344346"><ele>935.9999999999999</ele><time>2026-04-04T10:51:45.787Z</time></trkpt><trkpt lat="44.1755807" lon="11.3443763"><ele>935.9999999999999</ele><time>2026-04-04T10:51:46.789Z</time></trkpt><trkpt lat="44.1756862" lon="11.3444093"><ele>936.0</ele><time>2026-04-04T10:51:47.788Z</time></trkpt><trkpt lat="44.17579" lon="11.3444482"><ele>936.0</ele><time>2026-04-04T10:51:48.788Z</time></trkpt><trkpt lat="44.1758935" lon="11.344497"><ele>937.0</ele><time>2026-04-04T10:51:49.788Z</time></trkpt><trkpt lat="44.175997" lon="11.3445525"><ele>938.0</ele><time>2026-04-04T10:51:50.785Z</time></trkpt><trkpt lat="44.1761022" lon="11.3446158"><ele>939.0</ele><time>2026-04-04T10:51:51.785Z</time></trkpt><trkpt lat="44.176208" lon="11.3446845"><ele>940.0</ele><time>2026-04-04T10:51:52.787Z</time></trkpt><trkpt lat="44.1763125" lon="11.344754"><ele>940.0</ele><time>2026-04-04T10:51:53.784Z</time></trkpt><trkpt lat="44.1764155" lon="11.3448247"><ele>940.0</ele><time>2026-04-04T10:51:54.789Z</time></trkpt><trkpt lat="44.1765183" lon="11.3448988"><ele>940.0</ele><time>2026-04-04T10:51:55.787Z</time></trkpt><trkpt lat="44.1766227" lon="11.3449788"><ele>940.0</ele><time>2026-04-04T10:51:56.787Z</time></trkpt><trkpt lat="44.1767257" lon="11.3450655"><ele>936.75</ele><time>2026-04-04T10:51:57.789Z</time></trkpt><trkpt lat="44.1768223" lon="11.3451597"><ele>933.5</ele><time>2026-04-04T10:51:58.788Z</time></trkpt><trkpt lat="44.1769102" lon="11.3452613"><ele>930.25</ele><time>2026-04-04T10:51:59.788Z</time></trkpt><trkpt lat="44.1769963" lon="11.3453723"><ele>927.0</ele><time>2026-04-04T10:52:00.787Z</time></trkpt><trkpt lat="44.1770797" lon="11.3454825"><ele>925.6</ele><time>2026-04-04T10:52:01.788Z</time></trkpt><trkpt lat="44.177163" lon="11.345585"><ele>924.2</ele><time>2026-04-04T10:52:02.786Z</time></trkpt><trkpt lat="44.1772537" lon="11.3456732"><ele>922.8</ele><time>2026-04-04T10:52:03.787Z</time></trkpt><trkpt lat="44.1773518" lon="11.3457415"><ele>921.4</ele><time>2026-04-04T10:52:04.787Z</time></trkpt><trkpt lat="44.1774567" lon="11.345788"><ele>920.0</ele><time>2026-04-04T10:52:05.794Z</time></trkpt><trkpt lat="44.1775658" lon="11.345815"><ele>920.0</ele><time>2026-04-04T10:52:06.786Z</time></trkpt><trkpt lat="44.177679" lon="11.3458322"><ele>920.0</ele><time>2026-04-04T10:52:07.786Z</time></trkpt><trkpt lat="44.1777957" lon="11.345848"><ele>920.0</ele><time>2026-04-04T10:52:08.786Z</time></trkpt><trkpt lat="44.1779088" lon="11.3458652"><ele>920.0</ele><time>2026-04-04T10:52:09.787Z</time></trkpt><trkpt lat="44.1780167" lon="11.3458837"><ele>920.0</ele><time>2026-04-04T10:52:10.787Z</time></trkpt><trkpt lat="44.1781187" lon="11.3459145"><ele>920.0</ele><time>2026-04-04T10:52:11.786Z</time></trkpt><trkpt lat="44.178209" lon="11.3459693"><ele>920.0</ele><time>2026-04-04T10:52:12.786Z</time></trkpt><trkpt lat="44.1782915" lon="11.3460513"><ele>920.0</ele><time>2026-04-04T10:52:13.787Z</time></trkpt><trkpt lat="44.17836" lon="11.3461602"><ele>920.0</ele><time>2026-04-04T10:52:14.787Z</time></trkpt><trkpt lat="44.178407" lon="11.3462817"><ele>919.6</ele><time>2026-04-04T10:52:15.787Z</time></trkpt><trkpt lat="44.1784352" lon="11.3464058"><ele>919.2</ele><time>2026-04-04T10:52:16.786Z</time></trkpt><trkpt lat="44.1784672" lon="11.3465315"><ele>918.8</ele><time>2026-04-04T10:52:17.789Z</time></trkpt><trkpt lat="44.1785225" lon="11.3466462"><ele>918.4</ele><time>2026-04-04T10:52:18.785Z</time></trkpt><trkpt lat="44.1785978" lon="11.3467405"><ele>918.0</ele><time>2026-04-04T10:52:19.786Z</time></trkpt><trkpt lat="44.1786945" lon="11.346806"><ele>918.0</ele><time>2026-04-04T10:52:20.788Z</time></trkpt><trkpt lat="44.1788023" lon="11.3468465"><ele>918.0</ele><time>2026-04-04T10:52:21.788Z</time></trkpt><trkpt lat="44.178911" lon="11.3468717"><ele>918.0</ele><time>2026-04-04T10:52:22.787Z</time></trkpt><trkpt lat="44.1790147" lon="11.3468885"><ele>918.0</ele><time>2026-04-04T10:52:23.785Z</time></trkpt><trkpt lat="44.1791167" lon="11.3469035"><ele>918.0</ele><time>2026-04-04T10:52:24.786Z</time></trkpt><trkpt lat="44.1792153" lon="11.3469163"><ele>914.8</ele><time>2026-04-04T10:52:25.788Z</time></trkpt><trkpt lat="44.1793092" lon="11.3469292"><ele>911.5999999999999</ele><time>2026-04-04T10:52:26.787Z</time></trkpt><trkpt lat="44.1793978" lon="11.3469547"><ele>908.4000000000001</ele><time>2026-04-04T10:52:27.787Z</time></trkpt><trkpt lat="44.179479" lon="11.347013"><ele>905.2</ele><time>2026-04-04T10:52:28.787Z</time></trkpt><trkpt lat="44.1795482" lon="11.3471005"><ele>902.0</ele><time>2026-04-04T10:52:29.786Z</time></trkpt><trkpt lat="44.179603" lon="11.34721"><ele>901.2</ele><time>2026-04-04T10:52:30.787Z</time></trkpt><trkpt lat="44.1796455" lon="11.347335"><ele>900.4000000000001</ele><time>2026-04-04T10:52:31.787Z</time></trkpt><trkpt lat="44.1796935" lon="11.3474605"><ele>899.5999999999999</ele><time>2026-04-04T10:52:32.786Z</time></trkpt><trkpt lat="44.1797577" lon="11.3475643"><ele>898.8</ele><time>2026-04-04T10:52:33.786Z</time></trkpt><trkpt lat="44.1798403" lon="11.3476367"><ele>898.0</ele><time>2026-04-04T10:52:34.787Z</time></trkpt><trkpt lat="44.1799368" lon="11.3476758"><ele>898.0</ele><time>2026-04-04T10:52:35.786Z</time></trkpt><trkpt lat="44.180041" lon="11.3476907"><ele>898.0</ele><time>2026-04-04T10:52:36.786Z</time></trkpt><trkpt lat="44.1801495" lon="11.3476968"><ele>898.0</ele><time>2026-04-04T10:52:37.787Z</time></trkpt><trkpt lat="44.1802553" lon="11.3476983"><ele>898.0</ele><time>2026-04-04T10:52:38.785Z</time></trkpt><trkpt lat="44.18036" lon="11.3477007"><ele>898.0</ele><time>2026-04-04T10:52:39.783Z</time></trkpt><trkpt lat="44.1804638" lon="11.3477047"><ele>898.0</ele><time>2026-04-04T10:52:40.784Z</time></trkpt><trkpt lat="44.1805645" lon="11.3477122"><ele>898.0</ele><time>2026-04-04T10:52:41.784Z</time></trkpt><trkpt lat="44.1806645" lon="11.3477287"><ele>898.0</ele><time>2026-04-04T10:52:42.785Z</time></trkpt><trkpt lat="44.1807667" lon="11.3477567"><ele>898.0</ele><time>2026-04-04T10:52:43.784Z</time></trkpt><trkpt lat="44.1808713" lon="11.3477997"><ele>898.0</ele><time>2026-04-04T10:52:44.786Z</time></trkpt><trkpt lat="44.1809763" lon="11.3478577"><ele>900.5</ele><time>2026-04-04T10:52:45.788Z</time></trkpt><trkpt lat="44.181082" lon="11.3479303"><ele>903.0</ele><time>2026-04-04T10:52:46.788Z</time></trkpt><trkpt lat="44.1811853" lon="11.3480122"><ele>905.5</ele><time>2026-04-04T10:52:47.786Z</time></trkpt><trkpt lat="44.1812882" lon="11.3480945"><ele>908.0</ele><time>2026-04-04T10:52:48.788Z</time></trkpt><trkpt lat="44.181392" lon="11.3481777"><ele>908.0</ele><time>2026-04-04T10:52:49.788Z</time></trkpt><trkpt lat="44.1814932" lon="11.3482633"><ele>908.0</ele><time>2026-04-04T10:52:50.786Z</time></trkpt><trkpt lat="44.1815912" lon="11.3483467"><ele>908.0</ele><time>2026-04-04T10:52:51.787Z</time></trkpt><trkpt lat="44.1816902" lon="11.3484297"><ele>908.0</ele><time>2026-04-04T10:52:52.787Z</time></trkpt><trkpt lat="44.1817863" lon="11.3485152"><ele>907.8</ele><time>2026-04-04T10:52:53.787Z</time></trkpt><trkpt lat="44.1818733" lon="11.3486085"><ele>907.5999999999999</ele><time>2026-04-04T10:52:54.787Z</time></trkpt><trkpt lat="44.181949" lon="11.3487208"><ele>907.4000000000001</ele><time>2026-04-04T10:52:55.786Z</time></trkpt><trkpt lat="44.1820108" lon="11.34885"><ele>907.2</ele><time>2026-04-04T10:52:56.786Z</time></trkpt><trkpt lat="44.1820562" lon="11.348994"><ele>907.0</ele><time>2026-04-04T10:52:57.787Z</time></trkpt><trkpt lat="44.1820845" lon="11.34915"><ele>907.0</ele><time>2026-04-04T10:52:58.788Z</time></trkpt><trkpt lat="44.1821032" lon="11.3493118"><ele>907.0</ele><time>2026-04-04T10:52:59.787Z</time></trkpt><trkpt lat="44.1821197" lon="11.3494785"><ele>907.0</ele><time>2026-04-04T10:53:00.786Z</time></trkpt><trkpt lat="44.1821342" lon="11.3496488"><ele>907.0</ele><time>2026-04-04T10:53:01.787Z</time></trkpt><trkpt lat="44.1821512" lon="11.3498202"><ele>910.0</ele><time>2026-04-04T10:53:02.786Z</time></trkpt><trkpt lat="44.1821707" lon="11.3499918"><ele>913.0</ele><time>2026-04-04T10:53:03.786Z</time></trkpt><trkpt lat="44.182195" lon="11.3501627"><ele>916.0</ele><time>2026-04-04T10:53:04.786Z</time></trkpt><trkpt lat="44.1822332" lon="11.3503288"><ele>919.0</ele><time>2026-04-04T10:53:05.785Z</time></trkpt><trkpt lat="44.1822877" lon="11.3504863"><ele>912.75</ele><time>2026-04-04T10:53:06.785Z</time></trkpt><trkpt lat="44.1823543" lon="11.3506353"><ele>906.5</ele><time>2026-04-04T10:53:07.785Z</time></trkpt><trkpt lat="44.1824215" lon="11.3507833"><ele>900.25</ele><time>2026-04-04T10:53:08.788Z</time></trkpt><trkpt lat="44.1824725" lon="11.3509382"><ele>894.0</ele><time>2026-04-04T10:53:09.786Z</time></trkpt><trkpt lat="44.1824968" lon="11.3511007"><ele>894.0</ele><time>2026-04-04T10:53:10.789Z</time></trkpt><trkpt lat="44.1824933" lon="11.3512633"><ele>894.0</ele><time>2026-04-04T10:53:11.788Z</time></trkpt><trkpt lat="44.182471" lon="11.3514233"><ele>894.0</ele><time>2026-04-04T10:53:12.788Z</time></trkpt><trkpt lat="44.1824482" lon="11.3515838"><ele>894.0</ele><time>2026-04-04T10:53:13.786Z</time></trkpt><trkpt lat="44.1824382" lon="11.3517458"><ele>895.0</ele><time>2026-04-04T10:53:14.785Z</time></trkpt><trkpt lat="44.182453" lon="11.3518998"><ele>896.0000000000001</ele><time>2026-04-04T10:53:15.787Z</time></trkpt><trkpt lat="44.1824955" lon="11.352043"><ele>897.0000000000001</ele><time>2026-04-04T10:53:16.787Z</time></trkpt><trkpt lat="44.1825595" lon="11.3521707"><ele>898.0</ele><time>2026-04-04T10:53:17.786Z</time></trkpt><trkpt lat="44.1826423" lon="11.352273"><ele>899.0</ele><time>2026-04-04T10:53:18.786Z</time></trkpt><trkpt lat="44.18274" lon="11.3523468"><ele>902.0</ele><time>2026-04-04T10:53:19.786Z</time></trkpt><trkpt lat="44.1828453" lon="11.352402"><ele>905.0</ele><time>2026-04-04T10:53:20.786Z</time></trkpt><trkpt lat="44.1829525" lon="11.3524575"><ele>908.0</ele><time>2026-04-04T10:53:21.786Z</time></trkpt><trkpt lat="44.1830585" lon="11.3525175"><ele>911.0</ele><time>2026-04-04T10:53:22.786Z</time></trkpt><trkpt lat="44.18316" lon="11.3525948"><ele>910.75</ele><time>2026-04-04T10:53:23.788Z</time></trkpt><trkpt lat="44.1832515" lon="11.3526958"><ele>910.5</ele><time>2026-04-04T10:53:24.785Z</time></trkpt><trkpt lat="44.183331" lon="11.3528177"><ele>910.25</ele><time>2026-04-04T10:53:25.787Z</time></trkpt><trkpt lat="44.1834" lon="11.3529548"><ele>910.0</ele><time>2026-04-04T10:53:26.786Z</time></trkpt><trkpt lat="44.1834647" lon="11.3531007"><ele>910.0</ele><time>2026-04-04T10:53:27.787Z</time></trkpt><trkpt lat="44.1835283" lon="11.3532483"><ele>910.0</ele><time>2026-04-04T10:53:28.786Z</time></trkpt><trkpt lat="44.1835902" lon="11.3533967"><ele>910.0</ele><time>2026-04-04T10:53:29.784Z</time></trkpt><trkpt lat="44.1836512" lon="11.3535452"><ele>910.0</ele><time>2026-04-04T10:53:30.785Z</time></trkpt><trkpt lat="44.1837128" lon="11.3536918"><ele>910.0</ele><time>2026-04-04T10:53:31.785Z</time></trkpt><trkpt lat="44.1837743" lon="11.3538382"><ele>910.0</ele><time>2026-04-04T10:53:32.787Z</time></trkpt><trkpt lat="44.1838357" lon="11.3539843"><ele>910.0</ele><time>2026-04-04T10:53:33.787Z</time></trkpt><trkpt lat="44.1838975" lon="11.35413"><ele>910.0</ele><time>2026-04-04T10:53:34.788Z</time></trkpt><trkpt lat="44.1839612" lon="11.3542752"><ele>909.25</ele><time>2026-04-04T10:53:35.787Z</time></trkpt><trkpt lat="44.1840262" lon="11.3544215"><ele>908.5</ele><time>2026-04-04T10:53:36.787Z</time></trkpt><trkpt lat="44.1840922" lon="11.3545698"><ele>907.75</ele><time>2026-04-04T10:53:37.788Z</time></trkpt><trkpt lat="44.1841568" lon="11.3547195"><ele>907.0</ele><time>2026-04-04T10:53:38.786Z</time></trkpt><trkpt lat="44.1842207" lon="11.3548695"><ele>907.0</ele><time>2026-04-04T10:53:39.787Z</time></trkpt><trkpt lat="44.184285" lon="11.3550185"><ele>907.0</ele><time>2026-04-04T10:53:40.787Z</time></trkpt><trkpt lat="44.1843573" lon="11.3551603"><ele>907.0</ele><time>2026-04-04T10:53:41.786Z</time></trkpt><trkpt lat="44.1844425" lon="11.3552878"><ele>907.0</ele><time>2026-04-04T10:53:42.787Z</time></trkpt><trkpt lat="44.1845398" lon="11.3553977"><ele>907.0</ele><time>2026-04-04T10:53:43.787Z</time></trkpt><trkpt lat="44.1846433" lon="11.355496"><ele>907.0</ele><time>2026-04-04T10:53:44.786Z</time></trkpt><trkpt lat="44.1847478" lon="11.3555928"><ele>907.0</ele><time>2026-04-04T10:53:45.788Z</time></trkpt><trkpt lat="44.184852" lon="11.3556893"><ele>907.0</ele><time>2026-04-04T10:53:46.787Z</time></trkpt><trkpt lat="44.184957" lon="11.3557832"><ele>907.5</ele><time>2026-04-04T10:53:47.788Z</time></trkpt><trkpt lat="44.1850618" lon="11.3558757"><ele>908.0</ele><time>2026-04-04T10:53:48.787Z</time></trkpt><trkpt lat="44.185165" lon="11.3559685"><ele>908.5</ele><time>2026-04-04T10:53:49.787Z</time></trkpt><trkpt lat="44.1852658" lon="11.3560652"><ele>909.0</ele><time>2026-04-04T10:53:50.787Z</time></trkpt><trkpt lat="44.1853593" lon="11.3561722"><ele>909.0</ele><time>2026-04-04T10:53:51.79Z</time></trkpt><trkpt lat="44.1854422" lon="11.356294"><ele>909.0</ele><time>2026-04-04T10:53:52.786Z</time></trkpt><trkpt lat="44.1855113" lon="11.3564308"><ele>909.0</ele><time>2026-04-04T10:53:53.785Z</time></trkpt><trkpt lat="44.185569" lon="11.3565802"><ele>909.0</ele><time>2026-04-04T10:53:54.785Z</time></trkpt><trkpt lat="44.1856115" lon="11.3567387"><ele>911.2</ele><time>2026-04-04T10:53:55.786Z</time></trkpt><trkpt lat="44.1856357" lon="11.3569008"><ele>913.4000000000001</ele><time>2026-04-04T10:53:56.785Z</time></trkpt><trkpt lat="44.1856375" lon="11.3570607"><ele>915.6</ele><time>2026-04-04T10:53:57.787Z</time></trkpt><trkpt lat="44.1856175" lon="11.3572097"><ele>917.8</ele><time>2026-04-04T10:53:58.787Z</time></trkpt><trkpt lat="44.185572" lon="11.357336"><ele>920.0</ele><time>2026-04-04T10:53:59.787Z</time></trkpt><trkpt lat="44.1855037" lon="11.3574342"><ele>920.8</ele><time>2026-04-04T10:54:00.787Z</time></trkpt><trkpt lat="44.1854195" lon="11.3575048"><ele>921.6</ele><time>2026-04-04T10:54:01.787Z</time></trkpt><trkpt lat="44.1853302" lon="11.3575683"><ele>922.4000000000001</ele><time>2026-04-04T10:54:02.787Z</time></trkpt><trkpt lat="44.1852498" lon="11.3576535"><ele>923.2</ele><time>2026-04-04T10:54:03.786Z</time></trkpt><trkpt lat="44.18519" lon="11.3577703"><ele>924.0</ele><time>2026-04-04T10:54:04.786Z</time></trkpt><trkpt lat="44.1851555" lon="11.3579098"><ele>922.75</ele><time>2026-04-04T10:54:05.786Z</time></trkpt><trkpt lat="44.18514" lon="11.3580623"><ele>921.5</ele><time>2026-04-04T10:54:06.788Z</time></trkpt><trkpt lat="44.1851327" lon="11.3582238"><ele>920.25</ele><time>2026-04-04T10:54:07.788Z</time></trkpt><trkpt lat="44.185125" lon="11.3583845"><ele>919.0</ele><time>2026-04-04T10:54:08.785Z</time></trkpt><trkpt lat="44.1851127" lon="11.3585457"><ele>919.0</ele><time>2026-04-04T10:54:09.788Z</time></trkpt><trkpt lat="44.1850958" lon="11.3587077"><ele>919.0</ele><time>2026-04-04T10:54:10.788Z</time></trkpt><trkpt lat="44.1850758" lon="11.3588692"><ele>919.0</ele><time>2026-04-04T10:54:11.789Z</time></trkpt><trkpt lat="44.1850542" lon="11.3590318"><ele>919.0</ele><time>2026-04-04T10:54:12.787Z</time></trkpt><trkpt lat="44.1850267" lon="11.3591938"><ele>917.25</ele><time>2026-04-04T10:54:13.786Z</time></trkpt><trkpt lat="44.1849953" lon="11.3593552"><ele>915.5</ele><time>2026-04-04T10:54:14.787Z</time></trkpt><trkpt lat="44.1849637" lon="11.3595168"><ele>913.75</ele><time>2026-04-04T10:54:15.787Z</time></trkpt><trkpt lat="44.1849295" lon="11.3596775"><ele>912.0</ele><time>2026-04-04T10:54:16.786Z</time></trkpt><trkpt lat="44.1848943" lon="11.3598367"><ele>910.5</ele><time>2026-04-04T10:54:17.783Z</time></trkpt><trkpt lat="44.1848578" lon="11.3599938"><ele>909.0</ele><time>2026-04-04T10:54:18.783Z</time></trkpt><trkpt lat="44.1848227" lon="11.3601495"><ele>907.5</ele><time>2026-04-04T10:54:19.785Z</time></trkpt><trkpt lat="44.1847887" lon="11.3603033"><ele>906.0</ele><time>2026-04-04T10:54:20.782Z</time></trkpt><trkpt lat="44.1847563" lon="11.3604575"><ele>914.0</ele><time>2026-04-04T10:54:21.785Z</time></trkpt><trkpt lat="44.1847262" lon="11.3606123"><ele>922.0</ele><time>2026-04-04T10:54:22.785Z</time></trkpt><trkpt lat="44.1846987" lon="11.3607678"><ele>930.0</ele><time>2026-04-04T10:54:23.783Z</time></trkpt><trkpt lat="44.184675" lon="11.360925"><ele>938.0</ele><time>2026-04-04T10:54:24.784Z</time></trkpt><trkpt lat="44.1846575" lon="11.3610857"><ele>938.0</ele><time>2026-04-04T10:54:25.785Z</time></trkpt><trkpt lat="44.1846492" lon="11.3612498"><ele>938.0</ele><time>2026-04-04T10:54:26.784Z</time></trkpt><trkpt lat="44.1846487" lon="11.3614172"><ele>938.0</ele><time>2026-04-04T10:54:27.787Z</time></trkpt><trkpt lat="44.1846565" lon="11.3615848"><ele>938.0</ele><time>2026-04-04T10:54:28.785Z</time></trkpt><trkpt lat="44.184675" lon="11.3617532"><ele>935.25</ele><time>2026-04-04T10:54:29.785Z</time></trkpt><trkpt lat="44.184697" lon="11.3619145"><ele>932.5</ele><time>2026-04-04T10:54:30.786Z</time></trkpt><trkpt lat="44.1847235" lon="11.36207"><ele>929.75</ele><time>2026-04-04T10:54:31.785Z</time></trkpt><trkpt lat="44.1847552" lon="11.3622228"><ele>927.0</ele><time>2026-04-04T10:54:32.785Z</time></trkpt><trkpt lat="44.1847885" lon="11.3623728"><ele>922.0</ele><time>2026-04-04T10:54:33.784Z</time></trkpt><trkpt lat="44.1848252" lon="11.3625167"><ele>917.0</ele><time>2026-04-04T10:54:34.787Z</time></trkpt><trkpt lat="44.1848652" lon="11.3626577"><ele>912.0</ele><time>2026-04-04T10:54:35.786Z</time></trkpt><trkpt lat="44.1848985" lon="11.362794"><ele>907.0</ele><time>2026-04-04T10:54:36.788Z</time></trkpt><trkpt lat="44.1849175" lon="11.3629243"><ele>902.0</ele><time>2026-04-04T10:54:37.788Z</time></trkpt><trkpt lat="44.1849228" lon="11.3630485"><ele>901.5000000000001</ele><time>2026-04-04T10:54:38.788Z</time></trkpt><trkpt lat="44.1849152" lon="11.3631607"><ele>901.0</ele><time>2026-04-04T10:54:39.786Z</time></trkpt><trkpt lat="44.1849482" lon="11.3633097"><ele>900.5</ele><time>2026-04-04T10:54:41.785Z</time></trkpt><trkpt lat="44.1850047" lon="11.3633718"><ele>900.0</ele><time>2026-04-04T10:54:42.786Z</time></trkpt><trkpt lat="44.1850727" lon="11.36344"><ele>899.5000000000001</ele><time>2026-04-04T10:54:43.783Z</time></trkpt><trkpt lat="44.1851383" lon="11.3635087"><ele>899.0</ele><time>2026-04-04T10:54:44.785Z</time></trkpt><trkpt lat="44.1852063" lon="11.3635658"><ele>899.0000000000001</ele><time>2026-04-04T10:54:45.785Z</time></trkpt><trkpt lat="44.1852692" lon="11.363627"><ele>899.0</ele><time>2026-04-04T10:54:46.788Z</time></trkpt><trkpt lat="44.1853255" lon="11.3636933"><ele>899.0</ele><time>2026-04-04T10:54:47.787Z</time></trkpt><trkpt lat="44.1853697" lon="11.3637618"><ele>899.0</ele><time>2026-04-04T10:54:48.788Z</time></trkpt><trkpt lat="44.1854727" lon="11.3638783"><ele>899.0000000000001</ele><time>2026-04-04T10:54:50.787Z</time></trkpt><trkpt lat="44.1855465" lon="11.3639548"><ele>899.0</ele><time>2026-04-04T10:54:51.786Z</time></trkpt><trkpt lat="44.1856338" lon="11.3640478"><ele>898.25</ele><time>2026-04-04T10:54:52.789Z</time></trkpt><trkpt lat="44.1857305" lon="11.3641397"><ele>897.5</ele><time>2026-04-04T10:54:53.786Z</time></trkpt><trkpt lat="44.1858283" lon="11.364233"><ele>896.75</ele><time>2026-04-04T10:54:54.786Z</time></trkpt><trkpt lat="44.1859232" lon="11.3643148"><ele>896.0</ele><time>2026-04-04T10:54:55.787Z</time></trkpt><trkpt lat="44.1860105" lon="11.3643905"><ele>896.0</ele><time>2026-04-04T10:54:56.786Z</time></trkpt><trkpt lat="44.1860815" lon="11.3644753"><ele>895.9999999999999</ele><time>2026-04-04T10:54:57.786Z</time></trkpt><trkpt lat="44.1861345" lon="11.3645695"><ele>895.9999999999999</ele><time>2026-04-04T10:54:58.787Z</time></trkpt><trkpt lat="44.1861767" lon="11.3646853"><ele>896.0</ele><time>2026-04-04T10:54:59.786Z</time></trkpt><trkpt lat="44.1862162" lon="11.364804"><ele>896.0</ele><time>2026-04-04T10:55:00.787Z</time></trkpt><trkpt lat="44.1862603" lon="11.3649087"><ele>895.6666666666667</ele><time>2026-04-04T10:55:01.786Z</time></trkpt><trkpt lat="44.1863107" lon="11.3650037"><ele>895.3333333333334</ele><time>2026-04-04T10:55:02.786Z</time></trkpt><trkpt lat="44.1863598" lon="11.3651005"><ele>895.0</ele><time>2026-04-04T10:55:03.787Z</time></trkpt><trkpt lat="44.1864012" lon="11.3651965"><ele>894.6666666666667</ele><time>2026-04-04T10:55:04.788Z</time></trkpt><trkpt lat="44.1864402" lon="11.3652862"><ele>894.3333333333334</ele><time>2026-04-04T10:55:05.787Z</time></trkpt><trkpt lat="44.1864838" lon="11.3653787"><ele>894.0</ele><time>2026-04-04T10:55:06.79Z</time></trkpt><trkpt lat="44.1865225" lon="11.3654672"><ele>893.8333333333334</ele><time>2026-04-04T10:55:07.785Z</time></trkpt><trkpt lat="44.1865662" lon="11.3655467"><ele>893.6666666666667</ele><time>2026-04-04T10:55:08.783Z</time></trkpt><trkpt lat="44.186625" lon="11.3656208"><ele>893.5</ele><time>2026-04-04T10:55:09.785Z</time></trkpt><trkpt lat="44.1866932" lon="11.3656637"><ele>893.3333333333334</ele><time>2026-04-04T10:55:10.786Z</time></trkpt><trkpt lat="44.1867652" lon="11.3656933"><ele>893.1666666666667</ele><time>2026-04-04T10:55:11.788Z</time></trkpt><trkpt lat="44.186843" lon="11.3657265"><ele>893.0</ele><time>2026-04-04T10:55:12.787Z</time></trkpt><trkpt lat="44.1869138" lon="11.365766"><ele>893.0000000000001</ele><time>2026-04-04T10:55:13.786Z</time></trkpt><trkpt lat="44.1869858" lon="11.3658143"><ele>893.0</ele><time>2026-04-04T10:55:14.786Z</time></trkpt><trkpt lat="44.1870588" lon="11.3658645"><ele>893.0</ele><time>2026-04-04T10:55:15.787Z</time></trkpt><trkpt lat="44.1871298" lon="11.3659185"><ele>893.0</ele><time>2026-04-04T10:55:16.786Z</time></trkpt><trkpt lat="44.1871932" lon="11.3659598"><ele>893.0000000000001</ele><time>2026-04-04T10:55:17.785Z</time></trkpt><trkpt lat="44.1873093" lon="11.3660127"><ele>893.0</ele><time>2026-04-04T10:55:19.788Z</time></trkpt><trkpt lat="44.1874172" lon="11.3660743"><ele>893.2857142857143</ele><time>2026-04-04T10:55:21.789Z</time></trkpt><trkpt lat="44.1874715" lon="11.3661207"><ele>893.5714285714287</ele><time>2026-04-04T10:55:22.787Z</time></trkpt><trkpt lat="44.1875205" lon="11.3661822"><ele>893.8571428571429</ele><time>2026-04-04T10:55:23.786Z</time></trkpt><trkpt lat="44.1875698" lon="11.3662573"><ele>894.1428571428571</ele><time>2026-04-04T10:55:24.787Z</time></trkpt><trkpt lat="44.1876178" lon="11.366345"><ele>894.4285714285714</ele><time>2026-04-04T10:55:25.786Z</time></trkpt><trkpt lat="44.187672" lon="11.366433"><ele>894.7142857142857</ele><time>2026-04-04T10:55:26.787Z</time></trkpt><trkpt lat="44.1877315" lon="11.3665153"><ele>895.0</ele><time>2026-04-04T10:55:27.787Z</time></trkpt><trkpt lat="44.187787" lon="11.3665673"><ele>893.2</ele><time>2026-04-04T10:55:28.788Z</time></trkpt><trkpt lat="44.187856" lon="11.3666355"><ele>891.4</ele><time>2026-04-04T10:55:30.786Z</time></trkpt><trkpt lat="44.1879202" lon="11.3667485"><ele>889.5999999999999</ele><time>2026-04-04T10:55:32.785Z</time></trkpt><trkpt lat="44.1880167" lon="11.366843"><ele>887.8</ele><time>2026-04-04T10:55:34.784Z</time></trkpt><trkpt lat="44.1881147" lon="11.3668598"><ele>886.0</ele><time>2026-04-04T10:55:36.788Z</time></trkpt><trkpt lat="44.1882235" lon="11.366856"><ele>885.9999999999999</ele><time>2026-04-04T10:55:38.788Z</time></trkpt><trkpt lat="44.1882913" lon="11.3668848"><ele>886.0</ele><time>2026-04-04T10:55:39.785Z</time></trkpt><trkpt lat="44.1883682" lon="11.3669293"><ele>886.0</ele><time>2026-04-04T10:55:40.787Z</time></trkpt><trkpt lat="44.1884492" lon="11.3669912"><ele>886.0</ele><time>2026-04-04T10:55:41.787Z</time></trkpt><trkpt lat="44.188525" lon="11.3670738"><ele>885.9999999999999</ele><time>2026-04-04T10:55:42.789Z</time></trkpt><trkpt lat="44.1885867" lon="11.3671562"><ele>886.0</ele><time>2026-04-04T10:55:43.788Z</time></trkpt><trkpt lat="44.188642" lon="11.367229"><ele>884.8</ele><time>2026-04-04T10:55:44.785Z</time></trkpt><trkpt lat="44.1886912" lon="11.3672892"><ele>883.5999999999999</ele><time>2026-04-04T10:55:45.788Z</time></trkpt><trkpt lat="44.188788" lon="11.367383"><ele>882.4</ele><time>2026-04-04T10:55:47.786Z</time></trkpt><trkpt lat="44.188849" lon="11.367454"><ele>881.2</ele><time>2026-04-04T10:55:49.789Z</time></trkpt><trkpt lat="44.1889127" lon="11.3675558"><ele>880.0</ele><time>2026-04-04T10:55:51.787Z</time></trkpt><trkpt lat="44.1890072" lon="11.3676493"><ele>880.6666666666666</ele><time>2026-04-04T10:55:53.785Z</time></trkpt><trkpt lat="44.1891157" lon="11.3677018"><ele>881.3333333333333</ele><time>2026-04-04T10:55:55.785Z</time></trkpt><trkpt lat="44.1891767" lon="11.3677385"><ele>882.0</ele><time>2026-04-04T10:55:56.785Z</time></trkpt><trkpt lat="44.1892435" lon="11.3677605"><ele>882.6666666666667</ele><time>2026-04-04T10:55:57.784Z</time></trkpt><trkpt lat="44.189309" lon="11.3677827"><ele>883.3333333333334</ele><time>2026-04-04T10:55:58.784Z</time></trkpt><trkpt lat="44.1894128" lon="11.3678482"><ele>884.0</ele><time>2026-04-04T10:56:00.787Z</time></trkpt><trkpt lat="44.1895075" lon="11.3679318"><ele>884.0</ele><time>2026-04-04T10:56:02.786Z</time></trkpt><trkpt lat="44.1896377" lon="11.3679833"><ele>884.0000000000001</ele><time>2026-04-04T10:56:04.786Z</time></trkpt><trkpt lat="44.1897153" lon="11.3680325"><ele>884.0000000000001</ele><time>2026-04-04T10:56:05.786Z</time></trkpt><trkpt lat="44.1897883" lon="11.368097"><ele>884.0</ele><time>2026-04-04T10:56:06.786Z</time></trkpt><trkpt lat="44.1898557" lon="11.3681587"><ele>884.0</ele><time>2026-04-04T10:56:07.786Z</time></trkpt><trkpt lat="44.18992" lon="11.3681955"><ele>885.0000000000001</ele><time>2026-04-04T10:56:08.786Z</time></trkpt><trkpt lat="44.19001" lon="11.3682365"><ele>886.0</ele><time>2026-04-04T10:56:10.79Z</time></trkpt><trkpt lat="44.1900933" lon="11.3682678"><ele>887.0</ele><time>2026-04-04T10:56:13.788Z</time></trkpt><trkpt lat="44.1901823" lon="11.3682927"><ele>888.0</ele><time>2026-04-04T10:56:15.785Z</time></trkpt><trkpt lat="44.1902547" lon="11.368342"><ele>889.0000000000001</ele><time>2026-04-04T10:56:17.787Z</time></trkpt><trkpt lat="44.1903372" lon="11.3683675"><ele>890.0</ele><time>2026-04-04T10:56:19.785Z</time></trkpt><trkpt lat="44.1904367" lon="11.368446"><ele>890.0</ele><time>2026-04-04T10:56:21.784Z</time></trkpt><trkpt lat="44.1905278" lon="11.3685323"><ele>890.0</ele><time>2026-04-04T10:56:23.785Z</time></trkpt><trkpt lat="44.1906193" lon="11.3686183"><ele>890.0</ele><time>2026-04-04T10:56:25.786Z</time></trkpt><trkpt lat="44.190697" lon="11.3687022"><ele>890.0</ele><time>2026-04-04T10:56:27.786Z</time></trkpt><trkpt lat="44.1907663" lon="11.3688232"><ele>890.0</ele><time>2026-04-04T10:56:29.786Z</time></trkpt><trkpt lat="44.1908073" lon="11.3689075"><ele>892.8</ele><time>2026-04-04T10:56:30.786Z</time></trkpt><trkpt lat="44.1908398" lon="11.3690078"><ele>895.6</ele><time>2026-04-04T10:56:31.786Z</time></trkpt><trkpt lat="44.1908852" lon="11.3691083"><ele>898.4000000000001</ele><time>2026-04-04T10:56:32.786Z</time></trkpt><trkpt lat="44.1909505" lon="11.3692017"><ele>901.2</ele><time>2026-04-04T10:56:33.788Z</time></trkpt><trkpt lat="44.191022" lon="11.369304"><ele>904.0</ele><time>2026-04-04T10:56:34.786Z</time></trkpt><trkpt lat="44.1910845" lon="11.3693998"><ele>903.9999999999999</ele><time>2026-04-04T10:56:35.785Z</time></trkpt><trkpt lat="44.1911397" lon="11.3694867"><ele>904.0</ele><time>2026-04-04T10:56:36.788Z</time></trkpt><trkpt lat="44.1911893" lon="11.3695612"><ele>904.0</ele><time>2026-04-04T10:56:37.787Z</time></trkpt><trkpt lat="44.191238" lon="11.3696308"><ele>904.0</ele><time>2026-04-04T10:56:38.786Z</time></trkpt><trkpt lat="44.191284" lon="11.3696933"><ele>903.9999999999999</ele><time>2026-04-04T10:56:39.787Z</time></trkpt><trkpt lat="44.1913722" lon="11.3698298"><ele>904.0</ele><time>2026-04-04T10:56:41.787Z</time></trkpt><trkpt lat="44.1914272" lon="11.3699155"><ele>903.8000000000001</ele><time>2026-04-04T10:56:42.787Z</time></trkpt><trkpt lat="44.1914847" lon="11.3700035"><ele>903.6000000000001</ele><time>2026-04-04T10:56:43.788Z</time></trkpt><trkpt lat="44.1915492" lon="11.3700857"><ele>903.4</ele><time>2026-04-04T10:56:44.786Z</time></trkpt><trkpt lat="44.1916172" lon="11.3701543"><ele>903.2</ele><time>2026-04-04T10:56:45.784Z</time></trkpt><trkpt lat="44.1916797" lon="11.3702098"><ele>903.0</ele><time>2026-04-04T10:56:46.786Z</time></trkpt><trkpt lat="44.1917707" lon="11.3703218"><ele>904.5999999999999</ele><time>2026-04-04T10:56:48.787Z</time></trkpt><trkpt lat="44.1918383" lon="11.3704553"><ele>906.1999999999999</ele><time>2026-04-04T10:56:50.788Z</time></trkpt><trkpt lat="44.1918722" lon="11.3705468"><ele>907.8</ele><time>2026-04-04T10:56:51.788Z</time></trkpt><trkpt lat="44.191914" lon="11.3706548"><ele>909.4</ele><time>2026-04-04T10:56:52.788Z</time></trkpt><trkpt lat="44.1919597" lon="11.3707815"><ele>911.0</ele><time>2026-04-04T10:56:53.788Z</time></trkpt><trkpt lat="44.1920082" lon="11.3709012"><ele>911.0000000000001</ele><time>2026-04-04T10:56:54.789Z</time></trkpt><trkpt lat="44.1920658" lon="11.371005"><ele>911.0</ele><time>2026-04-04T10:56:55.788Z</time></trkpt><trkpt lat="44.192129" lon="11.3711122"><ele>911.0</ele><time>2026-04-04T10:56:56.79Z</time></trkpt><trkpt lat="44.1921847" lon="11.371224"><ele>911.0</ele><time>2026-04-04T10:56:57.787Z</time></trkpt><trkpt lat="44.1922303" lon="11.3713177"><ele>911.0000000000001</ele><time>2026-04-04T10:56:58.788Z</time></trkpt><trkpt lat="44.1922702" lon="11.3713958"><ele>911.0</ele><time>2026-04-04T10:56:59.787Z</time></trkpt><trkpt lat="44.1923092" lon="11.3714812"><ele>914.0</ele><time>2026-04-04T10:57:00.789Z</time></trkpt><trkpt lat="44.1923553" lon="11.37158"><ele>916.9999999999999</ele><time>2026-04-04T10:57:01.787Z</time></trkpt><trkpt lat="44.1924103" lon="11.3716817"><ele>919.9999999999999</ele><time>2026-04-04T10:57:02.787Z</time></trkpt><trkpt lat="44.192473" lon="11.3717872"><ele>923.0</ele><time>2026-04-04T10:57:03.787Z</time></trkpt><trkpt lat="44.1925435" lon="11.3718982"><ele>926.0</ele><time>2026-04-04T10:57:04.789Z</time></trkpt><trkpt lat="44.19262" lon="11.3720072"><ele>926.0000000000001</ele><time>2026-04-04T10:57:05.788Z</time></trkpt><trkpt lat="44.1926853" lon="11.3720893"><ele>926.0</ele><time>2026-04-04T10:57:06.789Z</time></trkpt><trkpt lat="44.1927462" lon="11.3721638"><ele>926.0</ele><time>2026-04-04T10:57:07.788Z</time></trkpt><trkpt lat="44.1928022" lon="11.3722332"><ele>926.0</ele><time>2026-04-04T10:57:08.788Z</time></trkpt><trkpt lat="44.1928653" lon="11.3722985"><ele>926.0000000000001</ele><time>2026-04-04T10:57:09.785Z</time></trkpt><trkpt lat="44.1929335" lon="11.3723712"><ele>926.0</ele><time>2026-04-04T10:57:10.785Z</time></trkpt><trkpt lat="44.1929955" lon="11.372439"><ele>926.0</ele><time>2026-04-04T10:57:11.786Z</time></trkpt><trkpt lat="44.1930563" lon="11.3725205"><ele>925.9999999999999</ele><time>2026-04-04T10:57:12.787Z</time></trkpt><trkpt lat="44.193123" lon="11.3726122"><ele>925.9999999999999</ele><time>2026-04-04T10:57:13.788Z</time></trkpt><trkpt lat="44.1931985" lon="11.3726873"><ele>926.0</ele><time>2026-04-04T10:57:14.788Z</time></trkpt><trkpt lat="44.1932787" lon="11.3727542"><ele>926.0</ele><time>2026-04-04T10:57:15.786Z</time></trkpt><trkpt lat="44.193352" lon="11.3728185"><ele>926.0000000000001</ele><time>2026-04-04T10:57:16.787Z</time></trkpt><trkpt lat="44.1934153" lon="11.3728853"><ele>926.0</ele><time>2026-04-04T10:57:17.788Z</time></trkpt><trkpt lat="44.193468" lon="11.3729525"><ele>926.0</ele><time>2026-04-04T10:57:18.787Z</time></trkpt><trkpt lat="44.1935258" lon="11.3730135"><ele>926.0</ele><time>2026-04-04T10:57:19.788Z</time></trkpt><trkpt lat="44.1936052" lon="11.373115"><ele>926.0000000000001</ele><time>2026-04-04T10:57:21.787Z</time></trkpt><trkpt lat="44.1936918" lon="11.3731925"><ele>926.0</ele><time>2026-04-04T10:57:23.787Z</time></trkpt><trkpt lat="44.1937793" lon="11.373312"><ele>926.0</ele><time>2026-04-04T10:57:25.788Z</time></trkpt><trkpt lat="44.1938218" lon="11.373379"><ele>925.9999999999999</ele><time>2026-04-04T10:57:26.787Z</time></trkpt><trkpt lat="44.1938667" lon="11.3734437"><ele>926.0</ele><time>2026-04-04T10:57:27.787Z</time></trkpt><trkpt lat="44.193914" lon="11.3735068"><ele>926.0</ele><time>2026-04-04T10:57:28.788Z</time></trkpt><trkpt lat="44.193962" lon="11.3735723"><ele>925.9999999999999</ele><time>2026-04-04T10:57:29.788Z</time></trkpt><trkpt lat="44.1940005" lon="11.3736432"><ele>926.0</ele><time>2026-04-04T10:57:30.787Z</time></trkpt><trkpt lat="44.1940327" lon="11.3737282"><ele>926.0</ele><time>2026-04-04T10:57:31.788Z</time></trkpt><trkpt lat="44.1940667" lon="11.3738235"><ele>928.1666666666667</ele><time>2026-04-04T10:57:32.785Z</time></trkpt><trkpt lat="44.1941025" lon="11.3739163"><ele>930.3333333333334</ele><time>2026-04-04T10:57:33.785Z</time></trkpt><trkpt lat="44.1941392" lon="11.3739943"><ele>932.5</ele><time>2026-04-04T10:57:34.784Z</time></trkpt><trkpt lat="44.1941853" lon="11.3740742"><ele>934.6666666666667</ele><time>2026-04-04T10:57:35.784Z</time></trkpt><trkpt lat="44.1942458" lon="11.3741468"><ele>936.8333333333334</ele><time>2026-04-04T10:57:36.791Z</time></trkpt><trkpt lat="44.1943187" lon="11.3742185"><ele>939.0</ele><time>2026-04-04T10:57:37.786Z</time></trkpt><trkpt lat="44.1943867" lon="11.374299"><ele>939.0</ele><time>2026-04-04T10:57:38.787Z</time></trkpt><trkpt lat="44.1944458" lon="11.374394"><ele>939.0</ele><time>2026-04-04T10:57:39.789Z</time></trkpt><trkpt lat="44.1945087" lon="11.3744872"><ele>939.0</ele><time>2026-04-04T10:57:40.786Z</time></trkpt><trkpt lat="44.1945675" lon="11.3745822"><ele>939.0</ele><time>2026-04-04T10:57:41.787Z</time></trkpt><trkpt lat="44.194616" lon="11.3746745"><ele>939.0</ele><time>2026-04-04T10:57:42.787Z</time></trkpt><trkpt lat="44.1946547" lon="11.3747663"><ele>939.0</ele><time>2026-04-04T10:57:43.787Z</time></trkpt><trkpt lat="44.1946847" lon="11.3748635"><ele>938.7142857142858</ele><time>2026-04-04T10:57:44.786Z</time></trkpt><trkpt lat="44.1947155" lon="11.3749752"><ele>938.4285714285713</ele><time>2026-04-04T10:57:45.789Z</time></trkpt><trkpt lat="44.1947563" lon="11.3750765"><ele>938.1428571428571</ele><time>2026-04-04T10:57:46.787Z</time></trkpt><trkpt lat="44.1948008" lon="11.3751518"><ele>937.8571428571429</ele><time>2026-04-04T10:57:47.787Z</time></trkpt><trkpt lat="44.1948482" lon="11.3752263"><ele>937.5714285714287</ele><time>2026-04-04T10:57:48.787Z</time></trkpt><trkpt lat="44.1948925" lon="11.3753007"><ele>937.2857142857142</ele><time>2026-04-04T10:57:49.786Z</time></trkpt><trkpt lat="44.1949372" lon="11.3753677"><ele>937.0</ele><time>2026-04-04T10:57:50.787Z</time></trkpt><trkpt lat="44.1950528" lon="11.3754423"><ele>937.8333333333333</ele><time>2026-04-04T10:57:52.787Z</time></trkpt><trkpt lat="44.1951237" lon="11.3754692"><ele>938.6666666666666</ele><time>2026-04-04T10:57:53.791Z</time></trkpt><trkpt lat="44.1952025" lon="11.3754933"><ele>939.5</ele><time>2026-04-04T10:57:54.787Z</time></trkpt><trkpt lat="44.1952813" lon="11.3755217"><ele>940.3333333333333</ele><time>2026-04-04T10:57:55.785Z</time></trkpt><trkpt lat="44.1953518" lon="11.3755553"><ele>941.1666666666666</ele><time>2026-04-04T10:57:56.787Z</time></trkpt><trkpt lat="44.1954287" lon="11.3755925"><ele>942.0</ele><time>2026-04-04T10:57:57.785Z</time></trkpt><trkpt lat="44.1955098" lon="11.3756208"><ele>941.8333333333334</ele><time>2026-04-04T10:57:58.784Z</time></trkpt><trkpt lat="44.1955908" lon="11.375629"><ele>941.6666666666667</ele><time>2026-04-04T10:57:59.785Z</time></trkpt><trkpt lat="44.195673" lon="11.3756213"><ele>941.5</ele><time>2026-04-04T10:58:00.785Z</time></trkpt><trkpt lat="44.1957525" lon="11.3756207"><ele>941.3333333333334</ele><time>2026-04-04T10:58:01.785Z</time></trkpt><trkpt lat="44.1958282" lon="11.3756427"><ele>941.1666666666667</ele><time>2026-04-04T10:58:02.786Z</time></trkpt><trkpt lat="44.1958968" lon="11.3756728"><ele>941.0</ele><time>2026-04-04T10:58:03.786Z</time></trkpt><trkpt lat="44.1959592" lon="11.3757007"><ele>941.0000000000001</ele><time>2026-04-04T10:58:04.786Z</time></trkpt><trkpt lat="44.196078" lon="11.3757492"><ele>941.0</ele><time>2026-04-04T10:58:06.788Z</time></trkpt><trkpt lat="44.1961405" lon="11.375783"><ele>941.0</ele><time>2026-04-04T10:58:07.787Z</time></trkpt><trkpt lat="44.1962052" lon="11.375803"><ele>941.0</ele><time>2026-04-04T10:58:08.787Z</time></trkpt><trkpt lat="44.1962793" lon="11.375813"><ele>941.0000000000001</ele><time>2026-04-04T10:58:09.79Z</time></trkpt><trkpt lat="44.1963715" lon="11.3758255"><ele>941.0</ele><time>2026-04-04T10:58:10.787Z</time></trkpt><trkpt lat="44.1964597" lon="11.3758523"><ele>939.0</ele><time>2026-04-04T10:58:11.787Z</time></trkpt><trkpt lat="44.1965367" lon="11.3759013"><ele>936.9999999999999</ele><time>2026-04-04T10:58:12.785Z</time></trkpt><trkpt lat="44.1966003" lon="11.3759658"><ele>934.9999999999999</ele><time>2026-04-04T10:58:13.788Z</time></trkpt><trkpt lat="44.196653" lon="11.3760233"><ele>933.0</ele><time>2026-04-04T10:58:14.786Z</time></trkpt><trkpt lat="44.1967612" lon="11.3760945"><ele>931.0</ele><time>2026-04-04T10:58:16.788Z</time></trkpt><trkpt lat="44.196871" lon="11.3761902"><ele>931.0</ele><time>2026-04-04T10:58:18.787Z</time></trkpt><trkpt lat="44.1969307" lon="11.3762477"><ele>930.9999999999999</ele><time>2026-04-04T10:58:19.786Z</time></trkpt><trkpt lat="44.1970168" lon="11.3763442"><ele>930.9999999999999</ele><time>2026-04-04T10:58:21.788Z</time></trkpt><trkpt lat="44.19712" lon="11.3763747"><ele>931.0</ele><time>2026-04-04T10:58:23.785Z</time></trkpt><trkpt lat="44.1972387" lon="11.3763658"><ele>931.0</ele><time>2026-04-04T10:58:25.784Z</time></trkpt><trkpt lat="44.1973022" lon="11.3763698"><ele>932.4999999999999</ele><time>2026-04-04T10:58:26.785Z</time></trkpt><trkpt lat="44.1973648" lon="11.3763827"><ele>934.0</ele><time>2026-04-04T10:58:27.787Z</time></trkpt><trkpt lat="44.1974267" lon="11.3764032"><ele>935.5</ele><time>2026-04-04T10:58:28.787Z</time></trkpt><trkpt lat="44.1974952" lon="11.3764275"><ele>937.0</ele><time>2026-04-04T10:58:29.786Z</time></trkpt><trkpt lat="44.1975665" lon="11.3764538"><ele>938.4999999999999</ele><time>2026-04-04T10:58:30.787Z</time></trkpt><trkpt lat="44.1976375" lon="11.3764812"><ele>940.0</ele><time>2026-04-04T10:58:31.787Z</time></trkpt><trkpt lat="44.1977527" lon="11.3764985"><ele>939.9999999999999</ele><time>2026-04-04T10:58:33.786Z</time></trkpt><trkpt lat="44.197863" lon="11.376516"><ele>940.0</ele><time>2026-04-04T10:58:35.786Z</time></trkpt><trkpt lat="44.1979538" lon="11.3765335"><ele>940.0</ele><time>2026-04-04T10:58:37.787Z</time></trkpt><trkpt lat="44.1980152" lon="11.3765745"><ele>940.0</ele><time>2026-04-04T10:58:39.785Z</time></trkpt><trkpt lat="44.198073" lon="11.376632"><ele>939.9999999999999</ele><time>2026-04-04T10:58:41.786Z</time></trkpt><trkpt lat="44.1981173" lon="11.376696"><ele>940.0</ele><time>2026-04-04T10:58:43.785Z</time></trkpt><trkpt lat="44.1981405" lon="11.3767787"><ele>941.4</ele><time>2026-04-04T10:58:45.785Z</time></trkpt><trkpt lat="44.1981863" lon="11.3768895"><ele>942.8</ele><time>2026-04-04T10:58:48.785Z</time></trkpt><trkpt lat="44.1982642" lon="11.3769872"><ele>944.2</ele><time>2026-04-04T10:58:50.785Z</time></trkpt><trkpt lat="44.1983367" lon="11.3770972"><ele>945.6</ele><time>2026-04-04T10:58:52.787Z</time></trkpt><trkpt lat="44.1984137" lon="11.37721"><ele>947.0</ele><time>2026-04-04T10:58:54.787Z</time></trkpt><trkpt lat="44.1984997" lon="11.3772987"><ele>947.2</ele><time>2026-04-04T10:58:56.784Z</time></trkpt><trkpt lat="44.1985825" lon="11.3774012"><ele>947.4000000000001</ele><time>2026-04-04T10:58:58.785Z</time></trkpt><trkpt lat="44.1986488" lon="11.3774993"><ele>947.5999999999999</ele><time>2026-04-04T10:59:00.787Z</time></trkpt><trkpt lat="44.1986907" lon="11.3775983"><ele>947.8</ele><time>2026-04-04T10:59:02.786Z</time></trkpt><trkpt lat="44.1987405" lon="11.3777123"><ele>948.0</ele><time>2026-04-04T10:59:04.786Z</time></trkpt><trkpt lat="44.1988168" lon="11.377799"><ele>948.0</ele><time>2026-04-04T10:59:06.788Z</time></trkpt><trkpt lat="44.1988933" lon="11.3778717"><ele>948.0</ele><time>2026-04-04T10:59:08.787Z</time></trkpt><trkpt lat="44.1989438" lon="11.3779513"><ele>948.0</ele><time>2026-04-04T10:59:10.789Z</time></trkpt><trkpt lat="44.1989857" lon="11.3780353"><ele>948.0</ele><time>2026-04-04T10:59:12.784Z</time></trkpt><trkpt lat="44.1990352" lon="11.3780948"><ele>948.0</ele><time>2026-04-04T10:59:14.785Z</time></trkpt><trkpt lat="44.1990743" lon="11.3781958"><ele>948.0</ele><time>2026-04-04T10:59:17.786Z</time></trkpt><trkpt lat="44.1990967" lon="11.3782818"><ele>948.6666666666666</ele><time>2026-04-04T10:59:19.787Z</time></trkpt><trkpt lat="44.1991148" lon="11.3783693"><ele>949.3333333333333</ele><time>2026-04-04T10:59:21.788Z</time></trkpt><trkpt lat="44.1991342" lon="11.378483"><ele>950.0</ele><time>2026-04-04T10:59:23.788Z</time></trkpt><trkpt lat="44.1991625" lon="11.3785987"><ele>950.6666666666666</ele><time>2026-04-04T10:59:25.787Z</time></trkpt><trkpt lat="44.1991858" lon="11.3786962"><ele>951.3333333333333</ele><time>2026-04-04T10:59:27.787Z</time></trkpt><trkpt lat="44.1992102" lon="11.3788058"><ele>952.0</ele><time>2026-04-04T10:59:29.786Z</time></trkpt><trkpt lat="44.1992605" lon="11.378898"><ele>952.0</ele><time>2026-04-04T10:59:31.787Z</time></trkpt><trkpt lat="44.1992772" lon="11.379006"><ele>952.0</ele><time>2026-04-04T10:59:33.787Z</time></trkpt><trkpt lat="44.199294" lon="11.3791337"><ele>952.0</ele><time>2026-04-04T10:59:35.785Z</time></trkpt><trkpt lat="44.1993497" lon="11.3792652"><ele>952.0</ele><time>2026-04-04T10:59:37.784Z</time></trkpt><trkpt lat="44.1994042" lon="11.3794023"><ele>952.0</ele><time>2026-04-04T10:59:39.786Z</time></trkpt><trkpt lat="44.199469" lon="11.379525"><ele>952.0</ele><time>2026-04-04T10:59:41.787Z</time></trkpt><trkpt lat="44.1995148" lon="11.3796758"><ele>952.0</ele><time>2026-04-04T10:59:43.787Z</time></trkpt><trkpt lat="44.1995583" lon="11.3798232"><ele>952.0</ele><time>2026-04-04T10:59:45.787Z</time></trkpt><trkpt lat="44.1996247" lon="11.3799492"><ele>952.0</ele><time>2026-04-04T10:59:47.788Z</time></trkpt><trkpt lat="44.1996742" lon="11.380105"><ele>951.0</ele><time>2026-04-04T10:59:49.786Z</time></trkpt><trkpt lat="44.1997375" lon="11.3802505"><ele>950.0</ele><time>2026-04-04T10:59:51.787Z</time></trkpt><trkpt lat="44.1998067" lon="11.3803915"><ele>949.0</ele><time>2026-04-04T10:59:53.787Z</time></trkpt><trkpt lat="44.1998472" lon="11.3804673"><ele>948.0</ele><time>2026-04-04T10:59:54.786Z</time></trkpt><trkpt lat="44.1998915" lon="11.3805408"><ele>947.0</ele><time>2026-04-04T10:59:55.788Z</time></trkpt><trkpt lat="44.1999732" lon="11.3806773"><ele>945.8333333333334</ele><time>2026-04-04T10:59:57.787Z</time></trkpt><trkpt lat="44.2000257" lon="11.3807352"><ele>944.6666666666667</ele><time>2026-04-04T10:59:58.787Z</time></trkpt><trkpt lat="44.200089" lon="11.380801"><ele>943.5</ele><time>2026-04-04T10:59:59.788Z</time></trkpt><trkpt lat="44.2001553" lon="11.3808755"><ele>942.3333333333333</ele><time>2026-04-04T11:00:00.785Z</time></trkpt><trkpt lat="44.2002157" lon="11.3809407"><ele>941.1666666666666</ele><time>2026-04-04T11:00:01.785Z</time></trkpt><trkpt lat="44.200268" lon="11.3810025"><ele>940.0</ele><time>2026-04-04T11:00:02.785Z</time></trkpt><trkpt lat="44.2003627" lon="11.3810905"><ele>940.0</ele><time>2026-04-04T11:00:04.786Z</time></trkpt><trkpt lat="44.2004107" lon="11.381149"><ele>939.9999999999999</ele><time>2026-04-04T11:00:05.786Z</time></trkpt><trkpt lat="44.200461" lon="11.381211"><ele>940.0</ele><time>2026-04-04T11:00:06.786Z</time></trkpt><trkpt lat="44.2005227" lon="11.3812788"><ele>940.0</ele><time>2026-04-04T11:00:07.789Z</time></trkpt><trkpt lat="44.2005747" lon="11.3813395"><ele>939.9999999999999</ele><time>2026-04-04T11:00:08.787Z</time></trkpt><trkpt lat="44.200635" lon="11.3814033"><ele>940.0</ele><time>2026-04-04T11:00:09.786Z</time></trkpt><trkpt lat="44.2007048" lon="11.381476"><ele>940.0</ele><time>2026-04-04T11:00:10.787Z</time></trkpt><trkpt lat="44.2007738" lon="11.3815475"><ele>939.3333333333333</ele><time>2026-04-04T11:00:11.786Z</time></trkpt><trkpt lat="44.200829" lon="11.3816055"><ele>938.6666666666666</ele><time>2026-04-04T11:00:12.788Z</time></trkpt><trkpt lat="44.2009308" lon="11.3817173"><ele>938.0</ele><time>2026-04-04T11:00:14.786Z</time></trkpt><trkpt lat="44.2009908" lon="11.3817885"><ele>937.3333333333333</ele><time>2026-04-04T11:00:15.787Z</time></trkpt><trkpt lat="44.2010547" lon="11.3818525"><ele>936.6666666666666</ele><time>2026-04-04T11:00:16.788Z</time></trkpt><trkpt lat="44.2011202" lon="11.3819118"><ele>936.0</ele><time>2026-04-04T11:00:17.786Z</time></trkpt><trkpt lat="44.2011813" lon="11.381971"><ele>936.0</ele><time>2026-04-04T11:00:18.787Z</time></trkpt><trkpt lat="44.2012325" lon="11.38204"><ele>936.0</ele><time>2026-04-04T11:00:19.787Z</time></trkpt><trkpt lat="44.2012707" lon="11.382119"><ele>936.0</ele><time>2026-04-04T11:00:20.786Z</time></trkpt><trkpt lat="44.2013105" lon="11.3821908"><ele>936.0</ele><time>2026-04-04T11:00:21.789Z</time></trkpt><trkpt lat="44.2013765" lon="11.3823218"><ele>936.0</ele><time>2026-04-04T11:00:23.786Z</time></trkpt><trkpt lat="44.2014187" lon="11.3823872"><ele>936.0</ele><time>2026-04-04T11:00:24.787Z</time></trkpt><trkpt lat="44.2015115" lon="11.3824565"><ele>935.7142857142858</ele><time>2026-04-04T11:00:26.784Z</time></trkpt><trkpt lat="44.2015882" lon="11.382499"><ele>935.4285714285716</ele><time>2026-04-04T11:00:28.783Z</time></trkpt><trkpt lat="44.2016305" lon="11.3825705"><ele>935.1428571428571</ele><time>2026-04-04T11:00:30.788Z</time></trkpt><trkpt lat="44.2016723" lon="11.3826363"><ele>934.8571428571429</ele><time>2026-04-04T11:00:31.79Z</time></trkpt><trkpt lat="44.2017192" lon="11.3827185"><ele>934.5714285714286</ele><time>2026-04-04T11:00:32.786Z</time></trkpt><trkpt lat="44.2017878" lon="11.3827972"><ele>934.2857142857142</ele><time>2026-04-04T11:00:33.79Z</time></trkpt><trkpt lat="44.2018405" lon="11.382856"><ele>933.9999999999999</ele><time>2026-04-04T11:00:34.788Z</time></trkpt><trkpt lat="44.2018897" lon="11.3829185"><ele>933.9999999999999</ele><time>2026-04-04T11:00:35.786Z</time></trkpt><trkpt lat="44.2019462" lon="11.3829858"><ele>934.0</ele><time>2026-04-04T11:00:36.786Z</time></trkpt><trkpt lat="44.2019972" lon="11.3830492"><ele>934.0</ele><time>2026-04-04T11:00:37.787Z</time></trkpt><trkpt lat="44.2020627" lon="11.3832042"><ele>934.0</ele><time>2026-04-04T11:00:39.787Z</time></trkpt><trkpt lat="44.2020878" lon="11.3832925"><ele>933.9999999999999</ele><time>2026-04-04T11:00:40.786Z</time></trkpt><trkpt lat="44.2021145" lon="11.3833722"><ele>934.0</ele><time>2026-04-04T11:00:41.787Z</time></trkpt><trkpt lat="44.2021537" lon="11.3834475"><ele>933.9999999999999</ele><time>2026-04-04T11:00:42.788Z</time></trkpt><trkpt lat="44.2021918" lon="11.3835305"><ele>934.0</ele><time>2026-04-04T11:00:43.786Z</time></trkpt><trkpt lat="44.2022217" lon="11.3836197"><ele>933.9999999999999</ele><time>2026-04-04T11:00:44.788Z</time></trkpt><trkpt lat="44.2022632" lon="11.383703"><ele>933.9999999999999</ele><time>2026-04-04T11:00:45.786Z</time></trkpt><trkpt lat="44.2023168" lon="11.383771"><ele>934.0</ele><time>2026-04-04T11:00:46.787Z</time></trkpt><trkpt lat="44.2023712" lon="11.3838507"><ele>933.9999999999999</ele><time>2026-04-04T11:00:47.787Z</time></trkpt><trkpt lat="44.2024157" lon="11.383943"><ele>933.9999999999999</ele><time>2026-04-04T11:00:48.786Z</time></trkpt><trkpt lat="44.2024498" lon="11.3840305"><ele>933.4999999999999</ele><time>2026-04-04T11:00:49.785Z</time></trkpt><trkpt lat="44.20248" lon="11.3841135"><ele>933.0</ele><time>2026-04-04T11:00:50.784Z</time></trkpt><trkpt lat="44.2025273" lon="11.3842618"><ele>932.5</ele><time>2026-04-04T11:00:52.788Z</time></trkpt><trkpt lat="44.2025858" lon="11.3843857"><ele>932.0</ele><time>2026-04-04T11:00:54.788Z</time></trkpt><trkpt lat="44.202622" lon="11.3844597"><ele>931.4999999999999</ele><time>2026-04-04T11:00:55.791Z</time></trkpt><trkpt lat="44.2026687" lon="11.3845282"><ele>931.0</ele><time>2026-04-04T11:00:56.79Z</time></trkpt><trkpt lat="44.2027157" lon="11.384596"><ele>931.0</ele><time>2026-04-04T11:00:57.788Z</time></trkpt><trkpt lat="44.2027642" lon="11.3846608"><ele>931.0</ele><time>2026-04-04T11:00:58.787Z</time></trkpt><trkpt lat="44.2028125" lon="11.384727"><ele>931.0</ele><time>2026-04-04T11:00:59.786Z</time></trkpt><trkpt lat="44.2028663" lon="11.3847777"><ele>931.0</ele><time>2026-04-04T11:01:00.787Z</time></trkpt><trkpt lat="44.2029303" lon="11.3848232"><ele>931.0</ele><time>2026-04-04T11:01:01.787Z</time></trkpt><trkpt lat="44.2029897" lon="11.3848802"><ele>931.0</ele><time>2026-04-04T11:01:02.786Z</time></trkpt><trkpt lat="44.2030445" lon="11.384927"><ele>931.0</ele><time>2026-04-04T11:01:03.788Z</time></trkpt><trkpt lat="44.2030965" lon="11.3849822"><ele>930.3333333333333</ele><time>2026-04-04T11:01:04.787Z</time></trkpt><trkpt lat="44.2031527" lon="11.3850445"><ele>929.6666666666666</ele><time>2026-04-04T11:01:05.787Z</time></trkpt><trkpt lat="44.203196" lon="11.3851115"><ele>929.0</ele><time>2026-04-04T11:01:06.788Z</time></trkpt><trkpt lat="44.2032362" lon="11.38518"><ele>928.3333333333333</ele><time>2026-04-04T11:01:07.786Z</time></trkpt><trkpt lat="44.203289" lon="11.3852342"><ele>927.6666666666666</ele><time>2026-04-04T11:01:08.787Z</time></trkpt><trkpt lat="44.2034068" lon="11.3852863"><ele>927.0</ele><time>2026-04-04T11:01:10.788Z</time></trkpt><trkpt lat="44.2035048" lon="11.3853455"><ele>926.6</ele><time>2026-04-04T11:01:12.788Z</time></trkpt><trkpt lat="44.2035952" lon="11.3854332"><ele>926.2</ele><time>2026-04-04T11:01:14.785Z</time></trkpt><trkpt lat="44.2036717" lon="11.3855473"><ele>925.8</ele><time>2026-04-04T11:01:16.785Z</time></trkpt><trkpt lat="44.203739" lon="11.385661"><ele>925.4</ele><time>2026-04-04T11:01:18.788Z</time></trkpt><trkpt lat="44.2038268" lon="11.385759"><ele>925.0</ele><time>2026-04-04T11:01:20.787Z</time></trkpt><trkpt lat="44.2038885" lon="11.3858227"><ele>924.8333333333333</ele><time>2026-04-04T11:01:21.786Z</time></trkpt><trkpt lat="44.2039527" lon="11.3858998"><ele>924.6666666666666</ele><time>2026-04-04T11:01:22.792Z</time></trkpt><trkpt lat="44.2040077" lon="11.385977"><ele>924.5</ele><time>2026-04-04T11:01:23.786Z</time></trkpt><trkpt lat="44.2040903" lon="11.3860633"><ele>924.3333333333333</ele><time>2026-04-04T11:01:25.786Z</time></trkpt><trkpt lat="44.2041283" lon="11.3861458"><ele>924.1666666666666</ele><time>2026-04-04T11:01:27.788Z</time></trkpt><trkpt lat="44.2041713" lon="11.3862667"><ele>924.0</ele><time>2026-04-04T11:01:29.788Z</time></trkpt><trkpt lat="44.204206" lon="11.3863437"><ele>923.4285714285714</ele><time>2026-04-04T11:01:30.786Z</time></trkpt><trkpt lat="44.2042428" lon="11.386427"><ele>922.8571428571429</ele><time>2026-04-04T11:01:31.788Z</time></trkpt><trkpt lat="44.204282" lon="11.3865033"><ele>922.2857142857142</ele><time>2026-04-04T11:01:32.785Z</time></trkpt><trkpt lat="44.2043243" lon="11.3865798"><ele>921.7142857142857</ele><time>2026-04-04T11:01:33.788Z</time></trkpt><trkpt lat="44.2043695" lon="11.3866628"><ele>921.1428571428571</ele><time>2026-04-04T11:01:34.789Z</time></trkpt><trkpt lat="44.2044172" lon="11.3867563"><ele>920.5714285714284</ele><time>2026-04-04T11:01:35.787Z</time></trkpt><trkpt lat="44.2044612" lon="11.3868385"><ele>919.9999999999999</ele><time>2026-04-04T11:01:36.788Z</time></trkpt><trkpt lat="44.2044947" lon="11.3869188"><ele>920.0</ele><time>2026-04-04T11:01:37.788Z</time></trkpt><trkpt lat="44.2045352" lon="11.3870702"><ele>920.0</ele><time>2026-04-04T11:01:39.785Z</time></trkpt><trkpt lat="44.2046488" lon="11.3871305"><ele>920.0</ele><time>2026-04-04T11:01:41.784Z</time></trkpt><trkpt lat="44.2047297" lon="11.3871317"><ele>920.0</ele><time>2026-04-04T11:01:42.787Z</time></trkpt><trkpt lat="44.2048072" lon="11.3871328"><ele>920.0</ele><time>2026-04-04T11:01:43.788Z</time></trkpt><trkpt lat="44.2048802" lon="11.3871445"><ele>918.3333333333334</ele><time>2026-04-04T11:01:44.786Z</time></trkpt><trkpt lat="44.2049407" lon="11.3871765"><ele>916.6666666666667</ele><time>2026-04-04T11:01:45.787Z</time></trkpt><trkpt lat="44.2049972" lon="11.3872205"><ele>915.0</ele><time>2026-04-04T11:01:46.787Z</time></trkpt><trkpt lat="44.2050577" lon="11.3872698"><ele>913.3333333333333</ele><time>2026-04-04T11:01:47.786Z</time></trkpt><trkpt lat="44.2051252" lon="11.3873312"><ele>911.6666666666666</ele><time>2026-04-04T11:01:48.788Z</time></trkpt><trkpt lat="44.2051973" lon="11.3874012"><ele>910.0</ele><time>2026-04-04T11:01:49.786Z</time></trkpt><trkpt lat="44.2052792" lon="11.3874733"><ele>909.8333333333333</ele><time>2026-04-04T11:01:50.787Z</time></trkpt><trkpt lat="44.2053613" lon="11.387544"><ele>909.6666666666666</ele><time>2026-04-04T11:01:51.787Z</time></trkpt><trkpt lat="44.20544" lon="11.3876065"><ele>909.5</ele><time>2026-04-04T11:01:52.788Z</time></trkpt><trkpt lat="44.2055108" lon="11.3876733"><ele>909.3333333333333</ele><time>2026-04-04T11:01:53.786Z</time></trkpt><trkpt lat="44.2055775" lon="11.3877418"><ele>909.1666666666666</ele><time>2026-04-04T11:01:54.788Z</time></trkpt><trkpt lat="44.2056445" lon="11.3878067"><ele>909.0</ele><time>2026-04-04T11:01:55.788Z</time></trkpt><trkpt lat="44.20572" lon="11.3878548"><ele>905.5</ele><time>2026-04-04T11:01:56.789Z</time></trkpt><trkpt lat="44.2058117" lon="11.3878823"><ele>902.0</ele><time>2026-04-04T11:01:57.788Z</time></trkpt><trkpt lat="44.2059267" lon="11.3879015"><ele>898.5</ele><time>2026-04-04T11:01:58.788Z</time></trkpt><trkpt lat="44.206045" lon="11.3879287"><ele>895.0</ele><time>2026-04-04T11:01:59.788Z</time></trkpt><trkpt lat="44.2061653" lon="11.3879463"><ele>895.0</ele><time>2026-04-04T11:02:00.787Z</time></trkpt><trkpt lat="44.2062867" lon="11.387959"><ele>895.0</ele><time>2026-04-04T11:02:01.787Z</time></trkpt><trkpt lat="44.2063947" lon="11.387966"><ele>895.0</ele><time>2026-04-04T11:02:02.787Z</time></trkpt><trkpt lat="44.2064888" lon="11.3879685"><ele>895.0</ele><time>2026-04-04T11:02:03.785Z</time></trkpt><trkpt lat="44.2065797" lon="11.387969"><ele>895.0</ele><time>2026-04-04T11:02:04.784Z</time></trkpt><trkpt lat="44.2066685" lon="11.387984"><ele>893.8333333333333</ele><time>2026-04-04T11:02:05.785Z</time></trkpt><trkpt lat="44.2067563" lon="11.3880138"><ele>892.6666666666666</ele><time>2026-04-04T11:02:06.786Z</time></trkpt><trkpt lat="44.206844" lon="11.3880453"><ele>891.5</ele><time>2026-04-04T11:02:07.788Z</time></trkpt><trkpt lat="44.2069278" lon="11.3880748"><ele>890.3333333333333</ele><time>2026-04-04T11:02:08.788Z</time></trkpt><trkpt lat="44.20701" lon="11.3881002"><ele>889.1666666666666</ele><time>2026-04-04T11:02:09.79Z</time></trkpt><trkpt lat="44.2070935" lon="11.3881187"><ele>888.0</ele><time>2026-04-04T11:02:10.789Z</time></trkpt><trkpt lat="44.2071732" lon="11.3881418"><ele>888.0</ele><time>2026-04-04T11:02:11.787Z</time></trkpt><trkpt lat="44.2072498" lon="11.3881685"><ele>888.0</ele><time>2026-04-04T11:02:12.787Z</time></trkpt><trkpt lat="44.2073158" lon="11.3881865"><ele>888.0</ele><time>2026-04-04T11:02:13.789Z</time></trkpt><trkpt lat="44.20738" lon="11.3881928"><ele>888.0</ele><time>2026-04-04T11:02:14.787Z</time></trkpt><trkpt lat="44.20749" lon="11.3881615"><ele>888.0</ele><time>2026-04-04T11:02:16.789Z</time></trkpt><trkpt lat="44.207556" lon="11.3881117"><ele>888.0</ele><time>2026-04-04T11:02:17.79Z</time></trkpt><trkpt lat="44.2076315" lon="11.3880577"><ele>886.5999999999999</ele><time>2026-04-04T11:02:18.787Z</time></trkpt><trkpt lat="44.2077177" lon="11.3880125"><ele>885.1999999999999</ele><time>2026-04-04T11:02:19.787Z</time></trkpt><trkpt lat="44.2078112" lon="11.387988"><ele>883.8</ele><time>2026-04-04T11:02:20.789Z</time></trkpt><trkpt lat="44.2079097" lon="11.3879777"><ele>882.4</ele><time>2026-04-04T11:02:21.788Z</time></trkpt><trkpt lat="44.2080043" lon="11.3879675"><ele>881.0</ele><time>2026-04-04T11:02:22.787Z</time></trkpt><trkpt lat="44.2080998" lon="11.387957"><ele>878.4</ele><time>2026-04-04T11:02:23.79Z</time></trkpt><trkpt lat="44.2081977" lon="11.3879455"><ele>875.8</ele><time>2026-04-04T11:02:24.79Z</time></trkpt><trkpt lat="44.2082945" lon="11.3879308"><ele>873.1999999999999</ele><time>2026-04-04T11:02:25.789Z</time></trkpt><trkpt lat="44.2083898" lon="11.3879085"><ele>870.5999999999999</ele><time>2026-04-04T11:02:26.793Z</time></trkpt><trkpt lat="44.2084858" lon="11.3878882"><ele>868.0</ele><time>2026-04-04T11:02:27.79Z</time></trkpt><trkpt lat="44.2085812" lon="11.3878808"><ele>868.0</ele><time>2026-04-04T11:02:28.786Z</time></trkpt><trkpt lat="44.2086828" lon="11.3878843"><ele>868.0</ele><time>2026-04-04T11:02:29.788Z</time></trkpt><trkpt lat="44.2087878" lon="11.3878985"><ele>868.0</ele><time>2026-04-04T11:02:30.785Z</time></trkpt><trkpt lat="44.2088893" lon="11.3879252"><ele>868.0</ele><time>2026-04-04T11:02:31.788Z</time></trkpt><trkpt lat="44.2089933" lon="11.3879522"><ele>868.0</ele><time>2026-04-04T11:02:32.788Z</time></trkpt><trkpt lat="44.2091047" lon="11.3879793"><ele>867.5</ele><time>2026-04-04T11:02:33.79Z</time></trkpt><trkpt lat="44.2092215" lon="11.3880113"><ele>867.0</ele><time>2026-04-04T11:02:34.792Z</time></trkpt><trkpt lat="44.209344" lon="11.3880443"><ele>866.5</ele><time>2026-04-04T11:02:35.789Z</time></trkpt><trkpt lat="44.2094703" lon="11.3880787"><ele>866.0</ele><time>2026-04-04T11:02:36.789Z</time></trkpt><trkpt lat="44.209592" lon="11.388114"><ele>866.0</ele><time>2026-04-04T11:02:37.789Z</time></trkpt><trkpt lat="44.2097087" lon="11.3881447"><ele>865.9999999999999</ele><time>2026-04-04T11:02:38.788Z</time></trkpt><trkpt lat="44.2098198" lon="11.3881717"><ele>865.9999999999999</ele><time>2026-04-04T11:02:39.787Z</time></trkpt><trkpt lat="44.2099237" lon="11.3882055"><ele>866.0</ele><time>2026-04-04T11:02:40.788Z</time></trkpt><trkpt lat="44.2100208" lon="11.3882457"><ele>866.0</ele><time>2026-04-04T11:02:41.788Z</time></trkpt><trkpt lat="44.21011" lon="11.388292"><ele>865.0</ele><time>2026-04-04T11:02:42.789Z</time></trkpt><trkpt lat="44.2101947" lon="11.3883423"><ele>863.9999999999999</ele><time>2026-04-04T11:02:43.788Z</time></trkpt><trkpt lat="44.210288" lon="11.3883987"><ele>862.9999999999999</ele><time>2026-04-04T11:02:44.786Z</time></trkpt><trkpt lat="44.2103887" lon="11.3884568"><ele>862.0</ele><time>2026-04-04T11:02:45.788Z</time></trkpt><trkpt lat="44.2104858" lon="11.388522"><ele>861.0</ele><time>2026-04-04T11:02:46.788Z</time></trkpt><trkpt lat="44.210582" lon="11.3886008"><ele>860.5</ele><time>2026-04-04T11:02:47.79Z</time></trkpt><trkpt lat="44.2106818" lon="11.38868"><ele>860.0</ele><time>2026-04-04T11:02:48.787Z</time></trkpt><trkpt lat="44.2107955" lon="11.388749"><ele>859.5</ele><time>2026-04-04T11:02:49.788Z</time></trkpt><trkpt lat="44.2109088" lon="11.3887945"><ele>859.0</ele><time>2026-04-04T11:02:50.788Z</time></trkpt><trkpt lat="44.2110163" lon="11.388835"><ele>857.5</ele><time>2026-04-04T11:02:51.786Z</time></trkpt><trkpt lat="44.2111213" lon="11.3888843"><ele>856.0</ele><time>2026-04-04T11:02:52.786Z</time></trkpt><trkpt lat="44.2112325" lon="11.3889408"><ele>854.5</ele><time>2026-04-04T11:02:53.785Z</time></trkpt><trkpt lat="44.21135" lon="11.3890003"><ele>853.0</ele><time>2026-04-04T11:02:54.786Z</time></trkpt><trkpt lat="44.2114653" lon="11.3890528"><ele>855.5</ele><time>2026-04-04T11:02:55.785Z</time></trkpt><trkpt lat="44.2115797" lon="11.3890987"><ele>858.0</ele><time>2026-04-04T11:02:56.788Z</time></trkpt><trkpt lat="44.211696" lon="11.3891472"><ele>860.5</ele><time>2026-04-04T11:02:57.787Z</time></trkpt><trkpt lat="44.2118078" lon="11.3892173"><ele>863.0</ele><time>2026-04-04T11:02:58.788Z</time></trkpt><trkpt lat="44.2119138" lon="11.3893105"><ele>863.0</ele><time>2026-04-04T11:02:59.787Z</time></trkpt><trkpt lat="44.2120177" lon="11.3894147"><ele>863.0</ele><time>2026-04-04T11:03:00.788Z</time></trkpt><trkpt lat="44.2121207" lon="11.3895233"><ele>863.0</ele><time>2026-04-04T11:03:01.787Z</time></trkpt><trkpt lat="44.2122137" lon="11.3896425"><ele>863.0</ele><time>2026-04-04T11:03:02.786Z</time></trkpt><trkpt lat="44.2122927" lon="11.3897645"><ele>862.0</ele><time>2026-04-04T11:03:03.788Z</time></trkpt><trkpt lat="44.2123622" lon="11.3898948"><ele>861.0</ele><time>2026-04-04T11:03:04.788Z</time></trkpt><trkpt lat="44.2124285" lon="11.3900253"><ele>860.0</ele><time>2026-04-04T11:03:05.787Z</time></trkpt><trkpt lat="44.2124987" lon="11.39015"><ele>859.0</ele><time>2026-04-04T11:03:06.788Z</time></trkpt><trkpt lat="44.2125792" lon="11.3902608"><ele>859.0</ele><time>2026-04-04T11:03:07.79Z</time></trkpt><trkpt lat="44.2126693" lon="11.3903573"><ele>859.0000000000001</ele><time>2026-04-04T11:03:08.787Z</time></trkpt><trkpt lat="44.2127515" lon="11.3904387"><ele>859.0000000000001</ele><time>2026-04-04T11:03:09.788Z</time></trkpt><trkpt lat="44.2128243" lon="11.390515"><ele>859.0</ele><time>2026-04-04T11:03:10.788Z</time></trkpt><trkpt lat="44.2128997" lon="11.3905943"><ele>859.0</ele><time>2026-04-04T11:03:11.788Z</time></trkpt><trkpt lat="44.2129832" lon="11.3906845"><ele>858.0</ele><time>2026-04-04T11:03:12.787Z</time></trkpt><trkpt lat="44.2130657" lon="11.390778"><ele>857.0000000000001</ele><time>2026-04-04T11:03:13.788Z</time></trkpt><trkpt lat="44.2131543" lon="11.3908583"><ele>856.0000000000001</ele><time>2026-04-04T11:03:14.787Z</time></trkpt><trkpt lat="44.2132482" lon="11.3909433"><ele>855.0</ele><time>2026-04-04T11:03:15.789Z</time></trkpt><trkpt lat="44.2133312" lon="11.3910362"><ele>854.0</ele><time>2026-04-04T11:03:16.787Z</time></trkpt><trkpt lat="44.2134023" lon="11.3911258"><ele>854.0000000000001</ele><time>2026-04-04T11:03:17.787Z</time></trkpt><trkpt lat="44.2134693" lon="11.3912142"><ele>854.0</ele><time>2026-04-04T11:03:18.786Z</time></trkpt><trkpt lat="44.213536" lon="11.3913005"><ele>854.0</ele><time>2026-04-04T11:03:19.784Z</time></trkpt><trkpt lat="44.213602" lon="11.3913833"><ele>854.0</ele><time>2026-04-04T11:03:20.786Z</time></trkpt><trkpt lat="44.2136668" lon="11.3914598"><ele>854.0000000000001</ele><time>2026-04-04T11:03:21.789Z</time></trkpt><trkpt lat="44.2137507" lon="11.3915095"><ele>854.0</ele><time>2026-04-04T11:03:23.786Z</time></trkpt><trkpt lat="44.2138287" lon="11.3914458"><ele>853.6</ele><time>2026-04-04T11:03:25.788Z</time></trkpt><trkpt lat="44.2139392" lon="11.391394"><ele>853.2</ele><time>2026-04-04T11:03:27.788Z</time></trkpt><trkpt lat="44.214072" lon="11.3913882"><ele>852.8000000000001</ele><time>2026-04-04T11:03:29.787Z</time></trkpt><trkpt lat="44.2141517" lon="11.3913912"><ele>852.4000000000001</ele><time>2026-04-04T11:03:30.788Z</time></trkpt><trkpt lat="44.2142447" lon="11.3913863"><ele>852.0</ele><time>2026-04-04T11:03:31.788Z</time></trkpt><trkpt lat="44.2143397" lon="11.3913922"><ele>852.0</ele><time>2026-04-04T11:03:32.788Z</time></trkpt><trkpt lat="44.2144277" lon="11.39142"><ele>852.0</ele><time>2026-04-04T11:03:33.789Z</time></trkpt><trkpt lat="44.2145187" lon="11.3914722"><ele>852.0</ele><time>2026-04-04T11:03:34.788Z</time></trkpt><trkpt lat="44.2146168" lon="11.3915377"><ele>852.0</ele><time>2026-04-04T11:03:35.789Z</time></trkpt><trkpt lat="44.2147033" lon="11.3916067"><ele>852.0</ele><time>2026-04-04T11:03:36.791Z</time></trkpt><trkpt lat="44.2147825" lon="11.3916892"><ele>850.4000000000001</ele><time>2026-04-04T11:03:37.788Z</time></trkpt><trkpt lat="44.2148635" lon="11.391784"><ele>848.8000000000001</ele><time>2026-04-04T11:03:38.788Z</time></trkpt><trkpt lat="44.2149357" lon="11.3918588"><ele>847.2</ele><time>2026-04-04T11:03:39.787Z</time></trkpt><trkpt lat="44.215015" lon="11.391921"><ele>845.6</ele><time>2026-04-04T11:03:40.788Z</time></trkpt><trkpt lat="44.2151057" lon="11.3919935"><ele>844.0</ele><time>2026-04-04T11:03:41.787Z</time></trkpt><trkpt lat="44.2151885" lon="11.3920667"><ele>843.9999999999999</ele><time>2026-04-04T11:03:42.786Z</time></trkpt><trkpt lat="44.2152617" lon="11.3921303"><ele>844.0</ele><time>2026-04-04T11:03:43.785Z</time></trkpt><trkpt lat="44.2153335" lon="11.392173"><ele>844.0</ele><time>2026-04-04T11:03:44.786Z</time></trkpt><trkpt lat="44.2154052" lon="11.3922193"><ele>844.0</ele><time>2026-04-04T11:03:45.788Z</time></trkpt><trkpt lat="44.215468" lon="11.3922823"><ele>843.9999999999999</ele><time>2026-04-04T11:03:46.788Z</time></trkpt><trkpt lat="44.2155262" lon="11.3923767"><ele>844.0</ele><time>2026-04-04T11:03:47.793Z</time></trkpt><trkpt lat="44.215584" lon="11.3924927"><ele>844.2</ele><time>2026-04-04T11:03:48.788Z</time></trkpt><trkpt lat="44.2156468" lon="11.3926098"><ele>844.4000000000001</ele><time>2026-04-04T11:03:49.787Z</time></trkpt><trkpt lat="44.2157093" lon="11.392728"><ele>844.6</ele><time>2026-04-04T11:03:50.788Z</time></trkpt><trkpt lat="44.21576" lon="11.392847"><ele>844.8</ele><time>2026-04-04T11:03:51.787Z</time></trkpt><trkpt lat="44.2158072" lon="11.3929618"><ele>845.0</ele><time>2026-04-04T11:03:52.788Z</time></trkpt><trkpt lat="44.2158583" lon="11.3930662"><ele>845.2</ele><time>2026-04-04T11:03:53.787Z</time></trkpt><trkpt lat="44.2159147" lon="11.393162"><ele>845.4</ele><time>2026-04-04T11:03:54.789Z</time></trkpt><trkpt lat="44.2159603" lon="11.3932617"><ele>845.5999999999999</ele><time>2026-04-04T11:03:55.788Z</time></trkpt><trkpt lat="44.216008" lon="11.3933693"><ele>845.8</ele><time>2026-04-04T11:03:56.789Z</time></trkpt><trkpt lat="44.2160743" lon="11.3934688"><ele>846.0</ele><time>2026-04-04T11:03:57.789Z</time></trkpt><trkpt lat="44.2161447" lon="11.3935507"><ele>846.0</ele><time>2026-04-04T11:03:58.788Z</time></trkpt><trkpt lat="44.2162108" lon="11.393627"><ele>846.0</ele><time>2026-04-04T11:03:59.789Z</time></trkpt><trkpt lat="44.2162638" lon="11.3937098"><ele>846.0</ele><time>2026-04-04T11:04:00.789Z</time></trkpt><trkpt lat="44.216305" lon="11.393791"><ele>846.0</ele><time>2026-04-04T11:04:01.788Z</time></trkpt><trkpt lat="44.2163352" lon="11.3938797"><ele>846.0</ele><time>2026-04-04T11:04:02.788Z</time></trkpt><trkpt lat="44.2163548" lon="11.3939707"><ele>846.0</ele><time>2026-04-04T11:04:03.788Z</time></trkpt><trkpt lat="44.216373" lon="11.3940565"><ele>846.0</ele><time>2026-04-04T11:04:04.787Z</time></trkpt><trkpt lat="44.2164013" lon="11.3941368"><ele>845.1999999999999</ele><time>2026-04-04T11:04:05.786Z</time></trkpt><trkpt lat="44.2164523" lon="11.39421"><ele>844.4</ele><time>2026-04-04T11:04:06.785Z</time></trkpt><trkpt lat="44.2165352" lon="11.3942842"><ele>843.6</ele><time>2026-04-04T11:04:07.786Z</time></trkpt><trkpt lat="44.2166492" lon="11.394361"><ele>842.8</ele><time>2026-04-04T11:04:08.785Z</time></trkpt><trkpt lat="44.216783" lon="11.394438"><ele>842.0</ele><time>2026-04-04T11:04:09.787Z</time></trkpt><trkpt lat="44.2169122" lon="11.3944963"><ele>839.8</ele><time>2026-04-04T11:04:10.791Z</time></trkpt><trkpt lat="44.2170348" lon="11.3945262"><ele>837.6</ele><time>2026-04-04T11:04:11.791Z</time></trkpt><trkpt lat="44.2171473" lon="11.3945327"><ele>835.4</ele><time>2026-04-04T11:04:12.789Z</time></trkpt><trkpt lat="44.2172467" lon="11.394533"><ele>833.1999999999999</ele><time>2026-04-04T11:04:13.792Z</time></trkpt><trkpt lat="44.2173288" lon="11.3945288"><ele>831.0</ele><time>2026-04-04T11:04:14.789Z</time></trkpt><trkpt lat="44.2173925" lon="11.3945115"><ele>830.6666666666666</ele><time>2026-04-04T11:04:15.791Z</time></trkpt><trkpt lat="44.2174968" lon="11.394513"><ele>830.3333333333333</ele><time>2026-04-04T11:04:17.787Z</time></trkpt><trkpt lat="44.2175615" lon="11.3945288"><ele>830.0</ele><time>2026-04-04T11:04:18.788Z</time></trkpt><trkpt lat="44.2176343" lon="11.3945638"><ele>829.6666666666666</ele><time>2026-04-04T11:04:19.79Z</time></trkpt><trkpt lat="44.2177112" lon="11.3946075"><ele>829.3333333333333</ele><time>2026-04-04T11:04:20.789Z</time></trkpt><trkpt lat="44.2177937" lon="11.3946405"><ele>829.0</ele><time>2026-04-04T11:04:21.789Z</time></trkpt><trkpt lat="44.21787" lon="11.3946562"><ele>827.9999999999999</ele><time>2026-04-04T11:04:22.788Z</time></trkpt><trkpt lat="44.2179342" lon="11.3946773"><ele>827.0</ele><time>2026-04-04T11:04:23.787Z</time></trkpt><trkpt lat="44.2180153" lon="11.3948085"><ele>826.0</ele><time>2026-04-04T11:04:25.789Z</time></trkpt><trkpt lat="44.2180563" lon="11.3948895"><ele>825.0</ele><time>2026-04-04T11:04:26.789Z</time></trkpt><trkpt lat="44.2181055" lon="11.3949592"><ele>823.9999999999999</ele><time>2026-04-04T11:04:27.788Z</time></trkpt><trkpt lat="44.2181578" lon="11.3950118"><ele>823.0</ele><time>2026-04-04T11:04:28.788Z</time></trkpt><trkpt lat="44.2182182" lon="11.3950618"><ele>822.2</ele><time>2026-04-04T11:04:29.787Z</time></trkpt><trkpt lat="44.2182763" lon="11.3951065"><ele>821.4</ele><time>2026-04-04T11:04:30.786Z</time></trkpt><trkpt lat="44.2183888" lon="11.3951503"><ele>820.6</ele><time>2026-04-04T11:04:32.786Z</time></trkpt><trkpt lat="44.2184862" lon="11.3951567"><ele>819.8000000000001</ele><time>2026-04-04T11:04:34.791Z</time></trkpt><trkpt lat="44.2185523" lon="11.3951848"><ele>819.0</ele><time>2026-04-04T11:07:24.787Z</time></trkpt><trkpt lat="44.2186542" lon="11.3952745"><ele>819.0</ele><time>2026-04-04T11:07:26.791Z</time></trkpt><trkpt lat="44.2187775" lon="11.3952757"><ele>819.0</ele><time>2026-04-04T11:07:28.79Z</time></trkpt><trkpt lat="44.2188582" lon="11.3952458"><ele>819.0</ele><time>2026-04-04T11:07:29.791Z</time></trkpt><trkpt lat="44.2189453" lon="11.3952375"><ele>819.0</ele><time>2026-04-04T11:07:30.791Z</time></trkpt><trkpt lat="44.2190312" lon="11.3952338"><ele>819.0</ele><time>2026-04-04T11:07:31.789Z</time></trkpt><trkpt lat="44.2191302" lon="11.3952462"><ele>818.1666666666666</ele><time>2026-04-04T11:07:32.79Z</time></trkpt><trkpt lat="44.2192192" lon="11.3952705"><ele>817.3333333333333</ele><time>2026-04-04T11:07:33.791Z</time></trkpt><trkpt lat="44.2192935" lon="11.3952993"><ele>816.5</ele><time>2026-04-04T11:07:34.79Z</time></trkpt><trkpt lat="44.2193573" lon="11.3953285"><ele>815.6666666666666</ele><time>2026-04-04T11:07:35.789Z</time></trkpt><trkpt lat="44.2194228" lon="11.3953452"><ele>814.8333333333333</ele><time>2026-04-04T11:07:36.789Z</time></trkpt><trkpt lat="44.2195025" lon="11.3953615"><ele>814.0</ele><time>2026-04-04T11:07:37.789Z</time></trkpt><trkpt lat="44.219585" lon="11.3953837"><ele>813.9999999999999</ele><time>2026-04-04T11:07:38.789Z</time></trkpt><trkpt lat="44.2196577" lon="11.3954062"><ele>814.0</ele><time>2026-04-04T11:07:39.791Z</time></trkpt><trkpt lat="44.2197268" lon="11.3954272"><ele>814.0</ele><time>2026-04-04T11:07:40.791Z</time></trkpt><trkpt lat="44.219793" lon="11.3954332"><ele>814.0</ele><time>2026-04-04T11:07:41.791Z</time></trkpt><trkpt lat="44.219891" lon="11.3954297"><ele>813.9999999999999</ele><time>2026-04-04T11:07:43.793Z</time></trkpt><trkpt lat="44.219977" lon="11.3954622"><ele>814.0</ele><time>2026-04-04T11:07:45.788Z</time></trkpt><trkpt lat="44.2200677" lon="11.395494"><ele>813.3333333333333</ele><time>2026-04-04T11:07:47.787Z</time></trkpt><trkpt lat="44.220116" lon="11.3955697"><ele>812.6666666666666</ele><time>2026-04-04T11:08:04.79Z</time></trkpt><trkpt lat="44.220145" lon="11.3956965"><ele>812.0</ele><time>2026-04-04T11:08:07.79Z</time></trkpt><trkpt lat="44.2201915" lon="11.3957773"><ele>811.3333333333333</ele><time>2026-04-04T11:08:09.791Z</time></trkpt><trkpt lat="44.2201795" lon="11.395882"><ele>810.6666666666666</ele><time>2026-04-04T11:08:12.788Z</time></trkpt><trkpt lat="44.2202068" lon="11.3960197"><ele>810.0</ele><time>2026-04-04T11:08:14.79Z</time></trkpt><trkpt lat="44.2202255" lon="11.396104"><ele>810.0</ele><time>2026-04-04T11:08:15.789Z</time></trkpt><trkpt lat="44.220262" lon="11.3962033"><ele>810.0</ele><time>2026-04-04T11:08:16.789Z</time></trkpt><trkpt lat="44.2203032" lon="11.3962975"><ele>810.0</ele><time>2026-04-04T11:08:17.79Z</time></trkpt><trkpt lat="44.2203297" lon="11.3963827"><ele>810.0</ele><time>2026-04-04T11:08:18.791Z</time></trkpt><trkpt lat="44.2203462" lon="11.3965642"><ele>810.0</ele><time>2026-04-04T11:08:20.79Z</time></trkpt><trkpt lat="44.2203653" lon="11.3966737"><ele>810.0</ele><time>2026-04-04T11:08:21.792Z</time></trkpt><trkpt lat="44.220397" lon="11.3967977"><ele>808.8</ele><time>2026-04-04T11:08:22.79Z</time></trkpt><trkpt lat="44.2204278" lon="11.3969587"><ele>807.6</ele><time>2026-04-04T11:08:23.789Z</time></trkpt><trkpt lat="44.2204457" lon="11.397115"><ele>806.4000000000001</ele><time>2026-04-04T11:08:24.793Z</time></trkpt><trkpt lat="44.220458" lon="11.3972587"><ele>805.2</ele><time>2026-04-04T11:08:25.79Z</time></trkpt><trkpt lat="44.2204723" lon="11.3973997"><ele>804.0</ele><time>2026-04-04T11:08:26.789Z</time></trkpt><trkpt lat="44.2204993" lon="11.3975425"><ele>803.5</ele><time>2026-04-04T11:08:27.792Z</time></trkpt><trkpt lat="44.2205325" lon="11.3976715"><ele>803.0</ele><time>2026-04-04T11:08:28.79Z</time></trkpt><trkpt lat="44.2205715" lon="11.3977862"><ele>802.5</ele><time>2026-04-04T11:08:29.79Z</time></trkpt><trkpt lat="44.2206022" lon="11.3978943"><ele>802.0</ele><time>2026-04-04T11:08:30.791Z</time></trkpt><trkpt lat="44.220611" lon="11.3979975"><ele>801.5</ele><time>2026-04-04T11:08:31.79Z</time></trkpt><trkpt lat="44.2206068" lon="11.3981008"><ele>801.0</ele><time>2026-04-04T11:08:32.789Z</time></trkpt><trkpt lat="44.2206023" lon="11.398208"><ele>801.0</ele><time>2026-04-04T11:08:33.789Z</time></trkpt><trkpt lat="44.2205995" lon="11.398316"><ele>801.0</ele><time>2026-04-04T11:08:34.786Z</time></trkpt><trkpt lat="44.2205925" lon="11.398418"><ele>801.0</ele><time>2026-04-04T11:08:35.786Z</time></trkpt><trkpt lat="44.2205797" lon="11.3985125"><ele>801.0</ele><time>2026-04-04T11:08:36.788Z</time></trkpt><trkpt lat="44.2205598" lon="11.3985973"><ele>801.0</ele><time>2026-04-04T11:08:37.787Z</time></trkpt><trkpt lat="44.2204997" lon="11.3987522"><ele>801.0</ele><time>2026-04-04T11:08:39.787Z</time></trkpt><trkpt lat="44.2204507" lon="11.3988198"><ele>799.0</ele><time>2026-04-04T11:08:40.788Z</time></trkpt><trkpt lat="44.2203917" lon="11.3988577"><ele>797.0</ele><time>2026-04-04T11:08:41.787Z</time></trkpt><trkpt lat="44.2203305" lon="11.3988827"><ele>795.0</ele><time>2026-04-04T11:08:42.788Z</time></trkpt><trkpt lat="44.2202747" lon="11.3989935"><ele>793.0</ele><time>2026-04-04T11:08:44.791Z</time></trkpt><trkpt lat="44.2202038" lon="11.399097"><ele>791.0</ele><time>2026-04-04T11:08:46.787Z</time></trkpt><trkpt lat="44.2201398" lon="11.3991882"><ele>789.0</ele><time>2026-04-04T11:08:48.79Z</time></trkpt><trkpt lat="44.2201347" lon="11.399328"><ele>789.0</ele><time>2026-04-04T11:08:50.788Z</time></trkpt><trkpt lat="44.2201838" lon="11.3994677"><ele>789.0</ele><time>2026-04-04T11:08:52.788Z</time></trkpt><trkpt lat="44.2202222" lon="11.399538"><ele>789.0</ele><time>2026-04-04T11:08:53.789Z</time></trkpt><trkpt lat="44.2202943" lon="11.399654"><ele>789.0</ele><time>2026-04-04T11:08:55.791Z</time></trkpt><trkpt lat="44.2203578" lon="11.3997842"><ele>789.0</ele><time>2026-04-04T11:08:57.789Z</time></trkpt><trkpt lat="44.2204582" lon="11.3998377"><ele>787.5</ele><time>2026-04-04T11:08:59.786Z</time></trkpt><trkpt lat="44.2205653" lon="11.399897"><ele>786.0</ele><time>2026-04-04T11:09:01.787Z</time></trkpt><trkpt lat="44.2206408" lon="11.4000277"><ele>784.5</ele><time>2026-04-04T11:09:03.787Z</time></trkpt><trkpt lat="44.220669" lon="11.400168"><ele>783.0</ele><time>2026-04-04T11:09:05.787Z</time></trkpt><trkpt lat="44.2206325" lon="11.4003197"><ele>781.4</ele><time>2026-04-04T11:09:07.789Z</time></trkpt><trkpt lat="44.220584" lon="11.4004615"><ele>779.8</ele><time>2026-04-04T11:09:09.786Z</time></trkpt><trkpt lat="44.2205562" lon="11.4005642"><ele>778.2</ele><time>2026-04-04T11:09:11.787Z</time></trkpt><trkpt lat="44.2205463" lon="11.4006742"><ele>776.6</ele><time>2026-04-04T11:09:13.787Z</time></trkpt><trkpt lat="44.2205533" lon="11.4008363"><ele>775.0</ele><time>2026-04-04T11:09:15.79Z</time></trkpt><trkpt lat="44.2205445" lon="11.4009298"><ele>773.8333333333333</ele><time>2026-04-04T11:09:16.787Z</time></trkpt><trkpt lat="44.220527" lon="11.4010208"><ele>772.6666666666666</ele><time>2026-04-04T11:09:17.787Z</time></trkpt><trkpt lat="44.220515" lon="11.4011158"><ele>771.5</ele><time>2026-04-04T11:09:18.792Z</time></trkpt><trkpt lat="44.220501" lon="11.4012118"><ele>770.3333333333333</ele><time>2026-04-04T11:09:19.788Z</time></trkpt><trkpt lat="44.2204908" lon="11.4013005"><ele>769.1666666666666</ele><time>2026-04-04T11:09:20.788Z</time></trkpt><trkpt lat="44.220492" lon="11.4014413"><ele>768.0</ele><time>2026-04-04T11:09:22.787Z</time></trkpt><trkpt lat="44.2205112" lon="11.4015905"><ele>768.0</ele><time>2026-04-04T11:09:24.787Z</time></trkpt><trkpt lat="44.2205133" lon="11.4016837"><ele>768.0</ele><time>2026-04-04T11:09:25.787Z</time></trkpt><trkpt lat="44.220514" lon="11.4017755"><ele>768.0</ele><time>2026-04-04T11:09:26.787Z</time></trkpt><trkpt lat="44.2205557" lon="11.4019345"><ele>768.0</ele><time>2026-04-04T11:09:28.788Z</time></trkpt><trkpt lat="44.2205922" lon="11.4020167"><ele>768.0</ele><time>2026-04-04T11:09:29.788Z</time></trkpt><trkpt lat="44.2206342" lon="11.4020923"><ele>768.0</ele><time>2026-04-04T11:09:30.788Z</time></trkpt><trkpt lat="44.2207357" lon="11.4021943"><ele>769.2</ele><time>2026-04-04T11:09:32.788Z</time></trkpt><trkpt lat="44.2208423" lon="11.4022838"><ele>770.4</ele><time>2026-04-04T11:09:34.788Z</time></trkpt><trkpt lat="44.220934" lon="11.4023828"><ele>771.6</ele><time>2026-04-04T11:09:36.791Z</time></trkpt><trkpt lat="44.220968" lon="11.402507"><ele>772.8000000000001</ele><time>2026-04-04T11:09:38.788Z</time></trkpt><trkpt lat="44.220924" lon="11.402598"><ele>774.0</ele><time>2026-04-04T11:09:40.788Z</time></trkpt><trkpt lat="44.2209" lon="11.4027382"><ele>774.0</ele><time>2026-04-04T11:09:42.788Z</time></trkpt><trkpt lat="44.2209108" lon="11.4028332"><ele>774.0</ele><time>2026-04-04T11:09:43.787Z</time></trkpt><trkpt lat="44.2209213" lon="11.4029367"><ele>774.0</ele><time>2026-04-04T11:09:44.788Z</time></trkpt><trkpt lat="44.2209295" lon="11.4030388"><ele>774.0</ele><time>2026-04-04T11:09:45.791Z</time></trkpt><trkpt lat="44.2209385" lon="11.4031443"><ele>774.0</ele><time>2026-04-04T11:09:46.788Z</time></trkpt><trkpt lat="44.2209477" lon="11.4032427"><ele>774.0</ele><time>2026-04-04T11:09:47.788Z</time></trkpt><trkpt lat="44.2209173" lon="11.4034123"><ele>773.3333333333334</ele><time>2026-04-04T11:09:49.786Z</time></trkpt><trkpt lat="44.2208917" lon="11.403506"><ele>772.6666666666667</ele><time>2026-04-04T11:09:50.786Z</time></trkpt><trkpt lat="44.2208665" lon="11.4036068"><ele>772.0</ele><time>2026-04-04T11:09:51.787Z</time></trkpt><trkpt lat="44.2208393" lon="11.4037013"><ele>771.3333333333334</ele><time>2026-04-04T11:09:52.789Z</time></trkpt><trkpt lat="44.2208065" lon="11.4037812"><ele>770.6666666666667</ele><time>2026-04-04T11:09:53.79Z</time></trkpt><trkpt lat="44.2207418" lon="11.4039178"><ele>770.0</ele><time>2026-04-04T11:09:55.788Z</time></trkpt><trkpt lat="44.2206868" lon="11.4040557"><ele>766.1666666666667</ele><time>2026-04-04T11:09:57.789Z</time></trkpt><trkpt lat="44.2206332" lon="11.4042052"><ele>762.3333333333334</ele><time>2026-04-04T11:09:59.79Z</time></trkpt><trkpt lat="44.2206037" lon="11.404289"><ele>758.5</ele><time>2026-04-04T11:10:00.789Z</time></trkpt><trkpt lat="44.2205698" lon="11.404377"><ele>754.6666666666667</ele><time>2026-04-04T11:10:01.789Z</time></trkpt><trkpt lat="44.2205353" lon="11.4044673"><ele>750.8333333333334</ele><time>2026-04-04T11:10:02.79Z</time></trkpt><trkpt lat="44.2205007" lon="11.4045513"><ele>747.0</ele><time>2026-04-04T11:10:03.788Z</time></trkpt><trkpt lat="44.2204627" lon="11.4046277"><ele>747.1428571428571</ele><time>2026-04-04T11:10:04.789Z</time></trkpt><trkpt lat="44.220425" lon="11.4047"><ele>747.2857142857142</ele><time>2026-04-04T11:10:05.789Z</time></trkpt><trkpt lat="44.2203928" lon="11.404776"><ele>747.4285714285713</ele><time>2026-04-04T11:10:06.789Z</time></trkpt><trkpt lat="44.220362" lon="11.404855"><ele>747.5714285714286</ele><time>2026-04-04T11:10:07.789Z</time></trkpt><trkpt lat="44.2203353" lon="11.4049417"><ele>747.7142857142858</ele><time>2026-04-04T11:10:08.791Z</time></trkpt><trkpt lat="44.2203115" lon="11.4050332"><ele>747.8571428571428</ele><time>2026-04-04T11:10:09.788Z</time></trkpt><trkpt lat="44.2202872" lon="11.405127"><ele>748.0</ele><time>2026-04-04T11:10:10.789Z</time></trkpt><trkpt lat="44.2202612" lon="11.4052253"><ele>748.0</ele><time>2026-04-04T11:10:11.789Z</time></trkpt><trkpt lat="44.220241" lon="11.4053227"><ele>748.0</ele><time>2026-04-04T11:10:12.788Z</time></trkpt><trkpt lat="44.220217" lon="11.40542"><ele>748.0</ele><time>2026-04-04T11:10:13.787Z</time></trkpt><trkpt lat="44.2201888" lon="11.4055195"><ele>748.0</ele><time>2026-04-04T11:10:14.787Z</time></trkpt><trkpt lat="44.220162" lon="11.4056182"><ele>748.0</ele><time>2026-04-04T11:10:15.786Z</time></trkpt><trkpt lat="44.220133" lon="11.4057243"><ele>748.0</ele><time>2026-04-04T11:10:16.788Z</time></trkpt><trkpt lat="44.2201063" lon="11.405843"><ele>747.0</ele><time>2026-04-04T11:10:17.788Z</time></trkpt><trkpt lat="44.2200783" lon="11.4059757"><ele>746.0</ele><time>2026-04-04T11:10:18.788Z</time></trkpt><trkpt lat="44.2200497" lon="11.4061055"><ele>745.0</ele><time>2026-04-04T11:10:19.789Z</time></trkpt><trkpt lat="44.2200142" lon="11.4062405"><ele>744.0</ele><time>2026-04-04T11:10:20.788Z</time></trkpt><trkpt lat="44.2199735" lon="11.4063803"><ele>743.0</ele><time>2026-04-04T11:10:21.789Z</time></trkpt><trkpt lat="44.2199348" lon="11.406512"><ele>742.3333333333333</ele><time>2026-04-04T11:10:22.787Z</time></trkpt><trkpt lat="44.2199017" lon="11.4066348"><ele>741.6666666666666</ele><time>2026-04-04T11:10:23.788Z</time></trkpt><trkpt lat="44.219875" lon="11.4067472"><ele>741.0</ele><time>2026-04-04T11:10:24.788Z</time></trkpt><trkpt lat="44.219855" lon="11.406846"><ele>740.3333333333334</ele><time>2026-04-04T11:10:25.788Z</time></trkpt><trkpt lat="44.2198372" lon="11.4069333"><ele>739.6666666666667</ele><time>2026-04-04T11:10:26.794Z</time></trkpt><trkpt lat="44.2198018" lon="11.4071082"><ele>739.0</ele><time>2026-04-04T11:10:28.789Z</time></trkpt><trkpt lat="44.2197752" lon="11.407221"><ele>737.6666666666667</ele><time>2026-04-04T11:10:29.788Z</time></trkpt><trkpt lat="44.2197425" lon="11.40734"><ele>736.3333333333334</ele><time>2026-04-04T11:10:30.789Z</time></trkpt><trkpt lat="44.2197153" lon="11.4074515"><ele>735.0</ele><time>2026-04-04T11:10:31.788Z</time></trkpt><trkpt lat="44.2196928" lon="11.4075537"><ele>733.6666666666666</ele><time>2026-04-04T11:10:32.789Z</time></trkpt><trkpt lat="44.2196673" lon="11.4076597"><ele>732.3333333333333</ele><time>2026-04-04T11:10:33.788Z</time></trkpt><trkpt lat="44.2196277" lon="11.4077578"><ele>731.0</ele><time>2026-04-04T11:10:34.79Z</time></trkpt><trkpt lat="44.2195683" lon="11.4078487"><ele>731.0</ele><time>2026-04-04T11:10:35.791Z</time></trkpt><trkpt lat="44.2194937" lon="11.4079458"><ele>731.0</ele><time>2026-04-04T11:10:36.79Z</time></trkpt><trkpt lat="44.2194112" lon="11.40806"><ele>731.0</ele><time>2026-04-04T11:10:37.788Z</time></trkpt><trkpt lat="44.2193312" lon="11.4081775"><ele>731.0</ele><time>2026-04-04T11:10:38.789Z</time></trkpt><trkpt lat="44.2192522" lon="11.4082905"><ele>731.0</ele><time>2026-04-04T11:10:39.789Z</time></trkpt><trkpt lat="44.2191782" lon="11.4084013"><ele>730.8</ele><time>2026-04-04T11:10:40.787Z</time></trkpt><trkpt lat="44.2191068" lon="11.4085088"><ele>730.5999999999999</ele><time>2026-04-04T11:10:41.791Z</time></trkpt><trkpt lat="44.2190357" lon="11.4086113"><ele>730.4</ele><time>2026-04-04T11:10:42.791Z</time></trkpt><trkpt lat="44.218962" lon="11.4087263"><ele>730.2</ele><time>2026-04-04T11:10:43.794Z</time></trkpt><trkpt lat="44.2188808" lon="11.4088517"><ele>730.0</ele><time>2026-04-04T11:10:44.789Z</time></trkpt><trkpt lat="44.2187972" lon="11.4089702"><ele>726.5</ele><time>2026-04-04T11:10:45.792Z</time></trkpt><trkpt lat="44.2187103" lon="11.409096"><ele>723.0</ele><time>2026-04-04T11:10:46.79Z</time></trkpt><trkpt lat="44.2186248" lon="11.4092193"><ele>719.5</ele><time>2026-04-04T11:10:47.789Z</time></trkpt><trkpt lat="44.2185432" lon="11.409337"><ele>716.0</ele><time>2026-04-04T11:10:48.79Z</time></trkpt><trkpt lat="44.218466" lon="11.4094523"><ele>716.0</ele><time>2026-04-04T11:10:49.79Z</time></trkpt><trkpt lat="44.2183888" lon="11.4095598"><ele>716.0</ele><time>2026-04-04T11:10:50.79Z</time></trkpt><trkpt lat="44.2183095" lon="11.4096668"><ele>716.0</ele><time>2026-04-04T11:10:51.789Z</time></trkpt><trkpt lat="44.2182317" lon="11.4097902"><ele>716.0</ele><time>2026-04-04T11:10:52.79Z</time></trkpt><trkpt lat="44.2181603" lon="11.409931"><ele>713.75</ele><time>2026-04-04T11:10:53.79Z</time></trkpt><trkpt lat="44.2180978" lon="11.4100903"><ele>711.5</ele><time>2026-04-04T11:10:54.79Z</time></trkpt><trkpt lat="44.2180437" lon="11.4102445"><ele>709.25</ele><time>2026-04-04T11:10:55.789Z</time></trkpt><trkpt lat="44.2179895" lon="11.410385"><ele>707.0</ele><time>2026-04-04T11:10:56.788Z</time></trkpt><trkpt lat="44.2179313" lon="11.4105158"><ele>707.0</ele><time>2026-04-04T11:10:57.791Z</time></trkpt><trkpt lat="44.2178745" lon="11.4106538"><ele>707.0</ele><time>2026-04-04T11:10:58.79Z</time></trkpt><trkpt lat="44.2178275" lon="11.4107887"><ele>707.0</ele><time>2026-04-04T11:10:59.789Z</time></trkpt><trkpt lat="44.2177868" lon="11.4109165"><ele>707.0</ele><time>2026-04-04T11:11:00.791Z</time></trkpt><trkpt lat="44.2177407" lon="11.4110432"><ele>707.0</ele><time>2026-04-04T11:11:01.79Z</time></trkpt><trkpt lat="44.2176925" lon="11.4111765"><ele>707.0</ele><time>2026-04-04T11:11:02.787Z</time></trkpt><trkpt lat="44.2176415" lon="11.411309"><ele>707.0</ele><time>2026-04-04T11:11:03.788Z</time></trkpt><trkpt lat="44.217586" lon="11.4114402"><ele>707.0</ele><time>2026-04-04T11:11:04.787Z</time></trkpt><trkpt lat="44.2175325" lon="11.411564"><ele>707.0</ele><time>2026-04-04T11:11:05.788Z</time></trkpt><trkpt lat="44.2174848" lon="11.4116935"><ele>707.0</ele><time>2026-04-04T11:11:06.789Z</time></trkpt><trkpt lat="44.2174423" lon="11.4118193"><ele>706.2</ele><time>2026-04-04T11:11:07.79Z</time></trkpt><trkpt lat="44.2173972" lon="11.4119415"><ele>705.4000000000001</ele><time>2026-04-04T11:11:08.789Z</time></trkpt><trkpt lat="44.2173362" lon="11.4120577"><ele>704.5999999999999</ele><time>2026-04-04T11:11:09.79Z</time></trkpt><trkpt lat="44.2172575" lon="11.4121507"><ele>703.8</ele><time>2026-04-04T11:11:10.79Z</time></trkpt><trkpt lat="44.2171673" lon="11.4122267"><ele>703.0</ele><time>2026-04-04T11:11:11.789Z</time></trkpt><trkpt lat="44.2170707" lon="11.4122943"><ele>700.5</ele><time>2026-04-04T11:11:12.789Z</time></trkpt><trkpt lat="44.2169655" lon="11.4123538"><ele>698.0</ele><time>2026-04-04T11:11:13.79Z</time></trkpt><trkpt lat="44.2168497" lon="11.4124132"><ele>695.5</ele><time>2026-04-04T11:11:14.791Z</time></trkpt><trkpt lat="44.2167287" lon="11.4124767"><ele>693.0</ele><time>2026-04-04T11:11:15.789Z</time></trkpt><trkpt lat="44.2166087" lon="11.4125393"><ele>693.0</ele><time>2026-04-04T11:11:16.79Z</time></trkpt><trkpt lat="44.2164925" lon="11.4126022"><ele>693.0</ele><time>2026-04-04T11:11:17.789Z</time></trkpt><trkpt lat="44.216373" lon="11.4127022"><ele>693.0</ele><time>2026-04-04T11:11:18.789Z</time></trkpt><trkpt lat="44.2162612" lon="11.4128143"><ele>693.0</ele><time>2026-04-04T11:11:19.789Z</time></trkpt><trkpt lat="44.2161625" lon="11.4129225"><ele>692.2</ele><time>2026-04-04T11:11:20.789Z</time></trkpt><trkpt lat="44.2160718" lon="11.4130262"><ele>691.4</ele><time>2026-04-04T11:11:21.79Z</time></trkpt><trkpt lat="44.2159893" lon="11.413131"><ele>690.6</ele><time>2026-04-04T11:11:22.789Z</time></trkpt><trkpt lat="44.2159167" lon="11.413236"><ele>689.8000000000001</ele><time>2026-04-04T11:11:23.788Z</time></trkpt><trkpt lat="44.2158523" lon="11.4133612"><ele>689.0</ele><time>2026-04-04T11:11:24.79Z</time></trkpt><trkpt lat="44.2157973" lon="11.4135232"><ele>689.0</ele><time>2026-04-04T11:11:25.79Z</time></trkpt><trkpt lat="44.2157568" lon="11.4137028"><ele>689.0</ele><time>2026-04-04T11:11:26.788Z</time></trkpt><trkpt lat="44.21572" lon="11.4138698"><ele>689.0</ele><time>2026-04-04T11:11:27.788Z</time></trkpt><trkpt lat="44.2156767" lon="11.4140227"><ele>689.0</ele><time>2026-04-04T11:11:28.788Z</time></trkpt><trkpt lat="44.2156252" lon="11.4141545"><ele>686.5</ele><time>2026-04-04T11:11:29.787Z</time></trkpt><trkpt lat="44.2155565" lon="11.4142755"><ele>684.0</ele><time>2026-04-04T11:11:30.789Z</time></trkpt><trkpt lat="44.215472" lon="11.414393"><ele>681.5</ele><time>2026-04-04T11:11:31.79Z</time></trkpt><trkpt lat="44.215381" lon="11.41451"><ele>679.0</ele><time>2026-04-04T11:11:32.789Z</time></trkpt><trkpt lat="44.2152933" lon="11.4146232"><ele>679.4000000000001</ele><time>2026-04-04T11:11:33.791Z</time></trkpt><trkpt lat="44.215211" lon="11.4147248"><ele>679.8</ele><time>2026-04-04T11:11:34.789Z</time></trkpt><trkpt lat="44.2151308" lon="11.4148167"><ele>680.2</ele><time>2026-04-04T11:11:35.79Z</time></trkpt><trkpt lat="44.2150595" lon="11.4149018"><ele>680.5999999999999</ele><time>2026-04-04T11:11:36.789Z</time></trkpt><trkpt lat="44.2149883" lon="11.41499"><ele>681.0</ele><time>2026-04-04T11:11:37.788Z</time></trkpt><trkpt lat="44.2149093" lon="11.4150843"><ele>681.0</ele><time>2026-04-04T11:11:38.793Z</time></trkpt><trkpt lat="44.2148302" lon="11.415176"><ele>681.0</ele><time>2026-04-04T11:11:39.79Z</time></trkpt><trkpt lat="44.2147522" lon="11.4152675"><ele>681.0</ele><time>2026-04-04T11:11:40.792Z</time></trkpt><trkpt lat="44.2146745" lon="11.415352"><ele>681.0</ele><time>2026-04-04T11:11:41.791Z</time></trkpt><trkpt lat="44.2145953" lon="11.415434"><ele>681.0</ele><time>2026-04-04T11:11:42.79Z</time></trkpt><trkpt lat="44.2145225" lon="11.4155113"><ele>678.0</ele><time>2026-04-04T11:11:43.791Z</time></trkpt><trkpt lat="44.214471" lon="11.4155775"><ele>675.0</ele><time>2026-04-04T11:11:44.789Z</time></trkpt><trkpt lat="44.2144512" lon="11.4157063"><ele>672.0</ele><time>2026-04-04T11:11:46.79Z</time></trkpt><trkpt lat="44.2145723" lon="11.4157403"><ele>669.0</ele><time>2026-04-04T11:11:48.789Z</time></trkpt><trkpt lat="44.2146783" lon="11.4157305"><ele>666.0</ele><time>2026-04-04T11:11:49.789Z</time></trkpt><trkpt lat="44.2147955" lon="11.415728"><ele>667.0</ele><time>2026-04-04T11:11:50.788Z</time></trkpt><trkpt lat="44.2149088" lon="11.4157425"><ele>668.0</ele><time>2026-04-04T11:11:51.787Z</time></trkpt><trkpt lat="44.2150143" lon="11.4157605"><ele>669.0</ele><time>2026-04-04T11:11:52.787Z</time></trkpt><trkpt lat="44.2151137" lon="11.4157727"><ele>670.0</ele><time>2026-04-04T11:11:53.787Z</time></trkpt><trkpt lat="44.215206" lon="11.4157677"><ele>671.0</ele><time>2026-04-04T11:11:54.789Z</time></trkpt><trkpt lat="44.2152917" lon="11.4157493"><ele>671.0</ele><time>2026-04-04T11:11:55.789Z</time></trkpt><trkpt lat="44.2153747" lon="11.4157128"><ele>671.0</ele><time>2026-04-04T11:11:56.788Z</time></trkpt><trkpt lat="44.21545" lon="11.415663"><ele>671.0</ele><time>2026-04-04T11:11:57.789Z</time></trkpt><trkpt lat="44.2155175" lon="11.4156087"><ele>671.0</ele><time>2026-04-04T11:11:58.789Z</time></trkpt><trkpt lat="44.2155792" lon="11.415566"><ele>671.0</ele><time>2026-04-04T11:11:59.787Z</time></trkpt><trkpt lat="44.215672" lon="11.4156113"><ele>671.0</ele><time>2026-04-04T11:12:01.789Z</time></trkpt><trkpt lat="44.2156603" lon="11.415772"><ele>671.0</ele><time>2026-04-04T11:12:03.79Z</time></trkpt><trkpt lat="44.215605" lon="11.4158517"><ele>671.0</ele><time>2026-04-04T11:12:04.79Z</time></trkpt><trkpt lat="44.2155312" lon="11.4159442"><ele>671.0</ele><time>2026-04-04T11:12:05.79Z</time></trkpt><trkpt lat="44.2154595" lon="11.4160422"><ele>671.0</ele><time>2026-04-04T11:12:06.789Z</time></trkpt><trkpt lat="44.2153975" lon="11.4161402"><ele>671.0</ele><time>2026-04-04T11:12:07.79Z</time></trkpt><trkpt lat="44.2153478" lon="11.4162465"><ele>667.5999999999999</ele><time>2026-04-04T11:12:08.788Z</time></trkpt><trkpt lat="44.2153098" lon="11.4163515"><ele>664.2</ele><time>2026-04-04T11:12:09.79Z</time></trkpt><trkpt lat="44.2152817" lon="11.4164515"><ele>660.8</ele><time>2026-04-04T11:12:10.788Z</time></trkpt><trkpt lat="44.2152828" lon="11.4165922"><ele>657.4000000000001</ele><time>2026-04-04T11:12:12.788Z</time></trkpt><trkpt lat="44.2153868" lon="11.4166935"><ele>654.0</ele><time>2026-04-04T11:12:14.789Z</time></trkpt><trkpt lat="44.215471" lon="11.416755"><ele>654.0</ele><time>2026-04-04T11:12:15.787Z</time></trkpt><trkpt lat="44.215556" lon="11.4168233"><ele>654.0</ele><time>2026-04-04T11:12:16.787Z</time></trkpt><trkpt lat="44.2156387" lon="11.4168755"><ele>654.0</ele><time>2026-04-04T11:12:17.787Z</time></trkpt><trkpt lat="44.21572" lon="11.4169098"><ele>654.0</ele><time>2026-04-04T11:12:18.787Z</time></trkpt><trkpt lat="44.2158057" lon="11.4169197"><ele>654.0</ele><time>2026-04-04T11:12:19.787Z</time></trkpt><trkpt lat="44.215894" lon="11.4169"><ele>654.0</ele><time>2026-04-04T11:12:20.788Z</time></trkpt><trkpt lat="44.215979" lon="11.4168678"><ele>654.1428571428571</ele><time>2026-04-04T11:12:21.79Z</time></trkpt><trkpt lat="44.2160562" lon="11.4168478"><ele>654.2857142857143</ele><time>2026-04-04T11:12:22.791Z</time></trkpt><trkpt lat="44.2161193" lon="11.416862"><ele>654.4285714285714</ele><time>2026-04-04T11:12:23.79Z</time></trkpt><trkpt lat="44.2161802" lon="11.4169008"><ele>654.5714285714286</ele><time>2026-04-04T11:12:24.788Z</time></trkpt><trkpt lat="44.216247" lon="11.4169407"><ele>654.7142857142857</ele><time>2026-04-04T11:12:25.789Z</time></trkpt><trkpt lat="44.2163252" lon="11.4169755"><ele>654.8571428571429</ele><time>2026-04-04T11:12:26.789Z</time></trkpt><trkpt lat="44.2164053" lon="11.4170142"><ele>655.0</ele><time>2026-04-04T11:12:27.789Z</time></trkpt><trkpt lat="44.216486" lon="11.4170527"><ele>654.3333333333334</ele><time>2026-04-04T11:12:28.789Z</time></trkpt><trkpt lat="44.2165642" lon="11.4170897"><ele>653.6666666666667</ele><time>2026-04-04T11:12:29.787Z</time></trkpt><trkpt lat="44.2166352" lon="11.4171465"><ele>653.0</ele><time>2026-04-04T11:12:30.789Z</time></trkpt><trkpt lat="44.216702" lon="11.4172238"><ele>652.3333333333334</ele><time>2026-04-04T11:12:31.791Z</time></trkpt><trkpt lat="44.2167713" lon="11.4173092"><ele>651.6666666666666</ele><time>2026-04-04T11:12:32.788Z</time></trkpt><trkpt lat="44.2168355" lon="11.4173958"><ele>651.0</ele><time>2026-04-04T11:12:33.79Z</time></trkpt><trkpt lat="44.2168868" lon="11.4174848"><ele>649.3333333333334</ele><time>2026-04-04T11:12:34.79Z</time></trkpt><trkpt lat="44.2169182" lon="11.4175833"><ele>647.6666666666666</ele><time>2026-04-04T11:12:35.79Z</time></trkpt><trkpt lat="44.2169287" lon="11.4176868"><ele>646.0</ele><time>2026-04-04T11:12:36.789Z</time></trkpt><trkpt lat="44.2169245" lon="11.4177998"><ele>644.3333333333333</ele><time>2026-04-04T11:12:37.792Z</time></trkpt><trkpt lat="44.2169162" lon="11.417909"><ele>642.6666666666666</ele><time>2026-04-04T11:12:38.79Z</time></trkpt><trkpt lat="44.2169113" lon="11.4180158"><ele>641.0</ele><time>2026-04-04T11:12:39.789Z</time></trkpt><trkpt lat="44.2169098" lon="11.4181327"><ele>638.4</ele><time>2026-04-04T11:12:40.786Z</time></trkpt><trkpt lat="44.2169172" lon="11.4182573"><ele>635.8</ele><time>2026-04-04T11:12:41.788Z</time></trkpt><trkpt lat="44.2169387" lon="11.4183857"><ele>633.1999999999999</ele><time>2026-04-04T11:12:42.788Z</time></trkpt><trkpt lat="44.2169743" lon="11.41851"><ele>630.5999999999999</ele><time>2026-04-04T11:12:43.788Z</time></trkpt><trkpt lat="44.2170237" lon="11.4186248"><ele>628.0</ele><time>2026-04-04T11:12:44.791Z</time></trkpt><trkpt lat="44.2170818" lon="11.4187358"><ele>624.8</ele><time>2026-04-04T11:12:45.789Z</time></trkpt><trkpt lat="44.2171442" lon="11.4188493"><ele>621.5999999999999</ele><time>2026-04-04T11:12:46.789Z</time></trkpt><trkpt lat="44.217209" lon="11.4189668"><ele>618.4000000000001</ele><time>2026-04-04T11:12:47.789Z</time></trkpt><trkpt lat="44.2172683" lon="11.4190842"><ele>615.2</ele><time>2026-04-04T11:12:48.79Z</time></trkpt><trkpt lat="44.2173132" lon="11.4192007"><ele>612.0</ele><time>2026-04-04T11:12:49.789Z</time></trkpt><trkpt lat="44.2173417" lon="11.4193178"><ele>611.2</ele><time>2026-04-04T11:12:50.789Z</time></trkpt><trkpt lat="44.2173587" lon="11.4194553"><ele>610.4000000000001</ele><time>2026-04-04T11:12:51.791Z</time></trkpt><trkpt lat="44.2173632" lon="11.4196132"><ele>609.5999999999999</ele><time>2026-04-04T11:12:52.79Z</time></trkpt><trkpt lat="44.2173598" lon="11.419771"><ele>608.8</ele><time>2026-04-04T11:12:53.789Z</time></trkpt><trkpt lat="44.21736" lon="11.4199228"><ele>608.0</ele><time>2026-04-04T11:12:54.79Z</time></trkpt><trkpt lat="44.2173635" lon="11.4200453"><ele>606.3333333333333</ele><time>2026-04-04T11:12:55.79Z</time></trkpt><trkpt lat="44.2173662" lon="11.4201337"><ele>604.6666666666666</ele><time>2026-04-04T11:12:56.79Z</time></trkpt><trkpt lat="44.2173597" lon="11.4202705"><ele>603.0</ele><time>2026-04-04T11:12:58.792Z</time></trkpt><trkpt lat="44.2173473" lon="11.42037"><ele>601.3333333333334</ele><time>2026-04-04T11:12:59.788Z</time></trkpt><trkpt lat="44.2173303" lon="11.420482"><ele>599.6666666666667</ele><time>2026-04-04T11:13:00.788Z</time></trkpt><trkpt lat="44.2173047" lon="11.4205833"><ele>598.0</ele><time>2026-04-04T11:13:01.79Z</time></trkpt><trkpt lat="44.2172705" lon="11.420685"><ele>596.6666666666667</ele><time>2026-04-04T11:13:02.789Z</time></trkpt><trkpt lat="44.2172288" lon="11.4207992"><ele>595.3333333333334</ele><time>2026-04-04T11:13:03.79Z</time></trkpt><trkpt lat="44.2171887" lon="11.4209085"><ele>594.0</ele><time>2026-04-04T11:13:04.788Z</time></trkpt><trkpt lat="44.217152" lon="11.4210155"><ele>592.6666666666666</ele><time>2026-04-04T11:13:05.788Z</time></trkpt><trkpt lat="44.2171257" lon="11.4211253"><ele>591.3333333333333</ele><time>2026-04-04T11:13:06.788Z</time></trkpt><trkpt lat="44.217116" lon="11.4212405"><ele>590.0</ele><time>2026-04-04T11:13:07.787Z</time></trkpt><trkpt lat="44.2171207" lon="11.421365"><ele>588.2</ele><time>2026-04-04T11:13:08.789Z</time></trkpt><trkpt lat="44.2171275" lon="11.4214917"><ele>586.4</ele><time>2026-04-04T11:13:09.788Z</time></trkpt><trkpt lat="44.2171297" lon="11.421621"><ele>584.6</ele><time>2026-04-04T11:13:10.788Z</time></trkpt><trkpt lat="44.2171315" lon="11.4217508"><ele>582.8</ele><time>2026-04-04T11:13:11.789Z</time></trkpt><trkpt lat="44.2171402" lon="11.4218752"><ele>581.0</ele><time>2026-04-04T11:13:12.789Z</time></trkpt><trkpt lat="44.217157" lon="11.422005"><ele>581.0</ele><time>2026-04-04T11:13:13.787Z</time></trkpt><trkpt lat="44.2171867" lon="11.4221355"><ele>581.0</ele><time>2026-04-04T11:13:14.789Z</time></trkpt><trkpt lat="44.2172212" lon="11.4222605"><ele>581.0</ele><time>2026-04-04T11:13:15.788Z</time></trkpt><trkpt lat="44.217245" lon="11.4223813"><ele>581.0</ele><time>2026-04-04T11:13:16.788Z</time></trkpt><trkpt lat="44.2172588" lon="11.4225022"><ele>581.0</ele><time>2026-04-04T11:13:17.788Z</time></trkpt><trkpt lat="44.2172693" lon="11.4226253"><ele>578.6</ele><time>2026-04-04T11:13:18.79Z</time></trkpt><trkpt lat="44.2172883" lon="11.4227458"><ele>576.2</ele><time>2026-04-04T11:13:19.789Z</time></trkpt><trkpt lat="44.2173158" lon="11.4228713"><ele>573.8</ele><time>2026-04-04T11:13:20.789Z</time></trkpt><trkpt lat="44.217342" lon="11.4230003"><ele>571.4</ele><time>2026-04-04T11:13:21.789Z</time></trkpt><trkpt lat="44.2173668" lon="11.4231368"><ele>569.0</ele><time>2026-04-04T11:13:22.79Z</time></trkpt><trkpt lat="44.217388" lon="11.4232753"><ele>568.0</ele><time>2026-04-04T11:13:23.789Z</time></trkpt><trkpt lat="44.2174018" lon="11.4234128"><ele>567.0</ele><time>2026-04-04T11:13:24.791Z</time></trkpt><trkpt lat="44.2174112" lon="11.4235468"><ele>566.0</ele><time>2026-04-04T11:13:25.791Z</time></trkpt><trkpt lat="44.2174252" lon="11.4236852"><ele>565.0</ele><time>2026-04-04T11:13:26.79Z</time></trkpt><trkpt lat="44.217443" lon="11.4238297"><ele>564.0</ele><time>2026-04-04T11:13:27.788Z</time></trkpt><trkpt lat="44.2174707" lon="11.4239737"><ele>561.8</ele><time>2026-04-04T11:13:28.788Z</time></trkpt><trkpt lat="44.2175093" lon="11.4241043"><ele>559.5999999999999</ele><time>2026-04-04T11:13:29.786Z</time></trkpt><trkpt lat="44.2175523" lon="11.4242338"><ele>557.4</ele><time>2026-04-04T11:13:30.788Z</time></trkpt><trkpt lat="44.217598" lon="11.4243663"><ele>555.1999999999999</ele><time>2026-04-04T11:13:31.798Z</time></trkpt><trkpt lat="44.2176375" lon="11.4244952"><ele>553.0</ele><time>2026-04-04T11:13:32.788Z</time></trkpt><trkpt lat="44.2176778" lon="11.4246255"><ele>550.6</ele><time>2026-04-04T11:13:33.791Z</time></trkpt><trkpt lat="44.2177178" lon="11.4247537"><ele>548.1999999999999</ele><time>2026-04-04T11:13:34.79Z</time></trkpt><trkpt lat="44.2177482" lon="11.4248833"><ele>545.8</ele><time>2026-04-04T11:13:35.789Z</time></trkpt><trkpt lat="44.217774" lon="11.4250132"><ele>543.4</ele><time>2026-04-04T11:13:36.791Z</time></trkpt><trkpt lat="44.2178028" lon="11.4251483"><ele>541.0</ele><time>2026-04-04T11:13:37.791Z</time></trkpt><trkpt lat="44.2178257" lon="11.4252928"><ele>541.0</ele><time>2026-04-04T11:13:38.79Z</time></trkpt><trkpt lat="44.2178433" lon="11.425442"><ele>541.0</ele><time>2026-04-04T11:13:39.791Z</time></trkpt><trkpt lat="44.217856" lon="11.4255877"><ele>541.0</ele><time>2026-04-04T11:13:40.793Z</time></trkpt><trkpt lat="44.2178673" lon="11.4257245"><ele>541.0</ele><time>2026-04-04T11:13:41.79Z</time></trkpt><trkpt lat="44.2178647" lon="11.4258473"><ele>541.0</ele><time>2026-04-04T11:13:42.79Z</time></trkpt><trkpt lat="44.2178397" lon="11.425953"><ele>538.3333333333334</ele><time>2026-04-04T11:13:43.79Z</time></trkpt><trkpt lat="44.2177965" lon="11.4260497"><ele>535.6666666666667</ele><time>2026-04-04T11:13:44.789Z</time></trkpt><trkpt lat="44.2177545" lon="11.4261455"><ele>533.0</ele><time>2026-04-04T11:13:45.793Z</time></trkpt><trkpt lat="44.217728" lon="11.42625"><ele>530.3333333333334</ele><time>2026-04-04T11:13:46.79Z</time></trkpt><trkpt lat="44.2177242" lon="11.4263748"><ele>527.6666666666666</ele><time>2026-04-04T11:13:47.789Z</time></trkpt><trkpt lat="44.2177367" lon="11.4265045"><ele>525.0</ele><time>2026-04-04T11:13:48.791Z</time></trkpt><trkpt lat="44.2177528" lon="11.4266303"><ele>522.8333333333334</ele><time>2026-04-04T11:13:49.79Z</time></trkpt><trkpt lat="44.217765" lon="11.4267498"><ele>520.6666666666666</ele><time>2026-04-04T11:13:50.789Z</time></trkpt><trkpt lat="44.2177722" lon="11.4268637"><ele>518.5</ele><time>2026-04-04T11:13:51.789Z</time></trkpt><trkpt lat="44.2177792" lon="11.4269772"><ele>516.3333333333333</ele><time>2026-04-04T11:13:52.79Z</time></trkpt><trkpt lat="44.2177812" lon="11.4271012"><ele>514.1666666666666</ele><time>2026-04-04T11:13:53.788Z</time></trkpt><trkpt lat="44.2177753" lon="11.4272368"><ele>512.0</ele><time>2026-04-04T11:13:54.788Z</time></trkpt><trkpt lat="44.2177587" lon="11.427381"><ele>509.6</ele><time>2026-04-04T11:13:55.788Z</time></trkpt><trkpt lat="44.2177413" lon="11.4275283"><ele>507.20000000000005</ele><time>2026-04-04T11:13:56.787Z</time></trkpt><trkpt lat="44.2177322" lon="11.427677"><ele>504.8</ele><time>2026-04-04T11:13:57.788Z</time></trkpt><trkpt lat="44.2177313" lon="11.4278242"><ele>502.4</ele><time>2026-04-04T11:13:58.788Z</time></trkpt><trkpt lat="44.2177332" lon="11.4279663"><ele>500.0</ele><time>2026-04-04T11:13:59.789Z</time></trkpt><trkpt lat="44.2177358" lon="11.4281078"><ele>497.49999999999994</ele><time>2026-04-04T11:14:00.79Z</time></trkpt><trkpt lat="44.2177447" lon="11.4282428"><ele>495.0</ele><time>2026-04-04T11:14:01.793Z</time></trkpt><trkpt lat="44.2177612" lon="11.4283717"><ele>492.5</ele><time>2026-04-04T11:14:02.789Z</time></trkpt><trkpt lat="44.2177855" lon="11.4284997"><ele>490.0</ele><time>2026-04-04T11:14:03.789Z</time></trkpt><trkpt lat="44.2178137" lon="11.4286157"><ele>487.49999999999994</ele><time>2026-04-04T11:14:04.79Z</time></trkpt><trkpt lat="44.2178488" lon="11.4287085"><ele>485.0</ele><time>2026-04-04T11:14:05.789Z</time></trkpt><trkpt lat="44.2178952" lon="11.4287957"><ele>482.99999999999994</ele><time>2026-04-04T11:14:06.79Z</time></trkpt><trkpt lat="44.2179395" lon="11.428884"><ele>481.0</ele><time>2026-04-04T11:14:07.791Z</time></trkpt><trkpt lat="44.2179763" lon="11.4289813"><ele>479.0</ele><time>2026-04-04T11:14:08.79Z</time></trkpt><trkpt lat="44.2180095" lon="11.4290848"><ele>477.0</ele><time>2026-04-04T11:14:09.789Z</time></trkpt><trkpt lat="44.2180432" lon="11.4291923"><ele>474.99999999999994</ele><time>2026-04-04T11:14:10.789Z</time></trkpt><trkpt lat="44.2180843" lon="11.4292977"><ele>473.0</ele><time>2026-04-04T11:14:11.788Z</time></trkpt><trkpt lat="44.2181318" lon="11.4294047"><ele>472.8333333333333</ele><time>2026-04-04T11:14:12.787Z</time></trkpt><trkpt lat="44.2181857" lon="11.42951"><ele>472.66666666666663</ele><time>2026-04-04T11:14:13.788Z</time></trkpt><trkpt lat="44.2182407" lon="11.429596"><ele>472.5</ele><time>2026-04-04T11:14:14.788Z</time></trkpt><trkpt lat="44.2182993" lon="11.4296548"><ele>472.33333333333337</ele><time>2026-04-04T11:14:15.789Z</time></trkpt><trkpt lat="44.2183588" lon="11.429702"><ele>472.1666666666667</ele><time>2026-04-04T11:14:16.789Z</time></trkpt><trkpt lat="44.2184162" lon="11.429746"><ele>472.0</ele><time>2026-04-04T11:14:17.789Z</time></trkpt><trkpt lat="44.2184818" lon="11.4297768"><ele>472.00000000000006</ele><time>2026-04-04T11:14:18.788Z</time></trkpt><trkpt lat="44.2185547" lon="11.4297877"><ele>472.0</ele><time>2026-04-04T11:14:19.787Z</time></trkpt><trkpt lat="44.2186335" lon="11.4297815"><ele>472.0</ele><time>2026-04-04T11:14:20.785Z</time></trkpt><trkpt lat="44.2187172" lon="11.4297593"><ele>472.0</ele><time>2026-04-04T11:14:21.787Z</time></trkpt><trkpt lat="44.218804" lon="11.4297255"><ele>472.00000000000006</ele><time>2026-04-04T11:14:22.791Z</time></trkpt><trkpt lat="44.2188905" lon="11.4296668"><ele>472.0</ele><time>2026-04-04T11:14:23.789Z</time></trkpt><trkpt lat="44.2189688" lon="11.4295848"><ele>472.20000000000005</ele><time>2026-04-04T11:14:24.79Z</time></trkpt><trkpt lat="44.2190445" lon="11.4294877"><ele>472.40000000000003</ele><time>2026-04-04T11:14:25.789Z</time></trkpt><trkpt lat="44.2191178" lon="11.4293793"><ele>472.59999999999997</ele><time>2026-04-04T11:14:26.789Z</time></trkpt><trkpt lat="44.2191928" lon="11.4292607"><ele>472.79999999999995</ele><time>2026-04-04T11:14:27.789Z</time></trkpt><trkpt lat="44.2192777" lon="11.429142"><ele>473.0</ele><time>2026-04-04T11:14:28.811Z</time></trkpt><trkpt lat="44.219377" lon="11.429038"><ele>473.0</ele><time>2026-04-04T11:14:29.789Z</time></trkpt><trkpt lat="44.2195052" lon="11.4289557"><ele>473.0</ele><time>2026-04-04T11:14:30.798Z</time></trkpt><trkpt lat="44.2196422" lon="11.4288875"><ele>473.0</ele><time>2026-04-04T11:14:31.789Z</time></trkpt><trkpt lat="44.2197658" lon="11.4288223"><ele>473.0</ele><time>2026-04-04T11:14:32.788Z</time></trkpt><trkpt lat="44.2198798" lon="11.4287708"><ele>474.0</ele><time>2026-04-04T11:14:33.788Z</time></trkpt><trkpt lat="44.219997" lon="11.428758"><ele>475.0</ele><time>2026-04-04T11:14:34.788Z</time></trkpt><trkpt lat="44.2201267" lon="11.4287777"><ele>476.0</ele><time>2026-04-04T11:14:35.787Z</time></trkpt><trkpt lat="44.2202633" lon="11.4288118"><ele>477.0</ele><time>2026-04-04T11:14:36.787Z</time></trkpt><trkpt lat="44.220393" lon="11.4288522"><ele>477.0</ele><time>2026-04-04T11:14:37.788Z</time></trkpt><trkpt lat="44.2205133" lon="11.4288693"><ele>477.0</ele><time>2026-04-04T11:14:38.788Z</time></trkpt><trkpt lat="44.2206258" lon="11.4288507"><ele>477.0</ele><time>2026-04-04T11:14:39.788Z</time></trkpt><trkpt lat="44.220727" lon="11.428788"><ele>477.0</ele><time>2026-04-04T11:14:40.789Z</time></trkpt><trkpt lat="44.220815" lon="11.4286842"><ele>478.75</ele><time>2026-04-04T11:14:41.789Z</time></trkpt><trkpt lat="44.2208948" lon="11.4285433"><ele>480.5</ele><time>2026-04-04T11:14:42.786Z</time></trkpt><trkpt lat="44.2209693" lon="11.428404"><ele>482.25</ele><time>2026-04-04T11:14:43.786Z</time></trkpt><trkpt lat="44.2210413" lon="11.4282793"><ele>484.0</ele><time>2026-04-04T11:14:44.789Z</time></trkpt><trkpt lat="44.2210958" lon="11.4281565"><ele>484.00000000000006</ele><time>2026-04-04T11:14:45.787Z</time></trkpt><trkpt lat="44.2211123" lon="11.4280385"><ele>484.0</ele><time>2026-04-04T11:14:46.789Z</time></trkpt><trkpt lat="44.2210977" lon="11.4279382"><ele>484.0</ele><time>2026-04-04T11:14:47.789Z</time></trkpt><trkpt lat="44.2210685" lon="11.4278555"><ele>484.0</ele><time>2026-04-04T11:14:48.788Z</time></trkpt><trkpt lat="44.2209893" lon="11.4277135"><ele>484.00000000000006</ele><time>2026-04-04T11:14:50.787Z</time></trkpt><trkpt lat="44.2209437" lon="11.427625"><ele>484.0</ele><time>2026-04-04T11:14:51.791Z</time></trkpt><trkpt lat="44.2209123" lon="11.4275405"><ele>484.6666666666667</ele><time>2026-04-04T11:14:52.791Z</time></trkpt><trkpt lat="44.220876" lon="11.4274415"><ele>485.33333333333337</ele><time>2026-04-04T11:14:54.788Z</time></trkpt><trkpt lat="44.2209147" lon="11.4275592"><ele>486.0</ele><time>2026-04-04T11:15:06.789Z</time></trkpt><trkpt lat="44.2209578" lon="11.4276357"><ele>486.66666666666663</ele><time>2026-04-04T11:15:07.788Z</time></trkpt><trkpt lat="44.2210058" lon="11.4277365"><ele>487.3333333333333</ele><time>2026-04-04T11:15:08.789Z</time></trkpt><trkpt lat="44.2210533" lon="11.4278415"><ele>488.0</ele><time>2026-04-04T11:15:09.787Z</time></trkpt><trkpt lat="44.2210967" lon="11.4279342"><ele>487.79999999999995</ele><time>2026-04-04T11:15:10.788Z</time></trkpt><trkpt lat="44.2211403" lon="11.4279993"><ele>487.59999999999997</ele><time>2026-04-04T11:15:11.79Z</time></trkpt><trkpt lat="44.2212435" lon="11.4280595"><ele>487.40000000000003</ele><time>2026-04-04T11:15:13.789Z</time></trkpt><trkpt lat="44.2213763" lon="11.4280303"><ele>487.20000000000005</ele><time>2026-04-04T11:15:15.792Z</time></trkpt><trkpt lat="44.2214602" lon="11.4280183"><ele>487.0</ele><time>2026-04-04T11:15:16.79Z</time></trkpt><trkpt lat="44.2215415" lon="11.4280073"><ele>487.1666666666667</ele><time>2026-04-04T11:15:17.789Z</time></trkpt><trkpt lat="44.2216073" lon="11.4279627"><ele>487.33333333333337</ele><time>2026-04-04T11:15:18.787Z</time></trkpt><trkpt lat="44.2216545" lon="11.4278847"><ele>487.5</ele><time>2026-04-04T11:15:19.788Z</time></trkpt><trkpt lat="44.2216942" lon="11.4277893"><ele>487.66666666666663</ele><time>2026-04-04T11:15:20.789Z</time></trkpt><trkpt lat="44.2217362" lon="11.4277032"><ele>487.8333333333333</ele><time>2026-04-04T11:15:21.789Z</time></trkpt><trkpt lat="44.221806" lon="11.4276248"><ele>488.0</ele><time>2026-04-04T11:15:23.787Z</time></trkpt><trkpt lat="44.2217245" lon="11.4276662"><ele>487.99999999999994</ele><time>2026-04-04T11:15:28.788Z</time></trkpt><trkpt lat="44.2216962" lon="11.4277568"><ele>488.0</ele><time>2026-04-04T11:15:29.79Z</time></trkpt><trkpt lat="44.2216592" lon="11.4278518"><ele>487.99999999999994</ele><time>2026-04-04T11:15:30.788Z</time></trkpt><trkpt lat="44.2216167" lon="11.4279302"><ele>487.99999999999994</ele><time>2026-04-04T11:15:31.787Z</time></trkpt><trkpt lat="44.2215635" lon="11.4279913"><ele>488.0</ele><time>2026-04-04T11:15:32.787Z</time></trkpt><trkpt lat="44.2214962" lon="11.4280192"><ele>487.99999999999994</ele><time>2026-04-04T11:15:33.785Z</time></trkpt><trkpt lat="44.2214188" lon="11.4280275"><ele>487.99999999999994</ele><time>2026-04-04T11:15:34.786Z</time></trkpt><trkpt lat="44.2213383" lon="11.4280455"><ele>487.99999999999994</ele><time>2026-04-04T11:15:35.788Z</time></trkpt><trkpt lat="44.2212635" lon="11.4280605"><ele>488.0</ele><time>2026-04-04T11:15:36.789Z</time></trkpt><trkpt lat="44.2211965" lon="11.4280432"><ele>488.0</ele><time>2026-04-04T11:15:37.788Z</time></trkpt><trkpt lat="44.2211393" lon="11.4279818"><ele>488.0</ele><time>2026-04-04T11:15:38.789Z</time></trkpt><trkpt lat="44.2210842" lon="11.4278788"><ele>487.99999999999994</ele><time>2026-04-04T11:15:39.79Z</time></trkpt><trkpt lat="44.2210198" lon="11.4277513"><ele>488.0</ele><time>2026-04-04T11:15:40.79Z</time></trkpt><trkpt lat="44.2209473" lon="11.4276182"><ele>488.0</ele><time>2026-04-04T11:15:41.789Z</time></trkpt><trkpt lat="44.220877" lon="11.427489"><ele>487.99999999999994</ele><time>2026-04-04T11:15:42.788Z</time></trkpt><trkpt lat="44.2208185" lon="11.4273735"><ele>487.99999999999994</ele><time>2026-04-04T11:15:43.788Z</time></trkpt><trkpt lat="44.2207717" lon="11.4272687"><ele>488.0</ele><time>2026-04-04T11:15:44.789Z</time></trkpt><trkpt lat="44.2207402" lon="11.4271742"><ele>488.0</ele><time>2026-04-04T11:15:45.789Z</time></trkpt><trkpt lat="44.2207258" lon="11.427073"><ele>489.3333333333333</ele><time>2026-04-04T11:15:46.793Z</time></trkpt><trkpt lat="44.2207292" lon="11.4269597"><ele>490.66666666666663</ele><time>2026-04-04T11:15:47.79Z</time></trkpt><trkpt lat="44.2207437" lon="11.426849"><ele>492.0</ele><time>2026-04-04T11:15:48.791Z</time></trkpt><trkpt lat="44.2207732" lon="11.4267555"><ele>493.33333333333337</ele><time>2026-04-04T11:15:49.791Z</time></trkpt><trkpt lat="44.2208278" lon="11.4266897"><ele>494.6666666666667</ele><time>2026-04-04T11:15:50.79Z</time></trkpt><trkpt lat="44.220905" lon="11.4266557"><ele>496.0</ele><time>2026-04-04T11:15:51.789Z</time></trkpt><trkpt lat="44.2210028" lon="11.4266543"><ele>496.0</ele><time>2026-04-04T11:15:52.79Z</time></trkpt><trkpt lat="44.2211153" lon="11.4266838"><ele>496.0</ele><time>2026-04-04T11:15:53.789Z</time></trkpt><trkpt lat="44.2212278" lon="11.426722"><ele>496.0</ele><time>2026-04-04T11:15:54.79Z</time></trkpt><trkpt lat="44.2213362" lon="11.4267517"><ele>496.0</ele><time>2026-04-04T11:15:55.789Z</time></trkpt><trkpt lat="44.2214517" lon="11.4267647"><ele>496.4</ele><time>2026-04-04T11:15:56.785Z</time></trkpt><trkpt lat="44.2215597" lon="11.4267637"><ele>496.8</ele><time>2026-04-04T11:15:57.787Z</time></trkpt><trkpt lat="44.2216508" lon="11.4267297"><ele>497.19999999999993</ele><time>2026-04-04T11:15:58.787Z</time></trkpt><trkpt lat="44.2217242" lon="11.4266587"><ele>497.59999999999997</ele><time>2026-04-04T11:15:59.788Z</time></trkpt><trkpt lat="44.2217858" lon="11.4265437"><ele>498.0</ele><time>2026-04-04T11:16:00.788Z</time></trkpt><trkpt lat="44.2218368" lon="11.4263865"><ele>500.25</ele><time>2026-04-04T11:16:01.79Z</time></trkpt><trkpt lat="44.2218998" lon="11.4262087"><ele>502.5</ele><time>2026-04-04T11:16:02.788Z</time></trkpt><trkpt lat="44.2219712" lon="11.4260247"><ele>504.75</ele><time>2026-04-04T11:16:03.79Z</time></trkpt><trkpt lat="44.222039" lon="11.4258433"><ele>507.0</ele><time>2026-04-04T11:16:04.789Z</time></trkpt><trkpt lat="44.2221032" lon="11.4256858"><ele>507.0</ele><time>2026-04-04T11:16:05.789Z</time></trkpt><trkpt lat="44.2221643" lon="11.4255563"><ele>507.0</ele><time>2026-04-04T11:16:06.791Z</time></trkpt><trkpt lat="44.2222253" lon="11.4254602"><ele>507.0</ele><time>2026-04-04T11:16:07.789Z</time></trkpt><trkpt lat="44.2222855" lon="11.425403"><ele>507.0</ele><time>2026-04-04T11:16:08.789Z</time></trkpt><trkpt lat="44.2223577" lon="11.4253882"><ele>507.0</ele><time>2026-04-04T11:16:09.791Z</time></trkpt><trkpt lat="44.22245" lon="11.425409"><ele>507.0</ele><time>2026-04-04T11:16:10.791Z</time></trkpt><trkpt lat="44.222557" lon="11.425466"><ele>507.0</ele><time>2026-04-04T11:16:11.789Z</time></trkpt><trkpt lat="44.2226717" lon="11.4255337"><ele>507.0</ele><time>2026-04-04T11:16:12.789Z</time></trkpt><trkpt lat="44.2227823" lon="11.4255972"><ele>507.0</ele><time>2026-04-04T11:16:13.79Z</time></trkpt><trkpt lat="44.2228868" lon="11.4256427"><ele>507.0</ele><time>2026-04-04T11:16:14.788Z</time></trkpt><trkpt lat="44.2229838" lon="11.4256823"><ele>507.0</ele><time>2026-04-04T11:16:15.789Z</time></trkpt><trkpt lat="44.223076" lon="11.4257142"><ele>507.00000000000006</ele><time>2026-04-04T11:16:16.788Z</time></trkpt><trkpt lat="44.223172" lon="11.4257115"><ele>507.00000000000006</ele><time>2026-04-04T11:16:17.789Z</time></trkpt><trkpt lat="44.2232735" lon="11.4256793"><ele>507.0</ele><time>2026-04-04T11:16:18.789Z</time></trkpt><trkpt lat="44.2233758" lon="11.4256352"><ele>507.0</ele><time>2026-04-04T11:16:19.789Z</time></trkpt><trkpt lat="44.2234757" lon="11.4256005"><ele>507.6666666666667</ele><time>2026-04-04T11:16:20.788Z</time></trkpt><trkpt lat="44.2235703" lon="11.4255935"><ele>508.33333333333337</ele><time>2026-04-04T11:16:21.788Z</time></trkpt><trkpt lat="44.2236477" lon="11.4256243"><ele>509.0</ele><time>2026-04-04T11:16:22.788Z</time></trkpt><trkpt lat="44.2237093" lon="11.4256925"><ele>509.6666666666667</ele><time>2026-04-04T11:16:23.786Z</time></trkpt><trkpt lat="44.2237488" lon="11.4257877"><ele>510.33333333333337</ele><time>2026-04-04T11:16:24.79Z</time></trkpt><trkpt lat="44.2237678" lon="11.4258975"><ele>511.0</ele><time>2026-04-04T11:16:25.789Z</time></trkpt><trkpt lat="44.2237553" lon="11.4260322"><ele>511.0</ele><time>2026-04-04T11:16:26.789Z</time></trkpt><trkpt lat="44.2237157" lon="11.4261722"><ele>511.0</ele><time>2026-04-04T11:16:27.789Z</time></trkpt><trkpt lat="44.2236837" lon="11.426314"><ele>511.0</ele><time>2026-04-04T11:16:28.788Z</time></trkpt><trkpt lat="44.2236775" lon="11.4264572"><ele>511.0</ele><time>2026-04-04T11:16:29.788Z</time></trkpt><trkpt lat="44.2237012" lon="11.4265903"><ele>511.0</ele><time>2026-04-04T11:16:30.789Z</time></trkpt><trkpt lat="44.223755" lon="11.4267265"><ele>510.5</ele><time>2026-04-04T11:16:31.789Z</time></trkpt><trkpt lat="44.2238177" lon="11.4268843"><ele>510.0</ele><time>2026-04-04T11:16:32.788Z</time></trkpt><trkpt lat="44.2238705" lon="11.4270462"><ele>509.5</ele><time>2026-04-04T11:16:33.789Z</time></trkpt><trkpt lat="44.2239113" lon="11.4272045"><ele>509.0</ele><time>2026-04-04T11:16:34.788Z</time></trkpt><trkpt lat="44.2239338" lon="11.4273632"><ele>510.2</ele><time>2026-04-04T11:16:35.787Z</time></trkpt><trkpt lat="44.2239293" lon="11.4274963"><ele>511.4</ele><time>2026-04-04T11:16:36.789Z</time></trkpt><trkpt lat="44.2238998" lon="11.427612"><ele>512.6</ele><time>2026-04-04T11:16:37.789Z</time></trkpt><trkpt lat="44.2238425" lon="11.4277365"><ele>513.8</ele><time>2026-04-04T11:16:38.788Z</time></trkpt><trkpt lat="44.2237822" lon="11.4278758"><ele>515.0</ele><time>2026-04-04T11:16:39.79Z</time></trkpt><trkpt lat="44.2237147" lon="11.4280443"><ele>517.0</ele><time>2026-04-04T11:16:40.791Z</time></trkpt><trkpt lat="44.2236542" lon="11.4282072"><ele>519.0</ele><time>2026-04-04T11:16:41.788Z</time></trkpt><trkpt lat="44.2236128" lon="11.4283698"><ele>521.0</ele><time>2026-04-04T11:16:42.788Z</time></trkpt><trkpt lat="44.2235913" lon="11.4285442"><ele>523.0</ele><time>2026-04-04T11:16:43.789Z</time></trkpt><trkpt lat="44.2235813" lon="11.428737"><ele>525.0</ele><time>2026-04-04T11:16:44.788Z</time></trkpt><trkpt lat="44.223566" lon="11.4289112"><ele>527.0</ele><time>2026-04-04T11:16:45.788Z</time></trkpt><trkpt lat="44.2235543" lon="11.4290617"><ele>529.0</ele><time>2026-04-04T11:16:46.787Z</time></trkpt><trkpt lat="44.2235645" lon="11.4292213"><ele>531.0</ele><time>2026-04-04T11:16:47.787Z</time></trkpt><trkpt lat="44.223596" lon="11.4294018"><ele>531.0</ele><time>2026-04-04T11:16:48.788Z</time></trkpt><trkpt lat="44.2236378" lon="11.4296002"><ele>531.0</ele><time>2026-04-04T11:16:49.79Z</time></trkpt><trkpt lat="44.2236603" lon="11.4297947"><ele>531.0</ele><time>2026-04-04T11:16:50.789Z</time></trkpt><trkpt lat="44.2236818" lon="11.4299895"><ele>531.0</ele><time>2026-04-04T11:16:51.79Z</time></trkpt><trkpt lat="44.2237145" lon="11.4301978"><ele>533.0</ele><time>2026-04-04T11:16:52.79Z</time></trkpt><trkpt lat="44.2237505" lon="11.4304218"><ele>535.0</ele><time>2026-04-04T11:16:53.789Z</time></trkpt><trkpt lat="44.2237858" lon="11.4306635"><ele>537.0</ele><time>2026-04-04T11:16:54.79Z</time></trkpt><trkpt lat="44.2238183" lon="11.4309067"><ele>539.0</ele><time>2026-04-04T11:16:55.788Z</time></trkpt><trkpt lat="44.223843" lon="11.43115"><ele>541.0</ele><time>2026-04-04T11:16:56.791Z</time></trkpt><trkpt lat="44.223858" lon="11.4313978"><ele>543.0</ele><time>2026-04-04T11:16:57.789Z</time></trkpt><trkpt lat="44.2238627" lon="11.4316257"><ele>544.5</ele><time>2026-04-04T11:16:58.788Z</time></trkpt><trkpt lat="44.2238667" lon="11.4318425"><ele>546.0</ele><time>2026-04-04T11:16:59.789Z</time></trkpt><trkpt lat="44.2238742" lon="11.4320408"><ele>547.5</ele><time>2026-04-04T11:17:00.788Z</time></trkpt><trkpt lat="44.2238873" lon="11.4322225"><ele>549.0</ele><time>2026-04-04T11:17:01.788Z</time></trkpt><trkpt lat="44.223921" lon="11.4324068"><ele>550.0</ele><time>2026-04-04T11:17:02.789Z</time></trkpt><trkpt lat="44.2239712" lon="11.4325905"><ele>551.0</ele><time>2026-04-04T11:17:03.789Z</time></trkpt><trkpt lat="44.224011" lon="11.4327637"><ele>552.0</ele><time>2026-04-04T11:17:04.792Z</time></trkpt><trkpt lat="44.2240303" lon="11.4329438"><ele>553.0</ele><time>2026-04-04T11:17:05.787Z</time></trkpt><trkpt lat="44.2240248" lon="11.4331242"><ele>554.8333333333334</ele><time>2026-04-04T11:17:06.79Z</time></trkpt><trkpt lat="44.2239942" lon="11.433286"><ele>556.6666666666667</ele><time>2026-04-04T11:17:07.789Z</time></trkpt><trkpt lat="44.2239602" lon="11.4334203"><ele>558.5</ele><time>2026-04-04T11:17:08.788Z</time></trkpt><trkpt lat="44.2239482" lon="11.4335393"><ele>560.3333333333334</ele><time>2026-04-04T11:17:09.786Z</time></trkpt><trkpt lat="44.2239683" lon="11.4336313"><ele>562.1666666666666</ele><time>2026-04-04T11:17:10.788Z</time></trkpt><trkpt lat="44.2240173" lon="11.4336867"><ele>564.0</ele><time>2026-04-04T11:17:11.786Z</time></trkpt><trkpt lat="44.2240858" lon="11.4336913"><ele>566.5</ele><time>2026-04-04T11:17:12.787Z</time></trkpt><trkpt lat="44.2241705" lon="11.433651"><ele>569.0</ele><time>2026-04-04T11:17:13.789Z</time></trkpt><trkpt lat="44.2242602" lon="11.4336245"><ele>571.5</ele><time>2026-04-04T11:17:14.788Z</time></trkpt><trkpt lat="44.2243455" lon="11.4336375"><ele>574.0</ele><time>2026-04-04T11:17:15.791Z</time></trkpt><trkpt lat="44.224417" lon="11.4336605"><ele>576.5</ele><time>2026-04-04T11:17:16.79Z</time></trkpt><trkpt lat="44.2244895" lon="11.4336523"><ele>579.0</ele><time>2026-04-04T11:17:17.79Z</time></trkpt><trkpt lat="44.2245553" lon="11.4336055"><ele>579.0</ele><time>2026-04-04T11:17:18.79Z</time></trkpt><trkpt lat="44.2245935" lon="11.4335192"><ele>579.0</ele><time>2026-04-04T11:17:19.789Z</time></trkpt><trkpt lat="44.2246043" lon="11.4333982"><ele>579.0</ele><time>2026-04-04T11:17:20.789Z</time></trkpt><trkpt lat="44.2245957" lon="11.4332482"><ele>579.0</ele><time>2026-04-04T11:17:21.79Z</time></trkpt><trkpt lat="44.224594" lon="11.43309"><ele>579.0</ele><time>2026-04-04T11:17:22.791Z</time></trkpt><trkpt lat="44.2246185" lon="11.4329293"><ele>577.75</ele><time>2026-04-04T11:17:23.79Z</time></trkpt><trkpt lat="44.2246687" lon="11.4327722"><ele>576.5</ele><time>2026-04-04T11:17:24.791Z</time></trkpt><trkpt lat="44.224735" lon="11.4326297"><ele>575.25</ele><time>2026-04-04T11:17:25.79Z</time></trkpt><trkpt lat="44.2248173" lon="11.4325035"><ele>574.0</ele><time>2026-04-04T11:17:26.79Z</time></trkpt><trkpt lat="44.2249252" lon="11.4323842"><ele>576.5</ele><time>2026-04-04T11:17:27.791Z</time></trkpt><trkpt lat="44.2250513" lon="11.4322635"><ele>579.0</ele><time>2026-04-04T11:17:28.794Z</time></trkpt><trkpt lat="44.2251717" lon="11.4321503"><ele>581.5</ele><time>2026-04-04T11:17:29.79Z</time></trkpt><trkpt lat="44.2252967" lon="11.4320537"><ele>584.0</ele><time>2026-04-04T11:17:30.792Z</time></trkpt><trkpt lat="44.2254325" lon="11.4319703"><ele>584.0</ele><time>2026-04-04T11:17:31.792Z</time></trkpt><trkpt lat="44.225566" lon="11.4318967"><ele>584.0</ele><time>2026-04-04T11:17:32.79Z</time></trkpt><trkpt lat="44.225696" lon="11.4318135"><ele>584.0</ele><time>2026-04-04T11:17:33.791Z</time></trkpt><trkpt lat="44.2258245" lon="11.4317095"><ele>584.0</ele><time>2026-04-04T11:17:34.79Z</time></trkpt><trkpt lat="44.2259537" lon="11.4315818"><ele>585.0</ele><time>2026-04-04T11:17:35.789Z</time></trkpt><trkpt lat="44.226079" lon="11.431432"><ele>586.0</ele><time>2026-04-04T11:17:36.788Z</time></trkpt><trkpt lat="44.2261972" lon="11.4312615"><ele>587.0</ele><time>2026-04-04T11:17:37.791Z</time></trkpt><trkpt lat="44.2263155" lon="11.4310748"><ele>587.0</ele><time>2026-04-04T11:17:38.792Z</time></trkpt><trkpt lat="44.2264385" lon="11.4308982"><ele>587.0</ele><time>2026-04-04T11:17:39.792Z</time></trkpt><trkpt lat="44.2265525" lon="11.430729"><ele>587.0</ele><time>2026-04-04T11:17:40.791Z</time></trkpt><trkpt lat="44.2266628" lon="11.4305642"><ele>591.3333333333333</ele><time>2026-04-04T11:17:41.792Z</time></trkpt><trkpt lat="44.2267677" lon="11.4303992"><ele>595.6666666666666</ele><time>2026-04-04T11:17:42.792Z</time></trkpt><trkpt lat="44.2268662" lon="11.4302265"><ele>600.0</ele><time>2026-04-04T11:17:43.791Z</time></trkpt><trkpt lat="44.2269613" lon="11.430041"><ele>600.0</ele><time>2026-04-04T11:17:44.795Z</time></trkpt><trkpt lat="44.2270547" lon="11.4298332"><ele>600.0</ele><time>2026-04-04T11:17:45.791Z</time></trkpt><trkpt lat="44.227139" lon="11.4296057"><ele>600.0</ele><time>2026-04-04T11:17:46.791Z</time></trkpt><trkpt lat="44.2272092" lon="11.4293668"><ele>598.6666666666666</ele><time>2026-04-04T11:17:47.79Z</time></trkpt><trkpt lat="44.2272618" lon="11.429132"><ele>597.3333333333333</ele><time>2026-04-04T11:17:48.792Z</time></trkpt><trkpt lat="44.2272985" lon="11.4288967"><ele>596.0</ele><time>2026-04-04T11:17:49.79Z</time></trkpt><trkpt lat="44.2273367" lon="11.4286763"><ele>601.25</ele><time>2026-04-04T11:17:50.791Z</time></trkpt><trkpt lat="44.2273908" lon="11.4284933"><ele>606.5</ele><time>2026-04-04T11:17:51.791Z</time></trkpt><trkpt lat="44.2274675" lon="11.4283323"><ele>611.75</ele><time>2026-04-04T11:17:52.792Z</time></trkpt><trkpt lat="44.2275657" lon="11.4281783"><ele>617.0</ele><time>2026-04-04T11:17:53.789Z</time></trkpt><trkpt lat="44.2276782" lon="11.4280365"><ele>615.6666666666666</ele><time>2026-04-04T11:17:54.793Z</time></trkpt><trkpt lat="44.2278067" lon="11.4279003"><ele>614.3333333333334</ele><time>2026-04-04T11:17:55.791Z</time></trkpt><trkpt lat="44.227943" lon="11.4277562"><ele>613.0</ele><time>2026-04-04T11:17:56.791Z</time></trkpt><trkpt lat="44.2280663" lon="11.4276238"><ele>616.5</ele><time>2026-04-04T11:17:57.791Z</time></trkpt><trkpt lat="44.2281855" lon="11.42751"><ele>620.0</ele><time>2026-04-04T11:17:58.79Z</time></trkpt><trkpt lat="44.2283045" lon="11.42742"><ele>623.5</ele><time>2026-04-04T11:17:59.789Z</time></trkpt><trkpt lat="44.2284268" lon="11.4273553"><ele>627.0</ele><time>2026-04-04T11:18:00.788Z</time></trkpt><trkpt lat="44.2285558" lon="11.4273108"><ele>627.0</ele><time>2026-04-04T11:18:01.788Z</time></trkpt><trkpt lat="44.2286875" lon="11.4272642"><ele>627.0</ele><time>2026-04-04T11:18:02.79Z</time></trkpt><trkpt lat="44.2288158" lon="11.4272033"><ele>627.0</ele><time>2026-04-04T11:18:03.796Z</time></trkpt><trkpt lat="44.2289322" lon="11.4271348"><ele>627.0</ele><time>2026-04-04T11:18:04.79Z</time></trkpt><trkpt lat="44.2290308" lon="11.427051"><ele>628.75</ele><time>2026-04-04T11:18:05.79Z</time></trkpt><trkpt lat="44.2291137" lon="11.4269198"><ele>630.5</ele><time>2026-04-04T11:18:06.792Z</time></trkpt><trkpt lat="44.2291895" lon="11.4267503"><ele>632.25</ele><time>2026-04-04T11:18:07.792Z</time></trkpt><trkpt lat="44.2292582" lon="11.4265813"><ele>634.0</ele><time>2026-04-04T11:18:08.79Z</time></trkpt><trkpt lat="44.2293155" lon="11.4264023"><ele>633.6666666666667</ele><time>2026-04-04T11:18:09.79Z</time></trkpt><trkpt lat="44.2293647" lon="11.4261922"><ele>633.3333333333334</ele><time>2026-04-04T11:18:10.791Z</time></trkpt><trkpt lat="44.2294185" lon="11.4259592"><ele>633.0</ele><time>2026-04-04T11:18:11.79Z</time></trkpt><trkpt lat="44.2294757" lon="11.4257128"><ele>633.0</ele><time>2026-04-04T11:18:12.791Z</time></trkpt><trkpt lat="44.2295305" lon="11.4254642"><ele>633.0</ele><time>2026-04-04T11:18:13.79Z</time></trkpt><trkpt lat="44.2295825" lon="11.425241"><ele>633.0</ele><time>2026-04-04T11:18:14.793Z</time></trkpt><trkpt lat="44.2296327" lon="11.4250398"><ele>633.0</ele><time>2026-04-04T11:18:15.789Z</time></trkpt><trkpt lat="44.229677" lon="11.4248557"><ele>633.0</ele><time>2026-04-04T11:18:16.79Z</time></trkpt><trkpt lat="44.2297128" lon="11.4246863"><ele>633.0</ele><time>2026-04-04T11:18:17.79Z</time></trkpt><trkpt lat="44.229746" lon="11.4245385"><ele>633.0</ele><time>2026-04-04T11:18:18.791Z</time></trkpt><trkpt lat="44.2297892" lon="11.4244057"><ele>637.75</ele><time>2026-04-04T11:18:19.791Z</time></trkpt><trkpt lat="44.2298575" lon="11.4242843"><ele>642.5</ele><time>2026-04-04T11:18:20.79Z</time></trkpt><trkpt lat="44.229951" lon="11.424172"><ele>647.25</ele><time>2026-04-04T11:18:21.79Z</time></trkpt><trkpt lat="44.2300602" lon="11.4240607"><ele>652.0</ele><time>2026-04-04T11:18:22.789Z</time></trkpt><trkpt lat="44.2301792" lon="11.4239453"><ele>652.0</ele><time>2026-04-04T11:18:23.787Z</time></trkpt><trkpt lat="44.2302867" lon="11.4238297"><ele>652.0</ele><time>2026-04-04T11:18:24.787Z</time></trkpt><trkpt lat="44.2303713" lon="11.4236983"><ele>652.0</ele><time>2026-04-04T11:18:25.787Z</time></trkpt><trkpt lat="44.2304317" lon="11.4235433"><ele>652.0</ele><time>2026-04-04T11:18:26.786Z</time></trkpt><trkpt lat="44.2304642" lon="11.4233732"><ele>649.75</ele><time>2026-04-04T11:18:27.788Z</time></trkpt><trkpt lat="44.23047" lon="11.4231883"><ele>647.5</ele><time>2026-04-04T11:18:28.788Z</time></trkpt><trkpt lat="44.2304568" lon="11.4229868"><ele>645.25</ele><time>2026-04-04T11:18:29.789Z</time></trkpt><trkpt lat="44.2304433" lon="11.422798"><ele>643.0</ele><time>2026-04-04T11:18:30.79Z</time></trkpt><trkpt lat="44.2304293" lon="11.4226197"><ele>643.0</ele><time>2026-04-04T11:18:31.79Z</time></trkpt><trkpt lat="44.2304217" lon="11.4224477"><ele>643.0</ele><time>2026-04-04T11:18:32.79Z</time></trkpt><trkpt lat="44.2304282" lon="11.4222937"><ele>643.0</ele><time>2026-04-04T11:18:33.79Z</time></trkpt><trkpt lat="44.2304595" lon="11.4221673"><ele>643.0</ele><time>2026-04-04T11:18:34.789Z</time></trkpt><trkpt lat="44.2305195" lon="11.4220488"><ele>643.0</ele><time>2026-04-04T11:18:35.79Z</time></trkpt><trkpt lat="44.2306007" lon="11.421936"><ele>646.5</ele><time>2026-04-04T11:18:36.791Z</time></trkpt><trkpt lat="44.2307027" lon="11.4218395"><ele>650.0</ele><time>2026-04-04T11:18:37.789Z</time></trkpt><trkpt lat="44.2308188" lon="11.4217475"><ele>653.5</ele><time>2026-04-04T11:18:38.791Z</time></trkpt><trkpt lat="44.230932" lon="11.4216445"><ele>657.0</ele><time>2026-04-04T11:18:39.79Z</time></trkpt><trkpt lat="44.2310383" lon="11.421529"><ele>657.0</ele><time>2026-04-04T11:18:40.79Z</time></trkpt><trkpt lat="44.231127" lon="11.4214062"><ele>657.0</ele><time>2026-04-04T11:18:41.79Z</time></trkpt><trkpt lat="44.2311927" lon="11.421258"><ele>657.0</ele><time>2026-04-04T11:18:42.792Z</time></trkpt><trkpt lat="44.2312485" lon="11.4210953"><ele>657.0</ele><time>2026-04-04T11:18:43.79Z</time></trkpt><trkpt lat="44.2313185" lon="11.4209327"><ele>655.25</ele><time>2026-04-04T11:18:44.79Z</time></trkpt><trkpt lat="44.2313907" lon="11.420774"><ele>653.5</ele><time>2026-04-04T11:18:45.79Z</time></trkpt><trkpt lat="44.231447" lon="11.4206075"><ele>651.75</ele><time>2026-04-04T11:18:46.793Z</time></trkpt><trkpt lat="44.2314792" lon="11.4204338"><ele>650.0</ele><time>2026-04-04T11:18:47.788Z</time></trkpt><trkpt lat="44.231487" lon="11.420254"><ele>652.25</ele><time>2026-04-04T11:18:48.787Z</time></trkpt><trkpt lat="44.2314752" lon="11.4200892"><ele>654.5</ele><time>2026-04-04T11:18:49.787Z</time></trkpt><trkpt lat="44.2314277" lon="11.4199465"><ele>656.75</ele><time>2026-04-04T11:18:50.786Z</time></trkpt><trkpt lat="44.2313503" lon="11.4198227"><ele>659.0</ele><time>2026-04-04T11:18:51.789Z</time></trkpt><trkpt lat="44.2312505" lon="11.4197077"><ele>662.25</ele><time>2026-04-04T11:18:52.789Z</time></trkpt><trkpt lat="44.2311515" lon="11.419597"><ele>665.5</ele><time>2026-04-04T11:18:53.788Z</time></trkpt><trkpt lat="44.2310593" lon="11.4194823"><ele>668.75</ele><time>2026-04-04T11:18:54.789Z</time></trkpt><trkpt lat="44.230975" lon="11.419356"><ele>672.0</ele><time>2026-04-04T11:18:55.789Z</time></trkpt><trkpt lat="44.2309025" lon="11.4192087"><ele>672.0</ele><time>2026-04-04T11:18:56.79Z</time></trkpt><trkpt lat="44.2308422" lon="11.4190435"><ele>672.0</ele><time>2026-04-04T11:18:57.79Z</time></trkpt><trkpt lat="44.2307935" lon="11.4188873"><ele>672.0</ele><time>2026-04-04T11:18:58.789Z</time></trkpt><trkpt lat="44.2307458" lon="11.4187468"><ele>672.0</ele><time>2026-04-04T11:18:59.788Z</time></trkpt><trkpt lat="44.2306883" lon="11.4186043"><ele>671.25</ele><time>2026-04-04T11:19:00.792Z</time></trkpt><trkpt lat="44.2306103" lon="11.4184632"><ele>670.5</ele><time>2026-04-04T11:19:01.789Z</time></trkpt><trkpt lat="44.2305005" lon="11.4183283"><ele>669.75</ele><time>2026-04-04T11:19:02.79Z</time></trkpt><trkpt lat="44.230387" lon="11.4181995"><ele>669.0</ele><time>2026-04-04T11:19:03.788Z</time></trkpt><trkpt lat="44.230282" lon="11.4180623"><ele>672.75</ele><time>2026-04-04T11:19:04.789Z</time></trkpt><trkpt lat="44.2301875" lon="11.417907"><ele>676.5</ele><time>2026-04-04T11:19:05.788Z</time></trkpt><trkpt lat="44.2301072" lon="11.4177415"><ele>680.25</ele><time>2026-04-04T11:19:06.789Z</time></trkpt><trkpt lat="44.230033" lon="11.4175882"><ele>684.0</ele><time>2026-04-04T11:19:07.789Z</time></trkpt><trkpt lat="44.2299425" lon="11.417449"><ele>684.0</ele><time>2026-04-04T11:19:08.788Z</time></trkpt><trkpt lat="44.2298267" lon="11.417319"><ele>684.0</ele><time>2026-04-04T11:19:09.79Z</time></trkpt><trkpt lat="44.2297145" lon="11.4171842"><ele>684.0</ele><time>2026-04-04T11:19:10.789Z</time></trkpt><trkpt lat="44.2296227" lon="11.417039"><ele>684.0</ele><time>2026-04-04T11:19:11.787Z</time></trkpt><trkpt lat="44.2295203" lon="11.4168838"><ele>685.5</ele><time>2026-04-04T11:19:12.787Z</time></trkpt><trkpt lat="44.2294073" lon="11.4167498"><ele>687.0</ele><time>2026-04-04T11:19:13.787Z</time></trkpt><trkpt lat="44.2292978" lon="11.4166567"><ele>688.5</ele><time>2026-04-04T11:19:14.787Z</time></trkpt><trkpt lat="44.2292043" lon="11.4165777"><ele>690.0</ele><time>2026-04-04T11:19:15.789Z</time></trkpt><trkpt lat="44.2291432" lon="11.4165037"><ele>690.0</ele><time>2026-04-04T11:19:16.792Z</time></trkpt><trkpt lat="44.2291433" lon="11.4163927"><ele>690.0</ele><time>2026-04-04T11:19:18.79Z</time></trkpt><trkpt lat="44.2292787" lon="11.4163922"><ele>690.0</ele><time>2026-04-04T11:19:20.788Z</time></trkpt><trkpt lat="44.2293835" lon="11.416433"><ele>690.0</ele><time>2026-04-04T11:19:21.789Z</time></trkpt><trkpt lat="44.229509" lon="11.4164848"><ele>690.0</ele><time>2026-04-04T11:19:22.79Z</time></trkpt><trkpt lat="44.2296583" lon="11.4165327"><ele>690.0</ele><time>2026-04-04T11:19:23.789Z</time></trkpt><trkpt lat="44.2298087" lon="11.4165765"><ele>690.0</ele><time>2026-04-04T11:19:24.791Z</time></trkpt><trkpt lat="44.22995" lon="11.4166185"><ele>692.5</ele><time>2026-04-04T11:19:25.79Z</time></trkpt><trkpt lat="44.2300852" lon="11.4166523"><ele>695.0</ele><time>2026-04-04T11:19:26.79Z</time></trkpt><trkpt lat="44.230204" lon="11.4166852"><ele>697.5</ele><time>2026-04-04T11:19:27.789Z</time></trkpt><trkpt lat="44.2303063" lon="11.4167335"><ele>700.0</ele><time>2026-04-04T11:19:28.79Z</time></trkpt><trkpt lat="44.2303903" lon="11.4168048"><ele>700.0</ele><time>2026-04-04T11:19:29.789Z</time></trkpt><trkpt lat="44.2304795" lon="11.4168905"><ele>700.0</ele><time>2026-04-04T11:19:30.79Z</time></trkpt><trkpt lat="44.2305843" lon="11.4169612"><ele>700.0</ele><time>2026-04-04T11:19:31.789Z</time></trkpt><trkpt lat="44.2306967" lon="11.4170152"><ele>700.0</ele><time>2026-04-04T11:19:32.79Z</time></trkpt><trkpt lat="44.2308048" lon="11.4170565"><ele>702.75</ele><time>2026-04-04T11:19:33.788Z</time></trkpt><trkpt lat="44.2309205" lon="11.4170808"><ele>705.5</ele><time>2026-04-04T11:19:34.788Z</time></trkpt><trkpt lat="44.2310438" lon="11.4170762"><ele>708.25</ele><time>2026-04-04T11:19:35.788Z</time></trkpt><trkpt lat="44.2311652" lon="11.4170585"><ele>711.0</ele><time>2026-04-04T11:19:36.788Z</time></trkpt><trkpt lat="44.2312733" lon="11.4170608"><ele>711.0</ele><time>2026-04-04T11:19:37.787Z</time></trkpt><trkpt lat="44.2313715" lon="11.417091"><ele>711.0</ele><time>2026-04-04T11:19:38.786Z</time></trkpt><trkpt lat="44.231448" lon="11.4171542"><ele>711.0</ele><time>2026-04-04T11:19:39.786Z</time></trkpt><trkpt lat="44.2314998" lon="11.4172627"><ele>711.0</ele><time>2026-04-04T11:19:40.789Z</time></trkpt><trkpt lat="44.2315283" lon="11.4174035"><ele>711.0</ele><time>2026-04-04T11:19:41.788Z</time></trkpt><trkpt lat="44.2315587" lon="11.4175458"><ele>712.0</ele><time>2026-04-04T11:19:42.788Z</time></trkpt><trkpt lat="44.2316178" lon="11.4176717"><ele>713.0</ele><time>2026-04-04T11:19:43.79Z</time></trkpt><trkpt lat="44.231711" lon="11.4177953"><ele>714.0</ele><time>2026-04-04T11:19:44.789Z</time></trkpt><trkpt lat="44.231829" lon="11.4179175"><ele>715.0</ele><time>2026-04-04T11:19:45.788Z</time></trkpt><trkpt lat="44.2319458" lon="11.4180168"><ele>717.0</ele><time>2026-04-04T11:19:46.788Z</time></trkpt><trkpt lat="44.2320585" lon="11.4181117"><ele>719.0</ele><time>2026-04-04T11:19:47.789Z</time></trkpt><trkpt lat="44.2321575" lon="11.418198"><ele>721.0</ele><time>2026-04-04T11:19:48.787Z</time></trkpt><trkpt lat="44.2322553" lon="11.4182765"><ele>723.0</ele><time>2026-04-04T11:19:49.789Z</time></trkpt><trkpt lat="44.2323623" lon="11.4183457"><ele>723.0</ele><time>2026-04-04T11:19:50.789Z</time></trkpt><trkpt lat="44.2324852" lon="11.4184103"><ele>723.0</ele><time>2026-04-04T11:19:51.789Z</time></trkpt><trkpt lat="44.2326225" lon="11.4184658"><ele>723.0</ele><time>2026-04-04T11:19:52.789Z</time></trkpt><trkpt lat="44.2327507" lon="11.418524"><ele>723.0</ele><time>2026-04-04T11:19:53.788Z</time></trkpt><trkpt lat="44.2328553" lon="11.4185978"><ele>723.0</ele><time>2026-04-04T11:19:54.788Z</time></trkpt><trkpt lat="44.2329447" lon="11.418664"><ele>723.0</ele><time>2026-04-04T11:19:55.789Z</time></trkpt><trkpt lat="44.2330263" lon="11.418701"><ele>723.0</ele><time>2026-04-04T11:19:56.789Z</time></trkpt><trkpt lat="44.2331028" lon="11.4187285"><ele>723.0</ele><time>2026-04-04T11:19:57.79Z</time></trkpt><trkpt lat="44.233164" lon="11.4187573"><ele>723.0</ele><time>2026-04-04T11:19:58.789Z</time></trkpt><trkpt lat="44.2332295" lon="11.4187908"><ele>723.0</ele><time>2026-04-04T11:19:59.789Z</time></trkpt><trkpt lat="44.233294" lon="11.4188273"><ele>723.3333333333334</ele><time>2026-04-04T11:20:00.787Z</time></trkpt><trkpt lat="44.2333625" lon="11.4188657"><ele>723.6666666666666</ele><time>2026-04-04T11:20:01.785Z</time></trkpt><trkpt lat="44.2334287" lon="11.4189127"><ele>724.0</ele><time>2026-04-04T11:20:02.785Z</time></trkpt><trkpt lat="44.2334873" lon="11.418976"><ele>724.3333333333333</ele><time>2026-04-04T11:20:03.786Z</time></trkpt><trkpt lat="44.2335472" lon="11.4190585"><ele>724.6666666666666</ele><time>2026-04-04T11:20:04.787Z</time></trkpt><trkpt lat="44.233596" lon="11.4191525"><ele>725.0</ele><time>2026-04-04T11:20:05.786Z</time></trkpt><trkpt lat="44.2336265" lon="11.4192603"><ele>725.0</ele><time>2026-04-04T11:20:06.787Z</time></trkpt><trkpt lat="44.233653" lon="11.419378"><ele>725.0</ele><time>2026-04-04T11:20:07.788Z</time></trkpt><trkpt lat="44.2336723" lon="11.4195147"><ele>725.0</ele><time>2026-04-04T11:20:08.787Z</time></trkpt><trkpt lat="44.2336695" lon="11.419656"><ele>725.0</ele><time>2026-04-04T11:20:09.789Z</time></trkpt><trkpt lat="44.2336483" lon="11.4197962"><ele>725.0</ele><time>2026-04-04T11:20:10.787Z</time></trkpt><trkpt lat="44.2336133" lon="11.4199438"><ele>725.0</ele><time>2026-04-04T11:20:11.789Z</time></trkpt><trkpt lat="44.2335597" lon="11.4200783"><ele>725.0</ele><time>2026-04-04T11:20:12.789Z</time></trkpt><trkpt lat="44.2335002" lon="11.4201965"><ele>725.0</ele><time>2026-04-04T11:20:13.788Z</time></trkpt><trkpt lat="44.2334535" lon="11.420315"><ele>725.0</ele><time>2026-04-04T11:20:14.788Z</time></trkpt><trkpt lat="44.2334323" lon="11.4204397"><ele>725.0</ele><time>2026-04-04T11:20:15.788Z</time></trkpt><trkpt lat="44.2334435" lon="11.420581"><ele>725.6</ele><time>2026-04-04T11:20:16.788Z</time></trkpt><trkpt lat="44.233481" lon="11.4207347"><ele>726.2</ele><time>2026-04-04T11:20:17.787Z</time></trkpt><trkpt lat="44.2335298" lon="11.4208662"><ele>726.8</ele><time>2026-04-04T11:20:18.788Z</time></trkpt><trkpt lat="44.2336008" lon="11.420968"><ele>727.4</ele><time>2026-04-04T11:20:19.788Z</time></trkpt><trkpt lat="44.2336853" lon="11.4210608"><ele>728.0</ele><time>2026-04-04T11:20:20.789Z</time></trkpt><trkpt lat="44.2337542" lon="11.4211555"><ele>728.0</ele><time>2026-04-04T11:20:21.787Z</time></trkpt><trkpt lat="44.2338053" lon="11.4212695"><ele>728.0</ele><time>2026-04-04T11:20:22.788Z</time></trkpt><trkpt lat="44.2338343" lon="11.4214105"><ele>728.0</ele><time>2026-04-04T11:20:23.789Z</time></trkpt><trkpt lat="44.233855" lon="11.4215772"><ele>728.0</ele><time>2026-04-04T11:20:24.789Z</time></trkpt><trkpt lat="44.2338972" lon="11.4217475"><ele>727.25</ele><time>2026-04-04T11:20:25.786Z</time></trkpt><trkpt lat="44.2339423" lon="11.4219033"><ele>726.5</ele><time>2026-04-04T11:20:26.786Z</time></trkpt><trkpt lat="44.233964" lon="11.4220605"><ele>725.75</ele><time>2026-04-04T11:20:27.787Z</time></trkpt><trkpt lat="44.2339638" lon="11.422217"><ele>725.0</ele><time>2026-04-04T11:20:28.787Z</time></trkpt><trkpt lat="44.2339618" lon="11.4223735"><ele>727.6</ele><time>2026-04-04T11:20:29.788Z</time></trkpt><trkpt lat="44.2339875" lon="11.4224993"><ele>730.2</ele><time>2026-04-04T11:20:30.789Z</time></trkpt><trkpt lat="44.2340442" lon="11.4225653"><ele>732.8</ele><time>2026-04-04T11:20:31.789Z</time></trkpt><trkpt lat="44.2341167" lon="11.4225627"><ele>735.4</ele><time>2026-04-04T11:20:32.789Z</time></trkpt><trkpt lat="44.2341975" lon="11.4225007"><ele>738.0</ele><time>2026-04-04T11:20:33.79Z</time></trkpt><trkpt lat="44.2342878" lon="11.422395"><ele>738.0</ele><time>2026-04-04T11:20:34.79Z</time></trkpt><trkpt lat="44.2343892" lon="11.422272"><ele>738.0</ele><time>2026-04-04T11:20:35.79Z</time></trkpt><trkpt lat="44.2345048" lon="11.4221518"><ele>738.0</ele><time>2026-04-04T11:20:36.789Z</time></trkpt><trkpt lat="44.2346378" lon="11.4220402"><ele>738.0</ele><time>2026-04-04T11:20:37.79Z</time></trkpt><trkpt lat="44.2347543" lon="11.421928"><ele>740.75</ele><time>2026-04-04T11:20:38.789Z</time></trkpt><trkpt lat="44.2348507" lon="11.4218098"><ele>743.5</ele><time>2026-04-04T11:20:39.79Z</time></trkpt><trkpt lat="44.2349508" lon="11.421723"><ele>746.25</ele><time>2026-04-04T11:20:40.788Z</time></trkpt><trkpt lat="44.2350643" lon="11.4216613"><ele>749.0</ele><time>2026-04-04T11:20:41.79Z</time></trkpt><trkpt lat="44.2351648" lon="11.4215865"><ele>749.0</ele><time>2026-04-04T11:20:42.788Z</time></trkpt><trkpt lat="44.2352583" lon="11.421479"><ele>749.0</ele><time>2026-04-04T11:20:43.788Z</time></trkpt><trkpt lat="44.2353592" lon="11.421369"><ele>749.0</ele><time>2026-04-04T11:20:44.79Z</time></trkpt><trkpt lat="44.2354698" lon="11.4212828"><ele>749.0</ele><time>2026-04-04T11:20:45.79Z</time></trkpt><trkpt lat="44.2355897" lon="11.4212135"><ele>749.8000000000001</ele><time>2026-04-04T11:20:46.788Z</time></trkpt><trkpt lat="44.2357002" lon="11.4211665"><ele>750.6</ele><time>2026-04-04T11:20:47.789Z</time></trkpt><trkpt lat="44.2358007" lon="11.4211548"><ele>751.4</ele><time>2026-04-04T11:20:48.789Z</time></trkpt><trkpt lat="44.235901" lon="11.4211783"><ele>752.2</ele><time>2026-04-04T11:20:49.788Z</time></trkpt><trkpt lat="44.235989" lon="11.4211973"><ele>753.0</ele><time>2026-04-04T11:20:50.786Z</time></trkpt><trkpt lat="44.2360667" lon="11.4211947"><ele>753.0</ele><time>2026-04-04T11:20:51.788Z</time></trkpt><trkpt lat="44.2361453" lon="11.4211983"><ele>753.0</ele><time>2026-04-04T11:20:52.787Z</time></trkpt><trkpt lat="44.2362373" lon="11.4211937"><ele>753.0</ele><time>2026-04-04T11:20:53.788Z</time></trkpt><trkpt lat="44.2363402" lon="11.4211702"><ele>753.0</ele><time>2026-04-04T11:20:54.79Z</time></trkpt><trkpt lat="44.2364418" lon="11.4211327"><ele>753.0</ele><time>2026-04-04T11:20:55.791Z</time></trkpt><trkpt lat="44.2365388" lon="11.4210742"><ele>751.4</ele><time>2026-04-04T11:20:56.788Z</time></trkpt><trkpt lat="44.2366365" lon="11.4210157"><ele>749.8</ele><time>2026-04-04T11:20:57.79Z</time></trkpt><trkpt lat="44.2367295" lon="11.4209703"><ele>748.2</ele><time>2026-04-04T11:20:58.79Z</time></trkpt><trkpt lat="44.2368215" lon="11.4209253"><ele>746.6</ele><time>2026-04-04T11:20:59.79Z</time></trkpt><trkpt lat="44.236916" lon="11.4208915"><ele>745.0</ele><time>2026-04-04T11:21:00.789Z</time></trkpt><trkpt lat="44.2370077" lon="11.4208763"><ele>745.0</ele><time>2026-04-04T11:21:01.79Z</time></trkpt><trkpt lat="44.2370932" lon="11.4208887"><ele>745.0</ele><time>2026-04-04T11:21:02.789Z</time></trkpt><trkpt lat="44.2371733" lon="11.420927"><ele>745.0</ele><time>2026-04-04T11:21:03.79Z</time></trkpt><trkpt lat="44.2372587" lon="11.4209832"><ele>745.0</ele><time>2026-04-04T11:21:04.79Z</time></trkpt><trkpt lat="44.237352" lon="11.4210603"><ele>745.0</ele><time>2026-04-04T11:21:05.788Z</time></trkpt><trkpt lat="44.237436" lon="11.421155"><ele>743.2</ele><time>2026-04-04T11:21:06.789Z</time></trkpt><trkpt lat="44.2375125" lon="11.4212522"><ele>741.4</ele><time>2026-04-04T11:21:07.789Z</time></trkpt><trkpt lat="44.237589" lon="11.4213398"><ele>739.5999999999999</ele><time>2026-04-04T11:21:08.79Z</time></trkpt><trkpt lat="44.2376795" lon="11.4214045"><ele>737.8</ele><time>2026-04-04T11:21:09.788Z</time></trkpt><trkpt lat="44.2377952" lon="11.4214403"><ele>736.0</ele><time>2026-04-04T11:21:10.789Z</time></trkpt><trkpt lat="44.2379248" lon="11.4214483"><ele>735.0</ele><time>2026-04-04T11:21:11.79Z</time></trkpt><trkpt lat="44.2380488" lon="11.4214263"><ele>734.0</ele><time>2026-04-04T11:21:12.79Z</time></trkpt><trkpt lat="44.2381727" lon="11.4214013"><ele>733.0</ele><time>2026-04-04T11:21:13.789Z</time></trkpt><trkpt lat="44.2382962" lon="11.4214022"><ele>732.0</ele><time>2026-04-04T11:21:14.787Z</time></trkpt><trkpt lat="44.2384227" lon="11.4214173"><ele>731.75</ele><time>2026-04-04T11:21:15.788Z</time></trkpt><trkpt lat="44.2385537" lon="11.4214157"><ele>731.5</ele><time>2026-04-04T11:21:16.785Z</time></trkpt><trkpt lat="44.238683" lon="11.4213933"><ele>731.25</ele><time>2026-04-04T11:21:17.786Z</time></trkpt><trkpt lat="44.23881" lon="11.4213768"><ele>731.0</ele><time>2026-04-04T11:21:18.789Z</time></trkpt><trkpt lat="44.2389367" lon="11.4213852"><ele>730.75</ele><time>2026-04-04T11:21:19.791Z</time></trkpt><trkpt lat="44.2390622" lon="11.4214038"><ele>730.5</ele><time>2026-04-04T11:21:20.788Z</time></trkpt><trkpt lat="44.2391882" lon="11.421422"><ele>730.25</ele><time>2026-04-04T11:21:21.791Z</time></trkpt><trkpt lat="44.239311" lon="11.4214633"><ele>730.0</ele><time>2026-04-04T11:21:22.791Z</time></trkpt><trkpt lat="44.2394302" lon="11.4215315"><ele>730.0</ele><time>2026-04-04T11:21:23.789Z</time></trkpt><trkpt lat="44.2395445" lon="11.4216183"><ele>730.0</ele><time>2026-04-04T11:21:24.789Z</time></trkpt><trkpt lat="44.2396533" lon="11.4217092"><ele>730.0</ele><time>2026-04-04T11:21:25.791Z</time></trkpt><trkpt lat="44.2397468" lon="11.4218"><ele>730.0</ele><time>2026-04-04T11:21:26.789Z</time></trkpt><trkpt lat="44.2398228" lon="11.4219022"><ele>730.6</ele><time>2026-04-04T11:21:27.791Z</time></trkpt><trkpt lat="44.2398917" lon="11.4220288"><ele>731.2</ele><time>2026-04-04T11:21:28.79Z</time></trkpt><trkpt lat="44.2399588" lon="11.4221642"><ele>731.8</ele><time>2026-04-04T11:21:29.788Z</time></trkpt><trkpt lat="44.2400252" lon="11.4222883"><ele>732.4</ele><time>2026-04-04T11:21:30.788Z</time></trkpt><trkpt lat="44.2400883" lon="11.422406"><ele>733.0</ele><time>2026-04-04T11:21:31.788Z</time></trkpt><trkpt lat="44.240147" lon="11.4225245"><ele>733.0</ele><time>2026-04-04T11:21:32.79Z</time></trkpt><trkpt lat="44.240193" lon="11.4226522"><ele>733.0</ele><time>2026-04-04T11:21:33.789Z</time></trkpt><trkpt lat="44.240239" lon="11.4227875"><ele>733.0</ele><time>2026-04-04T11:21:34.789Z</time></trkpt><trkpt lat="44.2402912" lon="11.4229187"><ele>733.0</ele><time>2026-04-04T11:21:35.788Z</time></trkpt><trkpt lat="44.2403528" lon="11.4230423"><ele>733.0</ele><time>2026-04-04T11:21:36.789Z</time></trkpt><trkpt lat="44.2404227" lon="11.423156"><ele>732.5999999999999</ele><time>2026-04-04T11:21:37.789Z</time></trkpt><trkpt lat="44.2405018" lon="11.4232618"><ele>732.1999999999999</ele><time>2026-04-04T11:21:38.788Z</time></trkpt><trkpt lat="44.240587" lon="11.4233568"><ele>731.8</ele><time>2026-04-04T11:21:39.788Z</time></trkpt><trkpt lat="44.240674" lon="11.4234408"><ele>731.4</ele><time>2026-04-04T11:21:40.786Z</time></trkpt><trkpt lat="44.240755" lon="11.4235168"><ele>731.0</ele><time>2026-04-04T11:21:41.787Z</time></trkpt><trkpt lat="44.2408295" lon="11.4235825"><ele>731.0</ele><time>2026-04-04T11:21:42.788Z</time></trkpt><trkpt lat="44.240901" lon="11.4236328"><ele>731.0</ele><time>2026-04-04T11:21:43.791Z</time></trkpt><trkpt lat="44.240965" lon="11.423687"><ele>731.0</ele><time>2026-04-04T11:21:44.789Z</time></trkpt><trkpt lat="44.2410252" lon="11.4237348"><ele>731.0</ele><time>2026-04-04T11:21:45.789Z</time></trkpt><trkpt lat="44.2410842" lon="11.4237707"><ele>731.0</ele><time>2026-04-04T11:21:46.789Z</time></trkpt><trkpt lat="44.2411428" lon="11.4238057"><ele>731.0</ele><time>2026-04-04T11:21:47.788Z</time></trkpt><trkpt lat="44.2412017" lon="11.4238463"><ele>731.0</ele><time>2026-04-04T11:21:48.789Z</time></trkpt><trkpt lat="44.241264" lon="11.423896"><ele>731.3333333333333</ele><time>2026-04-04T11:21:49.789Z</time></trkpt><trkpt lat="44.2413305" lon="11.42395"><ele>731.6666666666666</ele><time>2026-04-04T11:21:50.79Z</time></trkpt><trkpt lat="44.2414002" lon="11.4240017"><ele>732.0</ele><time>2026-04-04T11:21:51.789Z</time></trkpt><trkpt lat="44.241471" lon="11.4240545"><ele>732.3333333333334</ele><time>2026-04-04T11:21:52.79Z</time></trkpt><trkpt lat="44.2415445" lon="11.4241122"><ele>732.6666666666667</ele><time>2026-04-04T11:21:53.792Z</time></trkpt><trkpt lat="44.2416218" lon="11.4241762"><ele>733.0</ele><time>2026-04-04T11:21:54.789Z</time></trkpt><trkpt lat="44.241704" lon="11.4242412"><ele>733.0</ele><time>2026-04-04T11:21:55.788Z</time></trkpt><trkpt lat="44.2417882" lon="11.4243032"><ele>733.0</ele><time>2026-04-04T11:21:56.788Z</time></trkpt><trkpt lat="44.2418625" lon="11.4243625"><ele>733.0</ele><time>2026-04-04T11:21:57.789Z</time></trkpt><trkpt lat="44.2419263" lon="11.4244097"><ele>733.0</ele><time>2026-04-04T11:21:58.789Z</time></trkpt><trkpt lat="44.2419898" lon="11.4244525"><ele>733.0</ele><time>2026-04-04T11:21:59.79Z</time></trkpt><trkpt lat="44.2420513" lon="11.4245042"><ele>733.0</ele><time>2026-04-04T11:22:00.789Z</time></trkpt><trkpt lat="44.242108" lon="11.4245673"><ele>733.0</ele><time>2026-04-04T11:22:01.789Z</time></trkpt><trkpt lat="44.2421563" lon="11.4246288"><ele>733.0</ele><time>2026-04-04T11:22:02.789Z</time></trkpt><trkpt lat="44.2422365" lon="11.4247313"><ele>733.0</ele><time>2026-04-04T11:22:04.788Z</time></trkpt><trkpt lat="44.2422977" lon="11.4248308"><ele>733.0</ele><time>2026-04-04T11:22:06.787Z</time></trkpt><trkpt lat="44.242323" lon="11.4249177"><ele>733.0</ele><time>2026-04-04T11:22:09.789Z</time></trkpt><trkpt lat="44.2423713" lon="11.425027"><ele>733.0</ele><time>2026-04-04T11:24:12.791Z</time></trkpt><trkpt lat="44.2424182" lon="11.425093"><ele>733.0</ele><time>2026-04-04T11:24:13.79Z</time></trkpt><trkpt lat="44.2424755" lon="11.4251667"><ele>733.0</ele><time>2026-04-04T11:24:14.79Z</time></trkpt><trkpt lat="44.2425417" lon="11.425243"><ele>733.0</ele><time>2026-04-04T11:24:15.789Z</time></trkpt><trkpt lat="44.242622" lon="11.4253177"><ele>733.0</ele><time>2026-04-04T11:24:16.791Z</time></trkpt><trkpt lat="44.2427163" lon="11.425386"><ele>733.0</ele><time>2026-04-04T11:24:17.789Z</time></trkpt><trkpt lat="44.2428215" lon="11.4254405"><ele>733.25</ele><time>2026-04-04T11:24:18.79Z</time></trkpt><trkpt lat="44.2429348" lon="11.4254843"><ele>733.5</ele><time>2026-04-04T11:24:19.789Z</time></trkpt><trkpt lat="44.2430545" lon="11.4255208"><ele>733.75</ele><time>2026-04-04T11:24:20.789Z</time></trkpt><trkpt lat="44.2431768" lon="11.4255558"><ele>734.0</ele><time>2026-04-04T11:24:21.79Z</time></trkpt><trkpt lat="44.2433007" lon="11.4255925"><ele>734.0</ele><time>2026-04-04T11:24:22.792Z</time></trkpt><trkpt lat="44.2434268" lon="11.4256317"><ele>734.0</ele><time>2026-04-04T11:24:23.791Z</time></trkpt><trkpt lat="44.2435573" lon="11.4256708"><ele>734.0</ele><time>2026-04-04T11:24:24.79Z</time></trkpt><trkpt lat="44.2436947" lon="11.4257038"><ele>734.0</ele><time>2026-04-04T11:24:25.79Z</time></trkpt><trkpt lat="44.2438355" lon="11.4257397"><ele>734.75</ele><time>2026-04-04T11:24:26.791Z</time></trkpt><trkpt lat="44.2439763" lon="11.4257907"><ele>735.5</ele><time>2026-04-04T11:24:27.791Z</time></trkpt><trkpt lat="44.2441187" lon="11.425849"><ele>736.25</ele><time>2026-04-04T11:24:28.791Z</time></trkpt><trkpt lat="44.244265" lon="11.4259053"><ele>737.0</ele><time>2026-04-04T11:24:29.789Z</time></trkpt><trkpt lat="44.2444162" lon="11.4259545"><ele>737.0</ele><time>2026-04-04T11:24:30.787Z</time></trkpt><trkpt lat="44.2445727" lon="11.425998"><ele>737.0</ele><time>2026-04-04T11:24:31.788Z</time></trkpt><trkpt lat="44.2447385" lon="11.4260298"><ele>737.0</ele><time>2026-04-04T11:24:32.788Z</time></trkpt><trkpt lat="44.244909" lon="11.4260498"><ele>738.0</ele><time>2026-04-04T11:24:33.787Z</time></trkpt><trkpt lat="44.2450788" lon="11.4260633"><ele>739.0</ele><time>2026-04-04T11:24:34.79Z</time></trkpt><trkpt lat="44.24525" lon="11.4260738"><ele>740.0</ele><time>2026-04-04T11:24:35.79Z</time></trkpt><trkpt lat="44.2454205" lon="11.4260777"><ele>740.0</ele><time>2026-04-04T11:24:36.789Z</time></trkpt><trkpt lat="44.2455883" lon="11.4260802"><ele>740.0</ele><time>2026-04-04T11:24:37.789Z</time></trkpt><trkpt lat="44.245751" lon="11.4260855"><ele>740.0</ele><time>2026-04-04T11:24:38.787Z</time></trkpt><trkpt lat="44.2459035" lon="11.4260882"><ele>739.75</ele><time>2026-04-04T11:24:39.789Z</time></trkpt><trkpt lat="44.2460522" lon="11.4260953"><ele>739.5</ele><time>2026-04-04T11:24:40.79Z</time></trkpt><trkpt lat="44.2461995" lon="11.4261105"><ele>739.25</ele><time>2026-04-04T11:24:41.79Z</time></trkpt><trkpt lat="44.2463472" lon="11.4261358"><ele>739.0</ele><time>2026-04-04T11:24:42.791Z</time></trkpt><trkpt lat="44.2464947" lon="11.426176"><ele>738.0</ele><time>2026-04-04T11:24:43.793Z</time></trkpt><trkpt lat="44.2466422" lon="11.4262263"><ele>737.0</ele><time>2026-04-04T11:24:44.79Z</time></trkpt><trkpt lat="44.246788" lon="11.4262867"><ele>736.0</ele><time>2026-04-04T11:24:45.789Z</time></trkpt><trkpt lat="44.2469343" lon="11.4263565"><ele>736.0</ele><time>2026-04-04T11:24:46.788Z</time></trkpt><trkpt lat="44.2470792" lon="11.4264323"><ele>736.0</ele><time>2026-04-04T11:24:47.79Z</time></trkpt><trkpt lat="44.2472238" lon="11.4265062"><ele>736.0</ele><time>2026-04-04T11:24:48.79Z</time></trkpt><trkpt lat="44.2473658" lon="11.426564"><ele>735.75</ele><time>2026-04-04T11:24:49.79Z</time></trkpt><trkpt lat="44.2475072" lon="11.4266105"><ele>735.5</ele><time>2026-04-04T11:24:50.789Z</time></trkpt><trkpt lat="44.2476418" lon="11.4266623"><ele>735.25</ele><time>2026-04-04T11:24:51.789Z</time></trkpt><trkpt lat="44.247754" lon="11.4267348"><ele>735.0</ele><time>2026-04-04T11:24:52.79Z</time></trkpt><trkpt lat="44.2478478" lon="11.4268373"><ele>735.0</ele><time>2026-04-04T11:24:53.789Z</time></trkpt><trkpt lat="44.2479223" lon="11.4269643"><ele>735.0</ele><time>2026-04-04T11:24:54.789Z</time></trkpt><trkpt lat="44.2479843" lon="11.4271083"><ele>735.0</ele><time>2026-04-04T11:24:55.788Z</time></trkpt><trkpt lat="44.2480332" lon="11.4272715"><ele>735.0</ele><time>2026-04-04T11:24:56.787Z</time></trkpt><trkpt lat="44.2480765" lon="11.4274395"><ele>734.5</ele><time>2026-04-04T11:24:57.788Z</time></trkpt><trkpt lat="44.2481348" lon="11.4275947"><ele>734.0</ele><time>2026-04-04T11:24:58.788Z</time></trkpt><trkpt lat="44.2482098" lon="11.4277283"><ele>733.5</ele><time>2026-04-04T11:24:59.788Z</time></trkpt><trkpt lat="44.2483015" lon="11.4278338"><ele>733.0</ele><time>2026-04-04T11:25:00.793Z</time></trkpt><trkpt lat="44.2484075" lon="11.4279045"><ele>733.0</ele><time>2026-04-04T11:25:01.789Z</time></trkpt><trkpt lat="44.2485272" lon="11.4279395"><ele>733.0</ele><time>2026-04-04T11:25:02.79Z</time></trkpt><trkpt lat="44.2486523" lon="11.4279398"><ele>733.0</ele><time>2026-04-04T11:25:03.79Z</time></trkpt><trkpt lat="44.2487762" lon="11.4279168"><ele>733.0</ele><time>2026-04-04T11:25:04.789Z</time></trkpt><trkpt lat="44.2488978" lon="11.4278788"><ele>735.0</ele><time>2026-04-04T11:25:05.789Z</time></trkpt><trkpt lat="44.2490192" lon="11.4278427"><ele>737.0</ele><time>2026-04-04T11:25:06.79Z</time></trkpt><trkpt lat="44.249144" lon="11.42782"><ele>739.0</ele><time>2026-04-04T11:25:07.79Z</time></trkpt><trkpt lat="44.2492725" lon="11.4278088"><ele>741.0</ele><time>2026-04-04T11:25:08.789Z</time></trkpt><trkpt lat="44.2494033" lon="11.4277965"><ele>741.0</ele><time>2026-04-04T11:25:09.789Z</time></trkpt><trkpt lat="44.2495337" lon="11.427776"><ele>741.0</ele><time>2026-04-04T11:25:10.791Z</time></trkpt><trkpt lat="44.2496633" lon="11.4277525"><ele>741.0</ele><time>2026-04-04T11:25:11.79Z</time></trkpt><trkpt lat="44.2497945" lon="11.427736"><ele>741.0</ele><time>2026-04-04T11:25:12.791Z</time></trkpt><trkpt lat="44.2499232" lon="11.4277235"><ele>740.8</ele><time>2026-04-04T11:25:13.789Z</time></trkpt><trkpt lat="44.2500457" lon="11.4277152"><ele>740.5999999999999</ele><time>2026-04-04T11:25:14.789Z</time></trkpt><trkpt lat="44.2501583" lon="11.4277057"><ele>740.4</ele><time>2026-04-04T11:25:15.79Z</time></trkpt><trkpt lat="44.2502602" lon="11.427698"><ele>740.2</ele><time>2026-04-04T11:25:16.791Z</time></trkpt><trkpt lat="44.2503523" lon="11.4277043"><ele>740.0</ele><time>2026-04-04T11:25:17.79Z</time></trkpt><trkpt lat="44.250438" lon="11.4277237"><ele>740.0</ele><time>2026-04-04T11:25:18.79Z</time></trkpt><trkpt lat="44.2505177" lon="11.4277342"><ele>740.0</ele><time>2026-04-04T11:25:19.787Z</time></trkpt><trkpt lat="44.2505895" lon="11.4277085"><ele>740.0</ele><time>2026-04-04T11:25:20.786Z</time></trkpt><trkpt lat="44.2506447" lon="11.4276457"><ele>740.0</ele><time>2026-04-04T11:25:21.785Z</time></trkpt><trkpt lat="44.2506835" lon="11.4275437"><ele>740.0</ele><time>2026-04-04T11:25:22.787Z</time></trkpt><trkpt lat="44.2507173" lon="11.427417"><ele>740.0</ele><time>2026-04-04T11:25:23.788Z</time></trkpt><trkpt lat="44.250765" lon="11.4272847"><ele>737.75</ele><time>2026-04-04T11:25:24.79Z</time></trkpt><trkpt lat="44.25083" lon="11.427153"><ele>735.5</ele><time>2026-04-04T11:25:25.789Z</time></trkpt><trkpt lat="44.250909" lon="11.4270268"><ele>733.25</ele><time>2026-04-04T11:25:26.789Z</time></trkpt><trkpt lat="44.2509963" lon="11.4269117"><ele>731.0</ele><time>2026-04-04T11:25:27.789Z</time></trkpt><trkpt lat="44.251091" lon="11.4268028"><ele>730.75</ele><time>2026-04-04T11:25:28.79Z</time></trkpt><trkpt lat="44.251187" lon="11.4266933"><ele>730.5</ele><time>2026-04-04T11:25:29.789Z</time></trkpt><trkpt lat="44.251283" lon="11.4265852"><ele>730.25</ele><time>2026-04-04T11:25:30.789Z</time></trkpt><trkpt lat="44.2513833" lon="11.4264748"><ele>730.0</ele><time>2026-04-04T11:25:31.789Z</time></trkpt><trkpt lat="44.251484" lon="11.4263643"><ele>728.0</ele><time>2026-04-04T11:25:32.788Z</time></trkpt><trkpt lat="44.2515813" lon="11.426257"><ele>726.0</ele><time>2026-04-04T11:25:33.789Z</time></trkpt><trkpt lat="44.2516758" lon="11.4261558"><ele>724.0</ele><time>2026-04-04T11:25:34.788Z</time></trkpt><trkpt lat="44.2517698" lon="11.4260632"><ele>722.0</ele><time>2026-04-04T11:25:35.789Z</time></trkpt><trkpt lat="44.2518663" lon="11.4259785"><ele>722.0</ele><time>2026-04-04T11:25:36.789Z</time></trkpt><trkpt lat="44.2519617" lon="11.4259013"><ele>722.0</ele><time>2026-04-04T11:25:37.79Z</time></trkpt><trkpt lat="44.2520562" lon="11.4258343"><ele>722.0</ele><time>2026-04-04T11:25:38.788Z</time></trkpt><trkpt lat="44.252149" lon="11.4257832"><ele>722.0</ele><time>2026-04-04T11:25:39.789Z</time></trkpt><trkpt lat="44.252242" lon="11.425743"><ele>722.0</ele><time>2026-04-04T11:25:40.79Z</time></trkpt><trkpt lat="44.252337" lon="11.4257103"><ele>722.0</ele><time>2026-04-04T11:25:41.789Z</time></trkpt><trkpt lat="44.2524363" lon="11.4256792"><ele>722.0</ele><time>2026-04-04T11:25:42.789Z</time></trkpt><trkpt lat="44.2525425" lon="11.425644"><ele>722.0</ele><time>2026-04-04T11:25:43.789Z</time></trkpt><trkpt lat="44.2526525" lon="11.4256013"><ele>722.0</ele><time>2026-04-04T11:25:44.787Z</time></trkpt><trkpt lat="44.2527643" lon="11.425554"><ele>722.0</ele><time>2026-04-04T11:25:45.79Z</time></trkpt><trkpt lat="44.2528763" lon="11.4255045"><ele>719.25</ele><time>2026-04-04T11:25:46.788Z</time></trkpt><trkpt lat="44.2529932" lon="11.4254543"><ele>716.5</ele><time>2026-04-04T11:25:47.788Z</time></trkpt><trkpt lat="44.2531147" lon="11.4254057"><ele>713.75</ele><time>2026-04-04T11:25:48.79Z</time></trkpt><trkpt lat="44.253238" lon="11.4253568"><ele>711.0</ele><time>2026-04-04T11:25:49.788Z</time></trkpt><trkpt lat="44.253351" lon="11.4253063"><ele>710.4</ele><time>2026-04-04T11:25:50.792Z</time></trkpt><trkpt lat="44.2534552" lon="11.4252517"><ele>709.8</ele><time>2026-04-04T11:25:51.79Z</time></trkpt><trkpt lat="44.2535475" lon="11.4251945"><ele>709.1999999999999</ele><time>2026-04-04T11:25:52.79Z</time></trkpt><trkpt lat="44.2536318" lon="11.4251325"><ele>708.5999999999999</ele><time>2026-04-04T11:25:53.789Z</time></trkpt><trkpt lat="44.253705" lon="11.4250717"><ele>708.0</ele><time>2026-04-04T11:25:54.79Z</time></trkpt><trkpt lat="44.2537712" lon="11.4250108"><ele>708.0</ele><time>2026-04-04T11:25:55.789Z</time></trkpt><trkpt lat="44.2538315" lon="11.4249458"><ele>708.0</ele><time>2026-04-04T11:25:56.789Z</time></trkpt><trkpt lat="44.253889" lon="11.4248772"><ele>708.0</ele><time>2026-04-04T11:25:57.789Z</time></trkpt><trkpt lat="44.2539528" lon="11.4248017"><ele>708.0</ele><time>2026-04-04T11:25:58.789Z</time></trkpt><trkpt lat="44.254022" lon="11.4247213"><ele>708.0</ele><time>2026-04-04T11:25:59.789Z</time></trkpt><trkpt lat="44.2540943" lon="11.424638"><ele>708.0</ele><time>2026-04-04T11:26:00.79Z</time></trkpt><trkpt lat="44.254168" lon="11.4245543"><ele>706.2</ele><time>2026-04-04T11:26:01.791Z</time></trkpt><trkpt lat="44.2542413" lon="11.4244668"><ele>704.4</ele><time>2026-04-04T11:26:02.788Z</time></trkpt><trkpt lat="44.2543122" lon="11.4243785"><ele>702.6</ele><time>2026-04-04T11:26:03.789Z</time></trkpt><trkpt lat="44.2543832" lon="11.4242965"><ele>700.8000000000001</ele><time>2026-04-04T11:26:04.789Z</time></trkpt><trkpt lat="44.254453" lon="11.4242168"><ele>699.0</ele><time>2026-04-04T11:26:05.79Z</time></trkpt><trkpt lat="44.2545207" lon="11.424133"><ele>699.0</ele><time>2026-04-04T11:26:06.79Z</time></trkpt><trkpt lat="44.2545965" lon="11.424042"><ele>699.0</ele><time>2026-04-04T11:26:07.791Z</time></trkpt><trkpt lat="44.254685" lon="11.4239358"><ele>699.0</ele><time>2026-04-04T11:26:08.788Z</time></trkpt><trkpt lat="44.2547823" lon="11.423812"><ele>699.0</ele><time>2026-04-04T11:26:09.789Z</time></trkpt><trkpt lat="44.2548788" lon="11.423683"><ele>697.0</ele><time>2026-04-04T11:26:10.789Z</time></trkpt><trkpt lat="44.2549717" lon="11.4235595"><ele>695.0</ele><time>2026-04-04T11:26:11.79Z</time></trkpt><trkpt lat="44.2550642" lon="11.4234495"><ele>693.0</ele><time>2026-04-04T11:26:12.79Z</time></trkpt><trkpt lat="44.2551493" lon="11.4233757"><ele>691.0</ele><time>2026-04-04T11:26:13.791Z</time></trkpt><trkpt lat="44.2552452" lon="11.4233428"><ele>689.0</ele><time>2026-04-04T11:26:14.791Z</time></trkpt><trkpt lat="44.255369" lon="11.4233457"><ele>689.0</ele><time>2026-04-04T11:26:15.793Z</time></trkpt><trkpt lat="44.2555012" lon="11.4233583"><ele>689.0</ele><time>2026-04-04T11:26:16.789Z</time></trkpt><trkpt lat="44.2556288" lon="11.4233685"><ele>689.0</ele><time>2026-04-04T11:26:17.79Z</time></trkpt><trkpt lat="44.2557398" lon="11.423363"><ele>689.0</ele><time>2026-04-04T11:26:18.79Z</time></trkpt><trkpt lat="44.2558435" lon="11.4233193"><ele>688.25</ele><time>2026-04-04T11:26:19.79Z</time></trkpt><trkpt lat="44.2559542" lon="11.4232252"><ele>687.5</ele><time>2026-04-04T11:26:20.79Z</time></trkpt><trkpt lat="44.2560688" lon="11.4231005"><ele>686.75</ele><time>2026-04-04T11:26:21.79Z</time></trkpt><trkpt lat="44.2561753" lon="11.4229677"><ele>686.0</ele><time>2026-04-04T11:26:22.79Z</time></trkpt><trkpt lat="44.2562765" lon="11.42284"><ele>685.0</ele><time>2026-04-04T11:26:23.79Z</time></trkpt><trkpt lat="44.2563797" lon="11.4227297"><ele>684.0</ele><time>2026-04-04T11:26:24.789Z</time></trkpt><trkpt lat="44.256488" lon="11.422653"><ele>683.0</ele><time>2026-04-04T11:26:25.791Z</time></trkpt><trkpt lat="44.2566068" lon="11.4226155"><ele>682.0</ele><time>2026-04-04T11:26:26.79Z</time></trkpt><trkpt lat="44.256735" lon="11.422615"><ele>682.0</ele><time>2026-04-04T11:26:27.789Z</time></trkpt><trkpt lat="44.2568732" lon="11.4226485"><ele>682.0</ele><time>2026-04-04T11:26:28.789Z</time></trkpt><trkpt lat="44.2570145" lon="11.4226942"><ele>682.0</ele><time>2026-04-04T11:26:29.788Z</time></trkpt><trkpt lat="44.2571627" lon="11.4227457"><ele>682.0</ele><time>2026-04-04T11:26:30.788Z</time></trkpt><trkpt lat="44.2573063" lon="11.4227905"><ele>681.6666666666667</ele><time>2026-04-04T11:26:31.789Z</time></trkpt><trkpt lat="44.257456" lon="11.422827"><ele>681.3333333333334</ele><time>2026-04-04T11:26:32.787Z</time></trkpt><trkpt lat="44.2576142" lon="11.4228468"><ele>681.0</ele><time>2026-04-04T11:26:33.787Z</time></trkpt><trkpt lat="44.257781" lon="11.4228525"><ele>681.0</ele><time>2026-04-04T11:26:34.787Z</time></trkpt><trkpt lat="44.2579577" lon="11.4228515"><ele>681.0</ele><time>2026-04-04T11:26:35.786Z</time></trkpt><trkpt lat="44.2581398" lon="11.4228458"><ele>681.0</ele><time>2026-04-04T11:26:36.788Z</time></trkpt><trkpt lat="44.2583248" lon="11.4228392"><ele>679.0</ele><time>2026-04-04T11:26:37.789Z</time></trkpt><trkpt lat="44.2585113" lon="11.4228372"><ele>677.0</ele><time>2026-04-04T11:26:38.788Z</time></trkpt><trkpt lat="44.2586977" lon="11.422837"><ele>675.0</ele><time>2026-04-04T11:26:39.789Z</time></trkpt><trkpt lat="44.258883" lon="11.422837"><ele>672.6666666666666</ele><time>2026-04-04T11:26:40.788Z</time></trkpt><trkpt lat="44.2590697" lon="11.4228345"><ele>670.3333333333333</ele><time>2026-04-04T11:26:41.788Z</time></trkpt><trkpt lat="44.2592513" lon="11.4228355"><ele>668.0</ele><time>2026-04-04T11:26:42.789Z</time></trkpt><trkpt lat="44.2594223" lon="11.4228342"><ele>668.0</ele><time>2026-04-04T11:26:43.787Z</time></trkpt><trkpt lat="44.2595823" lon="11.4228333"><ele>668.0</ele><time>2026-04-04T11:26:44.788Z</time></trkpt><trkpt lat="44.2597422" lon="11.4228312"><ele>668.0</ele><time>2026-04-04T11:26:45.789Z</time></trkpt><trkpt lat="44.2599012" lon="11.4228237"><ele>666.0</ele><time>2026-04-04T11:26:46.787Z</time></trkpt><trkpt lat="44.2600537" lon="11.4228182"><ele>664.0</ele><time>2026-04-04T11:26:47.787Z</time></trkpt><trkpt lat="44.2602003" lon="11.422821"><ele>662.0</ele><time>2026-04-04T11:26:48.787Z</time></trkpt><trkpt lat="44.2603398" lon="11.4228157"><ele>660.0</ele><time>2026-04-04T11:26:49.787Z</time></trkpt><trkpt lat="44.260476" lon="11.4228097"><ele>660.0</ele><time>2026-04-04T11:26:50.788Z</time></trkpt><trkpt lat="44.2605947" lon="11.4228073"><ele>660.0</ele><time>2026-04-04T11:26:51.788Z</time></trkpt><trkpt lat="44.2607128" lon="11.4228322"><ele>660.0</ele><time>2026-04-04T11:26:52.79Z</time></trkpt><trkpt lat="44.2608352" lon="11.4228943"><ele>660.0</ele><time>2026-04-04T11:26:53.788Z</time></trkpt><trkpt lat="44.2609635" lon="11.42299"><ele>658.3333333333334</ele><time>2026-04-04T11:26:54.79Z</time></trkpt><trkpt lat="44.261101" lon="11.4231035"><ele>656.6666666666667</ele><time>2026-04-04T11:26:55.789Z</time></trkpt><trkpt lat="44.261246" lon="11.4232247"><ele>655.0</ele><time>2026-04-04T11:26:56.788Z</time></trkpt><trkpt lat="44.2613947" lon="11.4233497"><ele>651.0</ele><time>2026-04-04T11:26:57.785Z</time></trkpt><trkpt lat="44.2615445" lon="11.4234792"><ele>647.0</ele><time>2026-04-04T11:26:58.787Z</time></trkpt><trkpt lat="44.2616895" lon="11.4236047"><ele>643.0</ele><time>2026-04-04T11:26:59.786Z</time></trkpt><trkpt lat="44.2618287" lon="11.423727"><ele>642.6666666666667</ele><time>2026-04-04T11:27:00.785Z</time></trkpt><trkpt lat="44.261963" lon="11.4238465"><ele>642.3333333333334</ele><time>2026-04-04T11:27:01.788Z</time></trkpt><trkpt lat="44.2620918" lon="11.423962"><ele>642.0</ele><time>2026-04-04T11:27:02.789Z</time></trkpt><trkpt lat="44.26221" lon="11.4240692"><ele>640.25</ele><time>2026-04-04T11:27:03.789Z</time></trkpt><trkpt lat="44.26232" lon="11.4241555"><ele>638.5</ele><time>2026-04-04T11:27:04.789Z</time></trkpt><trkpt lat="44.2624357" lon="11.4242057"><ele>636.75</ele><time>2026-04-04T11:27:05.791Z</time></trkpt><trkpt lat="44.2625603" lon="11.4242118"><ele>635.0</ele><time>2026-04-04T11:27:06.79Z</time></trkpt><trkpt lat="44.2627045" lon="11.4241813"><ele>635.0</ele><time>2026-04-04T11:27:07.789Z</time></trkpt><trkpt lat="44.2628605" lon="11.4241372"><ele>635.0</ele><time>2026-04-04T11:27:08.788Z</time></trkpt><trkpt lat="44.2630225" lon="11.4240895"><ele>635.0</ele><time>2026-04-04T11:27:09.789Z</time></trkpt><trkpt lat="44.263181" lon="11.4240423"><ele>633.0</ele><time>2026-04-04T11:27:10.791Z</time></trkpt><trkpt lat="44.2633327" lon="11.423998"><ele>631.0</ele><time>2026-04-04T11:27:11.79Z</time></trkpt><trkpt lat="44.2634802" lon="11.4239553"><ele>629.0</ele><time>2026-04-04T11:27:12.79Z</time></trkpt><trkpt lat="44.2636225" lon="11.4239202"><ele>629.0</ele><time>2026-04-04T11:27:13.789Z</time></trkpt><trkpt lat="44.263762" lon="11.4239"><ele>629.0</ele><time>2026-04-04T11:27:14.79Z</time></trkpt><trkpt lat="44.263893" lon="11.423892"><ele>629.0</ele><time>2026-04-04T11:27:15.789Z</time></trkpt><trkpt lat="44.2640088" lon="11.4238815"><ele>629.0</ele><time>2026-04-04T11:27:16.791Z</time></trkpt><trkpt lat="44.2641138" lon="11.4238608"><ele>627.8</ele><time>2026-04-04T11:27:17.789Z</time></trkpt><trkpt lat="44.2642133" lon="11.4238392"><ele>626.5999999999999</ele><time>2026-04-04T11:27:18.789Z</time></trkpt><trkpt lat="44.2643092" lon="11.423829"><ele>625.4</ele><time>2026-04-04T11:27:19.79Z</time></trkpt><trkpt lat="44.2644077" lon="11.4238343"><ele>624.1999999999999</ele><time>2026-04-04T11:27:20.788Z</time></trkpt><trkpt lat="44.264513" lon="11.4238437"><ele>623.0</ele><time>2026-04-04T11:27:21.789Z</time></trkpt><trkpt lat="44.2646222" lon="11.4238502"><ele>623.0</ele><time>2026-04-04T11:27:22.787Z</time></trkpt><trkpt lat="44.2647347" lon="11.4238497"><ele>623.0</ele><time>2026-04-04T11:27:23.786Z</time></trkpt><trkpt lat="44.2648487" lon="11.423845"><ele>623.0</ele><time>2026-04-04T11:27:24.786Z</time></trkpt><trkpt lat="44.2649645" lon="11.4238388"><ele>623.0</ele><time>2026-04-04T11:27:25.788Z</time></trkpt><trkpt lat="44.26508" lon="11.4238317"><ele>622.25</ele><time>2026-04-04T11:27:26.791Z</time></trkpt><trkpt lat="44.2651987" lon="11.4238245"><ele>621.5</ele><time>2026-04-04T11:27:27.788Z</time></trkpt><trkpt lat="44.265319" lon="11.4238182"><ele>620.75</ele><time>2026-04-04T11:27:28.79Z</time></trkpt><trkpt lat="44.265441" lon="11.4238108"><ele>620.0</ele><time>2026-04-04T11:27:29.789Z</time></trkpt><trkpt lat="44.2655658" lon="11.423802"><ele>616.75</ele><time>2026-04-04T11:27:30.789Z</time></trkpt><trkpt lat="44.2656922" lon="11.4237928"><ele>613.5</ele><time>2026-04-04T11:27:31.789Z</time></trkpt><trkpt lat="44.26582" lon="11.4237845"><ele>610.25</ele><time>2026-04-04T11:27:32.788Z</time></trkpt><trkpt lat="44.2659467" lon="11.4237787"><ele>607.0</ele><time>2026-04-04T11:27:33.79Z</time></trkpt><trkpt lat="44.2660727" lon="11.4237752"><ele>607.0</ele><time>2026-04-04T11:27:34.789Z</time></trkpt><trkpt lat="44.2661977" lon="11.4237685"><ele>607.0</ele><time>2026-04-04T11:27:35.789Z</time></trkpt><trkpt lat="44.2663215" lon="11.423751"><ele>607.0</ele><time>2026-04-04T11:27:36.789Z</time></trkpt><trkpt lat="44.2664438" lon="11.4237225"><ele>607.0</ele><time>2026-04-04T11:27:37.789Z</time></trkpt><trkpt lat="44.2665638" lon="11.4236868"><ele>605.75</ele><time>2026-04-04T11:27:38.787Z</time></trkpt><trkpt lat="44.266685" lon="11.4236462"><ele>604.5</ele><time>2026-04-04T11:27:39.791Z</time></trkpt><trkpt lat="44.2668057" lon="11.4236007"><ele>603.25</ele><time>2026-04-04T11:27:40.789Z</time></trkpt><trkpt lat="44.2669233" lon="11.4235427"><ele>602.0</ele><time>2026-04-04T11:27:41.789Z</time></trkpt><trkpt lat="44.267027" lon="11.4234653"><ele>602.0</ele><time>2026-04-04T11:27:42.789Z</time></trkpt><trkpt lat="44.2671237" lon="11.4233747"><ele>602.0</ele><time>2026-04-04T11:27:43.791Z</time></trkpt><trkpt lat="44.2672173" lon="11.4232783"><ele>602.0</ele><time>2026-04-04T11:27:44.789Z</time></trkpt><trkpt lat="44.267314" lon="11.423189"><ele>602.0</ele><time>2026-04-04T11:27:45.789Z</time></trkpt><trkpt lat="44.2674175" lon="11.4231153"><ele>601.25</ele><time>2026-04-04T11:27:46.787Z</time></trkpt><trkpt lat="44.2675308" lon="11.4230637"><ele>600.5</ele><time>2026-04-04T11:27:47.787Z</time></trkpt><trkpt lat="44.2676497" lon="11.4230317"><ele>599.75</ele><time>2026-04-04T11:27:48.787Z</time></trkpt><trkpt lat="44.2677712" lon="11.4230117"><ele>599.0</ele><time>2026-04-04T11:27:49.787Z</time></trkpt><trkpt lat="44.2678938" lon="11.4229938"><ele>599.25</ele><time>2026-04-04T11:27:50.788Z</time></trkpt><trkpt lat="44.2680175" lon="11.4229772"><ele>599.5</ele><time>2026-04-04T11:27:51.788Z</time></trkpt><trkpt lat="44.2681397" lon="11.4229633"><ele>599.75</ele><time>2026-04-04T11:27:52.788Z</time></trkpt><trkpt lat="44.2682607" lon="11.4229455"><ele>600.0</ele><time>2026-04-04T11:27:53.788Z</time></trkpt><trkpt lat="44.2683822" lon="11.42293"><ele>601.25</ele><time>2026-04-04T11:27:54.788Z</time></trkpt><trkpt lat="44.2685018" lon="11.4229213"><ele>602.5</ele><time>2026-04-04T11:27:55.789Z</time></trkpt><trkpt lat="44.2686207" lon="11.42292"><ele>603.75</ele><time>2026-04-04T11:27:56.789Z</time></trkpt><trkpt lat="44.2687417" lon="11.422925"><ele>605.0</ele><time>2026-04-04T11:27:57.79Z</time></trkpt><trkpt lat="44.2688618" lon="11.4229327"><ele>604.2</ele><time>2026-04-04T11:27:58.79Z</time></trkpt><trkpt lat="44.2689807" lon="11.4229423"><ele>603.4</ele><time>2026-04-04T11:27:59.789Z</time></trkpt><trkpt lat="44.2690942" lon="11.4229482"><ele>602.6</ele><time>2026-04-04T11:28:00.789Z</time></trkpt><trkpt lat="44.2692023" lon="11.4229627"><ele>601.8</ele><time>2026-04-04T11:28:01.789Z</time></trkpt><trkpt lat="44.2693047" lon="11.4229837"><ele>601.0</ele><time>2026-04-04T11:28:02.789Z</time></trkpt><trkpt lat="44.2694" lon="11.4230005"><ele>601.0</ele><time>2026-04-04T11:28:03.789Z</time></trkpt><trkpt lat="44.2694885" lon="11.4229978"><ele>601.0</ele><time>2026-04-04T11:28:04.789Z</time></trkpt><trkpt lat="44.2695677" lon="11.4229597"><ele>601.0</ele><time>2026-04-04T11:28:05.789Z</time></trkpt><trkpt lat="44.2696323" lon="11.4228792"><ele>601.0</ele><time>2026-04-04T11:28:06.789Z</time></trkpt><trkpt lat="44.2696822" lon="11.4227762"><ele>601.0</ele><time>2026-04-04T11:28:07.791Z</time></trkpt><trkpt lat="44.2697342" lon="11.422674"><ele>601.0</ele><time>2026-04-04T11:28:08.79Z</time></trkpt><trkpt lat="44.2698032" lon="11.422589"><ele>600.2</ele><time>2026-04-04T11:28:09.791Z</time></trkpt><trkpt lat="44.2698928" lon="11.4225262"><ele>599.4000000000001</ele><time>2026-04-04T11:28:10.789Z</time></trkpt><trkpt lat="44.2699922" lon="11.4224727"><ele>598.6</ele><time>2026-04-04T11:28:11.788Z</time></trkpt><trkpt lat="44.270092" lon="11.4224133"><ele>597.8000000000001</ele><time>2026-04-04T11:28:12.788Z</time></trkpt><trkpt lat="44.270192" lon="11.4223508"><ele>597.0</ele><time>2026-04-04T11:28:13.788Z</time></trkpt><trkpt lat="44.2702953" lon="11.4222958"><ele>597.0</ele><time>2026-04-04T11:28:14.789Z</time></trkpt><trkpt lat="44.2704083" lon="11.4222547"><ele>597.0</ele><time>2026-04-04T11:28:15.791Z</time></trkpt><trkpt lat="44.2705312" lon="11.4222305"><ele>597.0</ele><time>2026-04-04T11:28:16.79Z</time></trkpt><trkpt lat="44.270659" lon="11.4222212"><ele>597.0</ele><time>2026-04-04T11:28:17.792Z</time></trkpt><trkpt lat="44.2707898" lon="11.4222182"><ele>595.25</ele><time>2026-04-04T11:28:18.79Z</time></trkpt><trkpt lat="44.2709222" lon="11.4222193"><ele>593.5</ele><time>2026-04-04T11:28:19.79Z</time></trkpt><trkpt lat="44.2710552" lon="11.4222237"><ele>591.75</ele><time>2026-04-04T11:28:20.79Z</time></trkpt><trkpt lat="44.2711898" lon="11.4222275"><ele>590.0</ele><time>2026-04-04T11:28:21.791Z</time></trkpt><trkpt lat="44.2713243" lon="11.4222293"><ele>590.5</ele><time>2026-04-04T11:28:22.79Z</time></trkpt><trkpt lat="44.2714563" lon="11.4222243"><ele>591.0</ele><time>2026-04-04T11:28:23.791Z</time></trkpt><trkpt lat="44.2715848" lon="11.4222072"><ele>591.5</ele><time>2026-04-04T11:28:24.79Z</time></trkpt><trkpt lat="44.2717115" lon="11.4221777"><ele>592.0</ele><time>2026-04-04T11:28:25.792Z</time></trkpt><trkpt lat="44.271837" lon="11.422145"><ele>590.25</ele><time>2026-04-04T11:28:26.791Z</time></trkpt><trkpt lat="44.2719625" lon="11.4221152"><ele>588.5</ele><time>2026-04-04T11:28:27.79Z</time></trkpt><trkpt lat="44.2720888" lon="11.4220882"><ele>586.75</ele><time>2026-04-04T11:28:28.791Z</time></trkpt><trkpt lat="44.2722153" lon="11.42207"><ele>585.0</ele><time>2026-04-04T11:28:29.791Z</time></trkpt><trkpt lat="44.2723428" lon="11.4220602"><ele>584.5</ele><time>2026-04-04T11:28:30.79Z</time></trkpt><trkpt lat="44.2724712" lon="11.4220547"><ele>584.0</ele><time>2026-04-04T11:28:31.789Z</time></trkpt><trkpt lat="44.2725988" lon="11.4220502"><ele>583.5</ele><time>2026-04-04T11:28:32.789Z</time></trkpt><trkpt lat="44.2727263" lon="11.4220473"><ele>583.0</ele><time>2026-04-04T11:28:33.789Z</time></trkpt><trkpt lat="44.2728542" lon="11.4220458"><ele>583.0</ele><time>2026-04-04T11:28:34.791Z</time></trkpt><trkpt lat="44.2729805" lon="11.4220457"><ele>583.0</ele><time>2026-04-04T11:28:35.787Z</time></trkpt><trkpt lat="44.2731052" lon="11.422045"><ele>583.0</ele><time>2026-04-04T11:28:36.789Z</time></trkpt><trkpt lat="44.2732288" lon="11.4220428"><ele>583.0</ele><time>2026-04-04T11:28:37.789Z</time></trkpt><trkpt lat="44.2733515" lon="11.4220418"><ele>583.0</ele><time>2026-04-04T11:28:38.787Z</time></trkpt><trkpt lat="44.2734712" lon="11.4220478"><ele>583.0</ele><time>2026-04-04T11:28:39.789Z</time></trkpt><trkpt lat="44.2735863" lon="11.4220768"><ele>583.0</ele><time>2026-04-04T11:28:40.79Z</time></trkpt><trkpt lat="44.2736962" lon="11.4221323"><ele>583.0</ele><time>2026-04-04T11:28:41.789Z</time></trkpt><trkpt lat="44.2738013" lon="11.4221793"><ele>583.0</ele><time>2026-04-04T11:28:42.79Z</time></trkpt><trkpt lat="44.2739072" lon="11.4221962"><ele>583.0</ele><time>2026-04-04T11:28:43.789Z</time></trkpt><trkpt lat="44.2740165" lon="11.4221728"><ele>583.0</ele><time>2026-04-04T11:28:44.79Z</time></trkpt><trkpt lat="44.2741272" lon="11.4221253"><ele>583.0</ele><time>2026-04-04T11:28:45.789Z</time></trkpt><trkpt lat="44.2742398" lon="11.4220738"><ele>583.75</ele><time>2026-04-04T11:28:46.789Z</time></trkpt><trkpt lat="44.274352" lon="11.422007"><ele>584.5</ele><time>2026-04-04T11:28:47.788Z</time></trkpt><trkpt lat="44.2744585" lon="11.4219288"><ele>585.25</ele><time>2026-04-04T11:28:48.791Z</time></trkpt><trkpt lat="44.274566" lon="11.4218605"><ele>586.0</ele><time>2026-04-04T11:28:49.789Z</time></trkpt><trkpt lat="44.2746798" lon="11.4218198"><ele>585.75</ele><time>2026-04-04T11:28:50.789Z</time></trkpt><trkpt lat="44.2748017" lon="11.4217942"><ele>585.5</ele><time>2026-04-04T11:28:51.79Z</time></trkpt><trkpt lat="44.2749283" lon="11.421772"><ele>585.25</ele><time>2026-04-04T11:28:52.791Z</time></trkpt><trkpt lat="44.2750528" lon="11.4217432"><ele>585.0</ele><time>2026-04-04T11:28:53.793Z</time></trkpt><trkpt lat="44.275174" lon="11.421715"><ele>585.0</ele><time>2026-04-04T11:28:54.79Z</time></trkpt><trkpt lat="44.2752893" lon="11.4217035"><ele>585.0</ele><time>2026-04-04T11:28:55.79Z</time></trkpt><trkpt lat="44.2753975" lon="11.4217177"><ele>585.0</ele><time>2026-04-04T11:28:56.79Z</time></trkpt><trkpt lat="44.2754947" lon="11.4217607"><ele>585.0</ele><time>2026-04-04T11:28:57.791Z</time></trkpt><trkpt lat="44.2755762" lon="11.4218393"><ele>585.0</ele><time>2026-04-04T11:28:58.789Z</time></trkpt><trkpt lat="44.2756455" lon="11.421947"><ele>583.5</ele><time>2026-04-04T11:28:59.79Z</time></trkpt><trkpt lat="44.2757128" lon="11.4220693"><ele>582.0</ele><time>2026-04-04T11:29:00.789Z</time></trkpt><trkpt lat="44.2757908" lon="11.4221853"><ele>580.5</ele><time>2026-04-04T11:29:01.786Z</time></trkpt><trkpt lat="44.2758857" lon="11.4222913"><ele>579.0</ele><time>2026-04-04T11:29:02.787Z</time></trkpt><trkpt lat="44.2759878" lon="11.4223908"><ele>577.75</ele><time>2026-04-04T11:29:03.788Z</time></trkpt><trkpt lat="44.2760953" lon="11.4224782"><ele>576.5</ele><time>2026-04-04T11:29:04.792Z</time></trkpt><trkpt lat="44.2762053" lon="11.4225638"><ele>575.25</ele><time>2026-04-04T11:29:05.79Z</time></trkpt><trkpt lat="44.27631" lon="11.422649"><ele>574.0</ele><time>2026-04-04T11:29:06.791Z</time></trkpt><trkpt lat="44.2764085" lon="11.4227312"><ele>573.25</ele><time>2026-04-04T11:29:07.79Z</time></trkpt><trkpt lat="44.276508" lon="11.4228158"><ele>572.5</ele><time>2026-04-04T11:29:08.791Z</time></trkpt><trkpt lat="44.2766122" lon="11.4228935"><ele>571.75</ele><time>2026-04-04T11:29:09.789Z</time></trkpt><trkpt lat="44.276724" lon="11.422947"><ele>571.0</ele><time>2026-04-04T11:29:10.79Z</time></trkpt><trkpt lat="44.2768415" lon="11.4229733"><ele>571.0</ele><time>2026-04-04T11:29:11.789Z</time></trkpt><trkpt lat="44.276961" lon="11.4229802"><ele>571.0</ele><time>2026-04-04T11:29:12.791Z</time></trkpt><trkpt lat="44.2770798" lon="11.4229808"><ele>571.0</ele><time>2026-04-04T11:29:13.79Z</time></trkpt><trkpt lat="44.2771992" lon="11.42299"><ele>571.0</ele><time>2026-04-04T11:29:14.79Z</time></trkpt><trkpt lat="44.2773218" lon="11.4230053"><ele>572.0</ele><time>2026-04-04T11:29:15.791Z</time></trkpt><trkpt lat="44.2774437" lon="11.4230243"><ele>573.0</ele><time>2026-04-04T11:29:16.79Z</time></trkpt><trkpt lat="44.2775607" lon="11.4230577"><ele>574.0</ele><time>2026-04-04T11:29:17.792Z</time></trkpt><trkpt lat="44.2776702" lon="11.4231112"><ele>575.0</ele><time>2026-04-04T11:29:18.791Z</time></trkpt><trkpt lat="44.2777785" lon="11.4231738"><ele>575.0</ele><time>2026-04-04T11:29:19.787Z</time></trkpt><trkpt lat="44.277895" lon="11.4232218"><ele>575.0</ele><time>2026-04-04T11:29:20.787Z</time></trkpt><trkpt lat="44.2780162" lon="11.4232517"><ele>575.0</ele><time>2026-04-04T11:29:21.789Z</time></trkpt><trkpt lat="44.2781355" lon="11.4232835"><ele>575.0</ele><time>2026-04-04T11:29:22.788Z</time></trkpt><trkpt lat="44.2782513" lon="11.423328"><ele>573.75</ele><time>2026-04-04T11:29:23.788Z</time></trkpt><trkpt lat="44.2783627" lon="11.4233908"><ele>572.5</ele><time>2026-04-04T11:29:24.789Z</time></trkpt><trkpt lat="44.2784675" lon="11.4234733"><ele>571.25</ele><time>2026-04-04T11:29:25.787Z</time></trkpt><trkpt lat="44.2785578" lon="11.4235755"><ele>570.0</ele><time>2026-04-04T11:29:26.786Z</time></trkpt><trkpt lat="44.2786342" lon="11.423693"><ele>570.0</ele><time>2026-04-04T11:29:27.787Z</time></trkpt><trkpt lat="44.2787117" lon="11.4238103"><ele>570.0</ele><time>2026-04-04T11:29:28.788Z</time></trkpt><trkpt lat="44.2788063" lon="11.42391"><ele>570.0</ele><time>2026-04-04T11:29:29.788Z</time></trkpt><trkpt lat="44.2789203" lon="11.4239805"><ele>570.0</ele><time>2026-04-04T11:29:30.789Z</time></trkpt><trkpt lat="44.2790398" lon="11.424022"><ele>569.25</ele><time>2026-04-04T11:29:31.789Z</time></trkpt><trkpt lat="44.2791562" lon="11.4240402"><ele>568.5</ele><time>2026-04-04T11:29:32.788Z</time></trkpt><trkpt lat="44.2792727" lon="11.4240462"><ele>567.75</ele><time>2026-04-04T11:29:33.792Z</time></trkpt><trkpt lat="44.2793893" lon="11.4240543"><ele>567.0</ele><time>2026-04-04T11:29:34.788Z</time></trkpt><trkpt lat="44.2795008" lon="11.4240863"><ele>567.0</ele><time>2026-04-04T11:29:35.788Z</time></trkpt><trkpt lat="44.2796048" lon="11.4241493"><ele>567.0</ele><time>2026-04-04T11:29:36.788Z</time></trkpt><trkpt lat="44.2797065" lon="11.424226"><ele>567.0</ele><time>2026-04-04T11:29:37.789Z</time></trkpt><trkpt lat="44.2798092" lon="11.4242852"><ele>567.0</ele><time>2026-04-04T11:29:38.787Z</time></trkpt><trkpt lat="44.2799152" lon="11.4243107"><ele>567.0</ele><time>2026-04-04T11:29:39.788Z</time></trkpt><trkpt lat="44.280026" lon="11.424302"><ele>565.75</ele><time>2026-04-04T11:29:40.787Z</time></trkpt><trkpt lat="44.2801395" lon="11.4242607"><ele>564.5</ele><time>2026-04-04T11:29:41.788Z</time></trkpt><trkpt lat="44.2802495" lon="11.4241938"><ele>563.25</ele><time>2026-04-04T11:29:42.787Z</time></trkpt><trkpt lat="44.2803617" lon="11.4241262"><ele>562.0</ele><time>2026-04-04T11:29:43.787Z</time></trkpt><trkpt lat="44.2804793" lon="11.4240818"><ele>562.0</ele><time>2026-04-04T11:29:44.787Z</time></trkpt><trkpt lat="44.2805995" lon="11.424058"><ele>562.0</ele><time>2026-04-04T11:29:45.787Z</time></trkpt><trkpt lat="44.2807168" lon="11.4240363"><ele>562.0</ele><time>2026-04-04T11:29:46.787Z</time></trkpt><trkpt lat="44.2808295" lon="11.4239943"><ele>562.0</ele><time>2026-04-04T11:29:47.787Z</time></trkpt><trkpt lat="44.2809383" lon="11.4239298"><ele>561.8000000000001</ele><time>2026-04-04T11:29:48.786Z</time></trkpt><trkpt lat="44.2810427" lon="11.4238687"><ele>561.6</ele><time>2026-04-04T11:29:49.784Z</time></trkpt><trkpt lat="44.2811483" lon="11.4238317"><ele>561.4000000000001</ele><time>2026-04-04T11:29:50.786Z</time></trkpt><trkpt lat="44.281254" lon="11.4238392"><ele>561.2</ele><time>2026-04-04T11:29:51.785Z</time></trkpt><trkpt lat="44.281359" lon="11.4238882"><ele>561.0</ele><time>2026-04-04T11:29:52.786Z</time></trkpt><trkpt lat="44.2814658" lon="11.4239625"><ele>559.25</ele><time>2026-04-04T11:29:53.787Z</time></trkpt><trkpt lat="44.281573" lon="11.4240517"><ele>557.5</ele><time>2026-04-04T11:29:54.79Z</time></trkpt><trkpt lat="44.2816703" lon="11.424154"><ele>555.75</ele><time>2026-04-04T11:29:55.791Z</time></trkpt><trkpt lat="44.2817608" lon="11.4242625"><ele>554.0</ele><time>2026-04-04T11:29:56.79Z</time></trkpt><trkpt lat="44.2818538" lon="11.4243662"><ele>554.0</ele><time>2026-04-04T11:29:57.787Z</time></trkpt><trkpt lat="44.2819563" lon="11.4244478"><ele>554.0</ele><time>2026-04-04T11:29:58.787Z</time></trkpt><trkpt lat="44.2820697" lon="11.4244965"><ele>554.0</ele><time>2026-04-04T11:29:59.786Z</time></trkpt><trkpt lat="44.2821902" lon="11.4245077"><ele>554.0</ele><time>2026-04-04T11:30:00.788Z</time></trkpt><trkpt lat="44.2823093" lon="11.4244998"><ele>554.6</ele><time>2026-04-04T11:30:01.787Z</time></trkpt><trkpt lat="44.28242" lon="11.424515"><ele>555.2</ele><time>2026-04-04T11:30:02.787Z</time></trkpt><trkpt lat="44.282521" lon="11.424571"><ele>555.8000000000001</ele><time>2026-04-04T11:30:03.788Z</time></trkpt><trkpt lat="44.2826127" lon="11.424654"><ele>556.4</ele><time>2026-04-04T11:30:04.789Z</time></trkpt><trkpt lat="44.2827038" lon="11.424724"><ele>557.0</ele><time>2026-04-04T11:30:05.787Z</time></trkpt><trkpt lat="44.2828062" lon="11.424759"><ele>557.0</ele><time>2026-04-04T11:30:06.787Z</time></trkpt><trkpt lat="44.2829177" lon="11.4247588"><ele>557.0</ele><time>2026-04-04T11:30:07.788Z</time></trkpt><trkpt lat="44.2830335" lon="11.424752"><ele>557.0</ele><time>2026-04-04T11:30:08.787Z</time></trkpt><trkpt lat="44.2831488" lon="11.4247522"><ele>557.0</ele><time>2026-04-04T11:30:09.787Z</time></trkpt><trkpt lat="44.2832627" lon="11.4247582"><ele>554.0</ele><time>2026-04-04T11:30:10.786Z</time></trkpt><trkpt lat="44.2833763" lon="11.4247597"><ele>551.0</ele><time>2026-04-04T11:30:11.786Z</time></trkpt><trkpt lat="44.2834937" lon="11.424748"><ele>548.0</ele><time>2026-04-04T11:30:12.787Z</time></trkpt><trkpt lat="44.283615" lon="11.4247262"><ele>545.0</ele><time>2026-04-04T11:30:13.786Z</time></trkpt><trkpt lat="44.2837392" lon="11.4247018"><ele>545.0</ele><time>2026-04-04T11:30:14.787Z</time></trkpt><trkpt lat="44.2838627" lon="11.4246782"><ele>545.0</ele><time>2026-04-04T11:30:15.785Z</time></trkpt><trkpt lat="44.2839857" lon="11.42465"><ele>545.0</ele><time>2026-04-04T11:30:16.786Z</time></trkpt><trkpt lat="44.284106" lon="11.424613"><ele>545.0</ele><time>2026-04-04T11:30:17.787Z</time></trkpt><trkpt lat="44.2842233" lon="11.424564"><ele>540.5</ele><time>2026-04-04T11:30:18.789Z</time></trkpt><trkpt lat="44.2843445" lon="11.424518"><ele>536.0</ele><time>2026-04-04T11:30:19.789Z</time></trkpt><trkpt lat="44.28447" lon="11.4244912"><ele>531.5</ele><time>2026-04-04T11:30:20.792Z</time></trkpt><trkpt lat="44.2845973" lon="11.4244745"><ele>527.0</ele><time>2026-04-04T11:30:21.787Z</time></trkpt><trkpt lat="44.2847198" lon="11.4244583"><ele>527.0</ele><time>2026-04-04T11:30:22.788Z</time></trkpt><trkpt lat="44.2848365" lon="11.4244402"><ele>527.0</ele><time>2026-04-04T11:30:23.788Z</time></trkpt><trkpt lat="44.2849447" lon="11.424432"><ele>527.0</ele><time>2026-04-04T11:30:24.789Z</time></trkpt><trkpt lat="44.2850343" lon="11.4244458"><ele>527.0</ele><time>2026-04-04T11:30:25.789Z</time></trkpt><trkpt lat="44.2851067" lon="11.4244772"><ele>527.0</ele><time>2026-04-04T11:30:26.791Z</time></trkpt><trkpt lat="44.2851695" lon="11.424522"><ele>527.0</ele><time>2026-04-04T11:30:27.788Z</time></trkpt><trkpt lat="44.2852485" lon="11.4246305"><ele>527.0</ele><time>2026-04-04T11:30:29.787Z</time></trkpt><trkpt lat="44.2852647" lon="11.424733"><ele>527.0</ele><time>2026-04-04T11:30:31.788Z</time></trkpt><trkpt lat="44.285263" lon="11.4248605"><ele>527.0</ele><time>2026-04-04T11:30:33.788Z</time></trkpt><trkpt lat="44.2851993" lon="11.424941"><ele>527.0</ele><time>2026-04-04T11:30:35.789Z</time></trkpt><trkpt lat="44.285112" lon="11.4249932"><ele>526.6666666666666</ele><time>2026-04-04T11:30:37.789Z</time></trkpt><trkpt lat="44.2851032" lon="11.4251083"><ele>526.3333333333333</ele><time>2026-04-04T11:30:39.787Z</time></trkpt><trkpt lat="44.2851272" lon="11.425286"><ele>526.0</ele><time>2026-04-04T11:30:41.786Z</time></trkpt><trkpt lat="44.2851428" lon="11.425383"><ele>525.6666666666666</ele><time>2026-04-04T11:30:42.791Z</time></trkpt><trkpt lat="44.2851617" lon="11.4254838"><ele>525.3333333333334</ele><time>2026-04-04T11:30:43.79Z</time></trkpt><trkpt lat="44.2851695" lon="11.4255825"><ele>525.0</ele><time>2026-04-04T11:30:44.789Z</time></trkpt><trkpt lat="44.2851653" lon="11.425676"><ele>522.6</ele><time>2026-04-04T11:30:45.79Z</time></trkpt><trkpt lat="44.2851883" lon="11.4258148"><ele>520.2</ele><time>2026-04-04T11:30:47.789Z</time></trkpt><trkpt lat="44.2852738" lon="11.425857"><ele>517.8</ele><time>2026-04-04T11:30:49.787Z</time></trkpt><trkpt lat="44.285352" lon="11.4258587"><ele>515.4</ele><time>2026-04-04T11:30:50.788Z</time></trkpt><trkpt lat="44.2854518" lon="11.425886"><ele>513.0</ele><time>2026-04-04T11:30:51.789Z</time></trkpt><trkpt lat="44.2855602" lon="11.4259298"><ele>512.75</ele><time>2026-04-04T11:30:52.789Z</time></trkpt><trkpt lat="44.2856822" lon="11.4259768"><ele>512.5</ele><time>2026-04-04T11:30:53.788Z</time></trkpt><trkpt lat="44.285814" lon="11.4260248"><ele>512.25</ele><time>2026-04-04T11:30:54.789Z</time></trkpt><trkpt lat="44.285937" lon="11.4260625"><ele>512.0</ele><time>2026-04-04T11:30:55.789Z</time></trkpt><trkpt lat="44.2860562" lon="11.4260883"><ele>512.0</ele><time>2026-04-04T11:30:56.788Z</time></trkpt><trkpt lat="44.2861765" lon="11.4260938"><ele>512.0</ele><time>2026-04-04T11:30:57.789Z</time></trkpt><trkpt lat="44.2862927" lon="11.426095"><ele>512.0</ele><time>2026-04-04T11:30:58.79Z</time></trkpt><trkpt lat="44.2864013" lon="11.4261158"><ele>512.0</ele><time>2026-04-04T11:30:59.788Z</time></trkpt><trkpt lat="44.2864993" lon="11.426158"><ele>512.0</ele><time>2026-04-04T11:31:00.789Z</time></trkpt><trkpt lat="44.2865908" lon="11.4262185"><ele>512.2</ele><time>2026-04-04T11:31:01.788Z</time></trkpt><trkpt lat="44.2866817" lon="11.4263087"><ele>512.4000000000001</ele><time>2026-04-04T11:31:02.785Z</time></trkpt><trkpt lat="44.2867618" lon="11.4264203"><ele>512.5999999999999</ele><time>2026-04-04T11:31:03.786Z</time></trkpt><trkpt lat="44.286831" lon="11.4265277"><ele>512.8</ele><time>2026-04-04T11:31:04.785Z</time></trkpt><trkpt lat="44.2869057" lon="11.4266185"><ele>513.0</ele><time>2026-04-04T11:31:05.784Z</time></trkpt><trkpt lat="44.2869952" lon="11.4266985"><ele>511.4</ele><time>2026-04-04T11:31:06.794Z</time></trkpt><trkpt lat="44.2870958" lon="11.4267485"><ele>509.79999999999995</ele><time>2026-04-04T11:31:07.786Z</time></trkpt><trkpt lat="44.2872028" lon="11.4267702"><ele>508.2</ele><time>2026-04-04T11:31:08.787Z</time></trkpt><trkpt lat="44.2873097" lon="11.4267632"><ele>506.6</ele><time>2026-04-04T11:31:09.788Z</time></trkpt><trkpt lat="44.2874212" lon="11.4267232"><ele>505.0</ele><time>2026-04-04T11:31:10.788Z</time></trkpt><trkpt lat="44.2875322" lon="11.4266725"><ele>505.0</ele><time>2026-04-04T11:31:11.788Z</time></trkpt><trkpt lat="44.2876418" lon="11.426641"><ele>505.0</ele><time>2026-04-04T11:31:12.789Z</time></trkpt><trkpt lat="44.2877533" lon="11.4266363"><ele>505.0</ele><time>2026-04-04T11:31:13.786Z</time></trkpt><trkpt lat="44.287866" lon="11.4266483"><ele>505.0</ele><time>2026-04-04T11:31:14.787Z</time></trkpt><trkpt lat="44.2879753" lon="11.4266755"><ele>505.0</ele><time>2026-04-04T11:31:15.787Z</time></trkpt><trkpt lat="44.28808" lon="11.4266945"><ele>504.8</ele><time>2026-04-04T11:31:16.788Z</time></trkpt><trkpt lat="44.2881777" lon="11.4267235"><ele>504.6</ele><time>2026-04-04T11:31:17.787Z</time></trkpt><trkpt lat="44.2882648" lon="11.4267878"><ele>504.4</ele><time>2026-04-04T11:31:18.787Z</time></trkpt><trkpt lat="44.288347" lon="11.4268627"><ele>504.2</ele><time>2026-04-04T11:31:19.786Z</time></trkpt><trkpt lat="44.2884293" lon="11.4269302"><ele>504.0</ele><time>2026-04-04T11:31:20.787Z</time></trkpt><trkpt lat="44.2885135" lon="11.4270187"><ele>504.0</ele><time>2026-04-04T11:31:21.786Z</time></trkpt><trkpt lat="44.2885878" lon="11.4271233"><ele>504.0</ele><time>2026-04-04T11:31:22.789Z</time></trkpt><trkpt lat="44.288642" lon="11.427236"><ele>504.0</ele><time>2026-04-04T11:31:23.786Z</time></trkpt><trkpt lat="44.2886825" lon="11.4273663"><ele>504.0</ele><time>2026-04-04T11:31:24.789Z</time></trkpt><trkpt lat="44.2887168" lon="11.4274925"><ele>504.0</ele><time>2026-04-04T11:31:25.788Z</time></trkpt><trkpt lat="44.2887407" lon="11.4276215"><ele>504.1666666666667</ele><time>2026-04-04T11:31:26.787Z</time></trkpt><trkpt lat="44.2887717" lon="11.4277333"><ele>504.33333333333337</ele><time>2026-04-04T11:31:27.787Z</time></trkpt><trkpt lat="44.2888188" lon="11.4278242"><ele>504.5</ele><time>2026-04-04T11:31:28.786Z</time></trkpt><trkpt lat="44.288873" lon="11.4278863"><ele>504.6666666666667</ele><time>2026-04-04T11:31:29.786Z</time></trkpt><trkpt lat="44.2889408" lon="11.4279112"><ele>504.83333333333337</ele><time>2026-04-04T11:31:30.786Z</time></trkpt><trkpt lat="44.2890232" lon="11.4279217"><ele>505.0</ele><time>2026-04-04T11:31:31.787Z</time></trkpt><trkpt lat="44.2891005" lon="11.4279547"><ele>502.8</ele><time>2026-04-04T11:31:32.788Z</time></trkpt><trkpt lat="44.289184" lon="11.428002"><ele>500.6</ele><time>2026-04-04T11:31:33.788Z</time></trkpt><trkpt lat="44.2892743" lon="11.4280587"><ele>498.4</ele><time>2026-04-04T11:31:34.788Z</time></trkpt><trkpt lat="44.289367" lon="11.4281012"><ele>496.2</ele><time>2026-04-04T11:31:35.788Z</time></trkpt><trkpt lat="44.2894652" lon="11.4281085"><ele>494.0</ele><time>2026-04-04T11:31:36.789Z</time></trkpt><trkpt lat="44.2895723" lon="11.4280768"><ele>494.0</ele><time>2026-04-04T11:31:37.788Z</time></trkpt><trkpt lat="44.2896755" lon="11.4280338"><ele>494.0</ele><time>2026-04-04T11:31:38.788Z</time></trkpt><trkpt lat="44.2897783" lon="11.4280017"><ele>494.0</ele><time>2026-04-04T11:31:39.788Z</time></trkpt><trkpt lat="44.2898822" lon="11.4279813"><ele>494.0</ele><time>2026-04-04T11:31:40.788Z</time></trkpt><trkpt lat="44.2899848" lon="11.4279457"><ele>494.0</ele><time>2026-04-04T11:31:41.787Z</time></trkpt><trkpt lat="44.2900648" lon="11.4278843"><ele>495.2</ele><time>2026-04-04T11:31:42.79Z</time></trkpt><trkpt lat="44.2901292" lon="11.4277993"><ele>496.4</ele><time>2026-04-04T11:31:43.79Z</time></trkpt><trkpt lat="44.2901892" lon="11.4277025"><ele>497.6</ele><time>2026-04-04T11:31:44.788Z</time></trkpt><trkpt lat="44.290261" lon="11.427617"><ele>498.8</ele><time>2026-04-04T11:31:45.789Z</time></trkpt><trkpt lat="44.2903447" lon="11.4275557"><ele>500.0</ele><time>2026-04-04T11:31:46.789Z</time></trkpt><trkpt lat="44.2904387" lon="11.4275285"><ele>500.0</ele><time>2026-04-04T11:31:47.79Z</time></trkpt><trkpt lat="44.290533" lon="11.427541"><ele>500.0</ele><time>2026-04-04T11:31:48.788Z</time></trkpt><trkpt lat="44.2906133" lon="11.4275932"><ele>500.0</ele><time>2026-04-04T11:31:49.788Z</time></trkpt><trkpt lat="44.2906968" lon="11.4276633"><ele>500.0</ele><time>2026-04-04T11:31:50.789Z</time></trkpt><trkpt lat="44.2907893" lon="11.4277212"><ele>500.0</ele><time>2026-04-04T11:31:51.787Z</time></trkpt><trkpt lat="44.2908775" lon="11.4277453"><ele>498.4</ele><time>2026-04-04T11:31:52.787Z</time></trkpt><trkpt lat="44.2909593" lon="11.427719"><ele>496.8</ele><time>2026-04-04T11:31:53.787Z</time></trkpt><trkpt lat="44.2910332" lon="11.4276397"><ele>495.20000000000005</ele><time>2026-04-04T11:31:54.787Z</time></trkpt><trkpt lat="44.2911028" lon="11.4275285"><ele>493.6</ele><time>2026-04-04T11:31:55.789Z</time></trkpt><trkpt lat="44.2911723" lon="11.4274232"><ele>492.0</ele><time>2026-04-04T11:31:56.789Z</time></trkpt><trkpt lat="44.2912477" lon="11.427334"><ele>492.0</ele><time>2026-04-04T11:31:57.79Z</time></trkpt><trkpt lat="44.291327" lon="11.42728"><ele>492.0</ele><time>2026-04-04T11:31:58.788Z</time></trkpt><trkpt lat="44.291404" lon="11.4272532"><ele>492.0</ele><time>2026-04-04T11:31:59.786Z</time></trkpt><trkpt lat="44.2914833" lon="11.4272307"><ele>492.0</ele><time>2026-04-04T11:32:00.788Z</time></trkpt><trkpt lat="44.2915692" lon="11.4272225"><ele>492.0</ele><time>2026-04-04T11:32:01.788Z</time></trkpt><trkpt lat="44.2916613" lon="11.4272415"><ele>492.0</ele><time>2026-04-04T11:32:02.789Z</time></trkpt><trkpt lat="44.2917575" lon="11.4272887"><ele>491.40000000000003</ele><time>2026-04-04T11:32:03.789Z</time></trkpt><trkpt lat="44.291853" lon="11.4273565"><ele>490.80000000000007</ele><time>2026-04-04T11:32:04.788Z</time></trkpt><trkpt lat="44.2919405" lon="11.4274238"><ele>490.2</ele><time>2026-04-04T11:32:05.789Z</time></trkpt><trkpt lat="44.2920113" lon="11.4275043"><ele>489.6</ele><time>2026-04-04T11:32:06.789Z</time></trkpt><trkpt lat="44.292064" lon="11.4276045"><ele>489.0</ele><time>2026-04-04T11:32:07.788Z</time></trkpt><trkpt lat="44.2921067" lon="11.4277123"><ele>489.0</ele><time>2026-04-04T11:32:08.788Z</time></trkpt><trkpt lat="44.2921587" lon="11.42781"><ele>489.0</ele><time>2026-04-04T11:32:09.788Z</time></trkpt><trkpt lat="44.2922318" lon="11.4278872"><ele>489.0</ele><time>2026-04-04T11:32:10.79Z</time></trkpt><trkpt lat="44.2923185" lon="11.42795"><ele>489.0</ele><time>2026-04-04T11:32:11.789Z</time></trkpt><trkpt lat="44.2924082" lon="11.4280012"><ele>489.0</ele><time>2026-04-04T11:32:12.789Z</time></trkpt><trkpt lat="44.2925008" lon="11.4280378"><ele>488.2</ele><time>2026-04-04T11:32:13.789Z</time></trkpt><trkpt lat="44.292592" lon="11.428061"><ele>487.4</ele><time>2026-04-04T11:32:14.788Z</time></trkpt><trkpt lat="44.2926853" lon="11.4280865"><ele>486.6</ele><time>2026-04-04T11:32:15.787Z</time></trkpt><trkpt lat="44.292783" lon="11.4281175"><ele>485.8</ele><time>2026-04-04T11:32:16.786Z</time></trkpt><trkpt lat="44.2928867" lon="11.428136"><ele>485.0</ele><time>2026-04-04T11:32:17.785Z</time></trkpt><trkpt lat="44.292989" lon="11.4281318"><ele>486.8</ele><time>2026-04-04T11:32:18.786Z</time></trkpt><trkpt lat="44.2930915" lon="11.428101"><ele>488.6</ele><time>2026-04-04T11:32:19.786Z</time></trkpt><trkpt lat="44.2931938" lon="11.4280532"><ele>490.4</ele><time>2026-04-04T11:32:20.789Z</time></trkpt><trkpt lat="44.2932993" lon="11.4279985"><ele>492.2</ele><time>2026-04-04T11:32:21.79Z</time></trkpt><trkpt lat="44.2934093" lon="11.4279297"><ele>494.0</ele><time>2026-04-04T11:32:22.79Z</time></trkpt><trkpt lat="44.29353" lon="11.427851"><ele>495.0</ele><time>2026-04-04T11:32:23.789Z</time></trkpt><trkpt lat="44.2936498" lon="11.4277747"><ele>496.0</ele><time>2026-04-04T11:32:24.789Z</time></trkpt><trkpt lat="44.2937558" lon="11.4277043"><ele>497.0</ele><time>2026-04-04T11:32:25.789Z</time></trkpt><trkpt lat="44.2938535" lon="11.4276422"><ele>498.0</ele><time>2026-04-04T11:32:26.788Z</time></trkpt><trkpt lat="44.2939398" lon="11.4275833"><ele>498.0</ele><time>2026-04-04T11:32:27.789Z</time></trkpt><trkpt lat="44.2940163" lon="11.4275148"><ele>498.0</ele><time>2026-04-04T11:32:28.788Z</time></trkpt><trkpt lat="44.2940895" lon="11.4274395"><ele>498.0</ele><time>2026-04-04T11:32:29.788Z</time></trkpt><trkpt lat="44.294151" lon="11.4273572"><ele>498.0</ele><time>2026-04-04T11:32:30.789Z</time></trkpt><trkpt lat="44.294193" lon="11.4272557"><ele>498.0</ele><time>2026-04-04T11:32:31.788Z</time></trkpt><trkpt lat="44.2942292" lon="11.4271303"><ele>498.0</ele><time>2026-04-04T11:32:32.788Z</time></trkpt><trkpt lat="44.2942707" lon="11.4269797"><ele>498.5</ele><time>2026-04-04T11:32:33.788Z</time></trkpt><trkpt lat="44.2943182" lon="11.4268242"><ele>499.0</ele><time>2026-04-04T11:32:34.788Z</time></trkpt><trkpt lat="44.2943648" lon="11.4266778"><ele>499.5</ele><time>2026-04-04T11:32:35.786Z</time></trkpt><trkpt lat="44.2944043" lon="11.4265342"><ele>500.0</ele><time>2026-04-04T11:32:36.788Z</time></trkpt><trkpt lat="44.2944465" lon="11.4263997"><ele>500.8333333333333</ele><time>2026-04-04T11:32:37.788Z</time></trkpt><trkpt lat="44.2944962" lon="11.426308"><ele>501.66666666666663</ele><time>2026-04-04T11:32:38.787Z</time></trkpt><trkpt lat="44.2945587" lon="11.4262677"><ele>502.5</ele><time>2026-04-04T11:32:39.786Z</time></trkpt><trkpt lat="44.2946315" lon="11.4262662"><ele>503.33333333333337</ele><time>2026-04-04T11:32:40.784Z</time></trkpt><trkpt lat="44.2947173" lon="11.4262517"><ele>504.1666666666667</ele><time>2026-04-04T11:32:41.784Z</time></trkpt><trkpt lat="44.2948173" lon="11.4262155"><ele>505.0</ele><time>2026-04-04T11:32:42.784Z</time></trkpt><trkpt lat="44.2949168" lon="11.426162"><ele>502.0</ele><time>2026-04-04T11:32:43.786Z</time></trkpt><trkpt lat="44.2950195" lon="11.4261353"><ele>499.0</ele><time>2026-04-04T11:32:44.788Z</time></trkpt><trkpt lat="44.2951302" lon="11.426145"><ele>496.0</ele><time>2026-04-04T11:32:45.787Z</time></trkpt><trkpt lat="44.2952477" lon="11.4261615"><ele>493.0</ele><time>2026-04-04T11:32:46.789Z</time></trkpt><trkpt lat="44.2953642" lon="11.426151"><ele>493.0</ele><time>2026-04-04T11:32:47.79Z</time></trkpt><trkpt lat="44.2954817" lon="11.4261198"><ele>493.0</ele><time>2026-04-04T11:32:48.788Z</time></trkpt><trkpt lat="44.295604" lon="11.4260753"><ele>493.0</ele><time>2026-04-04T11:32:49.789Z</time></trkpt><trkpt lat="44.2957307" lon="11.426036"><ele>493.0</ele><time>2026-04-04T11:32:50.788Z</time></trkpt><trkpt lat="44.295857" lon="11.4260015"><ele>491.0</ele><time>2026-04-04T11:32:51.789Z</time></trkpt><trkpt lat="44.2959837" lon="11.4259785"><ele>489.0</ele><time>2026-04-04T11:32:52.789Z</time></trkpt><trkpt lat="44.2961035" lon="11.425963"><ele>487.0</ele><time>2026-04-04T11:32:53.788Z</time></trkpt><trkpt lat="44.2962272" lon="11.4259442"><ele>485.0</ele><time>2026-04-04T11:32:54.791Z</time></trkpt><trkpt lat="44.2963512" lon="11.4259213"><ele>483.75</ele><time>2026-04-04T11:32:55.789Z</time></trkpt><trkpt lat="44.2964778" lon="11.425886"><ele>482.5</ele><time>2026-04-04T11:32:56.787Z</time></trkpt><trkpt lat="44.2965982" lon="11.4258423"><ele>481.25</ele><time>2026-04-04T11:32:57.788Z</time></trkpt><trkpt lat="44.2967077" lon="11.4257973"><ele>480.0</ele><time>2026-04-04T11:32:58.79Z</time></trkpt><trkpt lat="44.2968113" lon="11.4257483"><ele>480.0</ele><time>2026-04-04T11:32:59.789Z</time></trkpt><trkpt lat="44.2969032" lon="11.4256812"><ele>480.0</ele><time>2026-04-04T11:33:00.791Z</time></trkpt><trkpt lat="44.2969762" lon="11.4255852"><ele>480.0</ele><time>2026-04-04T11:33:01.789Z</time></trkpt><trkpt lat="44.2970357" lon="11.4254735"><ele>480.0</ele><time>2026-04-04T11:33:02.789Z</time></trkpt><trkpt lat="44.2970778" lon="11.4253553"><ele>480.0</ele><time>2026-04-04T11:33:03.789Z</time></trkpt><trkpt lat="44.2970993" lon="11.4252282"><ele>479.0</ele><time>2026-04-04T11:33:04.787Z</time></trkpt><trkpt lat="44.2971128" lon="11.4251022"><ele>478.0</ele><time>2026-04-04T11:33:05.785Z</time></trkpt><trkpt lat="44.2971438" lon="11.4250113"><ele>477.0</ele><time>2026-04-04T11:33:06.787Z</time></trkpt><trkpt lat="44.2971978" lon="11.4249633"><ele>476.0</ele><time>2026-04-04T11:33:07.785Z</time></trkpt><trkpt lat="44.297262" lon="11.4249472"><ele>475.0</ele><time>2026-04-04T11:33:08.787Z</time></trkpt><trkpt lat="44.2973357" lon="11.4249588"><ele>474.0</ele><time>2026-04-04T11:33:09.79Z</time></trkpt><trkpt lat="44.2974182" lon="11.4249865"><ele>474.0</ele><time>2026-04-04T11:33:10.788Z</time></trkpt><trkpt lat="44.2975023" lon="11.4249975"><ele>474.0</ele><time>2026-04-04T11:33:11.788Z</time></trkpt><trkpt lat="44.2975948" lon="11.4249685"><ele>474.0</ele><time>2026-04-04T11:33:12.787Z</time></trkpt><trkpt lat="44.2976945" lon="11.4249037"><ele>474.0</ele><time>2026-04-04T11:33:13.786Z</time></trkpt><trkpt lat="44.297798" lon="11.4248193"><ele>474.0</ele><time>2026-04-04T11:33:14.786Z</time></trkpt><trkpt lat="44.2979053" lon="11.4247485"><ele>474.0</ele><time>2026-04-04T11:33:15.787Z</time></trkpt><trkpt lat="44.298027" lon="11.4247097"><ele>474.0</ele><time>2026-04-04T11:33:16.789Z</time></trkpt><trkpt lat="44.2981623" lon="11.4247035"><ele>474.0</ele><time>2026-04-04T11:33:17.786Z</time></trkpt><trkpt lat="44.2983058" lon="11.4247123"><ele>474.0</ele><time>2026-04-04T11:33:18.786Z</time></trkpt><trkpt lat="44.2984557" lon="11.4247267"><ele>471.5</ele><time>2026-04-04T11:33:19.788Z</time></trkpt><trkpt lat="44.2986062" lon="11.424749"><ele>469.0</ele><time>2026-04-04T11:33:20.789Z</time></trkpt><trkpt lat="44.2987468" lon="11.424776"><ele>466.5</ele><time>2026-04-04T11:33:21.788Z</time></trkpt><trkpt lat="44.2988778" lon="11.4247952"><ele>464.0</ele><time>2026-04-04T11:33:22.788Z</time></trkpt><trkpt lat="44.2990037" lon="11.4247947"><ele>464.0</ele><time>2026-04-04T11:33:23.787Z</time></trkpt><trkpt lat="44.299135" lon="11.4247832"><ele>464.0</ele><time>2026-04-04T11:33:24.788Z</time></trkpt><trkpt lat="44.2992698" lon="11.4247825"><ele>464.0</ele><time>2026-04-04T11:33:25.787Z</time></trkpt><trkpt lat="44.2994078" lon="11.4247947"><ele>464.0</ele><time>2026-04-04T11:33:26.786Z</time></trkpt><trkpt lat="44.29955" lon="11.4248182"><ele>464.0</ele><time>2026-04-04T11:33:27.787Z</time></trkpt><trkpt lat="44.2996982" lon="11.4248537"><ele>464.0</ele><time>2026-04-04T11:33:28.788Z</time></trkpt><trkpt lat="44.2998505" lon="11.424905"><ele>464.0</ele><time>2026-04-04T11:33:29.783Z</time></trkpt><trkpt lat="44.3000108" lon="11.4249662"><ele>461.3333333333333</ele><time>2026-04-04T11:33:30.786Z</time></trkpt><trkpt lat="44.3001755" lon="11.425039"><ele>458.66666666666663</ele><time>2026-04-04T11:33:31.786Z</time></trkpt><trkpt lat="44.3003447" lon="11.4251078"><ele>456.0</ele><time>2026-04-04T11:33:32.785Z</time></trkpt><trkpt lat="44.3005182" lon="11.425158"><ele>460.33333333333337</ele><time>2026-04-04T11:33:33.788Z</time></trkpt><trkpt lat="44.3006857" lon="11.4251957"><ele>464.6666666666667</ele><time>2026-04-04T11:33:34.788Z</time></trkpt><trkpt lat="44.3008373" lon="11.4252237"><ele>469.0</ele><time>2026-04-04T11:33:35.789Z</time></trkpt><trkpt lat="44.300973" lon="11.425246"><ele>469.0</ele><time>2026-04-04T11:33:36.79Z</time></trkpt><trkpt lat="44.3010828" lon="11.425253"><ele>469.0</ele><time>2026-04-04T11:33:37.788Z</time></trkpt><trkpt lat="44.3011817" lon="11.4252245"><ele>469.0</ele><time>2026-04-04T11:33:38.787Z</time></trkpt><trkpt lat="44.3012843" lon="11.4251717"><ele>469.0</ele><time>2026-04-04T11:33:39.787Z</time></trkpt><trkpt lat="44.3013903" lon="11.4251327"><ele>469.0</ele><time>2026-04-04T11:33:40.788Z</time></trkpt><trkpt lat="44.301507" lon="11.4251193"><ele>473.0</ele><time>2026-04-04T11:33:41.789Z</time></trkpt><trkpt lat="44.3016307" lon="11.4251368"><ele>477.0</ele><time>2026-04-04T11:33:42.789Z</time></trkpt><trkpt lat="44.3017607" lon="11.4251765"><ele>481.0</ele><time>2026-04-04T11:33:43.791Z</time></trkpt><trkpt lat="44.3019043" lon="11.4252143"><ele>485.0</ele><time>2026-04-04T11:33:44.788Z</time></trkpt><trkpt lat="44.302058" lon="11.4252547"><ele>485.0</ele><time>2026-04-04T11:33:45.788Z</time></trkpt><trkpt lat="44.3022107" lon="11.4253028"><ele>485.0</ele><time>2026-04-04T11:33:46.788Z</time></trkpt><trkpt lat="44.3023582" lon="11.4253503"><ele>485.0</ele><time>2026-04-04T11:33:47.788Z</time></trkpt><trkpt lat="44.3024883" lon="11.425402"><ele>485.0</ele><time>2026-04-04T11:33:48.788Z</time></trkpt><trkpt lat="44.3026057" lon="11.4254598"><ele>485.5</ele><time>2026-04-04T11:33:49.789Z</time></trkpt><trkpt lat="44.3027223" lon="11.4255362"><ele>486.0</ele><time>2026-04-04T11:33:50.788Z</time></trkpt><trkpt lat="44.3028408" lon="11.425635"><ele>486.5</ele><time>2026-04-04T11:33:51.79Z</time></trkpt><trkpt lat="44.3029637" lon="11.4257415"><ele>487.0</ele><time>2026-04-04T11:33:52.788Z</time></trkpt><trkpt lat="44.3030695" lon="11.4258472"><ele>490.40000000000003</ele><time>2026-04-04T11:33:53.787Z</time></trkpt><trkpt lat="44.303156" lon="11.4259515"><ele>493.80000000000007</ele><time>2026-04-04T11:33:54.786Z</time></trkpt><trkpt lat="44.303233" lon="11.426024"><ele>497.2</ele><time>2026-04-04T11:33:55.787Z</time></trkpt><trkpt lat="44.3033178" lon="11.4260595"><ele>500.6</ele><time>2026-04-04T11:33:56.785Z</time></trkpt><trkpt lat="44.30342" lon="11.426057"><ele>504.0</ele><time>2026-04-04T11:33:57.786Z</time></trkpt><trkpt lat="44.3035387" lon="11.4260367"><ele>504.0</ele><time>2026-04-04T11:33:58.789Z</time></trkpt><trkpt lat="44.3036582" lon="11.4260168"><ele>504.0</ele><time>2026-04-04T11:33:59.787Z</time></trkpt><trkpt lat="44.303772" lon="11.4260033"><ele>504.0</ele><time>2026-04-04T11:34:00.788Z</time></trkpt><trkpt lat="44.3038787" lon="11.4260095"><ele>504.0</ele><time>2026-04-04T11:34:01.789Z</time></trkpt><trkpt lat="44.3039763" lon="11.4260363"><ele>504.0</ele><time>2026-04-04T11:34:02.788Z</time></trkpt><trkpt lat="44.3040633" lon="11.4260715"><ele>506.0</ele><time>2026-04-04T11:34:03.788Z</time></trkpt><trkpt lat="44.3041402" lon="11.4260987"><ele>508.0</ele><time>2026-04-04T11:34:04.788Z</time></trkpt><trkpt lat="44.3042092" lon="11.4261175"><ele>510.0</ele><time>2026-04-04T11:34:05.788Z</time></trkpt><trkpt lat="44.3043168" lon="11.4261415"><ele>512.0</ele><time>2026-04-04T11:34:07.79Z</time></trkpt><trkpt lat="44.3043937" lon="11.426145"><ele>514.0</ele><time>2026-04-04T11:34:09.791Z</time></trkpt><trkpt lat="44.3045278" lon="11.4261967"><ele>514.0</ele><time>2026-04-04T11:34:11.789Z</time></trkpt><trkpt lat="44.3046152" lon="11.4262777"><ele>514.0</ele><time>2026-04-04T11:34:12.789Z</time></trkpt><trkpt lat="44.3047202" lon="11.4263882"><ele>514.0</ele><time>2026-04-04T11:34:13.789Z</time></trkpt><trkpt lat="44.3048443" lon="11.4264852"><ele>514.0</ele><time>2026-04-04T11:34:14.789Z</time></trkpt><trkpt lat="44.3049965" lon="11.4265528"><ele>514.0</ele><time>2026-04-04T11:34:15.788Z</time></trkpt><trkpt lat="44.3051545" lon="11.4265937"><ele>514.0</ele><time>2026-04-04T11:34:16.789Z</time></trkpt><trkpt lat="44.3053065" lon="11.4266193"><ele>514.0</ele><time>2026-04-04T11:34:17.789Z</time></trkpt><trkpt lat="44.3054517" lon="11.42664"><ele>511.75</ele><time>2026-04-04T11:34:18.788Z</time></trkpt><trkpt lat="44.305587" lon="11.4266663"><ele>509.5</ele><time>2026-04-04T11:34:19.787Z</time></trkpt><trkpt lat="44.3057125" lon="11.4267143"><ele>507.25</ele><time>2026-04-04T11:34:20.787Z</time></trkpt><trkpt lat="44.3058253" lon="11.4267843"><ele>505.0</ele><time>2026-04-04T11:34:21.785Z</time></trkpt><trkpt lat="44.3059248" lon="11.42687"><ele>505.0</ele><time>2026-04-04T11:34:22.789Z</time></trkpt><trkpt lat="44.3060123" lon="11.4269697"><ele>505.0</ele><time>2026-04-04T11:34:23.789Z</time></trkpt><trkpt lat="44.3061037" lon="11.4270593"><ele>505.0</ele><time>2026-04-04T11:34:24.789Z</time></trkpt><trkpt lat="44.306211" lon="11.4271188"><ele>505.0</ele><time>2026-04-04T11:34:25.788Z</time></trkpt><trkpt lat="44.3063398" lon="11.4271432"><ele>502.75</ele><time>2026-04-04T11:34:26.79Z</time></trkpt><trkpt lat="44.3064795" lon="11.4271362"><ele>500.5</ele><time>2026-04-04T11:34:27.789Z</time></trkpt><trkpt lat="44.3066233" lon="11.4271092"><ele>498.25</ele><time>2026-04-04T11:34:28.788Z</time></trkpt><trkpt lat="44.3067575" lon="11.427083"><ele>496.0</ele><time>2026-04-04T11:34:29.786Z</time></trkpt><trkpt lat="44.3068833" lon="11.427074"><ele>496.0</ele><time>2026-04-04T11:34:30.788Z</time></trkpt><trkpt lat="44.3070028" lon="11.4270828"><ele>496.0</ele><time>2026-04-04T11:34:31.789Z</time></trkpt><trkpt lat="44.3071173" lon="11.4271043"><ele>496.0</ele><time>2026-04-04T11:34:32.787Z</time></trkpt><trkpt lat="44.307229" lon="11.4271235"><ele>496.0</ele><time>2026-04-04T11:34:33.789Z</time></trkpt><trkpt lat="44.3073385" lon="11.4271245"><ele>495.20000000000005</ele><time>2026-04-04T11:34:34.789Z</time></trkpt><trkpt lat="44.3074425" lon="11.4271037"><ele>494.40000000000003</ele><time>2026-04-04T11:34:35.788Z</time></trkpt><trkpt lat="44.3075382" lon="11.4270657"><ele>493.6</ele><time>2026-04-04T11:34:36.789Z</time></trkpt><trkpt lat="44.307629" lon="11.4270177"><ele>492.8</ele><time>2026-04-04T11:34:37.79Z</time></trkpt><trkpt lat="44.3077155" lon="11.4269697"><ele>492.0</ele><time>2026-04-04T11:34:38.788Z</time></trkpt><trkpt lat="44.3078015" lon="11.4269115"><ele>492.0</ele><time>2026-04-04T11:34:39.788Z</time></trkpt><trkpt lat="44.3078935" lon="11.4268438"><ele>492.0</ele><time>2026-04-04T11:34:40.788Z</time></trkpt><trkpt lat="44.3079943" lon="11.426765"><ele>492.0</ele><time>2026-04-04T11:34:41.788Z</time></trkpt><trkpt lat="44.308101" lon="11.4266667"><ele>492.0</ele><time>2026-04-04T11:34:42.788Z</time></trkpt><trkpt lat="44.3082215" lon="11.4265577"><ele>491.66666666666663</ele><time>2026-04-04T11:34:43.785Z</time></trkpt><trkpt lat="44.3083527" lon="11.4264443"><ele>491.3333333333333</ele><time>2026-04-04T11:34:44.785Z</time></trkpt><trkpt lat="44.3084847" lon="11.426323"><ele>491.0</ele><time>2026-04-04T11:34:45.786Z</time></trkpt><trkpt lat="44.3086103" lon="11.4261833"><ele>491.0</ele><time>2026-04-04T11:34:46.787Z</time></trkpt><trkpt lat="44.3087285" lon="11.4260158"><ele>491.0</ele><time>2026-04-04T11:34:47.79Z</time></trkpt><trkpt lat="44.3088363" lon="11.4258358"><ele>491.0</ele><time>2026-04-04T11:34:48.788Z</time></trkpt><trkpt lat="44.308936" lon="11.4256467"><ele>496.0</ele><time>2026-04-04T11:34:49.788Z</time></trkpt><trkpt lat="44.3090325" lon="11.4254565"><ele>501.0</ele><time>2026-04-04T11:34:50.79Z</time></trkpt><trkpt lat="44.3091313" lon="11.4252758"><ele>506.0</ele><time>2026-04-04T11:34:51.789Z</time></trkpt><trkpt lat="44.3092293" lon="11.4251167"><ele>506.0</ele><time>2026-04-04T11:34:52.79Z</time></trkpt><trkpt lat="44.3093178" lon="11.4249775"><ele>506.0</ele><time>2026-04-04T11:34:53.789Z</time></trkpt><trkpt lat="44.3093933" lon="11.424854"><ele>506.0</ele><time>2026-04-04T11:34:54.789Z</time></trkpt><trkpt lat="44.3094598" lon="11.4247412"><ele>506.0</ele><time>2026-04-04T11:34:55.787Z</time></trkpt><trkpt lat="44.3095118" lon="11.4246427"><ele>506.0</ele><time>2026-04-04T11:34:56.788Z</time></trkpt><trkpt lat="44.3095515" lon="11.4245477"><ele>507.8333333333333</ele><time>2026-04-04T11:34:57.789Z</time></trkpt><trkpt lat="44.30958" lon="11.4244563"><ele>509.66666666666663</ele><time>2026-04-04T11:34:58.787Z</time></trkpt><trkpt lat="44.3096058" lon="11.4243613"><ele>511.5</ele><time>2026-04-04T11:34:59.787Z</time></trkpt><trkpt lat="44.3096305" lon="11.4242707"><ele>513.3333333333334</ele><time>2026-04-04T11:35:00.787Z</time></trkpt><trkpt lat="44.3096933" lon="11.424171"><ele>515.1666666666667</ele><time>2026-04-04T11:35:02.788Z</time></trkpt><trkpt lat="44.3097865" lon="11.424137"><ele>517.0</ele><time>2026-04-04T11:35:04.786Z</time></trkpt><trkpt lat="44.3098945" lon="11.4240955"><ele>521.3333333333334</ele><time>2026-04-04T11:35:06.787Z</time></trkpt><trkpt lat="44.309966" lon="11.4240712"><ele>525.6666666666667</ele><time>2026-04-04T11:35:07.786Z</time></trkpt><trkpt lat="44.3100397" lon="11.4240625"><ele>530.0</ele><time>2026-04-04T11:35:08.784Z</time></trkpt><trkpt lat="44.3101238" lon="11.4240468"><ele>534.3333333333334</ele><time>2026-04-04T11:35:09.783Z</time></trkpt><trkpt lat="44.3102112" lon="11.4240657"><ele>538.6666666666666</ele><time>2026-04-04T11:35:10.784Z</time></trkpt><trkpt lat="44.3103008" lon="11.4240948"><ele>543.0</ele><time>2026-04-04T11:35:11.785Z</time></trkpt><trkpt lat="44.310393" lon="11.4241593"><ele>543.0</ele><time>2026-04-04T11:35:12.786Z</time></trkpt><trkpt lat="44.3104798" lon="11.4242312"><ele>543.0</ele><time>2026-04-04T11:35:13.785Z</time></trkpt><trkpt lat="44.3105793" lon="11.4242908"><ele>543.0</ele><time>2026-04-04T11:35:14.784Z</time></trkpt><trkpt lat="44.3106812" lon="11.424332"><ele>543.0</ele><time>2026-04-04T11:35:15.784Z</time></trkpt><trkpt lat="44.3107853" lon="11.424362"><ele>543.0</ele><time>2026-04-04T11:35:16.786Z</time></trkpt><trkpt lat="44.3109028" lon="11.42436"><ele>545.0</ele><time>2026-04-04T11:35:17.786Z</time></trkpt><trkpt lat="44.3110273" lon="11.4243338"><ele>547.0</ele><time>2026-04-04T11:35:18.786Z</time></trkpt><trkpt lat="44.3111293" lon="11.4243233"><ele>549.0</ele><time>2026-04-04T11:35:19.787Z</time></trkpt><trkpt lat="44.3112107" lon="11.4243357"><ele>551.0</ele><time>2026-04-04T11:35:20.787Z</time></trkpt><trkpt lat="44.311286" lon="11.4243418"><ele>553.0</ele><time>2026-04-04T11:35:21.786Z</time></trkpt><trkpt lat="44.311353" lon="11.4243073"><ele>555.1666666666667</ele><time>2026-04-04T11:35:22.787Z</time></trkpt><trkpt lat="44.3114293" lon="11.4242678"><ele>557.3333333333334</ele><time>2026-04-04T11:35:23.789Z</time></trkpt><trkpt lat="44.3115197" lon="11.4242483"><ele>559.5</ele><time>2026-04-04T11:35:24.787Z</time></trkpt><trkpt lat="44.3116037" lon="11.4242377"><ele>561.6666666666666</ele><time>2026-04-04T11:35:25.786Z</time></trkpt><trkpt lat="44.3116857" lon="11.4242403"><ele>563.8333333333333</ele><time>2026-04-04T11:35:26.787Z</time></trkpt><trkpt lat="44.3117738" lon="11.4242618"><ele>566.0</ele><time>2026-04-04T11:35:27.789Z</time></trkpt><trkpt lat="44.3118512" lon="11.4242932"><ele>566.0</ele><time>2026-04-04T11:35:28.787Z</time></trkpt><trkpt lat="44.3119368" lon="11.424309"><ele>566.0</ele><time>2026-04-04T11:35:29.788Z</time></trkpt><trkpt lat="44.3120353" lon="11.4243027"><ele>566.0</ele><time>2026-04-04T11:35:30.786Z</time></trkpt><trkpt lat="44.312126" lon="11.4243058"><ele>566.0</ele><time>2026-04-04T11:35:31.784Z</time></trkpt><trkpt lat="44.3122122" lon="11.4243365"><ele>566.0</ele><time>2026-04-04T11:35:32.783Z</time></trkpt><trkpt lat="44.3122835" lon="11.4243982"><ele>566.0</ele><time>2026-04-04T11:35:33.784Z</time></trkpt><trkpt lat="44.3123387" lon="11.424496"><ele>568.0</ele><time>2026-04-04T11:35:34.784Z</time></trkpt><trkpt lat="44.3123773" lon="11.4245843"><ele>570.0</ele><time>2026-04-04T11:35:35.784Z</time></trkpt><trkpt lat="44.3124822" lon="11.424617"><ele>572.0</ele><time>2026-04-04T11:35:37.785Z</time></trkpt><trkpt lat="44.3125582" lon="11.4245732"><ele>574.0</ele><time>2026-04-04T11:35:38.787Z</time></trkpt><trkpt lat="44.3126363" lon="11.4245222"><ele>576.0</ele><time>2026-04-04T11:35:39.787Z</time></trkpt><trkpt lat="44.3127153" lon="11.4245042"><ele>578.0</ele><time>2026-04-04T11:35:40.788Z</time></trkpt><trkpt lat="44.3127902" lon="11.4245288"><ele>578.0</ele><time>2026-04-04T11:35:41.787Z</time></trkpt><trkpt lat="44.3128628" lon="11.4245893"><ele>578.0</ele><time>2026-04-04T11:35:42.788Z</time></trkpt><trkpt lat="44.312931" lon="11.4246723"><ele>578.0</ele><time>2026-04-04T11:35:43.787Z</time></trkpt><trkpt lat="44.3129867" lon="11.4247622"><ele>578.0</ele><time>2026-04-04T11:35:44.786Z</time></trkpt><trkpt lat="44.3130293" lon="11.424858"><ele>578.0</ele><time>2026-04-04T11:35:45.788Z</time></trkpt><trkpt lat="44.3130647" lon="11.4249583"><ele>578.0</ele><time>2026-04-04T11:35:46.791Z</time></trkpt><trkpt lat="44.3131062" lon="11.4250495"><ele>576.8</ele><time>2026-04-04T11:35:47.788Z</time></trkpt><trkpt lat="44.3131592" lon="11.4251098"><ele>575.5999999999999</ele><time>2026-04-04T11:35:48.787Z</time></trkpt><trkpt lat="44.3132353" lon="11.425138"><ele>574.4000000000001</ele><time>2026-04-04T11:35:49.785Z</time></trkpt><trkpt lat="44.3133345" lon="11.4251698"><ele>573.2</ele><time>2026-04-04T11:35:50.786Z</time></trkpt><trkpt lat="44.3134353" lon="11.4252057"><ele>572.0</ele><time>2026-04-04T11:35:51.787Z</time></trkpt><trkpt lat="44.3135365" lon="11.4252478"><ele>572.0</ele><time>2026-04-04T11:35:52.787Z</time></trkpt><trkpt lat="44.3136383" lon="11.4252998"><ele>572.0</ele><time>2026-04-04T11:35:53.787Z</time></trkpt><trkpt lat="44.3137347" lon="11.4253578"><ele>572.0</ele><time>2026-04-04T11:35:54.788Z</time></trkpt><trkpt lat="44.3138297" lon="11.4254213"><ele>572.0</ele><time>2026-04-04T11:35:55.788Z</time></trkpt><trkpt lat="44.3139273" lon="11.4254888"><ele>572.0</ele><time>2026-04-04T11:35:56.787Z</time></trkpt><trkpt lat="44.3140287" lon="11.42555"><ele>568.0</ele><time>2026-04-04T11:35:57.786Z</time></trkpt><trkpt lat="44.3141322" lon="11.4256045"><ele>564.0</ele><time>2026-04-04T11:35:58.785Z</time></trkpt><trkpt lat="44.31424" lon="11.425659"><ele>560.0</ele><time>2026-04-04T11:35:59.784Z</time></trkpt><trkpt lat="44.3143445" lon="11.4256952"><ele>556.0</ele><time>2026-04-04T11:36:00.786Z</time></trkpt><trkpt lat="44.3144457" lon="11.4257233"><ele>552.0</ele><time>2026-04-04T11:36:01.788Z</time></trkpt><trkpt lat="44.3145425" lon="11.425752"><ele>552.0</ele><time>2026-04-04T11:36:02.788Z</time></trkpt><trkpt lat="44.314626" lon="11.4257952"><ele>552.0</ele><time>2026-04-04T11:36:03.787Z</time></trkpt><trkpt lat="44.3147027" lon="11.4258558"><ele>552.0</ele><time>2026-04-04T11:36:04.789Z</time></trkpt><trkpt lat="44.314778" lon="11.4259337"><ele>552.0</ele><time>2026-04-04T11:36:05.786Z</time></trkpt><trkpt lat="44.3148603" lon="11.426013"><ele>552.0</ele><time>2026-04-04T11:36:06.788Z</time></trkpt><trkpt lat="44.3149427" lon="11.4260722"><ele>550.1666666666666</ele><time>2026-04-04T11:36:07.787Z</time></trkpt><trkpt lat="44.3150245" lon="11.4261127"><ele>548.3333333333334</ele><time>2026-04-04T11:36:08.787Z</time></trkpt><trkpt lat="44.3151005" lon="11.426142"><ele>546.5</ele><time>2026-04-04T11:36:09.786Z</time></trkpt><trkpt lat="44.3151733" lon="11.4261728"><ele>544.6666666666667</ele><time>2026-04-04T11:36:10.788Z</time></trkpt><trkpt lat="44.3152583" lon="11.4262022"><ele>542.8333333333334</ele><time>2026-04-04T11:36:11.789Z</time></trkpt><trkpt lat="44.3153572" lon="11.4262378"><ele>541.0</ele><time>2026-04-04T11:36:12.792Z</time></trkpt><trkpt lat="44.315452" lon="11.4262932"><ele>537.75</ele><time>2026-04-04T11:36:13.789Z</time></trkpt><trkpt lat="44.3155493" lon="11.4263677"><ele>534.5</ele><time>2026-04-04T11:36:14.788Z</time></trkpt><trkpt lat="44.3156658" lon="11.4264572"><ele>531.25</ele><time>2026-04-04T11:36:15.788Z</time></trkpt><trkpt lat="44.3157877" lon="11.4265428"><ele>528.0</ele><time>2026-04-04T11:36:16.788Z</time></trkpt><trkpt lat="44.3159152" lon="11.426629"><ele>528.0</ele><time>2026-04-04T11:36:17.787Z</time></trkpt><trkpt lat="44.3160423" lon="11.4267357"><ele>528.0</ele><time>2026-04-04T11:36:18.789Z</time></trkpt><trkpt lat="44.3161678" lon="11.4268628"><ele>528.0</ele><time>2026-04-04T11:36:19.789Z</time></trkpt><trkpt lat="44.3162992" lon="11.426994"><ele>527.3333333333334</ele><time>2026-04-04T11:36:20.787Z</time></trkpt><trkpt lat="44.3164352" lon="11.4271315"><ele>526.6666666666667</ele><time>2026-04-04T11:36:21.786Z</time></trkpt><trkpt lat="44.316564" lon="11.4272632"><ele>526.0</ele><time>2026-04-04T11:36:22.786Z</time></trkpt><trkpt lat="44.3166845" lon="11.4273772"><ele>526.0</ele><time>2026-04-04T11:36:23.787Z</time></trkpt><trkpt lat="44.3167937" lon="11.4274887"><ele>526.0</ele><time>2026-04-04T11:36:24.788Z</time></trkpt><trkpt lat="44.316892" lon="11.4276097"><ele>526.0</ele><time>2026-04-04T11:36:25.789Z</time></trkpt><trkpt lat="44.3169832" lon="11.4277383"><ele>526.0</ele><time>2026-04-04T11:36:26.789Z</time></trkpt><trkpt lat="44.3170788" lon="11.427864"><ele>526.0</ele><time>2026-04-04T11:36:27.788Z</time></trkpt><trkpt lat="44.317192" lon="11.4279683"><ele>526.0</ele><time>2026-04-04T11:36:28.788Z</time></trkpt><trkpt lat="44.3173285" lon="11.4280657"><ele>526.0</ele><time>2026-04-04T11:36:29.79Z</time></trkpt><trkpt lat="44.3174743" lon="11.4281607"><ele>526.0</ele><time>2026-04-04T11:36:30.788Z</time></trkpt><trkpt lat="44.3176067" lon="11.4282517"><ele>526.0</ele><time>2026-04-04T11:36:31.787Z</time></trkpt><trkpt lat="44.3177383" lon="11.428341"><ele>526.0</ele><time>2026-04-04T11:36:32.787Z</time></trkpt><trkpt lat="44.3178602" lon="11.4284283"><ele>526.0</ele><time>2026-04-04T11:36:33.79Z</time></trkpt><trkpt lat="44.317973" lon="11.4285355"><ele>528.75</ele><time>2026-04-04T11:36:34.791Z</time></trkpt><trkpt lat="44.3180858" lon="11.42867"><ele>531.5</ele><time>2026-04-04T11:36:35.787Z</time></trkpt><trkpt lat="44.3181983" lon="11.428805"><ele>534.25</ele><time>2026-04-04T11:36:36.789Z</time></trkpt><trkpt lat="44.3183037" lon="11.428929"><ele>537.0</ele><time>2026-04-04T11:36:37.788Z</time></trkpt><trkpt lat="44.3183978" lon="11.4290435"><ele>537.0</ele><time>2026-04-04T11:36:38.786Z</time></trkpt><trkpt lat="44.318479" lon="11.429159"><ele>537.0</ele><time>2026-04-04T11:36:39.789Z</time></trkpt><trkpt lat="44.3185397" lon="11.4293017"><ele>537.0</ele><time>2026-04-04T11:36:40.79Z</time></trkpt><trkpt lat="44.3185732" lon="11.4294655"><ele>537.0</ele><time>2026-04-04T11:36:41.789Z</time></trkpt><trkpt lat="44.3185822" lon="11.4296488"><ele>536.0</ele><time>2026-04-04T11:36:42.788Z</time></trkpt><trkpt lat="44.3185777" lon="11.4298572"><ele>535.0</ele><time>2026-04-04T11:36:43.791Z</time></trkpt><trkpt lat="44.3185698" lon="11.4300887"><ele>534.0</ele><time>2026-04-04T11:36:44.789Z</time></trkpt><trkpt lat="44.318568" lon="11.4302993"><ele>537.5</ele><time>2026-04-04T11:36:45.786Z</time></trkpt><trkpt lat="44.3185735" lon="11.430484"><ele>541.0</ele><time>2026-04-04T11:36:46.788Z</time></trkpt><trkpt lat="44.3185913" lon="11.430653"><ele>544.5</ele><time>2026-04-04T11:36:47.785Z</time></trkpt><trkpt lat="44.3186192" lon="11.4308048"><ele>548.0</ele><time>2026-04-04T11:36:48.787Z</time></trkpt><trkpt lat="44.318658" lon="11.430934"><ele>548.0</ele><time>2026-04-04T11:36:49.789Z</time></trkpt><trkpt lat="44.3187125" lon="11.4310433"><ele>548.0</ele><time>2026-04-04T11:36:50.788Z</time></trkpt><trkpt lat="44.3187862" lon="11.4311242"><ele>548.0</ele><time>2026-04-04T11:36:51.788Z</time></trkpt><trkpt lat="44.318879" lon="11.4311778"><ele>548.0</ele><time>2026-04-04T11:36:52.789Z</time></trkpt><trkpt lat="44.3189818" lon="11.4312247"><ele>548.0</ele><time>2026-04-04T11:36:53.788Z</time></trkpt><trkpt lat="44.3190895" lon="11.4312805"><ele>548.0</ele><time>2026-04-04T11:36:54.788Z</time></trkpt><trkpt lat="44.3191973" lon="11.431345"><ele>548.0</ele><time>2026-04-04T11:36:55.788Z</time></trkpt><trkpt lat="44.3193015" lon="11.4314178"><ele>548.0</ele><time>2026-04-04T11:36:56.789Z</time></trkpt><trkpt lat="44.319403" lon="11.4314873"><ele>548.0</ele><time>2026-04-04T11:36:57.788Z</time></trkpt><trkpt lat="44.3195015" lon="11.4315437"><ele>548.0</ele><time>2026-04-04T11:36:58.787Z</time></trkpt><trkpt lat="44.319595" lon="11.4315885"><ele>548.0</ele><time>2026-04-04T11:36:59.786Z</time></trkpt><trkpt lat="44.3196818" lon="11.4316232"><ele>548.0</ele><time>2026-04-04T11:37:00.787Z</time></trkpt><trkpt lat="44.3197658" lon="11.4316522"><ele>548.0</ele><time>2026-04-04T11:37:01.79Z</time></trkpt><trkpt lat="44.3198435" lon="11.4316867"><ele>548.0</ele><time>2026-04-04T11:37:02.787Z</time></trkpt><trkpt lat="44.3199127" lon="11.4317402"><ele>548.0</ele><time>2026-04-04T11:37:03.787Z</time></trkpt><trkpt lat="44.319967" lon="11.4318218"><ele>548.1666666666666</ele><time>2026-04-04T11:37:04.789Z</time></trkpt><trkpt lat="44.319993" lon="11.4319245"><ele>548.3333333333333</ele><time>2026-04-04T11:37:05.775Z</time></trkpt><trkpt lat="44.3199968" lon="11.4320352"><ele>548.5</ele><time>2026-04-04T11:37:06.79Z</time></trkpt><trkpt lat="44.31999" lon="11.4321522"><ele>548.6666666666666</ele><time>2026-04-04T11:37:07.789Z</time></trkpt><trkpt lat="44.3199812" lon="11.4322715"><ele>548.8333333333334</ele><time>2026-04-04T11:37:08.788Z</time></trkpt><trkpt lat="44.3199793" lon="11.4323918"><ele>549.0</ele><time>2026-04-04T11:37:09.793Z</time></trkpt><trkpt lat="44.3199838" lon="11.4325123"><ele>547.3333333333334</ele><time>2026-04-04T11:37:10.787Z</time></trkpt><trkpt lat="44.319994" lon="11.4326273"><ele>545.6666666666666</ele><time>2026-04-04T11:37:11.785Z</time></trkpt><trkpt lat="44.3200073" lon="11.432737"><ele>544.0</ele><time>2026-04-04T11:37:12.786Z</time></trkpt><trkpt lat="44.3200208" lon="11.4328445"><ele>542.3333333333333</ele><time>2026-04-04T11:37:13.788Z</time></trkpt><trkpt lat="44.3200387" lon="11.4329635"><ele>540.6666666666666</ele><time>2026-04-04T11:37:14.79Z</time></trkpt><trkpt lat="44.3200658" lon="11.4330907"><ele>539.0</ele><time>2026-04-04T11:37:15.788Z</time></trkpt><trkpt lat="44.3201002" lon="11.4332252"><ele>537.5</ele><time>2026-04-04T11:37:16.789Z</time></trkpt><trkpt lat="44.3201385" lon="11.4333692"><ele>536.0</ele><time>2026-04-04T11:37:17.788Z</time></trkpt><trkpt lat="44.3201763" lon="11.4335198"><ele>534.5</ele><time>2026-04-04T11:37:18.789Z</time></trkpt><trkpt lat="44.3202082" lon="11.4336783"><ele>533.0</ele><time>2026-04-04T11:37:19.789Z</time></trkpt><trkpt lat="44.3202245" lon="11.4338437"><ele>532.25</ele><time>2026-04-04T11:37:20.788Z</time></trkpt><trkpt lat="44.320219" lon="11.4340135"><ele>531.5</ele><time>2026-04-04T11:37:21.79Z</time></trkpt><trkpt lat="44.3202018" lon="11.4341833"><ele>530.75</ele><time>2026-04-04T11:37:22.789Z</time></trkpt><trkpt lat="44.3201878" lon="11.4343488"><ele>530.0</ele><time>2026-04-04T11:37:23.789Z</time></trkpt><trkpt lat="44.3201817" lon="11.4345122"><ele>529.8</ele><time>2026-04-04T11:37:24.791Z</time></trkpt><trkpt lat="44.3201858" lon="11.4346743"><ele>529.6</ele><time>2026-04-04T11:37:25.788Z</time></trkpt><trkpt lat="44.320197" lon="11.4348338"><ele>529.4</ele><time>2026-04-04T11:37:26.789Z</time></trkpt><trkpt lat="44.3202105" lon="11.4349863"><ele>529.2</ele><time>2026-04-04T11:37:27.789Z</time></trkpt><trkpt lat="44.3202233" lon="11.435137"><ele>529.0</ele><time>2026-04-04T11:37:28.791Z</time></trkpt><trkpt lat="44.3202373" lon="11.4352877"><ele>529.0</ele><time>2026-04-04T11:37:29.788Z</time></trkpt><trkpt lat="44.3202563" lon="11.4354378"><ele>529.0</ele><time>2026-04-04T11:37:30.788Z</time></trkpt><trkpt lat="44.3202815" lon="11.4355805"><ele>529.0</ele><time>2026-04-04T11:37:31.791Z</time></trkpt><trkpt lat="44.3203095" lon="11.4357027"><ele>529.0</ele><time>2026-04-04T11:37:32.789Z</time></trkpt><trkpt lat="44.3203403" lon="11.435808"><ele>529.0</ele><time>2026-04-04T11:37:33.788Z</time></trkpt><trkpt lat="44.320374" lon="11.4358985"><ele>529.0</ele><time>2026-04-04T11:37:34.786Z</time></trkpt><trkpt lat="44.3204103" lon="11.435981"><ele>529.0</ele><time>2026-04-04T11:37:35.786Z</time></trkpt><trkpt lat="44.3204535" lon="11.4360632"><ele>529.0</ele><time>2026-04-04T11:37:36.786Z</time></trkpt><trkpt lat="44.3205058" lon="11.4361592"><ele>529.0</ele><time>2026-04-04T11:37:37.784Z</time></trkpt><trkpt lat="44.3205653" lon="11.4362685"><ele>529.0</ele><time>2026-04-04T11:37:38.787Z</time></trkpt><trkpt lat="44.320631" lon="11.4363903"><ele>529.0</ele><time>2026-04-04T11:37:39.787Z</time></trkpt><trkpt lat="44.3207015" lon="11.4365203"><ele>529.0</ele><time>2026-04-04T11:37:40.787Z</time></trkpt><trkpt lat="44.3207745" lon="11.4366588"><ele>529.0</ele><time>2026-04-04T11:37:41.788Z</time></trkpt><trkpt lat="44.3208403" lon="11.4368075"><ele>529.0</ele><time>2026-04-04T11:37:42.791Z</time></trkpt><trkpt lat="44.3208978" lon="11.4369513"><ele>529.0</ele><time>2026-04-04T11:37:43.789Z</time></trkpt><trkpt lat="44.3209488" lon="11.4370882"><ele>528.4</ele><time>2026-04-04T11:37:44.787Z</time></trkpt><trkpt lat="44.3209895" lon="11.4372225"><ele>527.8</ele><time>2026-04-04T11:37:45.788Z</time></trkpt><trkpt lat="44.3210183" lon="11.4373632"><ele>527.2</ele><time>2026-04-04T11:37:46.788Z</time></trkpt><trkpt lat="44.3210412" lon="11.4375082"><ele>526.6</ele><time>2026-04-04T11:37:47.788Z</time></trkpt><trkpt lat="44.321061" lon="11.437651"><ele>526.0</ele><time>2026-04-04T11:37:48.791Z</time></trkpt><trkpt lat="44.3210838" lon="11.437785"><ele>526.0</ele><time>2026-04-04T11:37:49.789Z</time></trkpt><trkpt lat="44.3211072" lon="11.4379145"><ele>526.0</ele><time>2026-04-04T11:37:50.789Z</time></trkpt><trkpt lat="44.3211303" lon="11.4380395"><ele>526.0</ele><time>2026-04-04T11:37:51.789Z</time></trkpt><trkpt lat="44.321154" lon="11.4381593"><ele>526.0</ele><time>2026-04-04T11:37:52.789Z</time></trkpt><trkpt lat="44.3211785" lon="11.438275"><ele>526.0</ele><time>2026-04-04T11:37:53.789Z</time></trkpt><trkpt lat="44.3212017" lon="11.4383842"><ele>526.0</ele><time>2026-04-04T11:37:54.791Z</time></trkpt><trkpt lat="44.321226" lon="11.4384843"><ele>525.3333333333334</ele><time>2026-04-04T11:37:55.788Z</time></trkpt><trkpt lat="44.3212505" lon="11.4385723"><ele>524.6666666666667</ele><time>2026-04-04T11:37:56.79Z</time></trkpt><trkpt lat="44.3212608" lon="11.4386927"><ele>524.0</ele><time>2026-04-04T11:37:58.789Z</time></trkpt><trkpt lat="44.3212395" lon="11.438795"><ele>523.3333333333334</ele><time>2026-04-04T11:38:00.786Z</time></trkpt><trkpt lat="44.3212257" lon="11.4389402"><ele>522.6666666666666</ele><time>2026-04-04T11:38:02.786Z</time></trkpt><trkpt lat="44.3212167" lon="11.4390288"><ele>522.0</ele><time>2026-04-04T11:38:03.789Z</time></trkpt><trkpt lat="44.3211957" lon="11.439128"><ele>521.0</ele><time>2026-04-04T11:38:04.788Z</time></trkpt><trkpt lat="44.3211737" lon="11.4392327"><ele>520.0</ele><time>2026-04-04T11:38:05.788Z</time></trkpt><trkpt lat="44.3211493" lon="11.439337"><ele>519.0</ele><time>2026-04-04T11:38:06.787Z</time></trkpt><trkpt lat="44.3211103" lon="11.4394312"><ele>518.0</ele><time>2026-04-04T11:38:07.79Z</time></trkpt><trkpt lat="44.3210555" lon="11.43952"><ele>517.0</ele><time>2026-04-04T11:38:08.788Z</time></trkpt><trkpt lat="44.3210022" lon="11.439603"><ele>516.0</ele><time>2026-04-04T11:38:09.79Z</time></trkpt><trkpt lat="44.3209415" lon="11.4396997"><ele>514.8333333333334</ele><time>2026-04-04T11:38:10.789Z</time></trkpt><trkpt lat="44.3208698" lon="11.4397822"><ele>513.6666666666666</ele><time>2026-04-04T11:38:11.789Z</time></trkpt><trkpt lat="44.3207995" lon="11.4398558"><ele>512.5</ele><time>2026-04-04T11:38:12.789Z</time></trkpt><trkpt lat="44.3207427" lon="11.4399393"><ele>511.3333333333333</ele><time>2026-04-04T11:38:13.789Z</time></trkpt><trkpt lat="44.3206875" lon="11.4400085"><ele>510.16666666666663</ele><time>2026-04-04T11:38:14.789Z</time></trkpt><trkpt lat="44.3206305" lon="11.4400492"><ele>509.0</ele><time>2026-04-04T11:38:15.794Z</time></trkpt><trkpt lat="44.3205282" lon="11.440143"><ele>505.0</ele><time>2026-04-04T11:38:17.788Z</time></trkpt><trkpt lat="44.3204448" lon="11.4402682"><ele>501.0</ele><time>2026-04-04T11:38:19.79Z</time></trkpt><trkpt lat="44.3204027" lon="11.4404372"><ele>497.0</ele><time>2026-04-04T11:38:21.789Z</time></trkpt><trkpt lat="44.3203877" lon="11.4405333"><ele>493.0</ele><time>2026-04-04T11:38:22.79Z</time></trkpt><trkpt lat="44.3203633" lon="11.4406265"><ele>489.0</ele><time>2026-04-04T11:38:23.788Z</time></trkpt><trkpt lat="44.320286" lon="11.4407635"><ele>488.6</ele><time>2026-04-04T11:38:25.787Z</time></trkpt><trkpt lat="44.3201923" lon="11.4408747"><ele>488.2</ele><time>2026-04-04T11:38:27.791Z</time></trkpt><trkpt lat="44.3200838" lon="11.4409458"><ele>487.80000000000007</ele><time>2026-04-04T11:38:29.79Z</time></trkpt><trkpt lat="44.3199948" lon="11.4410513"><ele>487.40000000000003</ele><time>2026-04-04T11:38:31.791Z</time></trkpt><trkpt lat="44.319966" lon="11.4411303"><ele>487.0</ele><time>2026-04-04T11:38:32.79Z</time></trkpt><trkpt lat="44.3199405" lon="11.441212"><ele>487.00000000000006</ele><time>2026-04-04T11:38:33.792Z</time></trkpt><trkpt lat="44.3199042" lon="11.4412912"><ele>487.0</ele><time>2026-04-04T11:38:34.789Z</time></trkpt><trkpt lat="44.3198667" lon="11.4413715"><ele>487.0</ele><time>2026-04-04T11:38:35.789Z</time></trkpt><trkpt lat="44.3198277" lon="11.4414523"><ele>487.0</ele><time>2026-04-04T11:38:36.789Z</time></trkpt><trkpt lat="44.3197925" lon="11.4415422"><ele>487.00000000000006</ele><time>2026-04-04T11:38:37.789Z</time></trkpt><trkpt lat="44.3197613" lon="11.441629"><ele>487.0</ele><time>2026-04-04T11:38:38.789Z</time></trkpt><trkpt lat="44.3196792" lon="11.4417417"><ele>482.6666666666667</ele><time>2026-04-04T11:38:40.79Z</time></trkpt><trkpt lat="44.3195662" lon="11.4418013"><ele>478.33333333333337</ele><time>2026-04-04T11:38:42.791Z</time></trkpt><trkpt lat="44.3195088" lon="11.4418377"><ele>474.0</ele><time>2026-04-04T11:38:43.791Z</time></trkpt><trkpt lat="44.3194573" lon="11.4418975"><ele>469.66666666666663</ele><time>2026-04-04T11:38:44.79Z</time></trkpt><trkpt lat="44.3194055" lon="11.4419592"><ele>465.3333333333333</ele><time>2026-04-04T11:38:45.792Z</time></trkpt><trkpt lat="44.3193503" lon="11.4420133"><ele>461.0</ele><time>2026-04-04T11:38:46.791Z</time></trkpt><trkpt lat="44.3192637" lon="11.4421493"><ele>460.99999999999994</ele><time>2026-04-04T11:38:48.788Z</time></trkpt><trkpt lat="44.3192353" lon="11.4422505"><ele>461.0</ele><time>2026-04-04T11:38:49.786Z</time></trkpt><trkpt lat="44.319214" lon="11.442366"><ele>461.0</ele><time>2026-04-04T11:38:50.787Z</time></trkpt><trkpt lat="44.3191905" lon="11.4424718"><ele>461.0</ele><time>2026-04-04T11:38:51.791Z</time></trkpt><trkpt lat="44.319151" lon="11.4425645"><ele>460.99999999999994</ele><time>2026-04-04T11:38:52.79Z</time></trkpt><trkpt lat="44.319092" lon="11.4426528"><ele>461.0</ele><time>2026-04-04T11:38:53.788Z</time></trkpt><trkpt lat="44.319036" lon="11.4427443"><ele>461.0</ele><time>2026-04-04T11:38:54.789Z</time></trkpt><trkpt lat="44.3189797" lon="11.4428102"><ele>461.00000000000006</ele><time>2026-04-04T11:38:55.791Z</time></trkpt><trkpt lat="44.3189137" lon="11.4428498"><ele>461.0</ele><time>2026-04-04T11:38:56.789Z</time></trkpt><trkpt lat="44.3188438" lon="11.4428672"><ele>461.0</ele><time>2026-04-04T11:38:57.789Z</time></trkpt><trkpt lat="44.3187767" lon="11.4428812"><ele>461.00000000000006</ele><time>2026-04-04T11:38:58.789Z</time></trkpt><trkpt lat="44.318708" lon="11.4429113"><ele>461.0</ele><time>2026-04-04T11:38:59.789Z</time></trkpt><trkpt lat="44.318634" lon="11.4429595"><ele>461.0</ele><time>2026-04-04T11:39:00.79Z</time></trkpt><trkpt lat="44.318563" lon="11.4430225"><ele>461.8333333333333</ele><time>2026-04-04T11:39:01.79Z</time></trkpt><trkpt lat="44.3185" lon="11.4430862"><ele>462.66666666666663</ele><time>2026-04-04T11:39:02.791Z</time></trkpt><trkpt lat="44.31843" lon="11.4431313"><ele>463.5</ele><time>2026-04-04T11:39:03.79Z</time></trkpt><trkpt lat="44.3183627" lon="11.443159"><ele>464.33333333333337</ele><time>2026-04-04T11:39:04.789Z</time></trkpt><trkpt lat="44.3182652" lon="11.443255"><ele>465.1666666666667</ele><time>2026-04-04T11:39:06.79Z</time></trkpt><trkpt lat="44.3182188" lon="11.4433427"><ele>466.0</ele><time>2026-04-04T11:39:07.789Z</time></trkpt><trkpt lat="44.318164" lon="11.4434503"><ele>466.0</ele><time>2026-04-04T11:39:08.79Z</time></trkpt><trkpt lat="44.3181002" lon="11.443562"><ele>466.0</ele><time>2026-04-04T11:39:09.79Z</time></trkpt><trkpt lat="44.3180302" lon="11.4436848"><ele>466.0</ele><time>2026-04-04T11:39:10.79Z</time></trkpt><trkpt lat="44.3179693" lon="11.4437915"><ele>466.0</ele><time>2026-04-04T11:39:11.789Z</time></trkpt><trkpt lat="44.3179177" lon="11.4438775"><ele>466.0</ele><time>2026-04-04T11:39:12.788Z</time></trkpt><trkpt lat="44.3178637" lon="11.4439323"><ele>465.4</ele><time>2026-04-04T11:39:13.788Z</time></trkpt><trkpt lat="44.3177507" lon="11.443982"><ele>464.8</ele><time>2026-04-04T11:39:15.788Z</time></trkpt><trkpt lat="44.3176465" lon="11.444048"><ele>464.19999999999993</ele><time>2026-04-04T11:39:17.79Z</time></trkpt><trkpt lat="44.3175307" lon="11.444107"><ele>463.59999999999997</ele><time>2026-04-04T11:39:19.795Z</time></trkpt><trkpt lat="44.3174648" lon="11.444103"><ele>463.0</ele><time>2026-04-04T11:39:20.791Z</time></trkpt><trkpt lat="44.3173912" lon="11.4440993"><ele>463.00000000000006</ele><time>2026-04-04T11:39:21.791Z</time></trkpt><trkpt lat="44.3173073" lon="11.4440987"><ele>463.0</ele><time>2026-04-04T11:39:22.79Z</time></trkpt><trkpt lat="44.3172243" lon="11.444095"><ele>463.0</ele><time>2026-04-04T11:39:23.79Z</time></trkpt><trkpt lat="44.3171427" lon="11.4440863"><ele>463.0</ele><time>2026-04-04T11:39:24.792Z</time></trkpt><trkpt lat="44.3170572" lon="11.4440823"><ele>463.00000000000006</ele><time>2026-04-04T11:39:25.791Z</time></trkpt><trkpt lat="44.3169712" lon="11.444096"><ele>463.0</ele><time>2026-04-04T11:39:26.79Z</time></trkpt><trkpt lat="44.3168882" lon="11.4441222"><ele>460.6666666666667</ele><time>2026-04-04T11:39:27.793Z</time></trkpt><trkpt lat="44.3168088" lon="11.4441618"><ele>458.33333333333337</ele><time>2026-04-04T11:39:28.79Z</time></trkpt><trkpt lat="44.3167433" lon="11.4442208"><ele>456.0</ele><time>2026-04-04T11:39:29.791Z</time></trkpt><trkpt lat="44.3166867" lon="11.4442838"><ele>453.66666666666663</ele><time>2026-04-04T11:39:30.79Z</time></trkpt><trkpt lat="44.3166245" lon="11.444331"><ele>451.3333333333333</ele><time>2026-04-04T11:39:31.79Z</time></trkpt><trkpt lat="44.3165567" lon="11.4443718"><ele>449.0</ele><time>2026-04-04T11:39:32.791Z</time></trkpt><trkpt lat="44.3164823" lon="11.4444207"><ele>446.2</ele><time>2026-04-04T11:39:33.793Z</time></trkpt><trkpt lat="44.3163993" lon="11.4444768"><ele>443.4</ele><time>2026-04-04T11:39:34.79Z</time></trkpt><trkpt lat="44.3163063" lon="11.4445318"><ele>440.6</ele><time>2026-04-04T11:39:35.791Z</time></trkpt><trkpt lat="44.3162175" lon="11.4445682"><ele>437.8</ele><time>2026-04-04T11:39:36.79Z</time></trkpt><trkpt lat="44.3161362" lon="11.4445957"><ele>435.0</ele><time>2026-04-04T11:39:37.788Z</time></trkpt><trkpt lat="44.3160567" lon="11.444629"><ele>435.5714285714286</ele><time>2026-04-04T11:39:38.787Z</time></trkpt><trkpt lat="44.3159813" lon="11.444664"><ele>436.14285714285717</ele><time>2026-04-04T11:39:39.787Z</time></trkpt><trkpt lat="44.31591" lon="11.4446928"><ele>436.7142857142857</ele><time>2026-04-04T11:39:40.788Z</time></trkpt><trkpt lat="44.3158418" lon="11.4447265"><ele>437.28571428571433</ele><time>2026-04-04T11:39:41.792Z</time></trkpt><trkpt lat="44.3157797" lon="11.4447697"><ele>437.85714285714283</ele><time>2026-04-04T11:39:42.79Z</time></trkpt><trkpt lat="44.315721" lon="11.4448277"><ele>438.42857142857144</ele><time>2026-04-04T11:39:43.791Z</time></trkpt><trkpt lat="44.3156537" lon="11.4448877"><ele>439.0</ele><time>2026-04-04T11:39:44.79Z</time></trkpt><trkpt lat="44.3155738" lon="11.4449432"><ele>437.6</ele><time>2026-04-04T11:39:45.79Z</time></trkpt><trkpt lat="44.3154845" lon="11.4449823"><ele>436.2</ele><time>2026-04-04T11:39:46.791Z</time></trkpt><trkpt lat="44.3153857" lon="11.4450058"><ele>434.80000000000007</ele><time>2026-04-04T11:39:47.789Z</time></trkpt><trkpt lat="44.3152957" lon="11.4450268"><ele>433.40000000000003</ele><time>2026-04-04T11:39:48.791Z</time></trkpt><trkpt lat="44.3152088" lon="11.4450605"><ele>432.0</ele><time>2026-04-04T11:39:49.791Z</time></trkpt><trkpt lat="44.3151243" lon="11.4450925"><ele>432.0</ele><time>2026-04-04T11:39:50.791Z</time></trkpt><trkpt lat="44.3150453" lon="11.4451143"><ele>432.0</ele><time>2026-04-04T11:39:51.791Z</time></trkpt><trkpt lat="44.3149695" lon="11.445128"><ele>432.0</ele><time>2026-04-04T11:39:52.79Z</time></trkpt><trkpt lat="44.314895" lon="11.4451415"><ele>432.0</ele><time>2026-04-04T11:39:53.792Z</time></trkpt><trkpt lat="44.3148215" lon="11.44517"><ele>432.0</ele><time>2026-04-04T11:39:54.791Z</time></trkpt><trkpt lat="44.31475" lon="11.4452232"><ele>432.0</ele><time>2026-04-04T11:39:55.789Z</time></trkpt><trkpt lat="44.3146778" lon="11.445289"><ele>429.6666666666667</ele><time>2026-04-04T11:39:56.792Z</time></trkpt><trkpt lat="44.3146042" lon="11.445357"><ele>427.33333333333337</ele><time>2026-04-04T11:39:57.79Z</time></trkpt><trkpt lat="44.3145262" lon="11.4454127"><ele>425.0</ele><time>2026-04-04T11:39:58.79Z</time></trkpt><trkpt lat="44.3144448" lon="11.4454477"><ele>422.6666666666667</ele><time>2026-04-04T11:39:59.789Z</time></trkpt><trkpt lat="44.3143612" lon="11.445476"><ele>420.33333333333337</ele><time>2026-04-04T11:40:00.79Z</time></trkpt><trkpt lat="44.3142822" lon="11.4455138"><ele>418.0</ele><time>2026-04-04T11:40:01.789Z</time></trkpt><trkpt lat="44.3142057" lon="11.445568"><ele>417.83333333333337</ele><time>2026-04-04T11:40:02.787Z</time></trkpt><trkpt lat="44.3141287" lon="11.4456238"><ele>417.6666666666667</ele><time>2026-04-04T11:40:03.788Z</time></trkpt><trkpt lat="44.3140492" lon="11.4456692"><ele>417.5</ele><time>2026-04-04T11:40:04.787Z</time></trkpt><trkpt lat="44.3139645" lon="11.4457075"><ele>417.33333333333337</ele><time>2026-04-04T11:40:05.789Z</time></trkpt><trkpt lat="44.313876" lon="11.4457467"><ele>417.1666666666667</ele><time>2026-04-04T11:40:06.792Z</time></trkpt><trkpt lat="44.3137905" lon="11.4457983"><ele>417.0</ele><time>2026-04-04T11:40:07.791Z</time></trkpt><trkpt lat="44.313711" lon="11.4458622"><ele>413.40000000000003</ele><time>2026-04-04T11:40:08.789Z</time></trkpt><trkpt lat="44.3136297" lon="11.4459225"><ele>409.8</ele><time>2026-04-04T11:40:09.79Z</time></trkpt><trkpt lat="44.3135465" lon="11.445981"><ele>406.2</ele><time>2026-04-04T11:40:10.791Z</time></trkpt><trkpt lat="44.3134692" lon="11.4460527"><ele>402.6</ele><time>2026-04-04T11:40:11.79Z</time></trkpt><trkpt lat="44.3134007" lon="11.4461318"><ele>399.0</ele><time>2026-04-04T11:40:12.791Z</time></trkpt><trkpt lat="44.3133458" lon="11.4462237"><ele>399.0</ele><time>2026-04-04T11:40:13.789Z</time></trkpt><trkpt lat="44.3133017" lon="11.4463202"><ele>399.0</ele><time>2026-04-04T11:40:14.79Z</time></trkpt><trkpt lat="44.3132642" lon="11.4464228"><ele>399.0</ele><time>2026-04-04T11:40:15.79Z</time></trkpt><trkpt lat="44.3132282" lon="11.4465285"><ele>399.0</ele><time>2026-04-04T11:40:16.79Z</time></trkpt><trkpt lat="44.313196" lon="11.446635"><ele>399.0</ele><time>2026-04-04T11:40:17.79Z</time></trkpt><trkpt lat="44.3131688" lon="11.4467485"><ele>399.0</ele><time>2026-04-04T11:40:18.79Z</time></trkpt><trkpt lat="44.313139" lon="11.4468573"><ele>399.0</ele><time>2026-04-04T11:40:19.79Z</time></trkpt><trkpt lat="44.3131063" lon="11.4469643"><ele>399.0</ele><time>2026-04-04T11:40:20.79Z</time></trkpt><trkpt lat="44.313084" lon="11.4470723"><ele>399.0</ele><time>2026-04-04T11:40:21.79Z</time></trkpt><trkpt lat="44.3130722" lon="11.4471812"><ele>399.0</ele><time>2026-04-04T11:40:22.79Z</time></trkpt><trkpt lat="44.3130535" lon="11.4472795"><ele>399.0</ele><time>2026-04-04T11:40:23.789Z</time></trkpt><trkpt lat="44.3130288" lon="11.4473665"><ele>399.0</ele><time>2026-04-04T11:40:24.79Z</time></trkpt><trkpt lat="44.3129412" lon="11.4474595"><ele>395.6666666666667</ele><time>2026-04-04T11:40:26.788Z</time></trkpt><trkpt lat="44.3128752" lon="11.4475028"><ele>392.3333333333333</ele><time>2026-04-04T11:40:27.79Z</time></trkpt><trkpt lat="44.3128043" lon="11.4475593"><ele>389.0</ele><time>2026-04-04T11:40:28.789Z</time></trkpt><trkpt lat="44.3127367" lon="11.447629"><ele>385.66666666666663</ele><time>2026-04-04T11:40:29.788Z</time></trkpt><trkpt lat="44.3126718" lon="11.4477077"><ele>382.3333333333333</ele><time>2026-04-04T11:40:30.79Z</time></trkpt><trkpt lat="44.3126105" lon="11.4477815"><ele>379.0</ele><time>2026-04-04T11:40:31.79Z</time></trkpt><trkpt lat="44.3125565" lon="11.4478618"><ele>379.0</ele><time>2026-04-04T11:40:32.788Z</time></trkpt><trkpt lat="44.3125082" lon="11.4479492"><ele>379.0</ele><time>2026-04-04T11:40:33.79Z</time></trkpt><trkpt lat="44.3124565" lon="11.4480327"><ele>379.0</ele><time>2026-04-04T11:40:34.789Z</time></trkpt><trkpt lat="44.3123973" lon="11.4481108"><ele>379.0</ele><time>2026-04-04T11:40:35.79Z</time></trkpt><trkpt lat="44.3123345" lon="11.4481912"><ele>379.0</ele><time>2026-04-04T11:40:36.789Z</time></trkpt><trkpt lat="44.3122747" lon="11.448276"><ele>379.0</ele><time>2026-04-04T11:40:37.789Z</time></trkpt><trkpt lat="44.3122113" lon="11.4483563"><ele>376.16666666666663</ele><time>2026-04-04T11:40:38.79Z</time></trkpt><trkpt lat="44.3121418" lon="11.4484192"><ele>373.3333333333333</ele><time>2026-04-04T11:40:39.79Z</time></trkpt><trkpt lat="44.3120667" lon="11.4484592"><ele>370.5</ele><time>2026-04-04T11:40:40.79Z</time></trkpt><trkpt lat="44.3119962" lon="11.4485035"><ele>367.6666666666667</ele><time>2026-04-04T11:40:41.789Z</time></trkpt><trkpt lat="44.31194" lon="11.4485665"><ele>364.83333333333337</ele><time>2026-04-04T11:40:42.79Z</time></trkpt><trkpt lat="44.3119" lon="11.4486418"><ele>362.0</ele><time>2026-04-04T11:40:43.789Z</time></trkpt><trkpt lat="44.311864" lon="11.4487428"><ele>362.40000000000003</ele><time>2026-04-04T11:40:44.79Z</time></trkpt><trkpt lat="44.3118317" lon="11.4488527"><ele>362.8</ele><time>2026-04-04T11:40:45.789Z</time></trkpt><trkpt lat="44.3117968" lon="11.4489658"><ele>363.2</ele><time>2026-04-04T11:40:46.789Z</time></trkpt><trkpt lat="44.311749" lon="11.4490817"><ele>363.6</ele><time>2026-04-04T11:40:47.789Z</time></trkpt><trkpt lat="44.3116912" lon="11.4492077"><ele>364.0</ele><time>2026-04-04T11:40:48.789Z</time></trkpt><trkpt lat="44.311628" lon="11.4493445"><ele>364.0</ele><time>2026-04-04T11:40:49.79Z</time></trkpt><trkpt lat="44.3115667" lon="11.4494762"><ele>364.0</ele><time>2026-04-04T11:40:50.786Z</time></trkpt><trkpt lat="44.3115042" lon="11.4496048"><ele>364.0</ele><time>2026-04-04T11:40:51.788Z</time></trkpt><trkpt lat="44.3114453" lon="11.449715"><ele>364.0</ele><time>2026-04-04T11:40:52.788Z</time></trkpt><trkpt lat="44.3113892" lon="11.44981"><ele>364.0</ele><time>2026-04-04T11:40:53.787Z</time></trkpt><trkpt lat="44.3113352" lon="11.4498908"><ele>363.5</ele><time>2026-04-04T11:40:54.789Z</time></trkpt><trkpt lat="44.311287" lon="11.4499663"><ele>363.0</ele><time>2026-04-04T11:40:55.79Z</time></trkpt><trkpt lat="44.3112498" lon="11.4500395"><ele>362.5</ele><time>2026-04-04T11:40:56.789Z</time></trkpt><trkpt lat="44.3112143" lon="11.4501502"><ele>362.0</ele><time>2026-04-04T11:40:58.791Z</time></trkpt><trkpt lat="44.3112453" lon="11.4502687"><ele>361.5</ele><time>2026-04-04T11:50:13.788Z</time></trkpt><trkpt lat="44.3113295" lon="11.4503462"><ele>361.0</ele><time>2026-04-04T11:50:15.786Z</time></trkpt><trkpt lat="44.3114147" lon="11.4504025"><ele>361.0</ele><time>2026-04-04T11:50:17.787Z</time></trkpt><trkpt lat="44.3115122" lon="11.4504458"><ele>361.0</ele><time>2026-04-04T11:50:19.789Z</time></trkpt><trkpt lat="44.3116048" lon="11.4504368"><ele>361.0</ele><time>2026-04-04T11:50:21.789Z</time></trkpt><trkpt lat="44.3116823" lon="11.4503995"><ele>361.0</ele><time>2026-04-04T11:50:23.789Z</time></trkpt><trkpt lat="44.3117663" lon="11.4503497"><ele>361.0</ele><time>2026-04-04T11:50:25.791Z</time></trkpt><trkpt lat="44.311855" lon="11.4502985"><ele>361.0</ele><time>2026-04-04T11:50:27.789Z</time></trkpt><trkpt lat="44.3119575" lon="11.4502652"><ele>361.0</ele><time>2026-04-04T11:50:29.787Z</time></trkpt><trkpt lat="44.312071" lon="11.4502508"><ele>361.0</ele><time>2026-04-04T11:50:31.789Z</time></trkpt><trkpt lat="44.3121802" lon="11.4502257"><ele>361.0</ele><time>2026-04-04T11:50:33.789Z</time></trkpt><trkpt lat="44.3122882" lon="11.450179"><ele>361.0</ele><time>2026-04-04T11:50:35.789Z</time></trkpt><trkpt lat="44.3123832" lon="11.450161"><ele>358.5</ele><time>2026-04-04T11:50:37.788Z</time></trkpt><trkpt lat="44.3124718" lon="11.45014"><ele>356.0</ele><time>2026-04-04T11:50:39.786Z</time></trkpt><trkpt lat="44.3125668" lon="11.4501068"><ele>353.5</ele><time>2026-04-04T11:50:41.787Z</time></trkpt><trkpt lat="44.3126515" lon="11.4500703"><ele>351.0</ele><time>2026-04-04T11:50:43.789Z</time></trkpt><trkpt lat="44.3127245" lon="11.4500292"><ele>348.5</ele><time>2026-04-04T11:50:45.789Z</time></trkpt><trkpt lat="44.3127993" lon="11.4500345"><ele>346.0</ele><time>2026-04-04T11:50:47.789Z</time></trkpt><trkpt lat="44.312875" lon="11.4500812"><ele>346.0</ele><time>2026-04-04T11:50:49.791Z</time></trkpt><trkpt lat="44.3129537" lon="11.4501022"><ele>346.0</ele><time>2026-04-04T11:50:51.789Z</time></trkpt><trkpt lat="44.313039" lon="11.4501143"><ele>346.0</ele><time>2026-04-04T11:50:53.789Z</time></trkpt><trkpt lat="44.3131302" lon="11.450138"><ele>346.0</ele><time>2026-04-04T11:50:55.789Z</time></trkpt><trkpt lat="44.313226" lon="11.4501693"><ele>346.0</ele><time>2026-04-04T11:50:57.79Z</time></trkpt><trkpt lat="44.3132918" lon="11.450185"><ele>346.0</ele><time>2026-04-04T11:51:02.788Z</time></trkpt><trkpt lat="44.31337" lon="11.4501968"><ele>343.3333333333333</ele><time>2026-04-04T11:51:05.784Z</time></trkpt><trkpt lat="44.3134512" lon="11.4501857"><ele>340.66666666666663</ele><time>2026-04-04T11:51:07.789Z</time></trkpt><trkpt lat="44.313542" lon="11.4501723"><ele>338.0</ele><time>2026-04-04T11:51:09.79Z</time></trkpt><trkpt lat="44.3136237" lon="11.4501782"><ele>335.3333333333333</ele><time>2026-04-04T11:51:11.788Z</time></trkpt><trkpt lat="44.3136892" lon="11.4501773"><ele>332.6666666666667</ele><time>2026-04-04T11:51:13.788Z</time></trkpt><trkpt lat="44.3137573" lon="11.450189"><ele>330.0</ele><time>2026-04-04T11:51:15.789Z</time></trkpt><trkpt lat="44.3138405" lon="11.450231"><ele>328.6666666666667</ele><time>2026-04-04T11:51:17.788Z</time></trkpt><trkpt lat="44.3139288" lon="11.4502527"><ele>327.3333333333333</ele><time>2026-04-04T11:51:19.787Z</time></trkpt><trkpt lat="44.3140162" lon="11.4502762"><ele>326.0</ele><time>2026-04-04T11:51:21.788Z</time></trkpt><trkpt lat="44.3140718" lon="11.4503328"><ele>324.66666666666663</ele><time>2026-04-04T11:51:23.788Z</time></trkpt><trkpt lat="44.3140842" lon="11.4504288"><ele>323.3333333333333</ele><time>2026-04-04T11:51:25.789Z</time></trkpt><trkpt lat="44.3140687" lon="11.4505492"><ele>322.0</ele><time>2026-04-04T11:51:27.786Z</time></trkpt><trkpt lat="44.3140453" lon="11.4506715"><ele>320.3333333333333</ele><time>2026-04-04T11:51:29.787Z</time></trkpt><trkpt lat="44.3140182" lon="11.4507753"><ele>318.66666666666663</ele><time>2026-04-04T11:51:31.787Z</time></trkpt><trkpt lat="44.3139827" lon="11.4508708"><ele>317.0</ele><time>2026-04-04T11:51:33.788Z</time></trkpt><trkpt lat="44.313942" lon="11.4509685"><ele>315.3333333333333</ele><time>2026-04-04T11:51:35.788Z</time></trkpt><trkpt lat="44.313902" lon="11.4510825"><ele>313.6666666666667</ele><time>2026-04-04T11:51:37.79Z</time></trkpt><trkpt lat="44.313855" lon="11.4511662"><ele>312.0</ele><time>2026-04-04T11:51:39.789Z</time></trkpt><trkpt lat="44.3137723" lon="11.4512005"><ele>312.0</ele><time>2026-04-04T11:51:41.789Z</time></trkpt><trkpt lat="44.3136827" lon="11.4512735"><ele>312.0</ele><time>2026-04-04T11:51:43.788Z</time></trkpt><trkpt lat="44.3136253" lon="11.4513805"><ele>312.0</ele><time>2026-04-04T11:51:45.79Z</time></trkpt><trkpt lat="44.3136017" lon="11.4514917"><ele>312.0</ele><time>2026-04-04T11:51:47.787Z</time></trkpt><trkpt lat="44.3135903" lon="11.4516133"><ele>312.0</ele><time>2026-04-04T11:51:49.789Z</time></trkpt><trkpt lat="44.3135847" lon="11.4517402"><ele>308.2</ele><time>2026-04-04T11:51:51.787Z</time></trkpt><trkpt lat="44.3135828" lon="11.4518693"><ele>304.4</ele><time>2026-04-04T11:51:53.786Z</time></trkpt><trkpt lat="44.3135883" lon="11.4519978"><ele>300.6</ele><time>2026-04-04T11:51:55.788Z</time></trkpt><trkpt lat="44.3135888" lon="11.4521435"><ele>296.8</ele><time>2026-04-04T11:51:57.788Z</time></trkpt><trkpt lat="44.3135818" lon="11.4522887"><ele>293.0</ele><time>2026-04-04T11:51:59.789Z</time></trkpt><trkpt lat="44.3135667" lon="11.4524163"><ele>290.6666666666667</ele><time>2026-04-04T11:52:01.787Z</time></trkpt><trkpt lat="44.3135453" lon="11.452529"><ele>288.33333333333337</ele><time>2026-04-04T11:52:03.788Z</time></trkpt><trkpt lat="44.313524" lon="11.4526308"><ele>286.0</ele><time>2026-04-04T11:52:05.792Z</time></trkpt><trkpt lat="44.3135022" lon="11.4527465"><ele>283.6666666666667</ele><time>2026-04-04T11:52:07.789Z</time></trkpt><trkpt lat="44.313478" lon="11.452873"><ele>281.3333333333333</ele><time>2026-04-04T11:52:10.788Z</time></trkpt><trkpt lat="44.3134508" lon="11.4529527"><ele>279.0</ele><time>2026-04-04T11:52:13.789Z</time></trkpt><trkpt lat="44.3134357" lon="11.4530418"><ele>277.0</ele><time>2026-04-04T11:52:44.788Z</time></trkpt><trkpt lat="44.3134025" lon="11.4531412"><ele>275.0</ele><time>2026-04-04T11:52:56.789Z</time></trkpt><trkpt lat="44.313396" lon="11.453234"><ele>273.0</ele><time>2026-04-04T11:52:58.789Z</time></trkpt><trkpt lat="44.313383" lon="11.4533447"><ele>271.0</ele><time>2026-04-04T11:53:00.791Z</time></trkpt><trkpt lat="44.3133708" lon="11.4534552"><ele>269.0</ele><time>2026-04-04T11:53:02.789Z</time></trkpt><trkpt lat="44.3133668" lon="11.4535578"><ele>267.0</ele><time>2026-04-04T11:53:04.79Z</time></trkpt><trkpt lat="44.3133632" lon="11.4536783"><ele>264.6</ele><time>2026-04-04T11:53:06.787Z</time></trkpt><trkpt lat="44.3133538" lon="11.4538182"><ele>262.2</ele><time>2026-04-04T11:53:08.787Z</time></trkpt><trkpt lat="44.313347" lon="11.4539563"><ele>259.8</ele><time>2026-04-04T11:53:10.791Z</time></trkpt><trkpt lat="44.3133328" lon="11.4540908"><ele>257.4</ele><time>2026-04-04T11:53:12.791Z</time></trkpt><trkpt lat="44.3133167" lon="11.4542128"><ele>255.0</ele><time>2026-04-04T11:53:32.787Z</time></trkpt><trkpt lat="44.3132998" lon="11.454335"><ele>255.0</ele><time>2026-04-04T11:53:34.79Z</time></trkpt><trkpt lat="44.313275" lon="11.4544682"><ele>255.0</ele><time>2026-04-04T11:53:36.789Z</time></trkpt><trkpt lat="44.3132445" lon="11.4546228"><ele>255.0</ele><time>2026-04-04T11:53:38.792Z</time></trkpt><trkpt lat="44.3132283" lon="11.454713"><ele>255.0</ele><time>2026-04-04T11:53:39.787Z</time></trkpt><trkpt lat="44.3132162" lon="11.4548112"><ele>255.0</ele><time>2026-04-04T11:53:40.791Z</time></trkpt><trkpt lat="44.3132098" lon="11.4549077"><ele>255.0</ele><time>2026-04-04T11:53:41.789Z</time></trkpt><trkpt lat="44.3132147" lon="11.454997"><ele>252.4</ele><time>2026-04-04T11:53:42.79Z</time></trkpt><trkpt lat="44.31325" lon="11.4551293"><ele>249.8</ele><time>2026-04-04T11:53:44.788Z</time></trkpt><trkpt lat="44.3132748" lon="11.4552142"><ele>247.2</ele><time>2026-04-04T11:54:02.79Z</time></trkpt><trkpt lat="44.3132493" lon="11.4553378"><ele>244.6</ele><time>2026-04-04T11:55:45.794Z</time></trkpt><trkpt lat="44.313183" lon="11.4554825"><ele>242.0</ele><time>2026-04-04T11:55:47.79Z</time></trkpt><trkpt lat="44.3131417" lon="11.455563"><ele>241.57142857142856</ele><time>2026-04-04T11:55:48.792Z</time></trkpt><trkpt lat="44.3130997" lon="11.4556397"><ele>241.1428571428571</ele><time>2026-04-04T11:55:49.792Z</time></trkpt><trkpt lat="44.3130625" lon="11.4557208"><ele>240.71428571428572</ele><time>2026-04-04T11:55:50.79Z</time></trkpt><trkpt lat="44.3130352" lon="11.4558128"><ele>240.28571428571428</ele><time>2026-04-04T11:55:51.791Z</time></trkpt><trkpt lat="44.3130105" lon="11.4559108"><ele>239.85714285714286</ele><time>2026-04-04T11:55:52.79Z</time></trkpt><trkpt lat="44.3129903" lon="11.4559997"><ele>239.42857142857144</ele><time>2026-04-04T11:55:53.79Z</time></trkpt><trkpt lat="44.3129677" lon="11.4560875"><ele>239.00000000000003</ele><time>2026-04-04T11:55:54.79Z</time></trkpt><trkpt lat="44.312943" lon="11.456174"><ele>239.00000000000003</ele><time>2026-04-04T11:55:55.792Z</time></trkpt><trkpt lat="44.3129212" lon="11.456262"><ele>239.0</ele><time>2026-04-04T11:55:56.79Z</time></trkpt><trkpt lat="44.3129" lon="11.4563597"><ele>239.00000000000003</ele><time>2026-04-04T11:55:57.789Z</time></trkpt><trkpt lat="44.3128798" lon="11.456462"><ele>239.00000000000003</ele><time>2026-04-04T11:55:58.787Z</time></trkpt><trkpt lat="44.312872" lon="11.4565663"><ele>239.0</ele><time>2026-04-04T11:55:59.787Z</time></trkpt><trkpt lat="44.3128672" lon="11.4566765"><ele>239.00000000000003</ele><time>2026-04-04T11:56:00.793Z</time></trkpt><trkpt lat="44.312858" lon="11.4567822"><ele>239.00000000000003</ele><time>2026-04-04T11:56:01.791Z</time></trkpt><trkpt lat="44.3128497" lon="11.4568852"><ele>236.8571428571429</ele><time>2026-04-04T11:56:02.79Z</time></trkpt><trkpt lat="44.312841" lon="11.4569837"><ele>234.71428571428572</ele><time>2026-04-04T11:56:03.791Z</time></trkpt><trkpt lat="44.3128267" lon="11.4570765"><ele>232.57142857142858</ele><time>2026-04-04T11:56:04.792Z</time></trkpt><trkpt lat="44.3128072" lon="11.4571645"><ele>230.42857142857144</ele><time>2026-04-04T11:56:05.789Z</time></trkpt><trkpt lat="44.3127763" lon="11.457249"><ele>228.28571428571428</ele><time>2026-04-04T11:56:06.789Z</time></trkpt><trkpt lat="44.3127397" lon="11.4573328"><ele>226.14285714285714</ele><time>2026-04-04T11:56:07.791Z</time></trkpt><trkpt lat="44.3126898" lon="11.4574105"><ele>224.0</ele><time>2026-04-04T11:56:08.789Z</time></trkpt><trkpt lat="44.3126337" lon="11.4574777"><ele>222.00000000000003</ele><time>2026-04-04T11:56:09.793Z</time></trkpt><trkpt lat="44.3125712" lon="11.4575307"><ele>220.0</ele><time>2026-04-04T11:56:10.792Z</time></trkpt><trkpt lat="44.312498" lon="11.4575707"><ele>218.0</ele><time>2026-04-04T11:56:11.791Z</time></trkpt><trkpt lat="44.3124127" lon="11.457608"><ele>216.0</ele><time>2026-04-04T11:56:12.79Z</time></trkpt><trkpt lat="44.3123248" lon="11.4576568"><ele>214.00000000000003</ele><time>2026-04-04T11:56:13.791Z</time></trkpt><trkpt lat="44.3122308" lon="11.4577113"><ele>212.0</ele><time>2026-04-04T11:56:14.79Z</time></trkpt><trkpt lat="44.3121328" lon="11.457766"><ele>211.83333333333334</ele><time>2026-04-04T11:56:15.792Z</time></trkpt><trkpt lat="44.3120438" lon="11.4578157"><ele>211.66666666666669</ele><time>2026-04-04T11:56:16.79Z</time></trkpt><trkpt lat="44.3119618" lon="11.4578532"><ele>211.5</ele><time>2026-04-04T11:56:17.788Z</time></trkpt><trkpt lat="44.311885" lon="11.4578898"><ele>211.33333333333331</ele><time>2026-04-04T11:56:18.791Z</time></trkpt><trkpt lat="44.3118127" lon="11.4579273"><ele>211.16666666666666</ele><time>2026-04-04T11:56:19.793Z</time></trkpt><trkpt lat="44.3117445" lon="11.4579632"><ele>211.0</ele><time>2026-04-04T11:56:20.79Z</time></trkpt><trkpt lat="44.311677" lon="11.4579895"><ele>208.8</ele><time>2026-04-04T11:56:21.787Z</time></trkpt><trkpt lat="44.3116118" lon="11.4580067"><ele>206.60000000000002</ele><time>2026-04-04T11:56:22.788Z</time></trkpt><trkpt lat="44.3115043" lon="11.4580378"><ele>204.4</ele><time>2026-04-04T11:56:24.788Z</time></trkpt><trkpt lat="44.3113978" lon="11.4580812"><ele>202.2</ele><time>2026-04-04T11:56:26.789Z</time></trkpt><trkpt lat="44.3112762" lon="11.458096"><ele>200.0</ele><time>2026-04-04T11:56:28.793Z</time></trkpt><trkpt lat="44.3111998" lon="11.4581203"><ele>199.00000000000003</ele><time>2026-04-04T11:56:30.792Z</time></trkpt><trkpt lat="44.3112798" lon="11.4581515"><ele>198.0</ele><time>2026-04-04T11:56:34.791Z</time></trkpt><trkpt lat="44.3112545" lon="11.4580698"><ele>197.0</ele><time>2026-04-04T11:56:39.794Z</time></trkpt><trkpt lat="44.3111288" lon="11.4580548"><ele>196.0</ele><time>2026-04-04T11:56:41.789Z</time></trkpt><trkpt lat="44.3110538" lon="11.4580455"><ele>195.00000000000003</ele><time>2026-04-04T11:56:42.79Z</time></trkpt><trkpt lat="44.3109833" lon="11.4580318"><ele>194.0</ele><time>2026-04-04T11:56:43.79Z</time></trkpt><trkpt lat="44.3109122" lon="11.4580165"><ele>194.00000000000003</ele><time>2026-04-04T11:56:44.79Z</time></trkpt><trkpt lat="44.3108355" lon="11.4579992"><ele>194.0</ele><time>2026-04-04T11:56:45.791Z</time></trkpt><trkpt lat="44.3107558" lon="11.4579812"><ele>194.0</ele><time>2026-04-04T11:56:46.792Z</time></trkpt><trkpt lat="44.3106778" lon="11.4579773"><ele>194.0</ele><time>2026-04-04T11:56:47.789Z</time></trkpt><trkpt lat="44.3105985" lon="11.4579983"><ele>194.00000000000003</ele><time>2026-04-04T11:56:48.789Z</time></trkpt><trkpt lat="44.3105222" lon="11.4580407"><ele>194.0</ele><time>2026-04-04T11:56:49.789Z</time></trkpt><trkpt lat="44.3104593" lon="11.4580907"><ele>193.6</ele><time>2026-04-04T11:56:50.79Z</time></trkpt><trkpt lat="44.310405" lon="11.4581423"><ele>193.2</ele><time>2026-04-04T11:56:51.791Z</time></trkpt><trkpt lat="44.3103027" lon="11.4581652"><ele>192.79999999999998</ele><time>2026-04-04T11:56:53.791Z</time></trkpt><trkpt lat="44.3101987" lon="11.4581435"><ele>192.39999999999998</ele><time>2026-04-04T11:56:55.791Z</time></trkpt><trkpt lat="44.3100963" lon="11.4581848"><ele>192.0</ele><time>2026-04-04T11:56:57.791Z</time></trkpt><trkpt lat="44.3100388" lon="11.4582653"><ele>192.0</ele><time>2026-04-04T11:56:59.788Z</time></trkpt><trkpt lat="44.3100302" lon="11.458394"><ele>192.0</ele><time>2026-04-04T11:57:01.79Z</time></trkpt><trkpt lat="44.3101038" lon="11.4585438"><ele>192.0</ele><time>2026-04-04T11:57:03.79Z</time></trkpt><trkpt lat="44.3101568" lon="11.4586235"><ele>192.0</ele><time>2026-04-04T11:57:04.793Z</time></trkpt><trkpt lat="44.3102137" lon="11.4587138"><ele>192.0</ele><time>2026-04-04T11:57:05.791Z</time></trkpt><trkpt lat="44.3102722" lon="11.4588102"><ele>191.83333333333334</ele><time>2026-04-04T11:57:06.797Z</time></trkpt><trkpt lat="44.3103312" lon="11.4589138"><ele>191.66666666666666</ele><time>2026-04-04T11:57:07.79Z</time></trkpt><trkpt lat="44.3103912" lon="11.4590198"><ele>191.5</ele><time>2026-04-04T11:57:08.79Z</time></trkpt><trkpt lat="44.3104453" lon="11.4591168"><ele>191.33333333333331</ele><time>2026-04-04T11:57:09.792Z</time></trkpt><trkpt lat="44.3104972" lon="11.4592105"><ele>191.16666666666666</ele><time>2026-04-04T11:57:10.79Z</time></trkpt><trkpt lat="44.3105415" lon="11.4592937"><ele>191.0</ele><time>2026-04-04T11:57:11.789Z</time></trkpt><trkpt lat="44.3105732" lon="11.4593708"><ele>191.0</ele><time>2026-04-04T11:57:12.788Z</time></trkpt><trkpt lat="44.3105528" lon="11.4595072"><ele>191.0</ele><time>2026-04-04T11:57:14.79Z</time></trkpt><trkpt lat="44.3104985" lon="11.4595768"><ele>191.0</ele><time>2026-04-04T11:57:15.791Z</time></trkpt><trkpt lat="44.3104282" lon="11.459665"><ele>191.0</ele><time>2026-04-04T11:57:16.792Z</time></trkpt><trkpt lat="44.3103487" lon="11.4597765"><ele>191.0</ele><time>2026-04-04T11:57:17.791Z</time></trkpt><trkpt lat="44.3102598" lon="11.4599032"><ele>191.25</ele><time>2026-04-04T11:57:18.79Z</time></trkpt><trkpt lat="44.3101648" lon="11.4600397"><ele>191.5</ele><time>2026-04-04T11:57:19.788Z</time></trkpt><trkpt lat="44.310081" lon="11.4601728"><ele>191.75</ele><time>2026-04-04T11:57:20.79Z</time></trkpt><trkpt lat="44.310009" lon="11.4603042"><ele>192.0</ele><time>2026-04-04T11:57:21.789Z</time></trkpt><trkpt lat="44.3099503" lon="11.4604342"><ele>191.6</ele><time>2026-04-04T11:57:22.788Z</time></trkpt><trkpt lat="44.3099083" lon="11.4605705"><ele>191.2</ele><time>2026-04-04T11:57:23.79Z</time></trkpt><trkpt lat="44.3098745" lon="11.460717"><ele>190.8</ele><time>2026-04-04T11:57:24.79Z</time></trkpt><trkpt lat="44.3098427" lon="11.4608657"><ele>190.4</ele><time>2026-04-04T11:57:25.793Z</time></trkpt><trkpt lat="44.3098115" lon="11.4610057"><ele>190.0</ele><time>2026-04-04T11:57:26.789Z</time></trkpt><trkpt lat="44.3097738" lon="11.461136"><ele>190.25</ele><time>2026-04-04T11:57:27.79Z</time></trkpt><trkpt lat="44.3097195" lon="11.4612647"><ele>190.5</ele><time>2026-04-04T11:57:28.79Z</time></trkpt><trkpt lat="44.3096498" lon="11.4613953"><ele>190.75</ele><time>2026-04-04T11:57:29.789Z</time></trkpt><trkpt lat="44.3095712" lon="11.4615243"><ele>191.0</ele><time>2026-04-04T11:57:30.791Z</time></trkpt><trkpt lat="44.3094872" lon="11.4616558"><ele>190.25</ele><time>2026-04-04T11:57:31.79Z</time></trkpt><trkpt lat="44.3094033" lon="11.4617927"><ele>189.5</ele><time>2026-04-04T11:57:32.789Z</time></trkpt><trkpt lat="44.3093257" lon="11.4619295"><ele>188.75</ele><time>2026-04-04T11:57:33.791Z</time></trkpt><trkpt lat="44.3092528" lon="11.4620562"><ele>188.0</ele><time>2026-04-04T11:57:34.789Z</time></trkpt><trkpt lat="44.3091827" lon="11.462173"><ele>187.33333333333331</ele><time>2026-04-04T11:57:35.787Z</time></trkpt><trkpt lat="44.309115" lon="11.4622778"><ele>186.66666666666666</ele><time>2026-04-04T11:57:36.79Z</time></trkpt><trkpt lat="44.3090507" lon="11.4623735"><ele>186.0</ele><time>2026-04-04T11:57:37.791Z</time></trkpt><trkpt lat="44.308991" lon="11.4624617"><ele>185.33333333333334</ele><time>2026-04-04T11:57:38.789Z</time></trkpt><trkpt lat="44.3089348" lon="11.4625403"><ele>184.66666666666669</ele><time>2026-04-04T11:57:39.792Z</time></trkpt><trkpt lat="44.308877" lon="11.4625952"><ele>184.0</ele><time>2026-04-04T11:57:40.79Z</time></trkpt><trkpt lat="44.3087645" lon="11.4626105"><ele>184.0</ele><time>2026-04-04T11:57:42.791Z</time></trkpt><trkpt lat="44.3086825" lon="11.4625187"><ele>184.0</ele><time>2026-04-04T11:57:44.79Z</time></trkpt><trkpt lat="44.3086527" lon="11.4624335"><ele>184.0</ele><time>2026-04-04T11:57:45.792Z</time></trkpt><trkpt lat="44.3086268" lon="11.4623313"><ele>184.0</ele><time>2026-04-04T11:57:46.79Z</time></trkpt><trkpt lat="44.3086025" lon="11.4622202"><ele>184.0</ele><time>2026-04-04T11:57:47.791Z</time></trkpt><trkpt lat="44.3085785" lon="11.4621032"><ele>184.0</ele><time>2026-04-04T11:57:48.79Z</time></trkpt><trkpt lat="44.3085557" lon="11.46198"><ele>184.16666666666669</ele><time>2026-04-04T11:57:49.791Z</time></trkpt><trkpt lat="44.3085353" lon="11.4618552"><ele>184.33333333333334</ele><time>2026-04-04T11:57:50.788Z</time></trkpt><trkpt lat="44.308516" lon="11.4617415"><ele>184.5</ele><time>2026-04-04T11:57:51.789Z</time></trkpt><trkpt lat="44.308492" lon="11.4616372"><ele>184.66666666666666</ele><time>2026-04-04T11:57:52.788Z</time></trkpt><trkpt lat="44.308456" lon="11.4615407"><ele>184.83333333333331</ele><time>2026-04-04T11:57:53.791Z</time></trkpt><trkpt lat="44.3084133" lon="11.461446"><ele>185.0</ele><time>2026-04-04T11:57:54.791Z</time></trkpt><trkpt lat="44.3083688" lon="11.4613477"><ele>185.5</ele><time>2026-04-04T11:57:55.788Z</time></trkpt><trkpt lat="44.3083317" lon="11.4612403"><ele>186.0</ele><time>2026-04-04T11:57:56.789Z</time></trkpt><trkpt lat="44.3082995" lon="11.4611268"><ele>186.5</ele><time>2026-04-04T11:57:57.789Z</time></trkpt><trkpt lat="44.3082685" lon="11.4610158"><ele>187.0</ele><time>2026-04-04T11:57:58.79Z</time></trkpt><trkpt lat="44.3082368" lon="11.4609058"><ele>187.5</ele><time>2026-04-04T11:57:59.788Z</time></trkpt><trkpt lat="44.3082098" lon="11.4607933"><ele>188.0</ele><time>2026-04-04T11:58:00.788Z</time></trkpt><trkpt lat="44.308187" lon="11.4606793"><ele>188.0</ele><time>2026-04-04T11:58:01.788Z</time></trkpt><trkpt lat="44.3081605" lon="11.4605677"><ele>188.0</ele><time>2026-04-04T11:58:02.789Z</time></trkpt><trkpt lat="44.3081327" lon="11.4604685"><ele>188.0</ele><time>2026-04-04T11:58:03.789Z</time></trkpt><trkpt lat="44.3081097" lon="11.46038"><ele>188.0</ele><time>2026-04-04T11:58:04.792Z</time></trkpt><trkpt lat="44.3080735" lon="11.4602403"><ele>188.0</ele><time>2026-04-04T11:58:06.788Z</time></trkpt><trkpt lat="44.3080445" lon="11.4601345"><ele>188.0</ele><time>2026-04-04T11:58:08.789Z</time></trkpt><trkpt lat="44.3080158" lon="11.460032"><ele>188.0</ele><time>2026-04-04T11:58:11.79Z</time></trkpt><trkpt lat="44.3079703" lon="11.4599557"><ele>188.0</ele><time>2026-04-04T11:58:14.79Z</time></trkpt><trkpt lat="44.3079487" lon="11.4600508"><ele>188.0</ele><time>2026-04-04T11:58:30.79Z</time></trkpt><trkpt lat="44.3078753" lon="11.4600838"><ele>188.0</ele><time>2026-04-04T11:58:34.792Z</time></trkpt><trkpt lat="44.3077925" lon="11.4600545"><ele>188.0</ele><time>2026-04-04T11:58:37.792Z</time></trkpt><trkpt lat="44.3077052" lon="11.4600255"><ele>188.0</ele><time>2026-04-04T11:58:40.791Z</time></trkpt><trkpt lat="44.3076652" lon="11.4599518"><ele>188.0</ele><time>2026-04-04T11:58:43.79Z</time></trkpt><trkpt lat="44.3076127" lon="11.4598532"><ele>188.0</ele><time>2026-04-04T11:58:46.791Z</time></trkpt><trkpt lat="44.3075587" lon="11.4597735"><ele>188.0</ele><time>2026-04-04T11:58:48.789Z</time></trkpt><trkpt lat="44.3075372" lon="11.4596555"><ele>188.0</ele><time>2026-04-04T11:58:50.788Z</time></trkpt><trkpt lat="44.3075088" lon="11.4595285"><ele>188.0</ele><time>2026-04-04T11:58:52.791Z</time></trkpt><trkpt lat="44.3074302" lon="11.4594685"><ele>188.0</ele><time>2026-04-04T11:58:54.792Z</time></trkpt><trkpt lat="44.3073285" lon="11.4594803"><ele>188.60000000000002</ele><time>2026-04-04T11:58:56.791Z</time></trkpt><trkpt lat="44.3072188" lon="11.4594968"><ele>189.20000000000002</ele><time>2026-04-04T11:58:58.792Z</time></trkpt><trkpt lat="44.307111" lon="11.4594865"><ele>189.8</ele><time>2026-04-04T11:59:00.793Z</time></trkpt><trkpt lat="44.3070052" lon="11.459463"><ele>190.4</ele><time>2026-04-04T11:59:02.792Z</time></trkpt><trkpt lat="44.3069255" lon="11.4594622"><ele>191.0</ele><time>2026-04-04T11:59:04.79Z</time></trkpt><trkpt lat="44.3068638" lon="11.4595172"><ele>191.0</ele><time>2026-04-04T11:59:06.789Z</time></trkpt><trkpt lat="44.3068033" lon="11.4595703"><ele>191.0</ele><time>2026-04-04T11:59:09.79Z</time></trkpt><trkpt lat="44.306861" lon="11.4595125"><ele>191.0</ele><time>2026-04-04T11:59:44.789Z</time></trkpt><trkpt lat="44.306931" lon="11.4594525"><ele>191.0</ele><time>2026-04-04T11:59:46.79Z</time></trkpt><trkpt lat="44.3070188" lon="11.459452"><ele>191.0</ele><time>2026-04-04T11:59:48.79Z</time></trkpt><trkpt lat="44.3071233" lon="11.4594747"><ele>191.0</ele><time>2026-04-04T11:59:50.791Z</time></trkpt><trkpt lat="44.3072318" lon="11.4594775"><ele>190.66666666666666</ele><time>2026-04-04T11:59:52.792Z</time></trkpt><trkpt lat="44.3073378" lon="11.4594708"><ele>190.33333333333331</ele><time>2026-04-04T11:59:54.792Z</time></trkpt><trkpt lat="44.307436" lon="11.4594772"><ele>190.0</ele><time>2026-04-04T11:59:56.798Z</time></trkpt><trkpt lat="44.3075007" lon="11.4595338"><ele>189.66666666666666</ele><time>2026-04-04T11:59:58.795Z</time></trkpt><trkpt lat="44.3075262" lon="11.4596187"><ele>189.33333333333334</ele><time>2026-04-04T12:00:00.789Z</time></trkpt><trkpt lat="44.3075545" lon="11.4597025"><ele>189.0</ele><time>2026-04-04T12:00:02.788Z</time></trkpt><trkpt lat="44.3075993" lon="11.4598012"><ele>188.83333333333334</ele><time>2026-04-04T12:00:05.787Z</time></trkpt><trkpt lat="44.3076413" lon="11.4598955"><ele>188.66666666666666</ele><time>2026-04-04T12:00:08.789Z</time></trkpt><trkpt lat="44.3076623" lon="11.4599898"><ele>188.5</ele><time>2026-04-04T12:00:10.79Z</time></trkpt><trkpt lat="44.307678" lon="11.4601192"><ele>188.33333333333331</ele><time>2026-04-04T12:00:12.793Z</time></trkpt><trkpt lat="44.3077012" lon="11.4602617"><ele>188.16666666666666</ele><time>2026-04-04T12:00:14.79Z</time></trkpt><trkpt lat="44.3077182" lon="11.4603975"><ele>188.0</ele><time>2026-04-04T12:00:16.791Z</time></trkpt><trkpt lat="44.30774" lon="11.4605302"><ele>187.60000000000002</ele><time>2026-04-04T12:00:18.793Z</time></trkpt><trkpt lat="44.3077712" lon="11.4606557"><ele>187.20000000000002</ele><time>2026-04-04T12:00:20.795Z</time></trkpt><trkpt lat="44.3078042" lon="11.4607965"><ele>186.8</ele><time>2026-04-04T12:00:22.794Z</time></trkpt><trkpt lat="44.3078192" lon="11.4609233"><ele>186.4</ele><time>2026-04-04T12:00:24.792Z</time></trkpt><trkpt lat="44.3078303" lon="11.4610433"><ele>186.0</ele><time>2026-04-04T12:00:26.791Z</time></trkpt><trkpt lat="44.3078453" lon="11.4611507"><ele>186.0</ele><time>2026-04-04T12:00:28.788Z</time></trkpt><trkpt lat="44.3078705" lon="11.46125"><ele>186.0</ele><time>2026-04-04T12:00:30.791Z</time></trkpt><trkpt lat="44.3079092" lon="11.4613513"><ele>186.0</ele><time>2026-04-04T12:00:32.792Z</time></trkpt><trkpt lat="44.3079342" lon="11.4614677"><ele>186.0</ele><time>2026-04-04T12:00:34.791Z</time></trkpt><trkpt lat="44.3079505" lon="11.4615862"><ele>186.0</ele><time>2026-04-04T12:00:36.791Z</time></trkpt><trkpt lat="44.3079862" lon="11.4616985"><ele>186.0</ele><time>2026-04-04T12:00:38.791Z</time></trkpt><trkpt lat="44.3080303" lon="11.4617947"><ele>185.83333333333334</ele><time>2026-04-04T12:00:40.791Z</time></trkpt><trkpt lat="44.3080643" lon="11.4618777"><ele>185.66666666666666</ele><time>2026-04-04T12:00:43.791Z</time></trkpt><trkpt lat="44.3080913" lon="11.4620133"><ele>185.5</ele><time>2026-04-04T12:00:55.792Z</time></trkpt><trkpt lat="44.3081165" lon="11.4621185"><ele>185.33333333333331</ele><time>2026-04-04T12:00:57.795Z</time></trkpt><trkpt lat="44.3081335" lon="11.4622108"><ele>185.16666666666666</ele><time>2026-04-04T12:00:59.791Z</time></trkpt><trkpt lat="44.3081737" lon="11.4623047"><ele>185.0</ele><time>2026-04-04T12:01:02.792Z</time></trkpt><trkpt lat="44.308258" lon="11.4623322"><ele>184.83333333333331</ele><time>2026-04-04T12:01:05.792Z</time></trkpt><trkpt lat="44.3083207" lon="11.4623618"><ele>184.66666666666666</ele><time>2026-04-04T12:01:07.792Z</time></trkpt><trkpt lat="44.3083852" lon="11.462424"><ele>184.5</ele><time>2026-04-04T12:01:38.796Z</time></trkpt><trkpt lat="44.3084385" lon="11.4624902"><ele>184.33333333333334</ele><time>2026-04-04T12:01:40.789Z</time></trkpt><trkpt lat="44.3084765" lon="11.4625678"><ele>184.16666666666669</ele><time>2026-04-04T12:01:42.789Z</time></trkpt><trkpt lat="44.3085" lon="11.4626692"><ele>184.0</ele><time>2026-04-04T12:01:44.791Z</time></trkpt><trkpt lat="44.3085263" lon="11.4627898"><ele>184.0</ele><time>2026-04-04T12:01:46.791Z</time></trkpt><trkpt lat="44.3085507" lon="11.4629135"><ele>184.0</ele><time>2026-04-04T12:01:48.792Z</time></trkpt><trkpt lat="44.3085748" lon="11.4630498"><ele>184.0</ele><time>2026-04-04T12:01:50.791Z</time></trkpt><trkpt lat="44.3086032" lon="11.4631955"><ele>184.0</ele><time>2026-04-04T12:01:52.795Z</time></trkpt><trkpt lat="44.3086345" lon="11.4633508"><ele>184.0</ele><time>2026-04-04T12:01:54.793Z</time></trkpt><trkpt lat="44.3086648" lon="11.4635033"><ele>183.79999999999998</ele><time>2026-04-04T12:01:56.791Z</time></trkpt><trkpt lat="44.3086977" lon="11.4636427"><ele>183.6</ele><time>2026-04-04T12:01:58.792Z</time></trkpt><trkpt lat="44.3087292" lon="11.4637807"><ele>183.4</ele><time>2026-04-04T12:02:00.791Z</time></trkpt><trkpt lat="44.3087647" lon="11.4639367"><ele>183.2</ele><time>2026-04-04T12:02:02.793Z</time></trkpt><trkpt lat="44.3088052" lon="11.4640868"><ele>183.0</ele><time>2026-04-04T12:02:04.792Z</time></trkpt><trkpt lat="44.3088453" lon="11.4642265"><ele>183.0</ele><time>2026-04-04T12:02:06.789Z</time></trkpt><trkpt lat="44.3088805" lon="11.4643365"><ele>183.0</ele><time>2026-04-04T12:02:08.79Z</time></trkpt><trkpt lat="44.3089287" lon="11.4644372"><ele>183.0</ele><time>2026-04-04T12:02:10.79Z</time></trkpt><trkpt lat="44.3089738" lon="11.464532"><ele>183.0</ele><time>2026-04-04T12:02:12.794Z</time></trkpt><trkpt lat="44.3090315" lon="11.464607"><ele>183.0</ele><time>2026-04-04T12:02:14.788Z</time></trkpt><trkpt lat="44.3090898" lon="11.464669"><ele>183.0</ele><time>2026-04-04T12:02:16.79Z</time></trkpt><trkpt lat="44.3091365" lon="11.4647298"><ele>183.0</ele><time>2026-04-04T12:02:30.789Z</time></trkpt><trkpt lat="44.3092133" lon="11.464797"><ele>183.0</ele><time>2026-04-04T12:02:33.79Z</time></trkpt><trkpt lat="44.3092683" lon="11.4648445"><ele>183.0</ele><time>2026-04-04T12:02:35.791Z</time></trkpt><trkpt lat="44.3093415" lon="11.4649177"><ele>183.0</ele><time>2026-04-04T12:02:38.79Z</time></trkpt><trkpt lat="44.3094027" lon="11.4650097"><ele>183.0</ele><time>2026-04-04T12:02:41.79Z</time></trkpt><trkpt lat="44.3094648" lon="11.465092"><ele>183.0</ele><time>2026-04-04T12:02:44.79Z</time></trkpt><trkpt lat="44.309505" lon="11.4651742"><ele>183.0</ele><time>2026-04-04T12:02:46.794Z</time></trkpt><trkpt lat="44.3095627" lon="11.4652637"><ele>183.0</ele><time>2026-04-04T12:02:48.79Z</time></trkpt><trkpt lat="44.3096205" lon="11.4653395"><ele>183.0</ele><time>2026-04-04T12:02:50.79Z</time></trkpt><trkpt lat="44.3096828" lon="11.465406"><ele>183.0</ele><time>2026-04-04T12:02:52.79Z</time></trkpt><trkpt lat="44.3097532" lon="11.4654605"><ele>183.0</ele><time>2026-04-04T12:02:54.787Z</time></trkpt><trkpt lat="44.3098273" lon="11.4655128"><ele>183.0</ele><time>2026-04-04T12:02:56.787Z</time></trkpt><trkpt lat="44.3098978" lon="11.4655578"><ele>182.71428571428572</ele><time>2026-04-04T12:02:58.79Z</time></trkpt><trkpt lat="44.3099588" lon="11.4656195"><ele>182.42857142857144</ele><time>2026-04-04T12:03:00.789Z</time></trkpt><trkpt lat="44.3100072" lon="11.4656858"><ele>182.14285714285714</ele><time>2026-04-04T12:03:02.79Z</time></trkpt><trkpt lat="44.3100403" lon="11.4658"><ele>181.85714285714286</ele><time>2026-04-04T12:03:05.79Z</time></trkpt><trkpt lat="44.3100705" lon="11.4658912"><ele>181.57142857142856</ele><time>2026-04-04T12:03:07.79Z</time></trkpt><trkpt lat="44.3101048" lon="11.465972"><ele>181.28571428571428</ele><time>2026-04-04T12:03:09.791Z</time></trkpt><trkpt lat="44.3101435" lon="11.466057"><ele>181.0</ele><time>2026-04-04T12:03:11.79Z</time></trkpt><trkpt lat="44.3101835" lon="11.4661408"><ele>181.0</ele><time>2026-04-04T12:03:13.793Z</time></trkpt><trkpt lat="44.3102265" lon="11.466223"><ele>181.0</ele><time>2026-04-04T12:03:15.79Z</time></trkpt><trkpt lat="44.310276" lon="11.4663122"><ele>181.0</ele><time>2026-04-04T12:03:17.789Z</time></trkpt><trkpt lat="44.3103342" lon="11.4664133"><ele>181.0</ele><time>2026-04-04T12:03:19.788Z</time></trkpt><trkpt lat="44.3103878" lon="11.4665095"><ele>181.0</ele><time>2026-04-04T12:03:21.789Z</time></trkpt><trkpt lat="44.3104505" lon="11.4665955"><ele>181.0</ele><time>2026-04-04T12:03:23.79Z</time></trkpt><trkpt lat="44.3105115" lon="11.4666713"><ele>181.16666666666669</ele><time>2026-04-04T12:03:25.79Z</time></trkpt><trkpt lat="44.3105692" lon="11.466742"><ele>181.33333333333334</ele><time>2026-04-04T12:03:27.792Z</time></trkpt><trkpt lat="44.310632" lon="11.466815"><ele>181.5</ele><time>2026-04-04T12:03:29.79Z</time></trkpt><trkpt lat="44.3106893" lon="11.466874"><ele>181.66666666666666</ele><time>2026-04-04T12:03:31.789Z</time></trkpt><trkpt lat="44.3107353" lon="11.4669435"><ele>181.83333333333331</ele><time>2026-04-04T12:03:33.789Z</time></trkpt><trkpt lat="44.3107828" lon="11.4670308"><ele>182.0</ele><time>2026-04-04T12:03:35.789Z</time></trkpt><trkpt lat="44.3108297" lon="11.4671205"><ele>181.33333333333331</ele><time>2026-04-04T12:03:37.792Z</time></trkpt><trkpt lat="44.3108678" lon="11.467218"><ele>180.66666666666666</ele><time>2026-04-04T12:03:39.791Z</time></trkpt><trkpt lat="44.3109035" lon="11.4673108"><ele>180.0</ele><time>2026-04-04T12:03:41.789Z</time></trkpt><trkpt lat="44.3109343" lon="11.4674087"><ele>179.33333333333334</ele><time>2026-04-04T12:03:43.789Z</time></trkpt><trkpt lat="44.3109738" lon="11.4675067"><ele>178.66666666666669</ele><time>2026-04-04T12:03:45.788Z</time></trkpt><trkpt lat="44.310999" lon="11.4676072"><ele>178.0</ele><time>2026-04-04T12:03:47.79Z</time></trkpt><trkpt lat="44.3110265" lon="11.4677087"><ele>177.99999999999997</ele><time>2026-04-04T12:03:49.791Z</time></trkpt><trkpt lat="44.3110528" lon="11.4678132"><ele>178.0</ele><time>2026-04-04T12:03:51.789Z</time></trkpt><trkpt lat="44.3110837" lon="11.4679177"><ele>178.0</ele><time>2026-04-04T12:03:53.791Z</time></trkpt><trkpt lat="44.3111128" lon="11.4680168"><ele>178.0</ele><time>2026-04-04T12:03:55.789Z</time></trkpt><trkpt lat="44.3111422" lon="11.4681052"><ele>178.0</ele><time>2026-04-04T12:03:57.79Z</time></trkpt><trkpt lat="44.3111712" lon="11.4681962"><ele>177.99999999999997</ele><time>2026-04-04T12:03:59.789Z</time></trkpt><trkpt lat="44.3111975" lon="11.4682878"><ele>178.0</ele><time>2026-04-04T12:04:01.791Z</time></trkpt><trkpt lat="44.3112327" lon="11.4683932"><ele>178.2</ele><time>2026-04-04T12:04:03.79Z</time></trkpt><trkpt lat="44.3112605" lon="11.4685032"><ele>178.4</ele><time>2026-04-04T12:04:05.793Z</time></trkpt><trkpt lat="44.3112767" lon="11.4686283"><ele>178.6</ele><time>2026-04-04T12:04:07.788Z</time></trkpt><trkpt lat="44.3112857" lon="11.4687762"><ele>178.79999999999998</ele><time>2026-04-04T12:04:09.788Z</time></trkpt><trkpt lat="44.3112862" lon="11.4688937"><ele>179.0</ele><time>2026-04-04T12:04:11.791Z</time></trkpt><trkpt lat="44.3113305" lon="11.468996"><ele>179.16666666666666</ele><time>2026-04-04T12:04:14.79Z</time></trkpt><trkpt lat="44.311386" lon="11.4690613"><ele>179.33333333333331</ele><time>2026-04-04T12:04:16.79Z</time></trkpt><trkpt lat="44.3114493" lon="11.4691342"><ele>179.5</ele><time>2026-04-04T12:04:18.79Z</time></trkpt><trkpt lat="44.3115135" lon="11.469198"><ele>179.66666666666666</ele><time>2026-04-04T12:04:20.79Z</time></trkpt><trkpt lat="44.3115755" lon="11.4692648"><ele>179.83333333333334</ele><time>2026-04-04T12:04:22.79Z</time></trkpt><trkpt lat="44.3116482" lon="11.4693502"><ele>180.0</ele><time>2026-04-04T12:04:24.79Z</time></trkpt><trkpt lat="44.3117335" lon="11.4694387"><ele>179.4</ele><time>2026-04-04T12:04:26.789Z</time></trkpt><trkpt lat="44.3118222" lon="11.4695188"><ele>178.8</ele><time>2026-04-04T12:04:28.79Z</time></trkpt><trkpt lat="44.3119227" lon="11.4696003"><ele>178.2</ele><time>2026-04-04T12:04:30.789Z</time></trkpt><trkpt lat="44.3120183" lon="11.4696752"><ele>177.6</ele><time>2026-04-04T12:04:32.787Z</time></trkpt><trkpt lat="44.3121132" lon="11.4697548"><ele>177.0</ele><time>2026-04-04T12:04:34.788Z</time></trkpt><trkpt lat="44.3121713" lon="11.4697977"><ele>177.0</ele><time>2026-04-04T12:04:35.787Z</time></trkpt><trkpt lat="44.3122348" lon="11.4698462"><ele>177.0</ele><time>2026-04-04T12:04:36.789Z</time></trkpt><trkpt lat="44.3123015" lon="11.4699003"><ele>177.0</ele><time>2026-04-04T12:04:37.79Z</time></trkpt><trkpt lat="44.3123807" lon="11.4699703"><ele>177.0</ele><time>2026-04-04T12:04:38.79Z</time></trkpt><trkpt lat="44.3124487" lon="11.4700385"><ele>177.0</ele><time>2026-04-04T12:04:39.79Z</time></trkpt><trkpt lat="44.3125087" lon="11.4701065"><ele>177.0</ele><time>2026-04-04T12:04:40.793Z</time></trkpt><trkpt lat="44.3125643" lon="11.4701675"><ele>176.85714285714286</ele><time>2026-04-04T12:04:41.791Z</time></trkpt><trkpt lat="44.3126177" lon="11.4702277"><ele>176.7142857142857</ele><time>2026-04-04T12:04:42.79Z</time></trkpt><trkpt lat="44.3126715" lon="11.4702867"><ele>176.57142857142856</ele><time>2026-04-04T12:04:43.791Z</time></trkpt><trkpt lat="44.3127222" lon="11.4703413"><ele>176.42857142857144</ele><time>2026-04-04T12:04:44.791Z</time></trkpt><trkpt lat="44.3127718" lon="11.4704022"><ele>176.28571428571428</ele><time>2026-04-04T12:04:45.791Z</time></trkpt><trkpt lat="44.3128212" lon="11.4704662"><ele>176.14285714285714</ele><time>2026-04-04T12:04:46.793Z</time></trkpt><trkpt lat="44.312872" lon="11.4705292"><ele>176.0</ele><time>2026-04-04T12:04:47.789Z</time></trkpt><trkpt lat="44.3129213" lon="11.4705915"><ele>176.0</ele><time>2026-04-04T12:04:48.79Z</time></trkpt><trkpt lat="44.3130022" lon="11.470696"><ele>176.0</ele><time>2026-04-04T12:04:50.788Z</time></trkpt><trkpt lat="44.3130848" lon="11.4707858"><ele>176.0</ele><time>2026-04-04T12:04:52.789Z</time></trkpt><trkpt lat="44.3131697" lon="11.4708805"><ele>176.0</ele><time>2026-04-04T12:04:54.789Z</time></trkpt><trkpt lat="44.3132597" lon="11.4709823"><ele>176.0</ele><time>2026-04-04T12:04:56.789Z</time></trkpt><trkpt lat="44.3133572" lon="11.4710755"><ele>176.0</ele><time>2026-04-04T12:04:58.789Z</time></trkpt><trkpt lat="44.313446" lon="11.4711477"><ele>176.0</ele><time>2026-04-04T12:05:00.793Z</time></trkpt><trkpt lat="44.3135347" lon="11.4711923"><ele>176.0</ele><time>2026-04-04T12:05:02.789Z</time></trkpt><trkpt lat="44.3136015" lon="11.4712175"><ele>176.0</ele><time>2026-04-04T12:05:04.79Z</time></trkpt><trkpt lat="44.3136643" lon="11.4712668"><ele>176.0</ele><time>2026-04-04T12:05:06.794Z</time></trkpt><trkpt lat="44.3137342" lon="11.4713222"><ele>176.0</ele><time>2026-04-04T12:05:08.789Z</time></trkpt><trkpt lat="44.3137955" lon="11.471373"><ele>176.0</ele><time>2026-04-04T12:05:10.79Z</time></trkpt><trkpt lat="44.31384" lon="11.4714862"><ele>176.0</ele><time>2026-04-04T12:05:13.789Z</time></trkpt><trkpt lat="44.3138668" lon="11.4715873"><ele>176.0</ele><time>2026-04-04T12:05:15.789Z</time></trkpt><trkpt lat="44.313898" lon="11.4716892"><ele>176.0</ele><time>2026-04-04T12:05:17.79Z</time></trkpt><trkpt lat="44.3139367" lon="11.4717877"><ele>176.0</ele><time>2026-04-04T12:05:19.79Z</time></trkpt><trkpt lat="44.3139798" lon="11.4718837"><ele>176.0</ele><time>2026-04-04T12:05:21.789Z</time></trkpt><trkpt lat="44.3140222" lon="11.4719932"><ele>176.0</ele><time>2026-04-04T12:05:23.788Z</time></trkpt><trkpt lat="44.3140878" lon="11.472116"><ele>176.0</ele><time>2026-04-04T12:05:25.79Z</time></trkpt><trkpt lat="44.3141555" lon="11.4722607"><ele>176.0</ele><time>2026-04-04T12:05:27.79Z</time></trkpt><trkpt lat="44.314203" lon="11.4724252"><ele>176.0</ele><time>2026-04-04T12:05:29.791Z</time></trkpt><trkpt lat="44.3142215" lon="11.47251"><ele>176.0</ele><time>2026-04-04T12:05:30.791Z</time></trkpt><trkpt lat="44.3142407" lon="11.4725965"><ele>176.0</ele><time>2026-04-04T12:05:31.789Z</time></trkpt><trkpt lat="44.3142583" lon="11.4726865"><ele>176.0</ele><time>2026-04-04T12:05:32.789Z</time></trkpt><trkpt lat="44.3142728" lon="11.4727805"><ele>176.0</ele><time>2026-04-04T12:05:33.791Z</time></trkpt><trkpt lat="44.3142907" lon="11.472872"><ele>176.0</ele><time>2026-04-04T12:05:34.79Z</time></trkpt><trkpt lat="44.3143122" lon="11.4729627"><ele>176.0</ele><time>2026-04-04T12:05:35.79Z</time></trkpt><trkpt lat="44.314333" lon="11.4730553"><ele>176.0</ele><time>2026-04-04T12:05:36.789Z</time></trkpt><trkpt lat="44.3143515" lon="11.4731478"><ele>176.0</ele><time>2026-04-04T12:05:37.789Z</time></trkpt><trkpt lat="44.3143685" lon="11.4732343"><ele>176.20000000000002</ele><time>2026-04-04T12:05:38.789Z</time></trkpt><trkpt lat="44.3144018" lon="11.473395"><ele>176.4</ele><time>2026-04-04T12:05:40.789Z</time></trkpt><trkpt lat="44.314418" lon="11.4734805"><ele>176.6</ele><time>2026-04-04T12:05:41.789Z</time></trkpt><trkpt lat="44.3144395" lon="11.4736457"><ele>176.8</ele><time>2026-04-04T12:05:43.79Z</time></trkpt><trkpt lat="44.3144552" lon="11.4737993"><ele>177.0</ele><time>2026-04-04T12:05:45.789Z</time></trkpt><trkpt lat="44.314468" lon="11.473946"><ele>177.16666666666666</ele><time>2026-04-04T12:05:47.787Z</time></trkpt><trkpt lat="44.3144775" lon="11.474088"><ele>177.33333333333334</ele><time>2026-04-04T12:05:49.791Z</time></trkpt><trkpt lat="44.31449" lon="11.474225"><ele>177.5</ele><time>2026-04-04T12:05:51.792Z</time></trkpt><trkpt lat="44.3144943" lon="11.474343"><ele>177.66666666666669</ele><time>2026-04-04T12:05:53.789Z</time></trkpt><trkpt lat="44.3145213" lon="11.4744525"><ele>177.83333333333334</ele><time>2026-04-04T12:05:55.79Z</time></trkpt><trkpt lat="44.3145673" lon="11.4745373"><ele>178.0</ele><time>2026-04-04T12:05:57.79Z</time></trkpt><trkpt lat="44.3146283" lon="11.474617"><ele>177.8</ele><time>2026-04-04T12:05:59.79Z</time></trkpt><trkpt lat="44.3146868" lon="11.4747148"><ele>177.60000000000002</ele><time>2026-04-04T12:06:01.79Z</time></trkpt><trkpt lat="44.314734" lon="11.4748293"><ele>177.39999999999998</ele><time>2026-04-04T12:06:03.79Z</time></trkpt><trkpt lat="44.314764" lon="11.4749482"><ele>177.2</ele><time>2026-04-04T12:06:05.795Z</time></trkpt><trkpt lat="44.3147943" lon="11.4750733"><ele>177.0</ele><time>2026-04-04T12:06:07.79Z</time></trkpt><trkpt lat="44.3148313" lon="11.4752008"><ele>177.0</ele><time>2026-04-04T12:06:09.789Z</time></trkpt><trkpt lat="44.3148522" lon="11.4753367"><ele>177.0</ele><time>2026-04-04T12:06:11.788Z</time></trkpt><trkpt lat="44.3148707" lon="11.4754585"><ele>177.0</ele><time>2026-04-04T12:06:13.791Z</time></trkpt><trkpt lat="44.3148842" lon="11.4755958"><ele>177.0</ele><time>2026-04-04T12:06:15.789Z</time></trkpt><trkpt lat="44.3148943" lon="11.4757442"><ele>177.0</ele><time>2026-04-04T12:06:17.791Z</time></trkpt><trkpt lat="44.3149033" lon="11.4758735"><ele>176.2</ele><time>2026-04-04T12:06:19.79Z</time></trkpt><trkpt lat="44.314913" lon="11.476011"><ele>175.39999999999998</ele><time>2026-04-04T12:06:21.789Z</time></trkpt><trkpt lat="44.3149225" lon="11.4761637"><ele>174.60000000000002</ele><time>2026-04-04T12:06:23.789Z</time></trkpt><trkpt lat="44.3149382" lon="11.4763112"><ele>173.8</ele><time>2026-04-04T12:06:25.792Z</time></trkpt><trkpt lat="44.3149608" lon="11.4764645"><ele>173.0</ele><time>2026-04-04T12:06:27.79Z</time></trkpt><trkpt lat="44.3149892" lon="11.4766205"><ele>173.0</ele><time>2026-04-04T12:06:29.79Z</time></trkpt><trkpt lat="44.3150293" lon="11.4767712"><ele>173.0</ele><time>2026-04-04T12:06:31.791Z</time></trkpt><trkpt lat="44.3150805" lon="11.476933"><ele>173.0</ele><time>2026-04-04T12:06:33.789Z</time></trkpt><trkpt lat="44.3151057" lon="11.4770145"><ele>173.0</ele><time>2026-04-04T12:06:34.788Z</time></trkpt><trkpt lat="44.3151303" lon="11.4770973"><ele>173.0</ele><time>2026-04-04T12:06:35.789Z</time></trkpt><trkpt lat="44.3151558" lon="11.4771805"><ele>173.0</ele><time>2026-04-04T12:06:36.788Z</time></trkpt><trkpt lat="44.3151988" lon="11.4773372"><ele>173.0</ele><time>2026-04-04T12:06:38.79Z</time></trkpt><trkpt lat="44.3152483" lon="11.4774883"><ele>173.0</ele><time>2026-04-04T12:06:40.791Z</time></trkpt><trkpt lat="44.3153043" lon="11.4776272"><ele>173.0</ele><time>2026-04-04T12:06:42.791Z</time></trkpt><trkpt lat="44.3153532" lon="11.4777575"><ele>173.0</ele><time>2026-04-04T12:06:44.789Z</time></trkpt><trkpt lat="44.3153862" lon="11.4778922"><ele>173.0</ele><time>2026-04-04T12:06:46.791Z</time></trkpt><trkpt lat="44.3154055" lon="11.478027"><ele>173.8</ele><time>2026-04-04T12:06:48.789Z</time></trkpt><trkpt lat="44.3154302" lon="11.4781515"><ele>174.60000000000002</ele><time>2026-04-04T12:06:50.79Z</time></trkpt><trkpt lat="44.31546" lon="11.4782693"><ele>175.39999999999998</ele><time>2026-04-04T12:06:52.79Z</time></trkpt><trkpt lat="44.3154742" lon="11.4783992"><ele>176.2</ele><time>2026-04-04T12:06:54.79Z</time></trkpt><trkpt lat="44.3154875" lon="11.478531"><ele>177.0</ele><time>2026-04-04T12:06:56.789Z</time></trkpt><trkpt lat="44.3155307" lon="11.4786753"><ele>175.2</ele><time>2026-04-04T12:06:58.788Z</time></trkpt><trkpt lat="44.315585" lon="11.4788183"><ele>173.39999999999998</ele><time>2026-04-04T12:07:00.79Z</time></trkpt><trkpt lat="44.3156275" lon="11.4789512"><ele>171.60000000000002</ele><time>2026-04-04T12:07:02.79Z</time></trkpt><trkpt lat="44.3156643" lon="11.4790848"><ele>169.8</ele><time>2026-04-04T12:07:04.789Z</time></trkpt><trkpt lat="44.315711" lon="11.4792133"><ele>168.0</ele><time>2026-04-04T12:07:06.79Z</time></trkpt><trkpt lat="44.3157775" lon="11.479287"><ele>168.0</ele><time>2026-04-04T12:07:08.788Z</time></trkpt><trkpt lat="44.3158527" lon="11.4793617"><ele>168.0</ele><time>2026-04-04T12:07:10.791Z</time></trkpt><trkpt lat="44.3159257" lon="11.4794462"><ele>168.0</ele><time>2026-04-04T12:07:12.79Z</time></trkpt><trkpt lat="44.3159773" lon="11.4795403"><ele>168.0</ele><time>2026-04-04T12:07:14.789Z</time></trkpt><trkpt lat="44.3160258" lon="11.4796303"><ele>168.0</ele><time>2026-04-04T12:07:16.791Z</time></trkpt><trkpt lat="44.3160845" lon="11.4797203"><ele>168.0</ele><time>2026-04-04T12:07:18.79Z</time></trkpt><trkpt lat="44.3161558" lon="11.4798043"><ele>168.0</ele><time>2026-04-04T12:07:20.789Z</time></trkpt><trkpt lat="44.3162262" lon="11.4798965"><ele>168.0</ele><time>2026-04-04T12:07:22.788Z</time></trkpt><trkpt lat="44.3162945" lon="11.4800115"><ele>168.0</ele><time>2026-04-04T12:07:24.788Z</time></trkpt><trkpt lat="44.3163592" lon="11.4801513"><ele>168.0</ele><time>2026-04-04T12:07:26.789Z</time></trkpt><trkpt lat="44.3164072" lon="11.480299"><ele>168.0</ele><time>2026-04-04T12:07:28.789Z</time></trkpt><trkpt lat="44.3164462" lon="11.4804467"><ele>167.75</ele><time>2026-04-04T12:07:30.789Z</time></trkpt><trkpt lat="44.3164878" lon="11.4806073"><ele>167.5</ele><time>2026-04-04T12:07:32.789Z</time></trkpt><trkpt lat="44.3165182" lon="11.4807673"><ele>167.25</ele><time>2026-04-04T12:07:34.791Z</time></trkpt><trkpt lat="44.3165555" lon="11.480911"><ele>167.0</ele><time>2026-04-04T12:07:36.79Z</time></trkpt><trkpt lat="44.3166048" lon="11.4810358"><ele>167.0</ele><time>2026-04-04T12:07:38.789Z</time></trkpt><trkpt lat="44.3166678" lon="11.481141"><ele>167.0</ele><time>2026-04-04T12:07:40.79Z</time></trkpt><trkpt lat="44.3167172" lon="11.4812358"><ele>167.0</ele><time>2026-04-04T12:07:42.791Z</time></trkpt><trkpt lat="44.3167453" lon="11.48136"><ele>167.0</ele><time>2026-04-04T12:07:44.787Z</time></trkpt><trkpt lat="44.3167877" lon="11.4814962"><ele>167.0</ele><time>2026-04-04T12:07:46.79Z</time></trkpt><trkpt lat="44.3168235" lon="11.4816417"><ele>166.8</ele><time>2026-04-04T12:07:48.787Z</time></trkpt><trkpt lat="44.3168488" lon="11.4817875"><ele>166.6</ele><time>2026-04-04T12:07:50.787Z</time></trkpt><trkpt lat="44.3168517" lon="11.4819297"><ele>166.4</ele><time>2026-04-04T12:07:52.789Z</time></trkpt><trkpt lat="44.3168515" lon="11.4820733"><ele>166.20000000000002</ele><time>2026-04-04T12:07:54.79Z</time></trkpt><trkpt lat="44.316844" lon="11.4822163"><ele>166.0</ele><time>2026-04-04T12:07:56.789Z</time></trkpt><trkpt lat="44.3168217" lon="11.4823533"><ele>165.8</ele><time>2026-04-04T12:07:58.791Z</time></trkpt><trkpt lat="44.3167797" lon="11.4824765"><ele>165.60000000000002</ele><time>2026-04-04T12:08:00.789Z</time></trkpt><trkpt lat="44.316727" lon="11.4826027"><ele>165.4</ele><time>2026-04-04T12:08:02.79Z</time></trkpt><trkpt lat="44.3166847" lon="11.4827547"><ele>165.2</ele><time>2026-04-04T12:08:04.791Z</time></trkpt><trkpt lat="44.3166537" lon="11.4829028"><ele>165.0</ele><time>2026-04-04T12:08:06.789Z</time></trkpt><trkpt lat="44.3166288" lon="11.4830383"><ele>165.0</ele><time>2026-04-04T12:08:08.792Z</time></trkpt><trkpt lat="44.316609" lon="11.4831865"><ele>165.0</ele><time>2026-04-04T12:08:10.79Z</time></trkpt><trkpt lat="44.3165867" lon="11.483315"><ele>165.0</ele><time>2026-04-04T12:08:12.787Z</time></trkpt><trkpt lat="44.3165585" lon="11.4834182"><ele>165.0</ele><time>2026-04-04T12:08:14.787Z</time></trkpt><trkpt lat="44.316541" lon="11.4835043"><ele>165.0</ele><time>2026-04-04T12:10:34.792Z</time></trkpt><trkpt lat="44.3164928" lon="11.4836132"><ele>165.0</ele><time>2026-04-04T12:10:37.791Z</time></trkpt><trkpt lat="44.3164787" lon="11.4837048"><ele>165.00000000000003</ele><time>2026-04-04T12:10:39.788Z</time></trkpt><trkpt lat="44.3164935" lon="11.4838098"><ele>165.0</ele><time>2026-04-04T12:10:41.788Z</time></trkpt><trkpt lat="44.3165165" lon="11.4839165"><ele>165.0</ele><time>2026-04-04T12:10:43.792Z</time></trkpt><trkpt lat="44.3165477" lon="11.4840058"><ele>165.0</ele><time>2026-04-04T12:10:45.79Z</time></trkpt><trkpt lat="44.3165975" lon="11.4840917"><ele>165.0</ele><time>2026-04-04T12:10:47.793Z</time></trkpt><trkpt lat="44.3166527" lon="11.4841528"><ele>165.00000000000003</ele><time>2026-04-04T12:10:49.792Z</time></trkpt><trkpt lat="44.3166968" lon="11.4842268"><ele>165.0</ele><time>2026-04-04T12:10:51.789Z</time></trkpt><trkpt lat="44.3167542" lon="11.4843227"><ele>165.0</ele><time>2026-04-04T12:10:54.792Z</time></trkpt><trkpt lat="44.3168" lon="11.4844358"><ele>165.0</ele><time>2026-04-04T12:10:56.791Z</time></trkpt><trkpt lat="44.3168472" lon="11.4845325"><ele>165.0</ele><time>2026-04-04T12:10:58.792Z</time></trkpt><trkpt lat="44.3169277" lon="11.4846003"><ele>165.0</ele><time>2026-04-04T12:11:00.791Z</time></trkpt><trkpt lat="44.3170002" lon="11.4846628"><ele>165.0</ele><time>2026-04-04T12:11:03.788Z</time></trkpt><trkpt lat="44.3170797" lon="11.4846568"><ele>165.0</ele><time>2026-04-04T12:11:06.787Z</time></trkpt><trkpt lat="44.3171267" lon="11.4845525"><ele>165.0</ele><time>2026-04-04T12:11:09.791Z</time></trkpt><trkpt lat="44.3171255" lon="11.4844072"><ele>165.0</ele><time>2026-04-04T12:11:11.791Z</time></trkpt><trkpt lat="44.317113" lon="11.4842328"><ele>165.0</ele><time>2026-04-04T12:11:13.791Z</time></trkpt><trkpt lat="44.3171093" lon="11.4841447"><ele>165.0</ele><time>2026-04-04T12:11:14.789Z</time></trkpt><trkpt lat="44.3171243" lon="11.484"><ele>165.0</ele><time>2026-04-04T12:11:16.791Z</time></trkpt><trkpt lat="44.3171397" lon="11.483877"><ele>165.0</ele><time>2026-04-04T12:11:18.789Z</time></trkpt><trkpt lat="44.3172095" lon="11.4838522"><ele>165.0</ele><time>2026-04-04T12:11:20.79Z</time></trkpt><trkpt lat="44.3172597" lon="11.483952"><ele>165.0</ele><time>2026-04-04T12:11:22.791Z</time></trkpt><trkpt lat="44.3172907" lon="11.4840898"><ele>165.0</ele><time>2026-04-04T12:11:24.79Z</time></trkpt><trkpt lat="44.3173538" lon="11.4842138"><ele>165.0</ele><time>2026-04-04T12:11:26.792Z</time></trkpt><trkpt lat="44.3174407" lon="11.4843223"><ele>165.16666666666666</ele><time>2026-04-04T12:11:28.788Z</time></trkpt><trkpt lat="44.3174875" lon="11.484466"><ele>165.33333333333334</ele><time>2026-04-04T12:11:30.79Z</time></trkpt><trkpt lat="44.3174962" lon="11.4845557"><ele>165.5</ele><time>2026-04-04T12:11:31.789Z</time></trkpt><trkpt lat="44.317503" lon="11.48465"><ele>165.66666666666669</ele><time>2026-04-04T12:11:32.79Z</time></trkpt><trkpt lat="44.3175105" lon="11.4847432"><ele>165.83333333333334</ele><time>2026-04-04T12:11:33.791Z</time></trkpt><trkpt lat="44.3175597" lon="11.484889"><ele>166.0</ele><time>2026-04-04T12:11:35.789Z</time></trkpt><trkpt lat="44.3176527" lon="11.4849728"><ele>166.16666666666669</ele><time>2026-04-04T12:11:37.789Z</time></trkpt><trkpt lat="44.3177223" lon="11.4850565"><ele>166.33333333333334</ele><time>2026-04-04T12:11:39.791Z</time></trkpt><trkpt lat="44.3177263" lon="11.4852295"><ele>166.5</ele><time>2026-04-04T12:11:41.79Z</time></trkpt><trkpt lat="44.3177225" lon="11.485323"><ele>166.66666666666666</ele><time>2026-04-04T12:11:42.79Z</time></trkpt><trkpt lat="44.3177208" lon="11.4854132"><ele>166.83333333333331</ele><time>2026-04-04T12:11:43.791Z</time></trkpt><trkpt lat="44.3177532" lon="11.4855218"><ele>167.0</ele><time>2026-04-04T12:11:45.791Z</time></trkpt><trkpt lat="44.3178457" lon="11.4855307"><ele>167.16666666666666</ele><time>2026-04-04T12:11:47.789Z</time></trkpt><trkpt lat="44.3179127" lon="11.4855215"><ele>167.33333333333331</ele><time>2026-04-04T12:11:48.791Z</time></trkpt><trkpt lat="44.3179873" lon="11.485511"><ele>167.5</ele><time>2026-04-04T12:11:49.788Z</time></trkpt><trkpt lat="44.3180677" lon="11.485493"><ele>167.66666666666666</ele><time>2026-04-04T12:11:50.789Z</time></trkpt><trkpt lat="44.3181522" lon="11.4854723"><ele>167.83333333333334</ele><time>2026-04-04T12:11:51.789Z</time></trkpt><trkpt lat="44.3182405" lon="11.4854488"><ele>168.0</ele><time>2026-04-04T12:11:52.787Z</time></trkpt><trkpt lat="44.3183307" lon="11.4854235"><ele>168.0</ele><time>2026-04-04T12:11:53.786Z</time></trkpt><trkpt lat="44.318417" lon="11.4854023"><ele>168.0</ele><time>2026-04-04T12:11:54.786Z</time></trkpt><trkpt lat="44.3185042" lon="11.4853777"><ele>168.0</ele><time>2026-04-04T12:11:55.787Z</time></trkpt><trkpt lat="44.3185872" lon="11.4853645"><ele>168.0</ele><time>2026-04-04T12:11:56.792Z</time></trkpt><trkpt lat="44.3186688" lon="11.4853487"><ele>168.0</ele><time>2026-04-04T12:11:57.795Z</time></trkpt><trkpt lat="44.318751" lon="11.4853378"><ele>168.0</ele><time>2026-04-04T12:11:58.79Z</time></trkpt><trkpt lat="44.3188353" lon="11.4853355"><ele>168.5</ele><time>2026-04-04T12:11:59.79Z</time></trkpt><trkpt lat="44.3189217" lon="11.4853368"><ele>169.0</ele><time>2026-04-04T12:12:00.798Z</time></trkpt><trkpt lat="44.3190082" lon="11.485336"><ele>169.5</ele><time>2026-04-04T12:12:01.79Z</time></trkpt><trkpt lat="44.3190967" lon="11.4853275"><ele>170.0</ele><time>2026-04-04T12:12:02.789Z</time></trkpt><trkpt lat="44.3191845" lon="11.4853187"><ele>170.5</ele><time>2026-04-04T12:12:03.79Z</time></trkpt><trkpt lat="44.3192702" lon="11.4853152"><ele>171.0</ele><time>2026-04-04T12:12:04.791Z</time></trkpt><trkpt lat="44.3193553" lon="11.4853018"><ele>171.0</ele><time>2026-04-04T12:12:05.791Z</time></trkpt><trkpt lat="44.319439" lon="11.4852808"><ele>171.0</ele><time>2026-04-04T12:12:06.79Z</time></trkpt><trkpt lat="44.3195217" lon="11.4852557"><ele>171.0</ele><time>2026-04-04T12:12:07.792Z</time></trkpt><trkpt lat="44.319605" lon="11.4852267"><ele>171.0</ele><time>2026-04-04T12:12:08.792Z</time></trkpt><trkpt lat="44.3196907" lon="11.4852025"><ele>171.0</ele><time>2026-04-04T12:12:09.791Z</time></trkpt><trkpt lat="44.3197758" lon="11.4851798"><ele>171.0</ele><time>2026-04-04T12:12:10.791Z</time></trkpt><trkpt lat="44.3198592" lon="11.4851615"><ele>171.33333333333334</ele><time>2026-04-04T12:12:11.791Z</time></trkpt><trkpt lat="44.3199402" lon="11.485147"><ele>171.66666666666666</ele><time>2026-04-04T12:12:12.79Z</time></trkpt><trkpt lat="44.3200183" lon="11.4851373"><ele>172.0</ele><time>2026-04-04T12:12:13.79Z</time></trkpt><trkpt lat="44.3200848" lon="11.4851322"><ele>172.33333333333331</ele><time>2026-04-04T12:12:14.791Z</time></trkpt><trkpt lat="44.3201647" lon="11.4851187"><ele>172.66666666666666</ele><time>2026-04-04T12:12:16.79Z</time></trkpt><trkpt lat="44.3202278" lon="11.485034"><ele>173.0</ele><time>2026-04-04T12:12:20.79Z</time></trkpt><trkpt lat="44.3203115" lon="11.4849935"><ele>173.0</ele><time>2026-04-04T12:12:22.789Z</time></trkpt><trkpt lat="44.3204217" lon="11.4850028"><ele>173.0</ele><time>2026-04-04T12:12:24.792Z</time></trkpt><trkpt lat="44.3204848" lon="11.4850313"><ele>173.0</ele><time>2026-04-04T12:12:25.79Z</time></trkpt><trkpt lat="44.3205457" lon="11.4850778"><ele>173.0</ele><time>2026-04-04T12:12:26.79Z</time></trkpt><trkpt lat="44.3205993" lon="11.4851417"><ele>173.0</ele><time>2026-04-04T12:12:27.79Z</time></trkpt><trkpt lat="44.3206487" lon="11.4852137"><ele>173.0</ele><time>2026-04-04T12:12:28.792Z</time></trkpt><trkpt lat="44.3207" lon="11.485278"><ele>173.28571428571428</ele><time>2026-04-04T12:12:29.788Z</time></trkpt><trkpt lat="44.3207595" lon="11.4853237"><ele>173.57142857142858</ele><time>2026-04-04T12:12:30.789Z</time></trkpt><trkpt lat="44.3208297" lon="11.48535"><ele>173.85714285714286</ele><time>2026-04-04T12:12:31.789Z</time></trkpt><trkpt lat="44.3209035" lon="11.4853608"><ele>174.14285714285714</ele><time>2026-04-04T12:12:32.788Z</time></trkpt><trkpt lat="44.3209785" lon="11.4853625"><ele>174.42857142857144</ele><time>2026-04-04T12:12:33.79Z</time></trkpt><trkpt lat="44.3210555" lon="11.4853598"><ele>174.71428571428572</ele><time>2026-04-04T12:12:34.789Z</time></trkpt><trkpt lat="44.321131" lon="11.4853508"><ele>175.0</ele><time>2026-04-04T12:12:35.79Z</time></trkpt><trkpt lat="44.3212052" lon="11.4853322"><ele>175.0</ele><time>2026-04-04T12:12:36.789Z</time></trkpt><trkpt lat="44.3212758" lon="11.4852997"><ele>175.0</ele><time>2026-04-04T12:12:37.789Z</time></trkpt><trkpt lat="44.3213375" lon="11.4852477"><ele>175.0</ele><time>2026-04-04T12:12:38.79Z</time></trkpt><trkpt lat="44.321393" lon="11.4851852"><ele>175.0</ele><time>2026-04-04T12:12:39.789Z</time></trkpt><trkpt lat="44.3214497" lon="11.4851208"><ele>175.0</ele><time>2026-04-04T12:12:40.789Z</time></trkpt><trkpt lat="44.3215095" lon="11.4850525"><ele>175.0</ele><time>2026-04-04T12:12:41.786Z</time></trkpt><trkpt lat="44.3215745" lon="11.4849797"><ele>175.66666666666669</ele><time>2026-04-04T12:12:42.787Z</time></trkpt><trkpt lat="44.3216435" lon="11.484907"><ele>176.33333333333334</ele><time>2026-04-04T12:12:43.788Z</time></trkpt><trkpt lat="44.3217133" lon="11.4848402"><ele>177.0</ele><time>2026-04-04T12:12:44.786Z</time></trkpt><trkpt lat="44.3217865" lon="11.4847745"><ele>177.66666666666666</ele><time>2026-04-04T12:12:45.79Z</time></trkpt><trkpt lat="44.3218617" lon="11.484709"><ele>178.33333333333331</ele><time>2026-04-04T12:12:46.79Z</time></trkpt><trkpt lat="44.3219353" lon="11.4846438"><ele>179.0</ele><time>2026-04-04T12:12:47.789Z</time></trkpt><trkpt lat="44.322003" lon="11.4845748"><ele>179.0</ele><time>2026-04-04T12:12:48.789Z</time></trkpt><trkpt lat="44.3220663" lon="11.4844992"><ele>179.0</ele><time>2026-04-04T12:12:49.789Z</time></trkpt><trkpt lat="44.3221232" lon="11.4844188"><ele>179.0</ele><time>2026-04-04T12:12:50.788Z</time></trkpt><trkpt lat="44.322176" lon="11.4843258"><ele>179.0</ele><time>2026-04-04T12:12:51.788Z</time></trkpt><trkpt lat="44.322225" lon="11.4842267"><ele>179.0</ele><time>2026-04-04T12:12:52.789Z</time></trkpt><trkpt lat="44.3222688" lon="11.4841217"><ele>179.0</ele><time>2026-04-04T12:12:53.79Z</time></trkpt><trkpt lat="44.3223055" lon="11.4840147"><ele>179.5</ele><time>2026-04-04T12:12:54.787Z</time></trkpt><trkpt lat="44.3223388" lon="11.4839127"><ele>180.0</ele><time>2026-04-04T12:12:55.79Z</time></trkpt><trkpt lat="44.3223842" lon="11.4838275"><ele>180.5</ele><time>2026-04-04T12:12:56.788Z</time></trkpt><trkpt lat="44.3224463" lon="11.4837693"><ele>181.0</ele><time>2026-04-04T12:12:57.789Z</time></trkpt><trkpt lat="44.3225183" lon="11.4837345"><ele>181.5</ele><time>2026-04-04T12:12:58.789Z</time></trkpt><trkpt lat="44.3225968" lon="11.4837048"><ele>182.0</ele><time>2026-04-04T12:12:59.789Z</time></trkpt><trkpt lat="44.322676" lon="11.4836732"><ele>182.66666666666666</ele><time>2026-04-04T12:13:00.789Z</time></trkpt><trkpt lat="44.3227572" lon="11.483639"><ele>183.33333333333331</ele><time>2026-04-04T12:13:01.789Z</time></trkpt><trkpt lat="44.3228383" lon="11.4835987"><ele>184.0</ele><time>2026-04-04T12:13:02.79Z</time></trkpt><trkpt lat="44.3229192" lon="11.4835598"><ele>184.66666666666666</ele><time>2026-04-04T12:13:03.791Z</time></trkpt><trkpt lat="44.3230008" lon="11.4835298"><ele>185.33333333333334</ele><time>2026-04-04T12:13:04.792Z</time></trkpt><trkpt lat="44.3230833" lon="11.4835173"><ele>186.0</ele><time>2026-04-04T12:13:05.793Z</time></trkpt><trkpt lat="44.3231667" lon="11.483526"><ele>186.0</ele><time>2026-04-04T12:13:06.789Z</time></trkpt><trkpt lat="44.3232502" lon="11.4835478"><ele>186.0</ele><time>2026-04-04T12:13:07.79Z</time></trkpt><trkpt lat="44.3233338" lon="11.4835737"><ele>186.0</ele><time>2026-04-04T12:13:08.789Z</time></trkpt><trkpt lat="44.3234202" lon="11.4835948"><ele>186.0</ele><time>2026-04-04T12:13:09.79Z</time></trkpt><trkpt lat="44.3235063" lon="11.4836087"><ele>186.0</ele><time>2026-04-04T12:13:10.789Z</time></trkpt><trkpt lat="44.323594" lon="11.4836158"><ele>186.0</ele><time>2026-04-04T12:13:11.791Z</time></trkpt><trkpt lat="44.323684" lon="11.483618"><ele>186.0</ele><time>2026-04-04T12:13:12.79Z</time></trkpt><trkpt lat="44.3237723" lon="11.4836197"><ele>186.0</ele><time>2026-04-04T12:13:13.792Z</time></trkpt><trkpt lat="44.3238617" lon="11.4836237"><ele>186.0</ele><time>2026-04-04T12:13:14.79Z</time></trkpt><trkpt lat="44.3239512" lon="11.4836275"><ele>186.0</ele><time>2026-04-04T12:13:15.79Z</time></trkpt><trkpt lat="44.324037" lon="11.4836302"><ele>186.0</ele><time>2026-04-04T12:13:16.791Z</time></trkpt><trkpt lat="44.3241218" lon="11.4836368"><ele>186.0</ele><time>2026-04-04T12:13:17.79Z</time></trkpt><trkpt lat="44.3242043" lon="11.4836463"><ele>186.33333333333334</ele><time>2026-04-04T12:13:18.792Z</time></trkpt><trkpt lat="44.3242882" lon="11.4836562"><ele>186.66666666666666</ele><time>2026-04-04T12:13:19.79Z</time></trkpt><trkpt lat="44.3243743" lon="11.4836632"><ele>187.0</ele><time>2026-04-04T12:13:20.789Z</time></trkpt><trkpt lat="44.3244605" lon="11.4836603"><ele>187.33333333333331</ele><time>2026-04-04T12:13:21.789Z</time></trkpt><trkpt lat="44.3245423" lon="11.4836418"><ele>187.66666666666666</ele><time>2026-04-04T12:13:22.787Z</time></trkpt><trkpt lat="44.3246192" lon="11.4836"><ele>188.0</ele><time>2026-04-04T12:13:23.789Z</time></trkpt><trkpt lat="44.3246947" lon="11.4835488"><ele>188.16666666666666</ele><time>2026-04-04T12:13:24.791Z</time></trkpt><trkpt lat="44.324771" lon="11.4835008"><ele>188.33333333333331</ele><time>2026-04-04T12:13:25.788Z</time></trkpt><trkpt lat="44.3248523" lon="11.4834605"><ele>188.5</ele><time>2026-04-04T12:13:26.787Z</time></trkpt><trkpt lat="44.3249377" lon="11.4834245"><ele>188.66666666666666</ele><time>2026-04-04T12:13:27.795Z</time></trkpt><trkpt lat="44.325025" lon="11.4833935"><ele>188.83333333333334</ele><time>2026-04-04T12:13:28.791Z</time></trkpt><trkpt lat="44.3251128" lon="11.4833732"><ele>189.0</ele><time>2026-04-04T12:13:29.787Z</time></trkpt><trkpt lat="44.3252022" lon="11.4833632"><ele>189.0</ele><time>2026-04-04T12:13:30.787Z</time></trkpt><trkpt lat="44.3252917" lon="11.4833595"><ele>189.0</ele><time>2026-04-04T12:13:31.787Z</time></trkpt><trkpt lat="44.3253795" lon="11.4833517"><ele>189.0</ele><time>2026-04-04T12:13:32.785Z</time></trkpt><trkpt lat="44.3254653" lon="11.4833328"><ele>189.0</ele><time>2026-04-04T12:13:33.786Z</time></trkpt><trkpt lat="44.3255482" lon="11.4833013"><ele>189.0</ele><time>2026-04-04T12:13:34.791Z</time></trkpt><trkpt lat="44.325627" lon="11.4832587"><ele>189.0</ele><time>2026-04-04T12:13:35.789Z</time></trkpt><trkpt lat="44.325706" lon="11.483212"><ele>189.66666666666666</ele><time>2026-04-04T12:13:36.79Z</time></trkpt><trkpt lat="44.325786" lon="11.4831765"><ele>190.33333333333331</ele><time>2026-04-04T12:13:37.791Z</time></trkpt><trkpt lat="44.325868" lon="11.4831507"><ele>191.0</ele><time>2026-04-04T12:13:38.791Z</time></trkpt><trkpt lat="44.3259505" lon="11.4831355"><ele>191.66666666666666</ele><time>2026-04-04T12:13:39.791Z</time></trkpt><trkpt lat="44.3260315" lon="11.4831315"><ele>192.33333333333331</ele><time>2026-04-04T12:13:40.792Z</time></trkpt><trkpt lat="44.3261072" lon="11.4831428"><ele>193.0</ele><time>2026-04-04T12:13:41.791Z</time></trkpt><trkpt lat="44.3261707" lon="11.4831648"><ele>193.0</ele><time>2026-04-04T12:13:42.79Z</time></trkpt><trkpt lat="44.3262693" lon="11.4832185"><ele>193.0</ele><time>2026-04-04T12:13:44.789Z</time></trkpt><trkpt lat="44.3263618" lon="11.4832775"><ele>193.0</ele><time>2026-04-04T12:13:46.789Z</time></trkpt><trkpt lat="44.3264588" lon="11.4833597"><ele>193.0</ele><time>2026-04-04T12:13:48.791Z</time></trkpt><trkpt lat="44.3265623" lon="11.4834602"><ele>193.0</ele><time>2026-04-04T12:13:50.788Z</time></trkpt><trkpt lat="44.3266203" lon="11.4835105"><ele>193.14285714285717</ele><time>2026-04-04T12:13:51.789Z</time></trkpt><trkpt lat="44.3266832" lon="11.4835573"><ele>193.28571428571428</ele><time>2026-04-04T12:13:52.788Z</time></trkpt><trkpt lat="44.3267508" lon="11.4835987"><ele>193.42857142857144</ele><time>2026-04-04T12:13:53.787Z</time></trkpt><trkpt lat="44.3268203" lon="11.4836332"><ele>193.57142857142858</ele><time>2026-04-04T12:13:54.788Z</time></trkpt><trkpt lat="44.3268927" lon="11.4836528"><ele>193.71428571428572</ele><time>2026-04-04T12:13:55.787Z</time></trkpt><trkpt lat="44.3269675" lon="11.4836602"><ele>193.85714285714286</ele><time>2026-04-04T12:13:56.786Z</time></trkpt><trkpt lat="44.3270427" lon="11.4836543"><ele>194.0</ele><time>2026-04-04T12:13:57.787Z</time></trkpt><trkpt lat="44.3271192" lon="11.4836405"><ele>194.00000000000003</ele><time>2026-04-04T12:13:58.787Z</time></trkpt><trkpt lat="44.3271942" lon="11.4836207"><ele>194.0</ele><time>2026-04-04T12:13:59.79Z</time></trkpt><trkpt lat="44.3272665" lon="11.4836012"><ele>194.0</ele><time>2026-04-04T12:14:00.791Z</time></trkpt><trkpt lat="44.3273408" lon="11.4835838"><ele>194.0</ele><time>2026-04-04T12:14:01.789Z</time></trkpt><trkpt lat="44.327415" lon="11.4835568"><ele>194.00000000000003</ele><time>2026-04-04T12:14:02.789Z</time></trkpt><trkpt lat="44.3274897" lon="11.4835212"><ele>194.0</ele><time>2026-04-04T12:14:03.789Z</time></trkpt><trkpt lat="44.327562" lon="11.4834817"><ele>194.33333333333334</ele><time>2026-04-04T12:14:04.79Z</time></trkpt><trkpt lat="44.327635" lon="11.4834423"><ele>194.66666666666669</ele><time>2026-04-04T12:14:05.788Z</time></trkpt><trkpt lat="44.3277093" lon="11.4834068"><ele>195.0</ele><time>2026-04-04T12:14:06.791Z</time></trkpt><trkpt lat="44.3277853" lon="11.4833785"><ele>195.33333333333331</ele><time>2026-04-04T12:14:07.792Z</time></trkpt><trkpt lat="44.3278622" lon="11.4833623"><ele>195.66666666666666</ele><time>2026-04-04T12:14:08.788Z</time></trkpt><trkpt lat="44.3279397" lon="11.483357"><ele>196.0</ele><time>2026-04-04T12:14:09.789Z</time></trkpt><trkpt lat="44.3280162" lon="11.4833603"><ele>196.49999999999997</ele><time>2026-04-04T12:14:10.79Z</time></trkpt><trkpt lat="44.3280897" lon="11.48336"><ele>197.0</ele><time>2026-04-04T12:14:11.788Z</time></trkpt><trkpt lat="44.3281632" lon="11.4833483"><ele>197.5</ele><time>2026-04-04T12:14:12.789Z</time></trkpt><trkpt lat="44.3282383" lon="11.4833272"><ele>198.0</ele><time>2026-04-04T12:14:13.788Z</time></trkpt><trkpt lat="44.3283137" lon="11.4833023"><ele>198.49999999999997</ele><time>2026-04-04T12:14:14.789Z</time></trkpt><trkpt lat="44.3283888" lon="11.4832707"><ele>199.0</ele><time>2026-04-04T12:14:15.789Z</time></trkpt><trkpt lat="44.3284623" lon="11.4832288"><ele>198.99999999999997</ele><time>2026-04-04T12:14:16.788Z</time></trkpt><trkpt lat="44.3285333" lon="11.4831777"><ele>199.0</ele><time>2026-04-04T12:14:17.789Z</time></trkpt><trkpt lat="44.3286035" lon="11.4831208"><ele>199.0</ele><time>2026-04-04T12:14:18.793Z</time></trkpt><trkpt lat="44.328672" lon="11.4830605"><ele>199.0</ele><time>2026-04-04T12:14:19.789Z</time></trkpt><trkpt lat="44.3287368" lon="11.4829925"><ele>198.99999999999997</ele><time>2026-04-04T12:14:20.787Z</time></trkpt><trkpt lat="44.3287983" lon="11.4829165"><ele>199.0</ele><time>2026-04-04T12:14:21.788Z</time></trkpt><trkpt lat="44.3288558" lon="11.4828365"><ele>200.33333333333331</ele><time>2026-04-04T12:14:22.787Z</time></trkpt><trkpt lat="44.3289097" lon="11.482756"><ele>201.66666666666666</ele><time>2026-04-04T12:14:23.791Z</time></trkpt><trkpt lat="44.3289645" lon="11.4826835"><ele>203.0</ele><time>2026-04-04T12:14:24.789Z</time></trkpt><trkpt lat="44.3290235" lon="11.4826127"><ele>204.33333333333331</ele><time>2026-04-04T12:14:25.789Z</time></trkpt><trkpt lat="44.329086" lon="11.482553"><ele>205.66666666666666</ele><time>2026-04-04T12:14:26.788Z</time></trkpt><trkpt lat="44.3291548" lon="11.4825097"><ele>207.0</ele><time>2026-04-04T12:14:27.788Z</time></trkpt><trkpt lat="44.3292293" lon="11.4824797"><ele>207.0</ele><time>2026-04-04T12:14:28.789Z</time></trkpt><trkpt lat="44.329307" lon="11.4824595"><ele>207.0</ele><time>2026-04-04T12:14:29.791Z</time></trkpt><trkpt lat="44.3293855" lon="11.4824467"><ele>207.0</ele><time>2026-04-04T12:14:30.788Z</time></trkpt><trkpt lat="44.3294653" lon="11.4824345"><ele>207.0</ele><time>2026-04-04T12:14:31.791Z</time></trkpt><trkpt lat="44.3295455" lon="11.4824298"><ele>207.0</ele><time>2026-04-04T12:14:32.793Z</time></trkpt><trkpt lat="44.3296255" lon="11.4824385"><ele>207.0</ele><time>2026-04-04T12:14:33.791Z</time></trkpt><trkpt lat="44.3297022" lon="11.4824615"><ele>206.83333333333334</ele><time>2026-04-04T12:14:34.79Z</time></trkpt><trkpt lat="44.3297782" lon="11.4824947"><ele>206.66666666666669</ele><time>2026-04-04T12:14:35.79Z</time></trkpt><trkpt lat="44.3298523" lon="11.4825323"><ele>206.5</ele><time>2026-04-04T12:14:36.79Z</time></trkpt><trkpt lat="44.3299273" lon="11.482568"><ele>206.33333333333334</ele><time>2026-04-04T12:14:37.79Z</time></trkpt><trkpt lat="44.3300038" lon="11.482596"><ele>206.16666666666669</ele><time>2026-04-04T12:14:38.789Z</time></trkpt><trkpt lat="44.3300815" lon="11.4826143"><ele>206.0</ele><time>2026-04-04T12:14:39.789Z</time></trkpt><trkpt lat="44.330159" lon="11.4826268"><ele>206.00000000000003</ele><time>2026-04-04T12:14:40.791Z</time></trkpt><trkpt lat="44.3302367" lon="11.4826332"><ele>206.0</ele><time>2026-04-04T12:14:41.789Z</time></trkpt><trkpt lat="44.3303128" lon="11.4826302"><ele>206.0</ele><time>2026-04-04T12:14:42.788Z</time></trkpt><trkpt lat="44.3303905" lon="11.4826212"><ele>206.0</ele><time>2026-04-04T12:14:43.788Z</time></trkpt><trkpt lat="44.3304667" lon="11.482618"><ele>206.00000000000003</ele><time>2026-04-04T12:14:44.786Z</time></trkpt><trkpt lat="44.3305428" lon="11.4826213"><ele>206.0</ele><time>2026-04-04T12:14:45.787Z</time></trkpt><trkpt lat="44.3306197" lon="11.4826268"><ele>206.66666666666669</ele><time>2026-04-04T12:14:46.788Z</time></trkpt><trkpt lat="44.3306993" lon="11.4826335"><ele>207.33333333333334</ele><time>2026-04-04T12:14:47.788Z</time></trkpt><trkpt lat="44.3307807" lon="11.4826433"><ele>208.0</ele><time>2026-04-04T12:14:48.792Z</time></trkpt><trkpt lat="44.3308608" lon="11.4826588"><ele>208.66666666666669</ele><time>2026-04-04T12:14:49.789Z</time></trkpt><trkpt lat="44.3309403" lon="11.482684"><ele>209.33333333333334</ele><time>2026-04-04T12:14:50.788Z</time></trkpt><trkpt lat="44.3310182" lon="11.4827198"><ele>210.0</ele><time>2026-04-04T12:14:51.789Z</time></trkpt><trkpt lat="44.3310945" lon="11.4827615"><ele>210.0</ele><time>2026-04-04T12:14:52.789Z</time></trkpt><trkpt lat="44.3311675" lon="11.4828067"><ele>210.0</ele><time>2026-04-04T12:14:53.789Z</time></trkpt><trkpt lat="44.3312395" lon="11.4828468"><ele>210.0</ele><time>2026-04-04T12:14:54.791Z</time></trkpt><trkpt lat="44.3313147" lon="11.4828765"><ele>210.0</ele><time>2026-04-04T12:14:55.79Z</time></trkpt><trkpt lat="44.3313905" lon="11.4828972"><ele>210.0</ele><time>2026-04-04T12:14:56.791Z</time></trkpt><trkpt lat="44.3314702" lon="11.4829102"><ele>210.0</ele><time>2026-04-04T12:14:57.789Z</time></trkpt><trkpt lat="44.3315492" lon="11.4829158"><ele>210.66666666666666</ele><time>2026-04-04T12:14:58.79Z</time></trkpt><trkpt lat="44.3316275" lon="11.48292"><ele>211.33333333333331</ele><time>2026-04-04T12:14:59.79Z</time></trkpt><trkpt lat="44.3317045" lon="11.4829252"><ele>212.0</ele><time>2026-04-04T12:15:00.79Z</time></trkpt><trkpt lat="44.3317807" lon="11.4829332"><ele>212.66666666666666</ele><time>2026-04-04T12:15:01.79Z</time></trkpt><trkpt lat="44.3318562" lon="11.4829438"><ele>213.33333333333331</ele><time>2026-04-04T12:15:02.79Z</time></trkpt><trkpt lat="44.3319325" lon="11.4829562"><ele>214.0</ele><time>2026-04-04T12:15:03.789Z</time></trkpt><trkpt lat="44.3320083" lon="11.4829687"><ele>213.99999999999997</ele><time>2026-04-04T12:15:04.789Z</time></trkpt><trkpt lat="44.3320842" lon="11.4829762"><ele>214.0</ele><time>2026-04-04T12:15:05.787Z</time></trkpt><trkpt lat="44.3321613" lon="11.482984"><ele>214.0</ele><time>2026-04-04T12:15:06.789Z</time></trkpt><trkpt lat="44.3322383" lon="11.4829925"><ele>214.0</ele><time>2026-04-04T12:15:07.79Z</time></trkpt><trkpt lat="44.3323147" lon="11.4830043"><ele>213.99999999999997</ele><time>2026-04-04T12:15:08.787Z</time></trkpt><trkpt lat="44.3323907" lon="11.4830215"><ele>214.0</ele><time>2026-04-04T12:15:09.787Z</time></trkpt><trkpt lat="44.3324665" lon="11.4830432"><ele>214.00000000000003</ele><time>2026-04-04T12:15:10.788Z</time></trkpt><trkpt lat="44.3325425" lon="11.4830647"><ele>214.0</ele><time>2026-04-04T12:15:11.787Z</time></trkpt><trkpt lat="44.3326168" lon="11.4830842"><ele>214.0</ele><time>2026-04-04T12:15:12.787Z</time></trkpt><trkpt lat="44.3326875" lon="11.4831047"><ele>214.0</ele><time>2026-04-04T12:15:13.79Z</time></trkpt><trkpt lat="44.3327583" lon="11.483125"><ele>214.0</ele><time>2026-04-04T12:15:14.789Z</time></trkpt><trkpt lat="44.3328278" lon="11.4831437"><ele>214.00000000000003</ele><time>2026-04-04T12:15:15.791Z</time></trkpt><trkpt lat="44.3328927" lon="11.4831638"><ele>214.0</ele><time>2026-04-04T12:15:16.79Z</time></trkpt><trkpt lat="44.3330082" lon="11.4831947"><ele>215.6</ele><time>2026-04-04T12:15:18.788Z</time></trkpt><trkpt lat="44.3331068" lon="11.4831352"><ele>217.2</ele><time>2026-04-04T12:15:20.789Z</time></trkpt><trkpt lat="44.333155" lon="11.4830777"><ele>218.79999999999998</ele><time>2026-04-04T12:15:25.792Z</time></trkpt><trkpt lat="44.3330965" lon="11.4831682"><ele>220.39999999999998</ele><time>2026-04-04T12:17:06.789Z</time></trkpt><trkpt lat="44.333145" lon="11.4830722"><ele>222.0</ele><time>2026-04-04T12:17:24.79Z</time></trkpt><trkpt lat="44.333226" lon="11.4829387"><ele>222.83333333333334</ele><time>2026-04-04T12:17:26.79Z</time></trkpt><trkpt lat="44.3332718" lon="11.4828605"><ele>223.66666666666669</ele><time>2026-04-04T12:17:27.788Z</time></trkpt><trkpt lat="44.3333242" lon="11.4827788"><ele>224.5</ele><time>2026-04-04T12:17:28.788Z</time></trkpt><trkpt lat="44.3333775" lon="11.4826913"><ele>225.33333333333334</ele><time>2026-04-04T12:17:29.789Z</time></trkpt><trkpt lat="44.3334273" lon="11.482592"><ele>226.16666666666669</ele><time>2026-04-04T12:17:30.79Z</time></trkpt><trkpt lat="44.3334713" lon="11.4824795"><ele>227.0</ele><time>2026-04-04T12:17:31.79Z</time></trkpt><trkpt lat="44.3335075" lon="11.4823565"><ele>227.0</ele><time>2026-04-04T12:17:32.791Z</time></trkpt><trkpt lat="44.3335888" lon="11.4821135"><ele>227.0</ele><time>2026-04-04T12:17:34.788Z</time></trkpt><trkpt lat="44.3336452" lon="11.4820037"><ele>227.0</ele><time>2026-04-04T12:17:35.785Z</time></trkpt><trkpt lat="44.3337103" lon="11.481907"><ele>227.0</ele><time>2026-04-04T12:17:36.786Z</time></trkpt><trkpt lat="44.3337833" lon="11.4818232"><ele>227.39999999999998</ele><time>2026-04-04T12:17:37.786Z</time></trkpt><trkpt lat="44.3338628" lon="11.481752"><ele>227.79999999999998</ele><time>2026-04-04T12:17:38.786Z</time></trkpt><trkpt lat="44.3339455" lon="11.4816885"><ele>228.2</ele><time>2026-04-04T12:17:39.792Z</time></trkpt><trkpt lat="44.3340297" lon="11.4816288"><ele>228.6</ele><time>2026-04-04T12:17:40.796Z</time></trkpt><trkpt lat="44.3341123" lon="11.4815732"><ele>229.0</ele><time>2026-04-04T12:17:41.791Z</time></trkpt><trkpt lat="44.3341938" lon="11.4815112"><ele>229.0</ele><time>2026-04-04T12:17:42.79Z</time></trkpt><trkpt lat="44.3342758" lon="11.481449"><ele>228.99999999999997</ele><time>2026-04-04T12:17:43.792Z</time></trkpt><trkpt lat="44.3343565" lon="11.4813815"><ele>228.99999999999997</ele><time>2026-04-04T12:17:44.789Z</time></trkpt><trkpt lat="44.334435" lon="11.4813118"><ele>229.0</ele><time>2026-04-04T12:17:45.79Z</time></trkpt><trkpt lat="44.3345137" lon="11.4812427"><ele>229.0</ele><time>2026-04-04T12:17:46.791Z</time></trkpt><trkpt lat="44.3345913" lon="11.4811765"><ele>229.0</ele><time>2026-04-04T12:17:47.789Z</time></trkpt><trkpt lat="44.3346683" lon="11.4811045"><ele>228.99999999999997</ele><time>2026-04-04T12:17:48.791Z</time></trkpt><trkpt lat="44.3347468" lon="11.4810292"><ele>228.99999999999997</ele><time>2026-04-04T12:17:49.789Z</time></trkpt><trkpt lat="44.3348293" lon="11.4809603"><ele>229.0</ele><time>2026-04-04T12:17:50.789Z</time></trkpt><trkpt lat="44.3349165" lon="11.4808967"><ele>229.0</ele><time>2026-04-04T12:17:51.788Z</time></trkpt><trkpt lat="44.3350013" lon="11.4808297"><ele>229.0</ele><time>2026-04-04T12:17:52.789Z</time></trkpt><trkpt lat="44.3350812" lon="11.48076"><ele>228.99999999999997</ele><time>2026-04-04T12:17:53.79Z</time></trkpt><trkpt lat="44.3351588" lon="11.4806867"><ele>228.99999999999997</ele><time>2026-04-04T12:17:54.792Z</time></trkpt><trkpt lat="44.3352368" lon="11.480616"><ele>229.0</ele><time>2026-04-04T12:17:55.79Z</time></trkpt><trkpt lat="44.3353172" lon="11.4805552"><ele>229.0</ele><time>2026-04-04T12:17:56.791Z</time></trkpt><trkpt lat="44.3353985" lon="11.4804982"><ele>229.0</ele><time>2026-04-04T12:17:57.789Z</time></trkpt><trkpt lat="44.3354802" lon="11.4804385"><ele>228.99999999999997</ele><time>2026-04-04T12:17:58.791Z</time></trkpt><trkpt lat="44.3355618" lon="11.4803778"><ele>228.99999999999997</ele><time>2026-04-04T12:17:59.789Z</time></trkpt><trkpt lat="44.335642" lon="11.4803113"><ele>229.0</ele><time>2026-04-04T12:18:00.786Z</time></trkpt><trkpt lat="44.3357173" lon="11.4802363"><ele>229.0</ele><time>2026-04-04T12:18:01.786Z</time></trkpt><trkpt lat="44.3357898" lon="11.4801585"><ele>230.79999999999998</ele><time>2026-04-04T12:18:02.787Z</time></trkpt><trkpt lat="44.335863" lon="11.4800827"><ele>232.59999999999997</ele><time>2026-04-04T12:18:03.787Z</time></trkpt><trkpt lat="44.3359387" lon="11.4800115"><ele>234.4</ele><time>2026-04-04T12:18:04.791Z</time></trkpt><trkpt lat="44.3360172" lon="11.47995"><ele>236.2</ele><time>2026-04-04T12:18:05.791Z</time></trkpt><trkpt lat="44.3360968" lon="11.4798932"><ele>238.0</ele><time>2026-04-04T12:18:06.79Z</time></trkpt><trkpt lat="44.3361778" lon="11.4798425"><ele>237.99999999999997</ele><time>2026-04-04T12:18:07.791Z</time></trkpt><trkpt lat="44.336255" lon="11.4797935"><ele>238.0</ele><time>2026-04-04T12:18:08.791Z</time></trkpt><trkpt lat="44.336329" lon="11.479746"><ele>238.0</ele><time>2026-04-04T12:18:09.79Z</time></trkpt><trkpt lat="44.3364043" lon="11.4797062"><ele>238.0</ele><time>2026-04-04T12:18:10.79Z</time></trkpt><trkpt lat="44.3364812" lon="11.4796747"><ele>237.99999999999997</ele><time>2026-04-04T12:18:11.79Z</time></trkpt><trkpt lat="44.33656" lon="11.4796488"><ele>238.0</ele><time>2026-04-04T12:18:12.794Z</time></trkpt><trkpt lat="44.336639" lon="11.479633"><ele>238.33333333333331</ele><time>2026-04-04T12:18:13.789Z</time></trkpt><trkpt lat="44.3367178" lon="11.4796253"><ele>238.66666666666666</ele><time>2026-04-04T12:18:14.791Z</time></trkpt><trkpt lat="44.3367957" lon="11.4796188"><ele>239.0</ele><time>2026-04-04T12:18:15.791Z</time></trkpt><trkpt lat="44.3368715" lon="11.479608"><ele>239.33333333333331</ele><time>2026-04-04T12:18:16.791Z</time></trkpt><trkpt lat="44.336946" lon="11.479589"><ele>239.66666666666666</ele><time>2026-04-04T12:18:17.792Z</time></trkpt><trkpt lat="44.337021" lon="11.479564"><ele>240.0</ele><time>2026-04-04T12:18:18.791Z</time></trkpt><trkpt lat="44.3370952" lon="11.4795382"><ele>241.0</ele><time>2026-04-04T12:18:19.792Z</time></trkpt><trkpt lat="44.3371685" lon="11.47951"><ele>242.0</ele><time>2026-04-04T12:18:20.792Z</time></trkpt><trkpt lat="44.3372425" lon="11.4794778"><ele>243.0</ele><time>2026-04-04T12:18:21.791Z</time></trkpt><trkpt lat="44.3373168" lon="11.479445"><ele>244.0</ele><time>2026-04-04T12:18:22.792Z</time></trkpt><trkpt lat="44.3373918" lon="11.4794062"><ele>245.0</ele><time>2026-04-04T12:18:23.79Z</time></trkpt><trkpt lat="44.3374703" lon="11.4793658"><ele>246.0</ele><time>2026-04-04T12:18:24.789Z</time></trkpt><trkpt lat="44.3375558" lon="11.4793355"><ele>246.8</ele><time>2026-04-04T12:18:25.788Z</time></trkpt><trkpt lat="44.3376457" lon="11.4793252"><ele>247.60000000000002</ele><time>2026-04-04T12:18:26.788Z</time></trkpt><trkpt lat="44.3377382" lon="11.4793345"><ele>248.4</ele><time>2026-04-04T12:18:27.791Z</time></trkpt><trkpt lat="44.337832" lon="11.4793707"><ele>249.2</ele><time>2026-04-04T12:18:28.79Z</time></trkpt><trkpt lat="44.3379245" lon="11.4794305"><ele>250.0</ele><time>2026-04-04T12:18:29.789Z</time></trkpt><trkpt lat="44.3380202" lon="11.4794995"><ele>252.25</ele><time>2026-04-04T12:18:30.793Z</time></trkpt><trkpt lat="44.3381175" lon="11.4795645"><ele>254.5</ele><time>2026-04-04T12:18:31.788Z</time></trkpt><trkpt lat="44.3382167" lon="11.479623"><ele>256.75</ele><time>2026-04-04T12:18:32.787Z</time></trkpt><trkpt lat="44.33833" lon="11.4796827"><ele>259.0</ele><time>2026-04-04T12:18:33.789Z</time></trkpt><trkpt lat="44.3384552" lon="11.4797468"><ele>259.0</ele><time>2026-04-04T12:18:34.793Z</time></trkpt><trkpt lat="44.3385797" lon="11.4798187"><ele>259.0</ele><time>2026-04-04T12:18:35.79Z</time></trkpt><trkpt lat="44.3386983" lon="11.4798962"><ele>259.0</ele><time>2026-04-04T12:18:36.788Z</time></trkpt><trkpt lat="44.3388115" lon="11.4799605"><ele>259.0</ele><time>2026-04-04T12:18:37.787Z</time></trkpt><trkpt lat="44.3389353" lon="11.4799947"><ele>261.75</ele><time>2026-04-04T12:18:38.792Z</time></trkpt><trkpt lat="44.3390653" lon="11.4800015"><ele>264.5</ele><time>2026-04-04T12:18:39.788Z</time></trkpt><trkpt lat="44.339194" lon="11.4799733"><ele>267.25</ele><time>2026-04-04T12:18:40.788Z</time></trkpt><trkpt lat="44.3393153" lon="11.4799193"><ele>270.0</ele><time>2026-04-04T12:18:41.79Z</time></trkpt><trkpt lat="44.3394377" lon="11.479844"><ele>270.0</ele><time>2026-04-04T12:18:42.788Z</time></trkpt><trkpt lat="44.3395492" lon="11.4797445"><ele>270.0</ele><time>2026-04-04T12:18:43.79Z</time></trkpt><trkpt lat="44.339654" lon="11.4796415"><ele>270.0</ele><time>2026-04-04T12:18:44.787Z</time></trkpt><trkpt lat="44.3397627" lon="11.4795502"><ele>270.0</ele><time>2026-04-04T12:18:45.79Z</time></trkpt><trkpt lat="44.3398742" lon="11.4794778"><ele>271.6</ele><time>2026-04-04T12:18:46.791Z</time></trkpt><trkpt lat="44.3399762" lon="11.4794262"><ele>273.2</ele><time>2026-04-04T12:18:47.79Z</time></trkpt><trkpt lat="44.340064" lon="11.4793518"><ele>274.8</ele><time>2026-04-04T12:18:48.788Z</time></trkpt><trkpt lat="44.3401258" lon="11.4792495"><ele>276.4</ele><time>2026-04-04T12:18:49.786Z</time></trkpt><trkpt lat="44.340155" lon="11.4791278"><ele>278.0</ele><time>2026-04-04T12:18:50.785Z</time></trkpt><trkpt lat="44.3401778" lon="11.4789953"><ele>278.0</ele><time>2026-04-04T12:18:51.786Z</time></trkpt><trkpt lat="44.340215" lon="11.4788723"><ele>278.0</ele><time>2026-04-04T12:18:52.788Z</time></trkpt><trkpt lat="44.340278" lon="11.4787663"><ele>278.0</ele><time>2026-04-04T12:18:53.787Z</time></trkpt><trkpt lat="44.340365" lon="11.4786852"><ele>278.0</ele><time>2026-04-04T12:18:54.789Z</time></trkpt><trkpt lat="44.3404655" lon="11.478638"><ele>278.0</ele><time>2026-04-04T12:18:55.789Z</time></trkpt><trkpt lat="44.3405685" lon="11.4786213"><ele>281.0</ele><time>2026-04-04T12:18:56.789Z</time></trkpt><trkpt lat="44.3406693" lon="11.4786408"><ele>284.0</ele><time>2026-04-04T12:18:57.788Z</time></trkpt><trkpt lat="44.3407685" lon="11.4787015"><ele>287.0</ele><time>2026-04-04T12:18:58.788Z</time></trkpt><trkpt lat="44.3408537" lon="11.478797"><ele>290.0</ele><time>2026-04-04T12:18:59.788Z</time></trkpt><trkpt lat="44.3409277" lon="11.4789168"><ele>293.0</ele><time>2026-04-04T12:19:00.789Z</time></trkpt><trkpt lat="44.3409927" lon="11.4790542"><ele>293.0</ele><time>2026-04-04T12:19:01.791Z</time></trkpt><trkpt lat="44.3410512" lon="11.4791903"><ele>293.0</ele><time>2026-04-04T12:19:02.789Z</time></trkpt><trkpt lat="44.3411038" lon="11.4793137"><ele>293.0</ele><time>2026-04-04T12:19:03.788Z</time></trkpt><trkpt lat="44.3411608" lon="11.4794113"><ele>293.0</ele><time>2026-04-04T12:19:04.789Z</time></trkpt><trkpt lat="44.3412292" lon="11.4794785"><ele>293.0</ele><time>2026-04-04T12:19:05.788Z</time></trkpt><trkpt lat="44.3413208" lon="11.4795173"><ele>294.25</ele><time>2026-04-04T12:19:06.788Z</time></trkpt><trkpt lat="44.3414357" lon="11.4795318"><ele>295.5</ele><time>2026-04-04T12:19:07.788Z</time></trkpt><trkpt lat="44.341551" lon="11.4795302"><ele>296.75</ele><time>2026-04-04T12:19:08.788Z</time></trkpt><trkpt lat="44.341669" lon="11.4795235"><ele>298.0</ele><time>2026-04-04T12:19:09.788Z</time></trkpt><trkpt lat="44.3417772" lon="11.4795262"><ele>298.0</ele><time>2026-04-04T12:19:10.787Z</time></trkpt><trkpt lat="44.3418808" lon="11.4795713"><ele>298.0</ele><time>2026-04-04T12:19:11.793Z</time></trkpt><trkpt lat="44.341987" lon="11.4796547"><ele>298.0</ele><time>2026-04-04T12:19:12.787Z</time></trkpt><trkpt lat="44.3420968" lon="11.4797453"><ele>298.0</ele><time>2026-04-04T12:19:13.786Z</time></trkpt><trkpt lat="44.3422157" lon="11.4798272"><ele>301.0</ele><time>2026-04-04T12:19:14.791Z</time></trkpt><trkpt lat="44.3423372" lon="11.4799032"><ele>304.0</ele><time>2026-04-04T12:19:15.783Z</time></trkpt><trkpt lat="44.342457" lon="11.4799783"><ele>307.0</ele><time>2026-04-04T12:19:16.784Z</time></trkpt><trkpt lat="44.3425742" lon="11.4800647"><ele>310.0</ele><time>2026-04-04T12:19:17.787Z</time></trkpt><trkpt lat="44.3427605" lon="11.4802952"><ele>310.0</ele><time>2026-04-04T12:19:19.785Z</time></trkpt><trkpt lat="44.342845" lon="11.4804213"><ele>310.0</ele><time>2026-04-04T12:19:20.786Z</time></trkpt><trkpt lat="44.3429433" lon="11.4805373"><ele>310.0</ele><time>2026-04-04T12:19:21.787Z</time></trkpt><trkpt lat="44.3430485" lon="11.4806573"><ele>310.0</ele><time>2026-04-04T12:19:22.788Z</time></trkpt><trkpt lat="44.3431505" lon="11.480777"><ele>314.0</ele><time>2026-04-04T12:19:23.787Z</time></trkpt><trkpt lat="44.3432502" lon="11.4809078"><ele>318.0</ele><time>2026-04-04T12:19:24.79Z</time></trkpt><trkpt lat="44.3433378" lon="11.4810455"><ele>322.0</ele><time>2026-04-04T12:19:25.787Z</time></trkpt><trkpt lat="44.343413" lon="11.4811745"><ele>326.0</ele><time>2026-04-04T12:19:26.788Z</time></trkpt><trkpt lat="44.3434938" lon="11.4812917"><ele>326.25</ele><time>2026-04-04T12:19:27.788Z</time></trkpt><trkpt lat="44.3435935" lon="11.481382"><ele>326.5</ele><time>2026-04-04T12:19:28.787Z</time></trkpt><trkpt lat="44.3437113" lon="11.4814432"><ele>326.75</ele><time>2026-04-04T12:19:29.789Z</time></trkpt><trkpt lat="44.3438317" lon="11.4814898"><ele>327.0</ele><time>2026-04-04T12:19:30.788Z</time></trkpt><trkpt lat="44.3439473" lon="11.4815437"><ele>330.0</ele><time>2026-04-04T12:19:31.788Z</time></trkpt><trkpt lat="44.344063" lon="11.4815983"><ele>333.0</ele><time>2026-04-04T12:19:32.791Z</time></trkpt><trkpt lat="44.3441763" lon="11.4816542"><ele>336.0</ele><time>2026-04-04T12:19:33.785Z</time></trkpt><trkpt lat="44.3442813" lon="11.4817277"><ele>339.0</ele><time>2026-04-04T12:19:34.788Z</time></trkpt><trkpt lat="44.3443763" lon="11.4818223"><ele>339.0</ele><time>2026-04-04T12:19:35.789Z</time></trkpt><trkpt lat="44.3444512" lon="11.4819268"><ele>339.0</ele><time>2026-04-04T12:19:36.788Z</time></trkpt><trkpt lat="44.3445223" lon="11.4820198"><ele>339.0</ele><time>2026-04-04T12:19:37.789Z</time></trkpt><trkpt lat="44.344607" lon="11.4820872"><ele>339.0</ele><time>2026-04-04T12:19:38.784Z</time></trkpt><trkpt lat="44.3447052" lon="11.482147"><ele>339.0</ele><time>2026-04-04T12:19:39.785Z</time></trkpt><trkpt lat="44.3448052" lon="11.4822127"><ele>341.75</ele><time>2026-04-04T12:19:40.787Z</time></trkpt><trkpt lat="44.344905" lon="11.482272"><ele>344.5</ele><time>2026-04-04T12:19:41.787Z</time></trkpt><trkpt lat="44.3451058" lon="11.4823307"><ele>347.25</ele><time>2026-04-04T12:19:43.79Z</time></trkpt><trkpt lat="44.345191" lon="11.482337"><ele>350.0</ele><time>2026-04-04T12:19:44.789Z</time></trkpt><trkpt lat="44.3452697" lon="11.4823073"><ele>350.0</ele><time>2026-04-04T12:19:45.79Z</time></trkpt><trkpt lat="44.3453282" lon="11.4822307"><ele>350.0</ele><time>2026-04-04T12:19:46.791Z</time></trkpt><trkpt lat="44.3453525" lon="11.4821262"><ele>350.0</ele><time>2026-04-04T12:19:47.79Z</time></trkpt><trkpt lat="44.3453395" lon="11.4820178"><ele>350.0</ele><time>2026-04-04T12:19:48.789Z</time></trkpt><trkpt lat="44.345291" lon="11.4819208"><ele>350.0</ele><time>2026-04-04T12:19:49.792Z</time></trkpt><trkpt lat="44.3452135" lon="11.4818307"><ele>350.0</ele><time>2026-04-04T12:19:50.791Z</time></trkpt><trkpt lat="44.3451143" lon="11.4817498"><ele>352.0</ele><time>2026-04-04T12:19:51.789Z</time></trkpt><trkpt lat="44.3450247" lon="11.4816825"><ele>354.0</ele><time>2026-04-04T12:19:52.795Z</time></trkpt><trkpt lat="44.3449622" lon="11.4815942"><ele>356.0</ele><time>2026-04-04T12:19:53.788Z</time></trkpt><trkpt lat="44.3449292" lon="11.4814768"><ele>358.0</ele><time>2026-04-04T12:19:54.789Z</time></trkpt><trkpt lat="44.3449298" lon="11.4813562"><ele>360.0</ele><time>2026-04-04T12:19:55.791Z</time></trkpt><trkpt lat="44.3449568" lon="11.4812375"><ele>362.25</ele><time>2026-04-04T12:19:56.791Z</time></trkpt><trkpt lat="44.3450052" lon="11.4811145"><ele>364.5</ele><time>2026-04-04T12:19:57.789Z</time></trkpt><trkpt lat="44.3450668" lon="11.4809847"><ele>366.75</ele><time>2026-04-04T12:19:58.791Z</time></trkpt><trkpt lat="44.3451303" lon="11.4808383"><ele>369.0</ele><time>2026-04-04T12:19:59.79Z</time></trkpt><trkpt lat="44.3451972" lon="11.4806752"><ele>369.0</ele><time>2026-04-04T12:20:00.79Z</time></trkpt><trkpt lat="44.3452705" lon="11.4805107"><ele>369.0</ele><time>2026-04-04T12:20:01.789Z</time></trkpt><trkpt lat="44.3453385" lon="11.4803598"><ele>369.0</ele><time>2026-04-04T12:20:02.787Z</time></trkpt><trkpt lat="44.3454018" lon="11.480228"><ele>369.0</ele><time>2026-04-04T12:20:03.787Z</time></trkpt><trkpt lat="44.3454572" lon="11.480114"><ele>368.6</ele><time>2026-04-04T12:20:04.788Z</time></trkpt><trkpt lat="44.345512" lon="11.4800003"><ele>368.2</ele><time>2026-04-04T12:20:05.786Z</time></trkpt><trkpt lat="44.3455753" lon="11.4798983"><ele>367.8</ele><time>2026-04-04T12:20:06.79Z</time></trkpt><trkpt lat="44.3456505" lon="11.4798342"><ele>367.40000000000003</ele><time>2026-04-04T12:20:07.791Z</time></trkpt><trkpt lat="44.3457415" lon="11.4797988"><ele>367.0</ele><time>2026-04-04T12:20:08.791Z</time></trkpt><trkpt lat="44.3458342" lon="11.479778"><ele>370.8333333333333</ele><time>2026-04-04T12:20:09.79Z</time></trkpt><trkpt lat="44.3459165" lon="11.4797678"><ele>374.66666666666663</ele><time>2026-04-04T12:20:10.79Z</time></trkpt><trkpt lat="44.3460138" lon="11.479779"><ele>378.5</ele><time>2026-04-04T12:20:12.788Z</time></trkpt><trkpt lat="44.3461007" lon="11.4798123"><ele>382.3333333333333</ele><time>2026-04-04T12:20:25.79Z</time></trkpt><trkpt lat="44.346169" lon="11.4798517"><ele>386.1666666666667</ele><time>2026-04-04T12:20:26.786Z</time></trkpt><trkpt lat="44.3462455" lon="11.4799083"><ele>390.0</ele><time>2026-04-04T12:20:27.785Z</time></trkpt><trkpt lat="44.3463353" lon="11.4799745"><ele>389.8</ele><time>2026-04-04T12:20:28.784Z</time></trkpt><trkpt lat="44.3464327" lon="11.480049"><ele>389.6</ele><time>2026-04-04T12:20:29.784Z</time></trkpt><trkpt lat="44.3465182" lon="11.4801177"><ele>389.4</ele><time>2026-04-04T12:20:30.787Z</time></trkpt><trkpt lat="44.3465937" lon="11.4801595"><ele>389.2</ele><time>2026-04-04T12:20:31.787Z</time></trkpt><trkpt lat="44.3466732" lon="11.480182"><ele>389.0</ele><time>2026-04-04T12:20:32.788Z</time></trkpt><trkpt lat="44.3467555" lon="11.4801738"><ele>389.0</ele><time>2026-04-04T12:20:33.789Z</time></trkpt><trkpt lat="44.3468392" lon="11.4801317"><ele>389.0</ele><time>2026-04-04T12:20:34.789Z</time></trkpt><trkpt lat="44.3469257" lon="11.4800505"><ele>389.0</ele><time>2026-04-04T12:20:35.789Z</time></trkpt><trkpt lat="44.3470133" lon="11.4799298"><ele>389.0</ele><time>2026-04-04T12:20:36.791Z</time></trkpt><trkpt lat="44.3470963" lon="11.4797838"><ele>389.0</ele><time>2026-04-04T12:20:37.791Z</time></trkpt><trkpt lat="44.3471655" lon="11.4796268"><ele>392.25</ele><time>2026-04-04T12:20:38.79Z</time></trkpt><trkpt lat="44.3472227" lon="11.4794745"><ele>395.5</ele><time>2026-04-04T12:20:39.791Z</time></trkpt><trkpt lat="44.3472798" lon="11.4793365"><ele>398.75</ele><time>2026-04-04T12:20:40.79Z</time></trkpt><trkpt lat="44.3473407" lon="11.47921"><ele>402.0</ele><time>2026-04-04T12:20:41.79Z</time></trkpt><trkpt lat="44.3474165" lon="11.4790935"><ele>402.0</ele><time>2026-04-04T12:20:42.79Z</time></trkpt><trkpt lat="44.3475077" lon="11.478981"><ele>402.0</ele><time>2026-04-04T12:20:43.791Z</time></trkpt><trkpt lat="44.3476047" lon="11.4788793"><ele>402.0</ele><time>2026-04-04T12:20:44.789Z</time></trkpt><trkpt lat="44.3476942" lon="11.4787782"><ele>402.0</ele><time>2026-04-04T12:20:45.79Z</time></trkpt><trkpt lat="44.3477665" lon="11.4786637"><ele>402.20000000000005</ele><time>2026-04-04T12:20:46.791Z</time></trkpt><trkpt lat="44.3478203" lon="11.478527"><ele>402.4</ele><time>2026-04-04T12:20:47.788Z</time></trkpt><trkpt lat="44.347854" lon="11.4783868"><ele>402.6</ele><time>2026-04-04T12:20:48.789Z</time></trkpt><trkpt lat="44.34786" lon="11.4782485"><ele>402.79999999999995</ele><time>2026-04-04T12:20:49.79Z</time></trkpt><trkpt lat="44.3478373" lon="11.4781097"><ele>403.0</ele><time>2026-04-04T12:20:50.788Z</time></trkpt><trkpt lat="44.3477907" lon="11.4779612"><ele>404.2</ele><time>2026-04-04T12:20:51.787Z</time></trkpt><trkpt lat="44.3477453" lon="11.47783"><ele>405.4</ele><time>2026-04-04T12:20:52.788Z</time></trkpt><trkpt lat="44.3477213" lon="11.4777132"><ele>406.59999999999997</ele><time>2026-04-04T12:20:53.787Z</time></trkpt><trkpt lat="44.347723" lon="11.4776125"><ele>407.79999999999995</ele><time>2026-04-04T12:20:54.788Z</time></trkpt><trkpt lat="44.3477932" lon="11.4775175"><ele>409.0</ele><time>2026-04-04T12:20:56.793Z</time></trkpt><trkpt lat="44.3478778" lon="11.4775962"><ele>409.00000000000006</ele><time>2026-04-04T12:20:58.791Z</time></trkpt><trkpt lat="44.3479093" lon="11.4776835"><ele>409.0</ele><time>2026-04-04T12:20:59.79Z</time></trkpt><trkpt lat="44.3479525" lon="11.477786"><ele>409.0</ele><time>2026-04-04T12:21:00.787Z</time></trkpt><trkpt lat="44.3480158" lon="11.4778583"><ele>409.0</ele><time>2026-04-04T12:21:01.791Z</time></trkpt><trkpt lat="44.348099" lon="11.4779092"><ele>409.00000000000006</ele><time>2026-04-04T12:21:02.79Z</time></trkpt><trkpt lat="44.3481987" lon="11.4779405"><ele>409.0</ele><time>2026-04-04T12:21:03.791Z</time></trkpt><trkpt lat="44.348302" lon="11.4779537"><ele>410.33333333333337</ele><time>2026-04-04T12:21:04.792Z</time></trkpt><trkpt lat="44.3483922" lon="11.47796"><ele>411.6666666666667</ele><time>2026-04-04T12:21:05.791Z</time></trkpt><trkpt lat="44.3484632" lon="11.4779685"><ele>413.0</ele><time>2026-04-04T12:21:06.791Z</time></trkpt><trkpt lat="44.3485657" lon="11.4779905"><ele>414.33333333333337</ele><time>2026-04-04T12:21:08.789Z</time></trkpt><trkpt lat="44.3486272" lon="11.478017"><ele>415.6666666666667</ele><time>2026-04-04T12:21:10.792Z</time></trkpt><trkpt lat="44.3486947" lon="11.4780048"><ele>417.0</ele><time>2026-04-04T12:21:16.789Z</time></trkpt><trkpt lat="44.348776" lon="11.4778642"><ele>417.0</ele><time>2026-04-04T12:21:18.794Z</time></trkpt><trkpt lat="44.3488248" lon="11.4777633"><ele>417.0</ele><time>2026-04-04T12:21:19.792Z</time></trkpt><trkpt lat="44.34888" lon="11.4776513"><ele>417.0</ele><time>2026-04-04T12:21:20.792Z</time></trkpt><trkpt lat="44.3489398" lon="11.4775367"><ele>417.0</ele><time>2026-04-04T12:21:21.792Z</time></trkpt><trkpt lat="44.3490032" lon="11.47742"><ele>417.0</ele><time>2026-04-04T12:21:22.796Z</time></trkpt><trkpt lat="44.3490693" lon="11.4773077"><ele>418.8</ele><time>2026-04-04T12:21:23.791Z</time></trkpt><trkpt lat="44.3491418" lon="11.4772055"><ele>420.6</ele><time>2026-04-04T12:21:24.792Z</time></trkpt><trkpt lat="44.3492197" lon="11.477112"><ele>422.40000000000003</ele><time>2026-04-04T12:21:25.791Z</time></trkpt><trkpt lat="44.3492952" lon="11.4770222"><ele>424.20000000000005</ele><time>2026-04-04T12:21:26.791Z</time></trkpt><trkpt lat="44.3493638" lon="11.4769235"><ele>426.0</ele><time>2026-04-04T12:21:27.791Z</time></trkpt><trkpt lat="44.3494237" lon="11.4768115"><ele>426.20000000000005</ele><time>2026-04-04T12:21:28.796Z</time></trkpt><trkpt lat="44.3494748" lon="11.4766887"><ele>426.40000000000003</ele><time>2026-04-04T12:21:29.791Z</time></trkpt><trkpt lat="44.3495212" lon="11.4765593"><ele>426.6</ele><time>2026-04-04T12:21:30.791Z</time></trkpt><trkpt lat="44.3495638" lon="11.4764242"><ele>426.8</ele><time>2026-04-04T12:21:31.794Z</time></trkpt><trkpt lat="44.3496057" lon="11.4762873"><ele>427.0</ele><time>2026-04-04T12:21:32.792Z</time></trkpt><trkpt lat="44.3496475" lon="11.4761523"><ele>427.20000000000005</ele><time>2026-04-04T12:21:33.792Z</time></trkpt><trkpt lat="44.3496878" lon="11.4760188"><ele>427.40000000000003</ele><time>2026-04-04T12:21:34.792Z</time></trkpt><trkpt lat="44.349726" lon="11.4758873"><ele>427.59999999999997</ele><time>2026-04-04T12:21:35.791Z</time></trkpt><trkpt lat="44.3497583" lon="11.4757543"><ele>427.79999999999995</ele><time>2026-04-04T12:21:36.791Z</time></trkpt><trkpt lat="44.349783" lon="11.4756173"><ele>428.0</ele><time>2026-04-04T12:21:37.791Z</time></trkpt><trkpt lat="44.3498007" lon="11.4754782"><ele>429.4</ele><time>2026-04-04T12:21:38.791Z</time></trkpt><trkpt lat="44.349813" lon="11.4753375"><ele>430.79999999999995</ele><time>2026-04-04T12:21:39.791Z</time></trkpt><trkpt lat="44.3498173" lon="11.4751977"><ele>432.2</ele><time>2026-04-04T12:21:40.789Z</time></trkpt><trkpt lat="44.3498172" lon="11.4750568"><ele>433.6</ele><time>2026-04-04T12:21:41.788Z</time></trkpt><trkpt lat="44.3498153" lon="11.4749162"><ele>435.0</ele><time>2026-04-04T12:21:42.788Z</time></trkpt><trkpt lat="44.3498043" lon="11.4747757"><ele>435.0</ele><time>2026-04-04T12:21:43.787Z</time></trkpt><trkpt lat="44.3497777" lon="11.4746427"><ele>435.0</ele><time>2026-04-04T12:21:44.79Z</time></trkpt><trkpt lat="44.3497372" lon="11.474523"><ele>435.0</ele><time>2026-04-04T12:21:45.791Z</time></trkpt><trkpt lat="44.3496858" lon="11.4744172"><ele>435.0</ele><time>2026-04-04T12:21:46.791Z</time></trkpt><trkpt lat="44.3496262" lon="11.4743228"><ele>435.0</ele><time>2026-04-04T12:21:47.791Z</time></trkpt><trkpt lat="44.3495615" lon="11.4742383"><ele>437.4</ele><time>2026-04-04T12:21:48.791Z</time></trkpt><trkpt lat="44.3494853" lon="11.474173"><ele>439.8</ele><time>2026-04-04T12:21:49.792Z</time></trkpt><trkpt lat="44.3493982" lon="11.4741377"><ele>442.20000000000005</ele><time>2026-04-04T12:21:50.791Z</time></trkpt><trkpt lat="44.3493052" lon="11.4741235"><ele>444.6</ele><time>2026-04-04T12:21:51.793Z</time></trkpt><trkpt lat="44.349212" lon="11.4741065"><ele>447.0</ele><time>2026-04-04T12:21:52.792Z</time></trkpt><trkpt lat="44.34912" lon="11.4740785"><ele>447.0</ele><time>2026-04-04T12:21:53.792Z</time></trkpt><trkpt lat="44.3490325" lon="11.4740397"><ele>447.0</ele><time>2026-04-04T12:21:54.79Z</time></trkpt><trkpt lat="44.3489592" lon="11.4739845"><ele>447.0</ele><time>2026-04-04T12:21:55.794Z</time></trkpt><trkpt lat="44.3489105" lon="11.4739087"><ele>447.0</ele><time>2026-04-04T12:21:56.79Z</time></trkpt><trkpt lat="44.3488828" lon="11.4738133"><ele>447.0</ele><time>2026-04-04T12:21:57.792Z</time></trkpt><trkpt lat="44.3488735" lon="11.4737032"><ele>447.0</ele><time>2026-04-04T12:21:58.791Z</time></trkpt><trkpt lat="44.3488797" lon="11.4735843"><ele>446.0</ele><time>2026-04-04T12:21:59.79Z</time></trkpt><trkpt lat="44.3488832" lon="11.4734617"><ele>445.00000000000006</ele><time>2026-04-04T12:22:00.792Z</time></trkpt><trkpt lat="44.3488718" lon="11.473337"><ele>444.00000000000006</ele><time>2026-04-04T12:22:01.792Z</time></trkpt><trkpt lat="44.3488475" lon="11.473214"><ele>443.0</ele><time>2026-04-04T12:22:02.792Z</time></trkpt><trkpt lat="44.3488155" lon="11.4730942"><ele>442.0</ele><time>2026-04-04T12:22:03.789Z</time></trkpt><trkpt lat="44.3487803" lon="11.4729758"><ele>441.8</ele><time>2026-04-04T12:22:04.789Z</time></trkpt><trkpt lat="44.3487445" lon="11.472856"><ele>441.6</ele><time>2026-04-04T12:22:05.787Z</time></trkpt><trkpt lat="44.348708" lon="11.4727337"><ele>441.40000000000003</ele><time>2026-04-04T12:22:06.789Z</time></trkpt><trkpt lat="44.3486753" lon="11.4726097"><ele>441.20000000000005</ele><time>2026-04-04T12:22:07.789Z</time></trkpt><trkpt lat="44.3486472" lon="11.4724883"><ele>441.0</ele><time>2026-04-04T12:22:08.789Z</time></trkpt><trkpt lat="44.3486255" lon="11.4723642"><ele>441.0</ele><time>2026-04-04T12:22:09.795Z</time></trkpt><trkpt lat="44.3486162" lon="11.4722352"><ele>441.0</ele><time>2026-04-04T12:22:10.794Z</time></trkpt><trkpt lat="44.3486152" lon="11.4721045"><ele>441.0</ele><time>2026-04-04T12:22:11.793Z</time></trkpt><trkpt lat="44.3486187" lon="11.4719747"><ele>441.0</ele><time>2026-04-04T12:22:12.791Z</time></trkpt><trkpt lat="44.3486212" lon="11.4718453"><ele>441.0</ele><time>2026-04-04T12:22:13.79Z</time></trkpt><trkpt lat="44.3486228" lon="11.4717157"><ele>441.20000000000005</ele><time>2026-04-04T12:22:14.793Z</time></trkpt><trkpt lat="44.3486255" lon="11.4715857"><ele>441.40000000000003</ele><time>2026-04-04T12:22:15.791Z</time></trkpt><trkpt lat="44.3486262" lon="11.471455"><ele>441.6</ele><time>2026-04-04T12:22:16.79Z</time></trkpt><trkpt lat="44.3486208" lon="11.4713262"><ele>441.8</ele><time>2026-04-04T12:22:17.791Z</time></trkpt><trkpt lat="44.3486082" lon="11.4711987"><ele>442.0</ele><time>2026-04-04T12:22:18.791Z</time></trkpt><trkpt lat="44.3485875" lon="11.4710705"><ele>442.8</ele><time>2026-04-04T12:22:19.791Z</time></trkpt><trkpt lat="44.3485585" lon="11.4709432"><ele>443.6</ele><time>2026-04-04T12:22:20.794Z</time></trkpt><trkpt lat="44.3485188" lon="11.4708155"><ele>444.40000000000003</ele><time>2026-04-04T12:22:21.792Z</time></trkpt><trkpt lat="44.3484677" lon="11.4706947"><ele>445.20000000000005</ele><time>2026-04-04T12:22:22.796Z</time></trkpt><trkpt lat="44.3484065" lon="11.4705847"><ele>446.0</ele><time>2026-04-04T12:22:23.792Z</time></trkpt><trkpt lat="44.3483378" lon="11.4704842"><ele>446.4</ele><time>2026-04-04T12:22:24.792Z</time></trkpt><trkpt lat="44.3482643" lon="11.4703902"><ele>446.8</ele><time>2026-04-04T12:22:25.793Z</time></trkpt><trkpt lat="44.3481875" lon="11.4703005"><ele>447.19999999999993</ele><time>2026-04-04T12:22:26.791Z</time></trkpt><trkpt lat="44.3481115" lon="11.47021"><ele>447.59999999999997</ele><time>2026-04-04T12:22:27.791Z</time></trkpt><trkpt lat="44.3480367" lon="11.4701198"><ele>448.0</ele><time>2026-04-04T12:22:28.79Z</time></trkpt><trkpt lat="44.3479608" lon="11.4700295"><ele>448.00000000000006</ele><time>2026-04-04T12:22:29.789Z</time></trkpt><trkpt lat="44.3478872" lon="11.4699338"><ele>448.0</ele><time>2026-04-04T12:22:30.789Z</time></trkpt><trkpt lat="44.3478245" lon="11.469837"><ele>448.0</ele><time>2026-04-04T12:22:31.79Z</time></trkpt><trkpt lat="44.3477777" lon="11.4697393"><ele>448.0</ele><time>2026-04-04T12:22:32.789Z</time></trkpt><trkpt lat="44.3477455" lon="11.4696343"><ele>448.00000000000006</ele><time>2026-04-04T12:22:33.791Z</time></trkpt><trkpt lat="44.347728" lon="11.4695243"><ele>448.0</ele><time>2026-04-04T12:22:34.79Z</time></trkpt><trkpt lat="44.3477213" lon="11.469411"><ele>448.4</ele><time>2026-04-04T12:22:35.792Z</time></trkpt><trkpt lat="44.3477228" lon="11.4692947"><ele>448.79999999999995</ele><time>2026-04-04T12:22:36.791Z</time></trkpt><trkpt lat="44.3477273" lon="11.4691698"><ele>449.2</ele><time>2026-04-04T12:22:37.791Z</time></trkpt><trkpt lat="44.3477353" lon="11.469039"><ele>449.6</ele><time>2026-04-04T12:22:38.792Z</time></trkpt><trkpt lat="44.3477462" lon="11.4689057"><ele>450.0</ele><time>2026-04-04T12:22:39.792Z</time></trkpt><trkpt lat="44.3477582" lon="11.46877"><ele>448.6</ele><time>2026-04-04T12:22:40.791Z</time></trkpt><trkpt lat="44.3477782" lon="11.4686352"><ele>447.2</ele><time>2026-04-04T12:22:41.791Z</time></trkpt><trkpt lat="44.3478088" lon="11.4685048"><ele>445.79999999999995</ele><time>2026-04-04T12:22:42.791Z</time></trkpt><trkpt lat="44.347853" lon="11.4683878"><ele>444.4</ele><time>2026-04-04T12:22:43.791Z</time></trkpt><trkpt lat="44.3479028" lon="11.4682865"><ele>443.0</ele><time>2026-04-04T12:22:44.791Z</time></trkpt><trkpt lat="44.3479522" lon="11.4681912"><ele>442.99999999999994</ele><time>2026-04-04T12:22:45.79Z</time></trkpt><trkpt lat="44.3479958" lon="11.4680928"><ele>443.0</ele><time>2026-04-04T12:22:46.789Z</time></trkpt><trkpt lat="44.3480322" lon="11.4679852"><ele>443.0</ele><time>2026-04-04T12:22:47.79Z</time></trkpt><trkpt lat="44.3480685" lon="11.4678748"><ele>443.0</ele><time>2026-04-04T12:22:48.789Z</time></trkpt><trkpt lat="44.3481098" lon="11.4677607"><ele>442.99999999999994</ele><time>2026-04-04T12:22:49.791Z</time></trkpt><trkpt lat="44.3481592" lon="11.4676502"><ele>443.0</ele><time>2026-04-04T12:22:50.791Z</time></trkpt><trkpt lat="44.3482135" lon="11.4675443"><ele>443.59999999999997</ele><time>2026-04-04T12:22:51.792Z</time></trkpt><trkpt lat="44.3482705" lon="11.4674423"><ele>444.19999999999993</ele><time>2026-04-04T12:22:52.795Z</time></trkpt><trkpt lat="44.3483262" lon="11.4673407"><ele>444.8</ele><time>2026-04-04T12:22:53.788Z</time></trkpt><trkpt lat="44.3483722" lon="11.4672318"><ele>445.4</ele><time>2026-04-04T12:22:54.786Z</time></trkpt><trkpt lat="44.3484072" lon="11.4671128"><ele>446.0</ele><time>2026-04-04T12:22:55.79Z</time></trkpt><trkpt lat="44.3484302" lon="11.46698"><ele>443.8</ele><time>2026-04-04T12:22:56.787Z</time></trkpt><trkpt lat="44.3484415" lon="11.4668367"><ele>441.6</ele><time>2026-04-04T12:22:57.788Z</time></trkpt><trkpt lat="44.3484497" lon="11.4666895"><ele>439.4</ele><time>2026-04-04T12:22:58.792Z</time></trkpt><trkpt lat="44.3484578" lon="11.466541"><ele>437.2</ele><time>2026-04-04T12:22:59.79Z</time></trkpt><trkpt lat="44.3484605" lon="11.466387"><ele>435.0</ele><time>2026-04-04T12:23:00.793Z</time></trkpt><trkpt lat="44.348457" lon="11.4662355"><ele>434.8</ele><time>2026-04-04T12:23:01.79Z</time></trkpt><trkpt lat="44.3484462" lon="11.4660877"><ele>434.6</ele><time>2026-04-04T12:23:02.789Z</time></trkpt><trkpt lat="44.3484288" lon="11.4659445"><ele>434.4</ele><time>2026-04-04T12:23:03.792Z</time></trkpt><trkpt lat="44.3484073" lon="11.4658077"><ele>434.2</ele><time>2026-04-04T12:23:04.791Z</time></trkpt><trkpt lat="44.3483827" lon="11.4656752"><ele>434.0</ele><time>2026-04-04T12:23:05.79Z</time></trkpt><trkpt lat="44.3483572" lon="11.465543"><ele>432.79999999999995</ele><time>2026-04-04T12:23:06.79Z</time></trkpt><trkpt lat="44.348333" lon="11.4654075"><ele>431.59999999999997</ele><time>2026-04-04T12:23:07.794Z</time></trkpt><trkpt lat="44.3483115" lon="11.4652673"><ele>430.4</ele><time>2026-04-04T12:23:08.791Z</time></trkpt><trkpt lat="44.3482885" lon="11.4651227"><ele>429.2</ele><time>2026-04-04T12:23:09.791Z</time></trkpt><trkpt lat="44.348259" lon="11.4649832"><ele>428.0</ele><time>2026-04-04T12:23:10.79Z</time></trkpt><trkpt lat="44.3482272" lon="11.464848"><ele>428.0</ele><time>2026-04-04T12:23:11.791Z</time></trkpt><trkpt lat="44.3481942" lon="11.4647163"><ele>427.99999999999994</ele><time>2026-04-04T12:23:12.79Z</time></trkpt><trkpt lat="44.348166" lon="11.4645903"><ele>427.99999999999994</ele><time>2026-04-04T12:23:13.795Z</time></trkpt><trkpt lat="44.3481552" lon="11.4644707"><ele>428.0</ele><time>2026-04-04T12:23:14.791Z</time></trkpt><trkpt lat="44.3481698" lon="11.464352"><ele>428.0</ele><time>2026-04-04T12:23:15.79Z</time></trkpt><trkpt lat="44.3482098" lon="11.4642397"><ele>427.79999999999995</ele><time>2026-04-04T12:23:16.789Z</time></trkpt><trkpt lat="44.348264" lon="11.4641318"><ele>427.59999999999997</ele><time>2026-04-04T12:23:17.79Z</time></trkpt><trkpt lat="44.3483175" lon="11.464023"><ele>427.40000000000003</ele><time>2026-04-04T12:23:18.788Z</time></trkpt><trkpt lat="44.3483662" lon="11.463911"><ele>427.20000000000005</ele><time>2026-04-04T12:23:19.79Z</time></trkpt><trkpt lat="44.3484117" lon="11.4637995"><ele>427.0</ele><time>2026-04-04T12:23:20.788Z</time></trkpt><trkpt lat="44.3484518" lon="11.4636817"><ele>427.0</ele><time>2026-04-04T12:23:21.788Z</time></trkpt><trkpt lat="44.3484823" lon="11.463561"><ele>427.00000000000006</ele><time>2026-04-04T12:23:22.793Z</time></trkpt><trkpt lat="44.3484998" lon="11.4634333"><ele>427.00000000000006</ele><time>2026-04-04T12:23:23.793Z</time></trkpt><trkpt lat="44.348505" lon="11.4633013"><ele>427.0</ele><time>2026-04-04T12:23:24.791Z</time></trkpt><trkpt lat="44.348503" lon="11.4631662"><ele>427.0</ele><time>2026-04-04T12:23:25.791Z</time></trkpt><trkpt lat="44.3484953" lon="11.4630317"><ele>428.20000000000005</ele><time>2026-04-04T12:23:26.79Z</time></trkpt><trkpt lat="44.3484785" lon="11.4628957"><ele>429.40000000000003</ele><time>2026-04-04T12:23:27.793Z</time></trkpt><trkpt lat="44.3484558" lon="11.4627618"><ele>430.59999999999997</ele><time>2026-04-04T12:23:28.791Z</time></trkpt><trkpt lat="44.3484338" lon="11.4626328"><ele>431.79999999999995</ele><time>2026-04-04T12:23:29.791Z</time></trkpt><trkpt lat="44.3484097" lon="11.4625198"><ele>433.0</ele><time>2026-04-04T12:23:30.791Z</time></trkpt><trkpt lat="44.3483893" lon="11.4624213"><ele>433.00000000000006</ele><time>2026-04-04T12:23:31.792Z</time></trkpt><trkpt lat="44.3483978" lon="11.462269"><ele>433.0</ele><time>2026-04-04T12:23:33.793Z</time></trkpt><trkpt lat="44.3484782" lon="11.4622155"><ele>433.0</ele><time>2026-04-04T12:23:35.79Z</time></trkpt><trkpt lat="44.3485408" lon="11.462191"><ele>433.0</ele><time>2026-04-04T12:23:36.794Z</time></trkpt><trkpt lat="44.3486208" lon="11.4621593"><ele>433.00000000000006</ele><time>2026-04-04T12:23:37.791Z</time></trkpt><trkpt lat="44.3487145" lon="11.4621313"><ele>433.0</ele><time>2026-04-04T12:23:38.789Z</time></trkpt><trkpt lat="44.3488217" lon="11.4621097"><ele>433.4</ele><time>2026-04-04T12:23:39.791Z</time></trkpt><trkpt lat="44.3489318" lon="11.4620973"><ele>433.79999999999995</ele><time>2026-04-04T12:23:40.792Z</time></trkpt><trkpt lat="44.3490378" lon="11.4621043"><ele>434.2</ele><time>2026-04-04T12:23:41.791Z</time></trkpt><trkpt lat="44.3491447" lon="11.4621255"><ele>434.6</ele><time>2026-04-04T12:23:42.788Z</time></trkpt><trkpt lat="44.3492567" lon="11.4621562"><ele>435.0</ele><time>2026-04-04T12:23:43.789Z</time></trkpt><trkpt lat="44.3493728" lon="11.4621912"><ele>435.0</ele><time>2026-04-04T12:23:44.786Z</time></trkpt><trkpt lat="44.3494865" lon="11.4622123"><ele>435.0</ele><time>2026-04-04T12:23:45.788Z</time></trkpt><trkpt lat="44.3495973" lon="11.4622078"><ele>435.0</ele><time>2026-04-04T12:23:46.79Z</time></trkpt><trkpt lat="44.3497098" lon="11.4621842"><ele>435.0</ele><time>2026-04-04T12:23:47.795Z</time></trkpt><trkpt lat="44.3498212" lon="11.4621507"><ele>431.5</ele><time>2026-04-04T12:23:48.79Z</time></trkpt><trkpt lat="44.3499392" lon="11.462111"><ele>428.0</ele><time>2026-04-04T12:23:49.79Z</time></trkpt><trkpt lat="44.3500642" lon="11.462058"><ele>424.5</ele><time>2026-04-04T12:23:50.789Z</time></trkpt><trkpt lat="44.3501847" lon="11.4619853"><ele>421.0</ele><time>2026-04-04T12:23:51.793Z</time></trkpt><trkpt lat="44.350305" lon="11.46191"><ele>421.0</ele><time>2026-04-04T12:23:52.791Z</time></trkpt><trkpt lat="44.3504252" lon="11.4618562"><ele>421.0</ele><time>2026-04-04T12:23:53.79Z</time></trkpt><trkpt lat="44.3505432" lon="11.4618075"><ele>421.0</ele><time>2026-04-04T12:23:54.792Z</time></trkpt><trkpt lat="44.350664" lon="11.4617478"><ele>421.0</ele><time>2026-04-04T12:23:55.791Z</time></trkpt><trkpt lat="44.3507908" lon="11.4616795"><ele>419.5</ele><time>2026-04-04T12:23:56.79Z</time></trkpt><trkpt lat="44.350923" lon="11.4616138"><ele>418.0</ele><time>2026-04-04T12:23:57.789Z</time></trkpt><trkpt lat="44.351053" lon="11.4615482"><ele>416.5</ele><time>2026-04-04T12:23:58.79Z</time></trkpt><trkpt lat="44.3511772" lon="11.4614818"><ele>415.0</ele><time>2026-04-04T12:23:59.789Z</time></trkpt><trkpt lat="44.351291" lon="11.4614117"><ele>415.2</ele><time>2026-04-04T12:24:00.791Z</time></trkpt><trkpt lat="44.3513968" lon="11.461335"><ele>415.4</ele><time>2026-04-04T12:24:01.791Z</time></trkpt><trkpt lat="44.3514908" lon="11.4612495"><ele>415.6</ele><time>2026-04-04T12:24:02.791Z</time></trkpt><trkpt lat="44.351561" lon="11.4611522"><ele>415.8</ele><time>2026-04-04T12:24:03.791Z</time></trkpt><trkpt lat="44.351605" lon="11.4610415"><ele>416.0</ele><time>2026-04-04T12:24:04.789Z</time></trkpt><trkpt lat="44.351635" lon="11.4609272"><ele>415.99999999999994</ele><time>2026-04-04T12:24:05.794Z</time></trkpt><trkpt lat="44.3516733" lon="11.4608183"><ele>416.0</ele><time>2026-04-04T12:24:06.791Z</time></trkpt><trkpt lat="44.3517312" lon="11.4607342"><ele>416.0</ele><time>2026-04-04T12:24:07.788Z</time></trkpt><trkpt lat="44.351801" lon="11.4606717"><ele>416.0</ele><time>2026-04-04T12:24:08.79Z</time></trkpt><trkpt lat="44.3518767" lon="11.4606417"><ele>415.99999999999994</ele><time>2026-04-04T12:24:09.789Z</time></trkpt><trkpt lat="44.3519515" lon="11.4606262"><ele>416.0</ele><time>2026-04-04T12:24:10.789Z</time></trkpt><trkpt lat="44.352021" lon="11.4605912"><ele>416.0</ele><time>2026-04-04T12:24:11.791Z</time></trkpt><trkpt lat="44.3521125" lon="11.4604812"><ele>416.0</ele><time>2026-04-04T12:24:13.791Z</time></trkpt><trkpt lat="44.3522103" lon="11.4604198"><ele>416.0</ele><time>2026-04-04T12:24:15.79Z</time></trkpt><trkpt lat="44.3523005" lon="11.4604202"><ele>416.0</ele><time>2026-04-04T12:24:17.787Z</time></trkpt><trkpt lat="44.3523868" lon="11.4604697"><ele>416.0</ele><time>2026-04-04T12:24:19.788Z</time></trkpt><trkpt lat="44.352439" lon="11.4605698"><ele>413.20000000000005</ele><time>2026-04-04T12:24:21.789Z</time></trkpt><trkpt lat="44.3525112" lon="11.4606648"><ele>410.40000000000003</ele><time>2026-04-04T12:24:23.788Z</time></trkpt><trkpt lat="44.3526118" lon="11.4606532"><ele>407.6</ele><time>2026-04-04T12:24:25.79Z</time></trkpt><trkpt lat="44.3527248" lon="11.4606082"><ele>404.8</ele><time>2026-04-04T12:24:27.79Z</time></trkpt><trkpt lat="44.3527908" lon="11.4606518"><ele>402.0</ele><time>2026-04-04T12:24:29.79Z</time></trkpt><trkpt lat="44.3527517" lon="11.4607403"><ele>402.0</ele><time>2026-04-04T12:24:31.788Z</time></trkpt><trkpt lat="44.352679" lon="11.4608703"><ele>402.0</ele><time>2026-04-04T12:24:33.786Z</time></trkpt><trkpt lat="44.352682" lon="11.4609892"><ele>402.0</ele><time>2026-04-04T12:24:35.787Z</time></trkpt><trkpt lat="44.3527578" lon="11.4610548"><ele>402.0</ele><time>2026-04-04T12:24:37.789Z</time></trkpt><trkpt lat="44.3528173" lon="11.4609988"><ele>402.0</ele><time>2026-04-04T12:24:39.788Z</time></trkpt><trkpt lat="44.3528717" lon="11.4608917"><ele>402.0</ele><time>2026-04-04T12:24:41.788Z</time></trkpt><trkpt lat="44.3529667" lon="11.4608345"><ele>402.0</ele><time>2026-04-04T12:24:43.789Z</time></trkpt><trkpt lat="44.3530188" lon="11.4609105"><ele>402.0</ele><time>2026-04-04T12:24:45.79Z</time></trkpt><trkpt lat="44.3529698" lon="11.4610072"><ele>402.0</ele><time>2026-04-04T12:24:47.791Z</time></trkpt><trkpt lat="44.352926" lon="11.461129"><ele>402.0</ele><time>2026-04-04T12:24:49.788Z</time></trkpt><trkpt lat="44.3529072" lon="11.4613067"><ele>396.6</ele><time>2026-04-04T12:24:51.789Z</time></trkpt><trkpt lat="44.3528987" lon="11.4614057"><ele>391.20000000000005</ele><time>2026-04-04T12:24:52.789Z</time></trkpt><trkpt lat="44.3529165" lon="11.461559"><ele>385.8</ele><time>2026-04-04T12:24:54.788Z</time></trkpt><trkpt lat="44.3529837" lon="11.4616028"><ele>380.4</ele><time>2026-04-04T12:24:56.785Z</time></trkpt><trkpt lat="44.3531075" lon="11.4616368"><ele>375.0</ele><time>2026-04-04T12:24:58.786Z</time></trkpt><trkpt lat="44.353178" lon="11.4616512"><ele>371.5</ele><time>2026-04-04T12:24:59.787Z</time></trkpt><trkpt lat="44.3532537" lon="11.4616807"><ele>368.0</ele><time>2026-04-04T12:25:00.786Z</time></trkpt><trkpt lat="44.3533267" lon="11.4617272"><ele>364.5</ele><time>2026-04-04T12:25:01.789Z</time></trkpt><trkpt lat="44.353403" lon="11.4617758"><ele>361.0</ele><time>2026-04-04T12:25:02.789Z</time></trkpt><trkpt lat="44.3534837" lon="11.4618245"><ele>357.5</ele><time>2026-04-04T12:25:03.786Z</time></trkpt><trkpt lat="44.3535672" lon="11.4618807"><ele>354.0</ele><time>2026-04-04T12:25:04.789Z</time></trkpt><trkpt lat="44.3536567" lon="11.4619423"><ele>354.0</ele><time>2026-04-04T12:25:05.788Z</time></trkpt><trkpt lat="44.3537453" lon="11.4620088"><ele>354.0</ele><time>2026-04-04T12:25:06.789Z</time></trkpt><trkpt lat="44.353832" lon="11.4620807"><ele>354.0</ele><time>2026-04-04T12:25:07.792Z</time></trkpt><trkpt lat="44.3539182" lon="11.4621442"><ele>354.0</ele><time>2026-04-04T12:25:08.791Z</time></trkpt><trkpt lat="44.3540022" lon="11.4621992"><ele>354.0</ele><time>2026-04-04T12:25:09.79Z</time></trkpt><trkpt lat="44.3540843" lon="11.4622335"><ele>350.3333333333333</ele><time>2026-04-04T12:25:10.79Z</time></trkpt><trkpt lat="44.354167" lon="11.4622472"><ele>346.6666666666667</ele><time>2026-04-04T12:25:11.79Z</time></trkpt><trkpt lat="44.354256" lon="11.4622395"><ele>343.0</ele><time>2026-04-04T12:25:12.791Z</time></trkpt><trkpt lat="44.3543472" lon="11.4622182"><ele>339.33333333333337</ele><time>2026-04-04T12:25:13.79Z</time></trkpt><trkpt lat="44.3544325" lon="11.462186"><ele>335.6666666666667</ele><time>2026-04-04T12:25:14.79Z</time></trkpt><trkpt lat="44.3545075" lon="11.462145"><ele>332.0</ele><time>2026-04-04T12:25:15.793Z</time></trkpt><trkpt lat="44.3545782" lon="11.462104"><ele>332.0</ele><time>2026-04-04T12:25:16.79Z</time></trkpt><trkpt lat="44.3546425" lon="11.4620815"><ele>332.0</ele><time>2026-04-04T12:25:17.788Z</time></trkpt><trkpt lat="44.3547522" lon="11.462124"><ele>332.0</ele><time>2026-04-04T12:25:19.791Z</time></trkpt><trkpt lat="44.3548275" lon="11.4622428"><ele>332.0</ele><time>2026-04-04T12:25:21.787Z</time></trkpt><trkpt lat="44.3549208" lon="11.4623527"><ele>332.0</ele><time>2026-04-04T12:25:23.787Z</time></trkpt><trkpt lat="44.3550262" lon="11.4623938"><ele>327.8</ele><time>2026-04-04T12:25:25.789Z</time></trkpt><trkpt lat="44.3551507" lon="11.4623682"><ele>323.6</ele><time>2026-04-04T12:25:27.789Z</time></trkpt><trkpt lat="44.3552308" lon="11.4623485"><ele>319.40000000000003</ele><time>2026-04-04T12:25:28.788Z</time></trkpt><trkpt lat="44.3553142" lon="11.4623275"><ele>315.20000000000005</ele><time>2026-04-04T12:25:29.789Z</time></trkpt><trkpt lat="44.3553995" lon="11.4623132"><ele>311.0</ele><time>2026-04-04T12:25:30.79Z</time></trkpt><trkpt lat="44.3554868" lon="11.4623093"><ele>308.0</ele><time>2026-04-04T12:25:31.789Z</time></trkpt><trkpt lat="44.355577" lon="11.4623095"><ele>305.0</ele><time>2026-04-04T12:25:32.79Z</time></trkpt><trkpt lat="44.3556663" lon="11.4623043"><ele>302.0</ele><time>2026-04-04T12:25:33.79Z</time></trkpt><trkpt lat="44.3557563" lon="11.4623028"><ele>299.0</ele><time>2026-04-04T12:25:34.791Z</time></trkpt><trkpt lat="44.355845" lon="11.4623048"><ele>296.0</ele><time>2026-04-04T12:25:35.79Z</time></trkpt><trkpt lat="44.355932" lon="11.4623065"><ele>293.0</ele><time>2026-04-04T12:25:36.792Z</time></trkpt><trkpt lat="44.3560195" lon="11.4623077"><ele>293.0</ele><time>2026-04-04T12:25:37.791Z</time></trkpt><trkpt lat="44.3561063" lon="11.4623147"><ele>293.0</ele><time>2026-04-04T12:25:38.791Z</time></trkpt><trkpt lat="44.3561892" lon="11.46233"><ele>293.0</ele><time>2026-04-04T12:25:39.791Z</time></trkpt><trkpt lat="44.3562693" lon="11.4623483"><ele>293.0</ele><time>2026-04-04T12:25:40.789Z</time></trkpt><trkpt lat="44.3563522" lon="11.4623695"><ele>293.0</ele><time>2026-04-04T12:25:41.79Z</time></trkpt><trkpt lat="44.3564353" lon="11.4623962"><ele>293.0</ele><time>2026-04-04T12:25:42.79Z</time></trkpt><trkpt lat="44.3565135" lon="11.4624228"><ele>290.2</ele><time>2026-04-04T12:25:43.789Z</time></trkpt><trkpt lat="44.3565832" lon="11.4624508"><ele>287.4</ele><time>2026-04-04T12:25:44.79Z</time></trkpt><trkpt lat="44.3566448" lon="11.4624772"><ele>284.59999999999997</ele><time>2026-04-04T12:25:45.789Z</time></trkpt><trkpt lat="44.3567585" lon="11.4625387"><ele>281.8</ele><time>2026-04-04T12:25:47.787Z</time></trkpt><trkpt lat="44.3568668" lon="11.462588"><ele>279.0</ele><time>2026-04-04T12:25:49.788Z</time></trkpt><trkpt lat="44.3569607" lon="11.4626255"><ele>279.0</ele><time>2026-04-04T12:25:51.791Z</time></trkpt><trkpt lat="44.3570607" lon="11.4626698"><ele>279.0</ele><time>2026-04-04T12:25:53.791Z</time></trkpt><trkpt lat="44.3571583" lon="11.4627048"><ele>279.0</ele><time>2026-04-04T12:25:55.791Z</time></trkpt><trkpt lat="44.3572402" lon="11.4627167"><ele>279.0</ele><time>2026-04-04T12:25:57.79Z</time></trkpt><trkpt lat="44.357314" lon="11.4627107"><ele>279.0</ele><time>2026-04-04T12:25:59.789Z</time></trkpt><trkpt lat="44.3574072" lon="11.4626625"><ele>276.8333333333333</ele><time>2026-04-04T12:26:01.79Z</time></trkpt><trkpt lat="44.3575065" lon="11.4626142"><ele>274.6666666666667</ele><time>2026-04-04T12:26:03.789Z</time></trkpt><trkpt lat="44.357569" lon="11.4625975"><ele>272.5</ele><time>2026-04-04T12:26:04.79Z</time></trkpt><trkpt lat="44.3576358" lon="11.4625933"><ele>270.33333333333337</ele><time>2026-04-04T12:26:05.789Z</time></trkpt><trkpt lat="44.3577022" lon="11.4625993"><ele>268.1666666666667</ele><time>2026-04-04T12:26:06.789Z</time></trkpt><trkpt lat="44.3578323" lon="11.4626275"><ele>266.0</ele><time>2026-04-04T12:26:08.788Z</time></trkpt><trkpt lat="44.3579117" lon="11.4626425"><ele>266.0</ele><time>2026-04-04T12:26:09.787Z</time></trkpt><trkpt lat="44.3579808" lon="11.4626617"><ele>266.0</ele><time>2026-04-04T12:26:10.786Z</time></trkpt><trkpt lat="44.3580455" lon="11.4627128"><ele>266.0</ele><time>2026-04-04T12:26:11.786Z</time></trkpt><trkpt lat="44.3581088" lon="11.4627925"><ele>266.0</ele><time>2026-04-04T12:26:12.787Z</time></trkpt><trkpt lat="44.358174" lon="11.462888"><ele>266.0</ele><time>2026-04-04T12:26:13.789Z</time></trkpt><trkpt lat="44.358236" lon="11.462979"><ele>266.0</ele><time>2026-04-04T12:26:14.79Z</time></trkpt><trkpt lat="44.3582943" lon="11.4630588"><ele>265.33333333333337</ele><time>2026-04-04T12:26:15.795Z</time></trkpt><trkpt lat="44.3583477" lon="11.463135"><ele>264.6666666666667</ele><time>2026-04-04T12:26:16.788Z</time></trkpt><trkpt lat="44.3584005" lon="11.4631997"><ele>264.0</ele><time>2026-04-04T12:26:17.789Z</time></trkpt><trkpt lat="44.3584513" lon="11.4632577"><ele>263.3333333333333</ele><time>2026-04-04T12:26:18.788Z</time></trkpt><trkpt lat="44.358509" lon="11.4633188"><ele>262.66666666666663</ele><time>2026-04-04T12:26:19.79Z</time></trkpt><trkpt lat="44.3586215" lon="11.4633635"><ele>262.0</ele><time>2026-04-04T12:26:21.788Z</time></trkpt><trkpt lat="44.3587067" lon="11.4633408"><ele>262.0</ele><time>2026-04-04T12:26:22.789Z</time></trkpt><trkpt lat="44.3588063" lon="11.463313"><ele>262.0</ele><time>2026-04-04T12:26:23.788Z</time></trkpt><trkpt lat="44.3589123" lon="11.4632932"><ele>262.0</ele><time>2026-04-04T12:26:24.791Z</time></trkpt><trkpt lat="44.359021" lon="11.4632755"><ele>262.0</ele><time>2026-04-04T12:26:25.79Z</time></trkpt><trkpt lat="44.3591402" lon="11.4632505"><ele>262.0</ele><time>2026-04-04T12:26:26.79Z</time></trkpt><trkpt lat="44.3592392" lon="11.4632318"><ele>261.6</ele><time>2026-04-04T12:26:27.79Z</time></trkpt><trkpt lat="44.3593303" lon="11.4632207"><ele>261.2</ele><time>2026-04-04T12:26:28.788Z</time></trkpt><trkpt lat="44.3594255" lon="11.4632065"><ele>260.8</ele><time>2026-04-04T12:26:29.788Z</time></trkpt><trkpt lat="44.3595247" lon="11.4631898"><ele>260.4</ele><time>2026-04-04T12:26:30.789Z</time></trkpt><trkpt lat="44.3596305" lon="11.4631708"><ele>260.0</ele><time>2026-04-04T12:26:31.789Z</time></trkpt><trkpt lat="44.3597427" lon="11.4631508"><ele>259.5</ele><time>2026-04-04T12:26:32.789Z</time></trkpt><trkpt lat="44.3598622" lon="11.4631295"><ele>259.0</ele><time>2026-04-04T12:26:33.789Z</time></trkpt><trkpt lat="44.3599843" lon="11.4631068"><ele>258.5</ele><time>2026-04-04T12:26:34.788Z</time></trkpt><trkpt lat="44.360102" lon="11.4630745"><ele>258.0</ele><time>2026-04-04T12:26:35.787Z</time></trkpt><trkpt lat="44.3602202" lon="11.463026"><ele>258.0</ele><time>2026-04-04T12:26:36.788Z</time></trkpt><trkpt lat="44.3603405" lon="11.4629595"><ele>258.0</ele><time>2026-04-04T12:26:37.787Z</time></trkpt><trkpt lat="44.3604592" lon="11.4628725"><ele>258.0</ele><time>2026-04-04T12:26:38.789Z</time></trkpt><trkpt lat="44.3605705" lon="11.4627813"><ele>258.0</ele><time>2026-04-04T12:26:39.79Z</time></trkpt><trkpt lat="44.360674" lon="11.4626945"><ele>256.5</ele><time>2026-04-04T12:26:40.79Z</time></trkpt><trkpt lat="44.3607708" lon="11.4626163"><ele>255.0</ele><time>2026-04-04T12:26:41.789Z</time></trkpt><trkpt lat="44.3608683" lon="11.4625485"><ele>253.5</ele><time>2026-04-04T12:26:42.791Z</time></trkpt><trkpt lat="44.3609772" lon="11.462485"><ele>252.0</ele><time>2026-04-04T12:26:43.791Z</time></trkpt><trkpt lat="44.3610955" lon="11.4624257"><ele>252.0</ele><time>2026-04-04T12:26:44.792Z</time></trkpt><trkpt lat="44.3612168" lon="11.4623677"><ele>252.0</ele><time>2026-04-04T12:26:45.791Z</time></trkpt><trkpt lat="44.3613293" lon="11.4623073"><ele>252.0</ele><time>2026-04-04T12:26:46.791Z</time></trkpt><trkpt lat="44.3614317" lon="11.462246"><ele>252.0</ele><time>2026-04-04T12:26:47.791Z</time></trkpt><trkpt lat="44.3615262" lon="11.4621875"><ele>252.0</ele><time>2026-04-04T12:26:48.79Z</time></trkpt><trkpt lat="44.3616103" lon="11.4621273"><ele>252.0</ele><time>2026-04-04T12:26:49.79Z</time></trkpt><trkpt lat="44.3616833" lon="11.4620673"><ele>252.0</ele><time>2026-04-04T12:26:50.789Z</time></trkpt><trkpt lat="44.361747" lon="11.4620103"><ele>252.0</ele><time>2026-04-04T12:26:51.79Z</time></trkpt><trkpt lat="44.3618015" lon="11.4619577"><ele>252.0</ele><time>2026-04-04T12:26:52.79Z</time></trkpt><trkpt lat="44.3618533" lon="11.4619058"><ele>252.0</ele><time>2026-04-04T12:26:53.791Z</time></trkpt><trkpt lat="44.3619035" lon="11.4618492"><ele>252.0</ele><time>2026-04-04T12:26:54.79Z</time></trkpt><trkpt lat="44.3619563" lon="11.461792"><ele>251.5</ele><time>2026-04-04T12:26:55.791Z</time></trkpt><trkpt lat="44.3620095" lon="11.4617338"><ele>251.0</ele><time>2026-04-04T12:26:56.791Z</time></trkpt><trkpt lat="44.3620592" lon="11.4616725"><ele>250.5</ele><time>2026-04-04T12:26:57.79Z</time></trkpt><trkpt lat="44.3621073" lon="11.4616132"><ele>250.0</ele><time>2026-04-04T12:26:58.788Z</time></trkpt><trkpt lat="44.3622067" lon="11.461505"><ele>249.5</ele><time>2026-04-04T12:27:00.79Z</time></trkpt><trkpt lat="44.3622603" lon="11.4614523"><ele>249.0</ele><time>2026-04-04T12:27:01.788Z</time></trkpt><trkpt lat="44.3623157" lon="11.4614055"><ele>248.57142857142856</ele><time>2026-04-04T12:27:02.789Z</time></trkpt><trkpt lat="44.362373" lon="11.4613645"><ele>248.1428571428571</ele><time>2026-04-04T12:27:03.791Z</time></trkpt><trkpt lat="44.3624352" lon="11.4613387"><ele>247.71428571428572</ele><time>2026-04-04T12:27:04.791Z</time></trkpt><trkpt lat="44.3624998" lon="11.4613177"><ele>247.28571428571428</ele><time>2026-04-04T12:27:05.79Z</time></trkpt><trkpt lat="44.3625655" lon="11.4612942"><ele>246.85714285714286</ele><time>2026-04-04T12:27:06.79Z</time></trkpt><trkpt lat="44.3626303" lon="11.4612697"><ele>246.42857142857144</ele><time>2026-04-04T12:27:07.791Z</time></trkpt><trkpt lat="44.3626963" lon="11.4612472"><ele>246.00000000000003</ele><time>2026-04-04T12:27:08.79Z</time></trkpt><trkpt lat="44.3627627" lon="11.4612248"><ele>245.5714285714286</ele><time>2026-04-04T12:27:09.79Z</time></trkpt><trkpt lat="44.3628272" lon="11.461197"><ele>245.14285714285717</ele><time>2026-04-04T12:27:10.791Z</time></trkpt><trkpt lat="44.3628898" lon="11.4611683"><ele>244.71428571428572</ele><time>2026-04-04T12:27:11.792Z</time></trkpt><trkpt lat="44.3629537" lon="11.4611408"><ele>244.2857142857143</ele><time>2026-04-04T12:27:12.792Z</time></trkpt><trkpt lat="44.3630188" lon="11.4611185"><ele>243.8571428571429</ele><time>2026-04-04T12:27:13.792Z</time></trkpt><trkpt lat="44.3630863" lon="11.4610988"><ele>243.42857142857142</ele><time>2026-04-04T12:27:14.794Z</time></trkpt><trkpt lat="44.3631547" lon="11.4610762"><ele>243.0</ele><time>2026-04-04T12:27:15.793Z</time></trkpt><trkpt lat="44.3632233" lon="11.4610498"><ele>242.14285714285714</ele><time>2026-04-04T12:27:16.791Z</time></trkpt><trkpt lat="44.3632923" lon="11.4610243"><ele>241.28571428571428</ele><time>2026-04-04T12:27:17.792Z</time></trkpt><trkpt lat="44.3633597" lon="11.461002"><ele>240.42857142857142</ele><time>2026-04-04T12:27:18.793Z</time></trkpt><trkpt lat="44.3634277" lon="11.4609822"><ele>239.57142857142856</ele><time>2026-04-04T12:27:19.792Z</time></trkpt><trkpt lat="44.3634962" lon="11.4609637"><ele>238.71428571428572</ele><time>2026-04-04T12:27:20.792Z</time></trkpt><trkpt lat="44.3635617" lon="11.4609452"><ele>237.85714285714283</ele><time>2026-04-04T12:27:21.792Z</time></trkpt><trkpt lat="44.3636255" lon="11.4609242"><ele>236.99999999999997</ele><time>2026-04-04T12:27:22.791Z</time></trkpt><trkpt lat="44.3636897" lon="11.4609017"><ele>236.99999999999997</ele><time>2026-04-04T12:27:23.788Z</time></trkpt><trkpt lat="44.3637545" lon="11.4608775"><ele>237.0</ele><time>2026-04-04T12:27:24.79Z</time></trkpt><trkpt lat="44.363819" lon="11.4608558"><ele>236.99999999999997</ele><time>2026-04-04T12:27:25.789Z</time></trkpt><trkpt lat="44.3638828" lon="11.4608327"><ele>236.99999999999997</ele><time>2026-04-04T12:27:26.79Z</time></trkpt><trkpt lat="44.3639462" lon="11.46081"><ele>237.0</ele><time>2026-04-04T12:27:27.793Z</time></trkpt><trkpt lat="44.3640087" lon="11.4607913"><ele>236.99999999999997</ele><time>2026-04-04T12:27:28.792Z</time></trkpt><trkpt lat="44.364075" lon="11.4607728"><ele>236.99999999999997</ele><time>2026-04-04T12:27:29.791Z</time></trkpt><trkpt lat="44.364145" lon="11.4607512"><ele>236.99999999999997</ele><time>2026-04-04T12:27:30.792Z</time></trkpt><trkpt lat="44.3642165" lon="11.4607297"><ele>237.0</ele><time>2026-04-04T12:27:31.79Z</time></trkpt><trkpt lat="44.3642847" lon="11.4607088"><ele>236.99999999999997</ele><time>2026-04-04T12:27:32.789Z</time></trkpt><trkpt lat="44.364357" lon="11.4606942"><ele>236.99999999999997</ele><time>2026-04-04T12:27:33.79Z</time></trkpt><trkpt lat="44.364433" lon="11.4606933"><ele>237.0</ele><time>2026-04-04T12:27:34.791Z</time></trkpt><trkpt lat="44.3645092" lon="11.460704"><ele>236.99999999999997</ele><time>2026-04-04T12:27:35.791Z</time></trkpt><trkpt lat="44.3645822" lon="11.4607268"><ele>236.99999999999997</ele><time>2026-04-04T12:27:36.791Z</time></trkpt><trkpt lat="44.3646555" lon="11.46076"><ele>236.5</ele><time>2026-04-04T12:27:37.792Z</time></trkpt><trkpt lat="44.3647293" lon="11.4607975"><ele>236.0</ele><time>2026-04-04T12:27:38.79Z</time></trkpt><trkpt lat="44.3648028" lon="11.4608342"><ele>235.5</ele><time>2026-04-04T12:27:39.791Z</time></trkpt><trkpt lat="44.3648765" lon="11.4608685"><ele>235.0</ele><time>2026-04-04T12:27:40.791Z</time></trkpt><trkpt lat="44.3649482" lon="11.4609055"><ele>234.5</ele><time>2026-04-04T12:27:41.791Z</time></trkpt><trkpt lat="44.3650183" lon="11.4609512"><ele>234.0</ele><time>2026-04-04T12:27:42.792Z</time></trkpt><trkpt lat="44.3650902" lon="11.4609975"><ele>234.0</ele><time>2026-04-04T12:27:43.791Z</time></trkpt><trkpt lat="44.3651713" lon="11.4610413"><ele>233.99999999999997</ele><time>2026-04-04T12:27:44.792Z</time></trkpt><trkpt lat="44.3652645" lon="11.4610878"><ele>233.99999999999997</ele><time>2026-04-04T12:27:45.788Z</time></trkpt><trkpt lat="44.3653658" lon="11.4611428"><ele>234.0</ele><time>2026-04-04T12:27:46.789Z</time></trkpt><trkpt lat="44.3654763" lon="11.4611973"><ele>234.0</ele><time>2026-04-04T12:27:47.789Z</time></trkpt><trkpt lat="44.365596" lon="11.4612485"><ele>234.5</ele><time>2026-04-04T12:27:48.789Z</time></trkpt><trkpt lat="44.3657215" lon="11.461297"><ele>235.0</ele><time>2026-04-04T12:27:49.789Z</time></trkpt><trkpt lat="44.3658532" lon="11.4613463"><ele>235.5</ele><time>2026-04-04T12:27:50.789Z</time></trkpt><trkpt lat="44.3659898" lon="11.4613958"><ele>236.0</ele><time>2026-04-04T12:27:51.791Z</time></trkpt><trkpt lat="44.3661312" lon="11.4614443"><ele>236.0</ele><time>2026-04-04T12:27:52.79Z</time></trkpt><trkpt lat="44.3662778" lon="11.4614947"><ele>236.0</ele><time>2026-04-04T12:27:53.789Z</time></trkpt><trkpt lat="44.3664293" lon="11.4615497"><ele>236.0</ele><time>2026-04-04T12:27:54.789Z</time></trkpt><trkpt lat="44.3665822" lon="11.4615998"><ele>234.75</ele><time>2026-04-04T12:27:55.788Z</time></trkpt><trkpt lat="44.3667272" lon="11.4616417"><ele>233.5</ele><time>2026-04-04T12:27:56.789Z</time></trkpt><trkpt lat="44.366863" lon="11.4616865"><ele>232.25</ele><time>2026-04-04T12:27:57.79Z</time></trkpt><trkpt lat="44.366987" lon="11.461741"><ele>231.0</ele><time>2026-04-04T12:27:58.79Z</time></trkpt><trkpt lat="44.3671025" lon="11.4618005"><ele>230.8</ele><time>2026-04-04T12:27:59.788Z</time></trkpt><trkpt lat="44.3672075" lon="11.4618627"><ele>230.60000000000002</ele><time>2026-04-04T12:28:00.791Z</time></trkpt><trkpt lat="44.3673005" lon="11.4619325"><ele>230.4</ele><time>2026-04-04T12:28:01.789Z</time></trkpt><trkpt lat="44.367381" lon="11.462009"><ele>230.2</ele><time>2026-04-04T12:28:02.789Z</time></trkpt><trkpt lat="44.3674478" lon="11.4620938"><ele>230.0</ele><time>2026-04-04T12:28:03.79Z</time></trkpt><trkpt lat="44.367503" lon="11.4621828"><ele>229.50000000000003</ele><time>2026-04-04T12:28:04.791Z</time></trkpt><trkpt lat="44.3675537" lon="11.462271"><ele>229.0</ele><time>2026-04-04T12:28:05.789Z</time></trkpt><trkpt lat="44.3676072" lon="11.4623565"><ele>228.5</ele><time>2026-04-04T12:28:06.791Z</time></trkpt><trkpt lat="44.3676658" lon="11.462437"><ele>228.0</ele><time>2026-04-04T12:28:07.792Z</time></trkpt><trkpt lat="44.3677303" lon="11.4625142"><ele>227.50000000000003</ele><time>2026-04-04T12:28:08.79Z</time></trkpt><trkpt lat="44.367798" lon="11.462593"><ele>227.0</ele><time>2026-04-04T12:28:09.791Z</time></trkpt><trkpt lat="44.3678683" lon="11.4626723"><ele>227.0</ele><time>2026-04-04T12:28:10.789Z</time></trkpt><trkpt lat="44.3679423" lon="11.4627495"><ele>227.0</ele><time>2026-04-04T12:28:11.79Z</time></trkpt><trkpt lat="44.368022" lon="11.4628247"><ele>227.0</ele><time>2026-04-04T12:28:12.787Z</time></trkpt><trkpt lat="44.3681092" lon="11.4628962"><ele>227.0</ele><time>2026-04-04T12:28:13.788Z</time></trkpt><trkpt lat="44.3682055" lon="11.4629605"><ele>227.0</ele><time>2026-04-04T12:28:14.788Z</time></trkpt><trkpt lat="44.3683123" lon="11.4630108"><ele>226.25</ele><time>2026-04-04T12:28:15.791Z</time></trkpt><trkpt lat="44.3684295" lon="11.4630487"><ele>225.5</ele><time>2026-04-04T12:28:16.789Z</time></trkpt><trkpt lat="44.3685543" lon="11.4630863"><ele>224.75</ele><time>2026-04-04T12:28:17.79Z</time></trkpt><trkpt lat="44.368683" lon="11.4631322"><ele>224.0</ele><time>2026-04-04T12:28:18.79Z</time></trkpt><trkpt lat="44.3688058" lon="11.4631842"><ele>223.75</ele><time>2026-04-04T12:28:19.791Z</time></trkpt><trkpt lat="44.3689183" lon="11.4632438"><ele>223.5</ele><time>2026-04-04T12:28:20.792Z</time></trkpt><trkpt lat="44.3690223" lon="11.4633225"><ele>223.25</ele><time>2026-04-04T12:28:21.79Z</time></trkpt><trkpt lat="44.369121" lon="11.463423"><ele>223.0</ele><time>2026-04-04T12:28:22.79Z</time></trkpt><trkpt lat="44.3692138" lon="11.4635367"><ele>223.0</ele><time>2026-04-04T12:28:23.79Z</time></trkpt><trkpt lat="44.3693082" lon="11.4636363"><ele>223.0</ele><time>2026-04-04T12:28:24.791Z</time></trkpt><trkpt lat="44.369407" lon="11.4637063"><ele>223.0</ele><time>2026-04-04T12:28:25.79Z</time></trkpt><trkpt lat="44.369508" lon="11.4637423"><ele>223.0</ele><time>2026-04-04T12:28:26.79Z</time></trkpt><trkpt lat="44.3696123" lon="11.4637412"><ele>223.0</ele><time>2026-04-04T12:28:27.79Z</time></trkpt><trkpt lat="44.369719" lon="11.4637047"><ele>222.0</ele><time>2026-04-04T12:28:28.793Z</time></trkpt><trkpt lat="44.3698177" lon="11.4636587"><ele>221.0</ele><time>2026-04-04T12:28:29.79Z</time></trkpt><trkpt lat="44.3699115" lon="11.4636238"><ele>220.0</ele><time>2026-04-04T12:28:30.79Z</time></trkpt><trkpt lat="44.3700027" lon="11.4636147"><ele>219.0</ele><time>2026-04-04T12:28:31.789Z</time></trkpt><trkpt lat="44.3700918" lon="11.4636308"><ele>218.0</ele><time>2026-04-04T12:28:32.789Z</time></trkpt><trkpt lat="44.3701807" lon="11.4636723"><ele>218.0</ele><time>2026-04-04T12:28:33.791Z</time></trkpt><trkpt lat="44.3702607" lon="11.4637333"><ele>218.0</ele><time>2026-04-04T12:28:34.789Z</time></trkpt><trkpt lat="44.3703345" lon="11.4638208"><ele>218.0</ele><time>2026-04-04T12:28:35.79Z</time></trkpt><trkpt lat="44.3704012" lon="11.4639387"><ele>218.0</ele><time>2026-04-04T12:28:36.789Z</time></trkpt><trkpt lat="44.370464" lon="11.464089"><ele>218.0</ele><time>2026-04-04T12:28:37.787Z</time></trkpt><trkpt lat="44.370529" lon="11.4642568"><ele>217.5</ele><time>2026-04-04T12:28:38.786Z</time></trkpt><trkpt lat="44.3705953" lon="11.4644148"><ele>217.0</ele><time>2026-04-04T12:28:39.788Z</time></trkpt><trkpt lat="44.3706717" lon="11.4645575"><ele>216.5</ele><time>2026-04-04T12:28:40.789Z</time></trkpt><trkpt lat="44.3707572" lon="11.4646862"><ele>216.0</ele><time>2026-04-04T12:28:41.79Z</time></trkpt><trkpt lat="44.3708463" lon="11.464802"><ele>216.0</ele><time>2026-04-04T12:28:42.788Z</time></trkpt><trkpt lat="44.3709395" lon="11.4648953"><ele>216.00000000000003</ele><time>2026-04-04T12:28:43.788Z</time></trkpt><trkpt lat="44.3710363" lon="11.4649588"><ele>216.00000000000003</ele><time>2026-04-04T12:28:44.788Z</time></trkpt><trkpt lat="44.3711398" lon="11.4649837"><ele>216.0</ele><time>2026-04-04T12:28:45.79Z</time></trkpt><trkpt lat="44.3712558" lon="11.4649662"><ele>216.0</ele><time>2026-04-04T12:28:46.788Z</time></trkpt><trkpt lat="44.3713877" lon="11.4649155"><ele>214.75</ele><time>2026-04-04T12:28:47.789Z</time></trkpt><trkpt lat="44.3715235" lon="11.4648555"><ele>213.5</ele><time>2026-04-04T12:28:48.79Z</time></trkpt><trkpt lat="44.3716518" lon="11.4648025"><ele>212.25</ele><time>2026-04-04T12:28:49.789Z</time></trkpt><trkpt lat="44.3717742" lon="11.4647653"><ele>211.0</ele><time>2026-04-04T12:28:50.789Z</time></trkpt><trkpt lat="44.3718858" lon="11.4647512"><ele>211.0</ele><time>2026-04-04T12:28:51.79Z</time></trkpt><trkpt lat="44.3719857" lon="11.4647693"><ele>211.0</ele><time>2026-04-04T12:28:52.79Z</time></trkpt><trkpt lat="44.3720808" lon="11.4648283"><ele>211.0</ele><time>2026-04-04T12:28:53.791Z</time></trkpt><trkpt lat="44.3721728" lon="11.4649235"><ele>211.0</ele><time>2026-04-04T12:28:54.79Z</time></trkpt><trkpt lat="44.372261" lon="11.4650343"><ele>211.0</ele><time>2026-04-04T12:28:55.789Z</time></trkpt><trkpt lat="44.3723525" lon="11.46515"><ele>210.83333333333331</ele><time>2026-04-04T12:28:56.793Z</time></trkpt><trkpt lat="44.3724375" lon="11.4652558"><ele>210.66666666666666</ele><time>2026-04-04T12:28:57.789Z</time></trkpt><trkpt lat="44.372495" lon="11.465339"><ele>210.5</ele><time>2026-04-04T12:28:58.789Z</time></trkpt><trkpt lat="44.3725523" lon="11.4654267"><ele>210.33333333333331</ele><time>2026-04-04T12:29:00.788Z</time></trkpt><trkpt lat="44.3725163" lon="11.465343"><ele>210.16666666666666</ele><time>2026-04-04T12:29:04.789Z</time></trkpt><trkpt lat="44.3725945" lon="11.4652952"><ele>210.0</ele><time>2026-04-04T12:29:07.789Z</time></trkpt><trkpt lat="44.3727165" lon="11.4653073"><ele>210.0</ele><time>2026-04-04T12:29:09.789Z</time></trkpt><trkpt lat="44.372829" lon="11.4653375"><ele>210.0</ele><time>2026-04-04T12:29:11.789Z</time></trkpt><trkpt lat="44.3729347" lon="11.4653493"><ele>210.0</ele><time>2026-04-04T12:29:13.788Z</time></trkpt><trkpt lat="44.372997" lon="11.4653337"><ele>210.0</ele><time>2026-04-04T12:29:15.79Z</time></trkpt><trkpt lat="44.3728945" lon="11.4653288"><ele>210.0</ele><time>2026-04-04T12:29:25.79Z</time></trkpt><trkpt lat="44.372792" lon="11.4653383"><ele>210.0</ele><time>2026-04-04T12:29:27.787Z</time></trkpt><trkpt lat="44.3727017" lon="11.4653188"><ele>210.0</ele><time>2026-04-04T12:29:29.788Z</time></trkpt><trkpt lat="44.372595" lon="11.4653022"><ele>210.0</ele><time>2026-04-04T12:29:31.789Z</time></trkpt><trkpt lat="44.3725282" lon="11.4653257"><ele>210.0</ele><time>2026-04-04T12:29:33.79Z</time></trkpt><trkpt lat="44.3725615" lon="11.4654208"><ele>210.0</ele><time>2026-04-04T12:29:35.788Z</time></trkpt><trkpt lat="44.3726128" lon="11.4654908"><ele>210.0</ele><time>2026-04-04T12:29:36.792Z</time></trkpt><trkpt lat="44.3726792" lon="11.4655773"><ele>210.0</ele><time>2026-04-04T12:29:37.79Z</time></trkpt><trkpt lat="44.3727508" lon="11.46568"><ele>210.0</ele><time>2026-04-04T12:29:38.789Z</time></trkpt><trkpt lat="44.372825" lon="11.4657875"><ele>210.0</ele><time>2026-04-04T12:29:39.79Z</time></trkpt><trkpt lat="44.3728967" lon="11.4658863"><ele>210.0</ele><time>2026-04-04T12:29:40.79Z</time></trkpt><trkpt lat="44.3729712" lon="11.465957"><ele>210.0</ele><time>2026-04-04T12:29:41.787Z</time></trkpt><trkpt lat="44.3730485" lon="11.4659932"><ele>209.2</ele><time>2026-04-04T12:29:42.788Z</time></trkpt><trkpt lat="44.3731243" lon="11.4659973"><ele>208.4</ele><time>2026-04-04T12:29:43.789Z</time></trkpt><trkpt lat="44.3732085" lon="11.4659638"><ele>207.60000000000002</ele><time>2026-04-04T12:29:44.789Z</time></trkpt><trkpt lat="44.3733067" lon="11.4658907"><ele>206.8</ele><time>2026-04-04T12:29:45.789Z</time></trkpt><trkpt lat="44.3734183" lon="11.4658045"><ele>206.0</ele><time>2026-04-04T12:29:46.79Z</time></trkpt><trkpt lat="44.3735378" lon="11.465712"><ele>206.0</ele><time>2026-04-04T12:29:47.79Z</time></trkpt><trkpt lat="44.373654" lon="11.4656202"><ele>206.0</ele><time>2026-04-04T12:29:48.789Z</time></trkpt><trkpt lat="44.3737622" lon="11.46553"><ele>206.0</ele><time>2026-04-04T12:29:49.789Z</time></trkpt><trkpt lat="44.3738637" lon="11.4654412"><ele>206.0</ele><time>2026-04-04T12:29:50.786Z</time></trkpt><trkpt lat="44.3739602" lon="11.4653605"><ele>205.50000000000003</ele><time>2026-04-04T12:29:51.79Z</time></trkpt><trkpt lat="44.3740497" lon="11.4652883"><ele>205.0</ele><time>2026-04-04T12:29:52.787Z</time></trkpt><trkpt lat="44.3741278" lon="11.4652438"><ele>204.5</ele><time>2026-04-04T12:29:53.787Z</time></trkpt><trkpt lat="44.374201" lon="11.4652417"><ele>204.0</ele><time>2026-04-04T12:29:54.789Z</time></trkpt><trkpt lat="44.3742757" lon="11.4652778"><ele>203.50000000000003</ele><time>2026-04-04T12:29:55.79Z</time></trkpt><trkpt lat="44.3743543" lon="11.4653372"><ele>203.0</ele><time>2026-04-04T12:29:56.789Z</time></trkpt><trkpt lat="44.3744367" lon="11.4653942"><ele>202.83333333333334</ele><time>2026-04-04T12:29:57.792Z</time></trkpt><trkpt lat="44.3745085" lon="11.4654527"><ele>202.66666666666669</ele><time>2026-04-04T12:29:58.79Z</time></trkpt><trkpt lat="44.3745683" lon="11.4655267"><ele>202.5</ele><time>2026-04-04T12:29:59.789Z</time></trkpt><trkpt lat="44.3746117" lon="11.465621"><ele>202.33333333333331</ele><time>2026-04-04T12:30:00.789Z</time></trkpt><trkpt lat="44.3746458" lon="11.4657387"><ele>202.16666666666666</ele><time>2026-04-04T12:30:01.792Z</time></trkpt><trkpt lat="44.3746827" lon="11.4658748"><ele>202.0</ele><time>2026-04-04T12:30:02.788Z</time></trkpt><trkpt lat="44.3747365" lon="11.4660225"><ele>201.39999999999998</ele><time>2026-04-04T12:30:03.79Z</time></trkpt><trkpt lat="44.3747937" lon="11.4661585"><ele>200.79999999999998</ele><time>2026-04-04T12:30:04.791Z</time></trkpt><trkpt lat="44.3748515" lon="11.4662792"><ele>200.2</ele><time>2026-04-04T12:30:05.791Z</time></trkpt><trkpt lat="44.3749135" lon="11.4663878"><ele>199.6</ele><time>2026-04-04T12:30:06.792Z</time></trkpt><trkpt lat="44.3749775" lon="11.4664883"><ele>199.0</ele><time>2026-04-04T12:30:07.791Z</time></trkpt><trkpt lat="44.3750447" lon="11.4665743"><ele>198.66666666666666</ele><time>2026-04-04T12:30:08.789Z</time></trkpt><trkpt lat="44.3751143" lon="11.466641"><ele>198.33333333333331</ele><time>2026-04-04T12:30:09.788Z</time></trkpt><trkpt lat="44.3751863" lon="11.4666813"><ele>198.0</ele><time>2026-04-04T12:30:10.789Z</time></trkpt><trkpt lat="44.3752598" lon="11.4667017"><ele>197.66666666666669</ele><time>2026-04-04T12:30:11.792Z</time></trkpt><trkpt lat="44.3753362" lon="11.46671"><ele>197.33333333333334</ele><time>2026-04-04T12:30:12.789Z</time></trkpt><trkpt lat="44.3754208" lon="11.466664"><ele>197.0</ele><time>2026-04-04T12:30:14.788Z</time></trkpt><trkpt lat="44.3754393" lon="11.4665067"><ele>197.0</ele><time>2026-04-04T12:30:16.787Z</time></trkpt><trkpt lat="44.3754413" lon="11.4663773"><ele>197.0</ele><time>2026-04-04T12:30:17.788Z</time></trkpt><trkpt lat="44.3754392" lon="11.466225"><ele>197.0</ele><time>2026-04-04T12:30:18.787Z</time></trkpt><trkpt lat="44.3754317" lon="11.4660472"><ele>197.0</ele><time>2026-04-04T12:30:19.791Z</time></trkpt><trkpt lat="44.3754273" lon="11.4658542"><ele>197.5</ele><time>2026-04-04T12:30:20.789Z</time></trkpt><trkpt lat="44.3754255" lon="11.4656665"><ele>198.0</ele><time>2026-04-04T12:30:21.789Z</time></trkpt><trkpt lat="44.3754247" lon="11.4654875"><ele>198.5</ele><time>2026-04-04T12:30:22.788Z</time></trkpt><trkpt lat="44.3754297" lon="11.465341"><ele>199.0</ele><time>2026-04-04T12:30:23.791Z</time></trkpt><trkpt lat="44.3754448" lon="11.465215"><ele>199.6</ele><time>2026-04-04T12:30:24.79Z</time></trkpt><trkpt lat="44.3754667" lon="11.4651132"><ele>200.2</ele><time>2026-04-04T12:30:25.791Z</time></trkpt><trkpt lat="44.3755697" lon="11.4650325"><ele>200.79999999999998</ele><time>2026-04-04T12:30:27.792Z</time></trkpt><trkpt lat="44.3756578" lon="11.4650087"><ele>201.39999999999998</ele><time>2026-04-04T12:30:28.792Z</time></trkpt><trkpt lat="44.3757612" lon="11.464988"><ele>202.0</ele><time>2026-04-04T12:30:29.79Z</time></trkpt><trkpt lat="44.3758792" lon="11.4649702"><ele>203.2</ele><time>2026-04-04T12:30:30.791Z</time></trkpt><trkpt lat="44.3759717" lon="11.4649387"><ele>204.39999999999998</ele><time>2026-04-04T12:30:31.792Z</time></trkpt><trkpt lat="44.3760412" lon="11.4648775"><ele>205.60000000000002</ele><time>2026-04-04T12:30:32.79Z</time></trkpt><trkpt lat="44.376094" lon="11.4647823"><ele>206.8</ele><time>2026-04-04T12:30:33.79Z</time></trkpt><trkpt lat="44.3761395" lon="11.4646497"><ele>208.0</ele><time>2026-04-04T12:30:34.79Z</time></trkpt><trkpt lat="44.3761762" lon="11.4644895"><ele>212.75</ele><time>2026-04-04T12:30:35.79Z</time></trkpt><trkpt lat="44.376201" lon="11.4643122"><ele>217.5</ele><time>2026-04-04T12:30:36.79Z</time></trkpt><trkpt lat="44.3762225" lon="11.4641218"><ele>222.25</ele><time>2026-04-04T12:30:37.793Z</time></trkpt><trkpt lat="44.3762397" lon="11.4639635"><ele>227.0</ele><time>2026-04-04T12:30:38.79Z</time></trkpt><trkpt lat="44.3762403" lon="11.4638323"><ele>231.75</ele><time>2026-04-04T12:30:39.787Z</time></trkpt><trkpt lat="44.376222" lon="11.4637092"><ele>236.5</ele><time>2026-04-04T12:30:40.788Z</time></trkpt><trkpt lat="44.3761888" lon="11.4635563"><ele>241.25</ele><time>2026-04-04T12:30:41.792Z</time></trkpt><trkpt lat="44.3761462" lon="11.4633805"><ele>246.0</ele><time>2026-04-04T12:30:42.789Z</time></trkpt><trkpt lat="44.3760995" lon="11.4631853"><ele>246.0</ele><time>2026-04-04T12:30:43.789Z</time></trkpt><trkpt lat="44.3760547" lon="11.4630028"><ele>246.00000000000003</ele><time>2026-04-04T12:30:44.789Z</time></trkpt><trkpt lat="44.3760132" lon="11.4628685"><ele>246.00000000000003</ele><time>2026-04-04T12:30:45.788Z</time></trkpt><trkpt lat="44.3759573" lon="11.462762"><ele>246.0</ele><time>2026-04-04T12:30:46.79Z</time></trkpt><trkpt lat="44.3758743" lon="11.462657"><ele>246.0</ele><time>2026-04-04T12:30:47.789Z</time></trkpt><trkpt lat="44.3757965" lon="11.4625645"><ele>247.20000000000002</ele><time>2026-04-04T12:30:48.789Z</time></trkpt><trkpt lat="44.3757337" lon="11.4624743"><ele>248.40000000000003</ele><time>2026-04-04T12:30:49.789Z</time></trkpt><trkpt lat="44.3756953" lon="11.4623867"><ele>249.6</ele><time>2026-04-04T12:30:50.79Z</time></trkpt><trkpt lat="44.3756722" lon="11.4622825"><ele>250.8</ele><time>2026-04-04T12:30:51.789Z</time></trkpt><trkpt lat="44.3756505" lon="11.4621465"><ele>252.0</ele><time>2026-04-04T12:30:52.796Z</time></trkpt><trkpt lat="44.3756242" lon="11.4619912"><ele>253.5</ele><time>2026-04-04T12:30:53.787Z</time></trkpt><trkpt lat="44.3755922" lon="11.4618207"><ele>255.0</ele><time>2026-04-04T12:30:54.789Z</time></trkpt><trkpt lat="44.3755562" lon="11.4616535"><ele>256.5</ele><time>2026-04-04T12:30:55.788Z</time></trkpt><trkpt lat="44.3755225" lon="11.4614962"><ele>258.0</ele><time>2026-04-04T12:30:56.789Z</time></trkpt><trkpt lat="44.375503" lon="11.4613487"><ele>263.4</ele><time>2026-04-04T12:30:57.792Z</time></trkpt><trkpt lat="44.3755017" lon="11.4611902"><ele>268.8</ele><time>2026-04-04T12:30:58.8Z</time></trkpt><trkpt lat="44.375509" lon="11.4610458"><ele>274.2</ele><time>2026-04-04T12:30:59.789Z</time></trkpt><trkpt lat="44.3755027" lon="11.4609412"><ele>279.6</ele><time>2026-04-04T12:31:00.788Z</time></trkpt><trkpt lat="44.375435" lon="11.460842"><ele>285.0</ele><time>2026-04-04T12:31:02.789Z</time></trkpt><trkpt lat="44.3753212" lon="11.4609013"><ele>285.0</ele><time>2026-04-04T12:31:04.786Z</time></trkpt><trkpt lat="44.375242" lon="11.4609598"><ele>285.0</ele><time>2026-04-04T12:31:05.788Z</time></trkpt><trkpt lat="44.3751463" lon="11.4610182"><ele>285.0</ele><time>2026-04-04T12:31:06.786Z</time></trkpt><trkpt lat="44.3750373" lon="11.4610703"><ele>285.0</ele><time>2026-04-04T12:31:07.789Z</time></trkpt><trkpt lat="44.374937" lon="11.4611138"><ele>285.0</ele><time>2026-04-04T12:31:08.788Z</time></trkpt><trkpt lat="44.3748565" lon="11.4611487"><ele>285.0</ele><time>2026-04-04T12:31:09.789Z</time></trkpt><trkpt lat="44.3747635" lon="11.4611118"><ele>285.0</ele><time>2026-04-04T12:31:11.789Z</time></trkpt><trkpt lat="44.3747887" lon="11.4609482"><ele>285.0</ele><time>2026-04-04T12:31:13.789Z</time></trkpt><trkpt lat="44.3748257" lon="11.4608167"><ele>285.0</ele><time>2026-04-04T12:31:14.789Z</time></trkpt><trkpt lat="44.3748515" lon="11.4606635"><ele>285.0</ele><time>2026-04-04T12:31:15.789Z</time></trkpt><trkpt lat="44.3748635" lon="11.4605008"><ele>286.8</ele><time>2026-04-04T12:31:16.792Z</time></trkpt><trkpt lat="44.3748628" lon="11.4603517"><ele>288.6</ele><time>2026-04-04T12:31:17.79Z</time></trkpt><trkpt lat="44.374846" lon="11.4602177"><ele>290.4</ele><time>2026-04-04T12:31:18.79Z</time></trkpt><trkpt lat="44.3748097" lon="11.4601087"><ele>292.2</ele><time>2026-04-04T12:31:19.791Z</time></trkpt><trkpt lat="44.374745" lon="11.460005"><ele>294.0</ele><time>2026-04-04T12:31:20.791Z</time></trkpt><trkpt lat="44.3746668" lon="11.459902"><ele>297.6666666666667</ele><time>2026-04-04T12:31:21.789Z</time></trkpt><trkpt lat="44.3746037" lon="11.459813"><ele>301.3333333333333</ele><time>2026-04-04T12:31:22.789Z</time></trkpt><trkpt lat="44.3745648" lon="11.459726"><ele>305.0</ele><time>2026-04-04T12:31:23.789Z</time></trkpt><trkpt lat="44.3745335" lon="11.459619"><ele>308.66666666666663</ele><time>2026-04-04T12:31:24.787Z</time></trkpt><trkpt lat="44.3745038" lon="11.4594855"><ele>312.3333333333333</ele><time>2026-04-04T12:31:25.788Z</time></trkpt><trkpt lat="44.3744863" lon="11.4593572"><ele>316.0</ele><time>2026-04-04T12:31:26.788Z</time></trkpt><trkpt lat="44.3744922" lon="11.4592393"><ele>317.8</ele><time>2026-04-04T12:31:27.789Z</time></trkpt><trkpt lat="44.3745197" lon="11.4591122"><ele>319.6</ele><time>2026-04-04T12:31:28.788Z</time></trkpt><trkpt lat="44.374545" lon="11.45896"><ele>321.4</ele><time>2026-04-04T12:31:29.787Z</time></trkpt><trkpt lat="44.3745657" lon="11.4587922"><ele>323.2</ele><time>2026-04-04T12:31:30.787Z</time></trkpt><trkpt lat="44.3745845" lon="11.4586292"><ele>325.0</ele><time>2026-04-04T12:31:31.787Z</time></trkpt><trkpt lat="44.3746102" lon="11.4584935"><ele>326.2</ele><time>2026-04-04T12:31:32.79Z</time></trkpt><trkpt lat="44.3746577" lon="11.4583782"><ele>327.4</ele><time>2026-04-04T12:31:33.79Z</time></trkpt><trkpt lat="44.3747198" lon="11.4582545"><ele>328.6</ele><time>2026-04-04T12:31:34.788Z</time></trkpt><trkpt lat="44.3747848" lon="11.458119"><ele>329.8</ele><time>2026-04-04T12:31:35.789Z</time></trkpt><trkpt lat="44.3748452" lon="11.4579958"><ele>331.0</ele><time>2026-04-04T12:31:36.79Z</time></trkpt><trkpt lat="44.3749247" lon="11.4578913"><ele>331.0</ele><time>2026-04-04T12:31:37.79Z</time></trkpt><trkpt lat="44.375027" lon="11.4578103"><ele>331.0</ele><time>2026-04-04T12:31:38.79Z</time></trkpt><trkpt lat="44.3751453" lon="11.4577443"><ele>331.0</ele><time>2026-04-04T12:31:39.792Z</time></trkpt><trkpt lat="44.375276" lon="11.457682"><ele>331.0</ele><time>2026-04-04T12:31:40.792Z</time></trkpt><trkpt lat="44.3753945" lon="11.4576257"><ele>331.0</ele><time>2026-04-04T12:31:41.791Z</time></trkpt><trkpt lat="44.3754937" lon="11.4575665"><ele>331.0</ele><time>2026-04-04T12:31:42.792Z</time></trkpt><trkpt lat="44.3755765" lon="11.4574887"><ele>331.0</ele><time>2026-04-04T12:31:43.794Z</time></trkpt><trkpt lat="44.3756505" lon="11.4573952"><ele>331.0</ele><time>2026-04-04T12:31:44.792Z</time></trkpt><trkpt lat="44.3757178" lon="11.457301"><ele>331.0</ele><time>2026-04-04T12:31:45.794Z</time></trkpt><trkpt lat="44.3757722" lon="11.4572223"><ele>330.5</ele><time>2026-04-04T12:31:46.791Z</time></trkpt><trkpt lat="44.375822" lon="11.4571633"><ele>330.0</ele><time>2026-04-04T12:31:47.791Z</time></trkpt><trkpt lat="44.3759153" lon="11.4570573"><ele>329.5</ele><time>2026-04-04T12:31:49.792Z</time></trkpt><trkpt lat="44.3759685" lon="11.4570067"><ele>329.0</ele><time>2026-04-04T12:31:50.796Z</time></trkpt><trkpt lat="44.3760488" lon="11.4569587"><ele>328.5</ele><time>2026-04-04T12:31:51.795Z</time></trkpt><trkpt lat="44.3761563" lon="11.4569145"><ele>328.0</ele><time>2026-04-04T12:31:52.789Z</time></trkpt><trkpt lat="44.3762833" lon="11.4568717"><ele>328.75</ele><time>2026-04-04T12:31:53.79Z</time></trkpt><trkpt lat="44.376426" lon="11.4568288"><ele>329.5</ele><time>2026-04-04T12:31:54.788Z</time></trkpt><trkpt lat="44.3765682" lon="11.4567898"><ele>330.25</ele><time>2026-04-04T12:31:55.79Z</time></trkpt><trkpt lat="44.3766995" lon="11.4567545"><ele>331.0</ele><time>2026-04-04T12:31:56.798Z</time></trkpt><trkpt lat="44.3768122" lon="11.4567392"><ele>331.0</ele><time>2026-04-04T12:31:57.791Z</time></trkpt><trkpt lat="44.3769148" lon="11.4567528"><ele>331.0</ele><time>2026-04-04T12:31:58.79Z</time></trkpt><trkpt lat="44.3770243" lon="11.4567807"><ele>331.0</ele><time>2026-04-04T12:31:59.792Z</time></trkpt><trkpt lat="44.377138" lon="11.4567788"><ele>331.0</ele><time>2026-04-04T12:32:00.792Z</time></trkpt><trkpt lat="44.3772585" lon="11.4567475"><ele>332.75</ele><time>2026-04-04T12:32:01.791Z</time></trkpt><trkpt lat="44.3773833" lon="11.4566972"><ele>334.5</ele><time>2026-04-04T12:32:02.791Z</time></trkpt><trkpt lat="44.3775007" lon="11.4566327"><ele>336.25</ele><time>2026-04-04T12:32:03.792Z</time></trkpt><trkpt lat="44.3776208" lon="11.4565515"><ele>338.0</ele><time>2026-04-04T12:32:04.791Z</time></trkpt><trkpt lat="44.3777425" lon="11.456457"><ele>338.0</ele><time>2026-04-04T12:32:05.793Z</time></trkpt><trkpt lat="44.3778627" lon="11.4563673"><ele>338.0</ele><time>2026-04-04T12:32:06.795Z</time></trkpt><trkpt lat="44.3779755" lon="11.456292"><ele>338.0</ele><time>2026-04-04T12:32:07.791Z</time></trkpt><trkpt lat="44.3780918" lon="11.4562228"><ele>338.0</ele><time>2026-04-04T12:32:08.792Z</time></trkpt><trkpt lat="44.3782072" lon="11.4561658"><ele>336.5</ele><time>2026-04-04T12:32:09.791Z</time></trkpt><trkpt lat="44.378324" lon="11.4561162"><ele>335.0</ele><time>2026-04-04T12:32:10.793Z</time></trkpt><trkpt lat="44.3784387" lon="11.4560565"><ele>333.5</ele><time>2026-04-04T12:32:11.791Z</time></trkpt><trkpt lat="44.3785488" lon="11.4559738"><ele>332.0</ele><time>2026-04-04T12:32:12.789Z</time></trkpt><trkpt lat="44.378656" lon="11.4558622"><ele>332.0</ele><time>2026-04-04T12:32:13.792Z</time></trkpt><trkpt lat="44.378756" lon="11.4557367"><ele>332.0</ele><time>2026-04-04T12:32:14.789Z</time></trkpt><trkpt lat="44.3788435" lon="11.4555888"><ele>332.0</ele><time>2026-04-04T12:32:15.791Z</time></trkpt><trkpt lat="44.3789175" lon="11.4554218"><ele>332.0</ele><time>2026-04-04T12:32:16.791Z</time></trkpt><trkpt lat="44.3789868" lon="11.4552503"><ele>333.75</ele><time>2026-04-04T12:32:17.788Z</time></trkpt><trkpt lat="44.379058" lon="11.4550913"><ele>335.5</ele><time>2026-04-04T12:32:18.788Z</time></trkpt><trkpt lat="44.3791293" lon="11.4549513"><ele>337.25</ele><time>2026-04-04T12:32:19.788Z</time></trkpt><trkpt lat="44.3792025" lon="11.454823"><ele>339.0</ele><time>2026-04-04T12:32:20.792Z</time></trkpt><trkpt lat="44.3792742" lon="11.4547023"><ele>336.6</ele><time>2026-04-04T12:32:21.791Z</time></trkpt><trkpt lat="44.3793325" lon="11.4545818"><ele>334.2</ele><time>2026-04-04T12:32:22.791Z</time></trkpt><trkpt lat="44.3793748" lon="11.454453"><ele>331.8</ele><time>2026-04-04T12:32:23.789Z</time></trkpt><trkpt lat="44.3794037" lon="11.4543032"><ele>329.40000000000003</ele><time>2026-04-04T12:32:24.79Z</time></trkpt><trkpt lat="44.3794207" lon="11.4541443"><ele>327.0</ele><time>2026-04-04T12:32:25.79Z</time></trkpt><trkpt lat="44.3794202" lon="11.4539797"><ele>327.0</ele><time>2026-04-04T12:32:26.789Z</time></trkpt><trkpt lat="44.3794067" lon="11.4538212"><ele>327.0</ele><time>2026-04-04T12:32:27.789Z</time></trkpt><trkpt lat="44.3793867" lon="11.4536688"><ele>327.0</ele><time>2026-04-04T12:32:28.791Z</time></trkpt><trkpt lat="44.3793605" lon="11.4535183"><ele>327.0</ele><time>2026-04-04T12:32:29.79Z</time></trkpt><trkpt lat="44.3793262" lon="11.4533688"><ele>327.0</ele><time>2026-04-04T12:32:30.792Z</time></trkpt><trkpt lat="44.3792898" lon="11.4532152"><ele>324.25</ele><time>2026-04-04T12:32:31.791Z</time></trkpt><trkpt lat="44.3792412" lon="11.4530505"><ele>321.5</ele><time>2026-04-04T12:32:32.789Z</time></trkpt><trkpt lat="44.3791772" lon="11.4528893"><ele>318.75</ele><time>2026-04-04T12:32:33.794Z</time></trkpt><trkpt lat="44.3791075" lon="11.4527363"><ele>316.0</ele><time>2026-04-04T12:32:34.792Z</time></trkpt><trkpt lat="44.3790397" lon="11.4525902"><ele>315.2</ele><time>2026-04-04T12:32:35.792Z</time></trkpt><trkpt lat="44.3789767" lon="11.4524505"><ele>314.40000000000003</ele><time>2026-04-04T12:32:36.791Z</time></trkpt><trkpt lat="44.3789263" lon="11.4523217"><ele>313.6</ele><time>2026-04-04T12:32:37.793Z</time></trkpt><trkpt lat="44.378904" lon="11.4522078"><ele>312.8</ele><time>2026-04-04T12:32:38.791Z</time></trkpt><trkpt lat="44.3789138" lon="11.4521055"><ele>312.0</ele><time>2026-04-04T12:32:39.791Z</time></trkpt><trkpt lat="44.3789847" lon="11.4519922"><ele>312.0</ele><time>2026-04-04T12:32:41.791Z</time></trkpt><trkpt lat="44.3790798" lon="11.4520357"><ele>312.0</ele><time>2026-04-04T12:32:43.79Z</time></trkpt><trkpt lat="44.3791438" lon="11.4521047"><ele>312.0</ele><time>2026-04-04T12:32:44.793Z</time></trkpt><trkpt lat="44.3792173" lon="11.4521967"><ele>312.0</ele><time>2026-04-04T12:32:45.796Z</time></trkpt><trkpt lat="44.3792828" lon="11.4522867"><ele>312.0</ele><time>2026-04-04T12:32:46.792Z</time></trkpt><trkpt lat="44.3793472" lon="11.4523523"><ele>312.0</ele><time>2026-04-04T12:32:47.792Z</time></trkpt><trkpt lat="44.379413" lon="11.4523772"><ele>312.0</ele><time>2026-04-04T12:32:48.791Z</time></trkpt><trkpt lat="44.379491" lon="11.4523778"><ele>312.0</ele><time>2026-04-04T12:32:49.789Z</time></trkpt><trkpt lat="44.3795857" lon="11.4523692"><ele>312.0</ele><time>2026-04-04T12:32:50.791Z</time></trkpt><trkpt lat="44.3796815" lon="11.4523615"><ele>312.0</ele><time>2026-04-04T12:32:51.792Z</time></trkpt><trkpt lat="44.379778" lon="11.4523532"><ele>312.0</ele><time>2026-04-04T12:32:52.79Z</time></trkpt><trkpt lat="44.379874" lon="11.4523493"><ele>312.0</ele><time>2026-04-04T12:32:53.793Z</time></trkpt><trkpt lat="44.3799672" lon="11.4523403"><ele>312.0</ele><time>2026-04-04T12:32:54.794Z</time></trkpt><trkpt lat="44.3800525" lon="11.4523175"><ele>312.0</ele><time>2026-04-04T12:32:55.795Z</time></trkpt><trkpt lat="44.3801185" lon="11.4522755"><ele>312.0</ele><time>2026-04-04T12:32:56.791Z</time></trkpt><trkpt lat="44.3801712" lon="11.4522208"><ele>312.0</ele><time>2026-04-04T12:32:57.792Z</time></trkpt><trkpt lat="44.3802117" lon="11.4521495"><ele>312.0</ele><time>2026-04-04T12:32:58.792Z</time></trkpt><trkpt lat="44.3802505" lon="11.452051"><ele>308.4</ele><time>2026-04-04T12:32:59.791Z</time></trkpt><trkpt lat="44.3802888" lon="11.4519282"><ele>304.79999999999995</ele><time>2026-04-04T12:33:00.793Z</time></trkpt><trkpt lat="44.3803318" lon="11.451782"><ele>301.2</ele><time>2026-04-04T12:33:01.792Z</time></trkpt><trkpt lat="44.3803845" lon="11.451635"><ele>297.59999999999997</ele><time>2026-04-04T12:33:02.792Z</time></trkpt><trkpt lat="44.3804407" lon="11.451484"><ele>294.0</ele><time>2026-04-04T12:33:03.791Z</time></trkpt><trkpt lat="44.3804968" lon="11.4513415"><ele>295.3333333333333</ele><time>2026-04-04T12:33:04.79Z</time></trkpt><trkpt lat="44.3805558" lon="11.4512393"><ele>296.6666666666667</ele><time>2026-04-04T12:33:05.791Z</time></trkpt><trkpt lat="44.380618" lon="11.4511747"><ele>298.0</ele><time>2026-04-04T12:33:06.79Z</time></trkpt><trkpt lat="44.3806898" lon="11.4511318"><ele>299.33333333333337</ele><time>2026-04-04T12:33:07.79Z</time></trkpt><trkpt lat="44.3807702" lon="11.4510817"><ele>300.6666666666667</ele><time>2026-04-04T12:33:08.788Z</time></trkpt><trkpt lat="44.380839" lon="11.4510122"><ele>302.0</ele><time>2026-04-04T12:33:09.788Z</time></trkpt><trkpt lat="44.3808768" lon="11.450931"><ele>302.0</ele><time>2026-04-04T12:33:10.791Z</time></trkpt><trkpt lat="44.3808892" lon="11.4508098"><ele>302.0</ele><time>2026-04-04T12:33:11.79Z</time></trkpt><trkpt lat="44.3808933" lon="11.4506533"><ele>302.0</ele><time>2026-04-04T12:33:12.79Z</time></trkpt><trkpt lat="44.3809013" lon="11.4504795"><ele>302.0</ele><time>2026-04-04T12:33:13.792Z</time></trkpt><trkpt lat="44.380913" lon="11.4502923"><ele>301.33333333333337</ele><time>2026-04-04T12:33:14.79Z</time></trkpt><trkpt lat="44.3809248" lon="11.4500865"><ele>300.6666666666667</ele><time>2026-04-04T12:33:15.791Z</time></trkpt><trkpt lat="44.3809357" lon="11.4498627"><ele>300.0</ele><time>2026-04-04T12:33:16.792Z</time></trkpt><trkpt lat="44.3809437" lon="11.4496405"><ele>300.6666666666667</ele><time>2026-04-04T12:33:17.791Z</time></trkpt><trkpt lat="44.380953" lon="11.449426"><ele>301.33333333333337</ele><time>2026-04-04T12:33:18.793Z</time></trkpt><trkpt lat="44.3809742" lon="11.4492228"><ele>302.0</ele><time>2026-04-04T12:33:19.792Z</time></trkpt><trkpt lat="44.3810013" lon="11.4490145"><ele>302.5</ele><time>2026-04-04T12:33:20.792Z</time></trkpt><trkpt lat="44.381024" lon="11.4487875"><ele>303.0</ele><time>2026-04-04T12:33:21.793Z</time></trkpt><trkpt lat="44.381039" lon="11.4485827"><ele>303.5</ele><time>2026-04-04T12:33:22.79Z</time></trkpt><trkpt lat="44.381044" lon="11.4483918"><ele>304.0</ele><time>2026-04-04T12:33:23.79Z</time></trkpt><trkpt lat="44.3810318" lon="11.4482067"><ele>304.0</ele><time>2026-04-04T12:33:24.791Z</time></trkpt><trkpt lat="44.381018" lon="11.4480142"><ele>304.0</ele><time>2026-04-04T12:33:25.789Z</time></trkpt><trkpt lat="44.3810105" lon="11.4478263"><ele>304.0</ele><time>2026-04-04T12:33:26.791Z</time></trkpt><trkpt lat="44.381005" lon="11.4476442"><ele>304.0</ele><time>2026-04-04T12:33:27.792Z</time></trkpt><trkpt lat="44.3810113" lon="11.4474755"><ele>304.0</ele><time>2026-04-04T12:33:28.793Z</time></trkpt><trkpt lat="44.3810385" lon="11.447314"><ele>304.0</ele><time>2026-04-04T12:33:29.793Z</time></trkpt><trkpt lat="44.381074" lon="11.447159"><ele>304.0</ele><time>2026-04-04T12:33:30.79Z</time></trkpt><trkpt lat="44.381097" lon="11.447004"><ele>304.0</ele><time>2026-04-04T12:33:31.791Z</time></trkpt><trkpt lat="44.3810973" lon="11.4468358"><ele>305.0</ele><time>2026-04-04T12:33:32.789Z</time></trkpt><trkpt lat="44.3810852" lon="11.446629"><ele>306.0</ele><time>2026-04-04T12:33:33.789Z</time></trkpt><trkpt lat="44.3810708" lon="11.4463852"><ele>307.0</ele><time>2026-04-04T12:33:34.79Z</time></trkpt><trkpt lat="44.381054" lon="11.4461375"><ele>308.66666666666663</ele><time>2026-04-04T12:33:35.79Z</time></trkpt><trkpt lat="44.3810438" lon="11.4459017"><ele>310.3333333333333</ele><time>2026-04-04T12:33:36.796Z</time></trkpt><trkpt lat="44.3810355" lon="11.4456828"><ele>312.0</ele><time>2026-04-04T12:33:37.791Z</time></trkpt><trkpt lat="44.3810208" lon="11.445469"><ele>314.0</ele><time>2026-04-04T12:33:38.789Z</time></trkpt><trkpt lat="44.3809838" lon="11.4452508"><ele>316.0</ele><time>2026-04-04T12:33:39.791Z</time></trkpt><trkpt lat="44.3809195" lon="11.4450237"><ele>318.0</ele><time>2026-04-04T12:33:40.791Z</time></trkpt><trkpt lat="44.3808513" lon="11.4448267"><ele>318.3333333333333</ele><time>2026-04-04T12:33:41.791Z</time></trkpt><trkpt lat="44.380778" lon="11.444628"><ele>318.66666666666663</ele><time>2026-04-04T12:33:42.792Z</time></trkpt><trkpt lat="44.3807072" lon="11.4444335"><ele>319.0</ele><time>2026-04-04T12:33:43.793Z</time></trkpt><trkpt lat="44.3806477" lon="11.4442592"><ele>319.0</ele><time>2026-04-04T12:33:44.791Z</time></trkpt><trkpt lat="44.380598" lon="11.4441058"><ele>319.0</ele><time>2026-04-04T12:33:45.792Z</time></trkpt><trkpt lat="44.3805632" lon="11.4439827"><ele>319.0</ele><time>2026-04-04T12:33:46.794Z</time></trkpt><trkpt lat="44.3805528" lon="11.4438782"><ele>319.0</ele><time>2026-04-04T12:33:47.793Z</time></trkpt><trkpt lat="44.3805717" lon="11.4437755"><ele>319.0</ele><time>2026-04-04T12:33:48.793Z</time></trkpt><trkpt lat="44.3806223" lon="11.4436602"><ele>317.66666666666663</ele><time>2026-04-04T12:33:49.794Z</time></trkpt><trkpt lat="44.3807008" lon="11.4435193"><ele>316.3333333333333</ele><time>2026-04-04T12:33:50.79Z</time></trkpt><trkpt lat="44.3808023" lon="11.4433463"><ele>315.0</ele><time>2026-04-04T12:33:51.795Z</time></trkpt><trkpt lat="44.3809165" lon="11.4431568"><ele>315.0</ele><time>2026-04-04T12:33:52.792Z</time></trkpt><trkpt lat="44.3810263" lon="11.4429805"><ele>315.0</ele><time>2026-04-04T12:33:53.79Z</time></trkpt><trkpt lat="44.3811325" lon="11.4428212"><ele>315.0</ele><time>2026-04-04T12:33:54.793Z</time></trkpt><trkpt lat="44.3812367" lon="11.4426802"><ele>313.8</ele><time>2026-04-04T12:33:55.791Z</time></trkpt><trkpt lat="44.3813393" lon="11.4425598"><ele>312.6</ele><time>2026-04-04T12:33:56.791Z</time></trkpt><trkpt lat="44.381435" lon="11.4424547"><ele>311.4</ele><time>2026-04-04T12:33:57.79Z</time></trkpt><trkpt lat="44.381519" lon="11.4423617"><ele>310.2</ele><time>2026-04-04T12:33:58.791Z</time></trkpt><trkpt lat="44.381585" lon="11.4422867"><ele>309.0</ele><time>2026-04-04T12:33:59.793Z</time></trkpt><trkpt lat="44.38163" lon="11.442171"><ele>308.4</ele><time>2026-04-04T12:34:01.79Z</time></trkpt><trkpt lat="44.381624" lon="11.442082"><ele>307.79999999999995</ele><time>2026-04-04T12:34:02.792Z</time></trkpt><trkpt lat="44.3816165" lon="11.4419497"><ele>307.20000000000005</ele><time>2026-04-04T12:34:03.79Z</time></trkpt><trkpt lat="44.3816122" lon="11.441796"><ele>306.6</ele><time>2026-04-04T12:34:04.791Z</time></trkpt><trkpt lat="44.381607" lon="11.4416425"><ele>306.0</ele><time>2026-04-04T12:34:05.792Z</time></trkpt><trkpt lat="44.3816025" lon="11.4414912"><ele>306.0</ele><time>2026-04-04T12:34:06.792Z</time></trkpt><trkpt lat="44.381599" lon="11.441337"><ele>306.0</ele><time>2026-04-04T12:34:07.791Z</time></trkpt><trkpt lat="44.381593" lon="11.441181"><ele>306.0</ele><time>2026-04-04T12:34:08.793Z</time></trkpt><trkpt lat="44.3815797" lon="11.441027"><ele>306.0</ele><time>2026-04-04T12:34:09.793Z</time></trkpt><trkpt lat="44.3815597" lon="11.4408775"><ele>306.0</ele><time>2026-04-04T12:34:10.792Z</time></trkpt><trkpt lat="44.381545" lon="11.4407338"><ele>304.6</ele><time>2026-04-04T12:34:11.791Z</time></trkpt><trkpt lat="44.3815453" lon="11.4405967"><ele>303.20000000000005</ele><time>2026-04-04T12:34:12.791Z</time></trkpt><trkpt lat="44.3815615" lon="11.4404692"><ele>301.79999999999995</ele><time>2026-04-04T12:34:13.792Z</time></trkpt><trkpt lat="44.3815933" lon="11.4403502"><ele>300.4</ele><time>2026-04-04T12:34:14.79Z</time></trkpt><trkpt lat="44.3816368" lon="11.4402443"><ele>299.0</ele><time>2026-04-04T12:34:15.791Z</time></trkpt><trkpt lat="44.3816868" lon="11.440145"><ele>298.33333333333337</ele><time>2026-04-04T12:34:16.791Z</time></trkpt><trkpt lat="44.3817395" lon="11.440062"><ele>297.6666666666667</ele><time>2026-04-04T12:34:17.791Z</time></trkpt><trkpt lat="44.381801" lon="11.4399977"><ele>297.0</ele><time>2026-04-04T12:34:18.791Z</time></trkpt><trkpt lat="44.3818705" lon="11.4399442"><ele>296.3333333333333</ele><time>2026-04-04T12:34:19.791Z</time></trkpt><trkpt lat="44.3819405" lon="11.4398947"><ele>295.66666666666663</ele><time>2026-04-04T12:34:20.789Z</time></trkpt><trkpt lat="44.3820082" lon="11.4398423"><ele>295.0</ele><time>2026-04-04T12:34:21.789Z</time></trkpt><trkpt lat="44.3820697" lon="11.4397808"><ele>295.0</ele><time>2026-04-04T12:34:22.79Z</time></trkpt><trkpt lat="44.3821153" lon="11.4397087"><ele>295.0</ele><time>2026-04-04T12:34:23.791Z</time></trkpt><trkpt lat="44.3821493" lon="11.4395542"><ele>295.0</ele><time>2026-04-04T12:34:25.791Z</time></trkpt><trkpt lat="44.3821805" lon="11.4393853"><ele>295.0</ele><time>2026-04-04T12:34:27.793Z</time></trkpt><trkpt lat="44.3822163" lon="11.4392998"><ele>295.0</ele><time>2026-04-04T12:34:28.795Z</time></trkpt><trkpt lat="44.3822712" lon="11.4392175"><ele>289.8571428571429</ele><time>2026-04-04T12:34:29.791Z</time></trkpt><trkpt lat="44.382334" lon="11.4391432"><ele>284.7142857142857</ele><time>2026-04-04T12:34:30.791Z</time></trkpt><trkpt lat="44.3823877" lon="11.4390667"><ele>279.57142857142856</ele><time>2026-04-04T12:34:31.793Z</time></trkpt><trkpt lat="44.3824272" lon="11.4389917"><ele>274.42857142857144</ele><time>2026-04-04T12:34:32.793Z</time></trkpt><trkpt lat="44.3824627" lon="11.4389112"><ele>269.2857142857143</ele><time>2026-04-04T12:34:33.791Z</time></trkpt><trkpt lat="44.3824967" lon="11.4388213"><ele>264.14285714285717</ele><time>2026-04-04T12:34:34.79Z</time></trkpt><trkpt lat="44.3825185" lon="11.4387127"><ele>259.0</ele><time>2026-04-04T12:34:35.79Z</time></trkpt><trkpt lat="44.3825255" lon="11.4385945"><ele>258.5</ele><time>2026-04-04T12:34:36.789Z</time></trkpt><trkpt lat="44.3825328" lon="11.4384707"><ele>258.0</ele><time>2026-04-04T12:34:37.792Z</time></trkpt><trkpt lat="44.382537" lon="11.4383487"><ele>257.5</ele><time>2026-04-04T12:34:38.79Z</time></trkpt><trkpt lat="44.3825343" lon="11.4382282"><ele>257.0</ele><time>2026-04-04T12:34:39.789Z</time></trkpt><trkpt lat="44.3825222" lon="11.438121"><ele>256.5</ele><time>2026-04-04T12:34:40.79Z</time></trkpt><trkpt lat="44.3824997" lon="11.4380167"><ele>256.0</ele><time>2026-04-04T12:34:41.79Z</time></trkpt><trkpt lat="44.3824638" lon="11.4379265"><ele>253.83333333333331</ele><time>2026-04-04T12:34:42.79Z</time></trkpt><trkpt lat="44.382409" lon="11.4378365"><ele>251.66666666666666</ele><time>2026-04-04T12:34:43.79Z</time></trkpt><trkpt lat="44.3823442" lon="11.4377425"><ele>249.5</ele><time>2026-04-04T12:34:44.788Z</time></trkpt><trkpt lat="44.3822837" lon="11.4376462"><ele>247.33333333333331</ele><time>2026-04-04T12:34:45.789Z</time></trkpt><trkpt lat="44.3822428" lon="11.437549"><ele>245.16666666666666</ele><time>2026-04-04T12:34:46.789Z</time></trkpt><trkpt lat="44.3822183" lon="11.4374593"><ele>243.0</ele><time>2026-04-04T12:34:47.788Z</time></trkpt><trkpt lat="44.3822142" lon="11.4373453"><ele>243.0</ele><time>2026-04-04T12:34:49.792Z</time></trkpt><trkpt lat="44.3822843" lon="11.4373647"><ele>243.0</ele><time>2026-04-04T12:34:53.792Z</time></trkpt><trkpt lat="44.3823913" lon="11.437453"><ele>243.0</ele><time>2026-04-04T12:34:55.789Z</time></trkpt><trkpt lat="44.3824605" lon="11.43747"><ele>243.0</ele><time>2026-04-04T12:34:56.79Z</time></trkpt><trkpt lat="44.3825438" lon="11.4374688"><ele>243.0</ele><time>2026-04-04T12:34:57.792Z</time></trkpt><trkpt lat="44.382625" lon="11.4374735"><ele>243.0</ele><time>2026-04-04T12:34:58.791Z</time></trkpt><trkpt lat="44.3826985" lon="11.4374967"><ele>243.0</ele><time>2026-04-04T12:34:59.793Z</time></trkpt><trkpt lat="44.3827637" lon="11.4375362"><ele>243.0</ele><time>2026-04-04T12:35:00.793Z</time></trkpt><trkpt lat="44.382832" lon="11.4375965"><ele>243.0</ele><time>2026-04-04T12:35:01.791Z</time></trkpt><trkpt lat="44.382905" lon="11.4376487"><ele>243.0</ele><time>2026-04-04T12:35:02.791Z</time></trkpt><trkpt lat="44.3829862" lon="11.437675"><ele>243.0</ele><time>2026-04-04T12:35:03.791Z</time></trkpt><trkpt lat="44.383073" lon="11.4376837"><ele>243.0</ele><time>2026-04-04T12:35:04.793Z</time></trkpt><trkpt lat="44.3831717" lon="11.4376883"><ele>238.2</ele><time>2026-04-04T12:35:05.79Z</time></trkpt><trkpt lat="44.3832787" lon="11.4376937"><ele>233.4</ele><time>2026-04-04T12:35:06.79Z</time></trkpt><trkpt lat="44.3833858" lon="11.4376882"><ele>228.59999999999997</ele><time>2026-04-04T12:35:07.791Z</time></trkpt><trkpt lat="44.3834928" lon="11.4376723"><ele>223.79999999999998</ele><time>2026-04-04T12:35:08.789Z</time></trkpt><trkpt lat="44.3835953" lon="11.4376432"><ele>219.0</ele><time>2026-04-04T12:35:09.789Z</time></trkpt><trkpt lat="44.3836965" lon="11.4376042"><ele>219.0</ele><time>2026-04-04T12:35:10.789Z</time></trkpt><trkpt lat="44.3838052" lon="11.4375572"><ele>219.0</ele><time>2026-04-04T12:35:11.788Z</time></trkpt><trkpt lat="44.3839147" lon="11.4375045"><ele>219.0</ele><time>2026-04-04T12:35:12.79Z</time></trkpt><trkpt lat="44.3840343" lon="11.4374403"><ele>219.0</ele><time>2026-04-04T12:35:13.792Z</time></trkpt><trkpt lat="44.3841492" lon="11.4373767"><ele>214.25</ele><time>2026-04-04T12:35:14.79Z</time></trkpt><trkpt lat="44.3842633" lon="11.4373043"><ele>209.5</ele><time>2026-04-04T12:35:15.792Z</time></trkpt><trkpt lat="44.3843722" lon="11.4372415"><ele>204.75</ele><time>2026-04-04T12:35:16.792Z</time></trkpt><trkpt lat="44.3844772" lon="11.4371928"><ele>200.0</ele><time>2026-04-04T12:35:17.793Z</time></trkpt><trkpt lat="44.3845765" lon="11.437126"><ele>199.4</ele><time>2026-04-04T12:35:18.793Z</time></trkpt><trkpt lat="44.3846653" lon="11.4370418"><ele>198.8</ele><time>2026-04-04T12:35:19.791Z</time></trkpt><trkpt lat="44.3847377" lon="11.4369613"><ele>198.2</ele><time>2026-04-04T12:35:20.791Z</time></trkpt><trkpt lat="44.3847903" lon="11.4368813"><ele>197.6</ele><time>2026-04-04T12:35:21.791Z</time></trkpt><trkpt lat="44.3848063" lon="11.436742"><ele>197.0</ele><time>2026-04-04T12:35:23.79Z</time></trkpt><trkpt lat="44.3847535" lon="11.4365705"><ele>196.39999999999998</ele><time>2026-04-04T12:35:25.791Z</time></trkpt><trkpt lat="44.3847395" lon="11.4364798"><ele>195.79999999999998</ele><time>2026-04-04T12:35:26.794Z</time></trkpt><trkpt lat="44.3847937" lon="11.4363577"><ele>195.2</ele><time>2026-04-04T12:35:28.793Z</time></trkpt><trkpt lat="44.3849138" lon="11.4363173"><ele>194.6</ele><time>2026-04-04T12:35:30.791Z</time></trkpt><trkpt lat="44.3849865" lon="11.4362918"><ele>194.0</ele><time>2026-04-04T12:35:31.791Z</time></trkpt><trkpt lat="44.3850658" lon="11.4361963"><ele>191.79999999999998</ele><time>2026-04-04T12:35:33.789Z</time></trkpt><trkpt lat="44.3850335" lon="11.4360405"><ele>189.6</ele><time>2026-04-04T12:35:35.789Z</time></trkpt><trkpt lat="44.3850047" lon="11.4359443"><ele>187.4</ele><time>2026-04-04T12:35:36.787Z</time></trkpt><trkpt lat="44.3849743" lon="11.4358388"><ele>185.2</ele><time>2026-04-04T12:35:37.795Z</time></trkpt><trkpt lat="44.3849382" lon="11.4357263"><ele>183.0</ele><time>2026-04-04T12:35:38.789Z</time></trkpt><trkpt lat="44.3848935" lon="11.4356118"><ele>183.0</ele><time>2026-04-04T12:35:39.789Z</time></trkpt><trkpt lat="44.3848342" lon="11.4355043"><ele>183.0</ele><time>2026-04-04T12:35:40.791Z</time></trkpt><trkpt lat="44.3847638" lon="11.435398"><ele>183.0</ele><time>2026-04-04T12:35:41.79Z</time></trkpt><trkpt lat="44.3846887" lon="11.4352902"><ele>183.0</ele><time>2026-04-04T12:35:42.79Z</time></trkpt><trkpt lat="44.3846085" lon="11.4351825"><ele>183.0</ele><time>2026-04-04T12:35:43.789Z</time></trkpt><trkpt lat="44.3845383" lon="11.4350857"><ele>178.83333333333334</ele><time>2026-04-04T12:35:44.789Z</time></trkpt><trkpt lat="44.3844902" lon="11.4349947"><ele>174.66666666666666</ele><time>2026-04-04T12:35:45.789Z</time></trkpt><trkpt lat="44.384458" lon="11.4348928"><ele>170.5</ele><time>2026-04-04T12:35:46.789Z</time></trkpt><trkpt lat="44.384448" lon="11.4347753"><ele>166.33333333333331</ele><time>2026-04-04T12:35:47.79Z</time></trkpt><trkpt lat="44.3844493" lon="11.4346488"><ele>162.16666666666666</ele><time>2026-04-04T12:35:48.79Z</time></trkpt><trkpt lat="44.3844545" lon="11.4345298"><ele>158.0</ele><time>2026-04-04T12:35:49.79Z</time></trkpt><trkpt lat="44.3844642" lon="11.434424"><ele>155.33333333333331</ele><time>2026-04-04T12:35:50.789Z</time></trkpt><trkpt lat="44.3844743" lon="11.4343323"><ele>152.66666666666666</ele><time>2026-04-04T12:35:51.791Z</time></trkpt><trkpt lat="44.3844662" lon="11.4341685"><ele>150.0</ele><time>2026-04-04T12:35:53.788Z</time></trkpt><trkpt lat="44.3844728" lon="11.4340722"><ele>147.33333333333334</ele><time>2026-04-04T12:35:54.789Z</time></trkpt><trkpt lat="44.3844813" lon="11.4339657"><ele>144.66666666666669</ele><time>2026-04-04T12:35:55.789Z</time></trkpt><trkpt lat="44.384492" lon="11.433853"><ele>142.0</ele><time>2026-04-04T12:35:56.788Z</time></trkpt><trkpt lat="44.3844983" lon="11.4337472"><ele>140.42857142857142</ele><time>2026-04-04T12:35:57.788Z</time></trkpt><trkpt lat="44.384485" lon="11.4336558"><ele>138.85714285714283</ele><time>2026-04-04T12:35:58.789Z</time></trkpt><trkpt lat="44.3844648" lon="11.4335615"><ele>137.28571428571428</ele><time>2026-04-04T12:35:59.786Z</time></trkpt><trkpt lat="44.3844567" lon="11.4334725"><ele>135.71428571428572</ele><time>2026-04-04T12:36:00.787Z</time></trkpt><trkpt lat="44.3844672" lon="11.4333805"><ele>134.14285714285717</ele><time>2026-04-04T12:36:01.791Z</time></trkpt><trkpt lat="44.3844927" lon="11.4332803"><ele>132.57142857142858</ele><time>2026-04-04T12:36:02.791Z</time></trkpt><trkpt lat="44.3845297" lon="11.4331742"><ele>131.0</ele><time>2026-04-04T12:36:03.789Z</time></trkpt><trkpt lat="44.3845705" lon="11.4330792"><ele>129.0</ele><time>2026-04-04T12:36:04.789Z</time></trkpt><trkpt lat="44.3846297" lon="11.4329468"><ele>127.0</ele><time>2026-04-04T12:36:06.787Z</time></trkpt><trkpt lat="44.3846455" lon="11.4328295"><ele>125.0</ele><time>2026-04-04T12:36:08.789Z</time></trkpt><trkpt lat="44.3845755" lon="11.432757"><ele>123.0</ele><time>2026-04-04T12:36:10.79Z</time></trkpt><trkpt lat="44.3844847" lon="11.432704"><ele>121.0</ele><time>2026-04-04T12:36:12.789Z</time></trkpt><trkpt lat="44.3845395" lon="11.4326123"><ele>121.0</ele><time>2026-04-04T12:36:15.789Z</time></trkpt><trkpt lat="44.3846157" lon="11.4326148"><ele>121.0</ele><time>2026-04-04T12:36:16.792Z</time></trkpt><trkpt lat="44.384711" lon="11.43262"><ele>121.0</ele><time>2026-04-04T12:36:17.791Z</time></trkpt><trkpt lat="44.3848222" lon="11.4326158"><ele>121.0</ele><time>2026-04-04T12:36:18.79Z</time></trkpt><trkpt lat="44.38494" lon="11.432605"><ele>121.0</ele><time>2026-04-04T12:36:19.79Z</time></trkpt><trkpt lat="44.385063" lon="11.432592"><ele>121.0</ele><time>2026-04-04T12:36:20.791Z</time></trkpt><trkpt lat="44.3851897" lon="11.4325768"><ele>121.0</ele><time>2026-04-04T12:36:21.792Z</time></trkpt><trkpt lat="44.3853193" lon="11.4325655"><ele>121.0</ele><time>2026-04-04T12:36:22.79Z</time></trkpt><trkpt lat="44.3854475" lon="11.432555"><ele>121.0</ele><time>2026-04-04T12:36:23.79Z</time></trkpt><trkpt lat="44.3855747" lon="11.4325445"><ele>121.5</ele><time>2026-04-04T12:36:24.788Z</time></trkpt><trkpt lat="44.3857008" lon="11.4325313"><ele>122.0</ele><time>2026-04-04T12:36:25.789Z</time></trkpt><trkpt lat="44.3858275" lon="11.4325197"><ele>122.5</ele><time>2026-04-04T12:36:26.789Z</time></trkpt><trkpt lat="44.3859547" lon="11.432508"><ele>123.0</ele><time>2026-04-04T12:36:27.791Z</time></trkpt><trkpt lat="44.3860823" lon="11.4324935"><ele>123.0</ele><time>2026-04-04T12:36:28.792Z</time></trkpt><trkpt lat="44.3862095" lon="11.4324747"><ele>123.0</ele><time>2026-04-04T12:36:29.791Z</time></trkpt><trkpt lat="44.3863357" lon="11.432449"><ele>123.0</ele><time>2026-04-04T12:36:30.792Z</time></trkpt><trkpt lat="44.386462" lon="11.4324175"><ele>123.0</ele><time>2026-04-04T12:36:31.791Z</time></trkpt><trkpt lat="44.3865893" lon="11.4323843"><ele>123.25</ele><time>2026-04-04T12:36:32.79Z</time></trkpt><trkpt lat="44.3867182" lon="11.432352"><ele>123.5</ele><time>2026-04-04T12:36:33.791Z</time></trkpt><trkpt lat="44.3868497" lon="11.4323192"><ele>123.75</ele><time>2026-04-04T12:36:34.791Z</time></trkpt><trkpt lat="44.386982" lon="11.4322922"><ele>124.0</ele><time>2026-04-04T12:36:35.792Z</time></trkpt><trkpt lat="44.3871138" lon="11.4322808"><ele>124.25</ele><time>2026-04-04T12:36:36.795Z</time></trkpt><trkpt lat="44.3872457" lon="11.4322905"><ele>124.5</ele><time>2026-04-04T12:36:37.792Z</time></trkpt><trkpt lat="44.3873758" lon="11.4323235"><ele>124.75</ele><time>2026-04-04T12:36:38.792Z</time></trkpt><trkpt lat="44.3875" lon="11.4323802"><ele>125.0</ele><time>2026-04-04T12:36:39.791Z</time></trkpt><trkpt lat="44.3876172" lon="11.4324475"><ele>125.0</ele><time>2026-04-04T12:36:40.791Z</time></trkpt><trkpt lat="44.3877302" lon="11.4325203"><ele>125.0</ele><time>2026-04-04T12:36:41.791Z</time></trkpt><trkpt lat="44.387844" lon="11.4325967"><ele>125.0</ele><time>2026-04-04T12:36:42.791Z</time></trkpt><trkpt lat="44.3879568" lon="11.4326598"><ele>125.0</ele><time>2026-04-04T12:36:43.792Z</time></trkpt><trkpt lat="44.3880663" lon="11.4327028"><ele>124.8</ele><time>2026-04-04T12:36:44.791Z</time></trkpt><trkpt lat="44.3881738" lon="11.4327273"><ele>124.6</ele><time>2026-04-04T12:36:45.791Z</time></trkpt><trkpt lat="44.388277" lon="11.4327363"><ele>124.4</ele><time>2026-04-04T12:36:46.789Z</time></trkpt><trkpt lat="44.3883717" lon="11.4327312"><ele>124.2</ele><time>2026-04-04T12:36:47.788Z</time></trkpt><trkpt lat="44.3884537" lon="11.4327118"><ele>124.0</ele><time>2026-04-04T12:36:48.79Z</time></trkpt><trkpt lat="44.3885232" lon="11.4326753"><ele>124.00000000000001</ele><time>2026-04-04T12:36:49.788Z</time></trkpt><trkpt lat="44.3885788" lon="11.4326265"><ele>124.0</ele><time>2026-04-04T12:36:50.789Z</time></trkpt><trkpt lat="44.3886367" lon="11.4324768"><ele>124.0</ele><time>2026-04-04T12:36:52.79Z</time></trkpt><trkpt lat="44.388631" lon="11.4323762"><ele>124.0</ele><time>2026-04-04T12:36:53.79Z</time></trkpt><trkpt lat="44.3886072" lon="11.4322893"><ele>124.00000000000001</ele><time>2026-04-04T12:36:54.79Z</time></trkpt><trkpt lat="44.3885213" lon="11.4321775"><ele>124.0</ele><time>2026-04-04T12:36:56.79Z</time></trkpt><trkpt lat="44.388423" lon="11.4321518"><ele>124.0</ele><time>2026-04-04T12:36:58.792Z</time></trkpt><trkpt lat="44.3883647" lon="11.432188"><ele>124.0</ele><time>2026-04-04T12:37:04.79Z</time></trkpt></trkseg></trk></gpx>